<?xml version="1.0" encoding="UTF-8"?>
<gpx version="1.1" creator="https://www.youtrack.es" xsi:schemaLocation="http://www.topografix.com/GPX/1/1 http://www.topografix.com/GPX/1/1/gpx.xsd http://www.garmin.com/xmlschemas/GpxExtensions/v3 http://www.garmin.com/xmlschemas/GpxExtensionsv3.xsd http://www.garmin.com/xmlschemas/TrackPointExtension/v1 http://www.garmin.com/xmlschemas/TrackPointExtensionv1.xsd" xmlns:gpxtpx="http://www.garmin.com/xmlschemas/TrackPointExtension/v1" xmlns:gpxx="http://www.garmin.com/xmlschemas/GpxExtensions/v3" xmlns:xsi="http://www.w3.org/2001/XMLSchema-instance">
  <metadata>
    <link href="https://www.youtrack.es">
      <text>YouTrack.es</text>
    </link>
    <time>2026-05-08T07:02:08Z</time>
  </metadata>
  <trk>
    <src>https://www.youtrack.es</src>
    <link href="https://www.youtrack.es/ruta/31376-cyt-17-4-22">
      <text>YouTrack.es</text>
    </link>
    <trkseg>
      <trkpt lat="40.669821" lon="-4.084189">
        <ele>949.42</ele>
        <time>2022-04-17T06:26:57+00:00</time>
      </trkpt>
      <trkpt lat="40.669885" lon="-4.084683">
        <ele>953.75</ele>
        <time>2022-04-17T06:27:03+00:00</time>
      </trkpt>
      <trkpt lat="40.669885" lon="-4.084704">
        <ele>953.75</ele>
        <time>2022-04-17T06:27:04+00:00</time>
      </trkpt>
      <trkpt lat="40.669885" lon="-4.084725">
        <ele>954.23</ele>
        <time>2022-04-17T06:27:05+00:00</time>
      </trkpt>
      <trkpt lat="40.669713" lon="-4.084532">
        <ele>954.23</ele>
        <time>2022-04-17T06:27:06+00:00</time>
      </trkpt>
      <trkpt lat="40.669735" lon="-4.084511">
        <ele>954.23</ele>
        <time>2022-04-17T06:27:07+00:00</time>
      </trkpt>
      <trkpt lat="40.669735" lon="-4.084511">
        <ele>954.71</ele>
        <time>2022-04-17T06:27:08+00:00</time>
      </trkpt>
      <trkpt lat="40.669907" lon="-4.084747">
        <ele>954.71</ele>
        <time>2022-04-17T06:27:09+00:00</time>
      </trkpt>
      <trkpt lat="40.669907" lon="-4.084747">
        <ele>954.71</ele>
        <time>2022-04-17T06:27:10+00:00</time>
      </trkpt>
      <trkpt lat="40.669928" lon="-4.084768">
        <ele>955.19</ele>
        <time>2022-04-17T06:27:11+00:00</time>
      </trkpt>
      <trkpt lat="40.669950" lon="-4.084811">
        <ele>954.71</ele>
        <time>2022-04-17T06:27:12+00:00</time>
      </trkpt>
      <trkpt lat="40.670035" lon="-4.084983">
        <ele>956.15</ele>
        <time>2022-04-17T06:27:13+00:00</time>
      </trkpt>
      <trkpt lat="40.670121" lon="-4.085133">
        <ele>956.63</ele>
        <time>2022-04-17T06:27:14+00:00</time>
      </trkpt>
      <trkpt lat="40.670207" lon="-4.085262">
        <ele>957.11</ele>
        <time>2022-04-17T06:27:15+00:00</time>
      </trkpt>
      <trkpt lat="40.670271" lon="-4.085412">
        <ele>957.59</ele>
        <time>2022-04-17T06:27:16+00:00</time>
      </trkpt>
      <trkpt lat="40.670379" lon="-4.085584">
        <ele>958.07</ele>
        <time>2022-04-17T06:27:17+00:00</time>
      </trkpt>
      <trkpt lat="40.670465" lon="-4.085627">
        <ele>958.07</ele>
        <time>2022-04-17T06:27:18+00:00</time>
      </trkpt>
      <trkpt lat="40.670550" lon="-4.085670">
        <ele>958.07</ele>
        <time>2022-04-17T06:27:19+00:00</time>
      </trkpt>
      <trkpt lat="40.671044" lon="-4.085927">
        <ele>958.07</ele>
        <time>2022-04-17T06:27:25+00:00</time>
      </trkpt>
      <trkpt lat="40.671151" lon="-4.085991">
        <ele>958.07</ele>
        <time>2022-04-17T06:27:27+00:00</time>
      </trkpt>
      <trkpt lat="40.671216" lon="-4.085949">
        <ele>958.07</ele>
        <time>2022-04-17T06:27:28+00:00</time>
      </trkpt>
      <trkpt lat="40.671902" lon="-4.085455">
        <ele>958.55</ele>
        <time>2022-04-17T06:27:35+00:00</time>
      </trkpt>
      <trkpt lat="40.673361" lon="-4.084468">
        <ele>952.30</ele>
        <time>2022-04-17T06:27:46+00:00</time>
      </trkpt>
      <trkpt lat="40.673790" lon="-4.084189">
        <ele>952.79</ele>
        <time>2022-04-17T06:27:50+00:00</time>
      </trkpt>
      <trkpt lat="40.673855" lon="-4.084146">
        <ele>952.79</ele>
        <time>2022-04-17T06:27:51+00:00</time>
      </trkpt>
      <trkpt lat="40.673898" lon="-4.083996">
        <ele>952.79</ele>
        <time>2022-04-17T06:27:52+00:00</time>
      </trkpt>
      <trkpt lat="40.673941" lon="-4.083953">
        <ele>952.79</ele>
        <time>2022-04-17T06:27:53+00:00</time>
      </trkpt>
      <trkpt lat="40.674005" lon="-4.083974">
        <ele>953.27</ele>
        <time>2022-04-17T06:27:54+00:00</time>
      </trkpt>
      <trkpt lat="40.674134" lon="-4.084060">
        <ele>953.27</ele>
        <time>2022-04-17T06:27:55+00:00</time>
      </trkpt>
      <trkpt lat="40.674177" lon="-4.084060">
        <ele>953.27</ele>
        <time>2022-04-17T06:27:56+00:00</time>
      </trkpt>
      <trkpt lat="40.674327" lon="-4.084017">
        <ele>953.27</ele>
        <time>2022-04-17T06:27:57+00:00</time>
      </trkpt>
      <trkpt lat="40.674434" lon="-4.083974">
        <ele>953.27</ele>
        <time>2022-04-17T06:27:58+00:00</time>
      </trkpt>
      <trkpt lat="40.674563" lon="-4.083910">
        <ele>953.27</ele>
        <time>2022-04-17T06:27:59+00:00</time>
      </trkpt>
      <trkpt lat="40.674906" lon="-4.083738">
        <ele>952.79</ele>
        <time>2022-04-17T06:28:02+00:00</time>
      </trkpt>
      <trkpt lat="40.674992" lon="-4.083653">
        <ele>951.82</ele>
        <time>2022-04-17T06:28:03+00:00</time>
      </trkpt>
      <trkpt lat="40.675142" lon="-4.083502">
        <ele>950.86</ele>
        <time>2022-04-17T06:28:05+00:00</time>
      </trkpt>
      <trkpt lat="40.675529" lon="-4.083095">
        <ele>948.46</ele>
        <time>2022-04-17T06:28:10+00:00</time>
      </trkpt>
      <trkpt lat="40.675593" lon="-4.082944">
        <ele>948.46</ele>
        <time>2022-04-17T06:28:11+00:00</time>
      </trkpt>
      <trkpt lat="40.675636" lon="-4.082816">
        <ele>948.46</ele>
        <time>2022-04-17T06:28:12+00:00</time>
      </trkpt>
      <trkpt lat="40.675722" lon="-4.082644">
        <ele>948.94</ele>
        <time>2022-04-17T06:28:13+00:00</time>
      </trkpt>
      <trkpt lat="40.675722" lon="-4.082472">
        <ele>948.94</ele>
        <time>2022-04-17T06:28:14+00:00</time>
      </trkpt>
      <trkpt lat="40.675743" lon="-4.082279">
        <ele>949.90</ele>
        <time>2022-04-17T06:28:15+00:00</time>
      </trkpt>
      <trkpt lat="40.675786" lon="-4.082086">
        <ele>950.38</ele>
        <time>2022-04-17T06:28:16+00:00</time>
      </trkpt>
      <trkpt lat="40.675915" lon="-4.081485">
        <ele>950.86</ele>
        <time>2022-04-17T06:28:19+00:00</time>
      </trkpt>
      <trkpt lat="40.675979" lon="-4.081292">
        <ele>950.86</ele>
        <time>2022-04-17T06:28:20+00:00</time>
      </trkpt>
      <trkpt lat="40.676516" lon="-4.080091">
        <ele>951.82</ele>
        <time>2022-04-17T06:28:27+00:00</time>
      </trkpt>
      <trkpt lat="40.677031" lon="-4.078932">
        <ele>951.82</ele>
        <time>2022-04-17T06:28:34+00:00</time>
      </trkpt>
      <trkpt lat="40.677739" lon="-4.077430">
        <ele>951.82</ele>
        <time>2022-04-17T06:28:41+00:00</time>
      </trkpt>
      <trkpt lat="40.678318" lon="-4.076164">
        <ele>949.90</ele>
        <time>2022-04-17T06:28:48+00:00</time>
      </trkpt>
      <trkpt lat="40.678833" lon="-4.075005">
        <ele>949.90</ele>
        <time>2022-04-17T06:28:55+00:00</time>
      </trkpt>
      <trkpt lat="40.679627" lon="-4.073288">
        <ele>949.90</ele>
        <time>2022-04-17T06:29:02+00:00</time>
      </trkpt>
      <trkpt lat="40.680893" lon="-4.070478">
        <ele>947.98</ele>
        <time>2022-04-17T06:29:12+00:00</time>
      </trkpt>
      <trkpt lat="40.682846" lon="-4.066186">
        <ele>949.90</ele>
        <time>2022-04-17T06:29:26+00:00</time>
      </trkpt>
      <trkpt lat="40.685378" lon="-4.060564">
        <ele>962.88</ele>
        <time>2022-04-17T06:29:44+00:00</time>
      </trkpt>
      <trkpt lat="40.687373" lon="-4.056208">
        <ele>973.45</ele>
        <time>2022-04-17T06:29:58+00:00</time>
      </trkpt>
      <trkpt lat="40.689605" lon="-4.051273">
        <ele>980.66</ele>
        <time>2022-04-17T06:30:14+00:00</time>
      </trkpt>
      <trkpt lat="40.690506" lon="-4.049449">
        <ele>985.47</ele>
        <time>2022-04-17T06:30:21+00:00</time>
      </trkpt>
      <trkpt lat="40.690699" lon="-4.049256">
        <ele>986.43</ele>
        <time>2022-04-17T06:30:22+00:00</time>
      </trkpt>
      <trkpt lat="40.690871" lon="-4.049063">
        <ele>986.91</ele>
        <time>2022-04-17T06:30:23+00:00</time>
      </trkpt>
      <trkpt lat="40.691751" lon="-4.048054">
        <ele>995.08</ele>
        <time>2022-04-17T06:30:29+00:00</time>
      </trkpt>
      <trkpt lat="40.691836" lon="-4.047926">
        <ele>996.52</ele>
        <time>2022-04-17T06:30:30+00:00</time>
      </trkpt>
      <trkpt lat="40.691901" lon="-4.047797">
        <ele>997.97</ele>
        <time>2022-04-17T06:30:31+00:00</time>
      </trkpt>
      <trkpt lat="40.691944" lon="-4.047668">
        <ele>998.93</ele>
        <time>2022-04-17T06:30:32+00:00</time>
      </trkpt>
      <trkpt lat="40.691922" lon="-4.047496">
        <ele>999.89</ele>
        <time>2022-04-17T06:30:33+00:00</time>
      </trkpt>
      <trkpt lat="40.691901" lon="-4.047325">
        <ele>1000.85</ele>
        <time>2022-04-17T06:30:34+00:00</time>
      </trkpt>
      <trkpt lat="40.691879" lon="-4.047153">
        <ele>1002.29</ele>
        <time>2022-04-17T06:30:35+00:00</time>
      </trkpt>
      <trkpt lat="40.691815" lon="-4.047003">
        <ele>1003.25</ele>
        <time>2022-04-17T06:30:36+00:00</time>
      </trkpt>
      <trkpt lat="40.691665" lon="-4.046381">
        <ele>1006.14</ele>
        <time>2022-04-17T06:30:40+00:00</time>
      </trkpt>
      <trkpt lat="40.691665" lon="-4.046230">
        <ele>1006.62</ele>
        <time>2022-04-17T06:30:41+00:00</time>
      </trkpt>
      <trkpt lat="40.691686" lon="-4.046102">
        <ele>1007.10</ele>
        <time>2022-04-17T06:30:42+00:00</time>
      </trkpt>
      <trkpt lat="40.691686" lon="-4.045866">
        <ele>1008.54</ele>
        <time>2022-04-17T06:30:44+00:00</time>
      </trkpt>
      <trkpt lat="40.691708" lon="-4.045780">
        <ele>1009.02</ele>
        <time>2022-04-17T06:30:45+00:00</time>
      </trkpt>
      <trkpt lat="40.691815" lon="-4.044728">
        <ele>1012.39</ele>
        <time>2022-04-17T06:30:52+00:00</time>
      </trkpt>
      <trkpt lat="40.691987" lon="-4.043055">
        <ele>1015.75</ele>
        <time>2022-04-17T06:31:02+00:00</time>
      </trkpt>
      <trkpt lat="40.692137" lon="-4.041252">
        <ele>1012.87</ele>
        <time>2022-04-17T06:31:12+00:00</time>
      </trkpt>
      <trkpt lat="40.692480" lon="-4.039514">
        <ele>1010.46</ele>
        <time>2022-04-17T06:31:20+00:00</time>
      </trkpt>
      <trkpt lat="40.692738" lon="-4.037948">
        <ele>1008.06</ele>
        <time>2022-04-17T06:31:28+00:00</time>
      </trkpt>
      <trkpt lat="40.692695" lon="-4.037690">
        <ele>1007.58</ele>
        <time>2022-04-17T06:31:29+00:00</time>
      </trkpt>
      <trkpt lat="40.692459" lon="-4.035909">
        <ele>1004.22</ele>
        <time>2022-04-17T06:31:37+00:00</time>
      </trkpt>
      <trkpt lat="40.692266" lon="-4.034557">
        <ele>1003.73</ele>
        <time>2022-04-17T06:31:45+00:00</time>
      </trkpt>
      <trkpt lat="40.692072" lon="-4.033034">
        <ele>1004.70</ele>
        <time>2022-04-17T06:31:57+00:00</time>
      </trkpt>
      <trkpt lat="40.691858" lon="-4.031081">
        <ele>1005.18</ele>
        <time>2022-04-17T06:32:14+00:00</time>
      </trkpt>
      <trkpt lat="40.691686" lon="-4.029536">
        <ele>1007.58</ele>
        <time>2022-04-17T06:32:26+00:00</time>
      </trkpt>
      <trkpt lat="40.691622" lon="-4.028399">
        <ele>1009.98</ele>
        <time>2022-04-17T06:32:35+00:00</time>
      </trkpt>
      <trkpt lat="40.691665" lon="-4.028184">
        <ele>1010.94</ele>
        <time>2022-04-17T06:32:37+00:00</time>
      </trkpt>
      <trkpt lat="40.691708" lon="-4.028056">
        <ele>1011.43</ele>
        <time>2022-04-17T06:32:38+00:00</time>
      </trkpt>
      <trkpt lat="40.691729" lon="-4.027927">
        <ele>1011.43</ele>
        <time>2022-04-17T06:32:39+00:00</time>
      </trkpt>
      <trkpt lat="40.691793" lon="-4.027820">
        <ele>1011.91</ele>
        <time>2022-04-17T06:32:40+00:00</time>
      </trkpt>
      <trkpt lat="40.691858" lon="-4.027712">
        <ele>1011.91</ele>
        <time>2022-04-17T06:32:41+00:00</time>
      </trkpt>
      <trkpt lat="40.691922" lon="-4.027605">
        <ele>1012.39</ele>
        <time>2022-04-17T06:32:42+00:00</time>
      </trkpt>
      <trkpt lat="40.692008" lon="-4.027519">
        <ele>1012.39</ele>
        <time>2022-04-17T06:32:43+00:00</time>
      </trkpt>
      <trkpt lat="40.692416" lon="-4.027004">
        <ele>1013.83</ele>
        <time>2022-04-17T06:32:51+00:00</time>
      </trkpt>
      <trkpt lat="40.692673" lon="-4.026661">
        <ele>1015.27</ele>
        <time>2022-04-17T06:32:57+00:00</time>
      </trkpt>
      <trkpt lat="40.692695" lon="-4.026597">
        <ele>1015.75</ele>
        <time>2022-04-17T06:32:58+00:00</time>
      </trkpt>
      <trkpt lat="40.692738" lon="-4.026532">
        <ele>1016.23</ele>
        <time>2022-04-17T06:32:59+00:00</time>
      </trkpt>
      <trkpt lat="40.692823" lon="-4.026318">
        <ele>1017.19</ele>
        <time>2022-04-17T06:33:02+00:00</time>
      </trkpt>
      <trkpt lat="40.692845" lon="-4.026253">
        <ele>1017.67</ele>
        <time>2022-04-17T06:33:03+00:00</time>
      </trkpt>
      <trkpt lat="40.693124" lon="-4.025352">
        <ele>1020.08</ele>
        <time>2022-04-17T06:33:13+00:00</time>
      </trkpt>
      <trkpt lat="40.693553" lon="-4.023893">
        <ele>1021.52</ele>
        <time>2022-04-17T06:33:24+00:00</time>
      </trkpt>
      <trkpt lat="40.693789" lon="-4.023228">
        <ele>1022.48</ele>
        <time>2022-04-17T06:33:31+00:00</time>
      </trkpt>
      <trkpt lat="40.693768" lon="-4.023078">
        <ele>1022.48</ele>
        <time>2022-04-17T06:33:32+00:00</time>
      </trkpt>
      <trkpt lat="40.693810" lon="-4.023056">
        <ele>1022.48</ele>
        <time>2022-04-17T06:33:33+00:00</time>
      </trkpt>
      <trkpt lat="40.693918" lon="-4.023078">
        <ele>1022.48</ele>
        <time>2022-04-17T06:33:34+00:00</time>
      </trkpt>
      <trkpt lat="40.693961" lon="-4.023056">
        <ele>1022.48</ele>
        <time>2022-04-17T06:33:35+00:00</time>
      </trkpt>
      <trkpt lat="40.694046" lon="-4.022927">
        <ele>1022.96</ele>
        <time>2022-04-17T06:33:36+00:00</time>
      </trkpt>
      <trkpt lat="40.694111" lon="-4.022820">
        <ele>1023.44</ele>
        <time>2022-04-17T06:33:37+00:00</time>
      </trkpt>
      <trkpt lat="40.694175" lon="-4.022670">
        <ele>1023.92</ele>
        <time>2022-04-17T06:33:38+00:00</time>
      </trkpt>
      <trkpt lat="40.694240" lon="-4.022541">
        <ele>1024.40</ele>
        <time>2022-04-17T06:33:39+00:00</time>
      </trkpt>
      <trkpt lat="40.694755" lon="-4.021318">
        <ele>1027.29</ele>
        <time>2022-04-17T06:33:46+00:00</time>
      </trkpt>
      <trkpt lat="40.695076" lon="-4.020546">
        <ele>1030.17</ele>
        <time>2022-04-17T06:33:51+00:00</time>
      </trkpt>
      <trkpt lat="40.695098" lon="-4.020352">
        <ele>1030.65</ele>
        <time>2022-04-17T06:33:52+00:00</time>
      </trkpt>
      <trkpt lat="40.695248" lon="-4.019730">
        <ele>1031.61</ele>
        <time>2022-04-17T06:33:55+00:00</time>
      </trkpt>
      <trkpt lat="40.695312" lon="-4.019537">
        <ele>1032.09</ele>
        <time>2022-04-17T06:33:56+00:00</time>
      </trkpt>
      <trkpt lat="40.695420" lon="-4.019365">
        <ele>1032.57</ele>
        <time>2022-04-17T06:33:57+00:00</time>
      </trkpt>
      <trkpt lat="40.696085" lon="-4.017863">
        <ele>1036.90</ele>
        <time>2022-04-17T06:34:04+00:00</time>
      </trkpt>
      <trkpt lat="40.696986" lon="-4.015589">
        <ele>1041.71</ele>
        <time>2022-04-17T06:34:12+00:00</time>
      </trkpt>
      <trkpt lat="40.698488" lon="-4.011662">
        <ele>1062.86</ele>
        <time>2022-04-17T06:34:25+00:00</time>
      </trkpt>
      <trkpt lat="40.698553" lon="-4.011362">
        <ele>1065.74</ele>
        <time>2022-04-17T06:34:26+00:00</time>
      </trkpt>
      <trkpt lat="40.698810" lon="-4.010246">
        <ele>1072.95</ele>
        <time>2022-04-17T06:34:30+00:00</time>
      </trkpt>
      <trkpt lat="40.698917" lon="-4.010031">
        <ele>1074.39</ele>
        <time>2022-04-17T06:34:31+00:00</time>
      </trkpt>
      <trkpt lat="40.699046" lon="-4.009795">
        <ele>1076.31</ele>
        <time>2022-04-17T06:34:32+00:00</time>
      </trkpt>
      <trkpt lat="40.699647" lon="-4.008894">
        <ele>1082.56</ele>
        <time>2022-04-17T06:34:36+00:00</time>
      </trkpt>
      <trkpt lat="40.699819" lon="-4.008701">
        <ele>1084.48</ele>
        <time>2022-04-17T06:34:37+00:00</time>
      </trkpt>
      <trkpt lat="40.700741" lon="-4.007585">
        <ele>1091.69</ele>
        <time>2022-04-17T06:34:43+00:00</time>
      </trkpt>
      <trkpt lat="40.702115" lon="-4.005611">
        <ele>1097.94</ele>
        <time>2022-04-17T06:34:52+00:00</time>
      </trkpt>
      <trkpt lat="40.702587" lon="-4.004731">
        <ele>1099.39</ele>
        <time>2022-04-17T06:34:56+00:00</time>
      </trkpt>
      <trkpt lat="40.702672" lon="-4.004452">
        <ele>1099.87</ele>
        <time>2022-04-17T06:34:57+00:00</time>
      </trkpt>
      <trkpt lat="40.702758" lon="-4.004173">
        <ele>1099.87</ele>
        <time>2022-04-17T06:34:58+00:00</time>
      </trkpt>
      <trkpt lat="40.702823" lon="-4.003894">
        <ele>1099.39</ele>
        <time>2022-04-17T06:34:59+00:00</time>
      </trkpt>
      <trkpt lat="40.702887" lon="-4.003637">
        <ele>1099.39</ele>
        <time>2022-04-17T06:35:00+00:00</time>
      </trkpt>
      <trkpt lat="40.703123" lon="-4.002757">
        <ele>1099.87</ele>
        <time>2022-04-17T06:35:05+00:00</time>
      </trkpt>
      <trkpt lat="40.703617" lon="-4.001749">
        <ele>1100.35</ele>
        <time>2022-04-17T06:35:15+00:00</time>
      </trkpt>
      <trkpt lat="40.704196" lon="-4.000762">
        <ele>1099.39</ele>
        <time>2022-04-17T06:35:21+00:00</time>
      </trkpt>
      <trkpt lat="40.704968" lon="-3.999345">
        <ele>1095.54</ele>
        <time>2022-04-17T06:35:30+00:00</time>
      </trkpt>
      <trkpt lat="40.705591" lon="-3.997951">
        <ele>1093.14</ele>
        <time>2022-04-17T06:35:36+00:00</time>
      </trkpt>
      <trkpt lat="40.706406" lon="-3.996105">
        <ele>1089.29</ele>
        <time>2022-04-17T06:35:44+00:00</time>
      </trkpt>
      <trkpt lat="40.707007" lon="-3.994625">
        <ele>1084.00</ele>
        <time>2022-04-17T06:35:52+00:00</time>
      </trkpt>
      <trkpt lat="40.707522" lon="-3.993144">
        <ele>1078.72</ele>
        <time>2022-04-17T06:36:01+00:00</time>
      </trkpt>
      <trkpt lat="40.707973" lon="-3.991792">
        <ele>1074.87</ele>
        <time>2022-04-17T06:36:08+00:00</time>
      </trkpt>
      <trkpt lat="40.708316" lon="-3.989990">
        <ele>1069.10</ele>
        <time>2022-04-17T06:36:15+00:00</time>
      </trkpt>
      <trkpt lat="40.708380" lon="-3.988938">
        <ele>1066.22</ele>
        <time>2022-04-17T06:36:21+00:00</time>
      </trkpt>
      <trkpt lat="40.708359" lon="-3.988724">
        <ele>1065.74</ele>
        <time>2022-04-17T06:36:22+00:00</time>
      </trkpt>
      <trkpt lat="40.708316" lon="-3.988123">
        <ele>1064.30</ele>
        <time>2022-04-17T06:36:25+00:00</time>
      </trkpt>
      <trkpt lat="40.708359" lon="-3.987951">
        <ele>1063.82</ele>
        <time>2022-04-17T06:36:26+00:00</time>
      </trkpt>
      <trkpt lat="40.708402" lon="-3.987801">
        <ele>1062.86</ele>
        <time>2022-04-17T06:36:27+00:00</time>
      </trkpt>
      <trkpt lat="40.708552" lon="-3.987458">
        <ele>1061.89</ele>
        <time>2022-04-17T06:36:29+00:00</time>
      </trkpt>
      <trkpt lat="40.708595" lon="-3.987308">
        <ele>1061.41</ele>
        <time>2022-04-17T06:36:30+00:00</time>
      </trkpt>
      <trkpt lat="40.708659" lon="-3.987136">
        <ele>1060.45</ele>
        <time>2022-04-17T06:36:31+00:00</time>
      </trkpt>
      <trkpt lat="40.708659" lon="-3.986964">
        <ele>1059.49</ele>
        <time>2022-04-17T06:36:32+00:00</time>
      </trkpt>
      <trkpt lat="40.708638" lon="-3.986750">
        <ele>1058.53</ele>
        <time>2022-04-17T06:36:33+00:00</time>
      </trkpt>
      <trkpt lat="40.708616" lon="-3.986535">
        <ele>1058.05</ele>
        <time>2022-04-17T06:36:34+00:00</time>
      </trkpt>
      <trkpt lat="40.708552" lon="-3.986299">
        <ele>1057.57</ele>
        <time>2022-04-17T06:36:35+00:00</time>
      </trkpt>
      <trkpt lat="40.708359" lon="-3.985291">
        <ele>1054.68</ele>
        <time>2022-04-17T06:36:40+00:00</time>
      </trkpt>
      <trkpt lat="40.708294" lon="-3.985055">
        <ele>1053.72</ele>
        <time>2022-04-17T06:36:41+00:00</time>
      </trkpt>
      <trkpt lat="40.707930" lon="-3.983381">
        <ele>1046.99</ele>
        <time>2022-04-17T06:36:47+00:00</time>
      </trkpt>
      <trkpt lat="40.707779" lon="-3.982458">
        <ele>1043.15</ele>
        <time>2022-04-17T06:36:52+00:00</time>
      </trkpt>
      <trkpt lat="40.707779" lon="-3.982286">
        <ele>1042.67</ele>
        <time>2022-04-17T06:36:53+00:00</time>
      </trkpt>
      <trkpt lat="40.707779" lon="-3.982093">
        <ele>1042.19</ele>
        <time>2022-04-17T06:36:54+00:00</time>
      </trkpt>
      <trkpt lat="40.707822" lon="-3.980248">
        <ele>1038.82</ele>
        <time>2022-04-17T06:37:02+00:00</time>
      </trkpt>
      <trkpt lat="40.708058" lon="-3.978059">
        <ele>1034.98</ele>
        <time>2022-04-17T06:37:09+00:00</time>
      </trkpt>
      <trkpt lat="40.708230" lon="-3.976278">
        <ele>1030.17</ele>
        <time>2022-04-17T06:37:15+00:00</time>
      </trkpt>
      <trkpt lat="40.708187" lon="-3.975999">
        <ele>1029.21</ele>
        <time>2022-04-17T06:37:16+00:00</time>
      </trkpt>
      <trkpt lat="40.708144" lon="-3.975699">
        <ele>1028.25</ele>
        <time>2022-04-17T06:37:17+00:00</time>
      </trkpt>
      <trkpt lat="40.708058" lon="-3.975420">
        <ele>1027.29</ele>
        <time>2022-04-17T06:37:18+00:00</time>
      </trkpt>
      <trkpt lat="40.707994" lon="-3.975141">
        <ele>1026.33</ele>
        <time>2022-04-17T06:37:19+00:00</time>
      </trkpt>
      <trkpt lat="40.707350" lon="-3.972802">
        <ele>1021.52</ele>
        <time>2022-04-17T06:37:29+00:00</time>
      </trkpt>
      <trkpt lat="40.706685" lon="-3.970227">
        <ele>1017.67</ele>
        <time>2022-04-17T06:37:40+00:00</time>
      </trkpt>
      <trkpt lat="40.706664" lon="-3.969948">
        <ele>1017.19</ele>
        <time>2022-04-17T06:37:41+00:00</time>
      </trkpt>
      <trkpt lat="40.706664" lon="-3.969648">
        <ele>1016.71</ele>
        <time>2022-04-17T06:37:42+00:00</time>
      </trkpt>
      <trkpt lat="40.706728" lon="-3.967116">
        <ele>1010.94</ele>
        <time>2022-04-17T06:37:49+00:00</time>
      </trkpt>
      <trkpt lat="40.706964" lon="-3.963103">
        <ele>1001.81</ele>
        <time>2022-04-17T06:37:59+00:00</time>
      </trkpt>
      <trkpt lat="40.707050" lon="-3.961537">
        <ele>997.97</ele>
        <time>2022-04-17T06:38:04+00:00</time>
      </trkpt>
      <trkpt lat="40.707222" lon="-3.959198">
        <ele>992.68</ele>
        <time>2022-04-17T06:38:14+00:00</time>
      </trkpt>
      <trkpt lat="40.707136" lon="-3.957675">
        <ele>989.80</ele>
        <time>2022-04-17T06:38:22+00:00</time>
      </trkpt>
      <trkpt lat="40.707093" lon="-3.957481">
        <ele>989.31</ele>
        <time>2022-04-17T06:38:23+00:00</time>
      </trkpt>
      <trkpt lat="40.707050" lon="-3.957310">
        <ele>988.83</ele>
        <time>2022-04-17T06:38:24+00:00</time>
      </trkpt>
      <trkpt lat="40.706985" lon="-3.957160">
        <ele>988.35</ele>
        <time>2022-04-17T06:38:25+00:00</time>
      </trkpt>
      <trkpt lat="40.706900" lon="-3.957009">
        <ele>987.87</ele>
        <time>2022-04-17T06:38:26+00:00</time>
      </trkpt>
      <trkpt lat="40.706814" lon="-3.956881">
        <ele>987.39</ele>
        <time>2022-04-17T06:38:27+00:00</time>
      </trkpt>
      <trkpt lat="40.706728" lon="-3.956752">
        <ele>986.91</ele>
        <time>2022-04-17T06:38:28+00:00</time>
      </trkpt>
      <trkpt lat="40.706621" lon="-3.956645">
        <ele>986.43</ele>
        <time>2022-04-17T06:38:29+00:00</time>
      </trkpt>
      <trkpt lat="40.706170" lon="-3.956108">
        <ele>984.51</ele>
        <time>2022-04-17T06:38:34+00:00</time>
      </trkpt>
      <trkpt lat="40.706127" lon="-3.955979">
        <ele>984.03</ele>
        <time>2022-04-17T06:38:35+00:00</time>
      </trkpt>
      <trkpt lat="40.706106" lon="-3.955829">
        <ele>983.55</ele>
        <time>2022-04-17T06:38:36+00:00</time>
      </trkpt>
      <trkpt lat="40.706063" lon="-3.955700">
        <ele>983.07</ele>
        <time>2022-04-17T06:38:37+00:00</time>
      </trkpt>
      <trkpt lat="40.706063" lon="-3.955572">
        <ele>982.59</ele>
        <time>2022-04-17T06:38:38+00:00</time>
      </trkpt>
      <trkpt lat="40.706063" lon="-3.955443">
        <ele>982.11</ele>
        <time>2022-04-17T06:38:39+00:00</time>
      </trkpt>
      <trkpt lat="40.706063" lon="-3.955314">
        <ele>981.62</ele>
        <time>2022-04-17T06:38:40+00:00</time>
      </trkpt>
      <trkpt lat="40.706063" lon="-3.955185">
        <ele>981.62</ele>
        <time>2022-04-17T06:38:41+00:00</time>
      </trkpt>
      <trkpt lat="40.706063" lon="-3.955078">
        <ele>981.14</ele>
        <time>2022-04-17T06:38:42+00:00</time>
      </trkpt>
      <trkpt lat="40.706041" lon="-3.954949">
        <ele>980.66</ele>
        <time>2022-04-17T06:38:43+00:00</time>
      </trkpt>
      <trkpt lat="40.706020" lon="-3.954842">
        <ele>980.66</ele>
        <time>2022-04-17T06:38:44+00:00</time>
      </trkpt>
      <trkpt lat="40.705998" lon="-3.954735">
        <ele>980.18</ele>
        <time>2022-04-17T06:38:45+00:00</time>
      </trkpt>
      <trkpt lat="40.705998" lon="-3.954628">
        <ele>980.18</ele>
        <time>2022-04-17T06:38:46+00:00</time>
      </trkpt>
      <trkpt lat="40.706020" lon="-3.954477">
        <ele>979.70</ele>
        <time>2022-04-17T06:38:47+00:00</time>
      </trkpt>
      <trkpt lat="40.705998" lon="-3.954349">
        <ele>979.22</ele>
        <time>2022-04-17T06:38:48+00:00</time>
      </trkpt>
      <trkpt lat="40.705977" lon="-3.954198">
        <ele>979.22</ele>
        <time>2022-04-17T06:38:49+00:00</time>
      </trkpt>
      <trkpt lat="40.705956" lon="-3.954027">
        <ele>978.74</ele>
        <time>2022-04-17T06:38:50+00:00</time>
      </trkpt>
      <trkpt lat="40.705634" lon="-3.952460">
        <ele>977.30</ele>
        <time>2022-04-17T06:38:58+00:00</time>
      </trkpt>
      <trkpt lat="40.705076" lon="-3.949091">
        <ele>972.97</ele>
        <time>2022-04-17T06:39:12+00:00</time>
      </trkpt>
      <trkpt lat="40.704561" lon="-3.947139">
        <ele>970.09</ele>
        <time>2022-04-17T06:39:20+00:00</time>
      </trkpt>
      <trkpt lat="40.703295" lon="-3.944843">
        <ele>964.80</ele>
        <time>2022-04-17T06:39:31+00:00</time>
      </trkpt>
      <trkpt lat="40.702394" lon="-3.943706">
        <ele>961.92</ele>
        <time>2022-04-17T06:39:39+00:00</time>
      </trkpt>
      <trkpt lat="40.702329" lon="-3.943620">
        <ele>961.44</ele>
        <time>2022-04-17T06:39:40+00:00</time>
      </trkpt>
      <trkpt lat="40.702093" lon="-3.943598">
        <ele>960.96</ele>
        <time>2022-04-17T06:39:41+00:00</time>
      </trkpt>
      <trkpt lat="40.701900" lon="-3.943598">
        <ele>960.48</ele>
        <time>2022-04-17T06:39:43+00:00</time>
      </trkpt>
      <trkpt lat="40.701814" lon="-3.943534">
        <ele>959.99</ele>
        <time>2022-04-17T06:39:44+00:00</time>
      </trkpt>
      <trkpt lat="40.701750" lon="-3.943448">
        <ele>959.51</ele>
        <time>2022-04-17T06:39:45+00:00</time>
      </trkpt>
      <trkpt lat="40.701728" lon="-3.943319">
        <ele>959.51</ele>
        <time>2022-04-17T06:39:46+00:00</time>
      </trkpt>
      <trkpt lat="40.701728" lon="-3.943169">
        <ele>959.03</ele>
        <time>2022-04-17T06:39:47+00:00</time>
      </trkpt>
      <trkpt lat="40.701685" lon="-3.943019">
        <ele>959.03</ele>
        <time>2022-04-17T06:39:48+00:00</time>
      </trkpt>
      <trkpt lat="40.701364" lon="-3.942204">
        <ele>958.07</ele>
        <time>2022-04-17T06:39:54+00:00</time>
      </trkpt>
      <trkpt lat="40.701278" lon="-3.942096">
        <ele>958.07</ele>
        <time>2022-04-17T06:39:55+00:00</time>
      </trkpt>
      <trkpt lat="40.700827" lon="-3.941410">
        <ele>958.07</ele>
        <time>2022-04-17T06:40:00+00:00</time>
      </trkpt>
      <trkpt lat="40.700763" lon="-3.941259">
        <ele>958.07</ele>
        <time>2022-04-17T06:40:01+00:00</time>
      </trkpt>
      <trkpt lat="40.700720" lon="-3.941109">
        <ele>958.07</ele>
        <time>2022-04-17T06:40:02+00:00</time>
      </trkpt>
      <trkpt lat="40.700677" lon="-3.940938">
        <ele>957.59</ele>
        <time>2022-04-17T06:40:03+00:00</time>
      </trkpt>
      <trkpt lat="40.700655" lon="-3.940766">
        <ele>957.59</ele>
        <time>2022-04-17T06:40:04+00:00</time>
      </trkpt>
      <trkpt lat="40.700634" lon="-3.940594">
        <ele>957.59</ele>
        <time>2022-04-17T06:40:05+00:00</time>
      </trkpt>
      <trkpt lat="40.700613" lon="-3.940401">
        <ele>957.59</ele>
        <time>2022-04-17T06:40:06+00:00</time>
      </trkpt>
      <trkpt lat="40.700334" lon="-3.938105">
        <ele>953.27</ele>
        <time>2022-04-17T06:40:20+00:00</time>
      </trkpt>
      <trkpt lat="40.700205" lon="-3.937633">
        <ele>952.30</ele>
        <time>2022-04-17T06:40:24+00:00</time>
      </trkpt>
      <trkpt lat="40.700162" lon="-3.937504">
        <ele>951.82</ele>
        <time>2022-04-17T06:40:25+00:00</time>
      </trkpt>
      <trkpt lat="40.700119" lon="-3.937376">
        <ele>951.34</ele>
        <time>2022-04-17T06:40:26+00:00</time>
      </trkpt>
      <trkpt lat="40.700098" lon="-3.937247">
        <ele>951.34</ele>
        <time>2022-04-17T06:40:27+00:00</time>
      </trkpt>
      <trkpt lat="40.700098" lon="-3.937097">
        <ele>950.86</ele>
        <time>2022-04-17T06:40:28+00:00</time>
      </trkpt>
      <trkpt lat="40.700119" lon="-3.936946">
        <ele>950.86</ele>
        <time>2022-04-17T06:40:29+00:00</time>
      </trkpt>
      <trkpt lat="40.700140" lon="-3.936796">
        <ele>950.86</ele>
        <time>2022-04-17T06:40:30+00:00</time>
      </trkpt>
      <trkpt lat="40.700098" lon="-3.936646">
        <ele>950.38</ele>
        <time>2022-04-17T06:40:31+00:00</time>
      </trkpt>
      <trkpt lat="40.700055" lon="-3.936496">
        <ele>950.38</ele>
        <time>2022-04-17T06:40:32+00:00</time>
      </trkpt>
      <trkpt lat="40.699926" lon="-3.935144">
        <ele>948.94</ele>
        <time>2022-04-17T06:40:40+00:00</time>
      </trkpt>
      <trkpt lat="40.699797" lon="-3.933277">
        <ele>945.09</ele>
        <time>2022-04-17T06:40:50+00:00</time>
      </trkpt>
      <trkpt lat="40.699475" lon="-3.931732">
        <ele>941.73</ele>
        <time>2022-04-17T06:41:01+00:00</time>
      </trkpt>
      <trkpt lat="40.699432" lon="-3.931625">
        <ele>941.73</ele>
        <time>2022-04-17T06:41:02+00:00</time>
      </trkpt>
      <trkpt lat="40.699368" lon="-3.931539">
        <ele>941.25</ele>
        <time>2022-04-17T06:41:03+00:00</time>
      </trkpt>
      <trkpt lat="40.699325" lon="-3.931432">
        <ele>940.77</ele>
        <time>2022-04-17T06:41:04+00:00</time>
      </trkpt>
      <trkpt lat="40.699282" lon="-3.931325">
        <ele>940.77</ele>
        <time>2022-04-17T06:41:05+00:00</time>
      </trkpt>
      <trkpt lat="40.699261" lon="-3.931239">
        <ele>940.29</ele>
        <time>2022-04-17T06:41:06+00:00</time>
      </trkpt>
      <trkpt lat="40.699282" lon="-3.931131">
        <ele>940.29</ele>
        <time>2022-04-17T06:41:07+00:00</time>
      </trkpt>
      <trkpt lat="40.699325" lon="-3.931024">
        <ele>939.81</ele>
        <time>2022-04-17T06:41:08+00:00</time>
      </trkpt>
      <trkpt lat="40.699389" lon="-3.930981">
        <ele>939.33</ele>
        <time>2022-04-17T06:41:09+00:00</time>
      </trkpt>
      <trkpt lat="40.699475" lon="-3.930938">
        <ele>939.33</ele>
        <time>2022-04-17T06:41:10+00:00</time>
      </trkpt>
      <trkpt lat="40.699583" lon="-3.930938">
        <ele>938.85</ele>
        <time>2022-04-17T06:41:11+00:00</time>
      </trkpt>
      <trkpt lat="40.699668" lon="-3.930874">
        <ele>938.37</ele>
        <time>2022-04-17T06:41:12+00:00</time>
      </trkpt>
      <trkpt lat="40.699776" lon="-3.930831">
        <ele>938.37</ele>
        <time>2022-04-17T06:41:13+00:00</time>
      </trkpt>
      <trkpt lat="40.699862" lon="-3.930745">
        <ele>937.88</ele>
        <time>2022-04-17T06:41:14+00:00</time>
      </trkpt>
      <trkpt lat="40.699947" lon="-3.930616">
        <ele>937.40</ele>
        <time>2022-04-17T06:41:15+00:00</time>
      </trkpt>
      <trkpt lat="40.700012" lon="-3.930445">
        <ele>936.92</ele>
        <time>2022-04-17T06:41:16+00:00</time>
      </trkpt>
      <trkpt lat="40.700098" lon="-3.930316">
        <ele>936.92</ele>
        <time>2022-04-17T06:41:17+00:00</time>
      </trkpt>
      <trkpt lat="40.701342" lon="-3.927977">
        <ele>930.68</ele>
        <time>2022-04-17T06:41:32+00:00</time>
      </trkpt>
      <trkpt lat="40.701385" lon="-3.927805">
        <ele>930.19</ele>
        <time>2022-04-17T06:41:33+00:00</time>
      </trkpt>
      <trkpt lat="40.701449" lon="-3.927612">
        <ele>930.19</ele>
        <time>2022-04-17T06:41:34+00:00</time>
      </trkpt>
      <trkpt lat="40.701471" lon="-3.927441">
        <ele>929.71</ele>
        <time>2022-04-17T06:41:35+00:00</time>
      </trkpt>
      <trkpt lat="40.701900" lon="-3.925273">
        <ele>928.75</ele>
        <time>2022-04-17T06:41:47+00:00</time>
      </trkpt>
      <trkpt lat="40.702737" lon="-3.922763">
        <ele>924.43</ele>
        <time>2022-04-17T06:42:00+00:00</time>
      </trkpt>
      <trkpt lat="40.703080" lon="-3.921905">
        <ele>922.98</ele>
        <time>2022-04-17T06:42:04+00:00</time>
      </trkpt>
      <trkpt lat="40.703209" lon="-3.921711">
        <ele>922.50</ele>
        <time>2022-04-17T06:42:05+00:00</time>
      </trkpt>
      <trkpt lat="40.703359" lon="-3.921540">
        <ele>922.02</ele>
        <time>2022-04-17T06:42:06+00:00</time>
      </trkpt>
      <trkpt lat="40.704797" lon="-3.919995">
        <ele>917.70</ele>
        <time>2022-04-17T06:42:15+00:00</time>
      </trkpt>
      <trkpt lat="40.705119" lon="-3.919566">
        <ele>917.22</ele>
        <time>2022-04-17T06:42:17+00:00</time>
      </trkpt>
      <trkpt lat="40.705269" lon="-3.919287">
        <ele>916.74</ele>
        <time>2022-04-17T06:42:18+00:00</time>
      </trkpt>
      <trkpt lat="40.706084" lon="-3.917592">
        <ele>915.77</ele>
        <time>2022-04-17T06:42:23+00:00</time>
      </trkpt>
      <trkpt lat="40.707629" lon="-3.914437">
        <ele>913.85</ele>
        <time>2022-04-17T06:42:32+00:00</time>
      </trkpt>
      <trkpt lat="40.709045" lon="-3.912227">
        <ele>912.41</ele>
        <time>2022-04-17T06:42:39+00:00</time>
      </trkpt>
      <trkpt lat="40.710912" lon="-3.909717">
        <ele>910.97</ele>
        <time>2022-04-17T06:42:48+00:00</time>
      </trkpt>
      <trkpt lat="40.712543" lon="-3.907614">
        <ele>909.53</ele>
        <time>2022-04-17T06:42:56+00:00</time>
      </trkpt>
      <trkpt lat="40.713659" lon="-3.905554">
        <ele>907.60</ele>
        <time>2022-04-17T06:43:04+00:00</time>
      </trkpt>
      <trkpt lat="40.713895" lon="-3.904803">
        <ele>907.12</ele>
        <time>2022-04-17T06:43:07+00:00</time>
      </trkpt>
      <trkpt lat="40.714474" lon="-3.901649">
        <ele>906.16</ele>
        <time>2022-04-17T06:43:19+00:00</time>
      </trkpt>
      <trkpt lat="40.714796" lon="-3.899803">
        <ele>905.68</ele>
        <time>2022-04-17T06:43:27+00:00</time>
      </trkpt>
      <trkpt lat="40.715139" lon="-3.897357">
        <ele>905.20</ele>
        <time>2022-04-17T06:43:37+00:00</time>
      </trkpt>
      <trkpt lat="40.715268" lon="-3.895168">
        <ele>905.20</ele>
        <time>2022-04-17T06:43:43+00:00</time>
      </trkpt>
      <trkpt lat="40.715483" lon="-3.892229">
        <ele>905.20</ele>
        <time>2022-04-17T06:43:51+00:00</time>
      </trkpt>
      <trkpt lat="40.715569" lon="-3.891885">
        <ele>905.20</ele>
        <time>2022-04-17T06:43:52+00:00</time>
      </trkpt>
      <trkpt lat="40.715697" lon="-3.891542">
        <ele>905.20</ele>
        <time>2022-04-17T06:43:53+00:00</time>
      </trkpt>
      <trkpt lat="40.715826" lon="-3.891177">
        <ele>904.72</ele>
        <time>2022-04-17T06:43:54+00:00</time>
      </trkpt>
      <trkpt lat="40.717350" lon="-3.887444">
        <ele>904.24</ele>
        <time>2022-04-17T06:44:04+00:00</time>
      </trkpt>
      <trkpt lat="40.719903" lon="-3.882272">
        <ele>906.16</ele>
        <time>2022-04-17T06:44:18+00:00</time>
      </trkpt>
      <trkpt lat="40.721233" lon="-3.879826">
        <ele>907.60</ele>
        <time>2022-04-17T06:44:26+00:00</time>
      </trkpt>
      <trkpt lat="40.721426" lon="-3.879590">
        <ele>907.12</ele>
        <time>2022-04-17T06:44:27+00:00</time>
      </trkpt>
      <trkpt lat="40.721684" lon="-3.879376">
        <ele>906.64</ele>
        <time>2022-04-17T06:44:28+00:00</time>
      </trkpt>
      <trkpt lat="40.723486" lon="-3.877637">
        <ele>903.28</ele>
        <time>2022-04-17T06:44:36+00:00</time>
      </trkpt>
      <trkpt lat="40.723637" lon="-3.877358">
        <ele>903.28</ele>
        <time>2022-04-17T06:44:37+00:00</time>
      </trkpt>
      <trkpt lat="40.723787" lon="-3.877058">
        <ele>903.28</ele>
        <time>2022-04-17T06:44:38+00:00</time>
      </trkpt>
      <trkpt lat="40.723894" lon="-3.876758">
        <ele>903.28</ele>
        <time>2022-04-17T06:44:39+00:00</time>
      </trkpt>
      <trkpt lat="40.723958" lon="-3.876414">
        <ele>903.76</ele>
        <time>2022-04-17T06:44:40+00:00</time>
      </trkpt>
      <trkpt lat="40.724001" lon="-3.876071">
        <ele>904.72</ele>
        <time>2022-04-17T06:44:41+00:00</time>
      </trkpt>
      <trkpt lat="40.724001" lon="-3.875706">
        <ele>905.20</ele>
        <time>2022-04-17T06:44:42+00:00</time>
      </trkpt>
      <trkpt lat="40.724023" lon="-3.875341">
        <ele>906.16</ele>
        <time>2022-04-17T06:44:43+00:00</time>
      </trkpt>
      <trkpt lat="40.724023" lon="-3.872531">
        <ele>913.37</ele>
        <time>2022-04-17T06:44:51+00:00</time>
      </trkpt>
      <trkpt lat="40.724066" lon="-3.872230">
        <ele>913.37</ele>
        <time>2022-04-17T06:44:52+00:00</time>
      </trkpt>
      <trkpt lat="40.724152" lon="-3.871908">
        <ele>913.85</ele>
        <time>2022-04-17T06:44:53+00:00</time>
      </trkpt>
      <trkpt lat="40.724237" lon="-3.871586">
        <ele>914.33</ele>
        <time>2022-04-17T06:44:54+00:00</time>
      </trkpt>
      <trkpt lat="40.724924" lon="-3.869634">
        <ele>915.29</ele>
        <time>2022-04-17T06:45:01+00:00</time>
      </trkpt>
      <trkpt lat="40.725031" lon="-3.869205">
        <ele>914.33</ele>
        <time>2022-04-17T06:45:03+00:00</time>
      </trkpt>
      <trkpt lat="40.725074" lon="-3.868990">
        <ele>914.33</ele>
        <time>2022-04-17T06:45:04+00:00</time>
      </trkpt>
      <trkpt lat="40.725053" lon="-3.868818">
        <ele>913.85</ele>
        <time>2022-04-17T06:45:05+00:00</time>
      </trkpt>
      <trkpt lat="40.725031" lon="-3.868668">
        <ele>912.89</ele>
        <time>2022-04-17T06:45:06+00:00</time>
      </trkpt>
      <trkpt lat="40.725010" lon="-3.868539">
        <ele>911.93</ele>
        <time>2022-04-17T06:45:07+00:00</time>
      </trkpt>
      <trkpt lat="40.724946" lon="-3.868454">
        <ele>911.45</ele>
        <time>2022-04-17T06:45:08+00:00</time>
      </trkpt>
      <trkpt lat="40.724903" lon="-3.868303">
        <ele>910.97</ele>
        <time>2022-04-17T06:45:09+00:00</time>
      </trkpt>
      <trkpt lat="40.724881" lon="-3.868175">
        <ele>910.49</ele>
        <time>2022-04-17T06:45:10+00:00</time>
      </trkpt>
      <trkpt lat="40.724946" lon="-3.868024">
        <ele>909.53</ele>
        <time>2022-04-17T06:45:11+00:00</time>
      </trkpt>
      <trkpt lat="40.725074" lon="-3.867703">
        <ele>908.08</ele>
        <time>2022-04-17T06:45:13+00:00</time>
      </trkpt>
      <trkpt lat="40.725096" lon="-3.867466">
        <ele>907.60</ele>
        <time>2022-04-17T06:45:14+00:00</time>
      </trkpt>
      <trkpt lat="40.725117" lon="-3.867209">
        <ele>906.64</ele>
        <time>2022-04-17T06:45:15+00:00</time>
      </trkpt>
      <trkpt lat="40.725139" lon="-3.865213">
        <ele>902.80</ele>
        <time>2022-04-17T06:45:21+00:00</time>
      </trkpt>
      <trkpt lat="40.725267" lon="-3.863132">
        <ele>900.39</ele>
        <time>2022-04-17T06:45:27+00:00</time>
      </trkpt>
      <trkpt lat="40.725332" lon="-3.862789">
        <ele>900.39</ele>
        <time>2022-04-17T06:45:28+00:00</time>
      </trkpt>
      <trkpt lat="40.725461" lon="-3.862467">
        <ele>899.91</ele>
        <time>2022-04-17T06:45:29+00:00</time>
      </trkpt>
      <trkpt lat="40.725568" lon="-3.862145">
        <ele>899.91</ele>
        <time>2022-04-17T06:45:30+00:00</time>
      </trkpt>
      <trkpt lat="40.725739" lon="-3.861866">
        <ele>900.39</ele>
        <time>2022-04-17T06:45:31+00:00</time>
      </trkpt>
      <trkpt lat="40.725911" lon="-3.861609">
        <ele>900.39</ele>
        <time>2022-04-17T06:45:32+00:00</time>
      </trkpt>
      <trkpt lat="40.726104" lon="-3.861373">
        <ele>900.87</ele>
        <time>2022-04-17T06:45:33+00:00</time>
      </trkpt>
      <trkpt lat="40.726297" lon="-3.861158">
        <ele>901.35</ele>
        <time>2022-04-17T06:45:34+00:00</time>
      </trkpt>
      <trkpt lat="40.726512" lon="-3.861008">
        <ele>901.84</ele>
        <time>2022-04-17T06:45:35+00:00</time>
      </trkpt>
      <trkpt lat="40.726684" lon="-3.860858">
        <ele>902.32</ele>
        <time>2022-04-17T06:45:36+00:00</time>
      </trkpt>
      <trkpt lat="40.727349" lon="-3.860171">
        <ele>903.28</ele>
        <time>2022-04-17T06:45:41+00:00</time>
      </trkpt>
      <trkpt lat="40.727714" lon="-3.859656">
        <ele>903.28</ele>
        <time>2022-04-17T06:45:47+00:00</time>
      </trkpt>
      <trkpt lat="40.727821" lon="-3.859484">
        <ele>902.80</ele>
        <time>2022-04-17T06:45:50+00:00</time>
      </trkpt>
      <trkpt lat="40.727864" lon="-3.859441">
        <ele>902.80</ele>
        <time>2022-04-17T06:45:51+00:00</time>
      </trkpt>
      <trkpt lat="40.727971" lon="-3.859270">
        <ele>901.84</ele>
        <time>2022-04-17T06:45:58+00:00</time>
      </trkpt>
      <trkpt lat="40.728100" lon="-3.859055">
        <ele>898.95</ele>
        <time>2022-04-17T06:46:11+00:00</time>
      </trkpt>
      <trkpt lat="40.728186" lon="-3.858883">
        <ele>901.35</ele>
        <time>2022-04-17T06:46:22+00:00</time>
      </trkpt>
      <trkpt lat="40.728186" lon="-3.858883">
        <ele>901.35</ele>
        <time>2022-04-17T06:46:50+00:00</time>
      </trkpt>
      <trkpt lat="40.738872" lon="-3.816311">
        <ele>888.38</ele>
        <time>2022-04-17T07:17:49+00:00</time>
      </trkpt>
      <trkpt lat="40.739279" lon="-3.814917">
        <ele>895.11</ele>
        <time>2022-04-17T07:17:57+00:00</time>
      </trkpt>
      <trkpt lat="40.739301" lon="-3.814788">
        <ele>895.11</ele>
        <time>2022-04-17T07:17:58+00:00</time>
      </trkpt>
      <trkpt lat="40.739301" lon="-3.814681">
        <ele>895.59</ele>
        <time>2022-04-17T07:17:59+00:00</time>
      </trkpt>
      <trkpt lat="40.739301" lon="-3.814552">
        <ele>896.07</ele>
        <time>2022-04-17T07:18:00+00:00</time>
      </trkpt>
      <trkpt lat="40.739322" lon="-3.814445">
        <ele>896.55</ele>
        <time>2022-04-17T07:18:01+00:00</time>
      </trkpt>
      <trkpt lat="40.739387" lon="-3.814359">
        <ele>896.07</ele>
        <time>2022-04-17T07:18:02+00:00</time>
      </trkpt>
      <trkpt lat="40.739451" lon="-3.814294">
        <ele>896.07</ele>
        <time>2022-04-17T07:18:03+00:00</time>
      </trkpt>
      <trkpt lat="40.739451" lon="-3.814294">
        <ele>896.07</ele>
        <time>2022-04-17T07:18:04+00:00</time>
      </trkpt>
      <trkpt lat="40.739708" lon="-3.814123">
        <ele>895.59</ele>
        <time>2022-04-17T07:18:05+00:00</time>
      </trkpt>
      <trkpt lat="40.739751" lon="-3.813994">
        <ele>895.59</ele>
        <time>2022-04-17T07:18:06+00:00</time>
      </trkpt>
      <trkpt lat="40.739794" lon="-3.813844">
        <ele>895.59</ele>
        <time>2022-04-17T07:18:07+00:00</time>
      </trkpt>
      <trkpt lat="40.739837" lon="-3.813694">
        <ele>895.59</ele>
        <time>2022-04-17T07:18:08+00:00</time>
      </trkpt>
      <trkpt lat="40.739902" lon="-3.813543">
        <ele>896.07</ele>
        <time>2022-04-17T07:18:09+00:00</time>
      </trkpt>
      <trkpt lat="40.740502" lon="-3.812192">
        <ele>898.47</ele>
        <time>2022-04-17T07:18:17+00:00</time>
      </trkpt>
      <trkpt lat="40.741425" lon="-3.810411">
        <ele>901.84</ele>
        <time>2022-04-17T07:18:24+00:00</time>
      </trkpt>
      <trkpt lat="40.742519" lon="-3.808286">
        <ele>903.76</ele>
        <time>2022-04-17T07:18:32+00:00</time>
      </trkpt>
      <trkpt lat="40.743442" lon="-3.806527">
        <ele>904.72</ele>
        <time>2022-04-17T07:18:38+00:00</time>
      </trkpt>
      <trkpt lat="40.744923" lon="-3.803673">
        <ele>907.12</ele>
        <time>2022-04-17T07:18:47+00:00</time>
      </trkpt>
      <trkpt lat="40.745373" lon="-3.802815">
        <ele>910.01</ele>
        <time>2022-04-17T07:18:52+00:00</time>
      </trkpt>
      <trkpt lat="40.746425" lon="-3.800776">
        <ele>912.41</ele>
        <time>2022-04-17T07:19:05+00:00</time>
      </trkpt>
      <trkpt lat="40.747004" lon="-3.799682">
        <ele>912.41</ele>
        <time>2022-04-17T07:19:14+00:00</time>
      </trkpt>
      <trkpt lat="40.747669" lon="-3.798416">
        <ele>913.37</ele>
        <time>2022-04-17T07:19:21+00:00</time>
      </trkpt>
      <trkpt lat="40.748785" lon="-3.796270">
        <ele>915.29</ele>
        <time>2022-04-17T07:19:31+00:00</time>
      </trkpt>
      <trkpt lat="40.749407" lon="-3.795025">
        <ele>917.22</ele>
        <time>2022-04-17T07:19:38+00:00</time>
      </trkpt>
      <trkpt lat="40.750094" lon="-3.793438">
        <ele>918.18</ele>
        <time>2022-04-17T07:19:46+00:00</time>
      </trkpt>
      <trkpt lat="40.750759" lon="-3.791399">
        <ele>917.70</ele>
        <time>2022-04-17T07:19:55+00:00</time>
      </trkpt>
      <trkpt lat="40.750952" lon="-3.789790">
        <ele>917.70</ele>
        <time>2022-04-17T07:20:02+00:00</time>
      </trkpt>
      <trkpt lat="40.751081" lon="-3.788781">
        <ele>916.26</ele>
        <time>2022-04-17T07:20:09+00:00</time>
      </trkpt>
      <trkpt lat="40.751124" lon="-3.788631">
        <ele>916.26</ele>
        <time>2022-04-17T07:20:10+00:00</time>
      </trkpt>
      <trkpt lat="40.751210" lon="-3.788502">
        <ele>915.77</ele>
        <time>2022-04-17T07:20:11+00:00</time>
      </trkpt>
      <trkpt lat="40.751961" lon="-3.787236">
        <ele>915.29</ele>
        <time>2022-04-17T07:20:21+00:00</time>
      </trkpt>
      <trkpt lat="40.752712" lon="-3.785970">
        <ele>916.74</ele>
        <time>2022-04-17T07:20:32+00:00</time>
      </trkpt>
      <trkpt lat="40.753527" lon="-3.784618">
        <ele>919.14</ele>
        <time>2022-04-17T07:20:44+00:00</time>
      </trkpt>
      <trkpt lat="40.754214" lon="-3.783417">
        <ele>921.06</ele>
        <time>2022-04-17T07:20:55+00:00</time>
      </trkpt>
      <trkpt lat="40.754257" lon="-3.783245">
        <ele>921.54</ele>
        <time>2022-04-17T07:20:57+00:00</time>
      </trkpt>
      <trkpt lat="40.754343" lon="-3.783159">
        <ele>921.54</ele>
        <time>2022-04-17T07:20:58+00:00</time>
      </trkpt>
      <trkpt lat="40.754407" lon="-3.783052">
        <ele>922.02</ele>
        <time>2022-04-17T07:20:59+00:00</time>
      </trkpt>
      <trkpt lat="40.754471" lon="-3.782923">
        <ele>922.02</ele>
        <time>2022-04-17T07:21:00+00:00</time>
      </trkpt>
      <trkpt lat="40.754557" lon="-3.782773">
        <ele>922.02</ele>
        <time>2022-04-17T07:21:01+00:00</time>
      </trkpt>
      <trkpt lat="40.755094" lon="-3.781657">
        <ele>923.47</ele>
        <time>2022-04-17T07:21:08+00:00</time>
      </trkpt>
      <trkpt lat="40.755351" lon="-3.780906">
        <ele>923.47</ele>
        <time>2022-04-17T07:21:14+00:00</time>
      </trkpt>
      <trkpt lat="40.755544" lon="-3.780799">
        <ele>923.47</ele>
        <time>2022-04-17T07:21:15+00:00</time>
      </trkpt>
      <trkpt lat="40.756059" lon="-3.779769">
        <ele>927.31</ele>
        <time>2022-04-17T07:21:22+00:00</time>
      </trkpt>
      <trkpt lat="40.756681" lon="-3.778267">
        <ele>933.08</ele>
        <time>2022-04-17T07:21:30+00:00</time>
      </trkpt>
      <trkpt lat="40.757003" lon="-3.776851">
        <ele>935.96</ele>
        <time>2022-04-17T07:21:38+00:00</time>
      </trkpt>
      <trkpt lat="40.757368" lon="-3.775156">
        <ele>938.37</ele>
        <time>2022-04-17T07:21:50+00:00</time>
      </trkpt>
      <trkpt lat="40.757282" lon="-3.774877">
        <ele>938.37</ele>
        <time>2022-04-17T07:21:52+00:00</time>
      </trkpt>
      <trkpt lat="40.757304" lon="-3.774769">
        <ele>937.88</ele>
        <time>2022-04-17T07:21:53+00:00</time>
      </trkpt>
      <trkpt lat="40.757304" lon="-3.774748">
        <ele>937.88</ele>
        <time>2022-04-17T07:21:54+00:00</time>
      </trkpt>
      <trkpt lat="40.757540" lon="-3.774383">
        <ele>937.40</ele>
        <time>2022-04-17T07:21:56+00:00</time>
      </trkpt>
      <trkpt lat="40.757583" lon="-3.774190">
        <ele>937.40</ele>
        <time>2022-04-17T07:21:57+00:00</time>
      </trkpt>
      <trkpt lat="40.757905" lon="-3.772538">
        <ele>941.73</ele>
        <time>2022-04-17T07:22:04+00:00</time>
      </trkpt>
      <trkpt lat="40.758226" lon="-3.770371">
        <ele>949.42</ele>
        <time>2022-04-17T07:22:11+00:00</time>
      </trkpt>
      <trkpt lat="40.758377" lon="-3.769705">
        <ele>950.38</ele>
        <time>2022-04-17T07:22:13+00:00</time>
      </trkpt>
      <trkpt lat="40.758484" lon="-3.769383">
        <ele>950.86</ele>
        <time>2022-04-17T07:22:14+00:00</time>
      </trkpt>
      <trkpt lat="40.758934" lon="-3.768075">
        <ele>953.27</ele>
        <time>2022-04-17T07:22:18+00:00</time>
      </trkpt>
      <trkpt lat="40.759020" lon="-3.767731">
        <ele>954.71</ele>
        <time>2022-04-17T07:22:19+00:00</time>
      </trkpt>
      <trkpt lat="40.759042" lon="-3.767409">
        <ele>955.67</ele>
        <time>2022-04-17T07:22:20+00:00</time>
      </trkpt>
      <trkpt lat="40.759063" lon="-3.767088">
        <ele>957.11</ele>
        <time>2022-04-17T07:22:21+00:00</time>
      </trkpt>
      <trkpt lat="40.759063" lon="-3.766787">
        <ele>958.07</ele>
        <time>2022-04-17T07:22:22+00:00</time>
      </trkpt>
      <trkpt lat="40.759106" lon="-3.765328">
        <ele>964.80</ele>
        <time>2022-04-17T07:22:28+00:00</time>
      </trkpt>
      <trkpt lat="40.759213" lon="-3.764877">
        <ele>968.17</ele>
        <time>2022-04-17T07:22:31+00:00</time>
      </trkpt>
      <trkpt lat="40.759128" lon="-3.764706">
        <ele>968.65</ele>
        <time>2022-04-17T07:22:32+00:00</time>
      </trkpt>
      <trkpt lat="40.759085" lon="-3.764598">
        <ele>969.61</ele>
        <time>2022-04-17T07:22:33+00:00</time>
      </trkpt>
      <trkpt lat="40.759085" lon="-3.764470">
        <ele>970.57</ele>
        <time>2022-04-17T07:22:34+00:00</time>
      </trkpt>
      <trkpt lat="40.759149" lon="-3.764362">
        <ele>971.05</ele>
        <time>2022-04-17T07:22:35+00:00</time>
      </trkpt>
      <trkpt lat="40.759171" lon="-3.764298">
        <ele>971.53</ele>
        <time>2022-04-17T07:22:36+00:00</time>
      </trkpt>
      <trkpt lat="40.759385" lon="-3.764126">
        <ele>972.01</ele>
        <time>2022-04-17T07:22:37+00:00</time>
      </trkpt>
      <trkpt lat="40.759449" lon="-3.763933">
        <ele>972.49</ele>
        <time>2022-04-17T07:22:38+00:00</time>
      </trkpt>
      <trkpt lat="40.759514" lon="-3.763719">
        <ele>973.45</ele>
        <time>2022-04-17T07:22:39+00:00</time>
      </trkpt>
      <trkpt lat="40.759578" lon="-3.763483">
        <ele>973.93</ele>
        <time>2022-04-17T07:22:40+00:00</time>
      </trkpt>
      <trkpt lat="40.760072" lon="-3.761637">
        <ele>977.30</ele>
        <time>2022-04-17T07:22:47+00:00</time>
      </trkpt>
      <trkpt lat="40.760866" lon="-3.759685">
        <ele>980.66</ele>
        <time>2022-04-17T07:22:54+00:00</time>
      </trkpt>
      <trkpt lat="40.761810" lon="-3.757217">
        <ele>982.11</ele>
        <time>2022-04-17T07:23:02+00:00</time>
      </trkpt>
      <trkpt lat="40.762539" lon="-3.754513">
        <ele>986.91</ele>
        <time>2022-04-17T07:23:10+00:00</time>
      </trkpt>
      <trkpt lat="40.763419" lon="-3.751574">
        <ele>994.60</ele>
        <time>2022-04-17T07:23:19+00:00</time>
      </trkpt>
      <trkpt lat="40.764385" lon="-3.749514">
        <ele>992.20</ele>
        <time>2022-04-17T07:23:27+00:00</time>
      </trkpt>
      <trkpt lat="40.764578" lon="-3.748848">
        <ele>989.80</ele>
        <time>2022-04-17T07:23:30+00:00</time>
      </trkpt>
      <trkpt lat="40.764599" lon="-3.748634">
        <ele>988.83</ele>
        <time>2022-04-17T07:23:31+00:00</time>
      </trkpt>
      <trkpt lat="40.764599" lon="-3.748419">
        <ele>987.87</ele>
        <time>2022-04-17T07:23:32+00:00</time>
      </trkpt>
      <trkpt lat="40.764621" lon="-3.748226">
        <ele>986.91</ele>
        <time>2022-04-17T07:23:33+00:00</time>
      </trkpt>
      <trkpt lat="40.764599" lon="-3.748055">
        <ele>986.43</ele>
        <time>2022-04-17T07:23:34+00:00</time>
      </trkpt>
      <trkpt lat="40.764599" lon="-3.747861">
        <ele>985.95</ele>
        <time>2022-04-17T07:23:35+00:00</time>
      </trkpt>
      <trkpt lat="40.764664" lon="-3.747733">
        <ele>984.99</ele>
        <time>2022-04-17T07:23:36+00:00</time>
      </trkpt>
      <trkpt lat="40.764750" lon="-3.747647">
        <ele>984.51</ele>
        <time>2022-04-17T07:23:37+00:00</time>
      </trkpt>
      <trkpt lat="40.764878" lon="-3.747625">
        <ele>983.55</ele>
        <time>2022-04-17T07:23:38+00:00</time>
      </trkpt>
      <trkpt lat="40.765007" lon="-3.747561">
        <ele>983.07</ele>
        <time>2022-04-17T07:23:39+00:00</time>
      </trkpt>
      <trkpt lat="40.765179" lon="-3.747454">
        <ele>982.59</ele>
        <time>2022-04-17T07:23:40+00:00</time>
      </trkpt>
      <trkpt lat="40.765350" lon="-3.747325">
        <ele>981.62</ele>
        <time>2022-04-17T07:23:41+00:00</time>
      </trkpt>
      <trkpt lat="40.765479" lon="-3.747132">
        <ele>981.14</ele>
        <time>2022-04-17T07:23:42+00:00</time>
      </trkpt>
      <trkpt lat="40.765629" lon="-3.746896">
        <ele>980.66</ele>
        <time>2022-04-17T07:23:43+00:00</time>
      </trkpt>
      <trkpt lat="40.765801" lon="-3.746660">
        <ele>979.70</ele>
        <time>2022-04-17T07:23:44+00:00</time>
      </trkpt>
      <trkpt lat="40.765951" lon="-3.746359">
        <ele>978.74</ele>
        <time>2022-04-17T07:23:45+00:00</time>
      </trkpt>
      <trkpt lat="40.766101" lon="-3.746059">
        <ele>977.78</ele>
        <time>2022-04-17T07:23:46+00:00</time>
      </trkpt>
      <trkpt lat="40.766745" lon="-3.744192">
        <ele>971.05</ele>
        <time>2022-04-17T07:23:51+00:00</time>
      </trkpt>
      <trkpt lat="40.767775" lon="-3.740051">
        <ele>962.40</ele>
        <time>2022-04-17T07:24:01+00:00</time>
      </trkpt>
      <trkpt lat="40.768397" lon="-3.737519">
        <ele>961.44</ele>
        <time>2022-04-17T07:24:08+00:00</time>
      </trkpt>
      <trkpt lat="40.769148" lon="-3.734644">
        <ele>959.51</ele>
        <time>2022-04-17T07:24:18+00:00</time>
      </trkpt>
      <trkpt lat="40.769878" lon="-3.732669">
        <ele>957.11</ele>
        <time>2022-04-17T07:24:24+00:00</time>
      </trkpt>
      <trkpt lat="40.770865" lon="-3.730266">
        <ele>952.79</ele>
        <time>2022-04-17T07:24:31+00:00</time>
      </trkpt>
      <trkpt lat="40.771144" lon="-3.729687">
        <ele>951.82</ele>
        <time>2022-04-17T07:24:33+00:00</time>
      </trkpt>
      <trkpt lat="40.771337" lon="-3.729408">
        <ele>950.86</ele>
        <time>2022-04-17T07:24:34+00:00</time>
      </trkpt>
      <trkpt lat="40.771573" lon="-3.729172">
        <ele>950.38</ele>
        <time>2022-04-17T07:24:35+00:00</time>
      </trkpt>
      <trkpt lat="40.773182" lon="-3.727477">
        <ele>945.58</ele>
        <time>2022-04-17T07:24:42+00:00</time>
      </trkpt>
      <trkpt lat="40.775028" lon="-3.725674">
        <ele>939.81</ele>
        <time>2022-04-17T07:24:51+00:00</time>
      </trkpt>
      <trkpt lat="40.776422" lon="-3.724601">
        <ele>935.48</ele>
        <time>2022-04-17T07:24:57+00:00</time>
      </trkpt>
      <trkpt lat="40.776701" lon="-3.724515">
        <ele>934.52</ele>
        <time>2022-04-17T07:24:58+00:00</time>
      </trkpt>
      <trkpt lat="40.779319" lon="-3.723700">
        <ele>927.79</ele>
        <time>2022-04-17T07:25:08+00:00</time>
      </trkpt>
      <trkpt lat="40.779770" lon="-3.723443">
        <ele>925.87</ele>
        <time>2022-04-17T07:25:10+00:00</time>
      </trkpt>
      <trkpt lat="40.779984" lon="-3.723271">
        <ele>924.91</ele>
        <time>2022-04-17T07:25:11+00:00</time>
      </trkpt>
      <trkpt lat="40.780178" lon="-3.723056">
        <ele>923.95</ele>
        <time>2022-04-17T07:25:12+00:00</time>
      </trkpt>
      <trkpt lat="40.780392" lon="-3.722820">
        <ele>922.98</ele>
        <time>2022-04-17T07:25:13+00:00</time>
      </trkpt>
      <trkpt lat="40.780542" lon="-3.722563">
        <ele>922.02</ele>
        <time>2022-04-17T07:25:14+00:00</time>
      </trkpt>
      <trkpt lat="40.780693" lon="-3.722284">
        <ele>921.06</ele>
        <time>2022-04-17T07:25:15+00:00</time>
      </trkpt>
      <trkpt lat="40.780800" lon="-3.721983">
        <ele>920.10</ele>
        <time>2022-04-17T07:25:16+00:00</time>
      </trkpt>
      <trkpt lat="40.780864" lon="-3.721662">
        <ele>918.66</ele>
        <time>2022-04-17T07:25:17+00:00</time>
      </trkpt>
      <trkpt lat="40.780950" lon="-3.721297">
        <ele>917.22</ele>
        <time>2022-04-17T07:25:18+00:00</time>
      </trkpt>
      <trkpt lat="40.780993" lon="-3.720932">
        <ele>915.77</ele>
        <time>2022-04-17T07:25:19+00:00</time>
      </trkpt>
      <trkpt lat="40.780993" lon="-3.720546">
        <ele>913.85</ele>
        <time>2022-04-17T07:25:20+00:00</time>
      </trkpt>
      <trkpt lat="40.781165" lon="-3.717327">
        <ele>897.51</ele>
        <time>2022-04-17T07:25:28+00:00</time>
      </trkpt>
      <trkpt lat="40.781529" lon="-3.715653">
        <ele>886.94</ele>
        <time>2022-04-17T07:25:33+00:00</time>
      </trkpt>
      <trkpt lat="40.781637" lon="-3.715353">
        <ele>885.01</ele>
        <time>2022-04-17T07:25:34+00:00</time>
      </trkpt>
      <trkpt lat="40.781787" lon="-3.715117">
        <ele>883.09</ele>
        <time>2022-04-17T07:25:35+00:00</time>
      </trkpt>
      <trkpt lat="40.781959" lon="-3.714881">
        <ele>881.17</ele>
        <time>2022-04-17T07:25:36+00:00</time>
      </trkpt>
      <trkpt lat="40.782109" lon="-3.714645">
        <ele>879.73</ele>
        <time>2022-04-17T07:25:37+00:00</time>
      </trkpt>
      <trkpt lat="40.782903" lon="-3.713551">
        <ele>873.96</ele>
        <time>2022-04-17T07:25:42+00:00</time>
      </trkpt>
      <trkpt lat="40.783010" lon="-3.713293">
        <ele>873.48</ele>
        <time>2022-04-17T07:25:43+00:00</time>
      </trkpt>
      <trkpt lat="40.783117" lon="-3.713014">
        <ele>872.52</ele>
        <time>2022-04-17T07:25:44+00:00</time>
      </trkpt>
      <trkpt lat="40.783182" lon="-3.712757">
        <ele>871.55</ele>
        <time>2022-04-17T07:25:45+00:00</time>
      </trkpt>
      <trkpt lat="40.783225" lon="-3.712456">
        <ele>870.59</ele>
        <time>2022-04-17T07:25:46+00:00</time>
      </trkpt>
      <trkpt lat="40.783289" lon="-3.712156">
        <ele>870.11</ele>
        <time>2022-04-17T07:25:47+00:00</time>
      </trkpt>
      <trkpt lat="40.783310" lon="-3.711855">
        <ele>869.15</ele>
        <time>2022-04-17T07:25:48+00:00</time>
      </trkpt>
      <trkpt lat="40.783332" lon="-3.711555">
        <ele>868.19</ele>
        <time>2022-04-17T07:25:49+00:00</time>
      </trkpt>
      <trkpt lat="40.783418" lon="-3.710074">
        <ele>864.83</ele>
        <time>2022-04-17T07:25:54+00:00</time>
      </trkpt>
      <trkpt lat="40.783482" lon="-3.709774">
        <ele>863.86</ele>
        <time>2022-04-17T07:25:55+00:00</time>
      </trkpt>
      <trkpt lat="40.783568" lon="-3.709495">
        <ele>863.38</ele>
        <time>2022-04-17T07:25:56+00:00</time>
      </trkpt>
      <trkpt lat="40.783675" lon="-3.709259">
        <ele>862.90</ele>
        <time>2022-04-17T07:25:57+00:00</time>
      </trkpt>
      <trkpt lat="40.783761" lon="-3.709023">
        <ele>862.42</ele>
        <time>2022-04-17T07:25:58+00:00</time>
      </trkpt>
      <trkpt lat="40.783890" lon="-3.708830">
        <ele>862.42</ele>
        <time>2022-04-17T07:25:59+00:00</time>
      </trkpt>
      <trkpt lat="40.784040" lon="-3.708637">
        <ele>861.94</ele>
        <time>2022-04-17T07:26:00+00:00</time>
      </trkpt>
      <trkpt lat="40.784190" lon="-3.708465">
        <ele>861.46</ele>
        <time>2022-04-17T07:26:01+00:00</time>
      </trkpt>
      <trkpt lat="40.784340" lon="-3.708293">
        <ele>860.98</ele>
        <time>2022-04-17T07:26:02+00:00</time>
      </trkpt>
      <trkpt lat="40.784512" lon="-3.708165">
        <ele>860.50</ele>
        <time>2022-04-17T07:26:03+00:00</time>
      </trkpt>
      <trkpt lat="40.784684" lon="-3.708057">
        <ele>860.02</ele>
        <time>2022-04-17T07:26:04+00:00</time>
      </trkpt>
      <trkpt lat="40.784834" lon="-3.707950">
        <ele>859.54</ele>
        <time>2022-04-17T07:26:05+00:00</time>
      </trkpt>
      <trkpt lat="40.785006" lon="-3.707864">
        <ele>859.06</ele>
        <time>2022-04-17T07:26:06+00:00</time>
      </trkpt>
      <trkpt lat="40.786894" lon="-3.706877">
        <ele>851.85</ele>
        <time>2022-04-17T07:26:18+00:00</time>
      </trkpt>
      <trkpt lat="40.787130" lon="-3.706706">
        <ele>850.41</ele>
        <time>2022-04-17T07:26:20+00:00</time>
      </trkpt>
      <trkpt lat="40.787173" lon="-3.706448">
        <ele>849.44</ele>
        <time>2022-04-17T07:26:21+00:00</time>
      </trkpt>
      <trkpt lat="40.787194" lon="-3.706405">
        <ele>848.96</ele>
        <time>2022-04-17T07:26:22+00:00</time>
      </trkpt>
      <trkpt lat="40.787259" lon="-3.706319">
        <ele>848.00</ele>
        <time>2022-04-17T07:26:23+00:00</time>
      </trkpt>
      <trkpt lat="40.787366" lon="-3.706298">
        <ele>847.52</ele>
        <time>2022-04-17T07:26:24+00:00</time>
      </trkpt>
      <trkpt lat="40.787516" lon="-3.706298">
        <ele>847.04</ele>
        <time>2022-04-17T07:26:25+00:00</time>
      </trkpt>
      <trkpt lat="40.787623" lon="-3.706191">
        <ele>847.04</ele>
        <time>2022-04-17T07:26:26+00:00</time>
      </trkpt>
      <trkpt lat="40.787731" lon="-3.706083">
        <ele>846.56</ele>
        <time>2022-04-17T07:26:27+00:00</time>
      </trkpt>
      <trkpt lat="40.787838" lon="-3.705955">
        <ele>846.08</ele>
        <time>2022-04-17T07:26:28+00:00</time>
      </trkpt>
      <trkpt lat="40.787924" lon="-3.705826">
        <ele>846.08</ele>
        <time>2022-04-17T07:26:29+00:00</time>
      </trkpt>
      <trkpt lat="40.788010" lon="-3.705676">
        <ele>845.60</ele>
        <time>2022-04-17T07:26:30+00:00</time>
      </trkpt>
      <trkpt lat="40.788095" lon="-3.705504">
        <ele>845.12</ele>
        <time>2022-04-17T07:26:31+00:00</time>
      </trkpt>
      <trkpt lat="40.788589" lon="-3.704217">
        <ele>845.60</ele>
        <time>2022-04-17T07:26:36+00:00</time>
      </trkpt>
      <trkpt lat="40.789211" lon="-3.701813">
        <ele>846.08</ele>
        <time>2022-04-17T07:26:42+00:00</time>
      </trkpt>
      <trkpt lat="40.790220" lon="-3.699367">
        <ele>845.60</ele>
        <time>2022-04-17T07:26:48+00:00</time>
      </trkpt>
      <trkpt lat="40.791529" lon="-3.697050">
        <ele>839.35</ele>
        <time>2022-04-17T07:26:54+00:00</time>
      </trkpt>
      <trkpt lat="40.792516" lon="-3.695140">
        <ele>837.43</ele>
        <time>2022-04-17T07:27:00+00:00</time>
      </trkpt>
      <trkpt lat="40.793009" lon="-3.693509">
        <ele>837.43</ele>
        <time>2022-04-17T07:27:06+00:00</time>
      </trkpt>
      <trkpt lat="40.793245" lon="-3.692544">
        <ele>837.91</ele>
        <time>2022-04-17T07:27:11+00:00</time>
      </trkpt>
      <trkpt lat="40.793267" lon="-3.692393">
        <ele>838.39</ele>
        <time>2022-04-17T07:27:12+00:00</time>
      </trkpt>
      <trkpt lat="40.793288" lon="-3.692286">
        <ele>838.39</ele>
        <time>2022-04-17T07:27:13+00:00</time>
      </trkpt>
      <trkpt lat="40.793159" lon="-3.692136">
        <ele>838.39</ele>
        <time>2022-04-17T07:27:14+00:00</time>
      </trkpt>
      <trkpt lat="40.793159" lon="-3.692029">
        <ele>837.91</ele>
        <time>2022-04-17T07:27:15+00:00</time>
      </trkpt>
      <trkpt lat="40.793202" lon="-3.691943">
        <ele>837.91</ele>
        <time>2022-04-17T07:27:16+00:00</time>
      </trkpt>
      <trkpt lat="40.793288" lon="-3.691921">
        <ele>837.43</ele>
        <time>2022-04-17T07:27:17+00:00</time>
      </trkpt>
      <trkpt lat="40.793353" lon="-3.691943">
        <ele>837.43</ele>
        <time>2022-04-17T07:27:18+00:00</time>
      </trkpt>
      <trkpt lat="40.793417" lon="-3.692029">
        <ele>837.43</ele>
        <time>2022-04-17T07:27:19+00:00</time>
      </trkpt>
      <trkpt lat="40.793481" lon="-3.692157">
        <ele>837.91</ele>
        <time>2022-04-17T07:27:20+00:00</time>
      </trkpt>
      <trkpt lat="40.793589" lon="-3.692222">
        <ele>837.91</ele>
        <time>2022-04-17T07:27:21+00:00</time>
      </trkpt>
      <trkpt lat="40.793717" lon="-3.692286">
        <ele>837.91</ele>
        <time>2022-04-17T07:27:22+00:00</time>
      </trkpt>
      <trkpt lat="40.793868" lon="-3.692350">
        <ele>837.91</ele>
        <time>2022-04-17T07:27:23+00:00</time>
      </trkpt>
      <trkpt lat="40.794898" lon="-3.692930">
        <ele>839.83</ele>
        <time>2022-04-17T07:27:29+00:00</time>
      </trkpt>
      <trkpt lat="40.795584" lon="-3.693273">
        <ele>840.79</ele>
        <time>2022-04-17T07:27:33+00:00</time>
      </trkpt>
      <trkpt lat="40.795734" lon="-3.693337">
        <ele>840.79</ele>
        <time>2022-04-17T07:27:34+00:00</time>
      </trkpt>
      <trkpt lat="40.795863" lon="-3.693295">
        <ele>841.27</ele>
        <time>2022-04-17T07:27:35+00:00</time>
      </trkpt>
      <trkpt lat="40.795992" lon="-3.693209">
        <ele>841.27</ele>
        <time>2022-04-17T07:27:36+00:00</time>
      </trkpt>
      <trkpt lat="40.796099" lon="-3.693080">
        <ele>841.75</ele>
        <time>2022-04-17T07:27:37+00:00</time>
      </trkpt>
      <trkpt lat="40.796206" lon="-3.692865">
        <ele>841.75</ele>
        <time>2022-04-17T07:27:38+00:00</time>
      </trkpt>
      <trkpt lat="40.796292" lon="-3.692651">
        <ele>842.23</ele>
        <time>2022-04-17T07:27:39+00:00</time>
      </trkpt>
      <trkpt lat="40.796378" lon="-3.692393">
        <ele>842.72</ele>
        <time>2022-04-17T07:27:40+00:00</time>
      </trkpt>
      <trkpt lat="40.796464" lon="-3.692093">
        <ele>843.68</ele>
        <time>2022-04-17T07:27:41+00:00</time>
      </trkpt>
      <trkpt lat="40.796614" lon="-3.691578">
        <ele>844.64</ele>
        <time>2022-04-17T07:27:43+00:00</time>
      </trkpt>
      <trkpt lat="40.796721" lon="-3.691363">
        <ele>845.12</ele>
        <time>2022-04-17T07:27:44+00:00</time>
      </trkpt>
      <trkpt lat="40.796829" lon="-3.691149">
        <ele>845.12</ele>
        <time>2022-04-17T07:27:45+00:00</time>
      </trkpt>
      <trkpt lat="40.796979" lon="-3.690977">
        <ele>845.60</ele>
        <time>2022-04-17T07:27:46+00:00</time>
      </trkpt>
      <trkpt lat="40.797151" lon="-3.690805">
        <ele>846.08</ele>
        <time>2022-04-17T07:27:47+00:00</time>
      </trkpt>
      <trkpt lat="40.797344" lon="-3.690698">
        <ele>847.04</ele>
        <time>2022-04-17T07:27:48+00:00</time>
      </trkpt>
      <trkpt lat="40.797558" lon="-3.690634">
        <ele>848.00</ele>
        <time>2022-04-17T07:27:49+00:00</time>
      </trkpt>
      <trkpt lat="40.797794" lon="-3.690591">
        <ele>848.96</ele>
        <time>2022-04-17T07:27:50+00:00</time>
      </trkpt>
      <trkpt lat="40.798030" lon="-3.690569">
        <ele>850.41</ele>
        <time>2022-04-17T07:27:51+00:00</time>
      </trkpt>
      <trkpt lat="40.798996" lon="-3.690591">
        <ele>856.65</ele>
        <time>2022-04-17T07:27:55+00:00</time>
      </trkpt>
      <trkpt lat="40.799232" lon="-3.690655">
        <ele>857.62</ele>
        <time>2022-04-17T07:27:56+00:00</time>
      </trkpt>
      <trkpt lat="40.799447" lon="-3.690720">
        <ele>858.58</ele>
        <time>2022-04-17T07:27:57+00:00</time>
      </trkpt>
      <trkpt lat="40.799833" lon="-3.690891">
        <ele>861.94</ele>
        <time>2022-04-17T07:27:59+00:00</time>
      </trkpt>
      <trkpt lat="40.800004" lon="-3.690913">
        <ele>863.86</ele>
        <time>2022-04-17T07:28:00+00:00</time>
      </trkpt>
      <trkpt lat="40.800176" lon="-3.690913">
        <ele>865.31</ele>
        <time>2022-04-17T07:28:01+00:00</time>
      </trkpt>
      <trkpt lat="40.800348" lon="-3.690805">
        <ele>867.23</ele>
        <time>2022-04-17T07:28:02+00:00</time>
      </trkpt>
      <trkpt lat="40.800519" lon="-3.690677">
        <ele>868.67</ele>
        <time>2022-04-17T07:28:03+00:00</time>
      </trkpt>
      <trkpt lat="40.800670" lon="-3.690548">
        <ele>870.59</ele>
        <time>2022-04-17T07:28:04+00:00</time>
      </trkpt>
      <trkpt lat="40.800841" lon="-3.690505">
        <ele>871.55</ele>
        <time>2022-04-17T07:28:05+00:00</time>
      </trkpt>
      <trkpt lat="40.801013" lon="-3.690505">
        <ele>872.52</ele>
        <time>2022-04-17T07:28:06+00:00</time>
      </trkpt>
      <trkpt lat="40.801185" lon="-3.690548">
        <ele>873.48</ele>
        <time>2022-04-17T07:28:07+00:00</time>
      </trkpt>
      <trkpt lat="40.801378" lon="-3.690655">
        <ele>874.92</ele>
        <time>2022-04-17T07:28:08+00:00</time>
      </trkpt>
      <trkpt lat="40.801571" lon="-3.690784">
        <ele>875.88</ele>
        <time>2022-04-17T07:28:09+00:00</time>
      </trkpt>
      <trkpt lat="40.802300" lon="-3.691213">
        <ele>882.61</ele>
        <time>2022-04-17T07:28:13+00:00</time>
      </trkpt>
      <trkpt lat="40.802472" lon="-3.691235">
        <ele>884.53</ele>
        <time>2022-04-17T07:28:14+00:00</time>
      </trkpt>
      <trkpt lat="40.802644" lon="-3.691192">
        <ele>885.97</ele>
        <time>2022-04-17T07:28:15+00:00</time>
      </trkpt>
      <trkpt lat="40.802815" lon="-3.691106">
        <ele>887.42</ele>
        <time>2022-04-17T07:28:16+00:00</time>
      </trkpt>
      <trkpt lat="40.802987" lon="-3.690977">
        <ele>888.38</ele>
        <time>2022-04-17T07:28:17+00:00</time>
      </trkpt>
      <trkpt lat="40.803159" lon="-3.690827">
        <ele>889.34</ele>
        <time>2022-04-17T07:28:18+00:00</time>
      </trkpt>
      <trkpt lat="40.803524" lon="-3.690569">
        <ele>890.78</ele>
        <time>2022-04-17T07:28:20+00:00</time>
      </trkpt>
      <trkpt lat="40.803717" lon="-3.690462">
        <ele>891.74</ele>
        <time>2022-04-17T07:28:21+00:00</time>
      </trkpt>
      <trkpt lat="40.803953" lon="-3.690376">
        <ele>892.22</ele>
        <time>2022-04-17T07:28:22+00:00</time>
      </trkpt>
      <trkpt lat="40.804189" lon="-3.690333">
        <ele>893.18</ele>
        <time>2022-04-17T07:28:23+00:00</time>
      </trkpt>
      <trkpt lat="40.804425" lon="-3.690355">
        <ele>894.63</ele>
        <time>2022-04-17T07:28:24+00:00</time>
      </trkpt>
      <trkpt lat="40.804682" lon="-3.690355">
        <ele>896.07</ele>
        <time>2022-04-17T07:28:25+00:00</time>
      </trkpt>
      <trkpt lat="40.804918" lon="-3.690376">
        <ele>897.51</ele>
        <time>2022-04-17T07:28:26+00:00</time>
      </trkpt>
      <trkpt lat="40.806957" lon="-3.690548">
        <ele>916.74</ele>
        <time>2022-04-17T07:28:34+00:00</time>
      </trkpt>
      <trkpt lat="40.807364" lon="-3.690591">
        <ele>920.10</ele>
        <time>2022-04-17T07:28:36+00:00</time>
      </trkpt>
      <trkpt lat="40.807558" lon="-3.690677">
        <ele>921.06</ele>
        <time>2022-04-17T07:28:37+00:00</time>
      </trkpt>
      <trkpt lat="40.808180" lon="-3.690870">
        <ele>922.50</ele>
        <time>2022-04-17T07:28:40+00:00</time>
      </trkpt>
      <trkpt lat="40.808394" lon="-3.690848">
        <ele>922.98</ele>
        <time>2022-04-17T07:28:41+00:00</time>
      </trkpt>
      <trkpt lat="40.808609" lon="-3.690784">
        <ele>922.98</ele>
        <time>2022-04-17T07:28:42+00:00</time>
      </trkpt>
      <trkpt lat="40.809446" lon="-3.690419">
        <ele>923.95</ele>
        <time>2022-04-17T07:28:46+00:00</time>
      </trkpt>
      <trkpt lat="40.809639" lon="-3.690269">
        <ele>923.95</ele>
        <time>2022-04-17T07:28:47+00:00</time>
      </trkpt>
      <trkpt lat="40.810304" lon="-3.689497">
        <ele>924.43</ele>
        <time>2022-04-17T07:28:51+00:00</time>
      </trkpt>
      <trkpt lat="40.810390" lon="-3.689282">
        <ele>924.91</ele>
        <time>2022-04-17T07:28:52+00:00</time>
      </trkpt>
      <trkpt lat="40.810454" lon="-3.689046">
        <ele>925.39</ele>
        <time>2022-04-17T07:28:53+00:00</time>
      </trkpt>
      <trkpt lat="40.810454" lon="-3.688788">
        <ele>925.87</ele>
        <time>2022-04-17T07:28:54+00:00</time>
      </trkpt>
      <trkpt lat="40.810454" lon="-3.688510">
        <ele>926.35</ele>
        <time>2022-04-17T07:28:55+00:00</time>
      </trkpt>
      <trkpt lat="40.810497" lon="-3.687737">
        <ele>927.31</ele>
        <time>2022-04-17T07:28:58+00:00</time>
      </trkpt>
      <trkpt lat="40.810562" lon="-3.687522">
        <ele>927.79</ele>
        <time>2022-04-17T07:28:59+00:00</time>
      </trkpt>
      <trkpt lat="40.810647" lon="-3.687372">
        <ele>928.27</ele>
        <time>2022-04-17T07:29:00+00:00</time>
      </trkpt>
      <trkpt lat="40.810776" lon="-3.687244">
        <ele>929.23</ele>
        <time>2022-04-17T07:29:01+00:00</time>
      </trkpt>
      <trkpt lat="40.810905" lon="-3.687136">
        <ele>930.19</ele>
        <time>2022-04-17T07:29:02+00:00</time>
      </trkpt>
      <trkpt lat="40.811098" lon="-3.687072">
        <ele>930.68</ele>
        <time>2022-04-17T07:29:03+00:00</time>
      </trkpt>
      <trkpt lat="40.811291" lon="-3.687007">
        <ele>931.64</ele>
        <time>2022-04-17T07:29:04+00:00</time>
      </trkpt>
      <trkpt lat="40.811463" lon="-3.686922">
        <ele>933.08</ele>
        <time>2022-04-17T07:29:05+00:00</time>
      </trkpt>
      <trkpt lat="40.811613" lon="-3.686814">
        <ele>934.04</ele>
        <time>2022-04-17T07:29:06+00:00</time>
      </trkpt>
      <trkpt lat="40.811742" lon="-3.686664">
        <ele>934.52</ele>
        <time>2022-04-17T07:29:07+00:00</time>
      </trkpt>
      <trkpt lat="40.811806" lon="-3.686450">
        <ele>934.52</ele>
        <time>2022-04-17T07:29:08+00:00</time>
      </trkpt>
      <trkpt lat="40.811871" lon="-3.686214">
        <ele>934.04</ele>
        <time>2022-04-17T07:29:09+00:00</time>
      </trkpt>
      <trkpt lat="40.811892" lon="-3.685935">
        <ele>933.56</ele>
        <time>2022-04-17T07:29:10+00:00</time>
      </trkpt>
      <trkpt lat="40.811913" lon="-3.685677">
        <ele>933.08</ele>
        <time>2022-04-17T07:29:11+00:00</time>
      </trkpt>
      <trkpt lat="40.811935" lon="-3.684518">
        <ele>928.75</ele>
        <time>2022-04-17T07:29:15+00:00</time>
      </trkpt>
      <trkpt lat="40.811935" lon="-3.684239">
        <ele>927.31</ele>
        <time>2022-04-17T07:29:16+00:00</time>
      </trkpt>
      <trkpt lat="40.811871" lon="-3.683982">
        <ele>925.87</ele>
        <time>2022-04-17T07:29:17+00:00</time>
      </trkpt>
      <trkpt lat="40.811806" lon="-3.683531">
        <ele>922.50</ele>
        <time>2022-04-17T07:29:19+00:00</time>
      </trkpt>
      <trkpt lat="40.811785" lon="-3.683338">
        <ele>921.06</ele>
        <time>2022-04-17T07:29:20+00:00</time>
      </trkpt>
      <trkpt lat="40.811828" lon="-3.683124">
        <ele>919.62</ele>
        <time>2022-04-17T07:29:21+00:00</time>
      </trkpt>
      <trkpt lat="40.811913" lon="-3.682931">
        <ele>918.66</ele>
        <time>2022-04-17T07:29:22+00:00</time>
      </trkpt>
      <trkpt lat="40.812042" lon="-3.682737">
        <ele>917.22</ele>
        <time>2022-04-17T07:29:23+00:00</time>
      </trkpt>
      <trkpt lat="40.812214" lon="-3.682566">
        <ele>916.74</ele>
        <time>2022-04-17T07:29:24+00:00</time>
      </trkpt>
      <trkpt lat="40.812536" lon="-3.682222">
        <ele>915.29</ele>
        <time>2022-04-17T07:29:26+00:00</time>
      </trkpt>
      <trkpt lat="40.812750" lon="-3.682094">
        <ele>915.29</ele>
        <time>2022-04-17T07:29:27+00:00</time>
      </trkpt>
      <trkpt lat="40.812986" lon="-3.682008">
        <ele>914.81</ele>
        <time>2022-04-17T07:29:28+00:00</time>
      </trkpt>
      <trkpt lat="40.813222" lon="-3.681901">
        <ele>914.81</ele>
        <time>2022-04-17T07:29:29+00:00</time>
      </trkpt>
      <trkpt lat="40.813458" lon="-3.681815">
        <ele>915.29</ele>
        <time>2022-04-17T07:29:30+00:00</time>
      </trkpt>
      <trkpt lat="40.815003" lon="-3.681579">
        <ele>916.26</ele>
        <time>2022-04-17T07:29:36+00:00</time>
      </trkpt>
      <trkpt lat="40.815669" lon="-3.681579">
        <ele>918.18</ele>
        <time>2022-04-17T07:29:39+00:00</time>
      </trkpt>
      <trkpt lat="40.815883" lon="-3.681579">
        <ele>918.66</ele>
        <time>2022-04-17T07:29:40+00:00</time>
      </trkpt>
      <trkpt lat="40.816076" lon="-3.681514">
        <ele>919.14</ele>
        <time>2022-04-17T07:29:41+00:00</time>
      </trkpt>
      <trkpt lat="40.816269" lon="-3.681407">
        <ele>919.14</ele>
        <time>2022-04-17T07:29:42+00:00</time>
      </trkpt>
      <trkpt lat="40.816441" lon="-3.681300">
        <ele>919.14</ele>
        <time>2022-04-17T07:29:43+00:00</time>
      </trkpt>
      <trkpt lat="40.816591" lon="-3.681128">
        <ele>919.62</ele>
        <time>2022-04-17T07:29:44+00:00</time>
      </trkpt>
      <trkpt lat="40.816741" lon="-3.680935">
        <ele>919.62</ele>
        <time>2022-04-17T07:29:45+00:00</time>
      </trkpt>
      <trkpt lat="40.816870" lon="-3.680742">
        <ele>919.14</ele>
        <time>2022-04-17T07:29:46+00:00</time>
      </trkpt>
      <trkpt lat="40.818050" lon="-3.678961">
        <ele>916.74</ele>
        <time>2022-04-17T07:29:54+00:00</time>
      </trkpt>
      <trkpt lat="40.819102" lon="-3.677652">
        <ele>912.41</ele>
        <time>2022-04-17T07:30:02+00:00</time>
      </trkpt>
      <trkpt lat="40.819467" lon="-3.677287">
        <ele>910.49</ele>
        <time>2022-04-17T07:30:05+00:00</time>
      </trkpt>
      <trkpt lat="40.819595" lon="-3.677201">
        <ele>909.53</ele>
        <time>2022-04-17T07:30:06+00:00</time>
      </trkpt>
      <trkpt lat="40.819746" lon="-3.677180">
        <ele>908.56</ele>
        <time>2022-04-17T07:30:07+00:00</time>
      </trkpt>
      <trkpt lat="40.819874" lon="-3.677180">
        <ele>907.60</ele>
        <time>2022-04-17T07:30:08+00:00</time>
      </trkpt>
      <trkpt lat="40.820024" lon="-3.677244">
        <ele>906.64</ele>
        <time>2022-04-17T07:30:09+00:00</time>
      </trkpt>
      <trkpt lat="40.820175" lon="-3.677309">
        <ele>905.68</ele>
        <time>2022-04-17T07:30:10+00:00</time>
      </trkpt>
      <trkpt lat="40.820454" lon="-3.677437">
        <ele>904.24</ele>
        <time>2022-04-17T07:30:12+00:00</time>
      </trkpt>
      <trkpt lat="40.820582" lon="-3.677459">
        <ele>904.24</ele>
        <time>2022-04-17T07:30:13+00:00</time>
      </trkpt>
      <trkpt lat="40.820711" lon="-3.677459">
        <ele>903.76</ele>
        <time>2022-04-17T07:30:14+00:00</time>
      </trkpt>
      <trkpt lat="40.820840" lon="-3.677459">
        <ele>903.28</ele>
        <time>2022-04-17T07:30:15+00:00</time>
      </trkpt>
      <trkpt lat="40.820947" lon="-3.677459">
        <ele>903.28</ele>
        <time>2022-04-17T07:30:16+00:00</time>
      </trkpt>
      <trkpt lat="40.821054" lon="-3.677437">
        <ele>903.28</ele>
        <time>2022-04-17T07:30:17+00:00</time>
      </trkpt>
      <trkpt lat="40.822020" lon="-3.677030">
        <ele>905.20</ele>
        <time>2022-04-17T07:30:25+00:00</time>
      </trkpt>
      <trkpt lat="40.822320" lon="-3.676879">
        <ele>905.20</ele>
        <time>2022-04-17T07:30:28+00:00</time>
      </trkpt>
      <trkpt lat="40.822385" lon="-3.676794">
        <ele>904.72</ele>
        <time>2022-04-17T07:30:29+00:00</time>
      </trkpt>
      <trkpt lat="40.822449" lon="-3.676708">
        <ele>904.72</ele>
        <time>2022-04-17T07:30:30+00:00</time>
      </trkpt>
      <trkpt lat="40.822492" lon="-3.676600">
        <ele>904.72</ele>
        <time>2022-04-17T07:30:31+00:00</time>
      </trkpt>
      <trkpt lat="40.822492" lon="-3.676493">
        <ele>904.72</ele>
        <time>2022-04-17T07:30:32+00:00</time>
      </trkpt>
      <trkpt lat="40.822514" lon="-3.676364">
        <ele>905.20</ele>
        <time>2022-04-17T07:30:33+00:00</time>
      </trkpt>
      <trkpt lat="40.822535" lon="-3.676257">
        <ele>904.72</ele>
        <time>2022-04-17T07:30:34+00:00</time>
      </trkpt>
      <trkpt lat="40.822556" lon="-3.676128">
        <ele>904.24</ele>
        <time>2022-04-17T07:30:35+00:00</time>
      </trkpt>
      <trkpt lat="40.822556" lon="-3.676021">
        <ele>903.76</ele>
        <time>2022-04-17T07:30:36+00:00</time>
      </trkpt>
      <trkpt lat="40.822578" lon="-3.675914">
        <ele>903.28</ele>
        <time>2022-04-17T07:30:37+00:00</time>
      </trkpt>
      <trkpt lat="40.822599" lon="-3.674777">
        <ele>900.39</ele>
        <time>2022-04-17T07:30:47+00:00</time>
      </trkpt>
      <trkpt lat="40.822621" lon="-3.674648">
        <ele>899.91</ele>
        <time>2022-04-17T07:30:48+00:00</time>
      </trkpt>
      <trkpt lat="40.822642" lon="-3.674519">
        <ele>899.91</ele>
        <time>2022-04-17T07:30:49+00:00</time>
      </trkpt>
      <trkpt lat="40.822707" lon="-3.674412">
        <ele>899.43</ele>
        <time>2022-04-17T07:30:50+00:00</time>
      </trkpt>
      <trkpt lat="40.822771" lon="-3.674305">
        <ele>899.43</ele>
        <time>2022-04-17T07:30:51+00:00</time>
      </trkpt>
      <trkpt lat="40.822835" lon="-3.674219">
        <ele>898.95</ele>
        <time>2022-04-17T07:30:52+00:00</time>
      </trkpt>
      <trkpt lat="40.822900" lon="-3.674111">
        <ele>898.95</ele>
        <time>2022-04-17T07:30:53+00:00</time>
      </trkpt>
      <trkpt lat="40.822921" lon="-3.674004">
        <ele>899.43</ele>
        <time>2022-04-17T07:30:54+00:00</time>
      </trkpt>
      <trkpt lat="40.822921" lon="-3.673897">
        <ele>899.43</ele>
        <time>2022-04-17T07:30:55+00:00</time>
      </trkpt>
      <trkpt lat="40.822943" lon="-3.673768">
        <ele>899.91</ele>
        <time>2022-04-17T07:30:56+00:00</time>
      </trkpt>
      <trkpt lat="40.823050" lon="-3.672609">
        <ele>900.39</ele>
        <time>2022-04-17T07:31:04+00:00</time>
      </trkpt>
      <trkpt lat="40.823071" lon="-3.672481">
        <ele>899.91</ele>
        <time>2022-04-17T07:31:05+00:00</time>
      </trkpt>
      <trkpt lat="40.823114" lon="-3.672352">
        <ele>899.43</ele>
        <time>2022-04-17T07:31:06+00:00</time>
      </trkpt>
      <trkpt lat="40.823179" lon="-3.672223">
        <ele>899.43</ele>
        <time>2022-04-17T07:31:07+00:00</time>
      </trkpt>
      <trkpt lat="40.823265" lon="-3.672073">
        <ele>898.95</ele>
        <time>2022-04-17T07:31:08+00:00</time>
      </trkpt>
      <trkpt lat="40.823908" lon="-3.670657">
        <ele>891.26</ele>
        <time>2022-04-17T07:31:17+00:00</time>
      </trkpt>
      <trkpt lat="40.824101" lon="-3.669756">
        <ele>888.86</ele>
        <time>2022-04-17T07:31:23+00:00</time>
      </trkpt>
      <trkpt lat="40.824101" lon="-3.669584">
        <ele>888.86</ele>
        <time>2022-04-17T07:31:24+00:00</time>
      </trkpt>
      <trkpt lat="40.824080" lon="-3.669412">
        <ele>888.38</ele>
        <time>2022-04-17T07:31:25+00:00</time>
      </trkpt>
      <trkpt lat="40.824037" lon="-3.669241">
        <ele>888.38</ele>
        <time>2022-04-17T07:31:26+00:00</time>
      </trkpt>
      <trkpt lat="40.823994" lon="-3.669069">
        <ele>888.38</ele>
        <time>2022-04-17T07:31:27+00:00</time>
      </trkpt>
      <trkpt lat="40.823908" lon="-3.668897">
        <ele>888.38</ele>
        <time>2022-04-17T07:31:28+00:00</time>
      </trkpt>
      <trkpt lat="40.823758" lon="-3.668468">
        <ele>888.86</ele>
        <time>2022-04-17T07:31:31+00:00</time>
      </trkpt>
      <trkpt lat="40.823715" lon="-3.668296">
        <ele>888.86</ele>
        <time>2022-04-17T07:31:32+00:00</time>
      </trkpt>
      <trkpt lat="40.823694" lon="-3.668103">
        <ele>888.86</ele>
        <time>2022-04-17T07:31:33+00:00</time>
      </trkpt>
      <trkpt lat="40.823715" lon="-3.667910">
        <ele>888.86</ele>
        <time>2022-04-17T07:31:34+00:00</time>
      </trkpt>
      <trkpt lat="40.823715" lon="-3.667717">
        <ele>888.86</ele>
        <time>2022-04-17T07:31:35+00:00</time>
      </trkpt>
      <trkpt lat="40.823737" lon="-3.667502">
        <ele>888.86</ele>
        <time>2022-04-17T07:31:36+00:00</time>
      </trkpt>
      <trkpt lat="40.823951" lon="-3.666215">
        <ele>891.26</ele>
        <time>2022-04-17T07:31:44+00:00</time>
      </trkpt>
      <trkpt lat="40.823994" lon="-3.666043">
        <ele>891.74</ele>
        <time>2022-04-17T07:31:45+00:00</time>
      </trkpt>
      <trkpt lat="40.824059" lon="-3.665872">
        <ele>892.22</ele>
        <time>2022-04-17T07:31:46+00:00</time>
      </trkpt>
      <trkpt lat="40.824166" lon="-3.665743">
        <ele>892.70</ele>
        <time>2022-04-17T07:31:47+00:00</time>
      </trkpt>
      <trkpt lat="40.824273" lon="-3.665593">
        <ele>893.18</ele>
        <time>2022-04-17T07:31:48+00:00</time>
      </trkpt>
      <trkpt lat="40.824380" lon="-3.665464">
        <ele>893.66</ele>
        <time>2022-04-17T07:31:49+00:00</time>
      </trkpt>
      <trkpt lat="40.824574" lon="-3.665164">
        <ele>894.63</ele>
        <time>2022-04-17T07:31:51+00:00</time>
      </trkpt>
      <trkpt lat="40.824659" lon="-3.664970">
        <ele>894.63</ele>
        <time>2022-04-17T07:31:52+00:00</time>
      </trkpt>
      <trkpt lat="40.824724" lon="-3.664756">
        <ele>895.59</ele>
        <time>2022-04-17T07:31:53+00:00</time>
      </trkpt>
      <trkpt lat="40.824767" lon="-3.664498">
        <ele>896.07</ele>
        <time>2022-04-17T07:31:54+00:00</time>
      </trkpt>
      <trkpt lat="40.824810" lon="-3.664198">
        <ele>896.55</ele>
        <time>2022-04-17T07:31:55+00:00</time>
      </trkpt>
      <trkpt lat="40.824831" lon="-3.663898">
        <ele>897.03</ele>
        <time>2022-04-17T07:31:56+00:00</time>
      </trkpt>
      <trkpt lat="40.825003" lon="-3.662438">
        <ele>898.95</ele>
        <time>2022-04-17T07:32:02+00:00</time>
      </trkpt>
      <trkpt lat="40.825196" lon="-3.661065">
        <ele>900.39</ele>
        <time>2022-04-17T07:32:08+00:00</time>
      </trkpt>
      <trkpt lat="40.825282" lon="-3.660829">
        <ele>900.39</ele>
        <time>2022-04-17T07:32:09+00:00</time>
      </trkpt>
      <trkpt lat="40.825389" lon="-3.660550">
        <ele>900.39</ele>
        <time>2022-04-17T07:32:10+00:00</time>
      </trkpt>
      <trkpt lat="40.826140" lon="-3.658769">
        <ele>897.51</ele>
        <time>2022-04-17T07:32:16+00:00</time>
      </trkpt>
      <trkpt lat="40.826440" lon="-3.657589">
        <ele>895.59</ele>
        <time>2022-04-17T07:32:21+00:00</time>
      </trkpt>
      <trkpt lat="40.826419" lon="-3.657095">
        <ele>894.15</ele>
        <time>2022-04-17T07:32:26+00:00</time>
      </trkpt>
      <trkpt lat="40.826397" lon="-3.656924">
        <ele>893.18</ele>
        <time>2022-04-17T07:32:29+00:00</time>
      </trkpt>
      <trkpt lat="40.826355" lon="-3.656859">
        <ele>893.18</ele>
        <time>2022-04-17T07:32:30+00:00</time>
      </trkpt>
      <trkpt lat="40.825925" lon="-3.655937">
        <ele>893.66</ele>
        <time>2022-04-17T07:32:36+00:00</time>
      </trkpt>
      <trkpt lat="40.825260" lon="-3.654499">
        <ele>894.63</ele>
        <time>2022-04-17T07:32:42+00:00</time>
      </trkpt>
      <trkpt lat="40.824681" lon="-3.653491">
        <ele>892.22</ele>
        <time>2022-04-17T07:32:46+00:00</time>
      </trkpt>
      <trkpt lat="40.824574" lon="-3.653212">
        <ele>891.74</ele>
        <time>2022-04-17T07:32:47+00:00</time>
      </trkpt>
      <trkpt lat="40.824488" lon="-3.652911">
        <ele>890.78</ele>
        <time>2022-04-17T07:32:48+00:00</time>
      </trkpt>
      <trkpt lat="40.824423" lon="-3.652589">
        <ele>889.82</ele>
        <time>2022-04-17T07:32:49+00:00</time>
      </trkpt>
      <trkpt lat="40.824359" lon="-3.652246">
        <ele>888.38</ele>
        <time>2022-04-17T07:32:50+00:00</time>
      </trkpt>
      <trkpt lat="40.824187" lon="-3.651366">
        <ele>885.01</ele>
        <time>2022-04-17T07:32:53+00:00</time>
      </trkpt>
      <trkpt lat="40.824101" lon="-3.651087">
        <ele>884.05</ele>
        <time>2022-04-17T07:32:54+00:00</time>
      </trkpt>
      <trkpt lat="40.823973" lon="-3.650851">
        <ele>883.09</ele>
        <time>2022-04-17T07:32:55+00:00</time>
      </trkpt>
      <trkpt lat="40.823801" lon="-3.650637">
        <ele>882.13</ele>
        <time>2022-04-17T07:32:56+00:00</time>
      </trkpt>
      <trkpt lat="40.823608" lon="-3.650465">
        <ele>881.17</ele>
        <time>2022-04-17T07:32:57+00:00</time>
      </trkpt>
      <trkpt lat="40.823393" lon="-3.650250">
        <ele>880.69</ele>
        <time>2022-04-17T07:32:58+00:00</time>
      </trkpt>
      <trkpt lat="40.823200" lon="-3.650057">
        <ele>879.73</ele>
        <time>2022-04-17T07:32:59+00:00</time>
      </trkpt>
      <trkpt lat="40.822814" lon="-3.649671">
        <ele>878.28</ele>
        <time>2022-04-17T07:33:01+00:00</time>
      </trkpt>
      <trkpt lat="40.822664" lon="-3.649457">
        <ele>877.80</ele>
        <time>2022-04-17T07:33:02+00:00</time>
      </trkpt>
      <trkpt lat="40.822514" lon="-3.649199">
        <ele>877.32</ele>
        <time>2022-04-17T07:33:03+00:00</time>
      </trkpt>
      <trkpt lat="40.822406" lon="-3.648899">
        <ele>876.84</ele>
        <time>2022-04-17T07:33:04+00:00</time>
      </trkpt>
      <trkpt lat="40.822278" lon="-3.648598">
        <ele>876.36</ele>
        <time>2022-04-17T07:33:05+00:00</time>
      </trkpt>
      <trkpt lat="40.822170" lon="-3.648276">
        <ele>875.40</ele>
        <time>2022-04-17T07:33:06+00:00</time>
      </trkpt>
      <trkpt lat="40.821870" lon="-3.647053">
        <ele>871.55</ele>
        <time>2022-04-17T07:33:10+00:00</time>
      </trkpt>
      <trkpt lat="40.821870" lon="-3.646731">
        <ele>870.59</ele>
        <time>2022-04-17T07:33:11+00:00</time>
      </trkpt>
      <trkpt lat="40.821870" lon="-3.646388">
        <ele>869.15</ele>
        <time>2022-04-17T07:33:12+00:00</time>
      </trkpt>
      <trkpt lat="40.821934" lon="-3.645015">
        <ele>868.67</ele>
        <time>2022-04-17T07:33:16+00:00</time>
      </trkpt>
      <trkpt lat="40.821913" lon="-3.644671">
        <ele>869.15</ele>
        <time>2022-04-17T07:33:17+00:00</time>
      </trkpt>
      <trkpt lat="40.821441" lon="-3.641496">
        <ele>869.63</ele>
        <time>2022-04-17T07:33:26+00:00</time>
      </trkpt>
      <trkpt lat="40.821269" lon="-3.640101">
        <ele>870.59</ele>
        <time>2022-04-17T07:33:30+00:00</time>
      </trkpt>
      <trkpt lat="40.821290" lon="-3.639779">
        <ele>870.59</ele>
        <time>2022-04-17T07:33:31+00:00</time>
      </trkpt>
      <trkpt lat="40.821333" lon="-3.637376">
        <ele>873.48</ele>
        <time>2022-04-17T07:33:38+00:00</time>
      </trkpt>
      <trkpt lat="40.821226" lon="-3.633599">
        <ele>876.84</ele>
        <time>2022-04-17T07:33:49+00:00</time>
      </trkpt>
      <trkpt lat="40.821441" lon="-3.630509">
        <ele>887.42</ele>
        <time>2022-04-17T07:33:58+00:00</time>
      </trkpt>
      <trkpt lat="40.821548" lon="-3.628964">
        <ele>896.55</ele>
        <time>2022-04-17T07:34:04+00:00</time>
      </trkpt>
      <trkpt lat="40.821591" lon="-3.628771">
        <ele>897.51</ele>
        <time>2022-04-17T07:34:05+00:00</time>
      </trkpt>
      <trkpt lat="40.821634" lon="-3.628578">
        <ele>898.95</ele>
        <time>2022-04-17T07:34:06+00:00</time>
      </trkpt>
      <trkpt lat="40.821720" lon="-3.628407">
        <ele>900.39</ele>
        <time>2022-04-17T07:34:07+00:00</time>
      </trkpt>
      <trkpt lat="40.821805" lon="-3.628256">
        <ele>901.84</ele>
        <time>2022-04-17T07:34:08+00:00</time>
      </trkpt>
      <trkpt lat="40.821934" lon="-3.627999">
        <ele>904.72</ele>
        <time>2022-04-17T07:34:10+00:00</time>
      </trkpt>
      <trkpt lat="40.821977" lon="-3.627913">
        <ele>905.68</ele>
        <time>2022-04-17T07:34:11+00:00</time>
      </trkpt>
      <trkpt lat="40.822020" lon="-3.627827">
        <ele>907.12</ele>
        <time>2022-04-17T07:34:12+00:00</time>
      </trkpt>
      <trkpt lat="40.821913" lon="-3.627698">
        <ele>908.08</ele>
        <time>2022-04-17T07:34:13+00:00</time>
      </trkpt>
      <trkpt lat="40.821934" lon="-3.627591">
        <ele>909.53</ele>
        <time>2022-04-17T07:34:14+00:00</time>
      </trkpt>
      <trkpt lat="40.821999" lon="-3.627527">
        <ele>910.49</ele>
        <time>2022-04-17T07:34:15+00:00</time>
      </trkpt>
      <trkpt lat="40.822084" lon="-3.627548">
        <ele>910.97</ele>
        <time>2022-04-17T07:34:16+00:00</time>
      </trkpt>
      <trkpt lat="40.822127" lon="-3.627570">
        <ele>911.45</ele>
        <time>2022-04-17T07:34:17+00:00</time>
      </trkpt>
      <trkpt lat="40.822278" lon="-3.627698">
        <ele>911.93</ele>
        <time>2022-04-17T07:34:18+00:00</time>
      </trkpt>
      <trkpt lat="40.822406" lon="-3.627741">
        <ele>911.93</ele>
        <time>2022-04-17T07:34:19+00:00</time>
      </trkpt>
      <trkpt lat="40.822535" lon="-3.627784">
        <ele>911.93</ele>
        <time>2022-04-17T07:34:20+00:00</time>
      </trkpt>
      <trkpt lat="40.823951" lon="-3.628235">
        <ele>914.33</ele>
        <time>2022-04-17T07:34:31+00:00</time>
      </trkpt>
      <trkpt lat="40.824810" lon="-3.628514">
        <ele>919.14</ele>
        <time>2022-04-17T07:34:40+00:00</time>
      </trkpt>
      <trkpt lat="40.824874" lon="-3.628535">
        <ele>919.62</ele>
        <time>2022-04-17T07:34:41+00:00</time>
      </trkpt>
      <trkpt lat="40.824981" lon="-3.628449">
        <ele>919.62</ele>
        <time>2022-04-17T07:34:42+00:00</time>
      </trkpt>
      <trkpt lat="40.825067" lon="-3.628428">
        <ele>920.10</ele>
        <time>2022-04-17T07:34:44+00:00</time>
      </trkpt>
      <trkpt lat="40.825110" lon="-3.628471">
        <ele>920.58</ele>
        <time>2022-04-17T07:34:45+00:00</time>
      </trkpt>
      <trkpt lat="40.825153" lon="-3.628514">
        <ele>920.58</ele>
        <time>2022-04-17T07:34:46+00:00</time>
      </trkpt>
      <trkpt lat="40.825174" lon="-3.628535">
        <ele>921.06</ele>
        <time>2022-04-17T07:34:47+00:00</time>
      </trkpt>
      <trkpt lat="40.825196" lon="-3.628643">
        <ele>921.06</ele>
        <time>2022-04-17T07:34:48+00:00</time>
      </trkpt>
      <trkpt lat="40.825260" lon="-3.628686">
        <ele>921.54</ele>
        <time>2022-04-17T07:34:49+00:00</time>
      </trkpt>
      <trkpt lat="40.825325" lon="-3.628707">
        <ele>921.54</ele>
        <time>2022-04-17T07:34:50+00:00</time>
      </trkpt>
      <trkpt lat="40.825410" lon="-3.628728">
        <ele>922.02</ele>
        <time>2022-04-17T07:34:51+00:00</time>
      </trkpt>
      <trkpt lat="40.825496" lon="-3.628771">
        <ele>922.50</ele>
        <time>2022-04-17T07:34:52+00:00</time>
      </trkpt>
      <trkpt lat="40.826312" lon="-3.629029">
        <ele>925.87</ele>
        <time>2022-04-17T07:34:59+00:00</time>
      </trkpt>
      <trkpt lat="40.827556" lon="-3.629222">
        <ele>932.60</ele>
        <time>2022-04-17T07:35:06+00:00</time>
      </trkpt>
      <trkpt lat="40.828887" lon="-3.629179">
        <ele>939.81</ele>
        <time>2022-04-17T07:35:13+00:00</time>
      </trkpt>
      <trkpt lat="40.830431" lon="-3.629136">
        <ele>945.58</ele>
        <time>2022-04-17T07:35:21+00:00</time>
      </trkpt>
      <trkpt lat="40.832127" lon="-3.629050">
        <ele>943.65</ele>
        <time>2022-04-17T07:35:28+00:00</time>
      </trkpt>
      <trkpt lat="40.833500" lon="-3.628664">
        <ele>937.40</ele>
        <time>2022-04-17T07:35:34+00:00</time>
      </trkpt>
      <trkpt lat="40.833929" lon="-3.628299">
        <ele>936.44</ele>
        <time>2022-04-17T07:35:36+00:00</time>
      </trkpt>
      <trkpt lat="40.834144" lon="-3.628085">
        <ele>936.44</ele>
        <time>2022-04-17T07:35:37+00:00</time>
      </trkpt>
      <trkpt lat="40.834337" lon="-3.627827">
        <ele>936.44</ele>
        <time>2022-04-17T07:35:38+00:00</time>
      </trkpt>
      <trkpt lat="40.834508" lon="-3.627527">
        <ele>936.92</ele>
        <time>2022-04-17T07:35:39+00:00</time>
      </trkpt>
      <trkpt lat="40.834680" lon="-3.627226">
        <ele>938.37</ele>
        <time>2022-04-17T07:35:40+00:00</time>
      </trkpt>
      <trkpt lat="40.834830" lon="-3.626905">
        <ele>939.81</ele>
        <time>2022-04-17T07:35:41+00:00</time>
      </trkpt>
      <trkpt lat="40.834959" lon="-3.626540">
        <ele>941.25</ele>
        <time>2022-04-17T07:35:42+00:00</time>
      </trkpt>
      <trkpt lat="40.836461" lon="-3.622892">
        <ele>960.96</ele>
        <time>2022-04-17T07:35:53+00:00</time>
      </trkpt>
      <trkpt lat="40.836654" lon="-3.622656">
        <ele>962.40</ele>
        <time>2022-04-17T07:35:54+00:00</time>
      </trkpt>
      <trkpt lat="40.836826" lon="-3.622441">
        <ele>964.32</ele>
        <time>2022-04-17T07:35:55+00:00</time>
      </trkpt>
      <trkpt lat="40.837040" lon="-3.622227">
        <ele>966.24</ele>
        <time>2022-04-17T07:35:56+00:00</time>
      </trkpt>
      <trkpt lat="40.837234" lon="-3.622034">
        <ele>968.17</ele>
        <time>2022-04-17T07:35:57+00:00</time>
      </trkpt>
      <trkpt lat="40.838113" lon="-3.621154">
        <ele>975.86</ele>
        <time>2022-04-17T07:36:02+00:00</time>
      </trkpt>
      <trkpt lat="40.838542" lon="-3.620575">
        <ele>976.82</ele>
        <time>2022-04-17T07:36:05+00:00</time>
      </trkpt>
      <trkpt lat="40.838714" lon="-3.620446">
        <ele>977.30</ele>
        <time>2022-04-17T07:36:06+00:00</time>
      </trkpt>
      <trkpt lat="40.838907" lon="-3.620360">
        <ele>977.78</ele>
        <time>2022-04-17T07:36:07+00:00</time>
      </trkpt>
      <trkpt lat="40.839100" lon="-3.620296">
        <ele>978.74</ele>
        <time>2022-04-17T07:36:08+00:00</time>
      </trkpt>
      <trkpt lat="40.839315" lon="-3.620253">
        <ele>980.18</ele>
        <time>2022-04-17T07:36:09+00:00</time>
      </trkpt>
      <trkpt lat="40.839530" lon="-3.620253">
        <ele>981.62</ele>
        <time>2022-04-17T07:36:10+00:00</time>
      </trkpt>
      <trkpt lat="40.841268" lon="-3.619952">
        <ele>992.68</ele>
        <time>2022-04-17T07:36:18+00:00</time>
      </trkpt>
      <trkpt lat="40.843328" lon="-3.618879">
        <ele>988.35</ele>
        <time>2022-04-17T07:36:28+00:00</time>
      </trkpt>
      <trkpt lat="40.845259" lon="-3.617828">
        <ele>987.87</ele>
        <time>2022-04-17T07:36:37+00:00</time>
      </trkpt>
      <trkpt lat="40.847812" lon="-3.616433">
        <ele>990.76</ele>
        <time>2022-04-17T07:36:47+00:00</time>
      </trkpt>
      <trkpt lat="40.848692" lon="-3.615897">
        <ele>992.68</ele>
        <time>2022-04-17T07:36:51+00:00</time>
      </trkpt>
      <trkpt lat="40.848885" lon="-3.615682">
        <ele>993.16</ele>
        <time>2022-04-17T07:36:52+00:00</time>
      </trkpt>
      <trkpt lat="40.849078" lon="-3.615468">
        <ele>994.12</ele>
        <time>2022-04-17T07:36:53+00:00</time>
      </trkpt>
      <trkpt lat="40.849228" lon="-3.615210">
        <ele>994.60</ele>
        <time>2022-04-17T07:36:54+00:00</time>
      </trkpt>
      <trkpt lat="40.849379" lon="-3.614931">
        <ele>995.08</ele>
        <time>2022-04-17T07:36:55+00:00</time>
      </trkpt>
      <trkpt lat="40.849529" lon="-3.614652">
        <ele>996.04</ele>
        <time>2022-04-17T07:36:56+00:00</time>
      </trkpt>
      <trkpt lat="40.850580" lon="-3.612614">
        <ele>1004.70</ele>
        <time>2022-04-17T07:37:04+00:00</time>
      </trkpt>
      <trkpt lat="40.850666" lon="-3.612485">
        <ele>1005.66</ele>
        <time>2022-04-17T07:37:05+00:00</time>
      </trkpt>
      <trkpt lat="40.850773" lon="-3.612399">
        <ele>1006.14</ele>
        <time>2022-04-17T07:37:06+00:00</time>
      </trkpt>
      <trkpt lat="40.850881" lon="-3.612356">
        <ele>1007.10</ele>
        <time>2022-04-17T07:37:07+00:00</time>
      </trkpt>
      <trkpt lat="40.851009" lon="-3.612356">
        <ele>1008.06</ele>
        <time>2022-04-17T07:37:08+00:00</time>
      </trkpt>
      <trkpt lat="40.851160" lon="-3.612356">
        <ele>1008.54</ele>
        <time>2022-04-17T07:37:09+00:00</time>
      </trkpt>
      <trkpt lat="40.851288" lon="-3.612356">
        <ele>1009.50</ele>
        <time>2022-04-17T07:37:10+00:00</time>
      </trkpt>
      <trkpt lat="40.852168" lon="-3.612206">
        <ele>1011.43</ele>
        <time>2022-04-17T07:37:17+00:00</time>
      </trkpt>
      <trkpt lat="40.853155" lon="-3.611605">
        <ele>1012.39</ele>
        <time>2022-04-17T07:37:23+00:00</time>
      </trkpt>
      <trkpt lat="40.854614" lon="-3.610747">
        <ele>1019.12</ele>
        <time>2022-04-17T07:37:30+00:00</time>
      </trkpt>
      <trkpt lat="40.856309" lon="-3.610210">
        <ele>1022.00</ele>
        <time>2022-04-17T07:37:36+00:00</time>
      </trkpt>
      <trkpt lat="40.858584" lon="-3.609331">
        <ele>1017.67</ele>
        <time>2022-04-17T07:37:44+00:00</time>
      </trkpt>
      <trkpt lat="40.860837" lon="-3.608022">
        <ele>1014.79</ele>
        <time>2022-04-17T07:37:51+00:00</time>
      </trkpt>
      <trkpt lat="40.862682" lon="-3.607056">
        <ele>1016.71</ele>
        <time>2022-04-17T07:37:57+00:00</time>
      </trkpt>
      <trkpt lat="40.865472" lon="-3.606155">
        <ele>1024.88</ele>
        <time>2022-04-17T07:38:06+00:00</time>
      </trkpt>
      <trkpt lat="40.867703" lon="-3.605704">
        <ele>1036.90</ele>
        <time>2022-04-17T07:38:14+00:00</time>
      </trkpt>
      <trkpt lat="40.869935" lon="-3.604910">
        <ele>1048.44</ele>
        <time>2022-04-17T07:38:22+00:00</time>
      </trkpt>
      <trkpt lat="40.871523" lon="-3.603838">
        <ele>1058.53</ele>
        <time>2022-04-17T07:38:29+00:00</time>
      </trkpt>
      <trkpt lat="40.872531" lon="-3.602829">
        <ele>1065.26</ele>
        <time>2022-04-17T07:38:36+00:00</time>
      </trkpt>
      <trkpt lat="40.872617" lon="-3.602636">
        <ele>1065.74</ele>
        <time>2022-04-17T07:38:37+00:00</time>
      </trkpt>
      <trkpt lat="40.872682" lon="-3.602400">
        <ele>1066.70</ele>
        <time>2022-04-17T07:38:38+00:00</time>
      </trkpt>
      <trkpt lat="40.872703" lon="-3.602185">
        <ele>1067.18</ele>
        <time>2022-04-17T07:38:39+00:00</time>
      </trkpt>
      <trkpt lat="40.872725" lon="-3.601949">
        <ele>1068.14</ele>
        <time>2022-04-17T07:38:40+00:00</time>
      </trkpt>
      <trkpt lat="40.872746" lon="-3.601713">
        <ele>1068.62</ele>
        <time>2022-04-17T07:38:41+00:00</time>
      </trkpt>
      <trkpt lat="40.872810" lon="-3.601027">
        <ele>1069.58</ele>
        <time>2022-04-17T07:38:44+00:00</time>
      </trkpt>
      <trkpt lat="40.872875" lon="-3.600833">
        <ele>1069.58</ele>
        <time>2022-04-17T07:38:45+00:00</time>
      </trkpt>
      <trkpt lat="40.872961" lon="-3.600662">
        <ele>1069.58</ele>
        <time>2022-04-17T07:38:46+00:00</time>
      </trkpt>
      <trkpt lat="40.873068" lon="-3.600533">
        <ele>1069.10</ele>
        <time>2022-04-17T07:38:47+00:00</time>
      </trkpt>
      <trkpt lat="40.873197" lon="-3.600469">
        <ele>1069.10</ele>
        <time>2022-04-17T07:38:48+00:00</time>
      </trkpt>
      <trkpt lat="40.873325" lon="-3.600426">
        <ele>1068.62</ele>
        <time>2022-04-17T07:38:49+00:00</time>
      </trkpt>
      <trkpt lat="40.873433" lon="-3.600383">
        <ele>1068.62</ele>
        <time>2022-04-17T07:38:50+00:00</time>
      </trkpt>
      <trkpt lat="40.873518" lon="-3.600340">
        <ele>1068.62</ele>
        <time>2022-04-17T07:38:51+00:00</time>
      </trkpt>
      <trkpt lat="40.873604" lon="-3.600276">
        <ele>1068.62</ele>
        <time>2022-04-17T07:38:52+00:00</time>
      </trkpt>
      <trkpt lat="40.873647" lon="-3.600211">
        <ele>1068.62</ele>
        <time>2022-04-17T07:38:53+00:00</time>
      </trkpt>
      <trkpt lat="40.873669" lon="-3.600104">
        <ele>1068.62</ele>
        <time>2022-04-17T07:38:54+00:00</time>
      </trkpt>
      <trkpt lat="40.873690" lon="-3.599954">
        <ele>1068.62</ele>
        <time>2022-04-17T07:38:55+00:00</time>
      </trkpt>
      <trkpt lat="40.873647" lon="-3.599782">
        <ele>1068.62</ele>
        <time>2022-04-17T07:38:56+00:00</time>
      </trkpt>
      <trkpt lat="40.873626" lon="-3.599567">
        <ele>1068.62</ele>
        <time>2022-04-17T07:38:57+00:00</time>
      </trkpt>
      <trkpt lat="40.873368" lon="-3.597958">
        <ele>1069.58</ele>
        <time>2022-04-17T07:39:03+00:00</time>
      </trkpt>
      <trkpt lat="40.873175" lon="-3.595963">
        <ele>1066.22</ele>
        <time>2022-04-17T07:39:10+00:00</time>
      </trkpt>
      <trkpt lat="40.873197" lon="-3.595748">
        <ele>1064.78</ele>
        <time>2022-04-17T07:39:11+00:00</time>
      </trkpt>
      <trkpt lat="40.873218" lon="-3.595533">
        <ele>1063.34</ele>
        <time>2022-04-17T07:39:12+00:00</time>
      </trkpt>
      <trkpt lat="40.873304" lon="-3.595319">
        <ele>1061.41</ele>
        <time>2022-04-17T07:39:13+00:00</time>
      </trkpt>
      <trkpt lat="40.873411" lon="-3.595126">
        <ele>1059.49</ele>
        <time>2022-04-17T07:39:14+00:00</time>
      </trkpt>
      <trkpt lat="40.873561" lon="-3.594933">
        <ele>1057.57</ele>
        <time>2022-04-17T07:39:15+00:00</time>
      </trkpt>
      <trkpt lat="40.873733" lon="-3.594739">
        <ele>1055.16</ele>
        <time>2022-04-17T07:39:16+00:00</time>
      </trkpt>
      <trkpt lat="40.873926" lon="-3.594546">
        <ele>1053.24</ele>
        <time>2022-04-17T07:39:17+00:00</time>
      </trkpt>
      <trkpt lat="40.874463" lon="-3.593838">
        <ele>1046.03</ele>
        <time>2022-04-17T07:39:20+00:00</time>
      </trkpt>
      <trkpt lat="40.874591" lon="-3.593516">
        <ele>1044.11</ele>
        <time>2022-04-17T07:39:21+00:00</time>
      </trkpt>
      <trkpt lat="40.874720" lon="-3.593195">
        <ele>1042.67</ele>
        <time>2022-04-17T07:39:22+00:00</time>
      </trkpt>
      <trkpt lat="40.875879" lon="-3.590083">
        <ele>1034.02</ele>
        <time>2022-04-17T07:39:31+00:00</time>
      </trkpt>
      <trkpt lat="40.876372" lon="-3.588131">
        <ele>1034.98</ele>
        <time>2022-04-17T07:39:37+00:00</time>
      </trkpt>
      <trkpt lat="40.876995" lon="-3.586242">
        <ele>1033.54</ele>
        <time>2022-04-17T07:39:43+00:00</time>
      </trkpt>
      <trkpt lat="40.877488" lon="-3.584633">
        <ele>1034.02</ele>
        <time>2022-04-17T07:39:49+00:00</time>
      </trkpt>
      <trkpt lat="40.877595" lon="-3.584397">
        <ele>1033.54</ele>
        <time>2022-04-17T07:39:50+00:00</time>
      </trkpt>
      <trkpt lat="40.877746" lon="-3.584182">
        <ele>1033.54</ele>
        <time>2022-04-17T07:39:51+00:00</time>
      </trkpt>
      <trkpt lat="40.878454" lon="-3.583067">
        <ele>1033.05</ele>
        <time>2022-04-17T07:39:56+00:00</time>
      </trkpt>
      <trkpt lat="40.878518" lon="-3.582809">
        <ele>1033.05</ele>
        <time>2022-04-17T07:39:57+00:00</time>
      </trkpt>
      <trkpt lat="40.878582" lon="-3.582552">
        <ele>1033.05</ele>
        <time>2022-04-17T07:39:58+00:00</time>
      </trkpt>
      <trkpt lat="40.878690" lon="-3.582015">
        <ele>1032.57</ele>
        <time>2022-04-17T07:40:00+00:00</time>
      </trkpt>
      <trkpt lat="40.878733" lon="-3.581758">
        <ele>1032.57</ele>
        <time>2022-04-17T07:40:01+00:00</time>
      </trkpt>
      <trkpt lat="40.878733" lon="-3.581500">
        <ele>1032.57</ele>
        <time>2022-04-17T07:40:02+00:00</time>
      </trkpt>
      <trkpt lat="40.878604" lon="-3.579204">
        <ele>1027.77</ele>
        <time>2022-04-17T07:40:11+00:00</time>
      </trkpt>
      <trkpt lat="40.878540" lon="-3.578947">
        <ele>1026.81</ele>
        <time>2022-04-17T07:40:12+00:00</time>
      </trkpt>
      <trkpt lat="40.878454" lon="-3.578711">
        <ele>1026.33</ele>
        <time>2022-04-17T07:40:13+00:00</time>
      </trkpt>
      <trkpt lat="40.878218" lon="-3.577788">
        <ele>1023.92</ele>
        <time>2022-04-17T07:40:17+00:00</time>
      </trkpt>
      <trkpt lat="40.878175" lon="-3.577595">
        <ele>1023.44</ele>
        <time>2022-04-17T07:40:18+00:00</time>
      </trkpt>
      <trkpt lat="40.878175" lon="-3.577445">
        <ele>1022.96</ele>
        <time>2022-04-17T07:40:19+00:00</time>
      </trkpt>
      <trkpt lat="40.878218" lon="-3.577273">
        <ele>1022.48</ele>
        <time>2022-04-17T07:40:20+00:00</time>
      </trkpt>
      <trkpt lat="40.878304" lon="-3.577123">
        <ele>1021.52</ele>
        <time>2022-04-17T07:40:21+00:00</time>
      </trkpt>
      <trkpt lat="40.878389" lon="-3.577015">
        <ele>1020.56</ele>
        <time>2022-04-17T07:40:22+00:00</time>
      </trkpt>
      <trkpt lat="40.878497" lon="-3.577015">
        <ele>1019.12</ele>
        <time>2022-04-17T07:40:23+00:00</time>
      </trkpt>
      <trkpt lat="40.878647" lon="-3.576994">
        <ele>1017.67</ele>
        <time>2022-04-17T07:40:24+00:00</time>
      </trkpt>
      <trkpt lat="40.878797" lon="-3.577080">
        <ele>1016.71</ele>
        <time>2022-04-17T07:40:25+00:00</time>
      </trkpt>
      <trkpt lat="40.878990" lon="-3.577209">
        <ele>1015.27</ele>
        <time>2022-04-17T07:40:26+00:00</time>
      </trkpt>
      <trkpt lat="40.879205" lon="-3.577337">
        <ele>1013.83</ele>
        <time>2022-04-17T07:40:27+00:00</time>
      </trkpt>
      <trkpt lat="40.879419" lon="-3.577402">
        <ele>1011.91</ele>
        <time>2022-04-17T07:40:28+00:00</time>
      </trkpt>
      <trkpt lat="40.880149" lon="-3.577573">
        <ele>1006.62</ele>
        <time>2022-04-17T07:40:31+00:00</time>
      </trkpt>
      <trkpt lat="40.880385" lon="-3.577595">
        <ele>1004.70</ele>
        <time>2022-04-17T07:40:32+00:00</time>
      </trkpt>
      <trkpt lat="40.880642" lon="-3.577552">
        <ele>1002.77</ele>
        <time>2022-04-17T07:40:33+00:00</time>
      </trkpt>
      <trkpt lat="40.880857" lon="-3.577488">
        <ele>1000.85</ele>
        <time>2022-04-17T07:40:34+00:00</time>
      </trkpt>
      <trkpt lat="40.881093" lon="-3.577423">
        <ele>999.41</ele>
        <time>2022-04-17T07:40:35+00:00</time>
      </trkpt>
      <trkpt lat="40.881286" lon="-3.577294">
        <ele>997.49</ele>
        <time>2022-04-17T07:40:36+00:00</time>
      </trkpt>
      <trkpt lat="40.881479" lon="-3.577166">
        <ele>996.52</ele>
        <time>2022-04-17T07:40:37+00:00</time>
      </trkpt>
      <trkpt lat="40.882016" lon="-3.576822">
        <ele>992.68</ele>
        <time>2022-04-17T07:40:40+00:00</time>
      </trkpt>
      <trkpt lat="40.882144" lon="-3.576672">
        <ele>991.24</ele>
        <time>2022-04-17T07:40:41+00:00</time>
      </trkpt>
      <trkpt lat="40.882273" lon="-3.576500">
        <ele>989.80</ele>
        <time>2022-04-17T07:40:42+00:00</time>
      </trkpt>
      <trkpt lat="40.882359" lon="-3.576286">
        <ele>988.35</ele>
        <time>2022-04-17T07:40:43+00:00</time>
      </trkpt>
      <trkpt lat="40.882445" lon="-3.576114">
        <ele>986.91</ele>
        <time>2022-04-17T07:40:44+00:00</time>
      </trkpt>
      <trkpt lat="40.882509" lon="-3.575943">
        <ele>985.95</ele>
        <time>2022-04-17T07:40:45+00:00</time>
      </trkpt>
      <trkpt lat="40.882617" lon="-3.575814">
        <ele>984.51</ele>
        <time>2022-04-17T07:40:46+00:00</time>
      </trkpt>
      <trkpt lat="40.882745" lon="-3.575728">
        <ele>983.07</ele>
        <time>2022-04-17T07:40:47+00:00</time>
      </trkpt>
      <trkpt lat="40.882895" lon="-3.575664">
        <ele>981.62</ele>
        <time>2022-04-17T07:40:48+00:00</time>
      </trkpt>
      <trkpt lat="40.883089" lon="-3.575642">
        <ele>980.18</ele>
        <time>2022-04-17T07:40:49+00:00</time>
      </trkpt>
      <trkpt lat="40.883303" lon="-3.575621">
        <ele>979.22</ele>
        <time>2022-04-17T07:40:50+00:00</time>
      </trkpt>
      <trkpt lat="40.884247" lon="-3.575535">
        <ele>974.90</ele>
        <time>2022-04-17T07:40:54+00:00</time>
      </trkpt>
      <trkpt lat="40.885149" lon="-3.575513">
        <ele>970.09</ele>
        <time>2022-04-17T07:40:58+00:00</time>
      </trkpt>
      <trkpt lat="40.885342" lon="-3.575449">
        <ele>969.13</ele>
        <time>2022-04-17T07:40:59+00:00</time>
      </trkpt>
      <trkpt lat="40.885513" lon="-3.575363">
        <ele>968.65</ele>
        <time>2022-04-17T07:41:00+00:00</time>
      </trkpt>
      <trkpt lat="40.885664" lon="-3.575277">
        <ele>968.17</ele>
        <time>2022-04-17T07:41:01+00:00</time>
      </trkpt>
      <trkpt lat="40.885792" lon="-3.575127">
        <ele>967.20</ele>
        <time>2022-04-17T07:41:02+00:00</time>
      </trkpt>
      <trkpt lat="40.885921" lon="-3.574977">
        <ele>966.24</ele>
        <time>2022-04-17T07:41:03+00:00</time>
      </trkpt>
      <trkpt lat="40.886007" lon="-3.574805">
        <ele>965.28</ele>
        <time>2022-04-17T07:41:04+00:00</time>
      </trkpt>
      <trkpt lat="40.886071" lon="-3.574591">
        <ele>964.32</ele>
        <time>2022-04-17T07:41:05+00:00</time>
      </trkpt>
      <trkpt lat="40.886071" lon="-3.574398">
        <ele>963.84</ele>
        <time>2022-04-17T07:41:06+00:00</time>
      </trkpt>
      <trkpt lat="40.886050" lon="-3.574162">
        <ele>963.36</ele>
        <time>2022-04-17T07:41:07+00:00</time>
      </trkpt>
      <trkpt lat="40.886028" lon="-3.573926">
        <ele>963.36</ele>
        <time>2022-04-17T07:41:08+00:00</time>
      </trkpt>
      <trkpt lat="40.885942" lon="-3.573711">
        <ele>962.88</ele>
        <time>2022-04-17T07:41:09+00:00</time>
      </trkpt>
      <trkpt lat="40.885857" lon="-3.573496">
        <ele>962.88</ele>
        <time>2022-04-17T07:41:10+00:00</time>
      </trkpt>
      <trkpt lat="40.885771" lon="-3.573325">
        <ele>962.88</ele>
        <time>2022-04-17T07:41:11+00:00</time>
      </trkpt>
      <trkpt lat="40.885706" lon="-3.573153">
        <ele>962.88</ele>
        <time>2022-04-17T07:41:12+00:00</time>
      </trkpt>
      <trkpt lat="40.885664" lon="-3.572960">
        <ele>962.40</ele>
        <time>2022-04-17T07:41:13+00:00</time>
      </trkpt>
      <trkpt lat="40.885642" lon="-3.572767">
        <ele>962.40</ele>
        <time>2022-04-17T07:41:14+00:00</time>
      </trkpt>
      <trkpt lat="40.885706" lon="-3.572531">
        <ele>961.92</ele>
        <time>2022-04-17T07:41:15+00:00</time>
      </trkpt>
      <trkpt lat="40.885749" lon="-3.572295">
        <ele>960.96</ele>
        <time>2022-04-17T07:41:16+00:00</time>
      </trkpt>
      <trkpt lat="40.885835" lon="-3.572016">
        <ele>959.51</ele>
        <time>2022-04-17T07:41:17+00:00</time>
      </trkpt>
      <trkpt lat="40.886221" lon="-3.570664">
        <ele>953.27</ele>
        <time>2022-04-17T07:41:22+00:00</time>
      </trkpt>
      <trkpt lat="40.886243" lon="-3.570364">
        <ele>951.82</ele>
        <time>2022-04-17T07:41:23+00:00</time>
      </trkpt>
      <trkpt lat="40.886264" lon="-3.570063">
        <ele>950.86</ele>
        <time>2022-04-17T07:41:24+00:00</time>
      </trkpt>
      <trkpt lat="40.886436" lon="-3.567381">
        <ele>941.73</ele>
        <time>2022-04-17T07:41:33+00:00</time>
      </trkpt>
      <trkpt lat="40.886822" lon="-3.565600">
        <ele>935.48</ele>
        <time>2022-04-17T07:41:40+00:00</time>
      </trkpt>
      <trkpt lat="40.887015" lon="-3.564549">
        <ele>932.60</ele>
        <time>2022-04-17T07:41:45+00:00</time>
      </trkpt>
      <trkpt lat="40.887037" lon="-3.564355">
        <ele>932.12</ele>
        <time>2022-04-17T07:41:46+00:00</time>
      </trkpt>
      <trkpt lat="40.887037" lon="-3.562896">
        <ele>930.19</ele>
        <time>2022-04-17T07:41:55+00:00</time>
      </trkpt>
      <trkpt lat="40.887080" lon="-3.562532">
        <ele>929.71</ele>
        <time>2022-04-17T07:41:58+00:00</time>
      </trkpt>
      <trkpt lat="40.887101" lon="-3.562403">
        <ele>929.23</ele>
        <time>2022-04-17T07:41:59+00:00</time>
      </trkpt>
      <trkpt lat="40.887144" lon="-3.562295">
        <ele>928.75</ele>
        <time>2022-04-17T07:42:00+00:00</time>
      </trkpt>
      <trkpt lat="40.887208" lon="-3.562188">
        <ele>928.75</ele>
        <time>2022-04-17T07:42:01+00:00</time>
      </trkpt>
      <trkpt lat="40.887251" lon="-3.562081">
        <ele>928.75</ele>
        <time>2022-04-17T07:42:02+00:00</time>
      </trkpt>
      <trkpt lat="40.887316" lon="-3.561952">
        <ele>928.75</ele>
        <time>2022-04-17T07:42:03+00:00</time>
      </trkpt>
      <trkpt lat="40.887402" lon="-3.561823">
        <ele>928.75</ele>
        <time>2022-04-17T07:42:04+00:00</time>
      </trkpt>
      <trkpt lat="40.887487" lon="-3.561716">
        <ele>928.27</ele>
        <time>2022-04-17T07:42:05+00:00</time>
      </trkpt>
      <trkpt lat="40.887895" lon="-3.561137">
        <ele>928.75</ele>
        <time>2022-04-17T07:42:12+00:00</time>
      </trkpt>
      <trkpt lat="40.887959" lon="-3.561029">
        <ele>928.75</ele>
        <time>2022-04-17T07:42:16+00:00</time>
      </trkpt>
      <trkpt lat="40.888002" lon="-3.561094">
        <ele>928.75</ele>
        <time>2022-04-17T07:42:17+00:00</time>
      </trkpt>
      <trkpt lat="40.888045" lon="-3.561137">
        <ele>928.75</ele>
        <time>2022-04-17T07:42:18+00:00</time>
      </trkpt>
      <trkpt lat="40.888110" lon="-3.561201">
        <ele>928.75</ele>
        <time>2022-04-17T07:42:19+00:00</time>
      </trkpt>
      <trkpt lat="40.888153" lon="-3.561244">
        <ele>929.23</ele>
        <time>2022-04-17T07:42:20+00:00</time>
      </trkpt>
      <trkpt lat="40.888238" lon="-3.561180">
        <ele>929.23</ele>
        <time>2022-04-17T07:42:21+00:00</time>
      </trkpt>
      <trkpt lat="40.888281" lon="-3.561115">
        <ele>929.71</ele>
        <time>2022-04-17T07:42:22+00:00</time>
      </trkpt>
      <trkpt lat="40.888346" lon="-3.561008">
        <ele>929.71</ele>
        <time>2022-04-17T07:42:23+00:00</time>
      </trkpt>
      <trkpt lat="40.888603" lon="-3.560622">
        <ele>929.71</ele>
        <time>2022-04-17T07:42:27+00:00</time>
      </trkpt>
      <trkpt lat="40.888646" lon="-3.560493">
        <ele>929.23</ele>
        <time>2022-04-17T07:42:28+00:00</time>
      </trkpt>
      <trkpt lat="40.888689" lon="-3.560364">
        <ele>929.23</ele>
        <time>2022-04-17T07:42:29+00:00</time>
      </trkpt>
      <trkpt lat="40.888753" lon="-3.560257">
        <ele>929.23</ele>
        <time>2022-04-17T07:42:30+00:00</time>
      </trkpt>
      <trkpt lat="40.888796" lon="-3.560150">
        <ele>929.23</ele>
        <time>2022-04-17T07:42:31+00:00</time>
      </trkpt>
      <trkpt lat="40.888882" lon="-3.560064">
        <ele>929.23</ele>
        <time>2022-04-17T07:42:32+00:00</time>
      </trkpt>
      <trkpt lat="40.888968" lon="-3.560000">
        <ele>929.23</ele>
        <time>2022-04-17T07:42:33+00:00</time>
      </trkpt>
      <trkpt lat="40.889075" lon="-3.559935">
        <ele>929.71</ele>
        <time>2022-04-17T07:42:34+00:00</time>
      </trkpt>
      <trkpt lat="40.889204" lon="-3.559892">
        <ele>929.71</ele>
        <time>2022-04-17T07:42:35+00:00</time>
      </trkpt>
      <trkpt lat="40.889912" lon="-3.559313">
        <ele>935.48</ele>
        <time>2022-04-17T07:42:43+00:00</time>
      </trkpt>
      <trkpt lat="40.890019" lon="-3.559206">
        <ele>936.92</ele>
        <time>2022-04-17T07:42:45+00:00</time>
      </trkpt>
      <trkpt lat="40.890062" lon="-3.559120">
        <ele>937.88</ele>
        <time>2022-04-17T07:42:46+00:00</time>
      </trkpt>
      <trkpt lat="40.890084" lon="-3.559012">
        <ele>938.85</ele>
        <time>2022-04-17T07:42:47+00:00</time>
      </trkpt>
      <trkpt lat="40.890127" lon="-3.558884">
        <ele>939.33</ele>
        <time>2022-04-17T07:42:48+00:00</time>
      </trkpt>
      <trkpt lat="40.890170" lon="-3.558755">
        <ele>939.81</ele>
        <time>2022-04-17T07:42:49+00:00</time>
      </trkpt>
      <trkpt lat="40.890213" lon="-3.558626">
        <ele>940.29</ele>
        <time>2022-04-17T07:42:50+00:00</time>
      </trkpt>
      <trkpt lat="40.890277" lon="-3.558519">
        <ele>940.77</ele>
        <time>2022-04-17T07:42:51+00:00</time>
      </trkpt>
      <trkpt lat="40.890341" lon="-3.558390">
        <ele>940.77</ele>
        <time>2022-04-17T07:42:52+00:00</time>
      </trkpt>
      <trkpt lat="40.890406" lon="-3.558326">
        <ele>940.77</ele>
        <time>2022-04-17T07:42:53+00:00</time>
      </trkpt>
      <trkpt lat="40.890513" lon="-3.558283">
        <ele>940.77</ele>
        <time>2022-04-17T07:42:54+00:00</time>
      </trkpt>
      <trkpt lat="40.890642" lon="-3.558219">
        <ele>940.77</ele>
        <time>2022-04-17T07:42:55+00:00</time>
      </trkpt>
      <trkpt lat="40.890770" lon="-3.558197">
        <ele>940.77</ele>
        <time>2022-04-17T07:42:56+00:00</time>
      </trkpt>
      <trkpt lat="40.890942" lon="-3.558197">
        <ele>940.29</ele>
        <time>2022-04-17T07:42:57+00:00</time>
      </trkpt>
      <trkpt lat="40.891114" lon="-3.558219">
        <ele>939.33</ele>
        <time>2022-04-17T07:42:58+00:00</time>
      </trkpt>
      <trkpt lat="40.892101" lon="-3.558240">
        <ele>930.68</ele>
        <time>2022-04-17T07:43:04+00:00</time>
      </trkpt>
      <trkpt lat="40.892230" lon="-3.558154">
        <ele>929.23</ele>
        <time>2022-04-17T07:43:05+00:00</time>
      </trkpt>
      <trkpt lat="40.892380" lon="-3.558025">
        <ele>928.27</ele>
        <time>2022-04-17T07:43:06+00:00</time>
      </trkpt>
      <trkpt lat="40.893796" lon="-3.556588">
        <ele>918.66</ele>
        <time>2022-04-17T07:43:15+00:00</time>
      </trkpt>
      <trkpt lat="40.895105" lon="-3.555665">
        <ele>913.85</ele>
        <time>2022-04-17T07:43:22+00:00</time>
      </trkpt>
      <trkpt lat="40.895985" lon="-3.555021">
        <ele>912.41</ele>
        <time>2022-04-17T07:43:27+00:00</time>
      </trkpt>
      <trkpt lat="40.896113" lon="-3.554828">
        <ele>911.93</ele>
        <time>2022-04-17T07:43:28+00:00</time>
      </trkpt>
      <trkpt lat="40.896199" lon="-3.554614">
        <ele>911.93</ele>
        <time>2022-04-17T07:43:29+00:00</time>
      </trkpt>
      <trkpt lat="40.896285" lon="-3.554378">
        <ele>911.93</ele>
        <time>2022-04-17T07:43:30+00:00</time>
      </trkpt>
      <trkpt lat="40.896371" lon="-3.554163">
        <ele>911.45</ele>
        <time>2022-04-17T07:43:31+00:00</time>
      </trkpt>
      <trkpt lat="40.896564" lon="-3.553519">
        <ele>912.41</ele>
        <time>2022-04-17T07:43:34+00:00</time>
      </trkpt>
      <trkpt lat="40.896671" lon="-3.553369">
        <ele>912.89</ele>
        <time>2022-04-17T07:43:35+00:00</time>
      </trkpt>
      <trkpt lat="40.896800" lon="-3.553197">
        <ele>913.37</ele>
        <time>2022-04-17T07:43:36+00:00</time>
      </trkpt>
      <trkpt lat="40.896929" lon="-3.553069">
        <ele>913.85</ele>
        <time>2022-04-17T07:43:37+00:00</time>
      </trkpt>
      <trkpt lat="40.897100" lon="-3.552961">
        <ele>914.33</ele>
        <time>2022-04-17T07:43:38+00:00</time>
      </trkpt>
      <trkpt lat="40.897251" lon="-3.552876">
        <ele>915.29</ele>
        <time>2022-04-17T07:43:39+00:00</time>
      </trkpt>
      <trkpt lat="40.897444" lon="-3.552876">
        <ele>915.77</ele>
        <time>2022-04-17T07:43:40+00:00</time>
      </trkpt>
      <trkpt lat="40.897637" lon="-3.552854">
        <ele>916.26</ele>
        <time>2022-04-17T07:43:41+00:00</time>
      </trkpt>
      <trkpt lat="40.897809" lon="-3.552918">
        <ele>917.22</ele>
        <time>2022-04-17T07:43:42+00:00</time>
      </trkpt>
      <trkpt lat="40.898002" lon="-3.553004">
        <ele>917.70</ele>
        <time>2022-04-17T07:43:43+00:00</time>
      </trkpt>
      <trkpt lat="40.898173" lon="-3.553133">
        <ele>918.18</ele>
        <time>2022-04-17T07:43:44+00:00</time>
      </trkpt>
      <trkpt lat="40.898302" lon="-3.553305">
        <ele>919.14</ele>
        <time>2022-04-17T07:43:45+00:00</time>
      </trkpt>
      <trkpt lat="40.898431" lon="-3.553519">
        <ele>920.10</ele>
        <time>2022-04-17T07:43:46+00:00</time>
      </trkpt>
      <trkpt lat="40.898560" lon="-3.553734">
        <ele>920.58</ele>
        <time>2022-04-17T07:43:47+00:00</time>
      </trkpt>
      <trkpt lat="40.898688" lon="-3.553970">
        <ele>921.06</ele>
        <time>2022-04-17T07:43:48+00:00</time>
      </trkpt>
      <trkpt lat="40.899697" lon="-3.556244">
        <ele>921.54</ele>
        <time>2022-04-17T07:43:57+00:00</time>
      </trkpt>
      <trkpt lat="40.900684" lon="-3.558240">
        <ele>917.22</ele>
        <time>2022-04-17T07:44:05+00:00</time>
      </trkpt>
      <trkpt lat="40.901800" lon="-3.559957">
        <ele>912.89</ele>
        <time>2022-04-17T07:44:12+00:00</time>
      </trkpt>
      <trkpt lat="40.901993" lon="-3.560107">
        <ele>911.93</ele>
        <time>2022-04-17T07:44:13+00:00</time>
      </trkpt>
      <trkpt lat="40.902186" lon="-3.560236">
        <ele>910.97</ele>
        <time>2022-04-17T07:44:14+00:00</time>
      </trkpt>
      <trkpt lat="40.902400" lon="-3.560343">
        <ele>909.53</ele>
        <time>2022-04-17T07:44:15+00:00</time>
      </trkpt>
      <trkpt lat="40.902637" lon="-3.560450">
        <ele>908.56</ele>
        <time>2022-04-17T07:44:16+00:00</time>
      </trkpt>
      <trkpt lat="40.904096" lon="-3.560987">
        <ele>903.28</ele>
        <time>2022-04-17T07:44:22+00:00</time>
      </trkpt>
      <trkpt lat="40.904332" lon="-3.561008">
        <ele>902.80</ele>
        <time>2022-04-17T07:44:23+00:00</time>
      </trkpt>
      <trkpt lat="40.904568" lon="-3.560965">
        <ele>902.32</ele>
        <time>2022-04-17T07:44:24+00:00</time>
      </trkpt>
      <trkpt lat="40.904804" lon="-3.560901">
        <ele>901.84</ele>
        <time>2022-04-17T07:44:25+00:00</time>
      </trkpt>
      <trkpt lat="40.905040" lon="-3.560815">
        <ele>901.35</ele>
        <time>2022-04-17T07:44:26+00:00</time>
      </trkpt>
      <trkpt lat="40.905297" lon="-3.560751">
        <ele>900.87</ele>
        <time>2022-04-17T07:44:27+00:00</time>
      </trkpt>
      <trkpt lat="40.906907" lon="-3.560278">
        <ele>904.72</ele>
        <time>2022-04-17T07:44:34+00:00</time>
      </trkpt>
      <trkpt lat="40.907100" lon="-3.560278">
        <ele>905.20</ele>
        <time>2022-04-17T07:44:35+00:00</time>
      </trkpt>
      <trkpt lat="40.907293" lon="-3.560343">
        <ele>905.68</ele>
        <time>2022-04-17T07:44:36+00:00</time>
      </trkpt>
      <trkpt lat="40.907486" lon="-3.560429">
        <ele>906.16</ele>
        <time>2022-04-17T07:44:37+00:00</time>
      </trkpt>
      <trkpt lat="40.907679" lon="-3.560579">
        <ele>906.16</ele>
        <time>2022-04-17T07:44:38+00:00</time>
      </trkpt>
      <trkpt lat="40.907894" lon="-3.560729">
        <ele>906.16</ele>
        <time>2022-04-17T07:44:39+00:00</time>
      </trkpt>
      <trkpt lat="40.908988" lon="-3.561373">
        <ele>904.72</ele>
        <time>2022-04-17T07:44:44+00:00</time>
      </trkpt>
      <trkpt lat="40.910533" lon="-3.561738">
        <ele>897.99</ele>
        <time>2022-04-17T07:44:50+00:00</time>
      </trkpt>
      <trkpt lat="40.911885" lon="-3.561437">
        <ele>897.51</ele>
        <time>2022-04-17T07:44:55+00:00</time>
      </trkpt>
      <trkpt lat="40.915382" lon="-3.559935">
        <ele>923.47</ele>
        <time>2022-04-17T07:45:08+00:00</time>
      </trkpt>
      <trkpt lat="40.917571" lon="-3.559248">
        <ele>934.52</ele>
        <time>2022-04-17T07:45:17+00:00</time>
      </trkpt>
      <trkpt lat="40.917807" lon="-3.559270">
        <ele>935.00</ele>
        <time>2022-04-17T07:45:18+00:00</time>
      </trkpt>
      <trkpt lat="40.918086" lon="-3.559313">
        <ele>935.48</ele>
        <time>2022-04-17T07:45:19+00:00</time>
      </trkpt>
      <trkpt lat="40.920468" lon="-3.559892">
        <ele>935.48</ele>
        <time>2022-04-17T07:45:28+00:00</time>
      </trkpt>
      <trkpt lat="40.923515" lon="-3.561137">
        <ele>934.52</ele>
        <time>2022-04-17T07:45:40+00:00</time>
      </trkpt>
      <trkpt lat="40.924159" lon="-3.561544">
        <ele>934.04</ele>
        <time>2022-04-17T07:45:43+00:00</time>
      </trkpt>
      <trkpt lat="40.924373" lon="-3.561716">
        <ele>934.04</ele>
        <time>2022-04-17T07:45:44+00:00</time>
      </trkpt>
      <trkpt lat="40.926519" lon="-3.563862">
        <ele>932.12</ele>
        <time>2022-04-17T07:45:54+00:00</time>
      </trkpt>
      <trkpt lat="40.928965" lon="-3.566136">
        <ele>930.68</ele>
        <time>2022-04-17T07:46:05+00:00</time>
      </trkpt>
      <trkpt lat="40.932184" lon="-3.569012">
        <ele>929.23</ele>
        <time>2022-04-17T07:46:19+00:00</time>
      </trkpt>
      <trkpt lat="40.934415" lon="-3.570364">
        <ele>925.39</ele>
        <time>2022-04-17T07:46:27+00:00</time>
      </trkpt>
      <trkpt lat="40.936347" lon="-3.571436">
        <ele>935.00</ele>
        <time>2022-04-17T07:46:35+00:00</time>
      </trkpt>
      <trkpt lat="40.936583" lon="-3.571501">
        <ele>936.44</ele>
        <time>2022-04-17T07:46:36+00:00</time>
      </trkpt>
      <trkpt lat="40.936840" lon="-3.571522">
        <ele>938.37</ele>
        <time>2022-04-17T07:46:37+00:00</time>
      </trkpt>
      <trkpt lat="40.937076" lon="-3.571501">
        <ele>940.29</ele>
        <time>2022-04-17T07:46:38+00:00</time>
      </trkpt>
      <trkpt lat="40.937312" lon="-3.571458">
        <ele>941.73</ele>
        <time>2022-04-17T07:46:39+00:00</time>
      </trkpt>
      <trkpt lat="40.937527" lon="-3.571372">
        <ele>943.17</ele>
        <time>2022-04-17T07:46:40+00:00</time>
      </trkpt>
      <trkpt lat="40.937720" lon="-3.571286">
        <ele>944.61</ele>
        <time>2022-04-17T07:46:41+00:00</time>
      </trkpt>
      <trkpt lat="40.937891" lon="-3.571157">
        <ele>946.06</ele>
        <time>2022-04-17T07:46:42+00:00</time>
      </trkpt>
      <trkpt lat="40.938063" lon="-3.571029">
        <ele>947.02</ele>
        <time>2022-04-17T07:46:43+00:00</time>
      </trkpt>
      <trkpt lat="40.938213" lon="-3.570900">
        <ele>947.98</ele>
        <time>2022-04-17T07:46:44+00:00</time>
      </trkpt>
      <trkpt lat="40.938342" lon="-3.570750">
        <ele>949.42</ele>
        <time>2022-04-17T07:46:45+00:00</time>
      </trkpt>
      <trkpt lat="40.939608" lon="-3.569527">
        <ele>957.11</ele>
        <time>2022-04-17T07:46:53+00:00</time>
      </trkpt>
      <trkpt lat="40.939780" lon="-3.569462">
        <ele>957.59</ele>
        <time>2022-04-17T07:46:54+00:00</time>
      </trkpt>
      <trkpt lat="40.939930" lon="-3.569398">
        <ele>958.07</ele>
        <time>2022-04-17T07:46:55+00:00</time>
      </trkpt>
      <trkpt lat="40.940123" lon="-3.569398">
        <ele>958.55</ele>
        <time>2022-04-17T07:46:56+00:00</time>
      </trkpt>
      <trkpt lat="40.940338" lon="-3.569377">
        <ele>959.03</ele>
        <time>2022-04-17T07:46:57+00:00</time>
      </trkpt>
      <trkpt lat="40.940552" lon="-3.569377">
        <ele>959.03</ele>
        <time>2022-04-17T07:46:58+00:00</time>
      </trkpt>
      <trkpt lat="40.942076" lon="-3.569377">
        <ele>957.11</ele>
        <time>2022-04-17T07:47:04+00:00</time>
      </trkpt>
      <trkpt lat="40.942290" lon="-3.569248">
        <ele>956.15</ele>
        <time>2022-04-17T07:47:05+00:00</time>
      </trkpt>
      <trkpt lat="40.942505" lon="-3.569098">
        <ele>955.67</ele>
        <time>2022-04-17T07:47:06+00:00</time>
      </trkpt>
      <trkpt lat="40.944093" lon="-3.567982">
        <ele>953.27</ele>
        <time>2022-04-17T07:47:14+00:00</time>
      </trkpt>
      <trkpt lat="40.945402" lon="-3.567081">
        <ele>949.42</ele>
        <time>2022-04-17T07:47:21+00:00</time>
      </trkpt>
      <trkpt lat="40.945616" lon="-3.567038">
        <ele>948.46</ele>
        <time>2022-04-17T07:47:22+00:00</time>
      </trkpt>
      <trkpt lat="40.945831" lon="-3.567038">
        <ele>947.50</ele>
        <time>2022-04-17T07:47:23+00:00</time>
      </trkpt>
      <trkpt lat="40.946045" lon="-3.567016">
        <ele>947.02</ele>
        <time>2022-04-17T07:47:24+00:00</time>
      </trkpt>
      <trkpt lat="40.946239" lon="-3.567016">
        <ele>946.06</ele>
        <time>2022-04-17T07:47:25+00:00</time>
      </trkpt>
      <trkpt lat="40.946775" lon="-3.566930">
        <ele>943.65</ele>
        <time>2022-04-17T07:47:28+00:00</time>
      </trkpt>
      <trkpt lat="40.946904" lon="-3.566866">
        <ele>943.17</ele>
        <time>2022-04-17T07:47:29+00:00</time>
      </trkpt>
      <trkpt lat="40.947032" lon="-3.566780">
        <ele>942.69</ele>
        <time>2022-04-17T07:47:30+00:00</time>
      </trkpt>
      <trkpt lat="40.947118" lon="-3.566651">
        <ele>942.69</ele>
        <time>2022-04-17T07:47:31+00:00</time>
      </trkpt>
      <trkpt lat="40.947183" lon="-3.566523">
        <ele>942.21</ele>
        <time>2022-04-17T07:47:32+00:00</time>
      </trkpt>
      <trkpt lat="40.947226" lon="-3.566394">
        <ele>941.73</ele>
        <time>2022-04-17T07:47:33+00:00</time>
      </trkpt>
      <trkpt lat="40.947268" lon="-3.566265">
        <ele>941.73</ele>
        <time>2022-04-17T07:47:34+00:00</time>
      </trkpt>
      <trkpt lat="40.947311" lon="-3.566179">
        <ele>941.73</ele>
        <time>2022-04-17T07:47:35+00:00</time>
      </trkpt>
      <trkpt lat="40.947333" lon="-3.566093">
        <ele>941.25</ele>
        <time>2022-04-17T07:47:36+00:00</time>
      </trkpt>
      <trkpt lat="40.947354" lon="-3.566051">
        <ele>941.25</ele>
        <time>2022-04-17T07:47:37+00:00</time>
      </trkpt>
      <trkpt lat="40.947440" lon="-3.566072">
        <ele>941.25</ele>
        <time>2022-04-17T07:47:38+00:00</time>
      </trkpt>
      <trkpt lat="40.947483" lon="-3.566136">
        <ele>940.77</ele>
        <time>2022-04-17T07:47:39+00:00</time>
      </trkpt>
      <trkpt lat="40.947483" lon="-3.566244">
        <ele>941.25</ele>
        <time>2022-04-17T07:47:40+00:00</time>
      </trkpt>
      <trkpt lat="40.947505" lon="-3.566394">
        <ele>941.25</ele>
        <time>2022-04-17T07:47:41+00:00</time>
      </trkpt>
      <trkpt lat="40.947526" lon="-3.566566">
        <ele>941.73</ele>
        <time>2022-04-17T07:47:42+00:00</time>
      </trkpt>
      <trkpt lat="40.947612" lon="-3.567402">
        <ele>944.61</ele>
        <time>2022-04-17T07:47:46+00:00</time>
      </trkpt>
      <trkpt lat="40.947698" lon="-3.567553">
        <ele>945.58</ele>
        <time>2022-04-17T07:47:47+00:00</time>
      </trkpt>
      <trkpt lat="40.947805" lon="-3.567703">
        <ele>947.02</ele>
        <time>2022-04-17T07:47:48+00:00</time>
      </trkpt>
      <trkpt lat="40.948792" lon="-3.568947">
        <ele>956.15</ele>
        <time>2022-04-17T07:47:55+00:00</time>
      </trkpt>
      <trkpt lat="40.948899" lon="-3.569183">
        <ele>957.59</ele>
        <time>2022-04-17T07:47:56+00:00</time>
      </trkpt>
      <trkpt lat="40.949221" lon="-3.569827">
        <ele>960.48</ele>
        <time>2022-04-17T07:47:59+00:00</time>
      </trkpt>
      <trkpt lat="40.949350" lon="-3.570020">
        <ele>961.44</ele>
        <time>2022-04-17T07:48:00+00:00</time>
      </trkpt>
      <trkpt lat="40.949500" lon="-3.570192">
        <ele>961.92</ele>
        <time>2022-04-17T07:48:01+00:00</time>
      </trkpt>
      <trkpt lat="40.949672" lon="-3.570342">
        <ele>962.40</ele>
        <time>2022-04-17T07:48:02+00:00</time>
      </trkpt>
      <trkpt lat="40.949822" lon="-3.570471">
        <ele>963.36</ele>
        <time>2022-04-17T07:48:03+00:00</time>
      </trkpt>
      <trkpt lat="40.949994" lon="-3.570578">
        <ele>963.84</ele>
        <time>2022-04-17T07:48:04+00:00</time>
      </trkpt>
      <trkpt lat="40.950509" lon="-3.570857">
        <ele>964.80</ele>
        <time>2022-04-17T07:48:07+00:00</time>
      </trkpt>
      <trkpt lat="40.950702" lon="-3.570921">
        <ele>965.28</ele>
        <time>2022-04-17T07:48:08+00:00</time>
      </trkpt>
      <trkpt lat="40.951260" lon="-3.571157">
        <ele>965.76</ele>
        <time>2022-04-17T07:48:11+00:00</time>
      </trkpt>
      <trkpt lat="40.951410" lon="-3.571265">
        <ele>965.76</ele>
        <time>2022-04-17T07:48:12+00:00</time>
      </trkpt>
      <trkpt lat="40.951539" lon="-3.571436">
        <ele>965.28</ele>
        <time>2022-04-17T07:48:13+00:00</time>
      </trkpt>
      <trkpt lat="40.951689" lon="-3.571608">
        <ele>965.76</ele>
        <time>2022-04-17T07:48:14+00:00</time>
      </trkpt>
      <trkpt lat="40.951860" lon="-3.571737">
        <ele>965.76</ele>
        <time>2022-04-17T07:48:15+00:00</time>
      </trkpt>
      <trkpt lat="40.952054" lon="-3.571887">
        <ele>966.24</ele>
        <time>2022-04-17T07:48:16+00:00</time>
      </trkpt>
      <trkpt lat="40.952225" lon="-3.572037">
        <ele>967.20</ele>
        <time>2022-04-17T07:48:17+00:00</time>
      </trkpt>
      <trkpt lat="40.953255" lon="-3.573003">
        <ele>969.61</ele>
        <time>2022-04-17T07:48:23+00:00</time>
      </trkpt>
      <trkpt lat="40.953384" lon="-3.573153">
        <ele>970.09</ele>
        <time>2022-04-17T07:48:24+00:00</time>
      </trkpt>
      <trkpt lat="40.953534" lon="-3.573239">
        <ele>970.09</ele>
        <time>2022-04-17T07:48:25+00:00</time>
      </trkpt>
      <trkpt lat="40.953706" lon="-3.573303">
        <ele>971.05</ele>
        <time>2022-04-17T07:48:26+00:00</time>
      </trkpt>
      <trkpt lat="40.954028" lon="-3.573518">
        <ele>972.01</ele>
        <time>2022-04-17T07:48:28+00:00</time>
      </trkpt>
      <trkpt lat="40.954199" lon="-3.573668">
        <ele>973.45</ele>
        <time>2022-04-17T07:48:29+00:00</time>
      </trkpt>
      <trkpt lat="40.954907" lon="-3.574483">
        <ele>981.14</ele>
        <time>2022-04-17T07:48:34+00:00</time>
      </trkpt>
      <trkpt lat="40.954993" lon="-3.574634">
        <ele>982.11</ele>
        <time>2022-04-17T07:48:35+00:00</time>
      </trkpt>
      <trkpt lat="40.955036" lon="-3.574762">
        <ele>983.55</ele>
        <time>2022-04-17T07:48:36+00:00</time>
      </trkpt>
      <trkpt lat="40.955036" lon="-3.574934">
        <ele>984.51</ele>
        <time>2022-04-17T07:48:37+00:00</time>
      </trkpt>
      <trkpt lat="40.954993" lon="-3.575127">
        <ele>985.47</ele>
        <time>2022-04-17T07:48:38+00:00</time>
      </trkpt>
      <trkpt lat="40.954972" lon="-3.575342">
        <ele>986.43</ele>
        <time>2022-04-17T07:48:39+00:00</time>
      </trkpt>
      <trkpt lat="40.954950" lon="-3.575578">
        <ele>986.91</ele>
        <time>2022-04-17T07:48:40+00:00</time>
      </trkpt>
      <trkpt lat="40.954950" lon="-3.575792">
        <ele>986.91</ele>
        <time>2022-04-17T07:48:41+00:00</time>
      </trkpt>
      <trkpt lat="40.954950" lon="-3.576007">
        <ele>986.91</ele>
        <time>2022-04-17T07:48:42+00:00</time>
      </trkpt>
      <trkpt lat="40.954993" lon="-3.576222">
        <ele>986.43</ele>
        <time>2022-04-17T07:48:43+00:00</time>
      </trkpt>
      <trkpt lat="40.955079" lon="-3.576415">
        <ele>985.95</ele>
        <time>2022-04-17T07:48:44+00:00</time>
      </trkpt>
      <trkpt lat="40.955208" lon="-3.576629">
        <ele>985.95</ele>
        <time>2022-04-17T07:48:45+00:00</time>
      </trkpt>
      <trkpt lat="40.955315" lon="-3.576822">
        <ele>985.47</ele>
        <time>2022-04-17T07:48:46+00:00</time>
      </trkpt>
      <trkpt lat="40.955465" lon="-3.576973">
        <ele>985.47</ele>
        <time>2022-04-17T07:48:47+00:00</time>
      </trkpt>
      <trkpt lat="40.955616" lon="-3.577080">
        <ele>985.47</ele>
        <time>2022-04-17T07:48:48+00:00</time>
      </trkpt>
      <trkpt lat="40.955787" lon="-3.577144">
        <ele>985.47</ele>
        <time>2022-04-17T07:48:49+00:00</time>
      </trkpt>
      <trkpt lat="40.955980" lon="-3.577209">
        <ele>985.47</ele>
        <time>2022-04-17T07:48:50+00:00</time>
      </trkpt>
      <trkpt lat="40.956173" lon="-3.577251">
        <ele>986.43</ele>
        <time>2022-04-17T07:48:51+00:00</time>
      </trkpt>
      <trkpt lat="40.957804" lon="-3.578131">
        <ele>991.24</ele>
        <time>2022-04-17T07:48:59+00:00</time>
      </trkpt>
      <trkpt lat="40.958899" lon="-3.579226">
        <ele>991.72</ele>
        <time>2022-04-17T07:49:05+00:00</time>
      </trkpt>
      <trkpt lat="40.959864" lon="-3.580084">
        <ele>993.64</ele>
        <time>2022-04-17T07:49:11+00:00</time>
      </trkpt>
      <trkpt lat="40.961044" lon="-3.580942">
        <ele>994.12</ele>
        <time>2022-04-17T07:49:20+00:00</time>
      </trkpt>
      <trkpt lat="40.961173" lon="-3.581007">
        <ele>993.64</ele>
        <time>2022-04-17T07:49:21+00:00</time>
      </trkpt>
      <trkpt lat="40.961302" lon="-3.581028">
        <ele>992.68</ele>
        <time>2022-04-17T07:49:22+00:00</time>
      </trkpt>
      <trkpt lat="40.962503" lon="-3.581393">
        <ele>991.24</ele>
        <time>2022-04-17T07:49:32+00:00</time>
      </trkpt>
      <trkpt lat="40.962611" lon="-3.581479">
        <ele>991.72</ele>
        <time>2022-04-17T07:49:33+00:00</time>
      </trkpt>
      <trkpt lat="40.962697" lon="-3.581564">
        <ele>992.68</ele>
        <time>2022-04-17T07:49:34+00:00</time>
      </trkpt>
      <trkpt lat="40.962782" lon="-3.581693">
        <ele>993.64</ele>
        <time>2022-04-17T07:49:35+00:00</time>
      </trkpt>
      <trkpt lat="40.962868" lon="-3.581801">
        <ele>994.60</ele>
        <time>2022-04-17T07:49:36+00:00</time>
      </trkpt>
      <trkpt lat="40.962954" lon="-3.581929">
        <ele>995.56</ele>
        <time>2022-04-17T07:49:37+00:00</time>
      </trkpt>
      <trkpt lat="40.963855" lon="-3.582981">
        <ele>1004.22</ele>
        <time>2022-04-17T07:49:47+00:00</time>
      </trkpt>
      <trkpt lat="40.964048" lon="-3.583131">
        <ele>1005.66</ele>
        <time>2022-04-17T07:49:49+00:00</time>
      </trkpt>
      <trkpt lat="40.964156" lon="-3.583195">
        <ele>1006.14</ele>
        <time>2022-04-17T07:49:50+00:00</time>
      </trkpt>
      <trkpt lat="40.964327" lon="-3.583281">
        <ele>1007.58</ele>
        <time>2022-04-17T07:49:52+00:00</time>
      </trkpt>
      <trkpt lat="40.964392" lon="-3.583388">
        <ele>1008.06</ele>
        <time>2022-04-17T07:49:53+00:00</time>
      </trkpt>
      <trkpt lat="40.964435" lon="-3.583496">
        <ele>1008.54</ele>
        <time>2022-04-17T07:49:54+00:00</time>
      </trkpt>
      <trkpt lat="40.964928" lon="-3.584590">
        <ele>1015.27</ele>
        <time>2022-04-17T07:50:03+00:00</time>
      </trkpt>
      <trkpt lat="40.964993" lon="-3.584654">
        <ele>1015.75</ele>
        <time>2022-04-17T07:50:04+00:00</time>
      </trkpt>
      <trkpt lat="40.965078" lon="-3.584740">
        <ele>1016.71</ele>
        <time>2022-04-17T07:50:05+00:00</time>
      </trkpt>
      <trkpt lat="40.965143" lon="-3.584805">
        <ele>1017.19</ele>
        <time>2022-04-17T07:50:06+00:00</time>
      </trkpt>
      <trkpt lat="40.965229" lon="-3.584847">
        <ele>1017.19</ele>
        <time>2022-04-17T07:50:07+00:00</time>
      </trkpt>
      <trkpt lat="40.965293" lon="-3.584933">
        <ele>1017.19</ele>
        <time>2022-04-17T07:50:08+00:00</time>
      </trkpt>
      <trkpt lat="40.965336" lon="-3.585041">
        <ele>1017.19</ele>
        <time>2022-04-17T07:50:09+00:00</time>
      </trkpt>
      <trkpt lat="40.965379" lon="-3.585169">
        <ele>1017.19</ele>
        <time>2022-04-17T07:50:10+00:00</time>
      </trkpt>
      <trkpt lat="40.965679" lon="-3.586264">
        <ele>1019.60</ele>
        <time>2022-04-17T07:50:17+00:00</time>
      </trkpt>
      <trkpt lat="40.966065" lon="-3.587337">
        <ele>1022.96</ele>
        <time>2022-04-17T07:50:25+00:00</time>
      </trkpt>
      <trkpt lat="40.966774" lon="-3.588581">
        <ele>1024.40</ele>
        <time>2022-04-17T07:50:35+00:00</time>
      </trkpt>
      <trkpt lat="40.966902" lon="-3.588624">
        <ele>1024.40</ele>
        <time>2022-04-17T07:50:36+00:00</time>
      </trkpt>
      <trkpt lat="40.966988" lon="-3.588624">
        <ele>1024.40</ele>
        <time>2022-04-17T07:50:37+00:00</time>
      </trkpt>
      <trkpt lat="40.967117" lon="-3.588624">
        <ele>1024.88</ele>
        <time>2022-04-17T07:50:38+00:00</time>
      </trkpt>
      <trkpt lat="40.967246" lon="-3.588603">
        <ele>1024.88</ele>
        <time>2022-04-17T07:50:39+00:00</time>
      </trkpt>
      <trkpt lat="40.967567" lon="-3.588603">
        <ele>1025.36</ele>
        <time>2022-04-17T07:50:41+00:00</time>
      </trkpt>
      <trkpt lat="40.967739" lon="-3.588560">
        <ele>1025.36</ele>
        <time>2022-04-17T07:50:42+00:00</time>
      </trkpt>
      <trkpt lat="40.967911" lon="-3.588474">
        <ele>1025.36</ele>
        <time>2022-04-17T07:50:43+00:00</time>
      </trkpt>
      <trkpt lat="40.968082" lon="-3.588345">
        <ele>1025.36</ele>
        <time>2022-04-17T07:50:44+00:00</time>
      </trkpt>
      <trkpt lat="40.968233" lon="-3.588216">
        <ele>1024.88</ele>
        <time>2022-04-17T07:50:45+00:00</time>
      </trkpt>
      <trkpt lat="40.968404" lon="-3.588066">
        <ele>1024.88</ele>
        <time>2022-04-17T07:50:46+00:00</time>
      </trkpt>
      <trkpt lat="40.968576" lon="-3.587894">
        <ele>1025.36</ele>
        <time>2022-04-17T07:50:47+00:00</time>
      </trkpt>
      <trkpt lat="40.968769" lon="-3.587787">
        <ele>1026.33</ele>
        <time>2022-04-17T07:50:48+00:00</time>
      </trkpt>
      <trkpt lat="40.968984" lon="-3.587680">
        <ele>1027.29</ele>
        <time>2022-04-17T07:50:49+00:00</time>
      </trkpt>
      <trkpt lat="40.969177" lon="-3.587594">
        <ele>1028.25</ele>
        <time>2022-04-17T07:50:50+00:00</time>
      </trkpt>
      <trkpt lat="40.969692" lon="-3.587315">
        <ele>1030.65</ele>
        <time>2022-04-17T07:50:53+00:00</time>
      </trkpt>
      <trkpt lat="40.969799" lon="-3.587186">
        <ele>1031.13</ele>
        <time>2022-04-17T07:50:54+00:00</time>
      </trkpt>
      <trkpt lat="40.969885" lon="-3.587015">
        <ele>1031.61</ele>
        <time>2022-04-17T07:50:55+00:00</time>
      </trkpt>
      <trkpt lat="40.970014" lon="-3.586865">
        <ele>1031.61</ele>
        <time>2022-04-17T07:50:56+00:00</time>
      </trkpt>
      <trkpt lat="40.970121" lon="-3.586736">
        <ele>1031.61</ele>
        <time>2022-04-17T07:50:57+00:00</time>
      </trkpt>
      <trkpt lat="40.970250" lon="-3.586671">
        <ele>1031.61</ele>
        <time>2022-04-17T07:50:58+00:00</time>
      </trkpt>
      <trkpt lat="40.970400" lon="-3.586628">
        <ele>1031.13</ele>
        <time>2022-04-17T07:50:59+00:00</time>
      </trkpt>
      <trkpt lat="40.970593" lon="-3.586650">
        <ele>1030.65</ele>
        <time>2022-04-17T07:51:00+00:00</time>
      </trkpt>
      <trkpt lat="40.970786" lon="-3.586693">
        <ele>1030.17</ele>
        <time>2022-04-17T07:51:01+00:00</time>
      </trkpt>
      <trkpt lat="40.971001" lon="-3.586757">
        <ele>1029.21</ele>
        <time>2022-04-17T07:51:02+00:00</time>
      </trkpt>
      <trkpt lat="40.971215" lon="-3.586843">
        <ele>1028.25</ele>
        <time>2022-04-17T07:51:03+00:00</time>
      </trkpt>
      <trkpt lat="40.972181" lon="-3.587229">
        <ele>1022.48</ele>
        <time>2022-04-17T07:51:08+00:00</time>
      </trkpt>
      <trkpt lat="40.972374" lon="-3.587229">
        <ele>1021.52</ele>
        <time>2022-04-17T07:51:09+00:00</time>
      </trkpt>
      <trkpt lat="40.972567" lon="-3.587229">
        <ele>1020.56</ele>
        <time>2022-04-17T07:51:10+00:00</time>
      </trkpt>
      <trkpt lat="40.972932" lon="-3.587229">
        <ele>1018.64</ele>
        <time>2022-04-17T07:51:12+00:00</time>
      </trkpt>
      <trkpt lat="40.973104" lon="-3.587272">
        <ele>1017.67</ele>
        <time>2022-04-17T07:51:13+00:00</time>
      </trkpt>
      <trkpt lat="40.973275" lon="-3.587358">
        <ele>1017.19</ele>
        <time>2022-04-17T07:51:14+00:00</time>
      </trkpt>
      <trkpt lat="40.973447" lon="-3.587444">
        <ele>1016.23</ele>
        <time>2022-04-17T07:51:15+00:00</time>
      </trkpt>
      <trkpt lat="40.973619" lon="-3.587530">
        <ele>1014.79</ele>
        <time>2022-04-17T07:51:16+00:00</time>
      </trkpt>
      <trkpt lat="40.973769" lon="-3.587573">
        <ele>1013.83</ele>
        <time>2022-04-17T07:51:17+00:00</time>
      </trkpt>
      <trkpt lat="40.973940" lon="-3.587616">
        <ele>1012.39</ele>
        <time>2022-04-17T07:51:18+00:00</time>
      </trkpt>
      <trkpt lat="40.974112" lon="-3.587551">
        <ele>1011.43</ele>
        <time>2022-04-17T07:51:19+00:00</time>
      </trkpt>
      <trkpt lat="40.974305" lon="-3.587508">
        <ele>1009.98</ele>
        <time>2022-04-17T07:51:20+00:00</time>
      </trkpt>
      <trkpt lat="40.974520" lon="-3.587422">
        <ele>1008.54</ele>
        <time>2022-04-17T07:51:21+00:00</time>
      </trkpt>
      <trkpt lat="40.974734" lon="-3.587358">
        <ele>1006.62</ele>
        <time>2022-04-17T07:51:22+00:00</time>
      </trkpt>
      <trkpt lat="40.974927" lon="-3.587337">
        <ele>1005.18</ele>
        <time>2022-04-17T07:51:23+00:00</time>
      </trkpt>
      <trkpt lat="40.975121" lon="-3.587337">
        <ele>1004.22</ele>
        <time>2022-04-17T07:51:24+00:00</time>
      </trkpt>
      <trkpt lat="40.975464" lon="-3.587358">
        <ele>1002.77</ele>
        <time>2022-04-17T07:51:26+00:00</time>
      </trkpt>
      <trkpt lat="40.975614" lon="-3.587315">
        <ele>1001.81</ele>
        <time>2022-04-17T07:51:27+00:00</time>
      </trkpt>
      <trkpt lat="40.975743" lon="-3.587229">
        <ele>1001.33</ele>
        <time>2022-04-17T07:51:28+00:00</time>
      </trkpt>
      <trkpt lat="40.975872" lon="-3.587079">
        <ele>1000.85</ele>
        <time>2022-04-17T07:51:29+00:00</time>
      </trkpt>
      <trkpt lat="40.975957" lon="-3.586886">
        <ele>1000.37</ele>
        <time>2022-04-17T07:51:30+00:00</time>
      </trkpt>
      <trkpt lat="40.976065" lon="-3.586693">
        <ele>999.41</ele>
        <time>2022-04-17T07:51:31+00:00</time>
      </trkpt>
      <trkpt lat="40.976172" lon="-3.586521">
        <ele>998.45</ele>
        <time>2022-04-17T07:51:32+00:00</time>
      </trkpt>
      <trkpt lat="40.976279" lon="-3.586328">
        <ele>997.49</ele>
        <time>2022-04-17T07:51:33+00:00</time>
      </trkpt>
      <trkpt lat="40.976408" lon="-3.586199">
        <ele>996.52</ele>
        <time>2022-04-17T07:51:34+00:00</time>
      </trkpt>
      <trkpt lat="40.976580" lon="-3.586135">
        <ele>995.56</ele>
        <time>2022-04-17T07:51:35+00:00</time>
      </trkpt>
      <trkpt lat="40.976773" lon="-3.586049">
        <ele>994.60</ele>
        <time>2022-04-17T07:51:36+00:00</time>
      </trkpt>
      <trkpt lat="40.976944" lon="-3.585985">
        <ele>993.64</ele>
        <time>2022-04-17T07:51:37+00:00</time>
      </trkpt>
      <trkpt lat="40.977095" lon="-3.585835">
        <ele>993.16</ele>
        <time>2022-04-17T07:51:38+00:00</time>
      </trkpt>
      <trkpt lat="40.977202" lon="-3.585663">
        <ele>992.68</ele>
        <time>2022-04-17T07:51:39+00:00</time>
      </trkpt>
      <trkpt lat="40.977266" lon="-3.585491">
        <ele>992.68</ele>
        <time>2022-04-17T07:51:40+00:00</time>
      </trkpt>
      <trkpt lat="40.977331" lon="-3.585277">
        <ele>992.68</ele>
        <time>2022-04-17T07:51:41+00:00</time>
      </trkpt>
      <trkpt lat="40.977395" lon="-3.585062">
        <ele>992.68</ele>
        <time>2022-04-17T07:51:42+00:00</time>
      </trkpt>
      <trkpt lat="40.977502" lon="-3.584869">
        <ele>993.16</ele>
        <time>2022-04-17T07:51:43+00:00</time>
      </trkpt>
      <trkpt lat="40.977588" lon="-3.584676">
        <ele>993.64</ele>
        <time>2022-04-17T07:51:44+00:00</time>
      </trkpt>
      <trkpt lat="40.977653" lon="-3.584461">
        <ele>994.12</ele>
        <time>2022-04-17T07:51:45+00:00</time>
      </trkpt>
      <trkpt lat="40.977695" lon="-3.584268">
        <ele>994.60</ele>
        <time>2022-04-17T07:51:46+00:00</time>
      </trkpt>
      <trkpt lat="40.977674" lon="-3.584032">
        <ele>995.08</ele>
        <time>2022-04-17T07:51:47+00:00</time>
      </trkpt>
      <trkpt lat="40.977653" lon="-3.583775">
        <ele>996.04</ele>
        <time>2022-04-17T07:51:48+00:00</time>
      </trkpt>
      <trkpt lat="40.977610" lon="-3.583517">
        <ele>996.04</ele>
        <time>2022-04-17T07:51:49+00:00</time>
      </trkpt>
      <trkpt lat="40.977588" lon="-3.583260">
        <ele>995.56</ele>
        <time>2022-04-17T07:51:50+00:00</time>
      </trkpt>
      <trkpt lat="40.977545" lon="-3.582809">
        <ele>994.60</ele>
        <time>2022-04-17T07:51:52+00:00</time>
      </trkpt>
      <trkpt lat="40.977588" lon="-3.582616">
        <ele>993.64</ele>
        <time>2022-04-17T07:51:53+00:00</time>
      </trkpt>
      <trkpt lat="40.977631" lon="-3.582423">
        <ele>992.68</ele>
        <time>2022-04-17T07:51:54+00:00</time>
      </trkpt>
      <trkpt lat="40.977738" lon="-3.582251">
        <ele>991.72</ele>
        <time>2022-04-17T07:51:55+00:00</time>
      </trkpt>
      <trkpt lat="40.977867" lon="-3.582058">
        <ele>990.76</ele>
        <time>2022-04-17T07:51:56+00:00</time>
      </trkpt>
      <trkpt lat="40.978017" lon="-3.581843">
        <ele>989.31</ele>
        <time>2022-04-17T07:51:57+00:00</time>
      </trkpt>
      <trkpt lat="40.978683" lon="-3.580921">
        <ele>984.99</ele>
        <time>2022-04-17T07:52:02+00:00</time>
      </trkpt>
      <trkpt lat="40.978768" lon="-3.580706">
        <ele>984.99</ele>
        <time>2022-04-17T07:52:03+00:00</time>
      </trkpt>
      <trkpt lat="40.978854" lon="-3.580492">
        <ele>984.99</ele>
        <time>2022-04-17T07:52:04+00:00</time>
      </trkpt>
      <trkpt lat="40.978940" lon="-3.580277">
        <ele>985.47</ele>
        <time>2022-04-17T07:52:05+00:00</time>
      </trkpt>
      <trkpt lat="40.979047" lon="-3.580105">
        <ele>985.95</ele>
        <time>2022-04-17T07:52:06+00:00</time>
      </trkpt>
      <trkpt lat="40.979155" lon="-3.579912">
        <ele>986.43</ele>
        <time>2022-04-17T07:52:07+00:00</time>
      </trkpt>
      <trkpt lat="40.979326" lon="-3.579762">
        <ele>987.39</ele>
        <time>2022-04-17T07:52:08+00:00</time>
      </trkpt>
      <trkpt lat="40.979498" lon="-3.579590">
        <ele>987.87</ele>
        <time>2022-04-17T07:52:09+00:00</time>
      </trkpt>
      <trkpt lat="40.980592" lon="-3.578689">
        <ele>990.28</ele>
        <time>2022-04-17T07:52:15+00:00</time>
      </trkpt>
      <trkpt lat="40.980764" lon="-3.578475">
        <ele>989.80</ele>
        <time>2022-04-17T07:52:16+00:00</time>
      </trkpt>
      <trkpt lat="40.981923" lon="-3.577488">
        <ele>987.87</ele>
        <time>2022-04-17T07:52:22+00:00</time>
      </trkpt>
      <trkpt lat="40.982051" lon="-3.577423">
        <ele>987.87</ele>
        <time>2022-04-17T07:52:23+00:00</time>
      </trkpt>
      <trkpt lat="40.982202" lon="-3.577402">
        <ele>988.35</ele>
        <time>2022-04-17T07:52:24+00:00</time>
      </trkpt>
      <trkpt lat="40.982373" lon="-3.577423">
        <ele>988.35</ele>
        <time>2022-04-17T07:52:25+00:00</time>
      </trkpt>
      <trkpt lat="40.982588" lon="-3.577423">
        <ele>988.35</ele>
        <time>2022-04-17T07:52:26+00:00</time>
      </trkpt>
      <trkpt lat="40.982781" lon="-3.577380">
        <ele>987.87</ele>
        <time>2022-04-17T07:52:27+00:00</time>
      </trkpt>
      <trkpt lat="40.982974" lon="-3.577337">
        <ele>987.87</ele>
        <time>2022-04-17T07:52:28+00:00</time>
      </trkpt>
      <trkpt lat="40.983296" lon="-3.577230">
        <ele>986.91</ele>
        <time>2022-04-17T07:52:30+00:00</time>
      </trkpt>
      <trkpt lat="40.983403" lon="-3.577101">
        <ele>986.91</ele>
        <time>2022-04-17T07:52:31+00:00</time>
      </trkpt>
      <trkpt lat="40.983639" lon="-3.576865">
        <ele>986.43</ele>
        <time>2022-04-17T07:52:33+00:00</time>
      </trkpt>
      <trkpt lat="40.983768" lon="-3.576822">
        <ele>985.47</ele>
        <time>2022-04-17T07:52:34+00:00</time>
      </trkpt>
      <trkpt lat="40.983918" lon="-3.576844">
        <ele>984.99</ele>
        <time>2022-04-17T07:52:35+00:00</time>
      </trkpt>
      <trkpt lat="40.984068" lon="-3.576908">
        <ele>984.03</ele>
        <time>2022-04-17T07:52:36+00:00</time>
      </trkpt>
      <trkpt lat="40.984240" lon="-3.576973">
        <ele>983.07</ele>
        <time>2022-04-17T07:52:37+00:00</time>
      </trkpt>
      <trkpt lat="40.984390" lon="-3.577015">
        <ele>982.11</ele>
        <time>2022-04-17T07:52:38+00:00</time>
      </trkpt>
      <trkpt lat="40.984519" lon="-3.576994">
        <ele>980.66</ele>
        <time>2022-04-17T07:52:39+00:00</time>
      </trkpt>
      <trkpt lat="40.984648" lon="-3.576887">
        <ele>979.70</ele>
        <time>2022-04-17T07:52:40+00:00</time>
      </trkpt>
      <trkpt lat="40.984798" lon="-3.576779">
        <ele>978.26</ele>
        <time>2022-04-17T07:52:41+00:00</time>
      </trkpt>
      <trkpt lat="40.984948" lon="-3.576629">
        <ele>976.82</ele>
        <time>2022-04-17T07:52:42+00:00</time>
      </trkpt>
      <trkpt lat="40.985120" lon="-3.576500">
        <ele>975.86</ele>
        <time>2022-04-17T07:52:43+00:00</time>
      </trkpt>
      <trkpt lat="40.985313" lon="-3.576415">
        <ele>975.38</ele>
        <time>2022-04-17T07:52:44+00:00</time>
      </trkpt>
      <trkpt lat="40.985528" lon="-3.576350">
        <ele>974.41</ele>
        <time>2022-04-17T07:52:45+00:00</time>
      </trkpt>
      <trkpt lat="40.985742" lon="-3.576264">
        <ele>973.45</ele>
        <time>2022-04-17T07:52:46+00:00</time>
      </trkpt>
      <trkpt lat="40.985957" lon="-3.576136">
        <ele>972.49</ele>
        <time>2022-04-17T07:52:47+00:00</time>
      </trkpt>
      <trkpt lat="40.986751" lon="-3.575728">
        <ele>969.13</ele>
        <time>2022-04-17T07:52:51+00:00</time>
      </trkpt>
      <trkpt lat="40.986944" lon="-3.575664">
        <ele>968.65</ele>
        <time>2022-04-17T07:52:52+00:00</time>
      </trkpt>
      <trkpt lat="40.987394" lon="-3.575535">
        <ele>967.20</ele>
        <time>2022-04-17T07:52:54+00:00</time>
      </trkpt>
      <trkpt lat="40.987609" lon="-3.575406">
        <ele>966.24</ele>
        <time>2022-04-17T07:52:55+00:00</time>
      </trkpt>
      <trkpt lat="40.987845" lon="-3.575277">
        <ele>964.80</ele>
        <time>2022-04-17T07:52:56+00:00</time>
      </trkpt>
      <trkpt lat="40.988982" lon="-3.574441">
        <ele>957.11</ele>
        <time>2022-04-17T07:53:02+00:00</time>
      </trkpt>
      <trkpt lat="40.990055" lon="-3.573346">
        <ele>951.34</ele>
        <time>2022-04-17T07:53:10+00:00</time>
      </trkpt>
      <trkpt lat="40.990291" lon="-3.572853">
        <ele>951.34</ele>
        <time>2022-04-17T07:53:13+00:00</time>
      </trkpt>
      <trkpt lat="40.990334" lon="-3.572702">
        <ele>951.34</ele>
        <time>2022-04-17T07:53:14+00:00</time>
      </trkpt>
      <trkpt lat="40.990420" lon="-3.572273">
        <ele>951.34</ele>
        <time>2022-04-17T07:53:17+00:00</time>
      </trkpt>
      <trkpt lat="40.990463" lon="-3.572166">
        <ele>950.86</ele>
        <time>2022-04-17T07:53:18+00:00</time>
      </trkpt>
      <trkpt lat="40.990549" lon="-3.572080">
        <ele>950.86</ele>
        <time>2022-04-17T07:53:19+00:00</time>
      </trkpt>
      <trkpt lat="40.990656" lon="-3.572016">
        <ele>950.38</ele>
        <time>2022-04-17T07:53:20+00:00</time>
      </trkpt>
      <trkpt lat="40.990742" lon="-3.571951">
        <ele>950.38</ele>
        <time>2022-04-17T07:53:21+00:00</time>
      </trkpt>
      <trkpt lat="40.991557" lon="-3.571544">
        <ele>948.46</ele>
        <time>2022-04-17T07:53:31+00:00</time>
      </trkpt>
      <trkpt lat="40.991707" lon="-3.571479">
        <ele>948.46</ele>
        <time>2022-04-17T07:53:39+00:00</time>
      </trkpt>
      <trkpt lat="40.991707" lon="-3.571479">
        <ele>948.46</ele>
        <time>2022-04-17T07:54:29+00:00</time>
      </trkpt>
      <trkpt lat="40.991750" lon="-3.571458">
        <ele>949.42</ele>
        <time>2022-04-17T07:55:07+00:00</time>
      </trkpt>
      <trkpt lat="40.991793" lon="-3.571458">
        <ele>949.42</ele>
        <time>2022-04-17T07:55:08+00:00</time>
      </trkpt>
      <trkpt lat="40.991858" lon="-3.571479">
        <ele>949.90</ele>
        <time>2022-04-17T07:55:09+00:00</time>
      </trkpt>
      <trkpt lat="40.991922" lon="-3.571479">
        <ele>949.90</ele>
        <time>2022-04-17T07:55:10+00:00</time>
      </trkpt>
      <trkpt lat="40.991965" lon="-3.571479">
        <ele>950.38</ele>
        <time>2022-04-17T07:55:11+00:00</time>
      </trkpt>
      <trkpt lat="40.992716" lon="-3.571522">
        <ele>952.30</ele>
        <time>2022-04-17T07:55:21+00:00</time>
      </trkpt>
      <trkpt lat="40.993360" lon="-3.571286">
        <ele>952.79</ele>
        <time>2022-04-17T07:55:31+00:00</time>
      </trkpt>
      <trkpt lat="40.993681" lon="-3.570964">
        <ele>952.30</ele>
        <time>2022-04-17T07:55:36+00:00</time>
      </trkpt>
      <trkpt lat="40.993746" lon="-3.570879">
        <ele>952.30</ele>
        <time>2022-04-17T07:55:37+00:00</time>
      </trkpt>
      <trkpt lat="40.993810" lon="-3.570750">
        <ele>952.30</ele>
        <time>2022-04-17T07:55:38+00:00</time>
      </trkpt>
      <trkpt lat="40.993853" lon="-3.570643">
        <ele>952.30</ele>
        <time>2022-04-17T07:55:39+00:00</time>
      </trkpt>
      <trkpt lat="40.993896" lon="-3.570557">
        <ele>952.30</ele>
        <time>2022-04-17T07:55:40+00:00</time>
      </trkpt>
      <trkpt lat="40.993939" lon="-3.570471">
        <ele>952.30</ele>
        <time>2022-04-17T07:55:41+00:00</time>
      </trkpt>
      <trkpt lat="40.993960" lon="-3.570406">
        <ele>952.30</ele>
        <time>2022-04-17T07:55:42+00:00</time>
      </trkpt>
      <trkpt lat="40.994003" lon="-3.570364">
        <ele>952.30</ele>
        <time>2022-04-17T07:55:43+00:00</time>
      </trkpt>
      <trkpt lat="40.994046" lon="-3.570342">
        <ele>952.30</ele>
        <time>2022-04-17T07:55:44+00:00</time>
      </trkpt>
      <trkpt lat="40.994111" lon="-3.570342">
        <ele>952.30</ele>
        <time>2022-04-17T07:55:45+00:00</time>
      </trkpt>
      <trkpt lat="40.994218" lon="-3.570364">
        <ele>952.30</ele>
        <time>2022-04-17T07:55:46+00:00</time>
      </trkpt>
      <trkpt lat="40.994347" lon="-3.570385">
        <ele>952.79</ele>
        <time>2022-04-17T07:55:47+00:00</time>
      </trkpt>
      <trkpt lat="40.994497" lon="-3.570321">
        <ele>953.75</ele>
        <time>2022-04-17T07:55:48+00:00</time>
      </trkpt>
      <trkpt lat="40.994626" lon="-3.570256">
        <ele>955.19</ele>
        <time>2022-04-17T07:55:49+00:00</time>
      </trkpt>
      <trkpt lat="40.995527" lon="-3.569634">
        <ele>959.03</ele>
        <time>2022-04-17T07:55:55+00:00</time>
      </trkpt>
      <trkpt lat="40.995849" lon="-3.569419">
        <ele>960.96</ele>
        <time>2022-04-17T07:55:57+00:00</time>
      </trkpt>
      <trkpt lat="40.996020" lon="-3.569334">
        <ele>962.40</ele>
        <time>2022-04-17T07:55:58+00:00</time>
      </trkpt>
      <trkpt lat="40.996213" lon="-3.569291">
        <ele>963.36</ele>
        <time>2022-04-17T07:55:59+00:00</time>
      </trkpt>
      <trkpt lat="40.997973" lon="-3.569076">
        <ele>977.78</ele>
        <time>2022-04-17T07:56:07+00:00</time>
      </trkpt>
      <trkpt lat="40.998574" lon="-3.569033">
        <ele>983.07</ele>
        <time>2022-04-17T07:56:10+00:00</time>
      </trkpt>
      <trkpt lat="40.998788" lon="-3.569076">
        <ele>984.51</ele>
        <time>2022-04-17T07:56:11+00:00</time>
      </trkpt>
      <trkpt lat="40.998981" lon="-3.569140">
        <ele>985.95</ele>
        <time>2022-04-17T07:56:12+00:00</time>
      </trkpt>
      <trkpt lat="40.999196" lon="-3.569248">
        <ele>986.91</ele>
        <time>2022-04-17T07:56:13+00:00</time>
      </trkpt>
      <trkpt lat="40.999411" lon="-3.569355">
        <ele>987.87</ele>
        <time>2022-04-17T07:56:14+00:00</time>
      </trkpt>
      <trkpt lat="41.000848" lon="-3.570020">
        <ele>996.04</ele>
        <time>2022-04-17T07:56:21+00:00</time>
      </trkpt>
      <trkpt lat="41.000977" lon="-3.570020">
        <ele>997.49</ele>
        <time>2022-04-17T07:56:22+00:00</time>
      </trkpt>
      <trkpt lat="41.001106" lon="-3.569956">
        <ele>998.93</ele>
        <time>2022-04-17T07:56:23+00:00</time>
      </trkpt>
      <trkpt lat="41.001235" lon="-3.569849">
        <ele>1000.85</ele>
        <time>2022-04-17T07:56:24+00:00</time>
      </trkpt>
      <trkpt lat="41.001363" lon="-3.569720">
        <ele>1003.25</ele>
        <time>2022-04-17T07:56:25+00:00</time>
      </trkpt>
      <trkpt lat="41.001513" lon="-3.569570">
        <ele>1005.18</ele>
        <time>2022-04-17T07:56:26+00:00</time>
      </trkpt>
      <trkpt lat="41.001621" lon="-3.569398">
        <ele>1007.10</ele>
        <time>2022-04-17T07:56:27+00:00</time>
      </trkpt>
      <trkpt lat="41.002028" lon="-3.568819">
        <ele>1011.91</ele>
        <time>2022-04-17T07:56:30+00:00</time>
      </trkpt>
      <trkpt lat="41.002179" lon="-3.568625">
        <ele>1012.87</ele>
        <time>2022-04-17T07:56:31+00:00</time>
      </trkpt>
      <trkpt lat="41.002372" lon="-3.568432">
        <ele>1014.31</ele>
        <time>2022-04-17T07:56:32+00:00</time>
      </trkpt>
      <trkpt lat="41.003852" lon="-3.567102">
        <ele>1020.56</ele>
        <time>2022-04-17T07:56:40+00:00</time>
      </trkpt>
      <trkpt lat="41.004882" lon="-3.566287">
        <ele>1014.31</ele>
        <time>2022-04-17T07:56:46+00:00</time>
      </trkpt>
      <trkpt lat="41.005033" lon="-3.566179">
        <ele>1012.87</ele>
        <time>2022-04-17T07:56:47+00:00</time>
      </trkpt>
      <trkpt lat="41.005226" lon="-3.566136">
        <ele>1011.43</ele>
        <time>2022-04-17T07:56:48+00:00</time>
      </trkpt>
      <trkpt lat="41.005419" lon="-3.566115">
        <ele>1009.98</ele>
        <time>2022-04-17T07:56:49+00:00</time>
      </trkpt>
      <trkpt lat="41.005633" lon="-3.566158">
        <ele>1008.54</ele>
        <time>2022-04-17T07:56:50+00:00</time>
      </trkpt>
      <trkpt lat="41.005848" lon="-3.566179">
        <ele>1007.10</ele>
        <time>2022-04-17T07:56:51+00:00</time>
      </trkpt>
      <trkpt lat="41.006084" lon="-3.566201">
        <ele>1005.66</ele>
        <time>2022-04-17T07:56:52+00:00</time>
      </trkpt>
      <trkpt lat="41.006299" lon="-3.566179">
        <ele>1004.22</ele>
        <time>2022-04-17T07:56:53+00:00</time>
      </trkpt>
      <trkpt lat="41.006878" lon="-3.566072">
        <ele>1001.81</ele>
        <time>2022-04-17T07:56:56+00:00</time>
      </trkpt>
      <trkpt lat="41.007028" lon="-3.565965">
        <ele>1001.33</ele>
        <time>2022-04-17T07:56:57+00:00</time>
      </trkpt>
      <trkpt lat="41.007178" lon="-3.565857">
        <ele>1000.85</ele>
        <time>2022-04-17T07:56:58+00:00</time>
      </trkpt>
      <trkpt lat="41.007329" lon="-3.565686">
        <ele>1000.37</ele>
        <time>2022-04-17T07:56:59+00:00</time>
      </trkpt>
      <trkpt lat="41.007457" lon="-3.565493">
        <ele>999.89</ele>
        <time>2022-04-17T07:57:00+00:00</time>
      </trkpt>
      <trkpt lat="41.007607" lon="-3.565300">
        <ele>999.41</ele>
        <time>2022-04-17T07:57:01+00:00</time>
      </trkpt>
      <trkpt lat="41.007972" lon="-3.564870">
        <ele>997.97</ele>
        <time>2022-04-17T07:57:04+00:00</time>
      </trkpt>
      <trkpt lat="41.008101" lon="-3.564806">
        <ele>997.49</ele>
        <time>2022-04-17T07:57:05+00:00</time>
      </trkpt>
      <trkpt lat="41.008251" lon="-3.564763">
        <ele>996.52</ele>
        <time>2022-04-17T07:57:06+00:00</time>
      </trkpt>
      <trkpt lat="41.008423" lon="-3.564720">
        <ele>995.56</ele>
        <time>2022-04-17T07:57:07+00:00</time>
      </trkpt>
      <trkpt lat="41.008595" lon="-3.564656">
        <ele>994.60</ele>
        <time>2022-04-17T07:57:08+00:00</time>
      </trkpt>
      <trkpt lat="41.008788" lon="-3.564549">
        <ele>994.12</ele>
        <time>2022-04-17T07:57:09+00:00</time>
      </trkpt>
      <trkpt lat="41.008981" lon="-3.564420">
        <ele>994.12</ele>
        <time>2022-04-17T07:57:10+00:00</time>
      </trkpt>
      <trkpt lat="41.009989" lon="-3.563840">
        <ele>993.16</ele>
        <time>2022-04-17T07:57:16+00:00</time>
      </trkpt>
      <trkpt lat="41.010075" lon="-3.563733">
        <ele>993.16</ele>
        <time>2022-04-17T07:57:17+00:00</time>
      </trkpt>
      <trkpt lat="41.010139" lon="-3.563604">
        <ele>993.16</ele>
        <time>2022-04-17T07:57:18+00:00</time>
      </trkpt>
      <trkpt lat="41.010161" lon="-3.563411">
        <ele>993.16</ele>
        <time>2022-04-17T07:57:19+00:00</time>
      </trkpt>
      <trkpt lat="41.010161" lon="-3.563218">
        <ele>993.64</ele>
        <time>2022-04-17T07:57:20+00:00</time>
      </trkpt>
      <trkpt lat="41.010139" lon="-3.563025">
        <ele>994.12</ele>
        <time>2022-04-17T07:57:21+00:00</time>
      </trkpt>
      <trkpt lat="41.010118" lon="-3.562853">
        <ele>994.60</ele>
        <time>2022-04-17T07:57:22+00:00</time>
      </trkpt>
      <trkpt lat="41.010097" lon="-3.562703">
        <ele>995.08</ele>
        <time>2022-04-17T07:57:23+00:00</time>
      </trkpt>
      <trkpt lat="41.010032" lon="-3.562446">
        <ele>997.01</ele>
        <time>2022-04-17T07:57:27+00:00</time>
      </trkpt>
      <trkpt lat="41.010032" lon="-3.562403">
        <ele>997.49</ele>
        <time>2022-04-17T07:57:28+00:00</time>
      </trkpt>
      <trkpt lat="41.010075" lon="-3.562381">
        <ele>997.49</ele>
        <time>2022-04-17T07:57:29+00:00</time>
      </trkpt>
      <trkpt lat="41.010139" lon="-3.562338">
        <ele>997.97</ele>
        <time>2022-04-17T07:57:30+00:00</time>
      </trkpt>
      <trkpt lat="41.010247" lon="-3.562274">
        <ele>998.45</ele>
        <time>2022-04-17T07:57:31+00:00</time>
      </trkpt>
      <trkpt lat="41.010333" lon="-3.562231">
        <ele>999.41</ele>
        <time>2022-04-17T07:57:32+00:00</time>
      </trkpt>
      <trkpt lat="41.011234" lon="-3.561673">
        <ele>1006.62</ele>
        <time>2022-04-17T07:57:38+00:00</time>
      </trkpt>
      <trkpt lat="41.012693" lon="-3.560772">
        <ele>1016.23</ele>
        <time>2022-04-17T07:57:45+00:00</time>
      </trkpt>
      <trkpt lat="41.014688" lon="-3.559527">
        <ele>1031.13</ele>
        <time>2022-04-17T07:57:53+00:00</time>
      </trkpt>
      <trkpt lat="41.017263" lon="-3.558068">
        <ele>1053.72</ele>
        <time>2022-04-17T07:58:03+00:00</time>
      </trkpt>
      <trkpt lat="41.020375" lon="-3.556995">
        <ele>1069.10</ele>
        <time>2022-04-17T07:58:14+00:00</time>
      </trkpt>
      <trkpt lat="41.021019" lon="-3.556716">
        <ele>1072.95</ele>
        <time>2022-04-17T07:58:17+00:00</time>
      </trkpt>
      <trkpt lat="41.021212" lon="-3.556545">
        <ele>1073.91</ele>
        <time>2022-04-17T07:58:18+00:00</time>
      </trkpt>
      <trkpt lat="41.021405" lon="-3.556352">
        <ele>1074.87</ele>
        <time>2022-04-17T07:58:19+00:00</time>
      </trkpt>
      <trkpt lat="41.022993" lon="-3.554356">
        <ele>1077.28</ele>
        <time>2022-04-17T07:58:27+00:00</time>
      </trkpt>
      <trkpt lat="41.023851" lon="-3.553455">
        <ele>1076.31</ele>
        <time>2022-04-17T07:58:31+00:00</time>
      </trkpt>
      <trkpt lat="41.024065" lon="-3.553262">
        <ele>1077.28</ele>
        <time>2022-04-17T07:58:32+00:00</time>
      </trkpt>
      <trkpt lat="41.024945" lon="-3.552640">
        <ele>1079.68</ele>
        <time>2022-04-17T07:58:36+00:00</time>
      </trkpt>
      <trkpt lat="41.025138" lon="-3.552425">
        <ele>1080.16</ele>
        <time>2022-04-17T07:58:37+00:00</time>
      </trkpt>
      <trkpt lat="41.025310" lon="-3.552210">
        <ele>1080.64</ele>
        <time>2022-04-17T07:58:38+00:00</time>
      </trkpt>
      <trkpt lat="41.025482" lon="-3.551974">
        <ele>1080.64</ele>
        <time>2022-04-17T07:58:39+00:00</time>
      </trkpt>
      <trkpt lat="41.025632" lon="-3.551717">
        <ele>1080.64</ele>
        <time>2022-04-17T07:58:40+00:00</time>
      </trkpt>
      <trkpt lat="41.026061" lon="-3.551137">
        <ele>1082.08</ele>
        <time>2022-04-17T07:58:43+00:00</time>
      </trkpt>
      <trkpt lat="41.026233" lon="-3.551009">
        <ele>1082.56</ele>
        <time>2022-04-17T07:58:44+00:00</time>
      </trkpt>
      <trkpt lat="41.026404" lon="-3.550880">
        <ele>1083.04</ele>
        <time>2022-04-17T07:58:45+00:00</time>
      </trkpt>
      <trkpt lat="41.026619" lon="-3.550816">
        <ele>1083.52</ele>
        <time>2022-04-17T07:58:46+00:00</time>
      </trkpt>
      <trkpt lat="41.026834" lon="-3.550751">
        <ele>1084.00</ele>
        <time>2022-04-17T07:58:47+00:00</time>
      </trkpt>
      <trkpt lat="41.028851" lon="-3.550043">
        <ele>1087.37</ele>
        <time>2022-04-17T07:58:55+00:00</time>
      </trkpt>
      <trkpt lat="41.029795" lon="-3.549593">
        <ele>1087.85</ele>
        <time>2022-04-17T07:58:59+00:00</time>
      </trkpt>
      <trkpt lat="41.029988" lon="-3.549421">
        <ele>1088.33</ele>
        <time>2022-04-17T07:59:00+00:00</time>
      </trkpt>
      <trkpt lat="41.030159" lon="-3.549228">
        <ele>1088.33</ele>
        <time>2022-04-17T07:59:01+00:00</time>
      </trkpt>
      <trkpt lat="41.030610" lon="-3.548756">
        <ele>1089.77</ele>
        <time>2022-04-17T07:59:04+00:00</time>
      </trkpt>
      <trkpt lat="41.030760" lon="-3.548691">
        <ele>1090.25</ele>
        <time>2022-04-17T07:59:05+00:00</time>
      </trkpt>
      <trkpt lat="41.030910" lon="-3.548648">
        <ele>1090.25</ele>
        <time>2022-04-17T07:59:06+00:00</time>
      </trkpt>
      <trkpt lat="41.031232" lon="-3.548605">
        <ele>1090.25</ele>
        <time>2022-04-17T07:59:08+00:00</time>
      </trkpt>
      <trkpt lat="41.031383" lon="-3.548563">
        <ele>1089.29</ele>
        <time>2022-04-17T07:59:09+00:00</time>
      </trkpt>
      <trkpt lat="41.031533" lon="-3.548434">
        <ele>1087.85</ele>
        <time>2022-04-17T07:59:10+00:00</time>
      </trkpt>
      <trkpt lat="41.031919" lon="-3.548176">
        <ele>1084.97</ele>
        <time>2022-04-17T07:59:12+00:00</time>
      </trkpt>
      <trkpt lat="41.032112" lon="-3.548090">
        <ele>1083.52</ele>
        <time>2022-04-17T07:59:13+00:00</time>
      </trkpt>
      <trkpt lat="41.032627" lon="-3.547854">
        <ele>1079.68</ele>
        <time>2022-04-17T07:59:16+00:00</time>
      </trkpt>
      <trkpt lat="41.032734" lon="-3.547747">
        <ele>1077.76</ele>
        <time>2022-04-17T07:59:17+00:00</time>
      </trkpt>
      <trkpt lat="41.032863" lon="-3.547576">
        <ele>1076.31</ele>
        <time>2022-04-17T07:59:18+00:00</time>
      </trkpt>
      <trkpt lat="41.032970" lon="-3.547425">
        <ele>1074.87</ele>
        <time>2022-04-17T07:59:19+00:00</time>
      </trkpt>
      <trkpt lat="41.033056" lon="-3.547211">
        <ele>1073.43</ele>
        <time>2022-04-17T07:59:20+00:00</time>
      </trkpt>
      <trkpt lat="41.033121" lon="-3.546996">
        <ele>1071.99</ele>
        <time>2022-04-17T07:59:21+00:00</time>
      </trkpt>
      <trkpt lat="41.033164" lon="-3.546717">
        <ele>1070.55</ele>
        <time>2022-04-17T07:59:22+00:00</time>
      </trkpt>
      <trkpt lat="41.033206" lon="-3.546417">
        <ele>1069.10</ele>
        <time>2022-04-17T07:59:23+00:00</time>
      </trkpt>
      <trkpt lat="41.033271" lon="-3.545451">
        <ele>1064.78</ele>
        <time>2022-04-17T07:59:27+00:00</time>
      </trkpt>
      <trkpt lat="41.033228" lon="-3.545258">
        <ele>1063.82</ele>
        <time>2022-04-17T07:59:28+00:00</time>
      </trkpt>
      <trkpt lat="41.033185" lon="-3.544958">
        <ele>1061.41</ele>
        <time>2022-04-17T07:59:30+00:00</time>
      </trkpt>
      <trkpt lat="41.033206" lon="-3.544829">
        <ele>1059.97</ele>
        <time>2022-04-17T07:59:31+00:00</time>
      </trkpt>
      <trkpt lat="41.033271" lon="-3.544743">
        <ele>1058.53</ele>
        <time>2022-04-17T07:59:32+00:00</time>
      </trkpt>
      <trkpt lat="41.033357" lon="-3.544700">
        <ele>1058.05</ele>
        <time>2022-04-17T07:59:33+00:00</time>
      </trkpt>
      <trkpt lat="41.033485" lon="-3.544679">
        <ele>1057.57</ele>
        <time>2022-04-17T07:59:34+00:00</time>
      </trkpt>
      <trkpt lat="41.033657" lon="-3.544700">
        <ele>1057.09</ele>
        <time>2022-04-17T07:59:35+00:00</time>
      </trkpt>
      <trkpt lat="41.033850" lon="-3.544722">
        <ele>1057.09</ele>
        <time>2022-04-17T07:59:36+00:00</time>
      </trkpt>
      <trkpt lat="41.034022" lon="-3.544700">
        <ele>1056.61</ele>
        <time>2022-04-17T07:59:37+00:00</time>
      </trkpt>
      <trkpt lat="41.034172" lon="-3.544679">
        <ele>1055.65</ele>
        <time>2022-04-17T07:59:38+00:00</time>
      </trkpt>
      <trkpt lat="41.034322" lon="-3.544614">
        <ele>1055.16</ele>
        <time>2022-04-17T07:59:39+00:00</time>
      </trkpt>
      <trkpt lat="41.034430" lon="-3.544464">
        <ele>1054.68</ele>
        <time>2022-04-17T07:59:40+00:00</time>
      </trkpt>
      <trkpt lat="41.034515" lon="-3.544250">
        <ele>1054.20</ele>
        <time>2022-04-17T07:59:41+00:00</time>
      </trkpt>
      <trkpt lat="41.034601" lon="-3.544035">
        <ele>1053.72</ele>
        <time>2022-04-17T07:59:42+00:00</time>
      </trkpt>
      <trkpt lat="41.034816" lon="-3.543563">
        <ele>1052.28</ele>
        <time>2022-04-17T07:59:45+00:00</time>
      </trkpt>
      <trkpt lat="41.034902" lon="-3.543456">
        <ele>1051.80</ele>
        <time>2022-04-17T07:59:46+00:00</time>
      </trkpt>
      <trkpt lat="41.034987" lon="-3.543391">
        <ele>1051.32</ele>
        <time>2022-04-17T07:59:47+00:00</time>
      </trkpt>
      <trkpt lat="41.035073" lon="-3.543413">
        <ele>1050.84</ele>
        <time>2022-04-17T07:59:48+00:00</time>
      </trkpt>
      <trkpt lat="41.035181" lon="-3.543434">
        <ele>1050.84</ele>
        <time>2022-04-17T07:59:49+00:00</time>
      </trkpt>
      <trkpt lat="41.035245" lon="-3.543584">
        <ele>1051.32</ele>
        <time>2022-04-17T07:59:50+00:00</time>
      </trkpt>
      <trkpt lat="41.035288" lon="-3.543735">
        <ele>1051.80</ele>
        <time>2022-04-17T07:59:51+00:00</time>
      </trkpt>
      <trkpt lat="41.035266" lon="-3.543906">
        <ele>1052.28</ele>
        <time>2022-04-17T07:59:52+00:00</time>
      </trkpt>
      <trkpt lat="41.035245" lon="-3.544056">
        <ele>1052.76</ele>
        <time>2022-04-17T07:59:53+00:00</time>
      </trkpt>
      <trkpt lat="41.035202" lon="-3.544207">
        <ele>1053.72</ele>
        <time>2022-04-17T07:59:54+00:00</time>
      </trkpt>
      <trkpt lat="41.035202" lon="-3.544357">
        <ele>1054.68</ele>
        <time>2022-04-17T07:59:55+00:00</time>
      </trkpt>
      <trkpt lat="41.035223" lon="-3.544507">
        <ele>1055.65</ele>
        <time>2022-04-17T07:59:56+00:00</time>
      </trkpt>
      <trkpt lat="41.035245" lon="-3.544657">
        <ele>1056.61</ele>
        <time>2022-04-17T07:59:57+00:00</time>
      </trkpt>
      <trkpt lat="41.035288" lon="-3.544765">
        <ele>1057.09</ele>
        <time>2022-04-17T07:59:58+00:00</time>
      </trkpt>
      <trkpt lat="41.035331" lon="-3.544807">
        <ele>1058.05</ele>
        <time>2022-04-17T07:59:59+00:00</time>
      </trkpt>
      <trkpt lat="41.035352" lon="-3.544850">
        <ele>1059.01</ele>
        <time>2022-04-17T08:00:00+00:00</time>
      </trkpt>
      <trkpt lat="41.035374" lon="-3.544893">
        <ele>1059.49</ele>
        <time>2022-04-17T08:00:01+00:00</time>
      </trkpt>
      <trkpt lat="41.035460" lon="-3.544958">
        <ele>1060.45</ele>
        <time>2022-04-17T08:00:02+00:00</time>
      </trkpt>
      <trkpt lat="41.035481" lon="-3.544893">
        <ele>1061.41</ele>
        <time>2022-04-17T08:00:03+00:00</time>
      </trkpt>
      <trkpt lat="41.035545" lon="-3.544807">
        <ele>1062.86</ele>
        <time>2022-04-17T08:00:04+00:00</time>
      </trkpt>
      <trkpt lat="41.035610" lon="-3.544700">
        <ele>1063.34</ele>
        <time>2022-04-17T08:00:05+00:00</time>
      </trkpt>
      <trkpt lat="41.035653" lon="-3.544593">
        <ele>1064.30</ele>
        <time>2022-04-17T08:00:06+00:00</time>
      </trkpt>
      <trkpt lat="41.035738" lon="-3.544464">
        <ele>1065.74</ele>
        <time>2022-04-17T08:00:07+00:00</time>
      </trkpt>
      <trkpt lat="41.036017" lon="-3.543778">
        <ele>1070.55</ele>
        <time>2022-04-17T08:00:11+00:00</time>
      </trkpt>
      <trkpt lat="41.036060" lon="-3.543541">
        <ele>1071.99</ele>
        <time>2022-04-17T08:00:12+00:00</time>
      </trkpt>
      <trkpt lat="41.036082" lon="-3.543305">
        <ele>1073.91</ele>
        <time>2022-04-17T08:00:13+00:00</time>
      </trkpt>
      <trkpt lat="41.036125" lon="-3.543091">
        <ele>1074.87</ele>
        <time>2022-04-17T08:00:14+00:00</time>
      </trkpt>
      <trkpt lat="41.036146" lon="-3.542876">
        <ele>1076.79</ele>
        <time>2022-04-17T08:00:15+00:00</time>
      </trkpt>
      <trkpt lat="41.036232" lon="-3.542683">
        <ele>1078.24</ele>
        <time>2022-04-17T08:00:16+00:00</time>
      </trkpt>
      <trkpt lat="41.036318" lon="-3.542469">
        <ele>1079.68</ele>
        <time>2022-04-17T08:00:17+00:00</time>
      </trkpt>
      <trkpt lat="41.036425" lon="-3.542254">
        <ele>1080.64</ele>
        <time>2022-04-17T08:00:18+00:00</time>
      </trkpt>
      <trkpt lat="41.036962" lon="-3.541181">
        <ele>1086.89</ele>
        <time>2022-04-17T08:00:23+00:00</time>
      </trkpt>
      <trkpt lat="41.037090" lon="-3.541031">
        <ele>1087.85</ele>
        <time>2022-04-17T08:00:24+00:00</time>
      </trkpt>
      <trkpt lat="41.037283" lon="-3.540902">
        <ele>1089.29</ele>
        <time>2022-04-17T08:00:25+00:00</time>
      </trkpt>
      <trkpt lat="41.037477" lon="-3.540795">
        <ele>1090.25</ele>
        <time>2022-04-17T08:00:26+00:00</time>
      </trkpt>
      <trkpt lat="41.037691" lon="-3.540709">
        <ele>1092.18</ele>
        <time>2022-04-17T08:00:27+00:00</time>
      </trkpt>
      <trkpt lat="41.037927" lon="-3.540623">
        <ele>1093.62</ele>
        <time>2022-04-17T08:00:28+00:00</time>
      </trkpt>
      <trkpt lat="41.038142" lon="-3.540602">
        <ele>1095.54</ele>
        <time>2022-04-17T08:00:29+00:00</time>
      </trkpt>
      <trkpt lat="41.038356" lon="-3.540580">
        <ele>1096.98</ele>
        <time>2022-04-17T08:00:30+00:00</time>
      </trkpt>
      <trkpt lat="41.039558" lon="-3.540494">
        <ele>1106.59</ele>
        <time>2022-04-17T08:00:37+00:00</time>
      </trkpt>
      <trkpt lat="41.040781" lon="-3.540452">
        <ele>1115.25</ele>
        <time>2022-04-17T08:00:45+00:00</time>
      </trkpt>
      <trkpt lat="41.041532" lon="-3.540666">
        <ele>1116.69</ele>
        <time>2022-04-17T08:00:51+00:00</time>
      </trkpt>
      <trkpt lat="41.042648" lon="-3.540752">
        <ele>1115.25</ele>
        <time>2022-04-17T08:01:01+00:00</time>
      </trkpt>
      <trkpt lat="41.043249" lon="-3.540666">
        <ele>1114.77</ele>
        <time>2022-04-17T08:01:07+00:00</time>
      </trkpt>
      <trkpt lat="41.043313" lon="-3.540602">
        <ele>1114.77</ele>
        <time>2022-04-17T08:01:08+00:00</time>
      </trkpt>
      <trkpt lat="41.043399" lon="-3.540494">
        <ele>1114.77</ele>
        <time>2022-04-17T08:01:09+00:00</time>
      </trkpt>
      <trkpt lat="41.043463" lon="-3.540387">
        <ele>1114.77</ele>
        <time>2022-04-17T08:01:10+00:00</time>
      </trkpt>
      <trkpt lat="41.043528" lon="-3.540258">
        <ele>1115.25</ele>
        <time>2022-04-17T08:01:11+00:00</time>
      </trkpt>
      <trkpt lat="41.043571" lon="-3.540151">
        <ele>1115.25</ele>
        <time>2022-04-17T08:01:12+00:00</time>
      </trkpt>
      <trkpt lat="41.043635" lon="-3.540044">
        <ele>1115.73</ele>
        <time>2022-04-17T08:01:13+00:00</time>
      </trkpt>
      <trkpt lat="41.043699" lon="-3.539915">
        <ele>1115.73</ele>
        <time>2022-04-17T08:01:14+00:00</time>
      </trkpt>
      <trkpt lat="41.043871" lon="-3.539550">
        <ele>1116.69</ele>
        <time>2022-04-17T08:01:17+00:00</time>
      </trkpt>
      <trkpt lat="41.043935" lon="-3.539422">
        <ele>1117.17</ele>
        <time>2022-04-17T08:01:18+00:00</time>
      </trkpt>
      <trkpt lat="41.043957" lon="-3.539271">
        <ele>1117.65</ele>
        <time>2022-04-17T08:01:19+00:00</time>
      </trkpt>
      <trkpt lat="41.043978" lon="-3.539143">
        <ele>1118.13</ele>
        <time>2022-04-17T08:01:20+00:00</time>
      </trkpt>
      <trkpt lat="41.043978" lon="-3.539014">
        <ele>1118.61</ele>
        <time>2022-04-17T08:01:21+00:00</time>
      </trkpt>
      <trkpt lat="41.044000" lon="-3.538864">
        <ele>1118.61</ele>
        <time>2022-04-17T08:01:22+00:00</time>
      </trkpt>
      <trkpt lat="41.043978" lon="-3.537662">
        <ele>1120.53</ele>
        <time>2022-04-17T08:01:31+00:00</time>
      </trkpt>
      <trkpt lat="41.044021" lon="-3.536460">
        <ele>1121.98</ele>
        <time>2022-04-17T08:01:39+00:00</time>
      </trkpt>
      <trkpt lat="41.044322" lon="-3.535194">
        <ele>1121.98</ele>
        <time>2022-04-17T08:01:46+00:00</time>
      </trkpt>
      <trkpt lat="41.044643" lon="-3.533821">
        <ele>1122.46</ele>
        <time>2022-04-17T08:01:53+00:00</time>
      </trkpt>
      <trkpt lat="41.044922" lon="-3.531461">
        <ele>1130.15</ele>
        <time>2022-04-17T08:02:02+00:00</time>
      </trkpt>
      <trkpt lat="41.044944" lon="-3.530109">
        <ele>1137.84</ele>
        <time>2022-04-17T08:02:07+00:00</time>
      </trkpt>
      <trkpt lat="41.044965" lon="-3.529830">
        <ele>1139.28</ele>
        <time>2022-04-17T08:02:08+00:00</time>
      </trkpt>
      <trkpt lat="41.045201" lon="-3.528714">
        <ele>1146.97</ele>
        <time>2022-04-17T08:02:13+00:00</time>
      </trkpt>
      <trkpt lat="41.045287" lon="-3.528543">
        <ele>1147.93</ele>
        <time>2022-04-17T08:02:14+00:00</time>
      </trkpt>
      <trkpt lat="41.045416" lon="-3.528392">
        <ele>1148.89</ele>
        <time>2022-04-17T08:02:15+00:00</time>
      </trkpt>
      <trkpt lat="41.046467" lon="-3.527427">
        <ele>1154.18</ele>
        <time>2022-04-17T08:02:21+00:00</time>
      </trkpt>
      <trkpt lat="41.047819" lon="-3.526268">
        <ele>1158.03</ele>
        <time>2022-04-17T08:02:28+00:00</time>
      </trkpt>
      <trkpt lat="41.048120" lon="-3.525989">
        <ele>1158.51</ele>
        <time>2022-04-17T08:02:30+00:00</time>
      </trkpt>
      <trkpt lat="41.048205" lon="-3.525817">
        <ele>1158.99</ele>
        <time>2022-04-17T08:02:31+00:00</time>
      </trkpt>
      <trkpt lat="41.048270" lon="-3.525624">
        <ele>1159.47</ele>
        <time>2022-04-17T08:02:32+00:00</time>
      </trkpt>
      <trkpt lat="41.048313" lon="-3.525410">
        <ele>1159.47</ele>
        <time>2022-04-17T08:02:33+00:00</time>
      </trkpt>
      <trkpt lat="41.048334" lon="-3.525174">
        <ele>1159.95</ele>
        <time>2022-04-17T08:02:34+00:00</time>
      </trkpt>
      <trkpt lat="41.048420" lon="-3.524659">
        <ele>1160.91</ele>
        <time>2022-04-17T08:02:36+00:00</time>
      </trkpt>
      <trkpt lat="41.048484" lon="-3.524358">
        <ele>1161.39</ele>
        <time>2022-04-17T08:02:37+00:00</time>
      </trkpt>
      <trkpt lat="41.048592" lon="-3.524101">
        <ele>1161.87</ele>
        <time>2022-04-17T08:02:38+00:00</time>
      </trkpt>
      <trkpt lat="41.049364" lon="-3.522041">
        <ele>1167.64</ele>
        <time>2022-04-17T08:02:45+00:00</time>
      </trkpt>
      <trkpt lat="41.050523" lon="-3.518994">
        <ele>1170.52</ele>
        <time>2022-04-17T08:02:55+00:00</time>
      </trkpt>
      <trkpt lat="41.050587" lon="-3.518736">
        <ele>1171.48</ele>
        <time>2022-04-17T08:02:56+00:00</time>
      </trkpt>
      <trkpt lat="41.050630" lon="-3.518479">
        <ele>1172.44</ele>
        <time>2022-04-17T08:02:57+00:00</time>
      </trkpt>
      <trkpt lat="41.050630" lon="-3.518200">
        <ele>1173.41</ele>
        <time>2022-04-17T08:02:58+00:00</time>
      </trkpt>
      <trkpt lat="41.050609" lon="-3.517921">
        <ele>1174.37</ele>
        <time>2022-04-17T08:02:59+00:00</time>
      </trkpt>
      <trkpt lat="41.050609" lon="-3.517621">
        <ele>1175.33</ele>
        <time>2022-04-17T08:03:00+00:00</time>
      </trkpt>
      <trkpt lat="41.050523" lon="-3.515067">
        <ele>1189.27</ele>
        <time>2022-04-17T08:03:08+00:00</time>
      </trkpt>
      <trkpt lat="41.050780" lon="-3.512900">
        <ele>1197.92</ele>
        <time>2022-04-17T08:03:15+00:00</time>
      </trkpt>
      <trkpt lat="41.051403" lon="-3.509145">
        <ele>1209.46</ele>
        <time>2022-04-17T08:03:26+00:00</time>
      </trkpt>
      <trkpt lat="41.051767" lon="-3.506720">
        <ele>1225.32</ele>
        <time>2022-04-17T08:03:34+00:00</time>
      </trkpt>
      <trkpt lat="41.051767" lon="-3.506484">
        <ele>1227.24</ele>
        <time>2022-04-17T08:03:35+00:00</time>
      </trkpt>
      <trkpt lat="41.051724" lon="-3.506269">
        <ele>1229.16</ele>
        <time>2022-04-17T08:03:36+00:00</time>
      </trkpt>
      <trkpt lat="41.051639" lon="-3.506033">
        <ele>1230.60</ele>
        <time>2022-04-17T08:03:37+00:00</time>
      </trkpt>
      <trkpt lat="41.051531" lon="-3.505840">
        <ele>1232.53</ele>
        <time>2022-04-17T08:03:38+00:00</time>
      </trkpt>
      <trkpt lat="41.051381" lon="-3.505626">
        <ele>1234.45</ele>
        <time>2022-04-17T08:03:39+00:00</time>
      </trkpt>
      <trkpt lat="41.051231" lon="-3.505411">
        <ele>1236.37</ele>
        <time>2022-04-17T08:03:40+00:00</time>
      </trkpt>
      <trkpt lat="41.050394" lon="-3.504059">
        <ele>1246.95</ele>
        <time>2022-04-17T08:03:46+00:00</time>
      </trkpt>
      <trkpt lat="41.050330" lon="-3.503845">
        <ele>1248.39</ele>
        <time>2022-04-17T08:03:47+00:00</time>
      </trkpt>
      <trkpt lat="41.050287" lon="-3.503630">
        <ele>1249.83</ele>
        <time>2022-04-17T08:03:48+00:00</time>
      </trkpt>
      <trkpt lat="41.049922" lon="-3.501871">
        <ele>1261.37</ele>
        <time>2022-04-17T08:03:55+00:00</time>
      </trkpt>
      <trkpt lat="41.049943" lon="-3.501656">
        <ele>1262.81</ele>
        <time>2022-04-17T08:03:56+00:00</time>
      </trkpt>
      <trkpt lat="41.049965" lon="-3.501399">
        <ele>1264.25</ele>
        <time>2022-04-17T08:03:57+00:00</time>
      </trkpt>
      <trkpt lat="41.050072" lon="-3.499467">
        <ele>1275.30</ele>
        <time>2022-04-17T08:04:04+00:00</time>
      </trkpt>
      <trkpt lat="41.049858" lon="-3.497365">
        <ele>1279.63</ele>
        <time>2022-04-17T08:04:11+00:00</time>
      </trkpt>
      <trkpt lat="41.049364" lon="-3.495884">
        <ele>1283.96</ele>
        <time>2022-04-17T08:04:16+00:00</time>
      </trkpt>
      <trkpt lat="41.049042" lon="-3.495154">
        <ele>1287.80</ele>
        <time>2022-04-17T08:04:19+00:00</time>
      </trkpt>
      <trkpt lat="41.048956" lon="-3.494918">
        <ele>1288.76</ele>
        <time>2022-04-17T08:04:20+00:00</time>
      </trkpt>
      <trkpt lat="41.048913" lon="-3.494639">
        <ele>1290.21</ele>
        <time>2022-04-17T08:04:21+00:00</time>
      </trkpt>
      <trkpt lat="41.048720" lon="-3.493245">
        <ele>1297.90</ele>
        <time>2022-04-17T08:04:26+00:00</time>
      </trkpt>
      <trkpt lat="41.048677" lon="-3.493009">
        <ele>1299.34</ele>
        <time>2022-04-17T08:04:27+00:00</time>
      </trkpt>
      <trkpt lat="41.048613" lon="-3.492794">
        <ele>1300.30</ele>
        <time>2022-04-17T08:04:28+00:00</time>
      </trkpt>
      <trkpt lat="41.048570" lon="-3.492622">
        <ele>1301.26</ele>
        <time>2022-04-17T08:04:29+00:00</time>
      </trkpt>
      <trkpt lat="41.048570" lon="-3.492451">
        <ele>1302.22</ele>
        <time>2022-04-17T08:04:30+00:00</time>
      </trkpt>
      <trkpt lat="41.048613" lon="-3.492279">
        <ele>1302.70</ele>
        <time>2022-04-17T08:04:31+00:00</time>
      </trkpt>
      <trkpt lat="41.048656" lon="-3.492086">
        <ele>1303.18</ele>
        <time>2022-04-17T08:04:32+00:00</time>
      </trkpt>
      <trkpt lat="41.048720" lon="-3.491871">
        <ele>1304.14</ele>
        <time>2022-04-17T08:04:33+00:00</time>
      </trkpt>
      <trkpt lat="41.048763" lon="-3.491614">
        <ele>1305.11</ele>
        <time>2022-04-17T08:04:34+00:00</time>
      </trkpt>
      <trkpt lat="41.048785" lon="-3.491335">
        <ele>1306.07</ele>
        <time>2022-04-17T08:04:35+00:00</time>
      </trkpt>
      <trkpt lat="41.048785" lon="-3.490713">
        <ele>1309.91</ele>
        <time>2022-04-17T08:04:38+00:00</time>
      </trkpt>
      <trkpt lat="41.048763" lon="-3.490605">
        <ele>1311.35</ele>
        <time>2022-04-17T08:04:39+00:00</time>
      </trkpt>
      <trkpt lat="41.048699" lon="-3.490498">
        <ele>1312.80</ele>
        <time>2022-04-17T08:04:40+00:00</time>
      </trkpt>
      <trkpt lat="41.048592" lon="-3.490498">
        <ele>1313.76</ele>
        <time>2022-04-17T08:04:41+00:00</time>
      </trkpt>
      <trkpt lat="41.048420" lon="-3.490477">
        <ele>1314.72</ele>
        <time>2022-04-17T08:04:42+00:00</time>
      </trkpt>
      <trkpt lat="41.048248" lon="-3.490541">
        <ele>1315.68</ele>
        <time>2022-04-17T08:04:43+00:00</time>
      </trkpt>
      <trkpt lat="41.048098" lon="-3.490584">
        <ele>1316.64</ele>
        <time>2022-04-17T08:04:44+00:00</time>
      </trkpt>
      <trkpt lat="41.047926" lon="-3.490584">
        <ele>1317.60</ele>
        <time>2022-04-17T08:04:45+00:00</time>
      </trkpt>
      <trkpt lat="41.047755" lon="-3.490562">
        <ele>1318.56</ele>
        <time>2022-04-17T08:04:46+00:00</time>
      </trkpt>
      <trkpt lat="41.047583" lon="-3.490477">
        <ele>1319.53</ele>
        <time>2022-04-17T08:04:47+00:00</time>
      </trkpt>
      <trkpt lat="41.047411" lon="-3.490412">
        <ele>1320.49</ele>
        <time>2022-04-17T08:04:48+00:00</time>
      </trkpt>
      <trkpt lat="41.047261" lon="-3.490305">
        <ele>1321.93</ele>
        <time>2022-04-17T08:04:49+00:00</time>
      </trkpt>
      <trkpt lat="41.047132" lon="-3.490198">
        <ele>1322.89</ele>
        <time>2022-04-17T08:04:50+00:00</time>
      </trkpt>
      <trkpt lat="41.047004" lon="-3.490112">
        <ele>1323.85</ele>
        <time>2022-04-17T08:04:51+00:00</time>
      </trkpt>
      <trkpt lat="41.046854" lon="-3.490112">
        <ele>1324.33</ele>
        <time>2022-04-17T08:04:52+00:00</time>
      </trkpt>
      <trkpt lat="41.046703" lon="-3.490155">
        <ele>1325.29</ele>
        <time>2022-04-17T08:04:53+00:00</time>
      </trkpt>
      <trkpt lat="41.045630" lon="-3.490412">
        <ele>1331.06</ele>
        <time>2022-04-17T08:04:59+00:00</time>
      </trkpt>
      <trkpt lat="41.045480" lon="-3.490434">
        <ele>1332.02</ele>
        <time>2022-04-17T08:05:00+00:00</time>
      </trkpt>
      <trkpt lat="41.045352" lon="-3.490434">
        <ele>1332.50</ele>
        <time>2022-04-17T08:05:01+00:00</time>
      </trkpt>
      <trkpt lat="41.045201" lon="-3.490369">
        <ele>1332.98</ele>
        <time>2022-04-17T08:05:02+00:00</time>
      </trkpt>
      <trkpt lat="41.045073" lon="-3.490326">
        <ele>1333.95</ele>
        <time>2022-04-17T08:05:03+00:00</time>
      </trkpt>
      <trkpt lat="41.044944" lon="-3.490305">
        <ele>1334.91</ele>
        <time>2022-04-17T08:05:04+00:00</time>
      </trkpt>
      <trkpt lat="41.044837" lon="-3.490369">
        <ele>1335.87</ele>
        <time>2022-04-17T08:05:05+00:00</time>
      </trkpt>
      <trkpt lat="41.044794" lon="-3.490498">
        <ele>1336.83</ele>
        <time>2022-04-17T08:05:06+00:00</time>
      </trkpt>
      <trkpt lat="41.044729" lon="-3.490670">
        <ele>1337.79</ele>
        <time>2022-04-17T08:05:07+00:00</time>
      </trkpt>
      <trkpt lat="41.044665" lon="-3.490841">
        <ele>1338.75</ele>
        <time>2022-04-17T08:05:08+00:00</time>
      </trkpt>
      <trkpt lat="41.044622" lon="-3.491013">
        <ele>1339.23</ele>
        <time>2022-04-17T08:05:09+00:00</time>
      </trkpt>
      <trkpt lat="41.044515" lon="-3.491142">
        <ele>1340.19</ele>
        <time>2022-04-17T08:05:10+00:00</time>
      </trkpt>
      <trkpt lat="41.044407" lon="-3.491249">
        <ele>1341.15</ele>
        <time>2022-04-17T08:05:11+00:00</time>
      </trkpt>
      <trkpt lat="41.044279" lon="-3.491313">
        <ele>1341.64</ele>
        <time>2022-04-17T08:05:12+00:00</time>
      </trkpt>
      <trkpt lat="41.044150" lon="-3.491356">
        <ele>1342.60</ele>
        <time>2022-04-17T08:05:13+00:00</time>
      </trkpt>
      <trkpt lat="41.044043" lon="-3.491421">
        <ele>1343.08</ele>
        <time>2022-04-17T08:05:14+00:00</time>
      </trkpt>
      <trkpt lat="41.043935" lon="-3.491399">
        <ele>1344.04</ele>
        <time>2022-04-17T08:05:15+00:00</time>
      </trkpt>
      <trkpt lat="41.043871" lon="-3.491335">
        <ele>1344.52</ele>
        <time>2022-04-17T08:05:16+00:00</time>
      </trkpt>
      <trkpt lat="41.043828" lon="-3.491249">
        <ele>1345.48</ele>
        <time>2022-04-17T08:05:17+00:00</time>
      </trkpt>
      <trkpt lat="41.043849" lon="-3.491120">
        <ele>1346.44</ele>
        <time>2022-04-17T08:05:18+00:00</time>
      </trkpt>
      <trkpt lat="41.043892" lon="-3.490949">
        <ele>1346.92</ele>
        <time>2022-04-17T08:05:19+00:00</time>
      </trkpt>
      <trkpt lat="41.043935" lon="-3.490756">
        <ele>1347.88</ele>
        <time>2022-04-17T08:05:20+00:00</time>
      </trkpt>
      <trkpt lat="41.043978" lon="-3.490562">
        <ele>1348.85</ele>
        <time>2022-04-17T08:05:21+00:00</time>
      </trkpt>
      <trkpt lat="41.043957" lon="-3.490348">
        <ele>1350.29</ele>
        <time>2022-04-17T08:05:22+00:00</time>
      </trkpt>
      <trkpt lat="41.043935" lon="-3.490133">
        <ele>1351.73</ele>
        <time>2022-04-17T08:05:23+00:00</time>
      </trkpt>
      <trkpt lat="41.043914" lon="-3.489940">
        <ele>1352.69</ele>
        <time>2022-04-17T08:05:24+00:00</time>
      </trkpt>
      <trkpt lat="41.043892" lon="-3.489769">
        <ele>1353.65</ele>
        <time>2022-04-17T08:05:25+00:00</time>
      </trkpt>
      <trkpt lat="41.043871" lon="-3.489618">
        <ele>1354.61</ele>
        <time>2022-04-17T08:05:26+00:00</time>
      </trkpt>
      <trkpt lat="41.043935" lon="-3.489511">
        <ele>1355.09</ele>
        <time>2022-04-17T08:05:27+00:00</time>
      </trkpt>
      <trkpt lat="41.044000" lon="-3.489447">
        <ele>1355.57</ele>
        <time>2022-04-17T08:05:28+00:00</time>
      </trkpt>
      <trkpt lat="41.044128" lon="-3.489404">
        <ele>1356.05</ele>
        <time>2022-04-17T08:05:29+00:00</time>
      </trkpt>
      <trkpt lat="41.044257" lon="-3.489361">
        <ele>1357.02</ele>
        <time>2022-04-17T08:05:30+00:00</time>
      </trkpt>
      <trkpt lat="41.044386" lon="-3.489254">
        <ele>1357.50</ele>
        <time>2022-04-17T08:05:31+00:00</time>
      </trkpt>
      <trkpt lat="41.044515" lon="-3.489146">
        <ele>1358.46</ele>
        <time>2022-04-17T08:05:32+00:00</time>
      </trkpt>
      <trkpt lat="41.044643" lon="-3.488996">
        <ele>1359.42</ele>
        <time>2022-04-17T08:05:33+00:00</time>
      </trkpt>
      <trkpt lat="41.044772" lon="-3.488846">
        <ele>1360.86</ele>
        <time>2022-04-17T08:05:34+00:00</time>
      </trkpt>
      <trkpt lat="41.044901" lon="-3.488696">
        <ele>1362.30</ele>
        <time>2022-04-17T08:05:35+00:00</time>
      </trkpt>
      <trkpt lat="41.045158" lon="-3.488352">
        <ele>1365.19</ele>
        <time>2022-04-17T08:05:37+00:00</time>
      </trkpt>
      <trkpt lat="41.045673" lon="-3.487666">
        <ele>1372.40</ele>
        <time>2022-04-17T08:05:41+00:00</time>
      </trkpt>
      <trkpt lat="41.045802" lon="-3.487601">
        <ele>1373.84</ele>
        <time>2022-04-17T08:05:42+00:00</time>
      </trkpt>
      <trkpt lat="41.045974" lon="-3.487558">
        <ele>1375.28</ele>
        <time>2022-04-17T08:05:43+00:00</time>
      </trkpt>
      <trkpt lat="41.046145" lon="-3.487515">
        <ele>1376.72</ele>
        <time>2022-04-17T08:05:44+00:00</time>
      </trkpt>
      <trkpt lat="41.046317" lon="-3.487430">
        <ele>1378.17</ele>
        <time>2022-04-17T08:05:45+00:00</time>
      </trkpt>
      <trkpt lat="41.046489" lon="-3.487322">
        <ele>1379.61</ele>
        <time>2022-04-17T08:05:46+00:00</time>
      </trkpt>
      <trkpt lat="41.046660" lon="-3.487151">
        <ele>1380.57</ele>
        <time>2022-04-17T08:05:47+00:00</time>
      </trkpt>
      <trkpt lat="41.046811" lon="-3.486958">
        <ele>1382.01</ele>
        <time>2022-04-17T08:05:48+00:00</time>
      </trkpt>
      <trkpt lat="41.046961" lon="-3.486722">
        <ele>1383.93</ele>
        <time>2022-04-17T08:05:49+00:00</time>
      </trkpt>
      <trkpt lat="41.047090" lon="-3.486507">
        <ele>1385.38</ele>
        <time>2022-04-17T08:05:50+00:00</time>
      </trkpt>
      <trkpt lat="41.047197" lon="-3.486271">
        <ele>1387.30</ele>
        <time>2022-04-17T08:05:51+00:00</time>
      </trkpt>
      <trkpt lat="41.047304" lon="-3.486035">
        <ele>1388.74</ele>
        <time>2022-04-17T08:05:52+00:00</time>
      </trkpt>
      <trkpt lat="41.047433" lon="-3.485799">
        <ele>1390.66</ele>
        <time>2022-04-17T08:05:53+00:00</time>
      </trkpt>
      <trkpt lat="41.047497" lon="-3.485541">
        <ele>1392.10</ele>
        <time>2022-04-17T08:05:54+00:00</time>
      </trkpt>
      <trkpt lat="41.047562" lon="-3.485241">
        <ele>1394.03</ele>
        <time>2022-04-17T08:05:55+00:00</time>
      </trkpt>
      <trkpt lat="41.047712" lon="-3.484662">
        <ele>1397.87</ele>
        <time>2022-04-17T08:05:57+00:00</time>
      </trkpt>
      <trkpt lat="41.047991" lon="-3.483868">
        <ele>1403.64</ele>
        <time>2022-04-17T08:06:00+00:00</time>
      </trkpt>
      <trkpt lat="41.048098" lon="-3.483653">
        <ele>1405.56</ele>
        <time>2022-04-17T08:06:01+00:00</time>
      </trkpt>
      <trkpt lat="41.048205" lon="-3.483439">
        <ele>1407.49</ele>
        <time>2022-04-17T08:06:02+00:00</time>
      </trkpt>
      <trkpt lat="41.048291" lon="-3.483224">
        <ele>1408.93</ele>
        <time>2022-04-17T08:06:03+00:00</time>
      </trkpt>
      <trkpt lat="41.048356" lon="-3.482966">
        <ele>1410.85</ele>
        <time>2022-04-17T08:06:04+00:00</time>
      </trkpt>
      <trkpt lat="41.048420" lon="-3.482730">
        <ele>1412.77</ele>
        <time>2022-04-17T08:06:05+00:00</time>
      </trkpt>
      <trkpt lat="41.048463" lon="-3.482473">
        <ele>1414.70</ele>
        <time>2022-04-17T08:06:06+00:00</time>
      </trkpt>
      <trkpt lat="41.048592" lon="-3.482258">
        <ele>1416.14</ele>
        <time>2022-04-17T08:06:07+00:00</time>
      </trkpt>
      <trkpt lat="41.048720" lon="-3.482044">
        <ele>1417.58</ele>
        <time>2022-04-17T08:06:08+00:00</time>
      </trkpt>
      <trkpt lat="41.048892" lon="-3.481851">
        <ele>1419.02</ele>
        <time>2022-04-17T08:06:09+00:00</time>
      </trkpt>
      <trkpt lat="41.049042" lon="-3.481636">
        <ele>1420.46</ele>
        <time>2022-04-17T08:06:10+00:00</time>
      </trkpt>
      <trkpt lat="41.049171" lon="-3.481357">
        <ele>1421.90</ele>
        <time>2022-04-17T08:06:11+00:00</time>
      </trkpt>
      <trkpt lat="41.049300" lon="-3.481100">
        <ele>1423.83</ele>
        <time>2022-04-17T08:06:12+00:00</time>
      </trkpt>
      <trkpt lat="41.049750" lon="-3.480177">
        <ele>1430.56</ele>
        <time>2022-04-17T08:06:16+00:00</time>
      </trkpt>
      <trkpt lat="41.049879" lon="-3.480005">
        <ele>1432.48</ele>
        <time>2022-04-17T08:06:17+00:00</time>
      </trkpt>
      <trkpt lat="41.050051" lon="-3.479812">
        <ele>1433.92</ele>
        <time>2022-04-17T08:06:18+00:00</time>
      </trkpt>
      <trkpt lat="41.050201" lon="-3.479641">
        <ele>1435.36</ele>
        <time>2022-04-17T08:06:19+00:00</time>
      </trkpt>
      <trkpt lat="41.050394" lon="-3.479490">
        <ele>1436.32</ele>
        <time>2022-04-17T08:06:20+00:00</time>
      </trkpt>
      <trkpt lat="41.050587" lon="-3.479362">
        <ele>1437.77</ele>
        <time>2022-04-17T08:06:21+00:00</time>
      </trkpt>
      <trkpt lat="41.050780" lon="-3.479233">
        <ele>1439.21</ele>
        <time>2022-04-17T08:06:22+00:00</time>
      </trkpt>
      <trkpt lat="41.050952" lon="-3.479104">
        <ele>1440.65</ele>
        <time>2022-04-17T08:06:23+00:00</time>
      </trkpt>
      <trkpt lat="41.051124" lon="-3.478997">
        <ele>1441.61</ele>
        <time>2022-04-17T08:06:24+00:00</time>
      </trkpt>
      <trkpt lat="41.051231" lon="-3.478825">
        <ele>1442.57</ele>
        <time>2022-04-17T08:06:25+00:00</time>
      </trkpt>
      <trkpt lat="41.051360" lon="-3.478653">
        <ele>1444.02</ele>
        <time>2022-04-17T08:06:26+00:00</time>
      </trkpt>
      <trkpt lat="41.051488" lon="-3.478460">
        <ele>1445.46</ele>
        <time>2022-04-17T08:06:27+00:00</time>
      </trkpt>
      <trkpt lat="41.051682" lon="-3.478160">
        <ele>1447.86</ele>
        <time>2022-04-17T08:06:29+00:00</time>
      </trkpt>
      <trkpt lat="41.051789" lon="-3.478053">
        <ele>1449.30</ele>
        <time>2022-04-17T08:06:30+00:00</time>
      </trkpt>
      <trkpt lat="41.051896" lon="-3.478010">
        <ele>1450.26</ele>
        <time>2022-04-17T08:06:31+00:00</time>
      </trkpt>
      <trkpt lat="41.052003" lon="-3.478053">
        <ele>1450.74</ele>
        <time>2022-04-17T08:06:32+00:00</time>
      </trkpt>
      <trkpt lat="41.052154" lon="-3.478138">
        <ele>1452.19</ele>
        <time>2022-04-17T08:06:33+00:00</time>
      </trkpt>
      <trkpt lat="41.052304" lon="-3.478246">
        <ele>1453.15</ele>
        <time>2022-04-17T08:06:34+00:00</time>
      </trkpt>
      <trkpt lat="41.052454" lon="-3.478353">
        <ele>1454.11</ele>
        <time>2022-04-17T08:06:35+00:00</time>
      </trkpt>
      <trkpt lat="41.052754" lon="-3.478568">
        <ele>1456.51</ele>
        <time>2022-04-17T08:06:37+00:00</time>
      </trkpt>
      <trkpt lat="41.052905" lon="-3.478632">
        <ele>1457.95</ele>
        <time>2022-04-17T08:06:38+00:00</time>
      </trkpt>
      <trkpt lat="41.053055" lon="-3.478632">
        <ele>1458.92</ele>
        <time>2022-04-17T08:06:39+00:00</time>
      </trkpt>
      <trkpt lat="41.053184" lon="-3.478632">
        <ele>1460.36</ele>
        <time>2022-04-17T08:06:40+00:00</time>
      </trkpt>
      <trkpt lat="41.053312" lon="-3.478632">
        <ele>1461.32</ele>
        <time>2022-04-17T08:06:41+00:00</time>
      </trkpt>
      <trkpt lat="41.053398" lon="-3.478589">
        <ele>1462.76</ele>
        <time>2022-04-17T08:06:42+00:00</time>
      </trkpt>
      <trkpt lat="41.053441" lon="-3.478546">
        <ele>1463.72</ele>
        <time>2022-04-17T08:06:43+00:00</time>
      </trkpt>
      <trkpt lat="41.053463" lon="-3.478503">
        <ele>1464.68</ele>
        <time>2022-04-17T08:06:44+00:00</time>
      </trkpt>
      <trkpt lat="41.053484" lon="-3.478482">
        <ele>1465.16</ele>
        <time>2022-04-17T08:06:45+00:00</time>
      </trkpt>
      <trkpt lat="41.053656" lon="-3.478375">
        <ele>1470.45</ele>
        <time>2022-04-17T08:06:53+00:00</time>
      </trkpt>
      <trkpt lat="41.053699" lon="-3.478353">
        <ele>1470.93</ele>
        <time>2022-04-17T08:06:54+00:00</time>
      </trkpt>
      <trkpt lat="41.053892" lon="-3.478289">
        <ele>1469.97</ele>
        <time>2022-04-17T08:06:56+00:00</time>
      </trkpt>
      <trkpt lat="41.053977" lon="-3.478224">
        <ele>1469.01</ele>
        <time>2022-04-17T08:06:57+00:00</time>
      </trkpt>
      <trkpt lat="41.054063" lon="-3.478138">
        <ele>1468.05</ele>
        <time>2022-04-17T08:06:58+00:00</time>
      </trkpt>
      <trkpt lat="41.054128" lon="-3.478031">
        <ele>1466.61</ele>
        <time>2022-04-17T08:06:59+00:00</time>
      </trkpt>
      <trkpt lat="41.054214" lon="-3.477860">
        <ele>1465.64</ele>
        <time>2022-04-17T08:07:00+00:00</time>
      </trkpt>
      <trkpt lat="41.054278" lon="-3.477666">
        <ele>1464.20</ele>
        <time>2022-04-17T08:07:01+00:00</time>
      </trkpt>
      <trkpt lat="41.054321" lon="-3.477430">
        <ele>1463.24</ele>
        <time>2022-04-17T08:07:02+00:00</time>
      </trkpt>
      <trkpt lat="41.054750" lon="-3.475413">
        <ele>1454.59</ele>
        <time>2022-04-17T08:07:09+00:00</time>
      </trkpt>
      <trkpt lat="41.055072" lon="-3.473740">
        <ele>1446.42</ele>
        <time>2022-04-17T08:07:15+00:00</time>
      </trkpt>
      <trkpt lat="41.055072" lon="-3.473547">
        <ele>1444.98</ele>
        <time>2022-04-17T08:07:16+00:00</time>
      </trkpt>
      <trkpt lat="41.055007" lon="-3.473311">
        <ele>1443.05</ele>
        <time>2022-04-17T08:07:17+00:00</time>
      </trkpt>
      <trkpt lat="41.054943" lon="-3.473096">
        <ele>1441.61</ele>
        <time>2022-04-17T08:07:18+00:00</time>
      </trkpt>
      <trkpt lat="41.054836" lon="-3.472881">
        <ele>1440.17</ele>
        <time>2022-04-17T08:07:19+00:00</time>
      </trkpt>
      <trkpt lat="41.054729" lon="-3.472688">
        <ele>1439.21</ele>
        <time>2022-04-17T08:07:20+00:00</time>
      </trkpt>
      <trkpt lat="41.054621" lon="-3.472495">
        <ele>1437.77</ele>
        <time>2022-04-17T08:07:21+00:00</time>
      </trkpt>
      <trkpt lat="41.054557" lon="-3.472302">
        <ele>1436.81</ele>
        <time>2022-04-17T08:07:22+00:00</time>
      </trkpt>
      <trkpt lat="41.054535" lon="-3.472109">
        <ele>1435.36</ele>
        <time>2022-04-17T08:07:23+00:00</time>
      </trkpt>
      <trkpt lat="41.054578" lon="-3.471937">
        <ele>1433.92</ele>
        <time>2022-04-17T08:07:24+00:00</time>
      </trkpt>
      <trkpt lat="41.054621" lon="-3.471766">
        <ele>1432.48</ele>
        <time>2022-04-17T08:07:25+00:00</time>
      </trkpt>
      <trkpt lat="41.054729" lon="-3.471615">
        <ele>1431.04</ele>
        <time>2022-04-17T08:07:26+00:00</time>
      </trkpt>
      <trkpt lat="41.054836" lon="-3.471444">
        <ele>1429.60</ele>
        <time>2022-04-17T08:07:27+00:00</time>
      </trkpt>
      <trkpt lat="41.055007" lon="-3.471293">
        <ele>1428.63</ele>
        <time>2022-04-17T08:07:28+00:00</time>
      </trkpt>
      <trkpt lat="41.055179" lon="-3.471165">
        <ele>1427.19</ele>
        <time>2022-04-17T08:07:29+00:00</time>
      </trkpt>
      <trkpt lat="41.055952" lon="-3.470500">
        <ele>1420.46</ele>
        <time>2022-04-17T08:07:34+00:00</time>
      </trkpt>
      <trkpt lat="41.056059" lon="-3.470285">
        <ele>1419.50</ele>
        <time>2022-04-17T08:07:35+00:00</time>
      </trkpt>
      <trkpt lat="41.056145" lon="-3.470070">
        <ele>1418.06</ele>
        <time>2022-04-17T08:07:36+00:00</time>
      </trkpt>
      <trkpt lat="41.056595" lon="-3.468976">
        <ele>1411.33</ele>
        <time>2022-04-17T08:07:41+00:00</time>
      </trkpt>
      <trkpt lat="41.056660" lon="-3.468826">
        <ele>1410.37</ele>
        <time>2022-04-17T08:07:42+00:00</time>
      </trkpt>
      <trkpt lat="41.056767" lon="-3.468719">
        <ele>1408.93</ele>
        <time>2022-04-17T08:07:43+00:00</time>
      </trkpt>
      <trkpt lat="41.056896" lon="-3.468654">
        <ele>1407.97</ele>
        <time>2022-04-17T08:07:44+00:00</time>
      </trkpt>
      <trkpt lat="41.057003" lon="-3.468654">
        <ele>1407.00</ele>
        <time>2022-04-17T08:07:45+00:00</time>
      </trkpt>
      <trkpt lat="41.057153" lon="-3.468697">
        <ele>1405.56</ele>
        <time>2022-04-17T08:07:46+00:00</time>
      </trkpt>
      <trkpt lat="41.057261" lon="-3.468761">
        <ele>1404.60</ele>
        <time>2022-04-17T08:07:47+00:00</time>
      </trkpt>
      <trkpt lat="41.057368" lon="-3.468890">
        <ele>1403.16</ele>
        <time>2022-04-17T08:07:48+00:00</time>
      </trkpt>
      <trkpt lat="41.057411" lon="-3.469062">
        <ele>1401.72</ele>
        <time>2022-04-17T08:07:49+00:00</time>
      </trkpt>
      <trkpt lat="41.057432" lon="-3.469234">
        <ele>1400.28</ele>
        <time>2022-04-17T08:07:50+00:00</time>
      </trkpt>
      <trkpt lat="41.057475" lon="-3.469405">
        <ele>1399.31</ele>
        <time>2022-04-17T08:07:51+00:00</time>
      </trkpt>
      <trkpt lat="41.057561" lon="-3.469727">
        <ele>1396.91</ele>
        <time>2022-04-17T08:07:53+00:00</time>
      </trkpt>
      <trkpt lat="41.057604" lon="-3.469856">
        <ele>1395.95</ele>
        <time>2022-04-17T08:07:54+00:00</time>
      </trkpt>
      <trkpt lat="41.057647" lon="-3.469985">
        <ele>1394.99</ele>
        <time>2022-04-17T08:07:55+00:00</time>
      </trkpt>
      <trkpt lat="41.058033" lon="-3.470585">
        <ele>1394.99</ele>
        <time>2022-04-17T08:08:01+00:00</time>
      </trkpt>
      <trkpt lat="41.058162" lon="-3.470693">
        <ele>1395.95</ele>
        <time>2022-04-17T08:08:02+00:00</time>
      </trkpt>
      <trkpt lat="41.058290" lon="-3.470779">
        <ele>1396.91</ele>
        <time>2022-04-17T08:08:03+00:00</time>
      </trkpt>
      <trkpt lat="41.058805" lon="-3.471100">
        <ele>1401.24</ele>
        <time>2022-04-17T08:08:07+00:00</time>
      </trkpt>
      <trkpt lat="41.058913" lon="-3.471165">
        <ele>1401.72</ele>
        <time>2022-04-17T08:08:08+00:00</time>
      </trkpt>
      <trkpt lat="41.058977" lon="-3.471315">
        <ele>1402.20</ele>
        <time>2022-04-17T08:08:09+00:00</time>
      </trkpt>
      <trkpt lat="41.058956" lon="-3.471465">
        <ele>1402.68</ele>
        <time>2022-04-17T08:08:10+00:00</time>
      </trkpt>
      <trkpt lat="41.058934" lon="-3.471637">
        <ele>1403.16</ele>
        <time>2022-04-17T08:08:11+00:00</time>
      </trkpt>
      <trkpt lat="41.058913" lon="-3.471787">
        <ele>1403.16</ele>
        <time>2022-04-17T08:08:12+00:00</time>
      </trkpt>
      <trkpt lat="41.058934" lon="-3.471937">
        <ele>1403.64</ele>
        <time>2022-04-17T08:08:13+00:00</time>
      </trkpt>
      <trkpt lat="41.058956" lon="-3.472087">
        <ele>1404.12</ele>
        <time>2022-04-17T08:08:14+00:00</time>
      </trkpt>
      <trkpt lat="41.059020" lon="-3.472216">
        <ele>1404.60</ele>
        <time>2022-04-17T08:08:15+00:00</time>
      </trkpt>
      <trkpt lat="41.059127" lon="-3.472345">
        <ele>1405.56</ele>
        <time>2022-04-17T08:08:16+00:00</time>
      </trkpt>
      <trkpt lat="41.059256" lon="-3.472474">
        <ele>1406.52</ele>
        <time>2022-04-17T08:08:17+00:00</time>
      </trkpt>
      <trkpt lat="41.059406" lon="-3.472602">
        <ele>1407.97</ele>
        <time>2022-04-17T08:08:18+00:00</time>
      </trkpt>
      <trkpt lat="41.059556" lon="-3.472710">
        <ele>1408.93</ele>
        <time>2022-04-17T08:08:19+00:00</time>
      </trkpt>
      <trkpt lat="41.059964" lon="-3.473032">
        <ele>1413.73</ele>
        <time>2022-04-17T08:08:22+00:00</time>
      </trkpt>
      <trkpt lat="41.060114" lon="-3.473074">
        <ele>1415.18</ele>
        <time>2022-04-17T08:08:23+00:00</time>
      </trkpt>
      <trkpt lat="41.060286" lon="-3.473117">
        <ele>1416.62</ele>
        <time>2022-04-17T08:08:24+00:00</time>
      </trkpt>
      <trkpt lat="41.061659" lon="-3.473096">
        <ele>1426.71</ele>
        <time>2022-04-17T08:08:30+00:00</time>
      </trkpt>
      <trkpt lat="41.061917" lon="-3.473139">
        <ele>1428.63</ele>
        <time>2022-04-17T08:08:31+00:00</time>
      </trkpt>
      <trkpt lat="41.062153" lon="-3.473225">
        <ele>1430.56</ele>
        <time>2022-04-17T08:08:32+00:00</time>
      </trkpt>
      <trkpt lat="41.064084" lon="-3.473847">
        <ele>1447.86</ele>
        <time>2022-04-17T08:08:40+00:00</time>
      </trkpt>
      <trkpt lat="41.064814" lon="-3.473933">
        <ele>1454.59</ele>
        <time>2022-04-17T08:08:44+00:00</time>
      </trkpt>
      <trkpt lat="41.065135" lon="-3.473911">
        <ele>1456.99</ele>
        <time>2022-04-17T08:08:46+00:00</time>
      </trkpt>
      <trkpt lat="41.065329" lon="-3.473976">
        <ele>1458.43</ele>
        <time>2022-04-17T08:08:47+00:00</time>
      </trkpt>
      <trkpt lat="41.065522" lon="-3.474062">
        <ele>1459.40</ele>
        <time>2022-04-17T08:08:48+00:00</time>
      </trkpt>
      <trkpt lat="41.066208" lon="-3.474298">
        <ele>1465.16</ele>
        <time>2022-04-17T08:08:52+00:00</time>
      </trkpt>
      <trkpt lat="41.066359" lon="-3.474340">
        <ele>1466.61</ele>
        <time>2022-04-17T08:08:53+00:00</time>
      </trkpt>
      <trkpt lat="41.066530" lon="-3.474340">
        <ele>1468.05</ele>
        <time>2022-04-17T08:08:54+00:00</time>
      </trkpt>
      <trkpt lat="41.067260" lon="-3.474340">
        <ele>1476.70</ele>
        <time>2022-04-17T08:09:00+00:00</time>
      </trkpt>
      <trkpt lat="41.067474" lon="-3.474319">
        <ele>1480.54</ele>
        <time>2022-04-17T08:09:05+00:00</time>
      </trkpt>
      <trkpt lat="41.067496" lon="-3.474276">
        <ele>1481.51</ele>
        <time>2022-04-17T08:09:06+00:00</time>
      </trkpt>
      <trkpt lat="41.067539" lon="-3.474233">
        <ele>1482.47</ele>
        <time>2022-04-17T08:09:07+00:00</time>
      </trkpt>
      <trkpt lat="41.067625" lon="-3.474147">
        <ele>1482.95</ele>
        <time>2022-04-17T08:09:09+00:00</time>
      </trkpt>
      <trkpt lat="41.067667" lon="-3.474104">
        <ele>1483.43</ele>
        <time>2022-04-17T08:09:10+00:00</time>
      </trkpt>
      <trkpt lat="41.067732" lon="-3.474083">
        <ele>1483.91</ele>
        <time>2022-04-17T08:09:11+00:00</time>
      </trkpt>
      <trkpt lat="41.067818" lon="-3.474040">
        <ele>1483.43</ele>
        <time>2022-04-17T08:09:12+00:00</time>
      </trkpt>
      <trkpt lat="41.067904" lon="-3.474019">
        <ele>1482.47</ele>
        <time>2022-04-17T08:09:13+00:00</time>
      </trkpt>
      <trkpt lat="41.068011" lon="-3.474040">
        <ele>1481.51</ele>
        <time>2022-04-17T08:09:14+00:00</time>
      </trkpt>
      <trkpt lat="41.068140" lon="-3.474083">
        <ele>1480.54</ele>
        <time>2022-04-17T08:09:15+00:00</time>
      </trkpt>
      <trkpt lat="41.068290" lon="-3.474169">
        <ele>1479.58</ele>
        <time>2022-04-17T08:09:16+00:00</time>
      </trkpt>
      <trkpt lat="41.069298" lon="-3.474705">
        <ele>1470.45</ele>
        <time>2022-04-17T08:09:22+00:00</time>
      </trkpt>
      <trkpt lat="41.069448" lon="-3.474791">
        <ele>1469.01</ele>
        <time>2022-04-17T08:09:23+00:00</time>
      </trkpt>
      <trkpt lat="41.069599" lon="-3.474855">
        <ele>1467.57</ele>
        <time>2022-04-17T08:09:24+00:00</time>
      </trkpt>
      <trkpt lat="41.069749" lon="-3.474877">
        <ele>1466.13</ele>
        <time>2022-04-17T08:09:25+00:00</time>
      </trkpt>
      <trkpt lat="41.069899" lon="-3.474877">
        <ele>1464.68</ele>
        <time>2022-04-17T08:09:26+00:00</time>
      </trkpt>
      <trkpt lat="41.070006" lon="-3.474813">
        <ele>1463.24</ele>
        <time>2022-04-17T08:09:27+00:00</time>
      </trkpt>
      <trkpt lat="41.070135" lon="-3.474684">
        <ele>1461.80</ele>
        <time>2022-04-17T08:09:28+00:00</time>
      </trkpt>
      <trkpt lat="41.070242" lon="-3.474534">
        <ele>1459.88</ele>
        <time>2022-04-17T08:09:29+00:00</time>
      </trkpt>
      <trkpt lat="41.070350" lon="-3.474362">
        <ele>1458.43</ele>
        <time>2022-04-17T08:09:30+00:00</time>
      </trkpt>
      <trkpt lat="41.070436" lon="-3.474169">
        <ele>1456.99</ele>
        <time>2022-04-17T08:09:31+00:00</time>
      </trkpt>
      <trkpt lat="41.070543" lon="-3.473997">
        <ele>1455.07</ele>
        <time>2022-04-17T08:09:32+00:00</time>
      </trkpt>
      <trkpt lat="41.070629" lon="-3.473825">
        <ele>1453.63</ele>
        <time>2022-04-17T08:09:33+00:00</time>
      </trkpt>
      <trkpt lat="41.070757" lon="-3.473675">
        <ele>1452.19</ele>
        <time>2022-04-17T08:09:34+00:00</time>
      </trkpt>
      <trkpt lat="41.071616" lon="-3.472817">
        <ele>1442.57</ele>
        <time>2022-04-17T08:09:40+00:00</time>
      </trkpt>
      <trkpt lat="41.071787" lon="-3.472731">
        <ele>1441.61</ele>
        <time>2022-04-17T08:09:41+00:00</time>
      </trkpt>
      <trkpt lat="41.072603" lon="-3.472087">
        <ele>1434.40</ele>
        <time>2022-04-17T08:09:46+00:00</time>
      </trkpt>
      <trkpt lat="41.072731" lon="-3.471959">
        <ele>1432.48</ele>
        <time>2022-04-17T08:09:47+00:00</time>
      </trkpt>
      <trkpt lat="41.072839" lon="-3.471766">
        <ele>1431.04</ele>
        <time>2022-04-17T08:09:48+00:00</time>
      </trkpt>
      <trkpt lat="41.072946" lon="-3.471551">
        <ele>1429.11</ele>
        <time>2022-04-17T08:09:49+00:00</time>
      </trkpt>
      <trkpt lat="41.073032" lon="-3.471293">
        <ele>1427.19</ele>
        <time>2022-04-17T08:09:50+00:00</time>
      </trkpt>
      <trkpt lat="41.073118" lon="-3.471036">
        <ele>1425.75</ele>
        <time>2022-04-17T08:09:51+00:00</time>
      </trkpt>
      <trkpt lat="41.073139" lon="-3.470757">
        <ele>1423.83</ele>
        <time>2022-04-17T08:09:52+00:00</time>
      </trkpt>
      <trkpt lat="41.073161" lon="-3.470478">
        <ele>1421.90</ele>
        <time>2022-04-17T08:09:53+00:00</time>
      </trkpt>
      <trkpt lat="41.073182" lon="-3.470199">
        <ele>1419.98</ele>
        <time>2022-04-17T08:09:54+00:00</time>
      </trkpt>
      <trkpt lat="41.073354" lon="-3.469212">
        <ele>1412.29</ele>
        <time>2022-04-17T08:09:59+00:00</time>
      </trkpt>
      <trkpt lat="41.073418" lon="-3.469040">
        <ele>1410.85</ele>
        <time>2022-04-17T08:10:00+00:00</time>
      </trkpt>
      <trkpt lat="41.073847" lon="-3.468289">
        <ele>1405.08</ele>
        <time>2022-04-17T08:10:05+00:00</time>
      </trkpt>
      <trkpt lat="41.073826" lon="-3.468204">
        <ele>1404.12</ele>
        <time>2022-04-17T08:10:06+00:00</time>
      </trkpt>
      <trkpt lat="41.073804" lon="-3.468118">
        <ele>1403.16</ele>
        <time>2022-04-17T08:10:07+00:00</time>
      </trkpt>
      <trkpt lat="41.073740" lon="-3.468053">
        <ele>1402.20</ele>
        <time>2022-04-17T08:10:08+00:00</time>
      </trkpt>
      <trkpt lat="41.073676" lon="-3.468096">
        <ele>1401.24</ele>
        <time>2022-04-17T08:10:09+00:00</time>
      </trkpt>
      <trkpt lat="41.073568" lon="-3.468182">
        <ele>1400.76</ele>
        <time>2022-04-17T08:10:10+00:00</time>
      </trkpt>
      <trkpt lat="41.073483" lon="-3.468332">
        <ele>1400.28</ele>
        <time>2022-04-17T08:10:11+00:00</time>
      </trkpt>
      <trkpt lat="41.073397" lon="-3.468504">
        <ele>1399.79</ele>
        <time>2022-04-17T08:10:12+00:00</time>
      </trkpt>
      <trkpt lat="41.073053" lon="-3.469019">
        <ele>1398.35</ele>
        <time>2022-04-17T08:10:16+00:00</time>
      </trkpt>
      <trkpt lat="41.073010" lon="-3.469062">
        <ele>1398.35</ele>
        <time>2022-04-17T08:10:17+00:00</time>
      </trkpt>
      <trkpt lat="41.072946" lon="-3.469019">
        <ele>1397.87</ele>
        <time>2022-04-17T08:10:18+00:00</time>
      </trkpt>
      <trkpt lat="41.072882" lon="-3.468998">
        <ele>1396.91</ele>
        <time>2022-04-17T08:10:19+00:00</time>
      </trkpt>
      <trkpt lat="41.072860" lon="-3.468912">
        <ele>1395.95</ele>
        <time>2022-04-17T08:10:20+00:00</time>
      </trkpt>
      <trkpt lat="41.072903" lon="-3.468761">
        <ele>1394.51</ele>
        <time>2022-04-17T08:10:21+00:00</time>
      </trkpt>
      <trkpt lat="41.072989" lon="-3.468590">
        <ele>1393.55</ele>
        <time>2022-04-17T08:10:22+00:00</time>
      </trkpt>
      <trkpt lat="41.073053" lon="-3.468418">
        <ele>1392.58</ele>
        <time>2022-04-17T08:10:23+00:00</time>
      </trkpt>
      <trkpt lat="41.073118" lon="-3.468225">
        <ele>1391.14</ele>
        <time>2022-04-17T08:10:24+00:00</time>
      </trkpt>
      <trkpt lat="41.073118" lon="-3.467989">
        <ele>1389.22</ele>
        <time>2022-04-17T08:10:25+00:00</time>
      </trkpt>
      <trkpt lat="41.073096" lon="-3.467774">
        <ele>1387.78</ele>
        <time>2022-04-17T08:10:26+00:00</time>
      </trkpt>
      <trkpt lat="41.073010" lon="-3.467560">
        <ele>1386.34</ele>
        <time>2022-04-17T08:10:27+00:00</time>
      </trkpt>
      <trkpt lat="41.072925" lon="-3.467345">
        <ele>1384.89</ele>
        <time>2022-04-17T08:10:28+00:00</time>
      </trkpt>
      <trkpt lat="41.072839" lon="-3.467131">
        <ele>1383.45</ele>
        <time>2022-04-17T08:10:29+00:00</time>
      </trkpt>
      <trkpt lat="41.072667" lon="-3.466637">
        <ele>1380.09</ele>
        <time>2022-04-17T08:10:32+00:00</time>
      </trkpt>
      <trkpt lat="41.072646" lon="-3.466444">
        <ele>1379.13</ele>
        <time>2022-04-17T08:10:33+00:00</time>
      </trkpt>
      <trkpt lat="41.072646" lon="-3.466251">
        <ele>1377.68</ele>
        <time>2022-04-17T08:10:34+00:00</time>
      </trkpt>
      <trkpt lat="41.072667" lon="-3.466058">
        <ele>1376.72</ele>
        <time>2022-04-17T08:10:35+00:00</time>
      </trkpt>
      <trkpt lat="41.072667" lon="-3.465865">
        <ele>1375.76</ele>
        <time>2022-04-17T08:10:36+00:00</time>
      </trkpt>
      <trkpt lat="41.072710" lon="-3.465693">
        <ele>1374.32</ele>
        <time>2022-04-17T08:10:37+00:00</time>
      </trkpt>
      <trkpt lat="41.072753" lon="-3.465500">
        <ele>1373.36</ele>
        <time>2022-04-17T08:10:38+00:00</time>
      </trkpt>
      <trkpt lat="41.072817" lon="-3.465328">
        <ele>1371.92</ele>
        <time>2022-04-17T08:10:39+00:00</time>
      </trkpt>
      <trkpt lat="41.072946" lon="-3.465049">
        <ele>1369.51</ele>
        <time>2022-04-17T08:10:41+00:00</time>
      </trkpt>
      <trkpt lat="41.073032" lon="-3.464942">
        <ele>1368.07</ele>
        <time>2022-04-17T08:10:42+00:00</time>
      </trkpt>
      <trkpt lat="41.073139" lon="-3.464856">
        <ele>1367.11</ele>
        <time>2022-04-17T08:10:43+00:00</time>
      </trkpt>
      <trkpt lat="41.073418" lon="-3.464642">
        <ele>1363.75</ele>
        <time>2022-04-17T08:10:45+00:00</time>
      </trkpt>
      <trkpt lat="41.073547" lon="-3.464513">
        <ele>1361.82</ele>
        <time>2022-04-17T08:10:46+00:00</time>
      </trkpt>
      <trkpt lat="41.073633" lon="-3.464320">
        <ele>1359.90</ele>
        <time>2022-04-17T08:10:47+00:00</time>
      </trkpt>
      <trkpt lat="41.073676" lon="-3.464084">
        <ele>1357.50</ele>
        <time>2022-04-17T08:10:48+00:00</time>
      </trkpt>
      <trkpt lat="41.073697" lon="-3.463783">
        <ele>1355.57</ele>
        <time>2022-04-17T08:10:49+00:00</time>
      </trkpt>
      <trkpt lat="41.073697" lon="-3.463483">
        <ele>1353.17</ele>
        <time>2022-04-17T08:10:50+00:00</time>
      </trkpt>
      <trkpt lat="41.073740" lon="-3.462710">
        <ele>1347.40</ele>
        <time>2022-04-17T08:10:53+00:00</time>
      </trkpt>
      <trkpt lat="41.073697" lon="-3.462474">
        <ele>1345.96</ele>
        <time>2022-04-17T08:10:54+00:00</time>
      </trkpt>
      <trkpt lat="41.073611" lon="-3.462217">
        <ele>1344.52</ele>
        <time>2022-04-17T08:10:55+00:00</time>
      </trkpt>
      <trkpt lat="41.073332" lon="-3.461337">
        <ele>1337.31</ele>
        <time>2022-04-17T08:11:00+00:00</time>
      </trkpt>
      <trkpt lat="41.073332" lon="-3.461230">
        <ele>1336.35</ele>
        <time>2022-04-17T08:11:01+00:00</time>
      </trkpt>
      <trkpt lat="41.073375" lon="-3.461080">
        <ele>1334.91</ele>
        <time>2022-04-17T08:11:02+00:00</time>
      </trkpt>
      <trkpt lat="41.073461" lon="-3.460908">
        <ele>1333.95</ele>
        <time>2022-04-17T08:11:03+00:00</time>
      </trkpt>
      <trkpt lat="41.073568" lon="-3.460715">
        <ele>1332.50</ele>
        <time>2022-04-17T08:11:04+00:00</time>
      </trkpt>
      <trkpt lat="41.073676" lon="-3.460543">
        <ele>1331.06</ele>
        <time>2022-04-17T08:11:05+00:00</time>
      </trkpt>
      <trkpt lat="41.074191" lon="-3.459792">
        <ele>1325.77</ele>
        <time>2022-04-17T08:11:10+00:00</time>
      </trkpt>
      <trkpt lat="41.074319" lon="-3.459706">
        <ele>1324.33</ele>
        <time>2022-04-17T08:11:11+00:00</time>
      </trkpt>
      <trkpt lat="41.074448" lon="-3.459599">
        <ele>1322.89</ele>
        <time>2022-04-17T08:11:12+00:00</time>
      </trkpt>
      <trkpt lat="41.074620" lon="-3.459535">
        <ele>1321.45</ele>
        <time>2022-04-17T08:11:13+00:00</time>
      </trkpt>
      <trkpt lat="41.074791" lon="-3.459492">
        <ele>1320.01</ele>
        <time>2022-04-17T08:11:14+00:00</time>
      </trkpt>
      <trkpt lat="41.074942" lon="-3.459427">
        <ele>1318.56</ele>
        <time>2022-04-17T08:11:15+00:00</time>
      </trkpt>
      <trkpt lat="41.075092" lon="-3.459363">
        <ele>1317.12</ele>
        <time>2022-04-17T08:11:16+00:00</time>
      </trkpt>
      <trkpt lat="41.075221" lon="-3.459234">
        <ele>1315.20</ele>
        <time>2022-04-17T08:11:17+00:00</time>
      </trkpt>
      <trkpt lat="41.075328" lon="-3.459041">
        <ele>1313.76</ele>
        <time>2022-04-17T08:11:18+00:00</time>
      </trkpt>
      <trkpt lat="41.075435" lon="-3.458827">
        <ele>1311.83</ele>
        <time>2022-04-17T08:11:19+00:00</time>
      </trkpt>
      <trkpt lat="41.075607" lon="-3.458462">
        <ele>1308.95</ele>
        <time>2022-04-17T08:11:21+00:00</time>
      </trkpt>
      <trkpt lat="41.075671" lon="-3.458290">
        <ele>1307.51</ele>
        <time>2022-04-17T08:11:22+00:00</time>
      </trkpt>
      <trkpt lat="41.075714" lon="-3.458118">
        <ele>1305.59</ele>
        <time>2022-04-17T08:11:23+00:00</time>
      </trkpt>
      <trkpt lat="41.075800" lon="-3.457797">
        <ele>1302.70</ele>
        <time>2022-04-17T08:11:25+00:00</time>
      </trkpt>
      <trkpt lat="41.075864" lon="-3.457689">
        <ele>1301.26</ele>
        <time>2022-04-17T08:11:26+00:00</time>
      </trkpt>
      <trkpt lat="41.075929" lon="-3.457603">
        <ele>1300.30</ele>
        <time>2022-04-17T08:11:27+00:00</time>
      </trkpt>
      <trkpt lat="41.075993" lon="-3.457496">
        <ele>1299.82</ele>
        <time>2022-04-17T08:11:28+00:00</time>
      </trkpt>
      <trkpt lat="41.076036" lon="-3.457432">
        <ele>1298.86</ele>
        <time>2022-04-17T08:11:29+00:00</time>
      </trkpt>
      <trkpt lat="41.076057" lon="-3.457325">
        <ele>1297.90</ele>
        <time>2022-04-17T08:11:30+00:00</time>
      </trkpt>
      <trkpt lat="41.076036" lon="-3.457239">
        <ele>1296.93</ele>
        <time>2022-04-17T08:11:31+00:00</time>
      </trkpt>
      <trkpt lat="41.075972" lon="-3.457217">
        <ele>1295.97</ele>
        <time>2022-04-17T08:11:32+00:00</time>
      </trkpt>
      <trkpt lat="41.075886" lon="-3.457217">
        <ele>1295.01</ele>
        <time>2022-04-17T08:11:33+00:00</time>
      </trkpt>
      <trkpt lat="41.075800" lon="-3.457325">
        <ele>1294.05</ele>
        <time>2022-04-17T08:11:34+00:00</time>
      </trkpt>
      <trkpt lat="41.075671" lon="-3.457432">
        <ele>1293.09</ele>
        <time>2022-04-17T08:11:35+00:00</time>
      </trkpt>
      <trkpt lat="41.075542" lon="-3.457539">
        <ele>1292.13</ele>
        <time>2022-04-17T08:11:36+00:00</time>
      </trkpt>
      <trkpt lat="41.075199" lon="-3.457818">
        <ele>1289.72</ele>
        <time>2022-04-17T08:11:39+00:00</time>
      </trkpt>
      <trkpt lat="41.075006" lon="-3.457990">
        <ele>1288.28</ele>
        <time>2022-04-17T08:11:41+00:00</time>
      </trkpt>
      <trkpt lat="41.074920" lon="-3.457990">
        <ele>1287.32</ele>
        <time>2022-04-17T08:11:42+00:00</time>
      </trkpt>
      <trkpt lat="41.074813" lon="-3.457990">
        <ele>1286.36</ele>
        <time>2022-04-17T08:11:43+00:00</time>
      </trkpt>
      <trkpt lat="41.074706" lon="-3.457990">
        <ele>1284.92</ele>
        <time>2022-04-17T08:11:44+00:00</time>
      </trkpt>
      <trkpt lat="41.074598" lon="-3.458011">
        <ele>1283.96</ele>
        <time>2022-04-17T08:11:45+00:00</time>
      </trkpt>
      <trkpt lat="41.074298" lon="-3.458097">
        <ele>1281.55</ele>
        <time>2022-04-17T08:11:48+00:00</time>
      </trkpt>
      <trkpt lat="41.074191" lon="-3.458140">
        <ele>1280.59</ele>
        <time>2022-04-17T08:11:49+00:00</time>
      </trkpt>
      <trkpt lat="41.074083" lon="-3.458204">
        <ele>1280.11</ele>
        <time>2022-04-17T08:11:50+00:00</time>
      </trkpt>
      <trkpt lat="41.073955" lon="-3.458269">
        <ele>1279.15</ele>
        <time>2022-04-17T08:11:51+00:00</time>
      </trkpt>
      <trkpt lat="41.073847" lon="-3.458376">
        <ele>1278.19</ele>
        <time>2022-04-17T08:11:52+00:00</time>
      </trkpt>
      <trkpt lat="41.073504" lon="-3.458591">
        <ele>1275.30</ele>
        <time>2022-04-17T08:11:55+00:00</time>
      </trkpt>
      <trkpt lat="41.073397" lon="-3.458591">
        <ele>1274.34</ele>
        <time>2022-04-17T08:11:56+00:00</time>
      </trkpt>
      <trkpt lat="41.073289" lon="-3.458548">
        <ele>1273.38</ele>
        <time>2022-04-17T08:11:57+00:00</time>
      </trkpt>
      <trkpt lat="41.073010" lon="-3.458483">
        <ele>1271.46</ele>
        <time>2022-04-17T08:11:59+00:00</time>
      </trkpt>
      <trkpt lat="41.072860" lon="-3.458483">
        <ele>1270.50</ele>
        <time>2022-04-17T08:12:00+00:00</time>
      </trkpt>
      <trkpt lat="41.072710" lon="-3.458569">
        <ele>1269.06</ele>
        <time>2022-04-17T08:12:01+00:00</time>
      </trkpt>
      <trkpt lat="41.072538" lon="-3.458633">
        <ele>1267.61</ele>
        <time>2022-04-17T08:12:02+00:00</time>
      </trkpt>
      <trkpt lat="41.072388" lon="-3.458719">
        <ele>1266.17</ele>
        <time>2022-04-17T08:12:03+00:00</time>
      </trkpt>
      <trkpt lat="41.072088" lon="-3.458977">
        <ele>1264.25</ele>
        <time>2022-04-17T08:12:05+00:00</time>
      </trkpt>
      <trkpt lat="41.071959" lon="-3.459106">
        <ele>1263.29</ele>
        <time>2022-04-17T08:12:06+00:00</time>
      </trkpt>
      <trkpt lat="41.071830" lon="-3.459277">
        <ele>1262.33</ele>
        <time>2022-04-17T08:12:07+00:00</time>
      </trkpt>
      <trkpt lat="41.071723" lon="-3.459470">
        <ele>1261.37</ele>
        <time>2022-04-17T08:12:08+00:00</time>
      </trkpt>
      <trkpt lat="41.071637" lon="-3.459663">
        <ele>1260.40</ele>
        <time>2022-04-17T08:12:09+00:00</time>
      </trkpt>
      <trkpt lat="41.071551" lon="-3.459814">
        <ele>1259.44</ele>
        <time>2022-04-17T08:12:10+00:00</time>
      </trkpt>
      <trkpt lat="41.071358" lon="-3.460114">
        <ele>1257.04</ele>
        <time>2022-04-17T08:12:13+00:00</time>
      </trkpt>
      <trkpt lat="41.071294" lon="-3.460136">
        <ele>1256.56</ele>
        <time>2022-04-17T08:12:14+00:00</time>
      </trkpt>
      <trkpt lat="41.071251" lon="-3.460114">
        <ele>1255.60</ele>
        <time>2022-04-17T08:12:15+00:00</time>
      </trkpt>
      <trkpt lat="41.071165" lon="-3.460071">
        <ele>1255.12</ele>
        <time>2022-04-17T08:12:16+00:00</time>
      </trkpt>
      <trkpt lat="41.071144" lon="-3.459899">
        <ele>1254.64</ele>
        <time>2022-04-17T08:12:17+00:00</time>
      </trkpt>
      <trkpt lat="41.071122" lon="-3.459706">
        <ele>1254.16</ele>
        <time>2022-04-17T08:12:18+00:00</time>
      </trkpt>
      <trkpt lat="41.071101" lon="-3.459513">
        <ele>1253.68</ele>
        <time>2022-04-17T08:12:19+00:00</time>
      </trkpt>
      <trkpt lat="41.071079" lon="-3.459320">
        <ele>1252.71</ele>
        <time>2022-04-17T08:12:20+00:00</time>
      </trkpt>
      <trkpt lat="41.071122" lon="-3.459084">
        <ele>1251.75</ele>
        <time>2022-04-17T08:12:21+00:00</time>
      </trkpt>
      <trkpt lat="41.071144" lon="-3.458848">
        <ele>1250.79</ele>
        <time>2022-04-17T08:12:22+00:00</time>
      </trkpt>
      <trkpt lat="41.071208" lon="-3.458247">
        <ele>1249.35</ele>
        <time>2022-04-17T08:12:25+00:00</time>
      </trkpt>
      <trkpt lat="41.071187" lon="-3.458076">
        <ele>1249.35</ele>
        <time>2022-04-17T08:12:26+00:00</time>
      </trkpt>
      <trkpt lat="41.071187" lon="-3.457925">
        <ele>1248.87</ele>
        <time>2022-04-17T08:12:27+00:00</time>
      </trkpt>
      <trkpt lat="41.071165" lon="-3.457818">
        <ele>1248.87</ele>
        <time>2022-04-17T08:12:28+00:00</time>
      </trkpt>
      <trkpt lat="41.071208" lon="-3.457754">
        <ele>1248.39</ele>
        <time>2022-04-17T08:12:29+00:00</time>
      </trkpt>
      <trkpt lat="41.071251" lon="-3.457668">
        <ele>1248.39</ele>
        <time>2022-04-17T08:12:30+00:00</time>
      </trkpt>
      <trkpt lat="41.071358" lon="-3.457603">
        <ele>1248.39</ele>
        <time>2022-04-17T08:12:31+00:00</time>
      </trkpt>
      <trkpt lat="41.071487" lon="-3.457518">
        <ele>1248.39</ele>
        <time>2022-04-17T08:12:32+00:00</time>
      </trkpt>
      <trkpt lat="41.071594" lon="-3.457410">
        <ele>1247.91</ele>
        <time>2022-04-17T08:12:33+00:00</time>
      </trkpt>
      <trkpt lat="41.071702" lon="-3.457217">
        <ele>1247.91</ele>
        <time>2022-04-17T08:12:34+00:00</time>
      </trkpt>
      <trkpt lat="41.071766" lon="-3.457024">
        <ele>1247.43</ele>
        <time>2022-04-17T08:12:35+00:00</time>
      </trkpt>
      <trkpt lat="41.072066" lon="-3.456295">
        <ele>1244.06</ele>
        <time>2022-04-17T08:12:39+00:00</time>
      </trkpt>
      <trkpt lat="41.072174" lon="-3.456123">
        <ele>1243.10</ele>
        <time>2022-04-17T08:12:40+00:00</time>
      </trkpt>
      <trkpt lat="41.072324" lon="-3.455973">
        <ele>1242.14</ele>
        <time>2022-04-17T08:12:41+00:00</time>
      </trkpt>
      <trkpt lat="41.073118" lon="-3.455136">
        <ele>1236.37</ele>
        <time>2022-04-17T08:12:46+00:00</time>
      </trkpt>
      <trkpt lat="41.073246" lon="-3.454964">
        <ele>1234.93</ele>
        <time>2022-04-17T08:12:47+00:00</time>
      </trkpt>
      <trkpt lat="41.073633" lon="-3.454406">
        <ele>1232.05</ele>
        <time>2022-04-17T08:12:50+00:00</time>
      </trkpt>
      <trkpt lat="41.073804" lon="-3.454235">
        <ele>1230.60</ele>
        <time>2022-04-17T08:12:51+00:00</time>
      </trkpt>
      <trkpt lat="41.074169" lon="-3.453848">
        <ele>1228.20</ele>
        <time>2022-04-17T08:12:53+00:00</time>
      </trkpt>
      <trkpt lat="41.074341" lon="-3.453612">
        <ele>1226.76</ele>
        <time>2022-04-17T08:12:54+00:00</time>
      </trkpt>
      <trkpt lat="41.075349" lon="-3.452454">
        <ele>1220.03</ele>
        <time>2022-04-17T08:13:00+00:00</time>
      </trkpt>
      <trkpt lat="41.075993" lon="-3.451874">
        <ele>1215.22</ele>
        <time>2022-04-17T08:13:05+00:00</time>
      </trkpt>
      <trkpt lat="41.076079" lon="-3.451831">
        <ele>1214.74</ele>
        <time>2022-04-17T08:13:06+00:00</time>
      </trkpt>
      <trkpt lat="41.076186" lon="-3.451767">
        <ele>1213.78</ele>
        <time>2022-04-17T08:13:07+00:00</time>
      </trkpt>
      <trkpt lat="41.076937" lon="-3.451359">
        <ele>1209.46</ele>
        <time>2022-04-17T08:13:12+00:00</time>
      </trkpt>
      <trkpt lat="41.077066" lon="-3.451252">
        <ele>1208.49</ele>
        <time>2022-04-17T08:13:13+00:00</time>
      </trkpt>
      <trkpt lat="41.077173" lon="-3.451123">
        <ele>1207.53</ele>
        <time>2022-04-17T08:13:14+00:00</time>
      </trkpt>
      <trkpt lat="41.077281" lon="-3.450952">
        <ele>1206.57</ele>
        <time>2022-04-17T08:13:15+00:00</time>
      </trkpt>
      <trkpt lat="41.077452" lon="-3.450673">
        <ele>1205.13</ele>
        <time>2022-04-17T08:13:17+00:00</time>
      </trkpt>
      <trkpt lat="41.077581" lon="-3.450544">
        <ele>1204.17</ele>
        <time>2022-04-17T08:13:18+00:00</time>
      </trkpt>
      <trkpt lat="41.077731" lon="-3.450458">
        <ele>1203.21</ele>
        <time>2022-04-17T08:13:19+00:00</time>
      </trkpt>
      <trkpt lat="41.078418" lon="-3.450007">
        <ele>1199.36</ele>
        <time>2022-04-17T08:13:23+00:00</time>
      </trkpt>
      <trkpt lat="41.078568" lon="-3.449922">
        <ele>1198.40</ele>
        <time>2022-04-17T08:13:24+00:00</time>
      </trkpt>
      <trkpt lat="41.078697" lon="-3.449750">
        <ele>1197.44</ele>
        <time>2022-04-17T08:13:25+00:00</time>
      </trkpt>
      <trkpt lat="41.078804" lon="-3.449578">
        <ele>1196.48</ele>
        <time>2022-04-17T08:13:26+00:00</time>
      </trkpt>
      <trkpt lat="41.078868" lon="-3.449385">
        <ele>1195.52</ele>
        <time>2022-04-17T08:13:27+00:00</time>
      </trkpt>
      <trkpt lat="41.078954" lon="-3.449192">
        <ele>1194.55</ele>
        <time>2022-04-17T08:13:28+00:00</time>
      </trkpt>
      <trkpt lat="41.079062" lon="-3.449042">
        <ele>1193.59</ele>
        <time>2022-04-17T08:13:29+00:00</time>
      </trkpt>
      <trkpt lat="41.079147" lon="-3.448892">
        <ele>1192.63</ele>
        <time>2022-04-17T08:13:30+00:00</time>
      </trkpt>
      <trkpt lat="41.079298" lon="-3.448784">
        <ele>1191.19</ele>
        <time>2022-04-17T08:13:31+00:00</time>
      </trkpt>
      <trkpt lat="41.079469" lon="-3.448699">
        <ele>1190.23</ele>
        <time>2022-04-17T08:13:32+00:00</time>
      </trkpt>
      <trkpt lat="41.079641" lon="-3.448613">
        <ele>1189.27</ele>
        <time>2022-04-17T08:13:33+00:00</time>
      </trkpt>
      <trkpt lat="41.080070" lon="-3.448377">
        <ele>1185.90</ele>
        <time>2022-04-17T08:13:36+00:00</time>
      </trkpt>
      <trkpt lat="41.080177" lon="-3.448312">
        <ele>1184.94</ele>
        <time>2022-04-17T08:13:37+00:00</time>
      </trkpt>
      <trkpt lat="41.080242" lon="-3.448205">
        <ele>1184.46</ele>
        <time>2022-04-17T08:13:38+00:00</time>
      </trkpt>
      <trkpt lat="41.080285" lon="-3.448098">
        <ele>1183.98</ele>
        <time>2022-04-17T08:13:39+00:00</time>
      </trkpt>
      <trkpt lat="41.080285" lon="-3.447948">
        <ele>1183.50</ele>
        <time>2022-04-17T08:13:40+00:00</time>
      </trkpt>
      <trkpt lat="41.080285" lon="-3.447754">
        <ele>1182.54</ele>
        <time>2022-04-17T08:13:41+00:00</time>
      </trkpt>
      <trkpt lat="41.080328" lon="-3.447025">
        <ele>1179.65</ele>
        <time>2022-04-17T08:13:44+00:00</time>
      </trkpt>
      <trkpt lat="41.080671" lon="-3.445480">
        <ele>1172.93</ele>
        <time>2022-04-17T08:13:50+00:00</time>
      </trkpt>
      <trkpt lat="41.080864" lon="-3.445072">
        <ele>1171.00</ele>
        <time>2022-04-17T08:13:52+00:00</time>
      </trkpt>
      <trkpt lat="41.080971" lon="-3.444901">
        <ele>1169.56</ele>
        <time>2022-04-17T08:13:53+00:00</time>
      </trkpt>
      <trkpt lat="41.081121" lon="-3.444686">
        <ele>1168.60</ele>
        <time>2022-04-17T08:13:54+00:00</time>
      </trkpt>
      <trkpt lat="41.081272" lon="-3.444514">
        <ele>1167.64</ele>
        <time>2022-04-17T08:13:55+00:00</time>
      </trkpt>
      <trkpt lat="41.081422" lon="-3.444343">
        <ele>1166.68</ele>
        <time>2022-04-17T08:13:56+00:00</time>
      </trkpt>
      <trkpt lat="41.081765" lon="-3.443956">
        <ele>1163.79</ele>
        <time>2022-04-17T08:13:59+00:00</time>
      </trkpt>
      <trkpt lat="41.081830" lon="-3.443828">
        <ele>1162.83</ele>
        <time>2022-04-17T08:14:00+00:00</time>
      </trkpt>
      <trkpt lat="41.081851" lon="-3.443656">
        <ele>1161.87</ele>
        <time>2022-04-17T08:14:01+00:00</time>
      </trkpt>
      <trkpt lat="41.081830" lon="-3.443441">
        <ele>1160.91</ele>
        <time>2022-04-17T08:14:02+00:00</time>
      </trkpt>
      <trkpt lat="41.081787" lon="-3.443205">
        <ele>1159.47</ele>
        <time>2022-04-17T08:14:03+00:00</time>
      </trkpt>
      <trkpt lat="41.081744" lon="-3.442948">
        <ele>1158.51</ele>
        <time>2022-04-17T08:14:04+00:00</time>
      </trkpt>
      <trkpt lat="41.081701" lon="-3.442669">
        <ele>1157.06</ele>
        <time>2022-04-17T08:14:05+00:00</time>
      </trkpt>
      <trkpt lat="41.081679" lon="-3.442390">
        <ele>1156.10</ele>
        <time>2022-04-17T08:14:06+00:00</time>
      </trkpt>
      <trkpt lat="41.081701" lon="-3.441231">
        <ele>1150.82</ele>
        <time>2022-04-17T08:14:11+00:00</time>
      </trkpt>
      <trkpt lat="41.081679" lon="-3.441081">
        <ele>1150.33</ele>
        <time>2022-04-17T08:14:12+00:00</time>
      </trkpt>
      <trkpt lat="41.081636" lon="-3.440974">
        <ele>1149.37</ele>
        <time>2022-04-17T08:14:13+00:00</time>
      </trkpt>
      <trkpt lat="41.081551" lon="-3.440888">
        <ele>1148.89</ele>
        <time>2022-04-17T08:14:14+00:00</time>
      </trkpt>
      <trkpt lat="41.081422" lon="-3.440802">
        <ele>1147.93</ele>
        <time>2022-04-17T08:14:15+00:00</time>
      </trkpt>
      <trkpt lat="41.081293" lon="-3.440673">
        <ele>1146.97</ele>
        <time>2022-04-17T08:14:16+00:00</time>
      </trkpt>
      <trkpt lat="41.081164" lon="-3.440545">
        <ele>1146.01</ele>
        <time>2022-04-17T08:14:17+00:00</time>
      </trkpt>
      <trkpt lat="41.081057" lon="-3.440394">
        <ele>1145.53</ele>
        <time>2022-04-17T08:14:18+00:00</time>
      </trkpt>
      <trkpt lat="41.080971" lon="-3.440244">
        <ele>1145.05</ele>
        <time>2022-04-17T08:14:19+00:00</time>
      </trkpt>
      <trkpt lat="41.080928" lon="-3.440115">
        <ele>1144.57</ele>
        <time>2022-04-17T08:14:20+00:00</time>
      </trkpt>
      <trkpt lat="41.080885" lon="-3.440008">
        <ele>1144.09</ele>
        <time>2022-04-17T08:14:21+00:00</time>
      </trkpt>
      <trkpt lat="41.080842" lon="-3.439901">
        <ele>1143.61</ele>
        <time>2022-04-17T08:14:22+00:00</time>
      </trkpt>
      <trkpt lat="41.080864" lon="-3.439751">
        <ele>1143.12</ele>
        <time>2022-04-17T08:14:23+00:00</time>
      </trkpt>
      <trkpt lat="41.080907" lon="-3.439601">
        <ele>1142.64</ele>
        <time>2022-04-17T08:14:24+00:00</time>
      </trkpt>
      <trkpt lat="41.080950" lon="-3.439450">
        <ele>1141.68</ele>
        <time>2022-04-17T08:14:25+00:00</time>
      </trkpt>
      <trkpt lat="41.081036" lon="-3.439322">
        <ele>1141.68</ele>
        <time>2022-04-17T08:14:26+00:00</time>
      </trkpt>
      <trkpt lat="41.081164" lon="-3.439214">
        <ele>1141.20</ele>
        <time>2022-04-17T08:14:27+00:00</time>
      </trkpt>
      <trkpt lat="41.081336" lon="-3.439086">
        <ele>1141.20</ele>
        <time>2022-04-17T08:14:28+00:00</time>
      </trkpt>
      <trkpt lat="41.081787" lon="-3.438742">
        <ele>1141.68</ele>
        <time>2022-04-17T08:14:31+00:00</time>
      </trkpt>
      <trkpt lat="41.081872" lon="-3.438635">
        <ele>1141.68</ele>
        <time>2022-04-17T08:14:32+00:00</time>
      </trkpt>
      <trkpt lat="41.081915" lon="-3.438485">
        <ele>1141.68</ele>
        <time>2022-04-17T08:14:33+00:00</time>
      </trkpt>
      <trkpt lat="41.081937" lon="-3.438313">
        <ele>1141.20</ele>
        <time>2022-04-17T08:14:34+00:00</time>
      </trkpt>
      <trkpt lat="41.081937" lon="-3.438120">
        <ele>1141.20</ele>
        <time>2022-04-17T08:14:35+00:00</time>
      </trkpt>
      <trkpt lat="41.081980" lon="-3.437755">
        <ele>1139.76</ele>
        <time>2022-04-17T08:14:37+00:00</time>
      </trkpt>
      <trkpt lat="41.082023" lon="-3.437605">
        <ele>1138.80</ele>
        <time>2022-04-17T08:14:38+00:00</time>
      </trkpt>
      <trkpt lat="41.082130" lon="-3.437433">
        <ele>1138.32</ele>
        <time>2022-04-17T08:14:39+00:00</time>
      </trkpt>
      <trkpt lat="41.083074" lon="-3.436446">
        <ele>1136.88</ele>
        <time>2022-04-17T08:14:45+00:00</time>
      </trkpt>
      <trkpt lat="41.083696" lon="-3.435609">
        <ele>1137.84</ele>
        <time>2022-04-17T08:14:50+00:00</time>
      </trkpt>
      <trkpt lat="41.083718" lon="-3.435481">
        <ele>1138.32</ele>
        <time>2022-04-17T08:14:51+00:00</time>
      </trkpt>
      <trkpt lat="41.083739" lon="-3.435309">
        <ele>1138.80</ele>
        <time>2022-04-17T08:14:52+00:00</time>
      </trkpt>
      <trkpt lat="41.083653" lon="-3.435159">
        <ele>1139.28</ele>
        <time>2022-04-17T08:14:53+00:00</time>
      </trkpt>
      <trkpt lat="41.083589" lon="-3.434987">
        <ele>1139.28</ele>
        <time>2022-04-17T08:14:54+00:00</time>
      </trkpt>
      <trkpt lat="41.083503" lon="-3.434815">
        <ele>1139.28</ele>
        <time>2022-04-17T08:14:55+00:00</time>
      </trkpt>
      <trkpt lat="41.083439" lon="-3.434601">
        <ele>1138.80</ele>
        <time>2022-04-17T08:14:56+00:00</time>
      </trkpt>
      <trkpt lat="41.083417" lon="-3.434386">
        <ele>1138.32</ele>
        <time>2022-04-17T08:14:57+00:00</time>
      </trkpt>
      <trkpt lat="41.083396" lon="-3.434129">
        <ele>1137.84</ele>
        <time>2022-04-17T08:14:58+00:00</time>
      </trkpt>
      <trkpt lat="41.083439" lon="-3.433871">
        <ele>1136.88</ele>
        <time>2022-04-17T08:14:59+00:00</time>
      </trkpt>
      <trkpt lat="41.083460" lon="-3.433592">
        <ele>1136.40</ele>
        <time>2022-04-17T08:15:00+00:00</time>
      </trkpt>
      <trkpt lat="41.083525" lon="-3.433313">
        <ele>1135.43</ele>
        <time>2022-04-17T08:15:01+00:00</time>
      </trkpt>
      <trkpt lat="41.083653" lon="-3.432820">
        <ele>1133.99</ele>
        <time>2022-04-17T08:15:03+00:00</time>
      </trkpt>
      <trkpt lat="41.083739" lon="-3.432627">
        <ele>1133.51</ele>
        <time>2022-04-17T08:15:04+00:00</time>
      </trkpt>
      <trkpt lat="41.083847" lon="-3.432434">
        <ele>1132.55</ele>
        <time>2022-04-17T08:15:05+00:00</time>
      </trkpt>
      <trkpt lat="41.084040" lon="-3.431919">
        <ele>1131.59</ele>
        <time>2022-04-17T08:15:08+00:00</time>
      </trkpt>
      <trkpt lat="41.084083" lon="-3.431768">
        <ele>1131.59</ele>
        <time>2022-04-17T08:15:09+00:00</time>
      </trkpt>
      <trkpt lat="41.084061" lon="-3.431575">
        <ele>1131.11</ele>
        <time>2022-04-17T08:15:10+00:00</time>
      </trkpt>
      <trkpt lat="41.084018" lon="-3.431404">
        <ele>1130.63</ele>
        <time>2022-04-17T08:15:11+00:00</time>
      </trkpt>
      <trkpt lat="41.083975" lon="-3.431232">
        <ele>1130.15</ele>
        <time>2022-04-17T08:15:12+00:00</time>
      </trkpt>
      <trkpt lat="41.083847" lon="-3.431103">
        <ele>1129.67</ele>
        <time>2022-04-17T08:15:13+00:00</time>
      </trkpt>
      <trkpt lat="41.083739" lon="-3.430975">
        <ele>1128.71</ele>
        <time>2022-04-17T08:15:14+00:00</time>
      </trkpt>
      <trkpt lat="41.083632" lon="-3.430824">
        <ele>1128.22</ele>
        <time>2022-04-17T08:15:15+00:00</time>
      </trkpt>
      <trkpt lat="41.083568" lon="-3.430674">
        <ele>1127.26</ele>
        <time>2022-04-17T08:15:16+00:00</time>
      </trkpt>
      <trkpt lat="41.083503" lon="-3.430545">
        <ele>1126.78</ele>
        <time>2022-04-17T08:15:17+00:00</time>
      </trkpt>
      <trkpt lat="41.083482" lon="-3.430395">
        <ele>1126.30</ele>
        <time>2022-04-17T08:15:18+00:00</time>
      </trkpt>
      <trkpt lat="41.083460" lon="-3.430288">
        <ele>1125.82</ele>
        <time>2022-04-17T08:15:19+00:00</time>
      </trkpt>
      <trkpt lat="41.083482" lon="-3.430181">
        <ele>1125.34</ele>
        <time>2022-04-17T08:15:20+00:00</time>
      </trkpt>
      <trkpt lat="41.083568" lon="-3.430052">
        <ele>1124.86</ele>
        <time>2022-04-17T08:15:21+00:00</time>
      </trkpt>
      <trkpt lat="41.083653" lon="-3.429902">
        <ele>1124.86</ele>
        <time>2022-04-17T08:15:22+00:00</time>
      </trkpt>
      <trkpt lat="41.083804" lon="-3.429773">
        <ele>1124.38</ele>
        <time>2022-04-17T08:15:23+00:00</time>
      </trkpt>
      <trkpt lat="41.083954" lon="-3.429666">
        <ele>1123.90</ele>
        <time>2022-04-17T08:15:24+00:00</time>
      </trkpt>
      <trkpt lat="41.084104" lon="-3.429537">
        <ele>1123.90</ele>
        <time>2022-04-17T08:15:25+00:00</time>
      </trkpt>
      <trkpt lat="41.084641" lon="-3.429215">
        <ele>1122.94</ele>
        <time>2022-04-17T08:15:29+00:00</time>
      </trkpt>
      <trkpt lat="41.084791" lon="-3.429236">
        <ele>1123.90</ele>
        <time>2022-04-17T08:15:30+00:00</time>
      </trkpt>
      <trkpt lat="41.085392" lon="-3.429365">
        <ele>1127.74</ele>
        <time>2022-04-17T08:15:34+00:00</time>
      </trkpt>
      <trkpt lat="41.085542" lon="-3.429430">
        <ele>1129.19</ele>
        <time>2022-04-17T08:15:35+00:00</time>
      </trkpt>
      <trkpt lat="41.085907" lon="-3.429601">
        <ele>1132.55</ele>
        <time>2022-04-17T08:15:38+00:00</time>
      </trkpt>
      <trkpt lat="41.086014" lon="-3.429580">
        <ele>1133.51</ele>
        <time>2022-04-17T08:15:39+00:00</time>
      </trkpt>
      <trkpt lat="41.086100" lon="-3.429515">
        <ele>1134.47</ele>
        <time>2022-04-17T08:15:40+00:00</time>
      </trkpt>
      <trkpt lat="41.086207" lon="-3.429430">
        <ele>1135.91</ele>
        <time>2022-04-17T08:15:41+00:00</time>
      </trkpt>
      <trkpt lat="41.086293" lon="-3.429301">
        <ele>1137.36</ele>
        <time>2022-04-17T08:15:42+00:00</time>
      </trkpt>
      <trkpt lat="41.086400" lon="-3.429151">
        <ele>1138.32</ele>
        <time>2022-04-17T08:15:43+00:00</time>
      </trkpt>
      <trkpt lat="41.086529" lon="-3.428979">
        <ele>1140.24</ele>
        <time>2022-04-17T08:15:44+00:00</time>
      </trkpt>
      <trkpt lat="41.086658" lon="-3.428850">
        <ele>1141.68</ele>
        <time>2022-04-17T08:15:45+00:00</time>
      </trkpt>
      <trkpt lat="41.087130" lon="-3.428485">
        <ele>1146.97</ele>
        <time>2022-04-17T08:15:48+00:00</time>
      </trkpt>
      <trkpt lat="41.087301" lon="-3.428421">
        <ele>1148.89</ele>
        <time>2022-04-17T08:15:49+00:00</time>
      </trkpt>
      <trkpt lat="41.087666" lon="-3.428271">
        <ele>1153.22</ele>
        <time>2022-04-17T08:15:51+00:00</time>
      </trkpt>
      <trkpt lat="41.087795" lon="-3.428164">
        <ele>1155.14</ele>
        <time>2022-04-17T08:15:52+00:00</time>
      </trkpt>
      <trkpt lat="41.088439" lon="-3.427734">
        <ele>1163.79</ele>
        <time>2022-04-17T08:15:57+00:00</time>
      </trkpt>
      <trkpt lat="41.088975" lon="-3.427563">
        <ele>1170.04</ele>
        <time>2022-04-17T08:16:01+00:00</time>
      </trkpt>
      <trkpt lat="41.089104" lon="-3.427584">
        <ele>1171.48</ele>
        <time>2022-04-17T08:16:02+00:00</time>
      </trkpt>
      <trkpt lat="41.089232" lon="-3.427627">
        <ele>1172.93</ele>
        <time>2022-04-17T08:16:03+00:00</time>
      </trkpt>
      <trkpt lat="41.089383" lon="-3.427691">
        <ele>1173.89</ele>
        <time>2022-04-17T08:16:04+00:00</time>
      </trkpt>
      <trkpt lat="41.089490" lon="-3.427734">
        <ele>1175.33</ele>
        <time>2022-04-17T08:16:05+00:00</time>
      </trkpt>
      <trkpt lat="41.089898" lon="-3.427949">
        <ele>1179.17</ele>
        <time>2022-04-17T08:16:09+00:00</time>
      </trkpt>
      <trkpt lat="41.089983" lon="-3.428013">
        <ele>1180.14</ele>
        <time>2022-04-17T08:16:10+00:00</time>
      </trkpt>
      <trkpt lat="41.090069" lon="-3.428099">
        <ele>1180.62</ele>
        <time>2022-04-17T08:16:11+00:00</time>
      </trkpt>
      <trkpt lat="41.090305" lon="-3.428357">
        <ele>1183.02</ele>
        <time>2022-04-17T08:16:15+00:00</time>
      </trkpt>
      <trkpt lat="41.090370" lon="-3.428400">
        <ele>1183.50</ele>
        <time>2022-04-17T08:16:16+00:00</time>
      </trkpt>
      <trkpt lat="41.090413" lon="-3.428443">
        <ele>1183.50</ele>
        <time>2022-04-17T08:16:17+00:00</time>
      </trkpt>
      <trkpt lat="41.090456" lon="-3.428485">
        <ele>1183.50</ele>
        <time>2022-04-17T08:16:18+00:00</time>
      </trkpt>
      <trkpt lat="41.090541" lon="-3.428485">
        <ele>1183.98</ele>
        <time>2022-04-17T08:16:19+00:00</time>
      </trkpt>
      <trkpt lat="41.090606" lon="-3.428443">
        <ele>1183.98</ele>
        <time>2022-04-17T08:16:20+00:00</time>
      </trkpt>
      <trkpt lat="41.090692" lon="-3.428400">
        <ele>1184.46</ele>
        <time>2022-04-17T08:16:21+00:00</time>
      </trkpt>
      <trkpt lat="41.090799" lon="-3.428335">
        <ele>1185.42</ele>
        <time>2022-04-17T08:16:22+00:00</time>
      </trkpt>
      <trkpt lat="41.090885" lon="-3.428249">
        <ele>1186.86</ele>
        <time>2022-04-17T08:16:23+00:00</time>
      </trkpt>
      <trkpt lat="41.091013" lon="-3.428121">
        <ele>1187.83</ele>
        <time>2022-04-17T08:16:24+00:00</time>
      </trkpt>
      <trkpt lat="41.091099" lon="-3.428035">
        <ele>1189.27</ele>
        <time>2022-04-17T08:16:25+00:00</time>
      </trkpt>
      <trkpt lat="41.091207" lon="-3.427885">
        <ele>1190.71</ele>
        <time>2022-04-17T08:16:26+00:00</time>
      </trkpt>
      <trkpt lat="41.091292" lon="-3.427734">
        <ele>1191.67</ele>
        <time>2022-04-17T08:16:27+00:00</time>
      </trkpt>
      <trkpt lat="41.091528" lon="-3.427284">
        <ele>1195.52</ele>
        <time>2022-04-17T08:16:30+00:00</time>
      </trkpt>
      <trkpt lat="41.091550" lon="-3.427155">
        <ele>1197.44</ele>
        <time>2022-04-17T08:16:31+00:00</time>
      </trkpt>
      <trkpt lat="41.091550" lon="-3.427005">
        <ele>1198.88</ele>
        <time>2022-04-17T08:16:32+00:00</time>
      </trkpt>
      <trkpt lat="41.091528" lon="-3.426898">
        <ele>1199.84</ele>
        <time>2022-04-17T08:16:33+00:00</time>
      </trkpt>
      <trkpt lat="41.091486" lon="-3.426812">
        <ele>1200.80</ele>
        <time>2022-04-17T08:16:34+00:00</time>
      </trkpt>
      <trkpt lat="41.091400" lon="-3.426726">
        <ele>1202.25</ele>
        <time>2022-04-17T08:16:35+00:00</time>
      </trkpt>
      <trkpt lat="41.091249" lon="-3.426640">
        <ele>1203.21</ele>
        <time>2022-04-17T08:16:36+00:00</time>
      </trkpt>
      <trkpt lat="41.091099" lon="-3.426683">
        <ele>1203.69</ele>
        <time>2022-04-17T08:16:37+00:00</time>
      </trkpt>
      <trkpt lat="41.090949" lon="-3.426747">
        <ele>1204.65</ele>
        <time>2022-04-17T08:16:38+00:00</time>
      </trkpt>
      <trkpt lat="41.090305" lon="-3.427005">
        <ele>1209.94</ele>
        <time>2022-04-17T08:16:43+00:00</time>
      </trkpt>
      <trkpt lat="41.090177" lon="-3.426962">
        <ele>1210.42</ele>
        <time>2022-04-17T08:16:44+00:00</time>
      </trkpt>
      <trkpt lat="41.090048" lon="-3.426876">
        <ele>1210.90</ele>
        <time>2022-04-17T08:16:45+00:00</time>
      </trkpt>
      <trkpt lat="41.089898" lon="-3.426790">
        <ele>1211.38</ele>
        <time>2022-04-17T08:16:46+00:00</time>
      </trkpt>
      <trkpt lat="41.089747" lon="-3.426619">
        <ele>1211.86</ele>
        <time>2022-04-17T08:16:47+00:00</time>
      </trkpt>
      <trkpt lat="41.089619" lon="-3.426447">
        <ele>1211.86</ele>
        <time>2022-04-17T08:16:48+00:00</time>
      </trkpt>
      <trkpt lat="41.089468" lon="-3.426297">
        <ele>1211.86</ele>
        <time>2022-04-17T08:16:49+00:00</time>
      </trkpt>
      <trkpt lat="41.089340" lon="-3.426168">
        <ele>1211.86</ele>
        <time>2022-04-17T08:16:50+00:00</time>
      </trkpt>
      <trkpt lat="41.089211" lon="-3.426061">
        <ele>1211.38</ele>
        <time>2022-04-17T08:16:51+00:00</time>
      </trkpt>
      <trkpt lat="41.089039" lon="-3.426082">
        <ele>1210.90</ele>
        <time>2022-04-17T08:16:52+00:00</time>
      </trkpt>
      <trkpt lat="41.088868" lon="-3.426125">
        <ele>1210.42</ele>
        <time>2022-04-17T08:16:53+00:00</time>
      </trkpt>
      <trkpt lat="41.088675" lon="-3.426147">
        <ele>1210.42</ele>
        <time>2022-04-17T08:16:54+00:00</time>
      </trkpt>
      <trkpt lat="41.087709" lon="-3.426104">
        <ele>1213.78</ele>
        <time>2022-04-17T08:16:59+00:00</time>
      </trkpt>
      <trkpt lat="41.087537" lon="-3.425996">
        <ele>1214.74</ele>
        <time>2022-04-17T08:17:00+00:00</time>
      </trkpt>
      <trkpt lat="41.086507" lon="-3.425353">
        <ele>1222.43</ele>
        <time>2022-04-17T08:17:06+00:00</time>
      </trkpt>
      <trkpt lat="41.086379" lon="-3.425202">
        <ele>1223.39</ele>
        <time>2022-04-17T08:17:07+00:00</time>
      </trkpt>
      <trkpt lat="41.085649" lon="-3.424280">
        <ele>1229.16</ele>
        <time>2022-04-17T08:17:12+00:00</time>
      </trkpt>
      <trkpt lat="41.085499" lon="-3.424172">
        <ele>1230.12</ele>
        <time>2022-04-17T08:17:13+00:00</time>
      </trkpt>
      <trkpt lat="41.085327" lon="-3.424108">
        <ele>1231.08</ele>
        <time>2022-04-17T08:17:14+00:00</time>
      </trkpt>
      <trkpt lat="41.084490" lon="-3.423829">
        <ele>1233.49</ele>
        <time>2022-04-17T08:17:18+00:00</time>
      </trkpt>
      <trkpt lat="41.084276" lon="-3.423679">
        <ele>1234.45</ele>
        <time>2022-04-17T08:17:19+00:00</time>
      </trkpt>
      <trkpt lat="41.083203" lon="-3.422778">
        <ele>1238.29</ele>
        <time>2022-04-17T08:17:25+00:00</time>
      </trkpt>
      <trkpt lat="41.083074" lon="-3.422692">
        <ele>1238.78</ele>
        <time>2022-04-17T08:17:26+00:00</time>
      </trkpt>
      <trkpt lat="41.083010" lon="-3.422606">
        <ele>1239.26</ele>
        <time>2022-04-17T08:17:27+00:00</time>
      </trkpt>
      <trkpt lat="41.082967" lon="-3.422456">
        <ele>1239.74</ele>
        <time>2022-04-17T08:17:28+00:00</time>
      </trkpt>
      <trkpt lat="41.082945" lon="-3.422284">
        <ele>1239.74</ele>
        <time>2022-04-17T08:17:29+00:00</time>
      </trkpt>
      <trkpt lat="41.082988" lon="-3.422134">
        <ele>1239.74</ele>
        <time>2022-04-17T08:17:30+00:00</time>
      </trkpt>
      <trkpt lat="41.083053" lon="-3.421984">
        <ele>1240.22</ele>
        <time>2022-04-17T08:17:31+00:00</time>
      </trkpt>
      <trkpt lat="41.083181" lon="-3.421898">
        <ele>1240.22</ele>
        <time>2022-04-17T08:17:32+00:00</time>
      </trkpt>
      <trkpt lat="41.083353" lon="-3.421791">
        <ele>1240.70</ele>
        <time>2022-04-17T08:17:33+00:00</time>
      </trkpt>
      <trkpt lat="41.083546" lon="-3.421683">
        <ele>1241.18</ele>
        <time>2022-04-17T08:17:34+00:00</time>
      </trkpt>
      <trkpt lat="41.083739" lon="-3.421576">
        <ele>1241.18</ele>
        <time>2022-04-17T08:17:35+00:00</time>
      </trkpt>
      <trkpt lat="41.084533" lon="-3.421061">
        <ele>1241.18</ele>
        <time>2022-04-17T08:17:39+00:00</time>
      </trkpt>
      <trkpt lat="41.084877" lon="-3.420804">
        <ele>1241.18</ele>
        <time>2022-04-17T08:17:41+00:00</time>
      </trkpt>
      <trkpt lat="41.085048" lon="-3.420653">
        <ele>1241.66</ele>
        <time>2022-04-17T08:17:42+00:00</time>
      </trkpt>
      <trkpt lat="41.085263" lon="-3.420589">
        <ele>1241.66</ele>
        <time>2022-04-17T08:17:43+00:00</time>
      </trkpt>
      <trkpt lat="41.086057" lon="-3.420332">
        <ele>1242.14</ele>
        <time>2022-04-17T08:17:47+00:00</time>
      </trkpt>
      <trkpt lat="41.086185" lon="-3.420203">
        <ele>1242.14</ele>
        <time>2022-04-17T08:17:48+00:00</time>
      </trkpt>
      <trkpt lat="41.086314" lon="-3.420031">
        <ele>1242.14</ele>
        <time>2022-04-17T08:17:49+00:00</time>
      </trkpt>
      <trkpt lat="41.086443" lon="-3.419859">
        <ele>1241.66</ele>
        <time>2022-04-17T08:17:50+00:00</time>
      </trkpt>
      <trkpt lat="41.086572" lon="-3.419688">
        <ele>1241.66</ele>
        <time>2022-04-17T08:17:51+00:00</time>
      </trkpt>
      <trkpt lat="41.087065" lon="-3.419044">
        <ele>1243.10</ele>
        <time>2022-04-17T08:17:56+00:00</time>
      </trkpt>
      <trkpt lat="41.087130" lon="-3.418980">
        <ele>1243.58</ele>
        <time>2022-04-17T08:17:57+00:00</time>
      </trkpt>
      <trkpt lat="41.087194" lon="-3.419023">
        <ele>1244.06</ele>
        <time>2022-04-17T08:17:58+00:00</time>
      </trkpt>
      <trkpt lat="41.087280" lon="-3.419044">
        <ele>1244.06</ele>
        <time>2022-04-17T08:17:59+00:00</time>
      </trkpt>
      <trkpt lat="41.087366" lon="-3.419087">
        <ele>1244.54</ele>
        <time>2022-04-17T08:18:00+00:00</time>
      </trkpt>
      <trkpt lat="41.087494" lon="-3.419151">
        <ele>1244.54</ele>
        <time>2022-04-17T08:18:01+00:00</time>
      </trkpt>
      <trkpt lat="41.088074" lon="-3.419387">
        <ele>1245.99</ele>
        <time>2022-04-17T08:18:05+00:00</time>
      </trkpt>
      <trkpt lat="41.088245" lon="-3.419409">
        <ele>1246.47</ele>
        <time>2022-04-17T08:18:06+00:00</time>
      </trkpt>
      <trkpt lat="41.088417" lon="-3.419409">
        <ele>1246.95</ele>
        <time>2022-04-17T08:18:07+00:00</time>
      </trkpt>
      <trkpt lat="41.088717" lon="-3.419387">
        <ele>1247.91</ele>
        <time>2022-04-17T08:18:09+00:00</time>
      </trkpt>
      <trkpt lat="41.088825" lon="-3.419366">
        <ele>1248.39</ele>
        <time>2022-04-17T08:18:10+00:00</time>
      </trkpt>
      <trkpt lat="41.088911" lon="-3.419216">
        <ele>1248.87</ele>
        <time>2022-04-17T08:18:11+00:00</time>
      </trkpt>
      <trkpt lat="41.089018" lon="-3.419066">
        <ele>1249.35</ele>
        <time>2022-04-17T08:18:12+00:00</time>
      </trkpt>
      <trkpt lat="41.089125" lon="-3.418894">
        <ele>1249.83</ele>
        <time>2022-04-17T08:18:13+00:00</time>
      </trkpt>
      <trkpt lat="41.089447" lon="-3.418400">
        <ele>1253.68</ele>
        <time>2022-04-17T08:18:16+00:00</time>
      </trkpt>
      <trkpt lat="41.089576" lon="-3.418272">
        <ele>1254.64</ele>
        <time>2022-04-17T08:18:17+00:00</time>
      </trkpt>
      <trkpt lat="41.089855" lon="-3.418014">
        <ele>1257.52</ele>
        <time>2022-04-17T08:18:19+00:00</time>
      </trkpt>
      <trkpt lat="41.089919" lon="-3.417821">
        <ele>1258.48</ele>
        <time>2022-04-17T08:18:20+00:00</time>
      </trkpt>
      <trkpt lat="41.090005" lon="-3.417628">
        <ele>1259.92</ele>
        <time>2022-04-17T08:18:21+00:00</time>
      </trkpt>
      <trkpt lat="41.090069" lon="-3.417456">
        <ele>1260.89</ele>
        <time>2022-04-17T08:18:22+00:00</time>
      </trkpt>
      <trkpt lat="41.090134" lon="-3.417327">
        <ele>1262.33</ele>
        <time>2022-04-17T08:18:23+00:00</time>
      </trkpt>
      <trkpt lat="41.090155" lon="-3.417156">
        <ele>1263.29</ele>
        <time>2022-04-17T08:18:24+00:00</time>
      </trkpt>
      <trkpt lat="41.090134" lon="-3.417048">
        <ele>1264.25</ele>
        <time>2022-04-17T08:18:25+00:00</time>
      </trkpt>
      <trkpt lat="41.090091" lon="-3.416898">
        <ele>1265.21</ele>
        <time>2022-04-17T08:18:26+00:00</time>
      </trkpt>
      <trkpt lat="41.090026" lon="-3.416705">
        <ele>1265.69</ele>
        <time>2022-04-17T08:18:27+00:00</time>
      </trkpt>
      <trkpt lat="41.089941" lon="-3.416491">
        <ele>1266.65</ele>
        <time>2022-04-17T08:18:28+00:00</time>
      </trkpt>
      <trkpt lat="41.089833" lon="-3.416126">
        <ele>1268.10</ele>
        <time>2022-04-17T08:18:30+00:00</time>
      </trkpt>
      <trkpt lat="41.089833" lon="-3.415997">
        <ele>1269.06</ele>
        <time>2022-04-17T08:18:31+00:00</time>
      </trkpt>
      <trkpt lat="41.089855" lon="-3.415911">
        <ele>1269.54</ele>
        <time>2022-04-17T08:18:32+00:00</time>
      </trkpt>
      <trkpt lat="41.089919" lon="-3.415825">
        <ele>1270.02</ele>
        <time>2022-04-17T08:18:33+00:00</time>
      </trkpt>
      <trkpt lat="41.090026" lon="-3.415761">
        <ele>1270.50</ele>
        <time>2022-04-17T08:18:34+00:00</time>
      </trkpt>
      <trkpt lat="41.090134" lon="-3.415740">
        <ele>1270.98</ele>
        <time>2022-04-17T08:18:35+00:00</time>
      </trkpt>
      <trkpt lat="41.090305" lon="-3.415782">
        <ele>1270.98</ele>
        <time>2022-04-17T08:18:36+00:00</time>
      </trkpt>
      <trkpt lat="41.091378" lon="-3.415675">
        <ele>1271.94</ele>
        <time>2022-04-17T08:18:42+00:00</time>
      </trkpt>
      <trkpt lat="41.091507" lon="-3.415611">
        <ele>1271.94</ele>
        <time>2022-04-17T08:18:43+00:00</time>
      </trkpt>
      <trkpt lat="41.091571" lon="-3.415525">
        <ele>1272.42</ele>
        <time>2022-04-17T08:18:44+00:00</time>
      </trkpt>
      <trkpt lat="41.091614" lon="-3.415375">
        <ele>1272.42</ele>
        <time>2022-04-17T08:18:45+00:00</time>
      </trkpt>
      <trkpt lat="41.091657" lon="-3.415160">
        <ele>1273.38</ele>
        <time>2022-04-17T08:18:46+00:00</time>
      </trkpt>
      <trkpt lat="41.091700" lon="-3.414924">
        <ele>1273.86</ele>
        <time>2022-04-17T08:18:47+00:00</time>
      </trkpt>
      <trkpt lat="41.091722" lon="-3.414688">
        <ele>1274.82</ele>
        <time>2022-04-17T08:18:48+00:00</time>
      </trkpt>
      <trkpt lat="41.091958" lon="-3.413272">
        <ele>1276.75</ele>
        <time>2022-04-17T08:18:53+00:00</time>
      </trkpt>
      <trkpt lat="41.092043" lon="-3.413036">
        <ele>1276.75</ele>
        <time>2022-04-17T08:18:54+00:00</time>
      </trkpt>
      <trkpt lat="41.092151" lon="-3.412693">
        <ele>1277.23</ele>
        <time>2022-04-17T08:18:56+00:00</time>
      </trkpt>
      <trkpt lat="41.092151" lon="-3.412542">
        <ele>1277.71</ele>
        <time>2022-04-17T08:18:57+00:00</time>
      </trkpt>
      <trkpt lat="41.092108" lon="-3.412457">
        <ele>1277.71</ele>
        <time>2022-04-17T08:18:58+00:00</time>
      </trkpt>
      <trkpt lat="41.092022" lon="-3.412349">
        <ele>1277.71</ele>
        <time>2022-04-17T08:18:59+00:00</time>
      </trkpt>
      <trkpt lat="41.091893" lon="-3.412199">
        <ele>1278.19</ele>
        <time>2022-04-17T08:19:00+00:00</time>
      </trkpt>
      <trkpt lat="41.091807" lon="-3.411963">
        <ele>1278.67</ele>
        <time>2022-04-17T08:19:01+00:00</time>
      </trkpt>
      <trkpt lat="41.091743" lon="-3.411727">
        <ele>1278.67</ele>
        <time>2022-04-17T08:19:02+00:00</time>
      </trkpt>
      <trkpt lat="41.091679" lon="-3.411469">
        <ele>1279.15</ele>
        <time>2022-04-17T08:19:03+00:00</time>
      </trkpt>
      <trkpt lat="41.091679" lon="-3.411191">
        <ele>1279.63</ele>
        <time>2022-04-17T08:19:04+00:00</time>
      </trkpt>
      <trkpt lat="41.091657" lon="-3.410933">
        <ele>1279.63</ele>
        <time>2022-04-17T08:19:05+00:00</time>
      </trkpt>
      <trkpt lat="41.091679" lon="-3.410718">
        <ele>1280.11</ele>
        <time>2022-04-17T08:19:06+00:00</time>
      </trkpt>
      <trkpt lat="41.091700" lon="-3.410525">
        <ele>1280.11</ele>
        <time>2022-04-17T08:19:07+00:00</time>
      </trkpt>
      <trkpt lat="41.091743" lon="-3.410375">
        <ele>1280.11</ele>
        <time>2022-04-17T08:19:08+00:00</time>
      </trkpt>
      <trkpt lat="41.091850" lon="-3.410203">
        <ele>1280.59</ele>
        <time>2022-04-17T08:19:09+00:00</time>
      </trkpt>
      <trkpt lat="41.091979" lon="-3.410032">
        <ele>1281.07</ele>
        <time>2022-04-17T08:19:10+00:00</time>
      </trkpt>
      <trkpt lat="41.092129" lon="-3.409839">
        <ele>1281.55</ele>
        <time>2022-04-17T08:19:11+00:00</time>
      </trkpt>
      <trkpt lat="41.092430" lon="-3.409474">
        <ele>1282.03</ele>
        <time>2022-04-17T08:19:13+00:00</time>
      </trkpt>
      <trkpt lat="41.092623" lon="-3.409345">
        <ele>1283.00</ele>
        <time>2022-04-17T08:19:14+00:00</time>
      </trkpt>
      <trkpt lat="41.092816" lon="-3.409216">
        <ele>1283.48</ele>
        <time>2022-04-17T08:19:15+00:00</time>
      </trkpt>
      <trkpt lat="41.093288" lon="-3.408873">
        <ele>1284.92</ele>
        <time>2022-04-17T08:19:18+00:00</time>
      </trkpt>
      <trkpt lat="41.093417" lon="-3.408723">
        <ele>1285.88</ele>
        <time>2022-04-17T08:19:19+00:00</time>
      </trkpt>
      <trkpt lat="41.093739" lon="-3.408358">
        <ele>1288.28</ele>
        <time>2022-04-17T08:19:22+00:00</time>
      </trkpt>
      <trkpt lat="41.093824" lon="-3.408315">
        <ele>1289.24</ele>
        <time>2022-04-17T08:19:23+00:00</time>
      </trkpt>
      <trkpt lat="41.093932" lon="-3.408315">
        <ele>1290.69</ele>
        <time>2022-04-17T08:19:24+00:00</time>
      </trkpt>
      <trkpt lat="41.094039" lon="-3.408401">
        <ele>1291.65</ele>
        <time>2022-04-17T08:19:25+00:00</time>
      </trkpt>
      <trkpt lat="41.094168" lon="-3.408508">
        <ele>1293.09</ele>
        <time>2022-04-17T08:19:26+00:00</time>
      </trkpt>
      <trkpt lat="41.095155" lon="-3.409345">
        <ele>1304.62</ele>
        <time>2022-04-17T08:19:32+00:00</time>
      </trkpt>
      <trkpt lat="41.097064" lon="-3.410697">
        <ele>1322.41</ele>
        <time>2022-04-17T08:19:42+00:00</time>
      </trkpt>
      <trkpt lat="41.097236" lon="-3.410761">
        <ele>1323.85</ele>
        <time>2022-04-17T08:19:43+00:00</time>
      </trkpt>
      <trkpt lat="41.097408" lon="-3.410826">
        <ele>1325.77</ele>
        <time>2022-04-17T08:19:44+00:00</time>
      </trkpt>
      <trkpt lat="41.097579" lon="-3.410847">
        <ele>1327.70</ele>
        <time>2022-04-17T08:19:45+00:00</time>
      </trkpt>
      <trkpt lat="41.097730" lon="-3.410826">
        <ele>1329.14</ele>
        <time>2022-04-17T08:19:46+00:00</time>
      </trkpt>
      <trkpt lat="41.097880" lon="-3.410804">
        <ele>1330.58</ele>
        <time>2022-04-17T08:19:47+00:00</time>
      </trkpt>
      <trkpt lat="41.098009" lon="-3.410740">
        <ele>1331.54</ele>
        <time>2022-04-17T08:19:48+00:00</time>
      </trkpt>
      <trkpt lat="41.098116" lon="-3.410633">
        <ele>1332.98</ele>
        <time>2022-04-17T08:19:49+00:00</time>
      </trkpt>
      <trkpt lat="41.098223" lon="-3.410440">
        <ele>1333.95</ele>
        <time>2022-04-17T08:19:50+00:00</time>
      </trkpt>
      <trkpt lat="41.098352" lon="-3.410246">
        <ele>1334.43</ele>
        <time>2022-04-17T08:19:51+00:00</time>
      </trkpt>
      <trkpt lat="41.098502" lon="-3.410032">
        <ele>1334.91</ele>
        <time>2022-04-17T08:19:52+00:00</time>
      </trkpt>
      <trkpt lat="41.098631" lon="-3.409796">
        <ele>1335.39</ele>
        <time>2022-04-17T08:19:53+00:00</time>
      </trkpt>
      <trkpt lat="41.099060" lon="-3.409088">
        <ele>1336.35</ele>
        <time>2022-04-17T08:19:57+00:00</time>
      </trkpt>
      <trkpt lat="41.099082" lon="-3.408895">
        <ele>1336.35</ele>
        <time>2022-04-17T08:19:58+00:00</time>
      </trkpt>
      <trkpt lat="41.099082" lon="-3.408680">
        <ele>1336.35</ele>
        <time>2022-04-17T08:19:59+00:00</time>
      </trkpt>
      <trkpt lat="41.099082" lon="-3.408444">
        <ele>1336.35</ele>
        <time>2022-04-17T08:20:00+00:00</time>
      </trkpt>
      <trkpt lat="41.099082" lon="-3.408165">
        <ele>1336.35</ele>
        <time>2022-04-17T08:20:01+00:00</time>
      </trkpt>
      <trkpt lat="41.099082" lon="-3.406534">
        <ele>1334.91</ele>
        <time>2022-04-17T08:20:07+00:00</time>
      </trkpt>
      <trkpt lat="41.099103" lon="-3.406320">
        <ele>1334.43</ele>
        <time>2022-04-17T08:20:08+00:00</time>
      </trkpt>
      <trkpt lat="41.099167" lon="-3.406105">
        <ele>1333.95</ele>
        <time>2022-04-17T08:20:09+00:00</time>
      </trkpt>
      <trkpt lat="41.099253" lon="-3.405891">
        <ele>1333.95</ele>
        <time>2022-04-17T08:20:10+00:00</time>
      </trkpt>
      <trkpt lat="41.099360" lon="-3.405654">
        <ele>1333.46</ele>
        <time>2022-04-17T08:20:11+00:00</time>
      </trkpt>
      <trkpt lat="41.099468" lon="-3.405397">
        <ele>1333.95</ele>
        <time>2022-04-17T08:20:12+00:00</time>
      </trkpt>
      <trkpt lat="41.099618" lon="-3.405161">
        <ele>1334.43</ele>
        <time>2022-04-17T08:20:13+00:00</time>
      </trkpt>
      <trkpt lat="41.100584" lon="-3.404131">
        <ele>1338.27</ele>
        <time>2022-04-17T08:20:19+00:00</time>
      </trkpt>
      <trkpt lat="41.100820" lon="-3.403959">
        <ele>1338.75</ele>
        <time>2022-04-17T08:20:21+00:00</time>
      </trkpt>
      <trkpt lat="41.100863" lon="-3.403852">
        <ele>1339.23</ele>
        <time>2022-04-17T08:20:22+00:00</time>
      </trkpt>
      <trkpt lat="41.100884" lon="-3.403788">
        <ele>1339.71</ele>
        <time>2022-04-17T08:20:23+00:00</time>
      </trkpt>
      <trkpt lat="41.100863" lon="-3.403680">
        <ele>1340.19</ele>
        <time>2022-04-17T08:20:24+00:00</time>
      </trkpt>
      <trkpt lat="41.100841" lon="-3.403552">
        <ele>1340.67</ele>
        <time>2022-04-17T08:20:25+00:00</time>
      </trkpt>
      <trkpt lat="41.100777" lon="-3.403401">
        <ele>1340.67</ele>
        <time>2022-04-17T08:20:26+00:00</time>
      </trkpt>
      <trkpt lat="41.100691" lon="-3.403208">
        <ele>1340.67</ele>
        <time>2022-04-17T08:20:27+00:00</time>
      </trkpt>
      <trkpt lat="41.099983" lon="-3.402092">
        <ele>1339.71</ele>
        <time>2022-04-17T08:20:33+00:00</time>
      </trkpt>
      <trkpt lat="41.099940" lon="-3.401899">
        <ele>1339.23</ele>
        <time>2022-04-17T08:20:34+00:00</time>
      </trkpt>
      <trkpt lat="41.099918" lon="-3.401771">
        <ele>1339.23</ele>
        <time>2022-04-17T08:20:35+00:00</time>
      </trkpt>
      <trkpt lat="41.099918" lon="-3.401620">
        <ele>1339.23</ele>
        <time>2022-04-17T08:20:36+00:00</time>
      </trkpt>
      <trkpt lat="41.099983" lon="-3.401513">
        <ele>1338.75</ele>
        <time>2022-04-17T08:20:37+00:00</time>
      </trkpt>
      <trkpt lat="41.100090" lon="-3.401449">
        <ele>1338.75</ele>
        <time>2022-04-17T08:20:38+00:00</time>
      </trkpt>
      <trkpt lat="41.100240" lon="-3.401406">
        <ele>1338.75</ele>
        <time>2022-04-17T08:20:39+00:00</time>
      </trkpt>
      <trkpt lat="41.100412" lon="-3.401363">
        <ele>1339.23</ele>
        <time>2022-04-17T08:20:40+00:00</time>
      </trkpt>
      <trkpt lat="41.100605" lon="-3.401299">
        <ele>1339.71</ele>
        <time>2022-04-17T08:20:41+00:00</time>
      </trkpt>
      <trkpt lat="41.100991" lon="-3.401191">
        <ele>1340.19</ele>
        <time>2022-04-17T08:20:43+00:00</time>
      </trkpt>
      <trkpt lat="41.101163" lon="-3.401105">
        <ele>1341.15</ele>
        <time>2022-04-17T08:20:44+00:00</time>
      </trkpt>
      <trkpt lat="41.102365" lon="-3.400462">
        <ele>1338.75</ele>
        <time>2022-04-17T08:20:50+00:00</time>
      </trkpt>
      <trkpt lat="41.103051" lon="-3.400140">
        <ele>1335.39</ele>
        <time>2022-04-17T08:20:54+00:00</time>
      </trkpt>
      <trkpt lat="41.103223" lon="-3.400118">
        <ele>1334.43</ele>
        <time>2022-04-17T08:20:55+00:00</time>
      </trkpt>
      <trkpt lat="41.103395" lon="-3.400140">
        <ele>1332.98</ele>
        <time>2022-04-17T08:20:56+00:00</time>
      </trkpt>
      <trkpt lat="41.103588" lon="-3.400183">
        <ele>1331.54</ele>
        <time>2022-04-17T08:20:57+00:00</time>
      </trkpt>
      <trkpt lat="41.103781" lon="-3.400226">
        <ele>1330.10</ele>
        <time>2022-04-17T08:20:58+00:00</time>
      </trkpt>
      <trkpt lat="41.104124" lon="-3.400290">
        <ele>1326.74</ele>
        <time>2022-04-17T08:21:00+00:00</time>
      </trkpt>
      <trkpt lat="41.104231" lon="-3.400290">
        <ele>1325.29</ele>
        <time>2022-04-17T08:21:01+00:00</time>
      </trkpt>
      <trkpt lat="41.104360" lon="-3.400204">
        <ele>1324.33</ele>
        <time>2022-04-17T08:21:02+00:00</time>
      </trkpt>
      <trkpt lat="41.104446" lon="-3.400140">
        <ele>1323.37</ele>
        <time>2022-04-17T08:21:03+00:00</time>
      </trkpt>
      <trkpt lat="41.104489" lon="-3.400075">
        <ele>1322.41</ele>
        <time>2022-04-17T08:21:04+00:00</time>
      </trkpt>
      <trkpt lat="41.104532" lon="-3.399904">
        <ele>1322.41</ele>
        <time>2022-04-17T08:21:05+00:00</time>
      </trkpt>
      <trkpt lat="41.104596" lon="-3.399711">
        <ele>1321.93</ele>
        <time>2022-04-17T08:21:06+00:00</time>
      </trkpt>
      <trkpt lat="41.105047" lon="-3.398380">
        <ele>1324.33</ele>
        <time>2022-04-17T08:21:12+00:00</time>
      </trkpt>
      <trkpt lat="41.105133" lon="-3.398166">
        <ele>1324.81</ele>
        <time>2022-04-17T08:21:13+00:00</time>
      </trkpt>
      <trkpt lat="41.105283" lon="-3.397994">
        <ele>1325.29</ele>
        <time>2022-04-17T08:21:14+00:00</time>
      </trkpt>
      <trkpt lat="41.105454" lon="-3.397801">
        <ele>1325.77</ele>
        <time>2022-04-17T08:21:15+00:00</time>
      </trkpt>
      <trkpt lat="41.105626" lon="-3.397608">
        <ele>1326.25</ele>
        <time>2022-04-17T08:21:16+00:00</time>
      </trkpt>
      <trkpt lat="41.105819" lon="-3.397436">
        <ele>1325.77</ele>
        <time>2022-04-17T08:21:17+00:00</time>
      </trkpt>
      <trkpt lat="41.107021" lon="-3.396342">
        <ele>1327.22</ele>
        <time>2022-04-17T08:21:23+00:00</time>
      </trkpt>
      <trkpt lat="41.107257" lon="-3.396084">
        <ele>1327.70</ele>
        <time>2022-04-17T08:21:25+00:00</time>
      </trkpt>
      <trkpt lat="41.107343" lon="-3.395913">
        <ele>1328.18</ele>
        <time>2022-04-17T08:21:26+00:00</time>
      </trkpt>
      <trkpt lat="41.107407" lon="-3.395698">
        <ele>1329.14</ele>
        <time>2022-04-17T08:21:27+00:00</time>
      </trkpt>
      <trkpt lat="41.107450" lon="-3.395441">
        <ele>1329.62</ele>
        <time>2022-04-17T08:21:28+00:00</time>
      </trkpt>
      <trkpt lat="41.107471" lon="-3.395183">
        <ele>1330.10</ele>
        <time>2022-04-17T08:21:29+00:00</time>
      </trkpt>
      <trkpt lat="41.107622" lon="-3.394024">
        <ele>1335.39</ele>
        <time>2022-04-17T08:21:35+00:00</time>
      </trkpt>
      <trkpt lat="41.107643" lon="-3.393939">
        <ele>1336.83</ele>
        <time>2022-04-17T08:21:36+00:00</time>
      </trkpt>
      <trkpt lat="41.107665" lon="-3.393874">
        <ele>1337.79</ele>
        <time>2022-04-17T08:21:37+00:00</time>
      </trkpt>
      <trkpt lat="41.107729" lon="-3.393788">
        <ele>1343.56</ele>
        <time>2022-04-17T08:21:45+00:00</time>
      </trkpt>
      <trkpt lat="41.107729" lon="-3.393767">
        <ele>1344.04</ele>
        <time>2022-04-17T08:21:47+00:00</time>
      </trkpt>
      <trkpt lat="41.107729" lon="-3.393703">
        <ele>1344.52</ele>
        <time>2022-04-17T08:21:48+00:00</time>
      </trkpt>
      <trkpt lat="41.107708" lon="-3.393660">
        <ele>1345.00</ele>
        <time>2022-04-17T08:21:49+00:00</time>
      </trkpt>
      <trkpt lat="41.107686" lon="-3.393638">
        <ele>1345.48</ele>
        <time>2022-04-17T08:21:50+00:00</time>
      </trkpt>
      <trkpt lat="41.107665" lon="-3.393595">
        <ele>1345.48</ele>
        <time>2022-04-17T08:21:51+00:00</time>
      </trkpt>
      <trkpt lat="41.107643" lon="-3.393552">
        <ele>1345.48</ele>
        <time>2022-04-17T08:21:52+00:00</time>
      </trkpt>
      <trkpt lat="41.107600" lon="-3.393531">
        <ele>1345.96</ele>
        <time>2022-04-17T08:21:53+00:00</time>
      </trkpt>
      <trkpt lat="41.107579" lon="-3.393488">
        <ele>1345.96</ele>
        <time>2022-04-17T08:21:54+00:00</time>
      </trkpt>
      <trkpt lat="41.107536" lon="-3.393445">
        <ele>1345.96</ele>
        <time>2022-04-17T08:21:55+00:00</time>
      </trkpt>
      <trkpt lat="41.107493" lon="-3.393402">
        <ele>1345.96</ele>
        <time>2022-04-17T08:21:56+00:00</time>
      </trkpt>
      <trkpt lat="41.106678" lon="-3.392823">
        <ele>1336.35</ele>
        <time>2022-04-17T08:22:05+00:00</time>
      </trkpt>
      <trkpt lat="41.105648" lon="-3.391879">
        <ele>1332.50</ele>
        <time>2022-04-17T08:22:12+00:00</time>
      </trkpt>
      <trkpt lat="41.104725" lon="-3.390355">
        <ele>1333.95</ele>
        <time>2022-04-17T08:22:19+00:00</time>
      </trkpt>
      <trkpt lat="41.103716" lon="-3.388724">
        <ele>1332.98</ele>
        <time>2022-04-17T08:22:26+00:00</time>
      </trkpt>
      <trkpt lat="41.102193" lon="-3.386815">
        <ele>1326.74</ele>
        <time>2022-04-17T08:22:34+00:00</time>
      </trkpt>
      <trkpt lat="41.100991" lon="-3.385420">
        <ele>1325.77</ele>
        <time>2022-04-17T08:22:41+00:00</time>
      </trkpt>
      <trkpt lat="41.100884" lon="-3.385205">
        <ele>1326.25</ele>
        <time>2022-04-17T08:22:42+00:00</time>
      </trkpt>
      <trkpt lat="41.100777" lon="-3.384948">
        <ele>1327.70</ele>
        <time>2022-04-17T08:22:43+00:00</time>
      </trkpt>
      <trkpt lat="41.100712" lon="-3.384690">
        <ele>1329.14</ele>
        <time>2022-04-17T08:22:44+00:00</time>
      </trkpt>
      <trkpt lat="41.100004" lon="-3.382373">
        <ele>1345.00</ele>
        <time>2022-04-17T08:22:52+00:00</time>
      </trkpt>
      <trkpt lat="41.099747" lon="-3.381815">
        <ele>1349.33</ele>
        <time>2022-04-17T08:22:55+00:00</time>
      </trkpt>
      <trkpt lat="41.099639" lon="-3.381665">
        <ele>1349.81</ele>
        <time>2022-04-17T08:22:56+00:00</time>
      </trkpt>
      <trkpt lat="41.099403" lon="-3.381279">
        <ele>1351.25</ele>
        <time>2022-04-17T08:22:58+00:00</time>
      </trkpt>
      <trkpt lat="41.099318" lon="-3.381043">
        <ele>1351.73</ele>
        <time>2022-04-17T08:22:59+00:00</time>
      </trkpt>
      <trkpt lat="41.099060" lon="-3.380442">
        <ele>1352.21</ele>
        <time>2022-04-17T08:23:02+00:00</time>
      </trkpt>
      <trkpt lat="41.098931" lon="-3.380313">
        <ele>1351.25</ele>
        <time>2022-04-17T08:23:03+00:00</time>
      </trkpt>
      <trkpt lat="41.098803" lon="-3.380184">
        <ele>1350.77</ele>
        <time>2022-04-17T08:23:04+00:00</time>
      </trkpt>
      <trkpt lat="41.098695" lon="-3.380077">
        <ele>1350.29</ele>
        <time>2022-04-17T08:23:05+00:00</time>
      </trkpt>
      <trkpt lat="41.098588" lon="-3.379905">
        <ele>1349.81</ele>
        <time>2022-04-17T08:23:06+00:00</time>
      </trkpt>
      <trkpt lat="41.098502" lon="-3.379712">
        <ele>1349.33</ele>
        <time>2022-04-17T08:23:07+00:00</time>
      </trkpt>
      <trkpt lat="41.098459" lon="-3.379476">
        <ele>1349.33</ele>
        <time>2022-04-17T08:23:08+00:00</time>
      </trkpt>
      <trkpt lat="41.098438" lon="-3.379219">
        <ele>1349.33</ele>
        <time>2022-04-17T08:23:09+00:00</time>
      </trkpt>
      <trkpt lat="41.098395" lon="-3.378961">
        <ele>1349.33</ele>
        <time>2022-04-17T08:23:10+00:00</time>
      </trkpt>
      <trkpt lat="41.098266" lon="-3.377910">
        <ele>1349.33</ele>
        <time>2022-04-17T08:23:14+00:00</time>
      </trkpt>
      <trkpt lat="41.098266" lon="-3.377674">
        <ele>1349.33</ele>
        <time>2022-04-17T08:23:15+00:00</time>
      </trkpt>
      <trkpt lat="41.098288" lon="-3.377395">
        <ele>1349.33</ele>
        <time>2022-04-17T08:23:16+00:00</time>
      </trkpt>
      <trkpt lat="41.098373" lon="-3.377137">
        <ele>1349.33</ele>
        <time>2022-04-17T08:23:17+00:00</time>
      </trkpt>
      <trkpt lat="41.098459" lon="-3.376880">
        <ele>1350.29</ele>
        <time>2022-04-17T08:23:18+00:00</time>
      </trkpt>
      <trkpt lat="41.098545" lon="-3.376622">
        <ele>1351.73</ele>
        <time>2022-04-17T08:23:19+00:00</time>
      </trkpt>
      <trkpt lat="41.098695" lon="-3.376150">
        <ele>1354.61</ele>
        <time>2022-04-17T08:23:21+00:00</time>
      </trkpt>
      <trkpt lat="41.098695" lon="-3.375936">
        <ele>1356.05</ele>
        <time>2022-04-17T08:23:22+00:00</time>
      </trkpt>
      <trkpt lat="41.098717" lon="-3.375742">
        <ele>1357.50</ele>
        <time>2022-04-17T08:23:23+00:00</time>
      </trkpt>
      <trkpt lat="41.098674" lon="-3.375549">
        <ele>1357.98</ele>
        <time>2022-04-17T08:23:24+00:00</time>
      </trkpt>
      <trkpt lat="41.098631" lon="-3.375335">
        <ele>1357.98</ele>
        <time>2022-04-17T08:23:25+00:00</time>
      </trkpt>
      <trkpt lat="41.098524" lon="-3.375120">
        <ele>1357.50</ele>
        <time>2022-04-17T08:23:26+00:00</time>
      </trkpt>
      <trkpt lat="41.098416" lon="-3.374906">
        <ele>1356.54</ele>
        <time>2022-04-17T08:23:27+00:00</time>
      </trkpt>
      <trkpt lat="41.097901" lon="-3.374004">
        <ele>1349.81</ele>
        <time>2022-04-17T08:23:32+00:00</time>
      </trkpt>
      <trkpt lat="41.097794" lon="-3.373897">
        <ele>1348.36</ele>
        <time>2022-04-17T08:23:33+00:00</time>
      </trkpt>
      <trkpt lat="41.097730" lon="-3.373811">
        <ele>1347.40</ele>
        <time>2022-04-17T08:23:34+00:00</time>
      </trkpt>
      <trkpt lat="41.097665" lon="-3.373768">
        <ele>1346.44</ele>
        <time>2022-04-17T08:23:35+00:00</time>
      </trkpt>
      <trkpt lat="41.097644" lon="-3.373725">
        <ele>1345.96</ele>
        <time>2022-04-17T08:23:36+00:00</time>
      </trkpt>
      <trkpt lat="41.097601" lon="-3.373704">
        <ele>1345.00</ele>
        <time>2022-04-17T08:23:37+00:00</time>
      </trkpt>
      <trkpt lat="41.097579" lon="-3.373704">
        <ele>1344.52</ele>
        <time>2022-04-17T08:23:38+00:00</time>
      </trkpt>
      <trkpt lat="41.097579" lon="-3.373683">
        <ele>1343.56</ele>
        <time>2022-04-17T08:23:39+00:00</time>
      </trkpt>
      <trkpt lat="41.097644" lon="-3.373597">
        <ele>1340.67</ele>
        <time>2022-04-17T08:23:47+00:00</time>
      </trkpt>
      <trkpt lat="41.097644" lon="-3.373597">
        <ele>1340.67</ele>
        <time>2022-04-17T08:24:15+00:00</time>
      </trkpt>
      <trkpt lat="41.097644" lon="-3.373597">
        <ele>1341.15</ele>
        <time>2022-04-17T08:24:56+00:00</time>
      </trkpt>
      <trkpt lat="41.097644" lon="-3.373597">
        <ele>1341.64</ele>
        <time>2022-04-17T08:25:42+00:00</time>
      </trkpt>
      <trkpt lat="41.097644" lon="-3.373597">
        <ele>1341.15</ele>
        <time>2022-04-17T08:26:34+00:00</time>
      </trkpt>
      <trkpt lat="41.097644" lon="-3.373618">
        <ele>1342.12</ele>
        <time>2022-04-17T08:27:21+00:00</time>
      </trkpt>
      <trkpt lat="41.097644" lon="-3.373618">
        <ele>1342.12</ele>
        <time>2022-04-17T08:28:10+00:00</time>
      </trkpt>
      <trkpt lat="41.097644" lon="-3.373618">
        <ele>1342.12</ele>
        <time>2022-04-17T08:28:58+00:00</time>
      </trkpt>
      <trkpt lat="41.097644" lon="-3.373618">
        <ele>1342.60</ele>
        <time>2022-04-17T08:29:52+00:00</time>
      </trkpt>
      <trkpt lat="41.097644" lon="-3.373618">
        <ele>1342.60</ele>
        <time>2022-04-17T08:30:45+00:00</time>
      </trkpt>
      <trkpt lat="41.097644" lon="-3.373618">
        <ele>1343.08</ele>
        <time>2022-04-17T08:31:27+00:00</time>
      </trkpt>
      <trkpt lat="41.097644" lon="-3.373618">
        <ele>1343.56</ele>
        <time>2022-04-17T08:32:09+00:00</time>
      </trkpt>
      <trkpt lat="41.097644" lon="-3.373618">
        <ele>1344.04</ele>
        <time>2022-04-17T08:32:58+00:00</time>
      </trkpt>
      <trkpt lat="41.097644" lon="-3.373618">
        <ele>1343.56</ele>
        <time>2022-04-17T08:33:55+00:00</time>
      </trkpt>
      <trkpt lat="41.097644" lon="-3.373618">
        <ele>1343.56</ele>
        <time>2022-04-17T08:34:30+00:00</time>
      </trkpt>
      <trkpt lat="41.097644" lon="-3.373618">
        <ele>1343.56</ele>
        <time>2022-04-17T08:34:42+00:00</time>
      </trkpt>
      <trkpt lat="41.097687" lon="-3.373661">
        <ele>1344.52</ele>
        <time>2022-04-17T08:34:47+00:00</time>
      </trkpt>
      <trkpt lat="41.097601" lon="-3.373704">
        <ele>1345.00</ele>
        <time>2022-04-17T08:34:51+00:00</time>
      </trkpt>
      <trkpt lat="41.097537" lon="-3.373661">
        <ele>1345.00</ele>
        <time>2022-04-17T08:34:52+00:00</time>
      </trkpt>
      <trkpt lat="41.097472" lon="-3.373618">
        <ele>1345.00</ele>
        <time>2022-04-17T08:34:53+00:00</time>
      </trkpt>
      <trkpt lat="41.097408" lon="-3.373575">
        <ele>1345.00</ele>
        <time>2022-04-17T08:34:54+00:00</time>
      </trkpt>
      <trkpt lat="41.097258" lon="-3.373468">
        <ele>1345.00</ele>
        <time>2022-04-17T08:34:56+00:00</time>
      </trkpt>
      <trkpt lat="41.097172" lon="-3.373425">
        <ele>1344.52</ele>
        <time>2022-04-17T08:34:57+00:00</time>
      </trkpt>
      <trkpt lat="41.097086" lon="-3.373318">
        <ele>1344.52</ele>
        <time>2022-04-17T08:34:58+00:00</time>
      </trkpt>
      <trkpt lat="41.097022" lon="-3.373189">
        <ele>1344.04</ele>
        <time>2022-04-17T08:34:59+00:00</time>
      </trkpt>
      <trkpt lat="41.096957" lon="-3.373082">
        <ele>1343.56</ele>
        <time>2022-04-17T08:35:00+00:00</time>
      </trkpt>
      <trkpt lat="41.096035" lon="-3.371666">
        <ele>1340.19</ele>
        <time>2022-04-17T08:35:10+00:00</time>
      </trkpt>
      <trkpt lat="41.095176" lon="-3.370678">
        <ele>1334.43</ele>
        <time>2022-04-17T08:35:18+00:00</time>
      </trkpt>
      <trkpt lat="41.095069" lon="-3.370550">
        <ele>1332.98</ele>
        <time>2022-04-17T08:35:19+00:00</time>
      </trkpt>
      <trkpt lat="41.094940" lon="-3.370464">
        <ele>1331.06</ele>
        <time>2022-04-17T08:35:20+00:00</time>
      </trkpt>
      <trkpt lat="41.094790" lon="-3.370400">
        <ele>1329.14</ele>
        <time>2022-04-17T08:35:21+00:00</time>
      </trkpt>
      <trkpt lat="41.094640" lon="-3.370378">
        <ele>1327.70</ele>
        <time>2022-04-17T08:35:22+00:00</time>
      </trkpt>
      <trkpt lat="41.094468" lon="-3.370357">
        <ele>1325.29</ele>
        <time>2022-04-17T08:35:23+00:00</time>
      </trkpt>
      <trkpt lat="41.094275" lon="-3.370357">
        <ele>1322.89</ele>
        <time>2022-04-17T08:35:24+00:00</time>
      </trkpt>
      <trkpt lat="41.092537" lon="-3.370378">
        <ele>1296.45</ele>
        <time>2022-04-17T08:35:34+00:00</time>
      </trkpt>
      <trkpt lat="41.092408" lon="-3.370400">
        <ele>1294.05</ele>
        <time>2022-04-17T08:35:35+00:00</time>
      </trkpt>
      <trkpt lat="41.092172" lon="-3.370464">
        <ele>1289.72</ele>
        <time>2022-04-17T08:35:37+00:00</time>
      </trkpt>
      <trkpt lat="41.092086" lon="-3.370421">
        <ele>1287.80</ele>
        <time>2022-04-17T08:35:38+00:00</time>
      </trkpt>
      <trkpt lat="41.092000" lon="-3.370357">
        <ele>1285.88</ele>
        <time>2022-04-17T08:35:39+00:00</time>
      </trkpt>
      <trkpt lat="41.091936" lon="-3.370228">
        <ele>1284.44</ele>
        <time>2022-04-17T08:35:40+00:00</time>
      </trkpt>
      <trkpt lat="41.091893" lon="-3.370121">
        <ele>1283.00</ele>
        <time>2022-04-17T08:35:41+00:00</time>
      </trkpt>
      <trkpt lat="41.091850" lon="-3.369992">
        <ele>1281.55</ele>
        <time>2022-04-17T08:35:42+00:00</time>
      </trkpt>
      <trkpt lat="41.091335" lon="-3.368962">
        <ele>1272.90</ele>
        <time>2022-04-17T08:35:50+00:00</time>
      </trkpt>
      <trkpt lat="41.091249" lon="-3.368833">
        <ele>1272.42</ele>
        <time>2022-04-17T08:35:51+00:00</time>
      </trkpt>
      <trkpt lat="41.090069" lon="-3.368018">
        <ele>1268.10</ele>
        <time>2022-04-17T08:36:00+00:00</time>
      </trkpt>
      <trkpt lat="41.089018" lon="-3.367674">
        <ele>1268.58</ele>
        <time>2022-04-17T08:36:09+00:00</time>
      </trkpt>
      <trkpt lat="41.088760" lon="-3.367696">
        <ele>1268.58</ele>
        <time>2022-04-17T08:36:11+00:00</time>
      </trkpt>
      <trkpt lat="41.088653" lon="-3.367760">
        <ele>1268.58</ele>
        <time>2022-04-17T08:36:12+00:00</time>
      </trkpt>
      <trkpt lat="41.088524" lon="-3.367803">
        <ele>1268.58</ele>
        <time>2022-04-17T08:36:13+00:00</time>
      </trkpt>
      <trkpt lat="41.087451" lon="-3.368382">
        <ele>1267.13</ele>
        <time>2022-04-17T08:36:22+00:00</time>
      </trkpt>
      <trkpt lat="41.087323" lon="-3.368468">
        <ele>1266.65</ele>
        <time>2022-04-17T08:36:23+00:00</time>
      </trkpt>
      <trkpt lat="41.087215" lon="-3.368490">
        <ele>1266.17</ele>
        <time>2022-04-17T08:36:24+00:00</time>
      </trkpt>
      <trkpt lat="41.087108" lon="-3.368490">
        <ele>1265.69</ele>
        <time>2022-04-17T08:36:25+00:00</time>
      </trkpt>
      <trkpt lat="41.087022" lon="-3.368447">
        <ele>1264.73</ele>
        <time>2022-04-17T08:36:26+00:00</time>
      </trkpt>
      <trkpt lat="41.086979" lon="-3.368340">
        <ele>1263.29</ele>
        <time>2022-04-17T08:36:27+00:00</time>
      </trkpt>
      <trkpt lat="41.086958" lon="-3.368211">
        <ele>1262.33</ele>
        <time>2022-04-17T08:36:28+00:00</time>
      </trkpt>
      <trkpt lat="41.086979" lon="-3.368061">
        <ele>1260.89</ele>
        <time>2022-04-17T08:36:29+00:00</time>
      </trkpt>
      <trkpt lat="41.087001" lon="-3.367910">
        <ele>1259.44</ele>
        <time>2022-04-17T08:36:30+00:00</time>
      </trkpt>
      <trkpt lat="41.087001" lon="-3.367760">
        <ele>1258.48</ele>
        <time>2022-04-17T08:36:31+00:00</time>
      </trkpt>
      <trkpt lat="41.087022" lon="-3.367610">
        <ele>1257.04</ele>
        <time>2022-04-17T08:36:32+00:00</time>
      </trkpt>
      <trkpt lat="41.087022" lon="-3.367438">
        <ele>1256.08</ele>
        <time>2022-04-17T08:36:33+00:00</time>
      </trkpt>
      <trkpt lat="41.087001" lon="-3.367288">
        <ele>1255.12</ele>
        <time>2022-04-17T08:36:34+00:00</time>
      </trkpt>
      <trkpt lat="41.086958" lon="-3.367116">
        <ele>1253.68</ele>
        <time>2022-04-17T08:36:35+00:00</time>
      </trkpt>
      <trkpt lat="41.086894" lon="-3.366945">
        <ele>1252.71</ele>
        <time>2022-04-17T08:36:36+00:00</time>
      </trkpt>
      <trkpt lat="41.086700" lon="-3.366430">
        <ele>1248.39</ele>
        <time>2022-04-17T08:36:39+00:00</time>
      </trkpt>
      <trkpt lat="41.086658" lon="-3.366344">
        <ele>1246.95</ele>
        <time>2022-04-17T08:36:40+00:00</time>
      </trkpt>
      <trkpt lat="41.086464" lon="-3.366108">
        <ele>1245.02</ele>
        <time>2022-04-17T08:36:41+00:00</time>
      </trkpt>
      <trkpt lat="41.085649" lon="-3.364863">
        <ele>1235.41</ele>
        <time>2022-04-17T08:36:48+00:00</time>
      </trkpt>
      <trkpt lat="41.085220" lon="-3.364284">
        <ele>1231.08</ele>
        <time>2022-04-17T08:36:52+00:00</time>
      </trkpt>
      <trkpt lat="41.085091" lon="-3.364198">
        <ele>1230.12</ele>
        <time>2022-04-17T08:36:53+00:00</time>
      </trkpt>
      <trkpt lat="41.084941" lon="-3.364091">
        <ele>1229.16</ele>
        <time>2022-04-17T08:36:54+00:00</time>
      </trkpt>
      <trkpt lat="41.083417" lon="-3.363383">
        <ele>1217.63</ele>
        <time>2022-04-17T08:37:03+00:00</time>
      </trkpt>
      <trkpt lat="41.081636" lon="-3.362954">
        <ele>1199.36</ele>
        <time>2022-04-17T08:37:13+00:00</time>
      </trkpt>
      <trkpt lat="41.080049" lon="-3.362331">
        <ele>1183.02</ele>
        <time>2022-04-17T08:37:23+00:00</time>
      </trkpt>
      <trkpt lat="41.078654" lon="-3.361044">
        <ele>1179.17</ele>
        <time>2022-04-17T08:37:32+00:00</time>
      </trkpt>
      <trkpt lat="41.077602" lon="-3.359735">
        <ele>1168.12</ele>
        <time>2022-04-17T08:37:40+00:00</time>
      </trkpt>
      <trkpt lat="41.077495" lon="-3.359585">
        <ele>1166.20</ele>
        <time>2022-04-17T08:37:41+00:00</time>
      </trkpt>
      <trkpt lat="41.077431" lon="-3.359413">
        <ele>1163.79</ele>
        <time>2022-04-17T08:37:42+00:00</time>
      </trkpt>
      <trkpt lat="41.077366" lon="-3.359220">
        <ele>1161.87</ele>
        <time>2022-04-17T08:37:43+00:00</time>
      </trkpt>
      <trkpt lat="41.077323" lon="-3.359048">
        <ele>1159.47</ele>
        <time>2022-04-17T08:37:44+00:00</time>
      </trkpt>
      <trkpt lat="41.077281" lon="-3.358834">
        <ele>1157.54</ele>
        <time>2022-04-17T08:37:45+00:00</time>
      </trkpt>
      <trkpt lat="41.077238" lon="-3.358619">
        <ele>1155.14</ele>
        <time>2022-04-17T08:37:46+00:00</time>
      </trkpt>
      <trkpt lat="41.076851" lon="-3.357310">
        <ele>1136.40</ele>
        <time>2022-04-17T08:37:53+00:00</time>
      </trkpt>
      <trkpt lat="41.076766" lon="-3.357203">
        <ele>1133.99</ele>
        <time>2022-04-17T08:37:54+00:00</time>
      </trkpt>
      <trkpt lat="41.076637" lon="-3.357139">
        <ele>1131.59</ele>
        <time>2022-04-17T08:37:55+00:00</time>
      </trkpt>
      <trkpt lat="41.076508" lon="-3.357074">
        <ele>1128.71</ele>
        <time>2022-04-17T08:37:56+00:00</time>
      </trkpt>
      <trkpt lat="41.076336" lon="-3.356988">
        <ele>1126.30</ele>
        <time>2022-04-17T08:37:57+00:00</time>
      </trkpt>
      <trkpt lat="41.074963" lon="-3.356495">
        <ele>1108.04</ele>
        <time>2022-04-17T08:38:07+00:00</time>
      </trkpt>
      <trkpt lat="41.073483" lon="-3.356302">
        <ele>1082.08</ele>
        <time>2022-04-17T08:38:18+00:00</time>
      </trkpt>
      <trkpt lat="41.073268" lon="-3.356302">
        <ele>1077.76</ele>
        <time>2022-04-17T08:38:20+00:00</time>
      </trkpt>
      <trkpt lat="41.073182" lon="-3.356237">
        <ele>1075.83</ele>
        <time>2022-04-17T08:38:21+00:00</time>
      </trkpt>
      <trkpt lat="41.073075" lon="-3.356152">
        <ele>1073.91</ele>
        <time>2022-04-17T08:38:22+00:00</time>
      </trkpt>
      <trkpt lat="41.072989" lon="-3.356087">
        <ele>1072.47</ele>
        <time>2022-04-17T08:38:23+00:00</time>
      </trkpt>
      <trkpt lat="41.072882" lon="-3.356001">
        <ele>1070.55</ele>
        <time>2022-04-17T08:38:24+00:00</time>
      </trkpt>
      <trkpt lat="41.072109" lon="-3.355444">
        <ele>1058.53</ele>
        <time>2022-04-17T08:38:32+00:00</time>
      </trkpt>
      <trkpt lat="41.072023" lon="-3.355379">
        <ele>1056.61</ele>
        <time>2022-04-17T08:38:33+00:00</time>
      </trkpt>
      <trkpt lat="41.071809" lon="-3.355122">
        <ele>1051.32</ele>
        <time>2022-04-17T08:38:37+00:00</time>
      </trkpt>
      <trkpt lat="41.071787" lon="-3.355036">
        <ele>1050.36</ele>
        <time>2022-04-17T08:38:38+00:00</time>
      </trkpt>
      <trkpt lat="41.071787" lon="-3.355014">
        <ele>1049.88</ele>
        <time>2022-04-17T08:38:39+00:00</time>
      </trkpt>
      <trkpt lat="41.071809" lon="-3.354993">
        <ele>1048.92</ele>
        <time>2022-04-17T08:38:40+00:00</time>
      </trkpt>
      <trkpt lat="41.071830" lon="-3.354950">
        <ele>1048.44</ele>
        <time>2022-04-17T08:38:41+00:00</time>
      </trkpt>
      <trkpt lat="41.071852" lon="-3.354950">
        <ele>1047.47</ele>
        <time>2022-04-17T08:38:42+00:00</time>
      </trkpt>
      <trkpt lat="41.071916" lon="-3.354971">
        <ele>1046.99</ele>
        <time>2022-04-17T08:38:43+00:00</time>
      </trkpt>
      <trkpt lat="41.072002" lon="-3.355057">
        <ele>1046.03</ele>
        <time>2022-04-17T08:38:44+00:00</time>
      </trkpt>
      <trkpt lat="41.072066" lon="-3.355122">
        <ele>1045.07</ele>
        <time>2022-04-17T08:38:45+00:00</time>
      </trkpt>
      <trkpt lat="41.072152" lon="-3.355207">
        <ele>1043.63</ele>
        <time>2022-04-17T08:38:46+00:00</time>
      </trkpt>
      <trkpt lat="41.072238" lon="-3.355293">
        <ele>1042.19</ele>
        <time>2022-04-17T08:38:47+00:00</time>
      </trkpt>
      <trkpt lat="41.072367" lon="-3.355358">
        <ele>1041.23</ele>
        <time>2022-04-17T08:38:48+00:00</time>
      </trkpt>
      <trkpt lat="41.072453" lon="-3.355379">
        <ele>1039.78</ele>
        <time>2022-04-17T08:38:49+00:00</time>
      </trkpt>
      <trkpt lat="41.072560" lon="-3.355401">
        <ele>1038.34</ele>
        <time>2022-04-17T08:38:50+00:00</time>
      </trkpt>
      <trkpt lat="41.073354" lon="-3.355508">
        <ele>1026.81</ele>
        <time>2022-04-17T08:38:57+00:00</time>
      </trkpt>
      <trkpt lat="41.073504" lon="-3.355508">
        <ele>1025.36</ele>
        <time>2022-04-17T08:38:58+00:00</time>
      </trkpt>
      <trkpt lat="41.073611" lon="-3.355465">
        <ele>1022.96</ele>
        <time>2022-04-17T08:38:59+00:00</time>
      </trkpt>
      <trkpt lat="41.073955" lon="-3.355336">
        <ele>1017.67</ele>
        <time>2022-04-17T08:39:02+00:00</time>
      </trkpt>
      <trkpt lat="41.074062" lon="-3.355229">
        <ele>1015.75</ele>
        <time>2022-04-17T08:39:03+00:00</time>
      </trkpt>
      <trkpt lat="41.074148" lon="-3.355122">
        <ele>1014.31</ele>
        <time>2022-04-17T08:39:04+00:00</time>
      </trkpt>
      <trkpt lat="41.074234" lon="-3.355014">
        <ele>1012.39</ele>
        <time>2022-04-17T08:39:05+00:00</time>
      </trkpt>
      <trkpt lat="41.074319" lon="-3.354929">
        <ele>1010.46</ele>
        <time>2022-04-17T08:39:06+00:00</time>
      </trkpt>
      <trkpt lat="41.074663" lon="-3.354414">
        <ele>1004.22</ele>
        <time>2022-04-17T08:39:11+00:00</time>
      </trkpt>
      <trkpt lat="41.074727" lon="-3.354371">
        <ele>1003.25</ele>
        <time>2022-04-17T08:39:12+00:00</time>
      </trkpt>
      <trkpt lat="41.074791" lon="-3.354328">
        <ele>1002.77</ele>
        <time>2022-04-17T08:39:13+00:00</time>
      </trkpt>
      <trkpt lat="41.074899" lon="-3.354349">
        <ele>1002.77</ele>
        <time>2022-04-17T08:39:14+00:00</time>
      </trkpt>
      <trkpt lat="41.074985" lon="-3.354371">
        <ele>1002.77</ele>
        <time>2022-04-17T08:39:15+00:00</time>
      </trkpt>
      <trkpt lat="41.075092" lon="-3.354414">
        <ele>1002.77</ele>
        <time>2022-04-17T08:39:16+00:00</time>
      </trkpt>
      <trkpt lat="41.075521" lon="-3.354521">
        <ele>1004.22</ele>
        <time>2022-04-17T08:39:20+00:00</time>
      </trkpt>
      <trkpt lat="41.075607" lon="-3.354628">
        <ele>1004.22</ele>
        <time>2022-04-17T08:39:21+00:00</time>
      </trkpt>
      <trkpt lat="41.075693" lon="-3.354714">
        <ele>1004.70</ele>
        <time>2022-04-17T08:39:22+00:00</time>
      </trkpt>
      <trkpt lat="41.076036" lon="-3.355079">
        <ele>1005.18</ele>
        <time>2022-04-17T08:39:26+00:00</time>
      </trkpt>
      <trkpt lat="41.076165" lon="-3.355122">
        <ele>1005.18</ele>
        <time>2022-04-17T08:39:27+00:00</time>
      </trkpt>
      <trkpt lat="41.076272" lon="-3.355122">
        <ele>1005.18</ele>
        <time>2022-04-17T08:39:28+00:00</time>
      </trkpt>
      <trkpt lat="41.076379" lon="-3.355143">
        <ele>1005.18</ele>
        <time>2022-04-17T08:39:29+00:00</time>
      </trkpt>
      <trkpt lat="41.076487" lon="-3.355143">
        <ele>1004.70</ele>
        <time>2022-04-17T08:39:30+00:00</time>
      </trkpt>
      <trkpt lat="41.076615" lon="-3.355122">
        <ele>1004.70</ele>
        <time>2022-04-17T08:39:31+00:00</time>
      </trkpt>
      <trkpt lat="41.076723" lon="-3.355100">
        <ele>1004.22</ele>
        <time>2022-04-17T08:39:32+00:00</time>
      </trkpt>
      <trkpt lat="41.076980" lon="-3.355036">
        <ele>1003.73</ele>
        <time>2022-04-17T08:39:35+00:00</time>
      </trkpt>
      <trkpt lat="41.077023" lon="-3.354971">
        <ele>1003.25</ele>
        <time>2022-04-17T08:39:36+00:00</time>
      </trkpt>
      <trkpt lat="41.077044" lon="-3.354950">
        <ele>1003.25</ele>
        <time>2022-04-17T08:39:37+00:00</time>
      </trkpt>
      <trkpt lat="41.077044" lon="-3.354886">
        <ele>1002.77</ele>
        <time>2022-04-17T08:39:38+00:00</time>
      </trkpt>
      <trkpt lat="41.077044" lon="-3.354843">
        <ele>1002.29</ele>
        <time>2022-04-17T08:39:39+00:00</time>
      </trkpt>
      <trkpt lat="41.077002" lon="-3.354821">
        <ele>1002.29</ele>
        <time>2022-04-17T08:39:40+00:00</time>
      </trkpt>
      <trkpt lat="41.076959" lon="-3.354843">
        <ele>1001.81</ele>
        <time>2022-04-17T08:39:41+00:00</time>
      </trkpt>
      <trkpt lat="41.076873" lon="-3.354864">
        <ele>1001.33</ele>
        <time>2022-04-17T08:39:42+00:00</time>
      </trkpt>
      <trkpt lat="41.076787" lon="-3.354886">
        <ele>1001.33</ele>
        <time>2022-04-17T08:39:43+00:00</time>
      </trkpt>
      <trkpt lat="41.076701" lon="-3.354907">
        <ele>1000.85</ele>
        <time>2022-04-17T08:39:44+00:00</time>
      </trkpt>
      <trkpt lat="41.076615" lon="-3.354929">
        <ele>1000.37</ele>
        <time>2022-04-17T08:39:45+00:00</time>
      </trkpt>
      <trkpt lat="41.076530" lon="-3.354950">
        <ele>999.89</ele>
        <time>2022-04-17T08:39:46+00:00</time>
      </trkpt>
      <trkpt lat="41.076358" lon="-3.354950">
        <ele>998.45</ele>
        <time>2022-04-17T08:39:48+00:00</time>
      </trkpt>
      <trkpt lat="41.076272" lon="-3.354950">
        <ele>997.97</ele>
        <time>2022-04-17T08:39:49+00:00</time>
      </trkpt>
      <trkpt lat="41.076165" lon="-3.354886">
        <ele>997.01</ele>
        <time>2022-04-17T08:39:50+00:00</time>
      </trkpt>
      <trkpt lat="41.076057" lon="-3.354843">
        <ele>996.52</ele>
        <time>2022-04-17T08:39:51+00:00</time>
      </trkpt>
      <trkpt lat="41.075972" lon="-3.354757">
        <ele>995.56</ele>
        <time>2022-04-17T08:39:52+00:00</time>
      </trkpt>
      <trkpt lat="41.075886" lon="-3.354671">
        <ele>995.08</ele>
        <time>2022-04-17T08:39:53+00:00</time>
      </trkpt>
      <trkpt lat="41.075800" lon="-3.354564">
        <ele>994.60</ele>
        <time>2022-04-17T08:39:54+00:00</time>
      </trkpt>
      <trkpt lat="41.075500" lon="-3.354220">
        <ele>990.76</ele>
        <time>2022-04-17T08:39:58+00:00</time>
      </trkpt>
      <trkpt lat="41.075392" lon="-3.354178">
        <ele>989.80</ele>
        <time>2022-04-17T08:39:59+00:00</time>
      </trkpt>
      <trkpt lat="41.075285" lon="-3.354135">
        <ele>988.83</ele>
        <time>2022-04-17T08:40:00+00:00</time>
      </trkpt>
      <trkpt lat="41.075199" lon="-3.354113">
        <ele>987.87</ele>
        <time>2022-04-17T08:40:01+00:00</time>
      </trkpt>
      <trkpt lat="41.075092" lon="-3.354092">
        <ele>986.43</ele>
        <time>2022-04-17T08:40:02+00:00</time>
      </trkpt>
      <trkpt lat="41.075027" lon="-3.354070">
        <ele>984.99</ele>
        <time>2022-04-17T08:40:03+00:00</time>
      </trkpt>
      <trkpt lat="41.074791" lon="-3.354006">
        <ele>981.14</ele>
        <time>2022-04-17T08:40:06+00:00</time>
      </trkpt>
      <trkpt lat="41.074727" lon="-3.353984">
        <ele>980.18</ele>
        <time>2022-04-17T08:40:07+00:00</time>
      </trkpt>
      <trkpt lat="41.074727" lon="-3.353941">
        <ele>979.22</ele>
        <time>2022-04-17T08:40:08+00:00</time>
      </trkpt>
      <trkpt lat="41.074706" lon="-3.353877">
        <ele>978.74</ele>
        <time>2022-04-17T08:40:09+00:00</time>
      </trkpt>
      <trkpt lat="41.074706" lon="-3.353791">
        <ele>978.74</ele>
        <time>2022-04-17T08:40:10+00:00</time>
      </trkpt>
      <trkpt lat="41.074706" lon="-3.353663">
        <ele>978.74</ele>
        <time>2022-04-17T08:40:11+00:00</time>
      </trkpt>
      <trkpt lat="41.074706" lon="-3.353555">
        <ele>979.22</ele>
        <time>2022-04-17T08:40:12+00:00</time>
      </trkpt>
      <trkpt lat="41.074727" lon="-3.353341">
        <ele>980.18</ele>
        <time>2022-04-17T08:40:14+00:00</time>
      </trkpt>
      <trkpt lat="41.074727" lon="-3.353233">
        <ele>980.18</ele>
        <time>2022-04-17T08:40:15+00:00</time>
      </trkpt>
      <trkpt lat="41.074684" lon="-3.353148">
        <ele>980.66</ele>
        <time>2022-04-17T08:40:16+00:00</time>
      </trkpt>
      <trkpt lat="41.074620" lon="-3.353126">
        <ele>981.62</ele>
        <time>2022-04-17T08:40:17+00:00</time>
      </trkpt>
      <trkpt lat="41.074534" lon="-3.353083">
        <ele>982.11</ele>
        <time>2022-04-17T08:40:18+00:00</time>
      </trkpt>
      <trkpt lat="41.074470" lon="-3.353040">
        <ele>983.07</ele>
        <time>2022-04-17T08:40:19+00:00</time>
      </trkpt>
      <trkpt lat="41.074212" lon="-3.352912">
        <ele>985.95</ele>
        <time>2022-04-17T08:40:22+00:00</time>
      </trkpt>
      <trkpt lat="41.073955" lon="-3.352740">
        <ele>990.76</ele>
        <time>2022-04-17T08:40:26+00:00</time>
      </trkpt>
      <trkpt lat="41.073933" lon="-3.352740">
        <ele>991.72</ele>
        <time>2022-04-17T08:40:27+00:00</time>
      </trkpt>
      <trkpt lat="41.073933" lon="-3.352697">
        <ele>992.68</ele>
        <time>2022-04-17T08:40:28+00:00</time>
      </trkpt>
      <trkpt lat="41.073912" lon="-3.352654">
        <ele>993.64</ele>
        <time>2022-04-17T08:40:29+00:00</time>
      </trkpt>
      <trkpt lat="41.073955" lon="-3.352590">
        <ele>994.60</ele>
        <time>2022-04-17T08:40:30+00:00</time>
      </trkpt>
      <trkpt lat="41.074019" lon="-3.352611">
        <ele>996.04</ele>
        <time>2022-04-17T08:40:31+00:00</time>
      </trkpt>
      <trkpt lat="41.074105" lon="-3.352611">
        <ele>997.49</ele>
        <time>2022-04-17T08:40:32+00:00</time>
      </trkpt>
      <trkpt lat="41.074212" lon="-3.352633">
        <ele>998.93</ele>
        <time>2022-04-17T08:40:33+00:00</time>
      </trkpt>
      <trkpt lat="41.074298" lon="-3.352633">
        <ele>1000.37</ele>
        <time>2022-04-17T08:40:34+00:00</time>
      </trkpt>
      <trkpt lat="41.074384" lon="-3.352654">
        <ele>1001.81</ele>
        <time>2022-04-17T08:40:35+00:00</time>
      </trkpt>
      <trkpt lat="41.074749" lon="-3.352611">
        <ele>1008.06</ele>
        <time>2022-04-17T08:40:39+00:00</time>
      </trkpt>
      <trkpt lat="41.074834" lon="-3.352611">
        <ele>1009.50</ele>
        <time>2022-04-17T08:40:40+00:00</time>
      </trkpt>
      <trkpt lat="41.074899" lon="-3.352654">
        <ele>1010.94</ele>
        <time>2022-04-17T08:40:41+00:00</time>
      </trkpt>
      <trkpt lat="41.074985" lon="-3.352675">
        <ele>1012.39</ele>
        <time>2022-04-17T08:40:42+00:00</time>
      </trkpt>
      <trkpt lat="41.075049" lon="-3.352718">
        <ele>1013.83</ele>
        <time>2022-04-17T08:40:43+00:00</time>
      </trkpt>
      <trkpt lat="41.075156" lon="-3.352761">
        <ele>1016.71</ele>
        <time>2022-04-17T08:40:45+00:00</time>
      </trkpt>
      <trkpt lat="41.075199" lon="-3.352783">
        <ele>1017.67</ele>
        <time>2022-04-17T08:40:46+00:00</time>
      </trkpt>
      <trkpt lat="41.075221" lon="-3.352761">
        <ele>1019.12</ele>
        <time>2022-04-17T08:40:47+00:00</time>
      </trkpt>
      <trkpt lat="41.075242" lon="-3.352718">
        <ele>1020.08</ele>
        <time>2022-04-17T08:40:48+00:00</time>
      </trkpt>
      <trkpt lat="41.075242" lon="-3.352654">
        <ele>1021.52</ele>
        <time>2022-04-17T08:40:49+00:00</time>
      </trkpt>
      <trkpt lat="41.075221" lon="-3.352590">
        <ele>1022.48</ele>
        <time>2022-04-17T08:40:50+00:00</time>
      </trkpt>
      <trkpt lat="41.075178" lon="-3.352504">
        <ele>1023.92</ele>
        <time>2022-04-17T08:40:51+00:00</time>
      </trkpt>
      <trkpt lat="41.075113" lon="-3.352418">
        <ele>1024.88</ele>
        <time>2022-04-17T08:40:52+00:00</time>
      </trkpt>
      <trkpt lat="41.075070" lon="-3.352354">
        <ele>1026.33</ele>
        <time>2022-04-17T08:40:53+00:00</time>
      </trkpt>
      <trkpt lat="41.074985" lon="-3.352311">
        <ele>1027.29</ele>
        <time>2022-04-17T08:40:54+00:00</time>
      </trkpt>
      <trkpt lat="41.074899" lon="-3.352246">
        <ele>1028.73</ele>
        <time>2022-04-17T08:40:55+00:00</time>
      </trkpt>
      <trkpt lat="41.074791" lon="-3.352225">
        <ele>1030.17</ele>
        <time>2022-04-17T08:40:56+00:00</time>
      </trkpt>
      <trkpt lat="41.074684" lon="-3.352182">
        <ele>1031.61</ele>
        <time>2022-04-17T08:40:57+00:00</time>
      </trkpt>
      <trkpt lat="41.074448" lon="-3.352096">
        <ele>1035.46</ele>
        <time>2022-04-17T08:41:00+00:00</time>
      </trkpt>
      <trkpt lat="41.074405" lon="-3.352053">
        <ele>1036.42</ele>
        <time>2022-04-17T08:41:01+00:00</time>
      </trkpt>
      <trkpt lat="41.074362" lon="-3.351967">
        <ele>1037.86</ele>
        <time>2022-04-17T08:41:02+00:00</time>
      </trkpt>
      <trkpt lat="41.074319" lon="-3.351882">
        <ele>1039.30</ele>
        <time>2022-04-17T08:41:03+00:00</time>
      </trkpt>
      <trkpt lat="41.074276" lon="-3.351796">
        <ele>1040.74</ele>
        <time>2022-04-17T08:41:04+00:00</time>
      </trkpt>
      <trkpt lat="41.074234" lon="-3.351603">
        <ele>1045.55</ele>
        <time>2022-04-17T08:41:07+00:00</time>
      </trkpt>
      <trkpt lat="41.074255" lon="-3.351560">
        <ele>1046.99</ele>
        <time>2022-04-17T08:41:08+00:00</time>
      </trkpt>
      <trkpt lat="41.074276" lon="-3.351517">
        <ele>1048.44</ele>
        <time>2022-04-17T08:41:09+00:00</time>
      </trkpt>
      <trkpt lat="41.074298" lon="-3.351538">
        <ele>1049.40</ele>
        <time>2022-04-17T08:41:10+00:00</time>
      </trkpt>
      <trkpt lat="41.074362" lon="-3.351560">
        <ele>1050.84</ele>
        <time>2022-04-17T08:41:11+00:00</time>
      </trkpt>
      <trkpt lat="41.074427" lon="-3.351603">
        <ele>1052.28</ele>
        <time>2022-04-17T08:41:12+00:00</time>
      </trkpt>
      <trkpt lat="41.074512" lon="-3.351646">
        <ele>1054.20</ele>
        <time>2022-04-17T08:41:13+00:00</time>
      </trkpt>
      <trkpt lat="41.074577" lon="-3.351688">
        <ele>1055.65</ele>
        <time>2022-04-17T08:41:14+00:00</time>
      </trkpt>
      <trkpt lat="41.074663" lon="-3.351667">
        <ele>1057.57</ele>
        <time>2022-04-17T08:41:15+00:00</time>
      </trkpt>
      <trkpt lat="41.074727" lon="-3.351667">
        <ele>1059.01</ele>
        <time>2022-04-17T08:41:16+00:00</time>
      </trkpt>
      <trkpt lat="41.074813" lon="-3.351646">
        <ele>1060.45</ele>
        <time>2022-04-17T08:41:17+00:00</time>
      </trkpt>
      <trkpt lat="41.074899" lon="-3.351624">
        <ele>1061.89</ele>
        <time>2022-04-17T08:41:18+00:00</time>
      </trkpt>
      <trkpt lat="41.074985" lon="-3.351581">
        <ele>1063.34</ele>
        <time>2022-04-17T08:41:19+00:00</time>
      </trkpt>
      <trkpt lat="41.075070" lon="-3.351517">
        <ele>1064.78</ele>
        <time>2022-04-17T08:41:20+00:00</time>
      </trkpt>
      <trkpt lat="41.075156" lon="-3.351452">
        <ele>1066.70</ele>
        <time>2022-04-17T08:41:21+00:00</time>
      </trkpt>
      <trkpt lat="41.075414" lon="-3.351302">
        <ele>1072.47</ele>
        <time>2022-04-17T08:41:24+00:00</time>
      </trkpt>
      <trkpt lat="41.075500" lon="-3.351259">
        <ele>1073.91</ele>
        <time>2022-04-17T08:41:25+00:00</time>
      </trkpt>
      <trkpt lat="41.075585" lon="-3.351302">
        <ele>1075.83</ele>
        <time>2022-04-17T08:41:26+00:00</time>
      </trkpt>
      <trkpt lat="41.075693" lon="-3.351345">
        <ele>1077.28</ele>
        <time>2022-04-17T08:41:27+00:00</time>
      </trkpt>
      <trkpt lat="41.075778" lon="-3.351388">
        <ele>1079.20</ele>
        <time>2022-04-17T08:41:28+00:00</time>
      </trkpt>
      <trkpt lat="41.075886" lon="-3.351409">
        <ele>1080.16</ele>
        <time>2022-04-17T08:41:29+00:00</time>
      </trkpt>
      <trkpt lat="41.075950" lon="-3.351452">
        <ele>1081.60</ele>
        <time>2022-04-17T08:41:30+00:00</time>
      </trkpt>
      <trkpt lat="41.076015" lon="-3.351452">
        <ele>1082.56</ele>
        <time>2022-04-17T08:41:31+00:00</time>
      </trkpt>
      <trkpt lat="41.076057" lon="-3.351452">
        <ele>1083.52</ele>
        <time>2022-04-17T08:41:32+00:00</time>
      </trkpt>
      <trkpt lat="41.076079" lon="-3.351431">
        <ele>1084.48</ele>
        <time>2022-04-17T08:41:33+00:00</time>
      </trkpt>
      <trkpt lat="41.076100" lon="-3.351409">
        <ele>1085.45</ele>
        <time>2022-04-17T08:41:34+00:00</time>
      </trkpt>
      <trkpt lat="41.076122" lon="-3.351367">
        <ele>1086.89</ele>
        <time>2022-04-17T08:41:35+00:00</time>
      </trkpt>
      <trkpt lat="41.076100" lon="-3.351302">
        <ele>1087.85</ele>
        <time>2022-04-17T08:41:36+00:00</time>
      </trkpt>
      <trkpt lat="41.076036" lon="-3.351238">
        <ele>1088.81</ele>
        <time>2022-04-17T08:41:37+00:00</time>
      </trkpt>
      <trkpt lat="41.075972" lon="-3.351173">
        <ele>1089.77</ele>
        <time>2022-04-17T08:41:38+00:00</time>
      </trkpt>
      <trkpt lat="41.075907" lon="-3.351088">
        <ele>1090.25</ele>
        <time>2022-04-17T08:41:39+00:00</time>
      </trkpt>
      <trkpt lat="41.075843" lon="-3.351023">
        <ele>1091.21</ele>
        <time>2022-04-17T08:41:40+00:00</time>
      </trkpt>
      <trkpt lat="41.075778" lon="-3.350916">
        <ele>1092.18</ele>
        <time>2022-04-17T08:41:41+00:00</time>
      </trkpt>
      <trkpt lat="41.075671" lon="-3.350701">
        <ele>1093.62</ele>
        <time>2022-04-17T08:41:43+00:00</time>
      </trkpt>
      <trkpt lat="41.075585" lon="-3.350658">
        <ele>1094.58</ele>
        <time>2022-04-17T08:41:44+00:00</time>
      </trkpt>
      <trkpt lat="41.075500" lon="-3.350616">
        <ele>1095.54</ele>
        <time>2022-04-17T08:41:45+00:00</time>
      </trkpt>
      <trkpt lat="41.075113" lon="-3.350422">
        <ele>1101.31</ele>
        <time>2022-04-17T08:41:50+00:00</time>
      </trkpt>
      <trkpt lat="41.075049" lon="-3.350358">
        <ele>1102.27</ele>
        <time>2022-04-17T08:41:51+00:00</time>
      </trkpt>
      <trkpt lat="41.075027" lon="-3.350315">
        <ele>1103.23</ele>
        <time>2022-04-17T08:41:52+00:00</time>
      </trkpt>
      <trkpt lat="41.075006" lon="-3.350229">
        <ele>1104.19</ele>
        <time>2022-04-17T08:41:53+00:00</time>
      </trkpt>
      <trkpt lat="41.075006" lon="-3.350143">
        <ele>1105.15</ele>
        <time>2022-04-17T08:41:54+00:00</time>
      </trkpt>
      <trkpt lat="41.075049" lon="-3.350015">
        <ele>1106.11</ele>
        <time>2022-04-17T08:41:55+00:00</time>
      </trkpt>
      <trkpt lat="41.075392" lon="-3.348792">
        <ele>1114.77</ele>
        <time>2022-04-17T08:42:05+00:00</time>
      </trkpt>
      <trkpt lat="41.075972" lon="-3.347461">
        <ele>1117.65</ele>
        <time>2022-04-17T08:42:17+00:00</time>
      </trkpt>
      <trkpt lat="41.076444" lon="-3.346474">
        <ele>1117.65</ele>
        <time>2022-04-17T08:42:26+00:00</time>
      </trkpt>
      <trkpt lat="41.076487" lon="-3.346367">
        <ele>1117.65</ele>
        <time>2022-04-17T08:42:27+00:00</time>
      </trkpt>
      <trkpt lat="41.076508" lon="-3.346238">
        <ele>1117.17</ele>
        <time>2022-04-17T08:42:28+00:00</time>
      </trkpt>
      <trkpt lat="41.076508" lon="-3.346109">
        <ele>1116.69</ele>
        <time>2022-04-17T08:42:29+00:00</time>
      </trkpt>
      <trkpt lat="41.076530" lon="-3.346002">
        <ele>1116.21</ele>
        <time>2022-04-17T08:42:30+00:00</time>
      </trkpt>
      <trkpt lat="41.076551" lon="-3.345895">
        <ele>1115.73</ele>
        <time>2022-04-17T08:42:31+00:00</time>
      </trkpt>
      <trkpt lat="41.076551" lon="-3.345766">
        <ele>1114.77</ele>
        <time>2022-04-17T08:42:32+00:00</time>
      </trkpt>
      <trkpt lat="41.076530" lon="-3.344479">
        <ele>1105.15</ele>
        <time>2022-04-17T08:42:42+00:00</time>
      </trkpt>
      <trkpt lat="41.076572" lon="-3.344328">
        <ele>1103.71</ele>
        <time>2022-04-17T08:42:43+00:00</time>
      </trkpt>
      <trkpt lat="41.076615" lon="-3.344200">
        <ele>1102.27</ele>
        <time>2022-04-17T08:42:44+00:00</time>
      </trkpt>
      <trkpt lat="41.077216" lon="-3.342848">
        <ele>1090.73</ele>
        <time>2022-04-17T08:42:56+00:00</time>
      </trkpt>
      <trkpt lat="41.077431" lon="-3.342333">
        <ele>1088.33</ele>
        <time>2022-04-17T08:43:01+00:00</time>
      </trkpt>
      <trkpt lat="41.077559" lon="-3.342161">
        <ele>1087.85</ele>
        <time>2022-04-17T08:43:03+00:00</time>
      </trkpt>
      <trkpt lat="41.077624" lon="-3.342097">
        <ele>1087.85</ele>
        <time>2022-04-17T08:43:04+00:00</time>
      </trkpt>
      <trkpt lat="41.077710" lon="-3.342054">
        <ele>1088.33</ele>
        <time>2022-04-17T08:43:05+00:00</time>
      </trkpt>
      <trkpt lat="41.077796" lon="-3.342054">
        <ele>1088.33</ele>
        <time>2022-04-17T08:43:06+00:00</time>
      </trkpt>
      <trkpt lat="41.077860" lon="-3.342097">
        <ele>1088.81</ele>
        <time>2022-04-17T08:43:07+00:00</time>
      </trkpt>
      <trkpt lat="41.077946" lon="-3.342161">
        <ele>1089.29</ele>
        <time>2022-04-17T08:43:08+00:00</time>
      </trkpt>
      <trkpt lat="41.078053" lon="-3.342226">
        <ele>1089.77</ele>
        <time>2022-04-17T08:43:09+00:00</time>
      </trkpt>
      <trkpt lat="41.078482" lon="-3.342505">
        <ele>1092.66</ele>
        <time>2022-04-17T08:43:14+00:00</time>
      </trkpt>
      <trkpt lat="41.078568" lon="-3.342526">
        <ele>1092.66</ele>
        <time>2022-04-17T08:43:15+00:00</time>
      </trkpt>
      <trkpt lat="41.078632" lon="-3.342505">
        <ele>1092.66</ele>
        <time>2022-04-17T08:43:16+00:00</time>
      </trkpt>
      <trkpt lat="41.078697" lon="-3.342440">
        <ele>1092.18</ele>
        <time>2022-04-17T08:43:17+00:00</time>
      </trkpt>
      <trkpt lat="41.078718" lon="-3.342354">
        <ele>1092.18</ele>
        <time>2022-04-17T08:43:18+00:00</time>
      </trkpt>
      <trkpt lat="41.078761" lon="-3.342247">
        <ele>1091.69</ele>
        <time>2022-04-17T08:43:19+00:00</time>
      </trkpt>
      <trkpt lat="41.078783" lon="-3.342140">
        <ele>1091.69</ele>
        <time>2022-04-17T08:43:20+00:00</time>
      </trkpt>
      <trkpt lat="41.078825" lon="-3.342011">
        <ele>1092.18</ele>
        <time>2022-04-17T08:43:21+00:00</time>
      </trkpt>
      <trkpt lat="41.078868" lon="-3.341796">
        <ele>1093.14</ele>
        <time>2022-04-17T08:43:23+00:00</time>
      </trkpt>
      <trkpt lat="41.078868" lon="-3.341711">
        <ele>1094.10</ele>
        <time>2022-04-17T08:43:24+00:00</time>
      </trkpt>
      <trkpt lat="41.078825" lon="-3.341625">
        <ele>1095.06</ele>
        <time>2022-04-17T08:43:25+00:00</time>
      </trkpt>
      <trkpt lat="41.078804" lon="-3.341560">
        <ele>1095.54</ele>
        <time>2022-04-17T08:43:26+00:00</time>
      </trkpt>
      <trkpt lat="41.078761" lon="-3.341496">
        <ele>1096.50</ele>
        <time>2022-04-17T08:43:27+00:00</time>
      </trkpt>
      <trkpt lat="41.078718" lon="-3.341410">
        <ele>1097.46</ele>
        <time>2022-04-17T08:43:28+00:00</time>
      </trkpt>
      <trkpt lat="41.078246" lon="-3.340616">
        <ele>1104.19</ele>
        <time>2022-04-17T08:43:39+00:00</time>
      </trkpt>
      <trkpt lat="41.078246" lon="-3.340552">
        <ele>1104.67</ele>
        <time>2022-04-17T08:43:40+00:00</time>
      </trkpt>
      <trkpt lat="41.078225" lon="-3.340466">
        <ele>1105.15</ele>
        <time>2022-04-17T08:43:41+00:00</time>
      </trkpt>
      <trkpt lat="41.078225" lon="-3.340380">
        <ele>1105.63</ele>
        <time>2022-04-17T08:43:42+00:00</time>
      </trkpt>
      <trkpt lat="41.078268" lon="-3.340294">
        <ele>1106.11</ele>
        <time>2022-04-17T08:43:43+00:00</time>
      </trkpt>
      <trkpt lat="41.078310" lon="-3.340209">
        <ele>1106.11</ele>
        <time>2022-04-17T08:43:44+00:00</time>
      </trkpt>
      <trkpt lat="41.078353" lon="-3.340144">
        <ele>1107.08</ele>
        <time>2022-04-17T08:43:45+00:00</time>
      </trkpt>
      <trkpt lat="41.078418" lon="-3.340123">
        <ele>1107.56</ele>
        <time>2022-04-17T08:43:46+00:00</time>
      </trkpt>
      <trkpt lat="41.078890" lon="-3.339822">
        <ele>1109.48</ele>
        <time>2022-04-17T08:43:55+00:00</time>
      </trkpt>
      <trkpt lat="41.078954" lon="-3.339779">
        <ele>1109.48</ele>
        <time>2022-04-17T08:43:56+00:00</time>
      </trkpt>
      <trkpt lat="41.078976" lon="-3.339694">
        <ele>1109.00</ele>
        <time>2022-04-17T08:43:57+00:00</time>
      </trkpt>
      <trkpt lat="41.078997" lon="-3.339586">
        <ele>1109.00</ele>
        <time>2022-04-17T08:43:58+00:00</time>
      </trkpt>
      <trkpt lat="41.078997" lon="-3.339500">
        <ele>1108.52</ele>
        <time>2022-04-17T08:43:59+00:00</time>
      </trkpt>
      <trkpt lat="41.078954" lon="-3.339458">
        <ele>1108.52</ele>
        <time>2022-04-17T08:44:00+00:00</time>
      </trkpt>
      <trkpt lat="41.078890" lon="-3.339393">
        <ele>1108.04</ele>
        <time>2022-04-17T08:44:01+00:00</time>
      </trkpt>
      <trkpt lat="41.078847" lon="-3.339350">
        <ele>1108.04</ele>
        <time>2022-04-17T08:44:02+00:00</time>
      </trkpt>
      <trkpt lat="41.078225" lon="-3.338621">
        <ele>1110.92</ele>
        <time>2022-04-17T08:44:11+00:00</time>
      </trkpt>
      <trkpt lat="41.078182" lon="-3.338535">
        <ele>1111.40</ele>
        <time>2022-04-17T08:44:12+00:00</time>
      </trkpt>
      <trkpt lat="41.077753" lon="-3.337355">
        <ele>1115.25</ele>
        <time>2022-04-17T08:44:24+00:00</time>
      </trkpt>
      <trkpt lat="41.077731" lon="-3.337247">
        <ele>1114.77</ele>
        <time>2022-04-17T08:44:25+00:00</time>
      </trkpt>
      <trkpt lat="41.077581" lon="-3.336346">
        <ele>1109.96</ele>
        <time>2022-04-17T08:44:32+00:00</time>
      </trkpt>
      <trkpt lat="41.077517" lon="-3.336217">
        <ele>1109.00</ele>
        <time>2022-04-17T08:44:33+00:00</time>
      </trkpt>
      <trkpt lat="41.077452" lon="-3.336089">
        <ele>1108.04</ele>
        <time>2022-04-17T08:44:34+00:00</time>
      </trkpt>
      <trkpt lat="41.077345" lon="-3.336024">
        <ele>1107.56</ele>
        <time>2022-04-17T08:44:35+00:00</time>
      </trkpt>
      <trkpt lat="41.077238" lon="-3.335960">
        <ele>1106.59</ele>
        <time>2022-04-17T08:44:36+00:00</time>
      </trkpt>
      <trkpt lat="41.077130" lon="-3.335896">
        <ele>1105.63</ele>
        <time>2022-04-17T08:44:37+00:00</time>
      </trkpt>
      <trkpt lat="41.076787" lon="-3.335638">
        <ele>1102.75</ele>
        <time>2022-04-17T08:44:41+00:00</time>
      </trkpt>
      <trkpt lat="41.076766" lon="-3.335552">
        <ele>1102.27</ele>
        <time>2022-04-17T08:44:42+00:00</time>
      </trkpt>
      <trkpt lat="41.076808" lon="-3.335424">
        <ele>1101.79</ele>
        <time>2022-04-17T08:44:43+00:00</time>
      </trkpt>
      <trkpt lat="41.076851" lon="-3.335338">
        <ele>1101.79</ele>
        <time>2022-04-17T08:44:44+00:00</time>
      </trkpt>
      <trkpt lat="41.076916" lon="-3.335209">
        <ele>1102.27</ele>
        <time>2022-04-17T08:44:45+00:00</time>
      </trkpt>
      <trkpt lat="41.076980" lon="-3.335102">
        <ele>1102.27</ele>
        <time>2022-04-17T08:44:46+00:00</time>
      </trkpt>
      <trkpt lat="41.077581" lon="-3.334072">
        <ele>1107.08</ele>
        <time>2022-04-17T08:44:57+00:00</time>
      </trkpt>
      <trkpt lat="41.078225" lon="-3.332892">
        <ele>1109.00</ele>
        <time>2022-04-17T08:45:09+00:00</time>
      </trkpt>
      <trkpt lat="41.078310" lon="-3.332698">
        <ele>1108.52</ele>
        <time>2022-04-17T08:45:11+00:00</time>
      </trkpt>
      <trkpt lat="41.078375" lon="-3.332613">
        <ele>1108.04</ele>
        <time>2022-04-17T08:45:12+00:00</time>
      </trkpt>
      <trkpt lat="41.078375" lon="-3.332505">
        <ele>1107.56</ele>
        <time>2022-04-17T08:45:13+00:00</time>
      </trkpt>
      <trkpt lat="41.078375" lon="-3.332377">
        <ele>1107.08</ele>
        <time>2022-04-17T08:45:14+00:00</time>
      </trkpt>
      <trkpt lat="41.078396" lon="-3.332248">
        <ele>1106.59</ele>
        <time>2022-04-17T08:45:15+00:00</time>
      </trkpt>
      <trkpt lat="41.078396" lon="-3.332119">
        <ele>1106.11</ele>
        <time>2022-04-17T08:45:16+00:00</time>
      </trkpt>
      <trkpt lat="41.078396" lon="-3.331990">
        <ele>1105.63</ele>
        <time>2022-04-17T08:45:17+00:00</time>
      </trkpt>
      <trkpt lat="41.078418" lon="-3.331733">
        <ele>1104.19</ele>
        <time>2022-04-17T08:45:19+00:00</time>
      </trkpt>
      <trkpt lat="41.078439" lon="-3.331604">
        <ele>1103.71</ele>
        <time>2022-04-17T08:45:20+00:00</time>
      </trkpt>
      <trkpt lat="41.078482" lon="-3.331475">
        <ele>1103.71</ele>
        <time>2022-04-17T08:45:21+00:00</time>
      </trkpt>
      <trkpt lat="41.078547" lon="-3.331368">
        <ele>1103.23</ele>
        <time>2022-04-17T08:45:22+00:00</time>
      </trkpt>
      <trkpt lat="41.078611" lon="-3.331261">
        <ele>1102.75</ele>
        <time>2022-04-17T08:45:23+00:00</time>
      </trkpt>
      <trkpt lat="41.078675" lon="-3.331153">
        <ele>1102.75</ele>
        <time>2022-04-17T08:45:24+00:00</time>
      </trkpt>
      <trkpt lat="41.079405" lon="-3.329909">
        <ele>1095.06</ele>
        <time>2022-04-17T08:45:35+00:00</time>
      </trkpt>
      <trkpt lat="41.079512" lon="-3.329694">
        <ele>1093.62</ele>
        <time>2022-04-17T08:45:37+00:00</time>
      </trkpt>
      <trkpt lat="41.079555" lon="-3.329566">
        <ele>1092.66</ele>
        <time>2022-04-17T08:45:38+00:00</time>
      </trkpt>
      <trkpt lat="41.079576" lon="-3.329437">
        <ele>1091.69</ele>
        <time>2022-04-17T08:45:39+00:00</time>
      </trkpt>
      <trkpt lat="41.079598" lon="-3.329308">
        <ele>1090.73</ele>
        <time>2022-04-17T08:45:40+00:00</time>
      </trkpt>
      <trkpt lat="41.079619" lon="-3.329201">
        <ele>1089.77</ele>
        <time>2022-04-17T08:45:41+00:00</time>
      </trkpt>
      <trkpt lat="41.079619" lon="-3.329072">
        <ele>1088.81</ele>
        <time>2022-04-17T08:45:42+00:00</time>
      </trkpt>
      <trkpt lat="41.079619" lon="-3.328943">
        <ele>1088.33</ele>
        <time>2022-04-17T08:45:43+00:00</time>
      </trkpt>
      <trkpt lat="41.079619" lon="-3.328815">
        <ele>1087.37</ele>
        <time>2022-04-17T08:45:44+00:00</time>
      </trkpt>
      <trkpt lat="41.079662" lon="-3.327291">
        <ele>1078.24</ele>
        <time>2022-04-17T08:45:56+00:00</time>
      </trkpt>
      <trkpt lat="41.079984" lon="-3.325896">
        <ele>1070.06</ele>
        <time>2022-04-17T08:46:08+00:00</time>
      </trkpt>
      <trkpt lat="41.080242" lon="-3.324738">
        <ele>1063.82</ele>
        <time>2022-04-17T08:46:18+00:00</time>
      </trkpt>
      <trkpt lat="41.080263" lon="-3.324630">
        <ele>1063.34</ele>
        <time>2022-04-17T08:46:19+00:00</time>
      </trkpt>
      <trkpt lat="41.080263" lon="-3.324523">
        <ele>1062.37</ele>
        <time>2022-04-17T08:46:20+00:00</time>
      </trkpt>
      <trkpt lat="41.080220" lon="-3.324416">
        <ele>1061.89</ele>
        <time>2022-04-17T08:46:21+00:00</time>
      </trkpt>
      <trkpt lat="41.080199" lon="-3.324287">
        <ele>1060.93</ele>
        <time>2022-04-17T08:46:22+00:00</time>
      </trkpt>
      <trkpt lat="41.080156" lon="-3.324180">
        <ele>1060.45</ele>
        <time>2022-04-17T08:46:23+00:00</time>
      </trkpt>
      <trkpt lat="41.080091" lon="-3.324072">
        <ele>1059.49</ele>
        <time>2022-04-17T08:46:24+00:00</time>
      </trkpt>
      <trkpt lat="41.080049" lon="-3.323944">
        <ele>1059.01</ele>
        <time>2022-04-17T08:46:25+00:00</time>
      </trkpt>
      <trkpt lat="41.079383" lon="-3.322506">
        <ele>1051.80</ele>
        <time>2022-04-17T08:46:38+00:00</time>
      </trkpt>
      <trkpt lat="41.079340" lon="-3.322420">
        <ele>1051.32</ele>
        <time>2022-04-17T08:46:39+00:00</time>
      </trkpt>
      <trkpt lat="41.079340" lon="-3.322313">
        <ele>1051.32</ele>
        <time>2022-04-17T08:46:40+00:00</time>
      </trkpt>
      <trkpt lat="41.079340" lon="-3.322227">
        <ele>1051.32</ele>
        <time>2022-04-17T08:46:41+00:00</time>
      </trkpt>
      <trkpt lat="41.079340" lon="-3.322141">
        <ele>1051.32</ele>
        <time>2022-04-17T08:46:42+00:00</time>
      </trkpt>
      <trkpt lat="41.079383" lon="-3.322055">
        <ele>1051.80</ele>
        <time>2022-04-17T08:46:43+00:00</time>
      </trkpt>
      <trkpt lat="41.079426" lon="-3.321948">
        <ele>1051.80</ele>
        <time>2022-04-17T08:46:44+00:00</time>
      </trkpt>
      <trkpt lat="41.079491" lon="-3.321884">
        <ele>1052.76</ele>
        <time>2022-04-17T08:46:45+00:00</time>
      </trkpt>
      <trkpt lat="41.079576" lon="-3.321841">
        <ele>1053.24</ele>
        <time>2022-04-17T08:46:46+00:00</time>
      </trkpt>
      <trkpt lat="41.079662" lon="-3.321798">
        <ele>1054.20</ele>
        <time>2022-04-17T08:46:47+00:00</time>
      </trkpt>
      <trkpt lat="41.079748" lon="-3.321776">
        <ele>1054.68</ele>
        <time>2022-04-17T08:46:48+00:00</time>
      </trkpt>
      <trkpt lat="41.079834" lon="-3.321776">
        <ele>1055.16</ele>
        <time>2022-04-17T08:46:49+00:00</time>
      </trkpt>
      <trkpt lat="41.079941" lon="-3.321798">
        <ele>1056.13</ele>
        <time>2022-04-17T08:46:50+00:00</time>
      </trkpt>
      <trkpt lat="41.080521" lon="-3.321798">
        <ele>1062.37</ele>
        <time>2022-04-17T08:46:58+00:00</time>
      </trkpt>
      <trkpt lat="41.080585" lon="-3.321776">
        <ele>1062.86</ele>
        <time>2022-04-17T08:46:59+00:00</time>
      </trkpt>
      <trkpt lat="41.080628" lon="-3.321755">
        <ele>1063.34</ele>
        <time>2022-04-17T08:47:00+00:00</time>
      </trkpt>
      <trkpt lat="41.080692" lon="-3.321734">
        <ele>1064.30</ele>
        <time>2022-04-17T08:47:01+00:00</time>
      </trkpt>
      <trkpt lat="41.080714" lon="-3.321712">
        <ele>1064.78</ele>
        <time>2022-04-17T08:47:02+00:00</time>
      </trkpt>
      <trkpt lat="41.080735" lon="-3.321669">
        <ele>1065.26</ele>
        <time>2022-04-17T08:47:03+00:00</time>
      </trkpt>
      <trkpt lat="41.080735" lon="-3.321669">
        <ele>1066.22</ele>
        <time>2022-04-17T08:47:14+00:00</time>
      </trkpt>
      <trkpt lat="41.080757" lon="-3.321669">
        <ele>1066.22</ele>
        <time>2022-04-17T08:47:57+00:00</time>
      </trkpt>
      <trkpt lat="41.080778" lon="-3.321626">
        <ele>1066.70</ele>
        <time>2022-04-17T08:48:06+00:00</time>
      </trkpt>
      <trkpt lat="41.080778" lon="-3.321626">
        <ele>1066.70</ele>
        <time>2022-04-17T08:48:30+00:00</time>
      </trkpt>
      <trkpt lat="41.080778" lon="-3.321605">
        <ele>1065.26</ele>
        <time>2022-04-17T08:48:45+00:00</time>
      </trkpt>
      <trkpt lat="41.080800" lon="-3.321562">
        <ele>1065.26</ele>
        <time>2022-04-17T08:48:46+00:00</time>
      </trkpt>
      <trkpt lat="41.080821" lon="-3.321540">
        <ele>1065.26</ele>
        <time>2022-04-17T08:48:47+00:00</time>
      </trkpt>
      <trkpt lat="41.080842" lon="-3.321519">
        <ele>1065.74</ele>
        <time>2022-04-17T08:48:48+00:00</time>
      </trkpt>
      <trkpt lat="41.080864" lon="-3.321497">
        <ele>1066.22</ele>
        <time>2022-04-17T08:48:49+00:00</time>
      </trkpt>
      <trkpt lat="41.080864" lon="-3.321455">
        <ele>1066.22</ele>
        <time>2022-04-17T08:48:50+00:00</time>
      </trkpt>
      <trkpt lat="41.080885" lon="-3.321433">
        <ele>1067.18</ele>
        <time>2022-04-17T08:48:51+00:00</time>
      </trkpt>
      <trkpt lat="41.080907" lon="-3.321369">
        <ele>1068.14</ele>
        <time>2022-04-17T08:48:52+00:00</time>
      </trkpt>
      <trkpt lat="41.080907" lon="-3.321304">
        <ele>1069.10</ele>
        <time>2022-04-17T08:48:53+00:00</time>
      </trkpt>
      <trkpt lat="41.080928" lon="-3.321240">
        <ele>1070.06</ele>
        <time>2022-04-17T08:48:54+00:00</time>
      </trkpt>
      <trkpt lat="41.080928" lon="-3.321176">
        <ele>1071.03</ele>
        <time>2022-04-17T08:48:55+00:00</time>
      </trkpt>
      <trkpt lat="41.080928" lon="-3.321111">
        <ele>1072.47</ele>
        <time>2022-04-17T08:48:56+00:00</time>
      </trkpt>
      <trkpt lat="41.080907" lon="-3.321004">
        <ele>1073.43</ele>
        <time>2022-04-17T08:48:57+00:00</time>
      </trkpt>
      <trkpt lat="41.080885" lon="-3.320918">
        <ele>1074.39</ele>
        <time>2022-04-17T08:48:58+00:00</time>
      </trkpt>
      <trkpt lat="41.080885" lon="-3.320811">
        <ele>1074.87</ele>
        <time>2022-04-17T08:48:59+00:00</time>
      </trkpt>
      <trkpt lat="41.080864" lon="-3.320704">
        <ele>1075.83</ele>
        <time>2022-04-17T08:49:00+00:00</time>
      </trkpt>
      <trkpt lat="41.080542" lon="-3.319609">
        <ele>1079.20</ele>
        <time>2022-04-17T08:49:07+00:00</time>
      </trkpt>
      <trkpt lat="41.079920" lon="-3.317463">
        <ele>1080.64</ele>
        <time>2022-04-17T08:49:17+00:00</time>
      </trkpt>
      <trkpt lat="41.079255" lon="-3.315146">
        <ele>1080.64</ele>
        <time>2022-04-17T08:49:27+00:00</time>
      </trkpt>
      <trkpt lat="41.078976" lon="-3.314116">
        <ele>1080.16</ele>
        <time>2022-04-17T08:49:32+00:00</time>
      </trkpt>
      <trkpt lat="41.078954" lon="-3.313901">
        <ele>1080.16</ele>
        <time>2022-04-17T08:49:33+00:00</time>
      </trkpt>
      <trkpt lat="41.078954" lon="-3.313665">
        <ele>1079.68</ele>
        <time>2022-04-17T08:49:34+00:00</time>
      </trkpt>
      <trkpt lat="41.079276" lon="-3.311391">
        <ele>1072.47</ele>
        <time>2022-04-17T08:49:44+00:00</time>
      </trkpt>
      <trkpt lat="41.079362" lon="-3.310447">
        <ele>1070.55</ele>
        <time>2022-04-17T08:49:51+00:00</time>
      </trkpt>
      <trkpt lat="41.079362" lon="-3.310318">
        <ele>1070.55</ele>
        <time>2022-04-17T08:49:52+00:00</time>
      </trkpt>
      <trkpt lat="41.079298" lon="-3.310168">
        <ele>1071.03</ele>
        <time>2022-04-17T08:49:53+00:00</time>
      </trkpt>
      <trkpt lat="41.079255" lon="-3.309975">
        <ele>1071.03</ele>
        <time>2022-04-17T08:49:54+00:00</time>
      </trkpt>
      <trkpt lat="41.079126" lon="-3.309825">
        <ele>1071.51</ele>
        <time>2022-04-17T08:49:55+00:00</time>
      </trkpt>
      <trkpt lat="41.078997" lon="-3.309674">
        <ele>1071.99</ele>
        <time>2022-04-17T08:49:56+00:00</time>
      </trkpt>
      <trkpt lat="41.078868" lon="-3.309546">
        <ele>1072.47</ele>
        <time>2022-04-17T08:49:57+00:00</time>
      </trkpt>
      <trkpt lat="41.077109" lon="-3.307679">
        <ele>1076.79</ele>
        <time>2022-04-17T08:50:10+00:00</time>
      </trkpt>
      <trkpt lat="41.076143" lon="-3.306928">
        <ele>1074.87</ele>
        <time>2022-04-17T08:50:16+00:00</time>
      </trkpt>
      <trkpt lat="41.075950" lon="-3.306863">
        <ele>1073.91</ele>
        <time>2022-04-17T08:50:17+00:00</time>
      </trkpt>
      <trkpt lat="41.075757" lon="-3.306799">
        <ele>1072.95</ele>
        <time>2022-04-17T08:50:18+00:00</time>
      </trkpt>
      <trkpt lat="41.075542" lon="-3.306778">
        <ele>1071.99</ele>
        <time>2022-04-17T08:50:19+00:00</time>
      </trkpt>
      <trkpt lat="41.075306" lon="-3.306756">
        <ele>1071.51</ele>
        <time>2022-04-17T08:50:20+00:00</time>
      </trkpt>
      <trkpt lat="41.074126" lon="-3.306649">
        <ele>1069.58</ele>
        <time>2022-04-17T08:50:26+00:00</time>
      </trkpt>
      <trkpt lat="41.073139" lon="-3.306134">
        <ele>1069.10</ele>
        <time>2022-04-17T08:50:32+00:00</time>
      </trkpt>
      <trkpt lat="41.072495" lon="-3.305705">
        <ele>1068.62</ele>
        <time>2022-04-17T08:50:36+00:00</time>
      </trkpt>
      <trkpt lat="41.072302" lon="-3.305640">
        <ele>1067.66</ele>
        <time>2022-04-17T08:50:37+00:00</time>
      </trkpt>
      <trkpt lat="41.072131" lon="-3.305619">
        <ele>1066.22</ele>
        <time>2022-04-17T08:50:38+00:00</time>
      </trkpt>
      <trkpt lat="41.071938" lon="-3.305597">
        <ele>1065.74</ele>
        <time>2022-04-17T08:50:39+00:00</time>
      </trkpt>
      <trkpt lat="41.071766" lon="-3.305597">
        <ele>1064.30</ele>
        <time>2022-04-17T08:50:40+00:00</time>
      </trkpt>
      <trkpt lat="41.071594" lon="-3.305662">
        <ele>1063.34</ele>
        <time>2022-04-17T08:50:41+00:00</time>
      </trkpt>
      <trkpt lat="41.071401" lon="-3.305726">
        <ele>1062.37</ele>
        <time>2022-04-17T08:50:42+00:00</time>
      </trkpt>
      <trkpt lat="41.071208" lon="-3.305790">
        <ele>1061.41</ele>
        <time>2022-04-17T08:50:43+00:00</time>
      </trkpt>
      <trkpt lat="41.071015" lon="-3.305833">
        <ele>1059.97</ele>
        <time>2022-04-17T08:50:44+00:00</time>
      </trkpt>
      <trkpt lat="41.070500" lon="-3.305876">
        <ele>1058.05</ele>
        <time>2022-04-17T08:50:47+00:00</time>
      </trkpt>
      <trkpt lat="41.070350" lon="-3.305898">
        <ele>1058.05</ele>
        <time>2022-04-17T08:50:48+00:00</time>
      </trkpt>
      <trkpt lat="41.070242" lon="-3.305769">
        <ele>1058.05</ele>
        <time>2022-04-17T08:50:49+00:00</time>
      </trkpt>
      <trkpt lat="41.070114" lon="-3.305640">
        <ele>1058.05</ele>
        <time>2022-04-17T08:50:50+00:00</time>
      </trkpt>
      <trkpt lat="41.069963" lon="-3.305490">
        <ele>1058.05</ele>
        <time>2022-04-17T08:50:51+00:00</time>
      </trkpt>
      <trkpt lat="41.068740" lon="-3.304052">
        <ele>1056.61</ele>
        <time>2022-04-17T08:51:00+00:00</time>
      </trkpt>
      <trkpt lat="41.068612" lon="-3.303859">
        <ele>1056.13</ele>
        <time>2022-04-17T08:51:01+00:00</time>
      </trkpt>
      <trkpt lat="41.068547" lon="-3.303602">
        <ele>1056.13</ele>
        <time>2022-04-17T08:51:02+00:00</time>
      </trkpt>
      <trkpt lat="41.067904" lon="-3.301735">
        <ele>1053.24</ele>
        <time>2022-04-17T08:51:10+00:00</time>
      </trkpt>
      <trkpt lat="41.067217" lon="-3.299503">
        <ele>1044.59</ele>
        <time>2022-04-17T08:51:19+00:00</time>
      </trkpt>
      <trkpt lat="41.066745" lon="-3.297358">
        <ele>1034.02</ele>
        <time>2022-04-17T08:51:28+00:00</time>
      </trkpt>
      <trkpt lat="41.066723" lon="-3.297164">
        <ele>1033.54</ele>
        <time>2022-04-17T08:51:29+00:00</time>
      </trkpt>
      <trkpt lat="41.066680" lon="-3.296993">
        <ele>1033.54</ele>
        <time>2022-04-17T08:51:30+00:00</time>
      </trkpt>
      <trkpt lat="41.066573" lon="-3.296886">
        <ele>1033.05</ele>
        <time>2022-04-17T08:51:31+00:00</time>
      </trkpt>
      <trkpt lat="41.066423" lon="-3.296757">
        <ele>1033.54</ele>
        <time>2022-04-17T08:51:32+00:00</time>
      </trkpt>
      <trkpt lat="41.066273" lon="-3.296649">
        <ele>1034.50</ele>
        <time>2022-04-17T08:51:33+00:00</time>
      </trkpt>
      <trkpt lat="41.066101" lon="-3.296564">
        <ele>1035.46</ele>
        <time>2022-04-17T08:51:34+00:00</time>
      </trkpt>
      <trkpt lat="41.065929" lon="-3.296478">
        <ele>1036.42</ele>
        <time>2022-04-17T08:51:35+00:00</time>
      </trkpt>
      <trkpt lat="41.065758" lon="-3.296392">
        <ele>1037.86</ele>
        <time>2022-04-17T08:51:36+00:00</time>
      </trkpt>
      <trkpt lat="41.065457" lon="-3.296220">
        <ele>1040.74</ele>
        <time>2022-04-17T08:51:38+00:00</time>
      </trkpt>
      <trkpt lat="41.065307" lon="-3.296156">
        <ele>1042.19</ele>
        <time>2022-04-17T08:51:39+00:00</time>
      </trkpt>
      <trkpt lat="41.065221" lon="-3.296027">
        <ele>1043.15</ele>
        <time>2022-04-17T08:51:40+00:00</time>
      </trkpt>
      <trkpt lat="41.065135" lon="-3.295877">
        <ele>1044.59</ele>
        <time>2022-04-17T08:51:41+00:00</time>
      </trkpt>
      <trkpt lat="41.065071" lon="-3.295727">
        <ele>1045.55</ele>
        <time>2022-04-17T08:51:42+00:00</time>
      </trkpt>
      <trkpt lat="41.065050" lon="-3.295512">
        <ele>1046.99</ele>
        <time>2022-04-17T08:51:43+00:00</time>
      </trkpt>
      <trkpt lat="41.065050" lon="-3.295298">
        <ele>1047.96</ele>
        <time>2022-04-17T08:51:44+00:00</time>
      </trkpt>
      <trkpt lat="41.065050" lon="-3.295105">
        <ele>1049.40</ele>
        <time>2022-04-17T08:51:45+00:00</time>
      </trkpt>
      <trkpt lat="41.065050" lon="-3.294911">
        <ele>1050.36</ele>
        <time>2022-04-17T08:51:46+00:00</time>
      </trkpt>
      <trkpt lat="41.065093" lon="-3.294761">
        <ele>1051.32</ele>
        <time>2022-04-17T08:51:47+00:00</time>
      </trkpt>
      <trkpt lat="41.065157" lon="-3.294632">
        <ele>1052.28</ele>
        <time>2022-04-17T08:51:48+00:00</time>
      </trkpt>
      <trkpt lat="41.065264" lon="-3.294525">
        <ele>1052.76</ele>
        <time>2022-04-17T08:51:49+00:00</time>
      </trkpt>
      <trkpt lat="41.065414" lon="-3.294439">
        <ele>1052.76</ele>
        <time>2022-04-17T08:51:50+00:00</time>
      </trkpt>
      <trkpt lat="41.065608" lon="-3.294354">
        <ele>1052.76</ele>
        <time>2022-04-17T08:51:51+00:00</time>
      </trkpt>
      <trkpt lat="41.065801" lon="-3.294289">
        <ele>1052.28</ele>
        <time>2022-04-17T08:51:52+00:00</time>
      </trkpt>
      <trkpt lat="41.066015" lon="-3.294246">
        <ele>1051.80</ele>
        <time>2022-04-17T08:51:53+00:00</time>
      </trkpt>
      <trkpt lat="41.066251" lon="-3.294203">
        <ele>1050.84</ele>
        <time>2022-04-17T08:51:54+00:00</time>
      </trkpt>
      <trkpt lat="41.067560" lon="-3.293989">
        <ele>1046.99</ele>
        <time>2022-04-17T08:52:01+00:00</time>
      </trkpt>
      <trkpt lat="41.067989" lon="-3.293881">
        <ele>1045.07</ele>
        <time>2022-04-17T08:52:04+00:00</time>
      </trkpt>
      <trkpt lat="41.068097" lon="-3.293796">
        <ele>1044.59</ele>
        <time>2022-04-17T08:52:05+00:00</time>
      </trkpt>
      <trkpt lat="41.068161" lon="-3.293710">
        <ele>1043.63</ele>
        <time>2022-04-17T08:52:06+00:00</time>
      </trkpt>
      <trkpt lat="41.068204" lon="-3.293603">
        <ele>1043.15</ele>
        <time>2022-04-17T08:52:07+00:00</time>
      </trkpt>
      <trkpt lat="41.068182" lon="-3.293431">
        <ele>1043.15</ele>
        <time>2022-04-17T08:52:08+00:00</time>
      </trkpt>
      <trkpt lat="41.068182" lon="-3.293302">
        <ele>1043.63</ele>
        <time>2022-04-17T08:52:09+00:00</time>
      </trkpt>
      <trkpt lat="41.068140" lon="-3.293216">
        <ele>1044.11</ele>
        <time>2022-04-17T08:52:10+00:00</time>
      </trkpt>
      <trkpt lat="41.068032" lon="-3.293173">
        <ele>1044.59</ele>
        <time>2022-04-17T08:52:11+00:00</time>
      </trkpt>
      <trkpt lat="41.067925" lon="-3.293152">
        <ele>1045.07</ele>
        <time>2022-04-17T08:52:12+00:00</time>
      </trkpt>
      <trkpt lat="41.067775" lon="-3.293109">
        <ele>1045.07</ele>
        <time>2022-04-17T08:52:13+00:00</time>
      </trkpt>
      <trkpt lat="41.067625" lon="-3.293088">
        <ele>1045.55</ele>
        <time>2022-04-17T08:52:14+00:00</time>
      </trkpt>
      <trkpt lat="41.067496" lon="-3.293023">
        <ele>1046.51</ele>
        <time>2022-04-17T08:52:15+00:00</time>
      </trkpt>
      <trkpt lat="41.067389" lon="-3.292873">
        <ele>1046.99</ele>
        <time>2022-04-17T08:52:16+00:00</time>
      </trkpt>
      <trkpt lat="41.067281" lon="-3.292723">
        <ele>1048.44</ele>
        <time>2022-04-17T08:52:17+00:00</time>
      </trkpt>
      <trkpt lat="41.067153" lon="-3.292551">
        <ele>1049.40</ele>
        <time>2022-04-17T08:52:18+00:00</time>
      </trkpt>
      <trkpt lat="41.066530" lon="-3.291607">
        <ele>1057.09</ele>
        <time>2022-04-17T08:52:24+00:00</time>
      </trkpt>
      <trkpt lat="41.066466" lon="-3.291478">
        <ele>1057.57</ele>
        <time>2022-04-17T08:52:25+00:00</time>
      </trkpt>
      <trkpt lat="41.066466" lon="-3.291285">
        <ele>1058.53</ele>
        <time>2022-04-17T08:52:26+00:00</time>
      </trkpt>
      <trkpt lat="41.066444" lon="-3.291070">
        <ele>1059.01</ele>
        <time>2022-04-17T08:52:27+00:00</time>
      </trkpt>
      <trkpt lat="41.066444" lon="-3.290877">
        <ele>1058.53</ele>
        <time>2022-04-17T08:52:28+00:00</time>
      </trkpt>
      <trkpt lat="41.066423" lon="-3.290706">
        <ele>1058.53</ele>
        <time>2022-04-17T08:52:29+00:00</time>
      </trkpt>
      <trkpt lat="41.066423" lon="-3.290534">
        <ele>1058.05</ele>
        <time>2022-04-17T08:52:30+00:00</time>
      </trkpt>
      <trkpt lat="41.066359" lon="-3.290405">
        <ele>1057.57</ele>
        <time>2022-04-17T08:52:31+00:00</time>
      </trkpt>
      <trkpt lat="41.066251" lon="-3.290319">
        <ele>1057.09</ele>
        <time>2022-04-17T08:52:32+00:00</time>
      </trkpt>
      <trkpt lat="41.066123" lon="-3.290255">
        <ele>1056.61</ele>
        <time>2022-04-17T08:52:33+00:00</time>
      </trkpt>
      <trkpt lat="41.065951" lon="-3.290234">
        <ele>1056.61</ele>
        <time>2022-04-17T08:52:34+00:00</time>
      </trkpt>
      <trkpt lat="41.065779" lon="-3.290234">
        <ele>1056.13</ele>
        <time>2022-04-17T08:52:35+00:00</time>
      </trkpt>
      <trkpt lat="41.065329" lon="-3.290169">
        <ele>1057.09</ele>
        <time>2022-04-17T08:52:38+00:00</time>
      </trkpt>
      <trkpt lat="41.065221" lon="-3.290148">
        <ele>1057.57</ele>
        <time>2022-04-17T08:52:39+00:00</time>
      </trkpt>
      <trkpt lat="41.064342" lon="-3.289890">
        <ele>1059.01</ele>
        <time>2022-04-17T08:52:48+00:00</time>
      </trkpt>
      <trkpt lat="41.063698" lon="-3.289676">
        <ele>1058.53</ele>
        <time>2022-04-17T08:52:57+00:00</time>
      </trkpt>
      <trkpt lat="41.063612" lon="-3.289633">
        <ele>1058.05</ele>
        <time>2022-04-17T08:52:58+00:00</time>
      </trkpt>
      <trkpt lat="41.063569" lon="-3.289547">
        <ele>1058.05</ele>
        <time>2022-04-17T08:52:59+00:00</time>
      </trkpt>
      <trkpt lat="41.063505" lon="-3.289461">
        <ele>1057.57</ele>
        <time>2022-04-17T08:53:00+00:00</time>
      </trkpt>
      <trkpt lat="41.063462" lon="-3.289375">
        <ele>1057.09</ele>
        <time>2022-04-17T08:53:01+00:00</time>
      </trkpt>
      <trkpt lat="41.063397" lon="-3.289290">
        <ele>1056.61</ele>
        <time>2022-04-17T08:53:02+00:00</time>
      </trkpt>
      <trkpt lat="41.062925" lon="-3.288388">
        <ele>1051.80</ele>
        <time>2022-04-17T08:53:09+00:00</time>
      </trkpt>
      <trkpt lat="41.062840" lon="-3.288238">
        <ele>1051.80</ele>
        <time>2022-04-17T08:53:10+00:00</time>
      </trkpt>
      <trkpt lat="41.062732" lon="-3.288152">
        <ele>1051.80</ele>
        <time>2022-04-17T08:53:11+00:00</time>
      </trkpt>
      <trkpt lat="41.062646" lon="-3.288045">
        <ele>1051.32</ele>
        <time>2022-04-17T08:53:12+00:00</time>
      </trkpt>
      <trkpt lat="41.061788" lon="-3.287144">
        <ele>1048.92</ele>
        <time>2022-04-17T08:53:20+00:00</time>
      </trkpt>
      <trkpt lat="41.061423" lon="-3.286629">
        <ele>1046.51</ele>
        <time>2022-04-17T08:53:24+00:00</time>
      </trkpt>
      <trkpt lat="41.061316" lon="-3.286564">
        <ele>1046.03</ele>
        <time>2022-04-17T08:53:25+00:00</time>
      </trkpt>
      <trkpt lat="41.061187" lon="-3.286564">
        <ele>1046.03</ele>
        <time>2022-04-17T08:53:26+00:00</time>
      </trkpt>
      <trkpt lat="41.061059" lon="-3.286564">
        <ele>1046.03</ele>
        <time>2022-04-17T08:53:27+00:00</time>
      </trkpt>
      <trkpt lat="41.060930" lon="-3.286586">
        <ele>1046.51</ele>
        <time>2022-04-17T08:53:28+00:00</time>
      </trkpt>
      <trkpt lat="41.060780" lon="-3.286607">
        <ele>1046.99</ele>
        <time>2022-04-17T08:53:29+00:00</time>
      </trkpt>
      <trkpt lat="41.060608" lon="-3.286607">
        <ele>1047.47</ele>
        <time>2022-04-17T08:53:30+00:00</time>
      </trkpt>
      <trkpt lat="41.060157" lon="-3.286586">
        <ele>1050.36</ele>
        <time>2022-04-17T08:53:33+00:00</time>
      </trkpt>
      <trkpt lat="41.060007" lon="-3.286521">
        <ele>1051.80</ele>
        <time>2022-04-17T08:53:34+00:00</time>
      </trkpt>
      <trkpt lat="41.059857" lon="-3.286436">
        <ele>1053.24</ele>
        <time>2022-04-17T08:53:35+00:00</time>
      </trkpt>
      <trkpt lat="41.058913" lon="-3.286006">
        <ele>1063.34</ele>
        <time>2022-04-17T08:53:41+00:00</time>
      </trkpt>
      <trkpt lat="41.058741" lon="-3.285985">
        <ele>1064.78</ele>
        <time>2022-04-17T08:53:42+00:00</time>
      </trkpt>
      <trkpt lat="41.058054" lon="-3.286049">
        <ele>1072.95</ele>
        <time>2022-04-17T08:53:46+00:00</time>
      </trkpt>
      <trkpt lat="41.057883" lon="-3.286049">
        <ele>1074.87</ele>
        <time>2022-04-17T08:53:47+00:00</time>
      </trkpt>
      <trkpt lat="41.057711" lon="-3.285964">
        <ele>1076.79</ele>
        <time>2022-04-17T08:53:48+00:00</time>
      </trkpt>
      <trkpt lat="41.056402" lon="-3.285341">
        <ele>1084.00</ele>
        <time>2022-04-17T08:53:56+00:00</time>
      </trkpt>
      <trkpt lat="41.054836" lon="-3.284826">
        <ele>1077.28</ele>
        <time>2022-04-17T08:54:03+00:00</time>
      </trkpt>
      <trkpt lat="41.052711" lon="-3.284397">
        <ele>1068.14</ele>
        <time>2022-04-17T08:54:12+00:00</time>
      </trkpt>
      <trkpt lat="41.051639" lon="-3.284247">
        <ele>1067.66</ele>
        <time>2022-04-17T08:54:17+00:00</time>
      </trkpt>
      <trkpt lat="41.051424" lon="-3.284290">
        <ele>1067.18</ele>
        <time>2022-04-17T08:54:18+00:00</time>
      </trkpt>
      <trkpt lat="41.051209" lon="-3.284333">
        <ele>1067.18</ele>
        <time>2022-04-17T08:54:19+00:00</time>
      </trkpt>
      <trkpt lat="41.049386" lon="-3.284740">
        <ele>1062.86</ele>
        <time>2022-04-17T08:54:27+00:00</time>
      </trkpt>
      <trkpt lat="41.047390" lon="-3.285298">
        <ele>1056.13</ele>
        <time>2022-04-17T08:54:36+00:00</time>
      </trkpt>
      <trkpt lat="41.045995" lon="-3.285921">
        <ele>1048.92</ele>
        <time>2022-04-17T08:54:43+00:00</time>
      </trkpt>
      <trkpt lat="41.045824" lon="-3.285899">
        <ele>1048.44</ele>
        <time>2022-04-17T08:54:44+00:00</time>
      </trkpt>
      <trkpt lat="41.045630" lon="-3.285878">
        <ele>1048.44</ele>
        <time>2022-04-17T08:54:45+00:00</time>
      </trkpt>
      <trkpt lat="41.045480" lon="-3.285835">
        <ele>1047.96</ele>
        <time>2022-04-17T08:54:46+00:00</time>
      </trkpt>
      <trkpt lat="41.045309" lon="-3.285770">
        <ele>1047.47</ele>
        <time>2022-04-17T08:54:47+00:00</time>
      </trkpt>
      <trkpt lat="41.045115" lon="-3.285685">
        <ele>1046.99</ele>
        <time>2022-04-17T08:54:48+00:00</time>
      </trkpt>
      <trkpt lat="41.043892" lon="-3.285234">
        <ele>1036.90</ele>
        <time>2022-04-17T08:54:54+00:00</time>
      </trkpt>
      <trkpt lat="41.043420" lon="-3.285084">
        <ele>1031.61</ele>
        <time>2022-04-17T08:54:57+00:00</time>
      </trkpt>
      <trkpt lat="41.043270" lon="-3.285105">
        <ele>1029.69</ele>
        <time>2022-04-17T08:54:58+00:00</time>
      </trkpt>
      <trkpt lat="41.043120" lon="-3.285105">
        <ele>1027.77</ele>
        <time>2022-04-17T08:54:59+00:00</time>
      </trkpt>
      <trkpt lat="41.042970" lon="-3.285062">
        <ele>1025.84</ele>
        <time>2022-04-17T08:55:00+00:00</time>
      </trkpt>
      <trkpt lat="41.042820" lon="-3.284955">
        <ele>1024.40</ele>
        <time>2022-04-17T08:55:01+00:00</time>
      </trkpt>
      <trkpt lat="41.042669" lon="-3.284869">
        <ele>1022.48</ele>
        <time>2022-04-17T08:55:02+00:00</time>
      </trkpt>
      <trkpt lat="41.042476" lon="-3.284869">
        <ele>1021.04</ele>
        <time>2022-04-17T08:55:03+00:00</time>
      </trkpt>
      <trkpt lat="41.042283" lon="-3.284869">
        <ele>1019.12</ele>
        <time>2022-04-17T08:55:04+00:00</time>
      </trkpt>
      <trkpt lat="41.041704" lon="-3.284891">
        <ele>1014.31</ele>
        <time>2022-04-17T08:55:07+00:00</time>
      </trkpt>
      <trkpt lat="41.041511" lon="-3.284869">
        <ele>1012.39</ele>
        <time>2022-04-17T08:55:08+00:00</time>
      </trkpt>
      <trkpt lat="41.041317" lon="-3.284783">
        <ele>1010.94</ele>
        <time>2022-04-17T08:55:09+00:00</time>
      </trkpt>
      <trkpt lat="41.041103" lon="-3.284698">
        <ele>1009.02</ele>
        <time>2022-04-17T08:55:10+00:00</time>
      </trkpt>
      <trkpt lat="41.040867" lon="-3.284676">
        <ele>1007.10</ele>
        <time>2022-04-17T08:55:11+00:00</time>
      </trkpt>
      <trkpt lat="41.039708" lon="-3.284354">
        <ele>995.56</ele>
        <time>2022-04-17T08:55:17+00:00</time>
      </trkpt>
      <trkpt lat="41.039279" lon="-3.284333">
        <ele>990.28</ele>
        <time>2022-04-17T08:55:20+00:00</time>
      </trkpt>
      <trkpt lat="41.039129" lon="-3.284397">
        <ele>988.83</ele>
        <time>2022-04-17T08:55:21+00:00</time>
      </trkpt>
      <trkpt lat="41.039000" lon="-3.284462">
        <ele>987.39</ele>
        <time>2022-04-17T08:55:22+00:00</time>
      </trkpt>
      <trkpt lat="41.038828" lon="-3.284462">
        <ele>985.95</ele>
        <time>2022-04-17T08:55:23+00:00</time>
      </trkpt>
      <trkpt lat="41.038657" lon="-3.284397">
        <ele>984.51</ele>
        <time>2022-04-17T08:55:24+00:00</time>
      </trkpt>
      <trkpt lat="41.038507" lon="-3.284311">
        <ele>983.07</ele>
        <time>2022-04-17T08:55:25+00:00</time>
      </trkpt>
      <trkpt lat="41.038356" lon="-3.284247">
        <ele>981.62</ele>
        <time>2022-04-17T08:55:26+00:00</time>
      </trkpt>
      <trkpt lat="41.038185" lon="-3.284226">
        <ele>980.18</ele>
        <time>2022-04-17T08:55:27+00:00</time>
      </trkpt>
      <trkpt lat="41.038013" lon="-3.284290">
        <ele>978.74</ele>
        <time>2022-04-17T08:55:28+00:00</time>
      </trkpt>
      <trkpt lat="41.037820" lon="-3.284354">
        <ele>976.82</ele>
        <time>2022-04-17T08:55:29+00:00</time>
      </trkpt>
      <trkpt lat="41.037648" lon="-3.284419">
        <ele>975.38</ele>
        <time>2022-04-17T08:55:30+00:00</time>
      </trkpt>
      <trkpt lat="41.036704" lon="-3.284783">
        <ele>968.17</ele>
        <time>2022-04-17T08:55:36+00:00</time>
      </trkpt>
      <trkpt lat="41.036618" lon="-3.284848">
        <ele>967.20</ele>
        <time>2022-04-17T08:55:37+00:00</time>
      </trkpt>
      <trkpt lat="41.036532" lon="-3.284912">
        <ele>966.24</ele>
        <time>2022-04-17T08:55:38+00:00</time>
      </trkpt>
      <trkpt lat="41.036447" lon="-3.284912">
        <ele>965.28</ele>
        <time>2022-04-17T08:55:39+00:00</time>
      </trkpt>
      <trkpt lat="41.036361" lon="-3.284912">
        <ele>964.80</ele>
        <time>2022-04-17T08:55:40+00:00</time>
      </trkpt>
      <trkpt lat="41.036275" lon="-3.284826">
        <ele>964.32</ele>
        <time>2022-04-17T08:55:41+00:00</time>
      </trkpt>
      <trkpt lat="41.036189" lon="-3.284740">
        <ele>963.36</ele>
        <time>2022-04-17T08:55:42+00:00</time>
      </trkpt>
      <trkpt lat="41.036125" lon="-3.284612">
        <ele>962.40</ele>
        <time>2022-04-17T08:55:43+00:00</time>
      </trkpt>
      <trkpt lat="41.036082" lon="-3.284504">
        <ele>961.44</ele>
        <time>2022-04-17T08:55:44+00:00</time>
      </trkpt>
      <trkpt lat="41.036082" lon="-3.284376">
        <ele>959.99</ele>
        <time>2022-04-17T08:55:45+00:00</time>
      </trkpt>
      <trkpt lat="41.036125" lon="-3.284247">
        <ele>958.55</ele>
        <time>2022-04-17T08:55:46+00:00</time>
      </trkpt>
      <trkpt lat="41.036189" lon="-3.284118">
        <ele>957.59</ele>
        <time>2022-04-17T08:55:47+00:00</time>
      </trkpt>
      <trkpt lat="41.036275" lon="-3.283968">
        <ele>956.63</ele>
        <time>2022-04-17T08:55:48+00:00</time>
      </trkpt>
      <trkpt lat="41.036447" lon="-3.283861">
        <ele>955.67</ele>
        <time>2022-04-17T08:55:49+00:00</time>
      </trkpt>
      <trkpt lat="41.036597" lon="-3.283732">
        <ele>955.19</ele>
        <time>2022-04-17T08:55:50+00:00</time>
      </trkpt>
      <trkpt lat="41.036790" lon="-3.283603">
        <ele>954.71</ele>
        <time>2022-04-17T08:55:51+00:00</time>
      </trkpt>
      <trkpt lat="41.037820" lon="-3.283002">
        <ele>949.90</ele>
        <time>2022-04-17T08:55:57+00:00</time>
      </trkpt>
      <trkpt lat="41.037927" lon="-3.282895">
        <ele>949.42</ele>
        <time>2022-04-17T08:55:58+00:00</time>
      </trkpt>
      <trkpt lat="41.038034" lon="-3.282788">
        <ele>948.46</ele>
        <time>2022-04-17T08:55:59+00:00</time>
      </trkpt>
      <trkpt lat="41.038077" lon="-3.282638">
        <ele>947.50</ele>
        <time>2022-04-17T08:56:00+00:00</time>
      </trkpt>
      <trkpt lat="41.038120" lon="-3.282445">
        <ele>946.54</ele>
        <time>2022-04-17T08:56:01+00:00</time>
      </trkpt>
      <trkpt lat="41.038185" lon="-3.282230">
        <ele>947.02</ele>
        <time>2022-04-17T08:56:02+00:00</time>
      </trkpt>
      <trkpt lat="41.038228" lon="-3.281994">
        <ele>947.02</ele>
        <time>2022-04-17T08:56:03+00:00</time>
      </trkpt>
      <trkpt lat="41.038228" lon="-3.281758">
        <ele>947.50</ele>
        <time>2022-04-17T08:56:04+00:00</time>
      </trkpt>
      <trkpt lat="41.038249" lon="-3.281565">
        <ele>947.98</ele>
        <time>2022-04-17T08:56:05+00:00</time>
      </trkpt>
      <trkpt lat="41.038206" lon="-3.281372">
        <ele>948.94</ele>
        <time>2022-04-17T08:56:06+00:00</time>
      </trkpt>
      <trkpt lat="41.038142" lon="-3.281179">
        <ele>949.90</ele>
        <time>2022-04-17T08:56:07+00:00</time>
      </trkpt>
      <trkpt lat="41.038034" lon="-3.281007">
        <ele>950.86</ele>
        <time>2022-04-17T08:56:08+00:00</time>
      </trkpt>
      <trkpt lat="41.037927" lon="-3.280835">
        <ele>951.82</ele>
        <time>2022-04-17T08:56:09+00:00</time>
      </trkpt>
      <trkpt lat="41.037820" lon="-3.280685">
        <ele>952.79</ele>
        <time>2022-04-17T08:56:10+00:00</time>
      </trkpt>
      <trkpt lat="41.037734" lon="-3.280556">
        <ele>953.75</ele>
        <time>2022-04-17T08:56:11+00:00</time>
      </trkpt>
      <trkpt lat="41.037498" lon="-3.280363">
        <ele>955.67</ele>
        <time>2022-04-17T08:56:13+00:00</time>
      </trkpt>
      <trkpt lat="41.037391" lon="-3.280256">
        <ele>956.15</ele>
        <time>2022-04-17T08:56:14+00:00</time>
      </trkpt>
      <trkpt lat="41.037305" lon="-3.280170">
        <ele>957.11</ele>
        <time>2022-04-17T08:56:15+00:00</time>
      </trkpt>
      <trkpt lat="41.037219" lon="-3.280149">
        <ele>957.11</ele>
        <time>2022-04-17T08:56:16+00:00</time>
      </trkpt>
      <trkpt lat="41.037133" lon="-3.280170">
        <ele>957.59</ele>
        <time>2022-04-17T08:56:17+00:00</time>
      </trkpt>
      <trkpt lat="41.037047" lon="-3.280277">
        <ele>958.55</ele>
        <time>2022-04-17T08:56:18+00:00</time>
      </trkpt>
      <trkpt lat="41.036962" lon="-3.280385">
        <ele>959.51</ele>
        <time>2022-04-17T08:56:19+00:00</time>
      </trkpt>
      <trkpt lat="41.036854" lon="-3.280513">
        <ele>959.99</ele>
        <time>2022-04-17T08:56:20+00:00</time>
      </trkpt>
      <trkpt lat="41.036726" lon="-3.280578">
        <ele>960.48</ele>
        <time>2022-04-17T08:56:21+00:00</time>
      </trkpt>
      <trkpt lat="41.036575" lon="-3.280621">
        <ele>960.96</ele>
        <time>2022-04-17T08:56:22+00:00</time>
      </trkpt>
      <trkpt lat="41.036425" lon="-3.280621">
        <ele>961.92</ele>
        <time>2022-04-17T08:56:23+00:00</time>
      </trkpt>
      <trkpt lat="41.036275" lon="-3.280621">
        <ele>962.40</ele>
        <time>2022-04-17T08:56:24+00:00</time>
      </trkpt>
      <trkpt lat="41.036125" lon="-3.280621">
        <ele>962.88</ele>
        <time>2022-04-17T08:56:25+00:00</time>
      </trkpt>
      <trkpt lat="41.035996" lon="-3.280621">
        <ele>963.36</ele>
        <time>2022-04-17T08:56:26+00:00</time>
      </trkpt>
      <trkpt lat="41.035867" lon="-3.280685">
        <ele>964.32</ele>
        <time>2022-04-17T08:56:27+00:00</time>
      </trkpt>
      <trkpt lat="41.035653" lon="-3.280835">
        <ele>965.28</ele>
        <time>2022-04-17T08:56:29+00:00</time>
      </trkpt>
      <trkpt lat="41.035545" lon="-3.280835">
        <ele>965.28</ele>
        <time>2022-04-17T08:56:30+00:00</time>
      </trkpt>
      <trkpt lat="41.035438" lon="-3.280814">
        <ele>965.28</ele>
        <time>2022-04-17T08:56:31+00:00</time>
      </trkpt>
      <trkpt lat="41.035331" lon="-3.280792">
        <ele>964.80</ele>
        <time>2022-04-17T08:56:32+00:00</time>
      </trkpt>
      <trkpt lat="41.035245" lon="-3.280728">
        <ele>964.80</ele>
        <time>2022-04-17T08:56:33+00:00</time>
      </trkpt>
      <trkpt lat="41.035159" lon="-3.280599">
        <ele>964.32</ele>
        <time>2022-04-17T08:56:34+00:00</time>
      </trkpt>
      <trkpt lat="41.035095" lon="-3.280406">
        <ele>964.32</ele>
        <time>2022-04-17T08:56:35+00:00</time>
      </trkpt>
      <trkpt lat="41.035030" lon="-3.280170">
        <ele>963.84</ele>
        <time>2022-04-17T08:56:36+00:00</time>
      </trkpt>
      <trkpt lat="41.034966" lon="-3.279934">
        <ele>963.84</ele>
        <time>2022-04-17T08:56:37+00:00</time>
      </trkpt>
      <trkpt lat="41.034816" lon="-3.279526">
        <ele>963.84</ele>
        <time>2022-04-17T08:56:39+00:00</time>
      </trkpt>
      <trkpt lat="41.034730" lon="-3.279376">
        <ele>964.32</ele>
        <time>2022-04-17T08:56:40+00:00</time>
      </trkpt>
      <trkpt lat="41.034537" lon="-3.279183">
        <ele>964.32</ele>
        <time>2022-04-17T08:56:42+00:00</time>
      </trkpt>
      <trkpt lat="41.034451" lon="-3.279119">
        <ele>964.32</ele>
        <time>2022-04-17T08:56:43+00:00</time>
      </trkpt>
      <trkpt lat="41.034387" lon="-3.279076">
        <ele>964.32</ele>
        <time>2022-04-17T08:56:44+00:00</time>
      </trkpt>
      <trkpt lat="41.034279" lon="-3.279076">
        <ele>963.84</ele>
        <time>2022-04-17T08:56:45+00:00</time>
      </trkpt>
      <trkpt lat="41.034215" lon="-3.279161">
        <ele>963.84</ele>
        <time>2022-04-17T08:56:46+00:00</time>
      </trkpt>
      <trkpt lat="41.034172" lon="-3.279269">
        <ele>964.32</ele>
        <time>2022-04-17T08:56:47+00:00</time>
      </trkpt>
      <trkpt lat="41.034151" lon="-3.279419">
        <ele>964.32</ele>
        <time>2022-04-17T08:56:48+00:00</time>
      </trkpt>
      <trkpt lat="41.034194" lon="-3.279569">
        <ele>964.32</ele>
        <time>2022-04-17T08:56:49+00:00</time>
      </trkpt>
      <trkpt lat="41.034258" lon="-3.279784">
        <ele>964.32</ele>
        <time>2022-04-17T08:56:50+00:00</time>
      </trkpt>
      <trkpt lat="41.034322" lon="-3.280020">
        <ele>964.32</ele>
        <time>2022-04-17T08:56:51+00:00</time>
      </trkpt>
      <trkpt lat="41.034365" lon="-3.280256">
        <ele>963.84</ele>
        <time>2022-04-17T08:56:52+00:00</time>
      </trkpt>
      <trkpt lat="41.034408" lon="-3.280492">
        <ele>963.36</ele>
        <time>2022-04-17T08:56:53+00:00</time>
      </trkpt>
      <trkpt lat="41.034408" lon="-3.280706">
        <ele>963.36</ele>
        <time>2022-04-17T08:56:54+00:00</time>
      </trkpt>
      <trkpt lat="41.034387" lon="-3.280878">
        <ele>962.88</ele>
        <time>2022-04-17T08:56:55+00:00</time>
      </trkpt>
      <trkpt lat="41.034387" lon="-3.281050">
        <ele>962.88</ele>
        <time>2022-04-17T08:56:56+00:00</time>
      </trkpt>
      <trkpt lat="41.034322" lon="-3.281179">
        <ele>962.88</ele>
        <time>2022-04-17T08:56:57+00:00</time>
      </trkpt>
      <trkpt lat="41.034236" lon="-3.281350">
        <ele>962.88</ele>
        <time>2022-04-17T08:56:58+00:00</time>
      </trkpt>
      <trkpt lat="41.034108" lon="-3.281500">
        <ele>963.36</ele>
        <time>2022-04-17T08:56:59+00:00</time>
      </trkpt>
      <trkpt lat="41.033957" lon="-3.281608">
        <ele>963.84</ele>
        <time>2022-04-17T08:57:00+00:00</time>
      </trkpt>
      <trkpt lat="41.033829" lon="-3.281715">
        <ele>964.32</ele>
        <time>2022-04-17T08:57:01+00:00</time>
      </trkpt>
      <trkpt lat="41.033721" lon="-3.281801">
        <ele>964.80</ele>
        <time>2022-04-17T08:57:02+00:00</time>
      </trkpt>
      <trkpt lat="41.033614" lon="-3.281865">
        <ele>965.28</ele>
        <time>2022-04-17T08:57:03+00:00</time>
      </trkpt>
      <trkpt lat="41.033528" lon="-3.281930">
        <ele>965.76</ele>
        <time>2022-04-17T08:57:04+00:00</time>
      </trkpt>
      <trkpt lat="41.033421" lon="-3.281908">
        <ele>966.24</ele>
        <time>2022-04-17T08:57:05+00:00</time>
      </trkpt>
      <trkpt lat="41.033314" lon="-3.281865">
        <ele>966.72</ele>
        <time>2022-04-17T08:57:06+00:00</time>
      </trkpt>
      <trkpt lat="41.033185" lon="-3.281801">
        <ele>967.69</ele>
        <time>2022-04-17T08:57:07+00:00</time>
      </trkpt>
      <trkpt lat="41.033078" lon="-3.281736">
        <ele>968.17</ele>
        <time>2022-04-17T08:57:08+00:00</time>
      </trkpt>
      <trkpt lat="41.032970" lon="-3.281629">
        <ele>968.65</ele>
        <time>2022-04-17T08:57:09+00:00</time>
      </trkpt>
      <trkpt lat="41.032906" lon="-3.281500">
        <ele>969.13</ele>
        <time>2022-04-17T08:57:10+00:00</time>
      </trkpt>
      <trkpt lat="41.032842" lon="-3.281350">
        <ele>969.61</ele>
        <time>2022-04-17T08:57:11+00:00</time>
      </trkpt>
      <trkpt lat="41.032756" lon="-3.281179">
        <ele>969.61</ele>
        <time>2022-04-17T08:57:12+00:00</time>
      </trkpt>
      <trkpt lat="41.032627" lon="-3.280857">
        <ele>969.13</ele>
        <time>2022-04-17T08:57:14+00:00</time>
      </trkpt>
      <trkpt lat="41.032606" lon="-3.280685">
        <ele>968.17</ele>
        <time>2022-04-17T08:57:15+00:00</time>
      </trkpt>
      <trkpt lat="41.032584" lon="-3.280513">
        <ele>967.69</ele>
        <time>2022-04-17T08:57:16+00:00</time>
      </trkpt>
      <trkpt lat="41.032584" lon="-3.280342">
        <ele>966.72</ele>
        <time>2022-04-17T08:57:17+00:00</time>
      </trkpt>
      <trkpt lat="41.032584" lon="-3.280191">
        <ele>965.76</ele>
        <time>2022-04-17T08:57:18+00:00</time>
      </trkpt>
      <trkpt lat="41.032584" lon="-3.280041">
        <ele>964.80</ele>
        <time>2022-04-17T08:57:19+00:00</time>
      </trkpt>
      <trkpt lat="41.032541" lon="-3.279891">
        <ele>963.84</ele>
        <time>2022-04-17T08:57:20+00:00</time>
      </trkpt>
      <trkpt lat="41.032477" lon="-3.279741">
        <ele>962.88</ele>
        <time>2022-04-17T08:57:21+00:00</time>
      </trkpt>
      <trkpt lat="41.032370" lon="-3.279612">
        <ele>961.92</ele>
        <time>2022-04-17T08:57:22+00:00</time>
      </trkpt>
      <trkpt lat="41.032219" lon="-3.279483">
        <ele>961.44</ele>
        <time>2022-04-17T08:57:23+00:00</time>
      </trkpt>
      <trkpt lat="41.031919" lon="-3.279140">
        <ele>959.51</ele>
        <time>2022-04-17T08:57:25+00:00</time>
      </trkpt>
      <trkpt lat="41.031168" lon="-3.278153">
        <ele>956.63</ele>
        <time>2022-04-17T08:57:31+00:00</time>
      </trkpt>
      <trkpt lat="41.031147" lon="-3.277981">
        <ele>956.63</ele>
        <time>2022-04-17T08:57:32+00:00</time>
      </trkpt>
      <trkpt lat="41.031125" lon="-3.277767">
        <ele>956.63</ele>
        <time>2022-04-17T08:57:33+00:00</time>
      </trkpt>
      <trkpt lat="41.031039" lon="-3.277059">
        <ele>957.59</ele>
        <time>2022-04-17T08:57:36+00:00</time>
      </trkpt>
      <trkpt lat="41.030975" lon="-3.276887">
        <ele>958.07</ele>
        <time>2022-04-17T08:57:37+00:00</time>
      </trkpt>
      <trkpt lat="41.030889" lon="-3.276715">
        <ele>959.03</ele>
        <time>2022-04-17T08:57:38+00:00</time>
      </trkpt>
      <trkpt lat="41.030760" lon="-3.276565">
        <ele>959.99</ele>
        <time>2022-04-17T08:57:39+00:00</time>
      </trkpt>
      <trkpt lat="41.030610" lon="-3.276415">
        <ele>960.96</ele>
        <time>2022-04-17T08:57:40+00:00</time>
      </trkpt>
      <trkpt lat="41.030460" lon="-3.276222">
        <ele>961.92</ele>
        <time>2022-04-17T08:57:41+00:00</time>
      </trkpt>
      <trkpt lat="41.030310" lon="-3.276007">
        <ele>963.36</ele>
        <time>2022-04-17T08:57:42+00:00</time>
      </trkpt>
      <trkpt lat="41.030159" lon="-3.275814">
        <ele>964.80</ele>
        <time>2022-04-17T08:57:43+00:00</time>
      </trkpt>
      <trkpt lat="41.030031" lon="-3.275642">
        <ele>965.76</ele>
        <time>2022-04-17T08:57:44+00:00</time>
      </trkpt>
      <trkpt lat="41.029881" lon="-3.275492">
        <ele>967.20</ele>
        <time>2022-04-17T08:57:45+00:00</time>
      </trkpt>
      <trkpt lat="41.029730" lon="-3.275342">
        <ele>968.17</ele>
        <time>2022-04-17T08:57:46+00:00</time>
      </trkpt>
      <trkpt lat="41.029623" lon="-3.275213">
        <ele>969.61</ele>
        <time>2022-04-17T08:57:47+00:00</time>
      </trkpt>
      <trkpt lat="41.029516" lon="-3.275106">
        <ele>970.57</ele>
        <time>2022-04-17T08:57:48+00:00</time>
      </trkpt>
      <trkpt lat="41.029408" lon="-3.274999">
        <ele>971.53</ele>
        <time>2022-04-17T08:57:49+00:00</time>
      </trkpt>
      <trkpt lat="41.029344" lon="-3.274956">
        <ele>972.49</ele>
        <time>2022-04-17T08:57:50+00:00</time>
      </trkpt>
      <trkpt lat="41.029258" lon="-3.274913">
        <ele>973.45</ele>
        <time>2022-04-17T08:57:51+00:00</time>
      </trkpt>
      <trkpt lat="41.029194" lon="-3.274934">
        <ele>974.41</ele>
        <time>2022-04-17T08:57:52+00:00</time>
      </trkpt>
      <trkpt lat="41.029130" lon="-3.274977">
        <ele>975.38</ele>
        <time>2022-04-17T08:57:53+00:00</time>
      </trkpt>
      <trkpt lat="41.029065" lon="-3.275106">
        <ele>976.34</ele>
        <time>2022-04-17T08:57:54+00:00</time>
      </trkpt>
      <trkpt lat="41.029087" lon="-3.275235">
        <ele>977.30</ele>
        <time>2022-04-17T08:57:55+00:00</time>
      </trkpt>
      <trkpt lat="41.029151" lon="-3.275363">
        <ele>978.26</ele>
        <time>2022-04-17T08:57:56+00:00</time>
      </trkpt>
      <trkpt lat="41.029258" lon="-3.275449">
        <ele>979.22</ele>
        <time>2022-04-17T08:57:57+00:00</time>
      </trkpt>
      <trkpt lat="41.029408" lon="-3.275514">
        <ele>980.66</ele>
        <time>2022-04-17T08:57:58+00:00</time>
      </trkpt>
      <trkpt lat="41.029537" lon="-3.275621">
        <ele>981.14</ele>
        <time>2022-04-17T08:57:59+00:00</time>
      </trkpt>
      <trkpt lat="41.029644" lon="-3.275728">
        <ele>981.62</ele>
        <time>2022-04-17T08:58:00+00:00</time>
      </trkpt>
      <trkpt lat="41.029730" lon="-3.275857">
        <ele>982.11</ele>
        <time>2022-04-17T08:58:01+00:00</time>
      </trkpt>
      <trkpt lat="41.029816" lon="-3.275986">
        <ele>982.59</ele>
        <time>2022-04-17T08:58:02+00:00</time>
      </trkpt>
      <trkpt lat="41.029859" lon="-3.276115">
        <ele>982.59</ele>
        <time>2022-04-17T08:58:03+00:00</time>
      </trkpt>
      <trkpt lat="41.029945" lon="-3.276329">
        <ele>983.07</ele>
        <time>2022-04-17T08:58:05+00:00</time>
      </trkpt>
      <trkpt lat="41.029966" lon="-3.276415">
        <ele>983.07</ele>
        <time>2022-04-17T08:58:06+00:00</time>
      </trkpt>
      <trkpt lat="41.029988" lon="-3.276479">
        <ele>983.55</ele>
        <time>2022-04-17T08:58:07+00:00</time>
      </trkpt>
      <trkpt lat="41.029988" lon="-3.276565">
        <ele>983.55</ele>
        <time>2022-04-17T08:58:08+00:00</time>
      </trkpt>
      <trkpt lat="41.029966" lon="-3.276651">
        <ele>983.07</ele>
        <time>2022-04-17T08:58:09+00:00</time>
      </trkpt>
      <trkpt lat="41.029881" lon="-3.276737">
        <ele>983.07</ele>
        <time>2022-04-17T08:58:10+00:00</time>
      </trkpt>
      <trkpt lat="41.029816" lon="-3.276758">
        <ele>983.07</ele>
        <time>2022-04-17T08:58:11+00:00</time>
      </trkpt>
      <trkpt lat="41.029687" lon="-3.276758">
        <ele>983.07</ele>
        <time>2022-04-17T08:58:12+00:00</time>
      </trkpt>
      <trkpt lat="41.029559" lon="-3.276715">
        <ele>983.55</ele>
        <time>2022-04-17T08:58:13+00:00</time>
      </trkpt>
      <trkpt lat="41.029387" lon="-3.276629">
        <ele>984.03</ele>
        <time>2022-04-17T08:58:14+00:00</time>
      </trkpt>
      <trkpt lat="41.028400" lon="-3.276222">
        <ele>988.35</ele>
        <time>2022-04-17T08:58:19+00:00</time>
      </trkpt>
      <trkpt lat="41.028228" lon="-3.276072">
        <ele>989.31</ele>
        <time>2022-04-17T08:58:20+00:00</time>
      </trkpt>
      <trkpt lat="41.028035" lon="-3.275921">
        <ele>990.76</ele>
        <time>2022-04-17T08:58:21+00:00</time>
      </trkpt>
      <trkpt lat="41.027177" lon="-3.275235">
        <ele>998.93</ele>
        <time>2022-04-17T08:58:26+00:00</time>
      </trkpt>
      <trkpt lat="41.027027" lon="-3.275170">
        <ele>1000.37</ele>
        <time>2022-04-17T08:58:27+00:00</time>
      </trkpt>
      <trkpt lat="41.026855" lon="-3.275149">
        <ele>1002.29</ele>
        <time>2022-04-17T08:58:28+00:00</time>
      </trkpt>
      <trkpt lat="41.026683" lon="-3.275170">
        <ele>1003.73</ele>
        <time>2022-04-17T08:58:29+00:00</time>
      </trkpt>
      <trkpt lat="41.026512" lon="-3.275213">
        <ele>1005.66</ele>
        <time>2022-04-17T08:58:30+00:00</time>
      </trkpt>
      <trkpt lat="41.026361" lon="-3.275256">
        <ele>1008.06</ele>
        <time>2022-04-17T08:58:31+00:00</time>
      </trkpt>
      <trkpt lat="41.026104" lon="-3.275321">
        <ele>1011.43</ele>
        <time>2022-04-17T08:58:33+00:00</time>
      </trkpt>
      <trkpt lat="41.026018" lon="-3.275299">
        <ele>1012.87</ele>
        <time>2022-04-17T08:58:34+00:00</time>
      </trkpt>
      <trkpt lat="41.025932" lon="-3.275256">
        <ele>1013.83</ele>
        <time>2022-04-17T08:58:35+00:00</time>
      </trkpt>
      <trkpt lat="41.025696" lon="-3.275192">
        <ele>1018.64</ele>
        <time>2022-04-17T08:58:41+00:00</time>
      </trkpt>
      <trkpt lat="41.025610" lon="-3.275170">
        <ele>1020.08</ele>
        <time>2022-04-17T08:58:44+00:00</time>
      </trkpt>
      <trkpt lat="41.025610" lon="-3.275127">
        <ele>1021.04</ele>
        <time>2022-04-17T08:58:45+00:00</time>
      </trkpt>
      <trkpt lat="41.025632" lon="-3.275063">
        <ele>1022.00</ele>
        <time>2022-04-17T08:58:46+00:00</time>
      </trkpt>
      <trkpt lat="41.025632" lon="-3.274956">
        <ele>1022.48</ele>
        <time>2022-04-17T08:58:47+00:00</time>
      </trkpt>
      <trkpt lat="41.025653" lon="-3.274870">
        <ele>1022.48</ele>
        <time>2022-04-17T08:58:48+00:00</time>
      </trkpt>
      <trkpt lat="41.025718" lon="-3.274784">
        <ele>1022.48</ele>
        <time>2022-04-17T08:58:49+00:00</time>
      </trkpt>
      <trkpt lat="41.025804" lon="-3.274698">
        <ele>1022.48</ele>
        <time>2022-04-17T08:58:50+00:00</time>
      </trkpt>
      <trkpt lat="41.025889" lon="-3.274591">
        <ele>1022.48</ele>
        <time>2022-04-17T08:58:51+00:00</time>
      </trkpt>
      <trkpt lat="41.026018" lon="-3.274527">
        <ele>1022.48</ele>
        <time>2022-04-17T08:58:52+00:00</time>
      </trkpt>
      <trkpt lat="41.026168" lon="-3.274441">
        <ele>1022.96</ele>
        <time>2022-04-17T08:58:53+00:00</time>
      </trkpt>
      <trkpt lat="41.026598" lon="-3.274183">
        <ele>1022.00</ele>
        <time>2022-04-17T08:58:56+00:00</time>
      </trkpt>
      <trkpt lat="41.026683" lon="-3.274033">
        <ele>1021.52</ele>
        <time>2022-04-17T08:58:57+00:00</time>
      </trkpt>
      <trkpt lat="41.026748" lon="-3.273840">
        <ele>1020.56</ele>
        <time>2022-04-17T08:58:58+00:00</time>
      </trkpt>
      <trkpt lat="41.026812" lon="-3.273668">
        <ele>1020.56</ele>
        <time>2022-04-17T08:58:59+00:00</time>
      </trkpt>
      <trkpt lat="41.026855" lon="-3.273497">
        <ele>1020.08</ele>
        <time>2022-04-17T08:59:00+00:00</time>
      </trkpt>
      <trkpt lat="41.026919" lon="-3.273368">
        <ele>1019.60</ele>
        <time>2022-04-17T08:59:01+00:00</time>
      </trkpt>
      <trkpt lat="41.027070" lon="-3.273368">
        <ele>1019.60</ele>
        <time>2022-04-17T08:59:02+00:00</time>
      </trkpt>
      <trkpt lat="41.027198" lon="-3.273389">
        <ele>1019.60</ele>
        <time>2022-04-17T08:59:03+00:00</time>
      </trkpt>
      <trkpt lat="41.027349" lon="-3.273411">
        <ele>1020.08</ele>
        <time>2022-04-17T08:59:04+00:00</time>
      </trkpt>
      <trkpt lat="41.027499" lon="-3.273432">
        <ele>1020.08</ele>
        <time>2022-04-17T08:59:05+00:00</time>
      </trkpt>
      <trkpt lat="41.027627" lon="-3.273454">
        <ele>1020.56</ele>
        <time>2022-04-17T08:59:06+00:00</time>
      </trkpt>
      <trkpt lat="41.027735" lon="-3.273432">
        <ele>1021.04</ele>
        <time>2022-04-17T08:59:07+00:00</time>
      </trkpt>
      <trkpt lat="41.027821" lon="-3.273346">
        <ele>1021.52</ele>
        <time>2022-04-17T08:59:08+00:00</time>
      </trkpt>
      <trkpt lat="41.027842" lon="-3.273261">
        <ele>1022.00</ele>
        <time>2022-04-17T08:59:09+00:00</time>
      </trkpt>
      <trkpt lat="41.027864" lon="-3.273153">
        <ele>1022.48</ele>
        <time>2022-04-17T08:59:10+00:00</time>
      </trkpt>
      <trkpt lat="41.027799" lon="-3.273025">
        <ele>1022.96</ele>
        <time>2022-04-17T08:59:11+00:00</time>
      </trkpt>
      <trkpt lat="41.027692" lon="-3.272896">
        <ele>1023.92</ele>
        <time>2022-04-17T08:59:12+00:00</time>
      </trkpt>
      <trkpt lat="41.027563" lon="-3.272789">
        <ele>1024.88</ele>
        <time>2022-04-17T08:59:13+00:00</time>
      </trkpt>
      <trkpt lat="41.027370" lon="-3.272553">
        <ele>1026.81</ele>
        <time>2022-04-17T08:59:15+00:00</time>
      </trkpt>
      <trkpt lat="41.027284" lon="-3.272402">
        <ele>1027.29</ele>
        <time>2022-04-17T08:59:16+00:00</time>
      </trkpt>
      <trkpt lat="41.027263" lon="-3.272231">
        <ele>1028.25</ele>
        <time>2022-04-17T08:59:17+00:00</time>
      </trkpt>
      <trkpt lat="41.027134" lon="-3.271523">
        <ele>1030.65</ele>
        <time>2022-04-17T08:59:20+00:00</time>
      </trkpt>
      <trkpt lat="41.027048" lon="-3.271329">
        <ele>1031.61</ele>
        <time>2022-04-17T08:59:21+00:00</time>
      </trkpt>
      <trkpt lat="41.026984" lon="-3.271158">
        <ele>1032.57</ele>
        <time>2022-04-17T08:59:22+00:00</time>
      </trkpt>
      <trkpt lat="41.026962" lon="-3.271029">
        <ele>1033.54</ele>
        <time>2022-04-17T08:59:23+00:00</time>
      </trkpt>
      <trkpt lat="41.026941" lon="-3.270879">
        <ele>1034.02</ele>
        <time>2022-04-17T08:59:24+00:00</time>
      </trkpt>
      <trkpt lat="41.027005" lon="-3.270772">
        <ele>1034.98</ele>
        <time>2022-04-17T08:59:25+00:00</time>
      </trkpt>
      <trkpt lat="41.027112" lon="-3.270707">
        <ele>1035.46</ele>
        <time>2022-04-17T08:59:26+00:00</time>
      </trkpt>
      <trkpt lat="41.027241" lon="-3.270686">
        <ele>1035.94</ele>
        <time>2022-04-17T08:59:27+00:00</time>
      </trkpt>
      <trkpt lat="41.027434" lon="-3.270664">
        <ele>1036.90</ele>
        <time>2022-04-17T08:59:28+00:00</time>
      </trkpt>
      <trkpt lat="41.027606" lon="-3.270643">
        <ele>1037.86</ele>
        <time>2022-04-17T08:59:29+00:00</time>
      </trkpt>
      <trkpt lat="41.027778" lon="-3.270621">
        <ele>1038.82</ele>
        <time>2022-04-17T08:59:30+00:00</time>
      </trkpt>
      <trkpt lat="41.027906" lon="-3.270557">
        <ele>1039.30</ele>
        <time>2022-04-17T08:59:31+00:00</time>
      </trkpt>
      <trkpt lat="41.027992" lon="-3.270428">
        <ele>1040.26</ele>
        <time>2022-04-17T08:59:32+00:00</time>
      </trkpt>
      <trkpt lat="41.028078" lon="-3.270278">
        <ele>1040.26</ele>
        <time>2022-04-17T08:59:33+00:00</time>
      </trkpt>
      <trkpt lat="41.028121" lon="-3.270063">
        <ele>1040.26</ele>
        <time>2022-04-17T08:59:34+00:00</time>
      </trkpt>
      <trkpt lat="41.028121" lon="-3.269806">
        <ele>1040.74</ele>
        <time>2022-04-17T08:59:35+00:00</time>
      </trkpt>
      <trkpt lat="41.028121" lon="-3.269527">
        <ele>1040.74</ele>
        <time>2022-04-17T08:59:36+00:00</time>
      </trkpt>
      <trkpt lat="41.028142" lon="-3.267853">
        <ele>1041.71</ele>
        <time>2022-04-17T08:59:42+00:00</time>
      </trkpt>
      <trkpt lat="41.028142" lon="-3.267424">
        <ele>1042.19</ele>
        <time>2022-04-17T08:59:44+00:00</time>
      </trkpt>
      <trkpt lat="41.028164" lon="-3.267274">
        <ele>1042.19</ele>
        <time>2022-04-17T08:59:45+00:00</time>
      </trkpt>
      <trkpt lat="41.028271" lon="-3.267145">
        <ele>1042.67</ele>
        <time>2022-04-17T08:59:46+00:00</time>
      </trkpt>
      <trkpt lat="41.028378" lon="-3.266995">
        <ele>1043.15</ele>
        <time>2022-04-17T08:59:47+00:00</time>
      </trkpt>
      <trkpt lat="41.028486" lon="-3.266845">
        <ele>1043.63</ele>
        <time>2022-04-17T08:59:48+00:00</time>
      </trkpt>
      <trkpt lat="41.028572" lon="-3.266737">
        <ele>1043.63</ele>
        <time>2022-04-17T08:59:49+00:00</time>
      </trkpt>
      <trkpt lat="41.028615" lon="-3.266587">
        <ele>1044.11</ele>
        <time>2022-04-17T08:59:50+00:00</time>
      </trkpt>
      <trkpt lat="41.028636" lon="-3.266394">
        <ele>1044.11</ele>
        <time>2022-04-17T08:59:51+00:00</time>
      </trkpt>
      <trkpt lat="41.028550" lon="-3.266244">
        <ele>1044.59</ele>
        <time>2022-04-17T08:59:52+00:00</time>
      </trkpt>
      <trkpt lat="41.028443" lon="-3.266051">
        <ele>1044.59</ele>
        <time>2022-04-17T08:59:53+00:00</time>
      </trkpt>
      <trkpt lat="41.028336" lon="-3.265858">
        <ele>1045.55</ele>
        <time>2022-04-17T08:59:54+00:00</time>
      </trkpt>
      <trkpt lat="41.027949" lon="-3.265235">
        <ele>1047.47</ele>
        <time>2022-04-17T08:59:57+00:00</time>
      </trkpt>
      <trkpt lat="41.027799" lon="-3.265085">
        <ele>1048.44</ele>
        <time>2022-04-17T08:59:58+00:00</time>
      </trkpt>
      <trkpt lat="41.027606" lon="-3.264957">
        <ele>1048.92</ele>
        <time>2022-04-17T08:59:59+00:00</time>
      </trkpt>
      <trkpt lat="41.025954" lon="-3.263884">
        <ele>1054.20</ele>
        <time>2022-04-17T09:00:07+00:00</time>
      </trkpt>
      <trkpt lat="41.025568" lon="-3.263691">
        <ele>1053.72</ele>
        <time>2022-04-17T09:00:09+00:00</time>
      </trkpt>
      <trkpt lat="41.025396" lon="-3.263669">
        <ele>1053.24</ele>
        <time>2022-04-17T09:00:10+00:00</time>
      </trkpt>
      <trkpt lat="41.025224" lon="-3.263648">
        <ele>1052.76</ele>
        <time>2022-04-17T09:00:11+00:00</time>
      </trkpt>
      <trkpt lat="41.025074" lon="-3.263626">
        <ele>1052.76</ele>
        <time>2022-04-17T09:00:12+00:00</time>
      </trkpt>
      <trkpt lat="41.024924" lon="-3.263605">
        <ele>1052.28</ele>
        <time>2022-04-17T09:00:13+00:00</time>
      </trkpt>
      <trkpt lat="41.024774" lon="-3.263519">
        <ele>1051.80</ele>
        <time>2022-04-17T09:00:14+00:00</time>
      </trkpt>
      <trkpt lat="41.024666" lon="-3.263347">
        <ele>1051.32</ele>
        <time>2022-04-17T09:00:15+00:00</time>
      </trkpt>
      <trkpt lat="41.024559" lon="-3.263197">
        <ele>1050.84</ele>
        <time>2022-04-17T09:00:16+00:00</time>
      </trkpt>
      <trkpt lat="41.024452" lon="-3.263068">
        <ele>1049.88</ele>
        <time>2022-04-17T09:00:17+00:00</time>
      </trkpt>
      <trkpt lat="41.024302" lon="-3.263025">
        <ele>1048.92</ele>
        <time>2022-04-17T09:00:18+00:00</time>
      </trkpt>
      <trkpt lat="41.024151" lon="-3.263068">
        <ele>1048.44</ele>
        <time>2022-04-17T09:00:19+00:00</time>
      </trkpt>
      <trkpt lat="41.023980" lon="-3.263111">
        <ele>1047.47</ele>
        <time>2022-04-17T09:00:20+00:00</time>
      </trkpt>
      <trkpt lat="41.023765" lon="-3.263154">
        <ele>1046.51</ele>
        <time>2022-04-17T09:00:21+00:00</time>
      </trkpt>
      <trkpt lat="41.022349" lon="-3.263369">
        <ele>1040.26</ele>
        <time>2022-04-17T09:00:27+00:00</time>
      </trkpt>
      <trkpt lat="41.021619" lon="-3.263433">
        <ele>1036.90</ele>
        <time>2022-04-17T09:00:31+00:00</time>
      </trkpt>
      <trkpt lat="41.021469" lon="-3.263369">
        <ele>1035.94</ele>
        <time>2022-04-17T09:00:32+00:00</time>
      </trkpt>
      <trkpt lat="41.021319" lon="-3.263283">
        <ele>1034.98</ele>
        <time>2022-04-17T09:00:33+00:00</time>
      </trkpt>
      <trkpt lat="41.020310" lon="-3.262639">
        <ele>1029.21</ele>
        <time>2022-04-17T09:00:39+00:00</time>
      </trkpt>
      <trkpt lat="41.020182" lon="-3.262596">
        <ele>1027.77</ele>
        <time>2022-04-17T09:00:40+00:00</time>
      </trkpt>
      <trkpt lat="41.020096" lon="-3.262575">
        <ele>1026.33</ele>
        <time>2022-04-17T09:00:41+00:00</time>
      </trkpt>
      <trkpt lat="41.019989" lon="-3.262639">
        <ele>1024.88</ele>
        <time>2022-04-17T09:00:42+00:00</time>
      </trkpt>
      <trkpt lat="41.019903" lon="-3.262746">
        <ele>1023.44</ele>
        <time>2022-04-17T09:00:43+00:00</time>
      </trkpt>
      <trkpt lat="41.019817" lon="-3.262897">
        <ele>1022.00</ele>
        <time>2022-04-17T09:00:44+00:00</time>
      </trkpt>
      <trkpt lat="41.019731" lon="-3.263025">
        <ele>1021.04</ele>
        <time>2022-04-17T09:00:45+00:00</time>
      </trkpt>
      <trkpt lat="41.019624" lon="-3.263133">
        <ele>1019.60</ele>
        <time>2022-04-17T09:00:46+00:00</time>
      </trkpt>
      <trkpt lat="41.019495" lon="-3.263176">
        <ele>1018.64</ele>
        <time>2022-04-17T09:00:47+00:00</time>
      </trkpt>
      <trkpt lat="41.019388" lon="-3.263133">
        <ele>1017.67</ele>
        <time>2022-04-17T09:00:48+00:00</time>
      </trkpt>
      <trkpt lat="41.019259" lon="-3.263090">
        <ele>1016.71</ele>
        <time>2022-04-17T09:00:49+00:00</time>
      </trkpt>
      <trkpt lat="41.019130" lon="-3.263090">
        <ele>1015.27</ele>
        <time>2022-04-17T09:00:50+00:00</time>
      </trkpt>
      <trkpt lat="41.019044" lon="-3.263176">
        <ele>1014.31</ele>
        <time>2022-04-17T09:00:51+00:00</time>
      </trkpt>
      <trkpt lat="41.018959" lon="-3.263283">
        <ele>1013.35</ele>
        <time>2022-04-17T09:00:52+00:00</time>
      </trkpt>
      <trkpt lat="41.018873" lon="-3.263412">
        <ele>1012.39</ele>
        <time>2022-04-17T09:00:53+00:00</time>
      </trkpt>
      <trkpt lat="41.018787" lon="-3.263497">
        <ele>1011.43</ele>
        <time>2022-04-17T09:00:54+00:00</time>
      </trkpt>
      <trkpt lat="41.018680" lon="-3.263497">
        <ele>1010.94</ele>
        <time>2022-04-17T09:00:55+00:00</time>
      </trkpt>
      <trkpt lat="41.018572" lon="-3.263412">
        <ele>1009.98</ele>
        <time>2022-04-17T09:00:56+00:00</time>
      </trkpt>
      <trkpt lat="41.018465" lon="-3.263261">
        <ele>1009.02</ele>
        <time>2022-04-17T09:00:57+00:00</time>
      </trkpt>
      <trkpt lat="41.018379" lon="-3.263047">
        <ele>1008.06</ele>
        <time>2022-04-17T09:00:58+00:00</time>
      </trkpt>
      <trkpt lat="41.018272" lon="-3.262811">
        <ele>1007.10</ele>
        <time>2022-04-17T09:00:59+00:00</time>
      </trkpt>
      <trkpt lat="41.017929" lon="-3.262017">
        <ele>1004.22</ele>
        <time>2022-04-17T09:01:03+00:00</time>
      </trkpt>
      <trkpt lat="41.017907" lon="-3.261824">
        <ele>1003.73</ele>
        <time>2022-04-17T09:01:04+00:00</time>
      </trkpt>
      <trkpt lat="41.017864" lon="-3.261416">
        <ele>1002.29</ele>
        <time>2022-04-17T09:01:06+00:00</time>
      </trkpt>
      <trkpt lat="41.017843" lon="-3.261223">
        <ele>1001.81</ele>
        <time>2022-04-17T09:01:07+00:00</time>
      </trkpt>
      <trkpt lat="41.017843" lon="-3.261030">
        <ele>1001.33</ele>
        <time>2022-04-17T09:01:08+00:00</time>
      </trkpt>
      <trkpt lat="41.017907" lon="-3.260686">
        <ele>999.89</ele>
        <time>2022-04-17T09:01:10+00:00</time>
      </trkpt>
      <trkpt lat="41.017843" lon="-3.260493">
        <ele>998.93</ele>
        <time>2022-04-17T09:01:11+00:00</time>
      </trkpt>
      <trkpt lat="41.017735" lon="-3.260021">
        <ele>997.97</ele>
        <time>2022-04-17T09:01:13+00:00</time>
      </trkpt>
      <trkpt lat="41.017585" lon="-3.259227">
        <ele>998.45</ele>
        <time>2022-04-17T09:01:16+00:00</time>
      </trkpt>
      <trkpt lat="41.017499" lon="-3.258970">
        <ele>998.93</ele>
        <time>2022-04-17T09:01:17+00:00</time>
      </trkpt>
      <trkpt lat="41.017092" lon="-3.257918">
        <ele>1003.73</ele>
        <time>2022-04-17T09:01:22+00:00</time>
      </trkpt>
      <trkpt lat="41.016984" lon="-3.257790">
        <ele>1004.70</ele>
        <time>2022-04-17T09:01:23+00:00</time>
      </trkpt>
      <trkpt lat="41.016834" lon="-3.257682">
        <ele>1006.14</ele>
        <time>2022-04-17T09:01:24+00:00</time>
      </trkpt>
      <trkpt lat="41.016684" lon="-3.257618">
        <ele>1006.62</ele>
        <time>2022-04-17T09:01:25+00:00</time>
      </trkpt>
      <trkpt lat="41.016534" lon="-3.257639">
        <ele>1007.58</ele>
        <time>2022-04-17T09:01:26+00:00</time>
      </trkpt>
      <trkpt lat="41.016384" lon="-3.257682">
        <ele>1008.54</ele>
        <time>2022-04-17T09:01:27+00:00</time>
      </trkpt>
      <trkpt lat="41.015311" lon="-3.257468">
        <ele>1016.71</ele>
        <time>2022-04-17T09:01:35+00:00</time>
      </trkpt>
      <trkpt lat="41.015225" lon="-3.257489">
        <ele>1018.15</ele>
        <time>2022-04-17T09:01:36+00:00</time>
      </trkpt>
      <trkpt lat="41.015139" lon="-3.257468">
        <ele>1019.12</ele>
        <time>2022-04-17T09:01:37+00:00</time>
      </trkpt>
      <trkpt lat="41.015053" lon="-3.257446">
        <ele>1020.56</ele>
        <time>2022-04-17T09:01:38+00:00</time>
      </trkpt>
      <trkpt lat="41.015010" lon="-3.257318">
        <ele>1022.00</ele>
        <time>2022-04-17T09:01:39+00:00</time>
      </trkpt>
      <trkpt lat="41.015053" lon="-3.257210">
        <ele>1023.44</ele>
        <time>2022-04-17T09:01:40+00:00</time>
      </trkpt>
      <trkpt lat="41.015139" lon="-3.257103">
        <ele>1024.40</ele>
        <time>2022-04-17T09:01:41+00:00</time>
      </trkpt>
      <trkpt lat="41.015246" lon="-3.256931">
        <ele>1026.33</ele>
        <time>2022-04-17T09:01:42+00:00</time>
      </trkpt>
      <trkpt lat="41.015676" lon="-3.256266">
        <ele>1033.05</ele>
        <time>2022-04-17T09:01:47+00:00</time>
      </trkpt>
      <trkpt lat="41.015718" lon="-3.256137">
        <ele>1034.98</ele>
        <time>2022-04-17T09:01:48+00:00</time>
      </trkpt>
      <trkpt lat="41.015740" lon="-3.256030">
        <ele>1035.94</ele>
        <time>2022-04-17T09:01:49+00:00</time>
      </trkpt>
      <trkpt lat="41.015718" lon="-3.255901">
        <ele>1036.90</ele>
        <time>2022-04-17T09:01:50+00:00</time>
      </trkpt>
      <trkpt lat="41.015676" lon="-3.255794">
        <ele>1037.86</ele>
        <time>2022-04-17T09:01:51+00:00</time>
      </trkpt>
      <trkpt lat="41.015633" lon="-3.255665">
        <ele>1038.34</ele>
        <time>2022-04-17T09:01:52+00:00</time>
      </trkpt>
      <trkpt lat="41.015568" lon="-3.255515">
        <ele>1038.82</ele>
        <time>2022-04-17T09:01:53+00:00</time>
      </trkpt>
      <trkpt lat="41.015482" lon="-3.255408">
        <ele>1039.30</ele>
        <time>2022-04-17T09:01:54+00:00</time>
      </trkpt>
      <trkpt lat="41.015354" lon="-3.255150">
        <ele>1039.30</ele>
        <time>2022-04-17T09:01:56+00:00</time>
      </trkpt>
      <trkpt lat="41.015289" lon="-3.255043">
        <ele>1038.82</ele>
        <time>2022-04-17T09:01:57+00:00</time>
      </trkpt>
      <trkpt lat="41.015225" lon="-3.254957">
        <ele>1038.82</ele>
        <time>2022-04-17T09:01:58+00:00</time>
      </trkpt>
      <trkpt lat="41.015161" lon="-3.254871">
        <ele>1038.34</ele>
        <time>2022-04-17T09:01:59+00:00</time>
      </trkpt>
      <trkpt lat="41.015032" lon="-3.254828">
        <ele>1038.34</ele>
        <time>2022-04-17T09:02:00+00:00</time>
      </trkpt>
      <trkpt lat="41.014903" lon="-3.254807">
        <ele>1037.86</ele>
        <time>2022-04-17T09:02:01+00:00</time>
      </trkpt>
      <trkpt lat="41.014688" lon="-3.254764">
        <ele>1037.38</ele>
        <time>2022-04-17T09:02:03+00:00</time>
      </trkpt>
      <trkpt lat="41.014624" lon="-3.254678">
        <ele>1036.90</ele>
        <time>2022-04-17T09:02:04+00:00</time>
      </trkpt>
      <trkpt lat="41.014560" lon="-3.254571">
        <ele>1036.42</ele>
        <time>2022-04-17T09:02:05+00:00</time>
      </trkpt>
      <trkpt lat="41.014474" lon="-3.254421">
        <ele>1035.94</ele>
        <time>2022-04-17T09:02:06+00:00</time>
      </trkpt>
      <trkpt lat="41.014410" lon="-3.254271">
        <ele>1035.46</ele>
        <time>2022-04-17T09:02:07+00:00</time>
      </trkpt>
      <trkpt lat="41.014324" lon="-3.254120">
        <ele>1035.46</ele>
        <time>2022-04-17T09:02:08+00:00</time>
      </trkpt>
      <trkpt lat="41.014174" lon="-3.253863">
        <ele>1034.98</ele>
        <time>2022-04-17T09:02:10+00:00</time>
      </trkpt>
      <trkpt lat="41.014109" lon="-3.253777">
        <ele>1034.50</ele>
        <time>2022-04-17T09:02:11+00:00</time>
      </trkpt>
      <trkpt lat="41.014023" lon="-3.253691">
        <ele>1034.50</ele>
        <time>2022-04-17T09:02:12+00:00</time>
      </trkpt>
      <trkpt lat="41.013937" lon="-3.253670">
        <ele>1034.50</ele>
        <time>2022-04-17T09:02:13+00:00</time>
      </trkpt>
      <trkpt lat="41.013809" lon="-3.253627">
        <ele>1034.02</ele>
        <time>2022-04-17T09:02:14+00:00</time>
      </trkpt>
      <trkpt lat="41.013701" lon="-3.253584">
        <ele>1033.54</ele>
        <time>2022-04-17T09:02:15+00:00</time>
      </trkpt>
      <trkpt lat="41.013465" lon="-3.253520">
        <ele>1033.05</ele>
        <time>2022-04-17T09:02:17+00:00</time>
      </trkpt>
      <trkpt lat="41.013337" lon="-3.253477">
        <ele>1032.57</ele>
        <time>2022-04-17T09:02:18+00:00</time>
      </trkpt>
      <trkpt lat="41.013251" lon="-3.253348">
        <ele>1032.57</ele>
        <time>2022-04-17T09:02:19+00:00</time>
      </trkpt>
      <trkpt lat="41.012950" lon="-3.252854">
        <ele>1031.61</ele>
        <time>2022-04-17T09:02:22+00:00</time>
      </trkpt>
      <trkpt lat="41.012843" lon="-3.252747">
        <ele>1031.13</ele>
        <time>2022-04-17T09:02:23+00:00</time>
      </trkpt>
      <trkpt lat="41.012714" lon="-3.252618">
        <ele>1030.65</ele>
        <time>2022-04-17T09:02:24+00:00</time>
      </trkpt>
      <trkpt lat="41.012564" lon="-3.252511">
        <ele>1030.17</ele>
        <time>2022-04-17T09:02:25+00:00</time>
      </trkpt>
      <trkpt lat="41.012435" lon="-3.252425">
        <ele>1029.69</ele>
        <time>2022-04-17T09:02:26+00:00</time>
      </trkpt>
      <trkpt lat="41.012221" lon="-3.252232">
        <ele>1028.73</ele>
        <time>2022-04-17T09:02:28+00:00</time>
      </trkpt>
      <trkpt lat="41.011878" lon="-3.251867">
        <ele>1027.77</ele>
        <time>2022-04-17T09:02:31+00:00</time>
      </trkpt>
      <trkpt lat="41.011749" lon="-3.251717">
        <ele>1027.29</ele>
        <time>2022-04-17T09:02:32+00:00</time>
      </trkpt>
      <trkpt lat="41.011663" lon="-3.251524">
        <ele>1027.29</ele>
        <time>2022-04-17T09:02:33+00:00</time>
      </trkpt>
      <trkpt lat="41.010826" lon="-3.250279">
        <ele>1024.40</ele>
        <time>2022-04-17T09:02:41+00:00</time>
      </trkpt>
      <trkpt lat="41.009496" lon="-3.249164">
        <ele>1028.25</ele>
        <time>2022-04-17T09:02:51+00:00</time>
      </trkpt>
      <trkpt lat="41.007779" lon="-3.248391">
        <ele>1032.57</ele>
        <time>2022-04-17T09:03:02+00:00</time>
      </trkpt>
      <trkpt lat="41.006835" lon="-3.247876">
        <ele>1032.09</ele>
        <time>2022-04-17T09:03:08+00:00</time>
      </trkpt>
      <trkpt lat="41.006685" lon="-3.247941">
        <ele>1031.61</ele>
        <time>2022-04-17T09:03:09+00:00</time>
      </trkpt>
      <trkpt lat="41.006513" lon="-3.247983">
        <ele>1031.13</ele>
        <time>2022-04-17T09:03:10+00:00</time>
      </trkpt>
      <trkpt lat="41.006320" lon="-3.248048">
        <ele>1030.65</ele>
        <time>2022-04-17T09:03:11+00:00</time>
      </trkpt>
      <trkpt lat="41.006148" lon="-3.248091">
        <ele>1030.17</ele>
        <time>2022-04-17T09:03:12+00:00</time>
      </trkpt>
      <trkpt lat="41.004818" lon="-3.248606">
        <ele>1028.73</ele>
        <time>2022-04-17T09:03:20+00:00</time>
      </trkpt>
      <trkpt lat="41.003359" lon="-3.248799">
        <ele>1026.33</ele>
        <time>2022-04-17T09:03:30+00:00</time>
      </trkpt>
      <trkpt lat="41.003037" lon="-3.248799">
        <ele>1025.36</ele>
        <time>2022-04-17T09:03:33+00:00</time>
      </trkpt>
      <trkpt lat="41.002951" lon="-3.248756">
        <ele>1024.88</ele>
        <time>2022-04-17T09:03:34+00:00</time>
      </trkpt>
      <trkpt lat="41.002887" lon="-3.248692">
        <ele>1024.88</ele>
        <time>2022-04-17T09:03:35+00:00</time>
      </trkpt>
      <trkpt lat="41.002822" lon="-3.248606">
        <ele>1024.40</ele>
        <time>2022-04-17T09:03:36+00:00</time>
      </trkpt>
      <trkpt lat="41.002779" lon="-3.248520">
        <ele>1024.40</ele>
        <time>2022-04-17T09:03:37+00:00</time>
      </trkpt>
      <trkpt lat="41.002565" lon="-3.248220">
        <ele>1024.88</ele>
        <time>2022-04-17T09:03:41+00:00</time>
      </trkpt>
      <trkpt lat="41.002501" lon="-3.248177">
        <ele>1024.88</ele>
        <time>2022-04-17T09:03:42+00:00</time>
      </trkpt>
      <trkpt lat="41.002436" lon="-3.248155">
        <ele>1024.88</ele>
        <time>2022-04-17T09:03:43+00:00</time>
      </trkpt>
      <trkpt lat="41.002372" lon="-3.248155">
        <ele>1024.88</ele>
        <time>2022-04-17T09:03:44+00:00</time>
      </trkpt>
      <trkpt lat="41.002286" lon="-3.248155">
        <ele>1024.88</ele>
        <time>2022-04-17T09:03:45+00:00</time>
      </trkpt>
      <trkpt lat="41.001385" lon="-3.248177">
        <ele>1027.29</ele>
        <time>2022-04-17T09:03:59+00:00</time>
      </trkpt>
      <trkpt lat="41.000269" lon="-3.248112">
        <ele>1029.21</ele>
        <time>2022-04-17T09:04:13+00:00</time>
      </trkpt>
      <trkpt lat="40.999282" lon="-3.247962">
        <ele>1032.57</ele>
        <time>2022-04-17T09:04:22+00:00</time>
      </trkpt>
      <trkpt lat="40.998831" lon="-3.247898">
        <ele>1033.54</ele>
        <time>2022-04-17T09:04:28+00:00</time>
      </trkpt>
      <trkpt lat="40.998767" lon="-3.247898">
        <ele>1033.54</ele>
        <time>2022-04-17T09:04:29+00:00</time>
      </trkpt>
      <trkpt lat="40.998745" lon="-3.247876">
        <ele>1033.54</ele>
        <time>2022-04-17T09:04:30+00:00</time>
      </trkpt>
      <trkpt lat="40.998552" lon="-3.247855">
        <ele>1034.02</ele>
        <time>2022-04-17T09:04:36+00:00</time>
      </trkpt>
      <trkpt lat="40.998488" lon="-3.248241">
        <ele>1034.50</ele>
        <time>2022-04-17T09:04:40+00:00</time>
      </trkpt>
      <trkpt lat="40.998488" lon="-3.248327">
        <ele>1034.02</ele>
        <time>2022-04-17T09:04:42+00:00</time>
      </trkpt>
      <trkpt lat="40.998424" lon="-3.248348">
        <ele>1034.02</ele>
        <time>2022-04-17T09:04:48+00:00</time>
      </trkpt>
      <trkpt lat="40.998424" lon="-3.248305">
        <ele>1033.54</ele>
        <time>2022-04-17T09:04:58+00:00</time>
      </trkpt>
      <trkpt lat="40.998402" lon="-3.248327">
        <ele>1033.54</ele>
        <time>2022-04-17T09:05:23+00:00</time>
      </trkpt>
      <trkpt lat="40.998316" lon="-3.248284">
        <ele>1032.09</ele>
        <time>2022-04-17T10:05:46+00:00</time>
      </trkpt>
      <trkpt lat="40.998402" lon="-3.248348">
        <ele>1027.29</ele>
        <time>2022-04-17T10:06:24+00:00</time>
      </trkpt>
      <trkpt lat="40.998402" lon="-3.248327">
        <ele>1034.02</ele>
        <time>2022-04-17T10:06:56+00:00</time>
      </trkpt>
      <trkpt lat="40.998402" lon="-3.248348">
        <ele>1031.13</ele>
        <time>2022-04-17T10:07:38+00:00</time>
      </trkpt>
      <trkpt lat="40.998402" lon="-3.248348">
        <ele>1031.13</ele>
        <time>2022-04-17T10:08:15+00:00</time>
      </trkpt>
      <trkpt lat="40.998509" lon="-3.248048">
        <ele>1032.57</ele>
        <time>2022-04-17T10:08:21+00:00</time>
      </trkpt>
      <trkpt lat="40.998488" lon="-3.247855">
        <ele>1033.05</ele>
        <time>2022-04-17T10:08:26+00:00</time>
      </trkpt>
      <trkpt lat="40.998445" lon="-3.247833">
        <ele>1033.05</ele>
        <time>2022-04-17T10:08:27+00:00</time>
      </trkpt>
      <trkpt lat="40.998381" lon="-3.247833">
        <ele>1033.05</ele>
        <time>2022-04-17T10:08:28+00:00</time>
      </trkpt>
      <trkpt lat="40.997608" lon="-3.247726">
        <ele>1034.02</ele>
        <time>2022-04-17T10:08:36+00:00</time>
      </trkpt>
      <trkpt lat="40.996299" lon="-3.247662">
        <ele>1035.46</ele>
        <time>2022-04-17T10:08:44+00:00</time>
      </trkpt>
      <trkpt lat="40.994733" lon="-3.247919">
        <ele>1038.34</ele>
        <time>2022-04-17T10:08:51+00:00</time>
      </trkpt>
      <trkpt lat="40.991686" lon="-3.248348">
        <ele>1042.19</ele>
        <time>2022-04-17T10:09:04+00:00</time>
      </trkpt>
      <trkpt lat="40.991450" lon="-3.248305">
        <ele>1042.67</ele>
        <time>2022-04-17T10:09:05+00:00</time>
      </trkpt>
      <trkpt lat="40.991257" lon="-3.248220">
        <ele>1043.15</ele>
        <time>2022-04-17T10:09:06+00:00</time>
      </trkpt>
      <trkpt lat="40.991042" lon="-3.248112">
        <ele>1043.63</ele>
        <time>2022-04-17T10:09:07+00:00</time>
      </trkpt>
      <trkpt lat="40.990849" lon="-3.247962">
        <ele>1044.11</ele>
        <time>2022-04-17T10:09:08+00:00</time>
      </trkpt>
      <trkpt lat="40.990699" lon="-3.247747">
        <ele>1044.59</ele>
        <time>2022-04-17T10:09:09+00:00</time>
      </trkpt>
      <trkpt lat="40.990549" lon="-3.247511">
        <ele>1045.07</ele>
        <time>2022-04-17T10:09:10+00:00</time>
      </trkpt>
      <trkpt lat="40.990420" lon="-3.247254">
        <ele>1045.55</ele>
        <time>2022-04-17T10:09:11+00:00</time>
      </trkpt>
      <trkpt lat="40.990313" lon="-3.246996">
        <ele>1046.03</ele>
        <time>2022-04-17T10:09:12+00:00</time>
      </trkpt>
      <trkpt lat="40.990248" lon="-3.246696">
        <ele>1046.03</ele>
        <time>2022-04-17T10:09:13+00:00</time>
      </trkpt>
      <trkpt lat="40.990184" lon="-3.246396">
        <ele>1046.03</ele>
        <time>2022-04-17T10:09:14+00:00</time>
      </trkpt>
      <trkpt lat="40.989519" lon="-3.244100">
        <ele>1045.55</ele>
        <time>2022-04-17T10:09:22+00:00</time>
      </trkpt>
      <trkpt lat="40.988553" lon="-3.242662">
        <ele>1049.40</ele>
        <time>2022-04-17T10:09:28+00:00</time>
      </trkpt>
      <trkpt lat="40.987845" lon="-3.241890">
        <ele>1052.76</ele>
        <time>2022-04-17T10:09:32+00:00</time>
      </trkpt>
      <trkpt lat="40.987652" lon="-3.241739">
        <ele>1053.24</ele>
        <time>2022-04-17T10:09:33+00:00</time>
      </trkpt>
      <trkpt lat="40.987459" lon="-3.241653">
        <ele>1053.24</ele>
        <time>2022-04-17T10:09:34+00:00</time>
      </trkpt>
      <trkpt lat="40.987244" lon="-3.241632">
        <ele>1053.24</ele>
        <time>2022-04-17T10:09:35+00:00</time>
      </trkpt>
      <trkpt lat="40.987008" lon="-3.241589">
        <ele>1052.76</ele>
        <time>2022-04-17T10:09:36+00:00</time>
      </trkpt>
      <trkpt lat="40.986794" lon="-3.241589">
        <ele>1052.76</ele>
        <time>2022-04-17T10:09:37+00:00</time>
      </trkpt>
      <trkpt lat="40.986557" lon="-3.241653">
        <ele>1052.28</ele>
        <time>2022-04-17T10:09:38+00:00</time>
      </trkpt>
      <trkpt lat="40.986343" lon="-3.241761">
        <ele>1051.32</ele>
        <time>2022-04-17T10:09:39+00:00</time>
      </trkpt>
      <trkpt lat="40.986107" lon="-3.241911">
        <ele>1050.84</ele>
        <time>2022-04-17T10:09:40+00:00</time>
      </trkpt>
      <trkpt lat="40.985871" lon="-3.242040">
        <ele>1050.36</ele>
        <time>2022-04-17T10:09:41+00:00</time>
      </trkpt>
      <trkpt lat="40.983704" lon="-3.243156">
        <ele>1039.78</ele>
        <time>2022-04-17T10:09:50+00:00</time>
      </trkpt>
      <trkpt lat="40.983446" lon="-3.243134">
        <ele>1038.82</ele>
        <time>2022-04-17T10:09:51+00:00</time>
      </trkpt>
      <trkpt lat="40.983167" lon="-3.243134">
        <ele>1038.34</ele>
        <time>2022-04-17T10:09:52+00:00</time>
      </trkpt>
      <trkpt lat="40.982910" lon="-3.243113">
        <ele>1038.34</ele>
        <time>2022-04-17T10:09:53+00:00</time>
      </trkpt>
      <trkpt lat="40.982652" lon="-3.243027">
        <ele>1038.34</ele>
        <time>2022-04-17T10:09:54+00:00</time>
      </trkpt>
      <trkpt lat="40.982395" lon="-3.242962">
        <ele>1037.86</ele>
        <time>2022-04-17T10:09:55+00:00</time>
      </trkpt>
      <trkpt lat="40.980678" lon="-3.242447">
        <ele>1041.71</ele>
        <time>2022-04-17T10:10:02+00:00</time>
      </trkpt>
      <trkpt lat="40.980442" lon="-3.242447">
        <ele>1042.67</ele>
        <time>2022-04-17T10:10:03+00:00</time>
      </trkpt>
      <trkpt lat="40.980206" lon="-3.242447">
        <ele>1044.11</ele>
        <time>2022-04-17T10:10:04+00:00</time>
      </trkpt>
      <trkpt lat="40.979970" lon="-3.242490">
        <ele>1045.07</ele>
        <time>2022-04-17T10:10:05+00:00</time>
      </trkpt>
      <trkpt lat="40.979712" lon="-3.242576">
        <ele>1045.55</ele>
        <time>2022-04-17T10:10:06+00:00</time>
      </trkpt>
      <trkpt lat="40.979476" lon="-3.242683">
        <ele>1046.03</ele>
        <time>2022-04-17T10:10:07+00:00</time>
      </trkpt>
      <trkpt lat="40.979219" lon="-3.242834">
        <ele>1046.03</ele>
        <time>2022-04-17T10:10:08+00:00</time>
      </trkpt>
      <trkpt lat="40.975807" lon="-3.244679">
        <ele>1041.71</ele>
        <time>2022-04-17T10:10:21+00:00</time>
      </trkpt>
      <trkpt lat="40.972567" lon="-3.246160">
        <ele>1031.13</ele>
        <time>2022-04-17T10:10:33+00:00</time>
      </trkpt>
      <trkpt lat="40.970057" lon="-3.247254">
        <ele>1031.13</ele>
        <time>2022-04-17T10:10:43+00:00</time>
      </trkpt>
      <trkpt lat="40.969821" lon="-3.247318">
        <ele>1030.65</ele>
        <time>2022-04-17T10:10:44+00:00</time>
      </trkpt>
      <trkpt lat="40.969584" lon="-3.247275">
        <ele>1029.21</ele>
        <time>2022-04-17T10:10:45+00:00</time>
      </trkpt>
      <trkpt lat="40.969370" lon="-3.247254">
        <ele>1028.25</ele>
        <time>2022-04-17T10:10:46+00:00</time>
      </trkpt>
      <trkpt lat="40.969155" lon="-3.247147">
        <ele>1026.81</ele>
        <time>2022-04-17T10:10:47+00:00</time>
      </trkpt>
      <trkpt lat="40.968919" lon="-3.247061">
        <ele>1025.84</ele>
        <time>2022-04-17T10:10:48+00:00</time>
      </trkpt>
      <trkpt lat="40.968705" lon="-3.246975">
        <ele>1024.88</ele>
        <time>2022-04-17T10:10:49+00:00</time>
      </trkpt>
      <trkpt lat="40.968469" lon="-3.246889">
        <ele>1023.92</ele>
        <time>2022-04-17T10:10:50+00:00</time>
      </trkpt>
      <trkpt lat="40.968254" lon="-3.246825">
        <ele>1023.44</ele>
        <time>2022-04-17T10:10:51+00:00</time>
      </trkpt>
      <trkpt lat="40.968040" lon="-3.246825">
        <ele>1023.44</ele>
        <time>2022-04-17T10:10:52+00:00</time>
      </trkpt>
      <trkpt lat="40.967825" lon="-3.246846">
        <ele>1023.92</ele>
        <time>2022-04-17T10:10:53+00:00</time>
      </trkpt>
      <trkpt lat="40.967610" lon="-3.246932">
        <ele>1023.92</ele>
        <time>2022-04-17T10:10:54+00:00</time>
      </trkpt>
      <trkpt lat="40.967396" lon="-3.247018">
        <ele>1024.40</ele>
        <time>2022-04-17T10:10:55+00:00</time>
      </trkpt>
      <trkpt lat="40.967246" lon="-3.247168">
        <ele>1024.88</ele>
        <time>2022-04-17T10:10:56+00:00</time>
      </trkpt>
      <trkpt lat="40.967074" lon="-3.247318">
        <ele>1025.84</ele>
        <time>2022-04-17T10:10:57+00:00</time>
      </trkpt>
      <trkpt lat="40.966945" lon="-3.247511">
        <ele>1026.33</ele>
        <time>2022-04-17T10:10:58+00:00</time>
      </trkpt>
      <trkpt lat="40.966816" lon="-3.247705">
        <ele>1027.29</ele>
        <time>2022-04-17T10:10:59+00:00</time>
      </trkpt>
      <trkpt lat="40.966731" lon="-3.247941">
        <ele>1027.77</ele>
        <time>2022-04-17T10:11:00+00:00</time>
      </trkpt>
      <trkpt lat="40.966645" lon="-3.248177">
        <ele>1028.25</ele>
        <time>2022-04-17T10:11:01+00:00</time>
      </trkpt>
      <trkpt lat="40.966559" lon="-3.248413">
        <ele>1029.21</ele>
        <time>2022-04-17T10:11:02+00:00</time>
      </trkpt>
      <trkpt lat="40.965357" lon="-3.252361">
        <ele>1029.21</ele>
        <time>2022-04-17T10:11:18+00:00</time>
      </trkpt>
      <trkpt lat="40.964907" lon="-3.253863">
        <ele>1022.48</ele>
        <time>2022-04-17T10:11:24+00:00</time>
      </trkpt>
      <trkpt lat="40.964885" lon="-3.253949">
        <ele>1021.04</ele>
        <time>2022-04-17T10:11:25+00:00</time>
      </trkpt>
      <trkpt lat="40.964864" lon="-3.254013">
        <ele>1020.08</ele>
        <time>2022-04-17T10:11:26+00:00</time>
      </trkpt>
      <trkpt lat="40.965014" lon="-3.254035">
        <ele>1019.12</ele>
        <time>2022-04-17T10:11:27+00:00</time>
      </trkpt>
      <trkpt lat="40.965035" lon="-3.254142">
        <ele>1018.15</ele>
        <time>2022-04-17T10:11:28+00:00</time>
      </trkpt>
      <trkpt lat="40.965035" lon="-3.254142">
        <ele>1017.19</ele>
        <time>2022-04-17T10:11:29+00:00</time>
      </trkpt>
      <trkpt lat="40.965035" lon="-3.254142">
        <ele>1014.79</ele>
        <time>2022-04-17T10:11:34+00:00</time>
      </trkpt>
      <trkpt lat="40.965035" lon="-3.254142">
        <ele>1014.31</ele>
        <time>2022-04-17T10:11:35+00:00</time>
      </trkpt>
      <trkpt lat="40.965443" lon="-3.254678">
        <ele>1012.87</ele>
        <time>2022-04-17T10:11:40+00:00</time>
      </trkpt>
      <trkpt lat="40.966323" lon="-3.255751">
        <ele>1011.91</ele>
        <time>2022-04-17T10:11:46+00:00</time>
      </trkpt>
      <trkpt lat="40.967932" lon="-3.257468">
        <ele>1005.66</ele>
        <time>2022-04-17T10:11:55+00:00</time>
      </trkpt>
      <trkpt lat="40.968919" lon="-3.258219">
        <ele>997.49</ele>
        <time>2022-04-17T10:12:01+00:00</time>
      </trkpt>
      <trkpt lat="40.969069" lon="-3.258262">
        <ele>996.04</ele>
        <time>2022-04-17T10:12:02+00:00</time>
      </trkpt>
      <trkpt lat="40.969198" lon="-3.258240">
        <ele>995.08</ele>
        <time>2022-04-17T10:12:03+00:00</time>
      </trkpt>
      <trkpt lat="40.969348" lon="-3.258176">
        <ele>994.12</ele>
        <time>2022-04-17T10:12:04+00:00</time>
      </trkpt>
      <trkpt lat="40.969499" lon="-3.258069">
        <ele>992.68</ele>
        <time>2022-04-17T10:12:05+00:00</time>
      </trkpt>
      <trkpt lat="40.969670" lon="-3.257983">
        <ele>991.72</ele>
        <time>2022-04-17T10:12:06+00:00</time>
      </trkpt>
      <trkpt lat="40.970142" lon="-3.257704">
        <ele>987.39</ele>
        <time>2022-04-17T10:12:09+00:00</time>
      </trkpt>
      <trkpt lat="40.970314" lon="-3.257704">
        <ele>985.95</ele>
        <time>2022-04-17T10:12:10+00:00</time>
      </trkpt>
      <trkpt lat="40.970507" lon="-3.257725">
        <ele>984.51</ele>
        <time>2022-04-17T10:12:11+00:00</time>
      </trkpt>
      <trkpt lat="40.971387" lon="-3.257875">
        <ele>976.82</ele>
        <time>2022-04-17T10:12:16+00:00</time>
      </trkpt>
      <trkpt lat="40.971537" lon="-3.257854">
        <ele>975.38</ele>
        <time>2022-04-17T10:12:17+00:00</time>
      </trkpt>
      <trkpt lat="40.971795" lon="-3.257854">
        <ele>972.49</ele>
        <time>2022-04-17T10:12:19+00:00</time>
      </trkpt>
      <trkpt lat="40.971880" lon="-3.257875">
        <ele>971.05</ele>
        <time>2022-04-17T10:12:20+00:00</time>
      </trkpt>
      <trkpt lat="40.971945" lon="-3.257897">
        <ele>970.09</ele>
        <time>2022-04-17T10:12:21+00:00</time>
      </trkpt>
      <trkpt lat="40.971966" lon="-3.258026">
        <ele>969.13</ele>
        <time>2022-04-17T10:12:22+00:00</time>
      </trkpt>
      <trkpt lat="40.972009" lon="-3.258154">
        <ele>968.17</ele>
        <time>2022-04-17T10:12:23+00:00</time>
      </trkpt>
      <trkpt lat="40.971923" lon="-3.258283">
        <ele>967.69</ele>
        <time>2022-04-17T10:12:24+00:00</time>
      </trkpt>
      <trkpt lat="40.971838" lon="-3.258390">
        <ele>967.69</ele>
        <time>2022-04-17T10:12:25+00:00</time>
      </trkpt>
      <trkpt lat="40.971666" lon="-3.258455">
        <ele>967.20</ele>
        <time>2022-04-17T10:12:26+00:00</time>
      </trkpt>
      <trkpt lat="40.971494" lon="-3.258498">
        <ele>966.72</ele>
        <time>2022-04-17T10:12:27+00:00</time>
      </trkpt>
      <trkpt lat="40.971344" lon="-3.258562">
        <ele>965.76</ele>
        <time>2022-04-17T10:12:28+00:00</time>
      </trkpt>
      <trkpt lat="40.971194" lon="-3.258626">
        <ele>965.28</ele>
        <time>2022-04-17T10:12:29+00:00</time>
      </trkpt>
      <trkpt lat="40.971108" lon="-3.258712">
        <ele>964.32</ele>
        <time>2022-04-17T10:12:30+00:00</time>
      </trkpt>
      <trkpt lat="40.971044" lon="-3.258820">
        <ele>963.84</ele>
        <time>2022-04-17T10:12:31+00:00</time>
      </trkpt>
      <trkpt lat="40.971022" lon="-3.258970">
        <ele>963.36</ele>
        <time>2022-04-17T10:12:32+00:00</time>
      </trkpt>
      <trkpt lat="40.971022" lon="-3.259141">
        <ele>962.40</ele>
        <time>2022-04-17T10:12:33+00:00</time>
      </trkpt>
      <trkpt lat="40.971065" lon="-3.259356">
        <ele>961.44</ele>
        <time>2022-04-17T10:12:34+00:00</time>
      </trkpt>
      <trkpt lat="40.971129" lon="-3.259506">
        <ele>960.48</ele>
        <time>2022-04-17T10:12:35+00:00</time>
      </trkpt>
      <trkpt lat="40.971237" lon="-3.259635">
        <ele>959.51</ele>
        <time>2022-04-17T10:12:36+00:00</time>
      </trkpt>
      <trkpt lat="40.971365" lon="-3.259764">
        <ele>959.03</ele>
        <time>2022-04-17T10:12:37+00:00</time>
      </trkpt>
      <trkpt lat="40.971516" lon="-3.259893">
        <ele>958.07</ele>
        <time>2022-04-17T10:12:38+00:00</time>
      </trkpt>
      <trkpt lat="40.971666" lon="-3.260000">
        <ele>957.11</ele>
        <time>2022-04-17T10:12:39+00:00</time>
      </trkpt>
      <trkpt lat="40.972546" lon="-3.260708">
        <ele>949.42</ele>
        <time>2022-04-17T10:12:45+00:00</time>
      </trkpt>
      <trkpt lat="40.972610" lon="-3.260858">
        <ele>948.46</ele>
        <time>2022-04-17T10:12:46+00:00</time>
      </trkpt>
      <trkpt lat="40.972674" lon="-3.261008">
        <ele>947.02</ele>
        <time>2022-04-17T10:12:47+00:00</time>
      </trkpt>
      <trkpt lat="40.972717" lon="-3.261223">
        <ele>945.58</ele>
        <time>2022-04-17T10:12:48+00:00</time>
      </trkpt>
      <trkpt lat="40.972739" lon="-3.261459">
        <ele>944.13</ele>
        <time>2022-04-17T10:12:49+00:00</time>
      </trkpt>
      <trkpt lat="40.972782" lon="-3.261673">
        <ele>942.69</ele>
        <time>2022-04-17T10:12:50+00:00</time>
      </trkpt>
      <trkpt lat="40.972889" lon="-3.261845">
        <ele>941.25</ele>
        <time>2022-04-17T10:12:51+00:00</time>
      </trkpt>
      <trkpt lat="40.972975" lon="-3.262017">
        <ele>939.81</ele>
        <time>2022-04-17T10:12:52+00:00</time>
      </trkpt>
      <trkpt lat="40.973082" lon="-3.262317">
        <ele>937.40</ele>
        <time>2022-04-17T10:12:54+00:00</time>
      </trkpt>
      <trkpt lat="40.973104" lon="-3.262446">
        <ele>935.96</ele>
        <time>2022-04-17T10:12:55+00:00</time>
      </trkpt>
      <trkpt lat="40.973061" lon="-3.262575">
        <ele>935.00</ele>
        <time>2022-04-17T10:12:56+00:00</time>
      </trkpt>
      <trkpt lat="40.972975" lon="-3.262682">
        <ele>934.04</ele>
        <time>2022-04-17T10:12:57+00:00</time>
      </trkpt>
      <trkpt lat="40.972889" lon="-3.262832">
        <ele>933.08</ele>
        <time>2022-04-17T10:12:58+00:00</time>
      </trkpt>
      <trkpt lat="40.972867" lon="-3.263025">
        <ele>932.12</ele>
        <time>2022-04-17T10:12:59+00:00</time>
      </trkpt>
      <trkpt lat="40.972889" lon="-3.263218">
        <ele>931.16</ele>
        <time>2022-04-17T10:13:00+00:00</time>
      </trkpt>
      <trkpt lat="40.972889" lon="-3.263476">
        <ele>930.19</ele>
        <time>2022-04-17T10:13:01+00:00</time>
      </trkpt>
      <trkpt lat="40.972889" lon="-3.264656">
        <ele>925.39</ele>
        <time>2022-04-17T10:13:06+00:00</time>
      </trkpt>
      <trkpt lat="40.972846" lon="-3.264849">
        <ele>924.43</ele>
        <time>2022-04-17T10:13:07+00:00</time>
      </trkpt>
      <trkpt lat="40.972739" lon="-3.265021">
        <ele>923.47</ele>
        <time>2022-04-17T10:13:08+00:00</time>
      </trkpt>
      <trkpt lat="40.972631" lon="-3.265193">
        <ele>922.50</ele>
        <time>2022-04-17T10:13:09+00:00</time>
      </trkpt>
      <trkpt lat="40.972481" lon="-3.265386">
        <ele>921.54</ele>
        <time>2022-04-17T10:13:10+00:00</time>
      </trkpt>
      <trkpt lat="40.972353" lon="-3.265579">
        <ele>921.06</ele>
        <time>2022-04-17T10:13:11+00:00</time>
      </trkpt>
      <trkpt lat="40.972074" lon="-3.265944">
        <ele>919.14</ele>
        <time>2022-04-17T10:13:13+00:00</time>
      </trkpt>
      <trkpt lat="40.971945" lon="-3.266158">
        <ele>918.18</ele>
        <time>2022-04-17T10:13:14+00:00</time>
      </trkpt>
      <trkpt lat="40.971151" lon="-3.267918">
        <ele>911.93</ele>
        <time>2022-04-17T10:13:21+00:00</time>
      </trkpt>
      <trkpt lat="40.970443" lon="-3.269098">
        <ele>906.16</ele>
        <time>2022-04-17T10:13:27+00:00</time>
      </trkpt>
      <trkpt lat="40.970335" lon="-3.269291">
        <ele>905.20</ele>
        <time>2022-04-17T10:13:28+00:00</time>
      </trkpt>
      <trkpt lat="40.970250" lon="-3.269527">
        <ele>903.76</ele>
        <time>2022-04-17T10:13:29+00:00</time>
      </trkpt>
      <trkpt lat="40.970057" lon="-3.270321">
        <ele>899.91</ele>
        <time>2022-04-17T10:13:32+00:00</time>
      </trkpt>
      <trkpt lat="40.970014" lon="-3.270621">
        <ele>897.99</ele>
        <time>2022-04-17T10:13:33+00:00</time>
      </trkpt>
      <trkpt lat="40.969885" lon="-3.272295">
        <ele>889.82</ele>
        <time>2022-04-17T10:13:39+00:00</time>
      </trkpt>
      <trkpt lat="40.969906" lon="-3.273776">
        <ele>879.73</ele>
        <time>2022-04-17T10:13:46+00:00</time>
      </trkpt>
      <trkpt lat="40.969885" lon="-3.273904">
        <ele>878.28</ele>
        <time>2022-04-17T10:13:47+00:00</time>
      </trkpt>
      <trkpt lat="40.969863" lon="-3.274055">
        <ele>877.32</ele>
        <time>2022-04-17T10:13:48+00:00</time>
      </trkpt>
      <trkpt lat="40.969842" lon="-3.274655">
        <ele>873.00</ele>
        <time>2022-04-17T10:13:54+00:00</time>
      </trkpt>
      <trkpt lat="40.969778" lon="-3.274720">
        <ele>872.52</ele>
        <time>2022-04-17T10:13:55+00:00</time>
      </trkpt>
      <trkpt lat="40.969735" lon="-3.274784">
        <ele>872.03</ele>
        <time>2022-04-17T10:13:56+00:00</time>
      </trkpt>
      <trkpt lat="40.969670" lon="-3.274848">
        <ele>871.55</ele>
        <time>2022-04-17T10:13:57+00:00</time>
      </trkpt>
      <trkpt lat="40.969606" lon="-3.274891">
        <ele>871.07</ele>
        <time>2022-04-17T10:13:58+00:00</time>
      </trkpt>
      <trkpt lat="40.969499" lon="-3.274956">
        <ele>871.07</ele>
        <time>2022-04-17T10:13:59+00:00</time>
      </trkpt>
      <trkpt lat="40.969413" lon="-3.274999">
        <ele>871.07</ele>
        <time>2022-04-17T10:14:00+00:00</time>
      </trkpt>
      <trkpt lat="40.969198" lon="-3.275149">
        <ele>871.07</ele>
        <time>2022-04-17T10:14:02+00:00</time>
      </trkpt>
      <trkpt lat="40.969069" lon="-3.275235">
        <ele>871.07</ele>
        <time>2022-04-17T10:14:03+00:00</time>
      </trkpt>
      <trkpt lat="40.968962" lon="-3.275385">
        <ele>871.07</ele>
        <time>2022-04-17T10:14:04+00:00</time>
      </trkpt>
      <trkpt lat="40.968876" lon="-3.275535">
        <ele>871.55</ele>
        <time>2022-04-17T10:14:05+00:00</time>
      </trkpt>
      <trkpt lat="40.968791" lon="-3.275685">
        <ele>872.03</ele>
        <time>2022-04-17T10:14:06+00:00</time>
      </trkpt>
      <trkpt lat="40.968705" lon="-3.275836">
        <ele>872.03</ele>
        <time>2022-04-17T10:14:07+00:00</time>
      </trkpt>
      <trkpt lat="40.968147" lon="-3.277037">
        <ele>872.52</ele>
        <time>2022-04-17T10:14:16+00:00</time>
      </trkpt>
      <trkpt lat="40.968018" lon="-3.277681">
        <ele>873.00</ele>
        <time>2022-04-17T10:14:21+00:00</time>
      </trkpt>
      <trkpt lat="40.967868" lon="-3.278861">
        <ele>873.96</ele>
        <time>2022-04-17T10:14:28+00:00</time>
      </trkpt>
      <trkpt lat="40.967782" lon="-3.279505">
        <ele>873.00</ele>
        <time>2022-04-17T10:14:32+00:00</time>
      </trkpt>
      <trkpt lat="40.967825" lon="-3.279634">
        <ele>872.52</ele>
        <time>2022-04-17T10:14:33+00:00</time>
      </trkpt>
      <trkpt lat="40.967889" lon="-3.279741">
        <ele>872.03</ele>
        <time>2022-04-17T10:14:34+00:00</time>
      </trkpt>
      <trkpt lat="40.967975" lon="-3.279848">
        <ele>871.07</ele>
        <time>2022-04-17T10:14:35+00:00</time>
      </trkpt>
      <trkpt lat="40.968082" lon="-3.279870">
        <ele>870.59</ele>
        <time>2022-04-17T10:14:36+00:00</time>
      </trkpt>
      <trkpt lat="40.968190" lon="-3.279913">
        <ele>870.11</ele>
        <time>2022-04-17T10:14:37+00:00</time>
      </trkpt>
      <trkpt lat="40.968297" lon="-3.279955">
        <ele>870.11</ele>
        <time>2022-04-17T10:14:38+00:00</time>
      </trkpt>
      <trkpt lat="40.968404" lon="-3.279998">
        <ele>869.63</ele>
        <time>2022-04-17T10:14:39+00:00</time>
      </trkpt>
      <trkpt lat="40.968490" lon="-3.280020">
        <ele>869.15</ele>
        <time>2022-04-17T10:14:40+00:00</time>
      </trkpt>
      <trkpt lat="40.968512" lon="-3.280213">
        <ele>868.67</ele>
        <time>2022-04-17T10:14:41+00:00</time>
      </trkpt>
      <trkpt lat="40.968533" lon="-3.280363">
        <ele>868.19</ele>
        <time>2022-04-17T10:14:42+00:00</time>
      </trkpt>
      <trkpt lat="40.968554" lon="-3.280535">
        <ele>868.19</ele>
        <time>2022-04-17T10:14:43+00:00</time>
      </trkpt>
      <trkpt lat="40.968554" lon="-3.280728">
        <ele>868.19</ele>
        <time>2022-04-17T10:14:44+00:00</time>
      </trkpt>
      <trkpt lat="40.968554" lon="-3.280900">
        <ele>868.19</ele>
        <time>2022-04-17T10:14:45+00:00</time>
      </trkpt>
      <trkpt lat="40.968512" lon="-3.281071">
        <ele>867.71</ele>
        <time>2022-04-17T10:14:46+00:00</time>
      </trkpt>
      <trkpt lat="40.968426" lon="-3.281200">
        <ele>867.71</ele>
        <time>2022-04-17T10:14:47+00:00</time>
      </trkpt>
      <trkpt lat="40.968340" lon="-3.281393">
        <ele>867.71</ele>
        <time>2022-04-17T10:14:48+00:00</time>
      </trkpt>
      <trkpt lat="40.968318" lon="-3.281522">
        <ele>867.23</ele>
        <time>2022-04-17T10:14:49+00:00</time>
      </trkpt>
      <trkpt lat="40.968361" lon="-3.281629">
        <ele>867.23</ele>
        <time>2022-04-17T10:14:50+00:00</time>
      </trkpt>
      <trkpt lat="40.968469" lon="-3.281758">
        <ele>867.23</ele>
        <time>2022-04-17T10:14:51+00:00</time>
      </trkpt>
      <trkpt lat="40.968554" lon="-3.281865">
        <ele>867.23</ele>
        <time>2022-04-17T10:14:52+00:00</time>
      </trkpt>
      <trkpt lat="40.968662" lon="-3.282015">
        <ele>867.23</ele>
        <time>2022-04-17T10:14:53+00:00</time>
      </trkpt>
      <trkpt lat="40.968769" lon="-3.282187">
        <ele>867.23</ele>
        <time>2022-04-17T10:14:54+00:00</time>
      </trkpt>
      <trkpt lat="40.968855" lon="-3.282359">
        <ele>867.71</ele>
        <time>2022-04-17T10:14:55+00:00</time>
      </trkpt>
      <trkpt lat="40.968919" lon="-3.282573">
        <ele>867.71</ele>
        <time>2022-04-17T10:14:56+00:00</time>
      </trkpt>
      <trkpt lat="40.968984" lon="-3.282809">
        <ele>868.19</ele>
        <time>2022-04-17T10:14:57+00:00</time>
      </trkpt>
      <trkpt lat="40.969048" lon="-3.283045">
        <ele>868.67</ele>
        <time>2022-04-17T10:14:58+00:00</time>
      </trkpt>
      <trkpt lat="40.969069" lon="-3.283281">
        <ele>869.15</ele>
        <time>2022-04-17T10:14:59+00:00</time>
      </trkpt>
      <trkpt lat="40.969069" lon="-3.283560">
        <ele>869.63</ele>
        <time>2022-04-17T10:15:00+00:00</time>
      </trkpt>
      <trkpt lat="40.969069" lon="-3.283818">
        <ele>870.11</ele>
        <time>2022-04-17T10:15:01+00:00</time>
      </trkpt>
      <trkpt lat="40.969069" lon="-3.284075">
        <ele>870.59</ele>
        <time>2022-04-17T10:15:02+00:00</time>
      </trkpt>
      <trkpt lat="40.969027" lon="-3.284526">
        <ele>871.07</ele>
        <time>2022-04-17T10:15:04+00:00</time>
      </trkpt>
      <trkpt lat="40.968984" lon="-3.284912">
        <ele>871.55</ele>
        <time>2022-04-17T10:15:06+00:00</time>
      </trkpt>
      <trkpt lat="40.969027" lon="-3.285062">
        <ele>871.55</ele>
        <time>2022-04-17T10:15:07+00:00</time>
      </trkpt>
      <trkpt lat="40.969069" lon="-3.285234">
        <ele>872.03</ele>
        <time>2022-04-17T10:15:08+00:00</time>
      </trkpt>
      <trkpt lat="40.969134" lon="-3.285341">
        <ele>872.52</ele>
        <time>2022-04-17T10:15:09+00:00</time>
      </trkpt>
      <trkpt lat="40.969241" lon="-3.285449">
        <ele>873.00</ele>
        <time>2022-04-17T10:15:10+00:00</time>
      </trkpt>
      <trkpt lat="40.969306" lon="-3.285599">
        <ele>873.48</ele>
        <time>2022-04-17T10:15:11+00:00</time>
      </trkpt>
      <trkpt lat="40.969348" lon="-3.285728">
        <ele>873.48</ele>
        <time>2022-04-17T10:15:12+00:00</time>
      </trkpt>
      <trkpt lat="40.969284" lon="-3.285899">
        <ele>873.96</ele>
        <time>2022-04-17T10:15:13+00:00</time>
      </trkpt>
      <trkpt lat="40.969220" lon="-3.286049">
        <ele>874.44</ele>
        <time>2022-04-17T10:15:14+00:00</time>
      </trkpt>
      <trkpt lat="40.969134" lon="-3.286221">
        <ele>874.44</ele>
        <time>2022-04-17T10:15:15+00:00</time>
      </trkpt>
      <trkpt lat="40.968748" lon="-3.286929">
        <ele>875.88</ele>
        <time>2022-04-17T10:15:19+00:00</time>
      </trkpt>
      <trkpt lat="40.968726" lon="-3.287101">
        <ele>875.88</ele>
        <time>2022-04-17T10:15:20+00:00</time>
      </trkpt>
      <trkpt lat="40.968726" lon="-3.287272">
        <ele>875.88</ele>
        <time>2022-04-17T10:15:21+00:00</time>
      </trkpt>
      <trkpt lat="40.968769" lon="-3.287916">
        <ele>875.88</ele>
        <time>2022-04-17T10:15:24+00:00</time>
      </trkpt>
      <trkpt lat="40.968812" lon="-3.288131">
        <ele>876.36</ele>
        <time>2022-04-17T10:15:25+00:00</time>
      </trkpt>
      <trkpt lat="40.968984" lon="-3.288946">
        <ele>877.32</ele>
        <time>2022-04-17T10:15:29+00:00</time>
      </trkpt>
      <trkpt lat="40.969048" lon="-3.289096">
        <ele>877.32</ele>
        <time>2022-04-17T10:15:30+00:00</time>
      </trkpt>
      <trkpt lat="40.969155" lon="-3.289182">
        <ele>877.32</ele>
        <time>2022-04-17T10:15:31+00:00</time>
      </trkpt>
      <trkpt lat="40.969263" lon="-3.289290">
        <ele>877.32</ele>
        <time>2022-04-17T10:15:32+00:00</time>
      </trkpt>
      <trkpt lat="40.969413" lon="-3.289332">
        <ele>877.80</ele>
        <time>2022-04-17T10:15:33+00:00</time>
      </trkpt>
      <trkpt lat="40.969499" lon="-3.289483">
        <ele>878.28</ele>
        <time>2022-04-17T10:15:34+00:00</time>
      </trkpt>
      <trkpt lat="40.969606" lon="-3.289654">
        <ele>878.28</ele>
        <time>2022-04-17T10:15:35+00:00</time>
      </trkpt>
      <trkpt lat="40.969713" lon="-3.289847">
        <ele>878.76</ele>
        <time>2022-04-17T10:15:36+00:00</time>
      </trkpt>
      <trkpt lat="40.970271" lon="-3.290920">
        <ele>882.13</ele>
        <time>2022-04-17T10:15:42+00:00</time>
      </trkpt>
      <trkpt lat="40.970357" lon="-3.291028">
        <ele>882.61</ele>
        <time>2022-04-17T10:15:43+00:00</time>
      </trkpt>
      <trkpt lat="40.970486" lon="-3.291049">
        <ele>883.09</ele>
        <time>2022-04-17T10:15:44+00:00</time>
      </trkpt>
      <trkpt lat="40.970636" lon="-3.291092">
        <ele>883.57</ele>
        <time>2022-04-17T10:15:45+00:00</time>
      </trkpt>
      <trkpt lat="40.970808" lon="-3.291113">
        <ele>884.05</ele>
        <time>2022-04-17T10:15:46+00:00</time>
      </trkpt>
      <trkpt lat="40.971451" lon="-3.291221">
        <ele>885.97</ele>
        <time>2022-04-17T10:15:50+00:00</time>
      </trkpt>
      <trkpt lat="40.971559" lon="-3.291178">
        <ele>885.97</ele>
        <time>2022-04-17T10:15:51+00:00</time>
      </trkpt>
      <trkpt lat="40.971644" lon="-3.291113">
        <ele>885.97</ele>
        <time>2022-04-17T10:15:52+00:00</time>
      </trkpt>
      <trkpt lat="40.971730" lon="-3.290985">
        <ele>885.97</ele>
        <time>2022-04-17T10:15:53+00:00</time>
      </trkpt>
      <trkpt lat="40.971795" lon="-3.290834">
        <ele>885.97</ele>
        <time>2022-04-17T10:15:54+00:00</time>
      </trkpt>
      <trkpt lat="40.971902" lon="-3.290706">
        <ele>886.45</ele>
        <time>2022-04-17T10:15:55+00:00</time>
      </trkpt>
      <trkpt lat="40.972052" lon="-3.290684">
        <ele>886.94</ele>
        <time>2022-04-17T10:15:56+00:00</time>
      </trkpt>
      <trkpt lat="40.972224" lon="-3.290641">
        <ele>887.42</ele>
        <time>2022-04-17T10:15:57+00:00</time>
      </trkpt>
      <trkpt lat="40.972417" lon="-3.290641">
        <ele>888.38</ele>
        <time>2022-04-17T10:15:58+00:00</time>
      </trkpt>
      <trkpt lat="40.972610" lon="-3.290641">
        <ele>888.86</ele>
        <time>2022-04-17T10:15:59+00:00</time>
      </trkpt>
      <trkpt lat="40.973533" lon="-3.290620">
        <ele>892.70</ele>
        <time>2022-04-17T10:16:04+00:00</time>
      </trkpt>
      <trkpt lat="40.973661" lon="-3.290577">
        <ele>893.18</ele>
        <time>2022-04-17T10:16:05+00:00</time>
      </trkpt>
      <trkpt lat="40.973747" lon="-3.290448">
        <ele>893.66</ele>
        <time>2022-04-17T10:16:06+00:00</time>
      </trkpt>
      <trkpt lat="40.973983" lon="-3.290191">
        <ele>894.63</ele>
        <time>2022-04-17T10:16:08+00:00</time>
      </trkpt>
      <trkpt lat="40.974112" lon="-3.290083">
        <ele>895.59</ele>
        <time>2022-04-17T10:16:09+00:00</time>
      </trkpt>
      <trkpt lat="40.974284" lon="-3.290019">
        <ele>896.55</ele>
        <time>2022-04-17T10:16:10+00:00</time>
      </trkpt>
      <trkpt lat="40.975078" lon="-3.289633">
        <ele>900.39</ele>
        <time>2022-04-17T10:16:15+00:00</time>
      </trkpt>
      <trkpt lat="40.975185" lon="-3.289547">
        <ele>901.35</ele>
        <time>2022-04-17T10:16:16+00:00</time>
      </trkpt>
      <trkpt lat="40.975228" lon="-3.289397">
        <ele>901.84</ele>
        <time>2022-04-17T10:16:17+00:00</time>
      </trkpt>
      <trkpt lat="40.975335" lon="-3.289139">
        <ele>902.80</ele>
        <time>2022-04-17T10:16:19+00:00</time>
      </trkpt>
      <trkpt lat="40.975442" lon="-3.289053">
        <ele>903.28</ele>
        <time>2022-04-17T10:16:20+00:00</time>
      </trkpt>
      <trkpt lat="40.975550" lon="-3.289011">
        <ele>903.76</ele>
        <time>2022-04-17T10:16:21+00:00</time>
      </trkpt>
      <trkpt lat="40.975700" lon="-3.289053">
        <ele>904.24</ele>
        <time>2022-04-17T10:16:22+00:00</time>
      </trkpt>
      <trkpt lat="40.975872" lon="-3.289096">
        <ele>904.72</ele>
        <time>2022-04-17T10:16:23+00:00</time>
      </trkpt>
      <trkpt lat="40.976472" lon="-3.289182">
        <ele>905.20</ele>
        <time>2022-04-17T10:16:26+00:00</time>
      </trkpt>
      <trkpt lat="40.976923" lon="-3.289332">
        <ele>905.68</ele>
        <time>2022-04-17T10:16:28+00:00</time>
      </trkpt>
      <trkpt lat="40.977159" lon="-3.289397">
        <ele>905.68</ele>
        <time>2022-04-17T10:16:29+00:00</time>
      </trkpt>
      <trkpt lat="40.978790" lon="-3.289483">
        <ele>906.16</ele>
        <time>2022-04-17T10:16:36+00:00</time>
      </trkpt>
      <trkpt lat="40.979004" lon="-3.289504">
        <ele>906.16</ele>
        <time>2022-04-17T10:16:37+00:00</time>
      </trkpt>
      <trkpt lat="40.979240" lon="-3.289568">
        <ele>906.16</ele>
        <time>2022-04-17T10:16:38+00:00</time>
      </trkpt>
      <trkpt lat="40.980678" lon="-3.290041">
        <ele>904.72</ele>
        <time>2022-04-17T10:16:45+00:00</time>
      </trkpt>
      <trkpt lat="40.981193" lon="-3.290105">
        <ele>902.80</ele>
        <time>2022-04-17T10:16:49+00:00</time>
      </trkpt>
      <trkpt lat="40.981257" lon="-3.290169">
        <ele>902.80</ele>
        <time>2022-04-17T10:16:50+00:00</time>
      </trkpt>
      <trkpt lat="40.981322" lon="-3.290277">
        <ele>902.32</ele>
        <time>2022-04-17T10:16:51+00:00</time>
      </trkpt>
      <trkpt lat="40.981365" lon="-3.290427">
        <ele>902.32</ele>
        <time>2022-04-17T10:16:52+00:00</time>
      </trkpt>
      <trkpt lat="40.981386" lon="-3.290598">
        <ele>901.84</ele>
        <time>2022-04-17T10:16:53+00:00</time>
      </trkpt>
      <trkpt lat="40.981408" lon="-3.290813">
        <ele>901.84</ele>
        <time>2022-04-17T10:16:54+00:00</time>
      </trkpt>
      <trkpt lat="40.981408" lon="-3.291070">
        <ele>901.84</ele>
        <time>2022-04-17T10:16:55+00:00</time>
      </trkpt>
      <trkpt lat="40.981451" lon="-3.292100">
        <ele>904.24</ele>
        <time>2022-04-17T10:16:59+00:00</time>
      </trkpt>
      <trkpt lat="40.981365" lon="-3.292337">
        <ele>905.20</ele>
        <time>2022-04-17T10:17:00+00:00</time>
      </trkpt>
      <trkpt lat="40.981300" lon="-3.292615">
        <ele>905.68</ele>
        <time>2022-04-17T10:17:01+00:00</time>
      </trkpt>
      <trkpt lat="40.981064" lon="-3.293324">
        <ele>908.08</ele>
        <time>2022-04-17T10:17:04+00:00</time>
      </trkpt>
      <trkpt lat="40.980936" lon="-3.293538">
        <ele>909.53</ele>
        <time>2022-04-17T10:17:05+00:00</time>
      </trkpt>
      <trkpt lat="40.980506" lon="-3.294225">
        <ele>914.33</ele>
        <time>2022-04-17T10:17:09+00:00</time>
      </trkpt>
      <trkpt lat="40.980485" lon="-3.294396">
        <ele>915.29</ele>
        <time>2022-04-17T10:17:10+00:00</time>
      </trkpt>
      <trkpt lat="40.980464" lon="-3.294590">
        <ele>916.74</ele>
        <time>2022-04-17T10:17:11+00:00</time>
      </trkpt>
      <trkpt lat="40.980356" lon="-3.295383">
        <ele>921.54</ele>
        <time>2022-04-17T10:17:15+00:00</time>
      </trkpt>
      <trkpt lat="40.980378" lon="-3.295512">
        <ele>922.50</ele>
        <time>2022-04-17T10:17:16+00:00</time>
      </trkpt>
      <trkpt lat="40.980421" lon="-3.295598">
        <ele>923.95</ele>
        <time>2022-04-17T10:17:17+00:00</time>
      </trkpt>
      <trkpt lat="40.980485" lon="-3.295641">
        <ele>925.39</ele>
        <time>2022-04-17T10:17:18+00:00</time>
      </trkpt>
      <trkpt lat="40.980571" lon="-3.295684">
        <ele>926.35</ele>
        <time>2022-04-17T10:17:19+00:00</time>
      </trkpt>
      <trkpt lat="40.980657" lon="-3.295641">
        <ele>927.31</ele>
        <time>2022-04-17T10:17:20+00:00</time>
      </trkpt>
      <trkpt lat="40.980742" lon="-3.295534">
        <ele>927.79</ele>
        <time>2022-04-17T10:17:21+00:00</time>
      </trkpt>
      <trkpt lat="40.980828" lon="-3.295362">
        <ele>928.27</ele>
        <time>2022-04-17T10:17:22+00:00</time>
      </trkpt>
      <trkpt lat="40.980936" lon="-3.295190">
        <ele>928.27</ele>
        <time>2022-04-17T10:17:23+00:00</time>
      </trkpt>
      <trkpt lat="40.981021" lon="-3.294997">
        <ele>928.27</ele>
        <time>2022-04-17T10:17:24+00:00</time>
      </trkpt>
      <trkpt lat="40.981386" lon="-3.294354">
        <ele>926.83</ele>
        <time>2022-04-17T10:17:28+00:00</time>
      </trkpt>
      <trkpt lat="40.981472" lon="-3.294268">
        <ele>926.35</ele>
        <time>2022-04-17T10:17:29+00:00</time>
      </trkpt>
      <trkpt lat="40.981558" lon="-3.294246">
        <ele>925.87</ele>
        <time>2022-04-17T10:17:30+00:00</time>
      </trkpt>
      <trkpt lat="40.981687" lon="-3.294225">
        <ele>925.87</ele>
        <time>2022-04-17T10:17:31+00:00</time>
      </trkpt>
      <trkpt lat="40.981794" lon="-3.294203">
        <ele>925.39</ele>
        <time>2022-04-17T10:17:32+00:00</time>
      </trkpt>
      <trkpt lat="40.981944" lon="-3.294246">
        <ele>924.91</ele>
        <time>2022-04-17T10:17:33+00:00</time>
      </trkpt>
      <trkpt lat="40.982094" lon="-3.294332">
        <ele>924.43</ele>
        <time>2022-04-17T10:17:34+00:00</time>
      </trkpt>
      <trkpt lat="40.982244" lon="-3.294439">
        <ele>923.47</ele>
        <time>2022-04-17T10:17:35+00:00</time>
      </trkpt>
      <trkpt lat="40.982545" lon="-3.294632">
        <ele>922.02</ele>
        <time>2022-04-17T10:17:37+00:00</time>
      </trkpt>
      <trkpt lat="40.982695" lon="-3.294697">
        <ele>921.06</ele>
        <time>2022-04-17T10:17:38+00:00</time>
      </trkpt>
      <trkpt lat="40.982845" lon="-3.294697">
        <ele>920.58</ele>
        <time>2022-04-17T10:17:39+00:00</time>
      </trkpt>
      <trkpt lat="40.982996" lon="-3.294697">
        <ele>919.62</ele>
        <time>2022-04-17T10:17:40+00:00</time>
      </trkpt>
      <trkpt lat="40.983146" lon="-3.294632">
        <ele>918.66</ele>
        <time>2022-04-17T10:17:41+00:00</time>
      </trkpt>
      <trkpt lat="40.983339" lon="-3.294547">
        <ele>918.18</ele>
        <time>2022-04-17T10:17:42+00:00</time>
      </trkpt>
      <trkpt lat="40.983510" lon="-3.294482">
        <ele>917.70</ele>
        <time>2022-04-17T10:17:43+00:00</time>
      </trkpt>
      <trkpt lat="40.983768" lon="-3.294354">
        <ele>916.74</ele>
        <time>2022-04-17T10:17:45+00:00</time>
      </trkpt>
      <trkpt lat="40.983854" lon="-3.294225">
        <ele>916.26</ele>
        <time>2022-04-17T10:17:46+00:00</time>
      </trkpt>
      <trkpt lat="40.983940" lon="-3.294053">
        <ele>915.77</ele>
        <time>2022-04-17T10:17:47+00:00</time>
      </trkpt>
      <trkpt lat="40.983983" lon="-3.293860">
        <ele>915.29</ele>
        <time>2022-04-17T10:17:48+00:00</time>
      </trkpt>
      <trkpt lat="40.984047" lon="-3.293624">
        <ele>914.81</ele>
        <time>2022-04-17T10:17:49+00:00</time>
      </trkpt>
      <trkpt lat="40.984111" lon="-3.293409">
        <ele>914.33</ele>
        <time>2022-04-17T10:17:50+00:00</time>
      </trkpt>
      <trkpt lat="40.984262" lon="-3.293066">
        <ele>913.85</ele>
        <time>2022-04-17T10:17:52+00:00</time>
      </trkpt>
      <trkpt lat="40.984326" lon="-3.292959">
        <ele>913.37</ele>
        <time>2022-04-17T10:17:53+00:00</time>
      </trkpt>
      <trkpt lat="40.984433" lon="-3.292894">
        <ele>913.37</ele>
        <time>2022-04-17T10:17:54+00:00</time>
      </trkpt>
      <trkpt lat="40.984583" lon="-3.292873">
        <ele>912.89</ele>
        <time>2022-04-17T10:17:55+00:00</time>
      </trkpt>
      <trkpt lat="40.984755" lon="-3.292809">
        <ele>912.89</ele>
        <time>2022-04-17T10:17:56+00:00</time>
      </trkpt>
      <trkpt lat="40.984927" lon="-3.292766">
        <ele>912.41</ele>
        <time>2022-04-17T10:17:57+00:00</time>
      </trkpt>
      <trkpt lat="40.985098" lon="-3.292680">
        <ele>911.93</ele>
        <time>2022-04-17T10:17:58+00:00</time>
      </trkpt>
      <trkpt lat="40.985249" lon="-3.292573">
        <ele>911.93</ele>
        <time>2022-04-17T10:17:59+00:00</time>
      </trkpt>
      <trkpt lat="40.985377" lon="-3.292487">
        <ele>911.45</ele>
        <time>2022-04-17T10:18:00+00:00</time>
      </trkpt>
      <trkpt lat="40.985485" lon="-3.292358">
        <ele>910.49</ele>
        <time>2022-04-17T10:18:01+00:00</time>
      </trkpt>
      <trkpt lat="40.985549" lon="-3.292186">
        <ele>910.01</ele>
        <time>2022-04-17T10:18:02+00:00</time>
      </trkpt>
      <trkpt lat="40.985656" lon="-3.292015">
        <ele>909.53</ele>
        <time>2022-04-17T10:18:03+00:00</time>
      </trkpt>
      <trkpt lat="40.985785" lon="-3.291864">
        <ele>909.05</ele>
        <time>2022-04-17T10:18:04+00:00</time>
      </trkpt>
      <trkpt lat="40.985892" lon="-3.291736">
        <ele>909.05</ele>
        <time>2022-04-17T10:18:05+00:00</time>
      </trkpt>
      <trkpt lat="40.986085" lon="-3.291543">
        <ele>908.08</ele>
        <time>2022-04-17T10:18:07+00:00</time>
      </trkpt>
      <trkpt lat="40.986171" lon="-3.291500">
        <ele>908.08</ele>
        <time>2022-04-17T10:18:08+00:00</time>
      </trkpt>
      <trkpt lat="40.986257" lon="-3.291500">
        <ele>907.60</ele>
        <time>2022-04-17T10:18:09+00:00</time>
      </trkpt>
      <trkpt lat="40.986343" lon="-3.291500">
        <ele>907.12</ele>
        <time>2022-04-17T10:18:10+00:00</time>
      </trkpt>
      <trkpt lat="40.986450" lon="-3.291543">
        <ele>906.64</ele>
        <time>2022-04-17T10:18:11+00:00</time>
      </trkpt>
      <trkpt lat="40.986536" lon="-3.291628">
        <ele>906.16</ele>
        <time>2022-04-17T10:18:12+00:00</time>
      </trkpt>
      <trkpt lat="40.986622" lon="-3.291757">
        <ele>905.68</ele>
        <time>2022-04-17T10:18:13+00:00</time>
      </trkpt>
      <trkpt lat="40.986686" lon="-3.291950">
        <ele>904.72</ele>
        <time>2022-04-17T10:18:14+00:00</time>
      </trkpt>
      <trkpt lat="40.986729" lon="-3.292122">
        <ele>904.24</ele>
        <time>2022-04-17T10:18:15+00:00</time>
      </trkpt>
      <trkpt lat="40.986794" lon="-3.292272">
        <ele>903.28</ele>
        <time>2022-04-17T10:18:16+00:00</time>
      </trkpt>
      <trkpt lat="40.986836" lon="-3.292379">
        <ele>902.80</ele>
        <time>2022-04-17T10:18:17+00:00</time>
      </trkpt>
      <trkpt lat="40.986944" lon="-3.292444">
        <ele>901.35</ele>
        <time>2022-04-17T10:18:18+00:00</time>
      </trkpt>
      <trkpt lat="40.987094" lon="-3.292465">
        <ele>900.39</ele>
        <time>2022-04-17T10:18:19+00:00</time>
      </trkpt>
      <trkpt lat="40.987266" lon="-3.292465">
        <ele>899.91</ele>
        <time>2022-04-17T10:18:20+00:00</time>
      </trkpt>
      <trkpt lat="40.987437" lon="-3.292487">
        <ele>898.95</ele>
        <time>2022-04-17T10:18:21+00:00</time>
      </trkpt>
      <trkpt lat="40.987630" lon="-3.292465">
        <ele>898.47</ele>
        <time>2022-04-17T10:18:22+00:00</time>
      </trkpt>
      <trkpt lat="40.989068" lon="-3.292422">
        <ele>891.74</ele>
        <time>2022-04-17T10:18:28+00:00</time>
      </trkpt>
      <trkpt lat="40.991793" lon="-3.292787">
        <ele>886.94</ele>
        <time>2022-04-17T10:18:38+00:00</time>
      </trkpt>
      <trkpt lat="40.992995" lon="-3.292959">
        <ele>887.42</ele>
        <time>2022-04-17T10:18:44+00:00</time>
      </trkpt>
      <trkpt lat="40.993231" lon="-3.292959">
        <ele>886.94</ele>
        <time>2022-04-17T10:18:46+00:00</time>
      </trkpt>
      <trkpt lat="40.993338" lon="-3.292916">
        <ele>886.45</ele>
        <time>2022-04-17T10:18:47+00:00</time>
      </trkpt>
      <trkpt lat="40.993424" lon="-3.292787">
        <ele>886.45</ele>
        <time>2022-04-17T10:18:48+00:00</time>
      </trkpt>
      <trkpt lat="40.993510" lon="-3.292615">
        <ele>885.97</ele>
        <time>2022-04-17T10:18:49+00:00</time>
      </trkpt>
      <trkpt lat="40.993617" lon="-3.292444">
        <ele>885.01</ele>
        <time>2022-04-17T10:18:50+00:00</time>
      </trkpt>
      <trkpt lat="40.993724" lon="-3.292272">
        <ele>884.53</ele>
        <time>2022-04-17T10:18:51+00:00</time>
      </trkpt>
      <trkpt lat="40.993789" lon="-3.292143">
        <ele>884.05</ele>
        <time>2022-04-17T10:18:52+00:00</time>
      </trkpt>
      <trkpt lat="40.993896" lon="-3.291972">
        <ele>883.09</ele>
        <time>2022-04-17T10:18:53+00:00</time>
      </trkpt>
      <trkpt lat="40.994003" lon="-3.291929">
        <ele>882.61</ele>
        <time>2022-04-17T10:18:54+00:00</time>
      </trkpt>
      <trkpt lat="40.994111" lon="-3.291907">
        <ele>882.13</ele>
        <time>2022-04-17T10:18:55+00:00</time>
      </trkpt>
      <trkpt lat="40.994239" lon="-3.291907">
        <ele>881.65</ele>
        <time>2022-04-17T10:18:56+00:00</time>
      </trkpt>
      <trkpt lat="40.994368" lon="-3.291950">
        <ele>881.17</ele>
        <time>2022-04-17T10:18:57+00:00</time>
      </trkpt>
      <trkpt lat="40.994540" lon="-3.291993">
        <ele>881.17</ele>
        <time>2022-04-17T10:18:58+00:00</time>
      </trkpt>
      <trkpt lat="40.994711" lon="-3.291993">
        <ele>880.69</ele>
        <time>2022-04-17T10:18:59+00:00</time>
      </trkpt>
      <trkpt lat="40.994862" lon="-3.291950">
        <ele>880.69</ele>
        <time>2022-04-17T10:19:00+00:00</time>
      </trkpt>
      <trkpt lat="40.995033" lon="-3.291907">
        <ele>880.69</ele>
        <time>2022-04-17T10:19:01+00:00</time>
      </trkpt>
      <trkpt lat="40.995291" lon="-3.291843">
        <ele>879.73</ele>
        <time>2022-04-17T10:19:03+00:00</time>
      </trkpt>
      <trkpt lat="40.995398" lon="-3.291822">
        <ele>878.76</ele>
        <time>2022-04-17T10:19:04+00:00</time>
      </trkpt>
      <trkpt lat="40.995484" lon="-3.291950">
        <ele>877.80</ele>
        <time>2022-04-17T10:19:05+00:00</time>
      </trkpt>
      <trkpt lat="40.995591" lon="-3.292079">
        <ele>876.84</ele>
        <time>2022-04-17T10:19:06+00:00</time>
      </trkpt>
      <trkpt lat="40.995720" lon="-3.292208">
        <ele>875.88</ele>
        <time>2022-04-17T10:19:07+00:00</time>
      </trkpt>
      <trkpt lat="40.995849" lon="-3.292272">
        <ele>874.92</ele>
        <time>2022-04-17T10:19:08+00:00</time>
      </trkpt>
      <trkpt lat="40.995999" lon="-3.292337">
        <ele>873.96</ele>
        <time>2022-04-17T10:19:09+00:00</time>
      </trkpt>
      <trkpt lat="40.996149" lon="-3.292358">
        <ele>873.48</ele>
        <time>2022-04-17T10:19:10+00:00</time>
      </trkpt>
      <trkpt lat="40.996299" lon="-3.292379">
        <ele>872.52</ele>
        <time>2022-04-17T10:19:11+00:00</time>
      </trkpt>
      <trkpt lat="40.996407" lon="-3.292444">
        <ele>871.55</ele>
        <time>2022-04-17T10:19:12+00:00</time>
      </trkpt>
      <trkpt lat="40.996535" lon="-3.292530">
        <ele>871.07</ele>
        <time>2022-04-17T10:19:13+00:00</time>
      </trkpt>
      <trkpt lat="40.996664" lon="-3.292615">
        <ele>870.59</ele>
        <time>2022-04-17T10:19:14+00:00</time>
      </trkpt>
      <trkpt lat="40.996771" lon="-3.292766">
        <ele>870.59</ele>
        <time>2022-04-17T10:19:15+00:00</time>
      </trkpt>
      <trkpt lat="40.996900" lon="-3.292937">
        <ele>870.11</ele>
        <time>2022-04-17T10:19:16+00:00</time>
      </trkpt>
      <trkpt lat="40.997007" lon="-3.293130">
        <ele>869.63</ele>
        <time>2022-04-17T10:19:17+00:00</time>
      </trkpt>
      <trkpt lat="40.997608" lon="-3.294225">
        <ele>870.59</ele>
        <time>2022-04-17T10:19:23+00:00</time>
      </trkpt>
      <trkpt lat="40.997694" lon="-3.294268">
        <ele>870.59</ele>
        <time>2022-04-17T10:19:24+00:00</time>
      </trkpt>
      <trkpt lat="40.997823" lon="-3.294289">
        <ele>870.59</ele>
        <time>2022-04-17T10:19:25+00:00</time>
      </trkpt>
      <trkpt lat="40.997930" lon="-3.294289">
        <ele>870.11</ele>
        <time>2022-04-17T10:19:26+00:00</time>
      </trkpt>
      <trkpt lat="40.998080" lon="-3.294225">
        <ele>870.59</ele>
        <time>2022-04-17T10:19:27+00:00</time>
      </trkpt>
      <trkpt lat="40.998209" lon="-3.294096">
        <ele>870.59</ele>
        <time>2022-04-17T10:19:28+00:00</time>
      </trkpt>
      <trkpt lat="40.998338" lon="-3.293946">
        <ele>870.59</ele>
        <time>2022-04-17T10:19:29+00:00</time>
      </trkpt>
      <trkpt lat="40.998552" lon="-3.293710">
        <ele>871.07</ele>
        <time>2022-04-17T10:19:31+00:00</time>
      </trkpt>
      <trkpt lat="40.998617" lon="-3.293560">
        <ele>871.07</ele>
        <time>2022-04-17T10:19:32+00:00</time>
      </trkpt>
      <trkpt lat="40.998831" lon="-3.293066">
        <ele>872.03</ele>
        <time>2022-04-17T10:19:35+00:00</time>
      </trkpt>
      <trkpt lat="40.998917" lon="-3.292916">
        <ele>872.03</ele>
        <time>2022-04-17T10:19:36+00:00</time>
      </trkpt>
      <trkpt lat="40.998960" lon="-3.292830">
        <ele>872.03</ele>
        <time>2022-04-17T10:19:37+00:00</time>
      </trkpt>
      <trkpt lat="40.999089" lon="-3.292787">
        <ele>871.55</ele>
        <time>2022-04-17T10:19:38+00:00</time>
      </trkpt>
      <trkpt lat="40.999153" lon="-3.292766">
        <ele>871.55</ele>
        <time>2022-04-17T10:19:39+00:00</time>
      </trkpt>
      <trkpt lat="40.999218" lon="-3.292787">
        <ele>871.07</ele>
        <time>2022-04-17T10:19:40+00:00</time>
      </trkpt>
      <trkpt lat="40.999282" lon="-3.292851">
        <ele>870.59</ele>
        <time>2022-04-17T10:19:41+00:00</time>
      </trkpt>
      <trkpt lat="40.999346" lon="-3.292980">
        <ele>870.59</ele>
        <time>2022-04-17T10:19:42+00:00</time>
      </trkpt>
      <trkpt lat="40.999411" lon="-3.293088">
        <ele>870.11</ele>
        <time>2022-04-17T10:19:43+00:00</time>
      </trkpt>
      <trkpt lat="40.999518" lon="-3.293173">
        <ele>869.15</ele>
        <time>2022-04-17T10:19:44+00:00</time>
      </trkpt>
      <trkpt lat="40.999604" lon="-3.293152">
        <ele>869.15</ele>
        <time>2022-04-17T10:19:45+00:00</time>
      </trkpt>
      <trkpt lat="40.999711" lon="-3.293045">
        <ele>869.15</ele>
        <time>2022-04-17T10:19:46+00:00</time>
      </trkpt>
      <trkpt lat="40.999818" lon="-3.292916">
        <ele>869.15</ele>
        <time>2022-04-17T10:19:47+00:00</time>
      </trkpt>
      <trkpt lat="40.999947" lon="-3.292787">
        <ele>869.15</ele>
        <time>2022-04-17T10:19:48+00:00</time>
      </trkpt>
      <trkpt lat="41.000891" lon="-3.291757">
        <ele>870.59</ele>
        <time>2022-04-17T10:19:54+00:00</time>
      </trkpt>
      <trkpt lat="41.001513" lon="-3.291070">
        <ele>871.55</ele>
        <time>2022-04-17T10:19:59+00:00</time>
      </trkpt>
      <trkpt lat="41.001578" lon="-3.291049">
        <ele>871.07</ele>
        <time>2022-04-17T10:20:00+00:00</time>
      </trkpt>
      <trkpt lat="41.001642" lon="-3.291070">
        <ele>871.07</ele>
        <time>2022-04-17T10:20:01+00:00</time>
      </trkpt>
      <trkpt lat="41.001685" lon="-3.291113">
        <ele>871.07</ele>
        <time>2022-04-17T10:20:02+00:00</time>
      </trkpt>
      <trkpt lat="41.001664" lon="-3.291242">
        <ele>870.59</ele>
        <time>2022-04-17T10:20:03+00:00</time>
      </trkpt>
      <trkpt lat="41.001599" lon="-3.291371">
        <ele>870.59</ele>
        <time>2022-04-17T10:20:04+00:00</time>
      </trkpt>
      <trkpt lat="41.001471" lon="-3.291500">
        <ele>870.59</ele>
        <time>2022-04-17T10:20:05+00:00</time>
      </trkpt>
      <trkpt lat="41.001342" lon="-3.291628">
        <ele>871.07</ele>
        <time>2022-04-17T10:20:06+00:00</time>
      </trkpt>
      <trkpt lat="41.000526" lon="-3.292723">
        <ele>875.40</ele>
        <time>2022-04-17T10:20:12+00:00</time>
      </trkpt>
      <trkpt lat="41.000312" lon="-3.293216">
        <ele>878.28</ele>
        <time>2022-04-17T10:20:15+00:00</time>
      </trkpt>
      <trkpt lat="41.000312" lon="-3.293324">
        <ele>879.73</ele>
        <time>2022-04-17T10:20:16+00:00</time>
      </trkpt>
      <trkpt lat="41.000333" lon="-3.293388">
        <ele>880.21</ele>
        <time>2022-04-17T10:20:17+00:00</time>
      </trkpt>
      <trkpt lat="41.000398" lon="-3.293495">
        <ele>881.17</ele>
        <time>2022-04-17T10:20:18+00:00</time>
      </trkpt>
      <trkpt lat="41.000462" lon="-3.293624">
        <ele>882.13</ele>
        <time>2022-04-17T10:20:19+00:00</time>
      </trkpt>
      <trkpt lat="41.000526" lon="-3.293731">
        <ele>883.09</ele>
        <time>2022-04-17T10:20:20+00:00</time>
      </trkpt>
      <trkpt lat="41.000548" lon="-3.293903">
        <ele>883.57</ele>
        <time>2022-04-17T10:20:21+00:00</time>
      </trkpt>
      <trkpt lat="41.000505" lon="-3.294010">
        <ele>884.05</ele>
        <time>2022-04-17T10:20:22+00:00</time>
      </trkpt>
      <trkpt lat="41.000441" lon="-3.294160">
        <ele>885.01</ele>
        <time>2022-04-17T10:20:23+00:00</time>
      </trkpt>
      <trkpt lat="41.000398" lon="-3.294311">
        <ele>885.97</ele>
        <time>2022-04-17T10:20:24+00:00</time>
      </trkpt>
      <trkpt lat="41.000355" lon="-3.294461">
        <ele>886.45</ele>
        <time>2022-04-17T10:20:25+00:00</time>
      </trkpt>
      <trkpt lat="41.000312" lon="-3.294611">
        <ele>887.42</ele>
        <time>2022-04-17T10:20:26+00:00</time>
      </trkpt>
      <trkpt lat="41.000312" lon="-3.294783">
        <ele>888.38</ele>
        <time>2022-04-17T10:20:27+00:00</time>
      </trkpt>
      <trkpt lat="41.000312" lon="-3.294847">
        <ele>889.34</ele>
        <time>2022-04-17T10:20:28+00:00</time>
      </trkpt>
      <trkpt lat="41.000398" lon="-3.294976">
        <ele>890.30</ele>
        <time>2022-04-17T10:20:29+00:00</time>
      </trkpt>
      <trkpt lat="41.000441" lon="-3.295040">
        <ele>891.26</ele>
        <time>2022-04-17T10:20:30+00:00</time>
      </trkpt>
      <trkpt lat="41.000526" lon="-3.295083">
        <ele>892.70</ele>
        <time>2022-04-17T10:20:31+00:00</time>
      </trkpt>
      <trkpt lat="41.000655" lon="-3.295105">
        <ele>893.66</ele>
        <time>2022-04-17T10:20:32+00:00</time>
      </trkpt>
      <trkpt lat="41.000805" lon="-3.295105">
        <ele>895.11</ele>
        <time>2022-04-17T10:20:33+00:00</time>
      </trkpt>
      <trkpt lat="41.000977" lon="-3.295126">
        <ele>896.07</ele>
        <time>2022-04-17T10:20:34+00:00</time>
      </trkpt>
      <trkpt lat="41.001771" lon="-3.295212">
        <ele>903.28</ele>
        <time>2022-04-17T10:20:41+00:00</time>
      </trkpt>
      <trkpt lat="41.001857" lon="-3.295190">
        <ele>903.76</ele>
        <time>2022-04-17T10:20:42+00:00</time>
      </trkpt>
      <trkpt lat="41.001900" lon="-3.295126">
        <ele>904.72</ele>
        <time>2022-04-17T10:20:43+00:00</time>
      </trkpt>
      <trkpt lat="41.001943" lon="-3.295040">
        <ele>905.20</ele>
        <time>2022-04-17T10:20:44+00:00</time>
      </trkpt>
      <trkpt lat="41.001964" lon="-3.294933">
        <ele>906.16</ele>
        <time>2022-04-17T10:20:45+00:00</time>
      </trkpt>
      <trkpt lat="41.002007" lon="-3.294847">
        <ele>907.12</ele>
        <time>2022-04-17T10:20:46+00:00</time>
      </trkpt>
      <trkpt lat="41.002050" lon="-3.294761">
        <ele>907.60</ele>
        <time>2022-04-17T10:20:47+00:00</time>
      </trkpt>
      <trkpt lat="41.002071" lon="-3.294675">
        <ele>908.56</ele>
        <time>2022-04-17T10:20:48+00:00</time>
      </trkpt>
      <trkpt lat="41.002093" lon="-3.294590">
        <ele>909.53</ele>
        <time>2022-04-17T10:20:49+00:00</time>
      </trkpt>
      <trkpt lat="41.002136" lon="-3.294547">
        <ele>910.01</ele>
        <time>2022-04-17T10:20:50+00:00</time>
      </trkpt>
      <trkpt lat="41.002200" lon="-3.294568">
        <ele>910.97</ele>
        <time>2022-04-17T10:20:51+00:00</time>
      </trkpt>
      <trkpt lat="41.002243" lon="-3.294590">
        <ele>911.93</ele>
        <time>2022-04-17T10:20:52+00:00</time>
      </trkpt>
      <trkpt lat="41.002265" lon="-3.294654">
        <ele>913.37</ele>
        <time>2022-04-17T10:20:53+00:00</time>
      </trkpt>
      <trkpt lat="41.002307" lon="-3.294761">
        <ele>914.81</ele>
        <time>2022-04-17T10:20:54+00:00</time>
      </trkpt>
      <trkpt lat="41.002329" lon="-3.294847">
        <ele>916.26</ele>
        <time>2022-04-17T10:20:55+00:00</time>
      </trkpt>
      <trkpt lat="41.002372" lon="-3.294954">
        <ele>917.22</ele>
        <time>2022-04-17T10:20:56+00:00</time>
      </trkpt>
      <trkpt lat="41.002436" lon="-3.295190">
        <ele>918.66</ele>
        <time>2022-04-17T10:20:58+00:00</time>
      </trkpt>
      <trkpt lat="41.002458" lon="-3.295341">
        <ele>919.62</ele>
        <time>2022-04-17T10:20:59+00:00</time>
      </trkpt>
      <trkpt lat="41.002436" lon="-3.295469">
        <ele>920.10</ele>
        <time>2022-04-17T10:21:00+00:00</time>
      </trkpt>
      <trkpt lat="41.002307" lon="-3.296993">
        <ele>922.02</ele>
        <time>2022-04-17T10:21:11+00:00</time>
      </trkpt>
      <trkpt lat="41.002286" lon="-3.297465">
        <ele>922.02</ele>
        <time>2022-04-17T10:21:15+00:00</time>
      </trkpt>
      <trkpt lat="41.002307" lon="-3.297594">
        <ele>922.02</ele>
        <time>2022-04-17T10:21:16+00:00</time>
      </trkpt>
      <trkpt lat="41.002329" lon="-3.297701">
        <ele>921.54</ele>
        <time>2022-04-17T10:21:17+00:00</time>
      </trkpt>
      <trkpt lat="41.002415" lon="-3.297765">
        <ele>921.54</ele>
        <time>2022-04-17T10:21:18+00:00</time>
      </trkpt>
      <trkpt lat="41.002543" lon="-3.297787">
        <ele>921.54</ele>
        <time>2022-04-17T10:21:19+00:00</time>
      </trkpt>
      <trkpt lat="41.002629" lon="-3.297787">
        <ele>921.54</ele>
        <time>2022-04-17T10:21:20+00:00</time>
      </trkpt>
      <trkpt lat="41.002737" lon="-3.297765">
        <ele>921.54</ele>
        <time>2022-04-17T10:21:21+00:00</time>
      </trkpt>
      <trkpt lat="41.002822" lon="-3.297787">
        <ele>921.54</ele>
        <time>2022-04-17T10:21:22+00:00</time>
      </trkpt>
      <trkpt lat="41.002908" lon="-3.297808">
        <ele>921.06</ele>
        <time>2022-04-17T10:21:23+00:00</time>
      </trkpt>
      <trkpt lat="41.002994" lon="-3.297830">
        <ele>921.06</ele>
        <time>2022-04-17T10:21:24+00:00</time>
      </trkpt>
      <trkpt lat="41.003016" lon="-3.297937">
        <ele>920.58</ele>
        <time>2022-04-17T10:21:25+00:00</time>
      </trkpt>
      <trkpt lat="41.003058" lon="-3.298066">
        <ele>920.58</ele>
        <time>2022-04-17T10:21:26+00:00</time>
      </trkpt>
      <trkpt lat="41.003101" lon="-3.298216">
        <ele>920.58</ele>
        <time>2022-04-17T10:21:27+00:00</time>
      </trkpt>
      <trkpt lat="41.003123" lon="-3.298366">
        <ele>920.58</ele>
        <time>2022-04-17T10:21:28+00:00</time>
      </trkpt>
      <trkpt lat="41.003144" lon="-3.298559">
        <ele>920.58</ele>
        <time>2022-04-17T10:21:29+00:00</time>
      </trkpt>
      <trkpt lat="41.003144" lon="-3.298709">
        <ele>921.06</ele>
        <time>2022-04-17T10:21:30+00:00</time>
      </trkpt>
      <trkpt lat="41.003123" lon="-3.298881">
        <ele>920.58</ele>
        <time>2022-04-17T10:21:31+00:00</time>
      </trkpt>
      <trkpt lat="41.003101" lon="-3.299074">
        <ele>920.58</ele>
        <time>2022-04-17T10:21:32+00:00</time>
      </trkpt>
      <trkpt lat="41.003058" lon="-3.299246">
        <ele>920.58</ele>
        <time>2022-04-17T10:21:33+00:00</time>
      </trkpt>
      <trkpt lat="41.003016" lon="-3.299375">
        <ele>920.10</ele>
        <time>2022-04-17T10:21:34+00:00</time>
      </trkpt>
      <trkpt lat="41.002951" lon="-3.299525">
        <ele>920.10</ele>
        <time>2022-04-17T10:21:35+00:00</time>
      </trkpt>
      <trkpt lat="41.002865" lon="-3.299675">
        <ele>919.62</ele>
        <time>2022-04-17T10:21:36+00:00</time>
      </trkpt>
      <trkpt lat="41.002737" lon="-3.299890">
        <ele>919.62</ele>
        <time>2022-04-17T10:21:38+00:00</time>
      </trkpt>
      <trkpt lat="41.002694" lon="-3.299954">
        <ele>919.62</ele>
        <time>2022-04-17T10:21:40+00:00</time>
      </trkpt>
      <trkpt lat="41.002694" lon="-3.299954">
        <ele>919.62</ele>
        <time>2022-04-17T10:21:41+00:00</time>
      </trkpt>
      <trkpt lat="41.002694" lon="-3.299954">
        <ele>919.62</ele>
        <time>2022-04-17T10:21:42+00:00</time>
      </trkpt>
      <trkpt lat="41.003123" lon="-3.300705">
        <ele>922.02</ele>
        <time>2022-04-17T10:21:51+00:00</time>
      </trkpt>
      <trkpt lat="41.004174" lon="-3.301263">
        <ele>923.47</ele>
        <time>2022-04-17T10:22:02+00:00</time>
      </trkpt>
      <trkpt lat="41.004260" lon="-3.301349">
        <ele>923.47</ele>
        <time>2022-04-17T10:22:03+00:00</time>
      </trkpt>
      <trkpt lat="41.004217" lon="-3.301392">
        <ele>923.47</ele>
        <time>2022-04-17T10:22:05+00:00</time>
      </trkpt>
      <trkpt lat="41.004196" lon="-3.301435">
        <ele>923.47</ele>
        <time>2022-04-17T10:22:06+00:00</time>
      </trkpt>
      <trkpt lat="41.004153" lon="-3.301477">
        <ele>923.95</ele>
        <time>2022-04-17T10:22:07+00:00</time>
      </trkpt>
      <trkpt lat="41.004131" lon="-3.301563">
        <ele>923.95</ele>
        <time>2022-04-17T10:22:08+00:00</time>
      </trkpt>
      <trkpt lat="41.003724" lon="-3.302572">
        <ele>918.66</ele>
        <time>2022-04-17T10:22:18+00:00</time>
      </trkpt>
      <trkpt lat="41.003445" lon="-3.303194">
        <ele>911.93</ele>
        <time>2022-04-17T10:22:23+00:00</time>
      </trkpt>
      <trkpt lat="41.002908" lon="-3.303838">
        <ele>900.39</ele>
        <time>2022-04-17T10:22:31+00:00</time>
      </trkpt>
      <trkpt lat="41.002865" lon="-3.303881">
        <ele>899.43</ele>
        <time>2022-04-17T10:22:32+00:00</time>
      </trkpt>
      <trkpt lat="41.002179" lon="-3.304074">
        <ele>887.42</ele>
        <time>2022-04-17T10:22:43+00:00</time>
      </trkpt>
      <trkpt lat="41.001900" lon="-3.304052">
        <ele>884.05</ele>
        <time>2022-04-17T10:22:47+00:00</time>
      </trkpt>
      <trkpt lat="41.001835" lon="-3.304009">
        <ele>884.05</ele>
        <time>2022-04-17T10:22:48+00:00</time>
      </trkpt>
      <trkpt lat="41.001256" lon="-3.303645">
        <ele>876.36</ele>
        <time>2022-04-17T10:22:59+00:00</time>
      </trkpt>
      <trkpt lat="41.001213" lon="-3.303602">
        <ele>875.88</ele>
        <time>2022-04-17T10:23:00+00:00</time>
      </trkpt>
      <trkpt lat="41.001170" lon="-3.303580">
        <ele>874.92</ele>
        <time>2022-04-17T10:23:01+00:00</time>
      </trkpt>
      <trkpt lat="41.000741" lon="-3.303366">
        <ele>871.07</ele>
        <time>2022-04-17T10:23:09+00:00</time>
      </trkpt>
      <trkpt lat="41.000677" lon="-3.303323">
        <ele>870.59</ele>
        <time>2022-04-17T10:23:10+00:00</time>
      </trkpt>
      <trkpt lat="41.000419" lon="-3.303087">
        <ele>868.67</ele>
        <time>2022-04-17T10:23:15+00:00</time>
      </trkpt>
      <trkpt lat="41.000398" lon="-3.303022">
        <ele>868.67</ele>
        <time>2022-04-17T10:23:16+00:00</time>
      </trkpt>
      <trkpt lat="41.000376" lon="-3.302958">
        <ele>868.19</ele>
        <time>2022-04-17T10:23:17+00:00</time>
      </trkpt>
      <trkpt lat="41.000333" lon="-3.302894">
        <ele>867.71</ele>
        <time>2022-04-17T10:23:18+00:00</time>
      </trkpt>
      <trkpt lat="41.000312" lon="-3.302851">
        <ele>867.71</ele>
        <time>2022-04-17T10:23:19+00:00</time>
      </trkpt>
      <trkpt lat="41.000290" lon="-3.302808">
        <ele>867.71</ele>
        <time>2022-04-17T10:23:27+00:00</time>
      </trkpt>
      <trkpt lat="41.000290" lon="-3.302808">
        <ele>867.71</ele>
        <time>2022-04-17T10:24:02+00:00</time>
      </trkpt>
      <trkpt lat="41.000140" lon="-3.302593">
        <ele>866.27</ele>
        <time>2022-04-17T10:24:13+00:00</time>
      </trkpt>
      <trkpt lat="40.999818" lon="-3.302207">
        <ele>865.79</ele>
        <time>2022-04-17T10:24:19+00:00</time>
      </trkpt>
      <trkpt lat="40.999754" lon="-3.302143">
        <ele>865.79</ele>
        <time>2022-04-17T10:24:20+00:00</time>
      </trkpt>
      <trkpt lat="40.999582" lon="-3.302014">
        <ele>866.27</ele>
        <time>2022-04-17T10:24:22+00:00</time>
      </trkpt>
      <trkpt lat="40.999518" lon="-3.301950">
        <ele>865.79</ele>
        <time>2022-04-17T10:24:23+00:00</time>
      </trkpt>
      <trkpt lat="40.999432" lon="-3.301885">
        <ele>865.79</ele>
        <time>2022-04-17T10:24:24+00:00</time>
      </trkpt>
      <trkpt lat="40.999282" lon="-3.301692">
        <ele>865.79</ele>
        <time>2022-04-17T10:24:26+00:00</time>
      </trkpt>
      <trkpt lat="40.999046" lon="-3.301220">
        <ele>865.79</ele>
        <time>2022-04-17T10:24:30+00:00</time>
      </trkpt>
      <trkpt lat="40.998917" lon="-3.301048">
        <ele>866.27</ele>
        <time>2022-04-17T10:24:31+00:00</time>
      </trkpt>
      <trkpt lat="40.998810" lon="-3.301005">
        <ele>866.75</ele>
        <time>2022-04-17T10:24:32+00:00</time>
      </trkpt>
      <trkpt lat="40.998724" lon="-3.300962">
        <ele>867.23</ele>
        <time>2022-04-17T10:24:33+00:00</time>
      </trkpt>
      <trkpt lat="40.998681" lon="-3.300877">
        <ele>867.23</ele>
        <time>2022-04-17T10:24:34+00:00</time>
      </trkpt>
      <trkpt lat="40.998660" lon="-3.300726">
        <ele>867.23</ele>
        <time>2022-04-17T10:24:35+00:00</time>
      </trkpt>
      <trkpt lat="40.998617" lon="-3.300598">
        <ele>867.71</ele>
        <time>2022-04-17T10:24:36+00:00</time>
      </trkpt>
      <trkpt lat="40.998595" lon="-3.300426">
        <ele>868.19</ele>
        <time>2022-04-17T10:24:37+00:00</time>
      </trkpt>
      <trkpt lat="40.998531" lon="-3.300319">
        <ele>868.67</ele>
        <time>2022-04-17T10:24:38+00:00</time>
      </trkpt>
      <trkpt lat="40.998445" lon="-3.300254">
        <ele>870.11</ele>
        <time>2022-04-17T10:24:39+00:00</time>
      </trkpt>
      <trkpt lat="40.998359" lon="-3.300190">
        <ele>871.55</ele>
        <time>2022-04-17T10:24:40+00:00</time>
      </trkpt>
      <trkpt lat="40.998252" lon="-3.300126">
        <ele>872.52</ele>
        <time>2022-04-17T10:24:41+00:00</time>
      </trkpt>
      <trkpt lat="40.998166" lon="-3.300040">
        <ele>873.00</ele>
        <time>2022-04-17T10:24:42+00:00</time>
      </trkpt>
      <trkpt lat="40.998123" lon="-3.299933">
        <ele>873.96</ele>
        <time>2022-04-17T10:24:43+00:00</time>
      </trkpt>
      <trkpt lat="40.998059" lon="-3.299825">
        <ele>874.92</ele>
        <time>2022-04-17T10:24:44+00:00</time>
      </trkpt>
      <trkpt lat="40.997994" lon="-3.299739">
        <ele>876.36</ele>
        <time>2022-04-17T10:24:45+00:00</time>
      </trkpt>
      <trkpt lat="40.997909" lon="-3.299696">
        <ele>877.32</ele>
        <time>2022-04-17T10:24:46+00:00</time>
      </trkpt>
      <trkpt lat="40.997801" lon="-3.299654">
        <ele>877.80</ele>
        <time>2022-04-17T10:24:47+00:00</time>
      </trkpt>
      <trkpt lat="40.997651" lon="-3.299589">
        <ele>879.24</ele>
        <time>2022-04-17T10:24:49+00:00</time>
      </trkpt>
      <trkpt lat="40.997608" lon="-3.299482">
        <ele>879.73</ele>
        <time>2022-04-17T10:24:50+00:00</time>
      </trkpt>
      <trkpt lat="40.997608" lon="-3.299375">
        <ele>879.73</ele>
        <time>2022-04-17T10:24:51+00:00</time>
      </trkpt>
      <trkpt lat="40.997608" lon="-3.299246">
        <ele>880.21</ele>
        <time>2022-04-17T10:24:52+00:00</time>
      </trkpt>
      <trkpt lat="40.997608" lon="-3.299117">
        <ele>880.69</ele>
        <time>2022-04-17T10:24:53+00:00</time>
      </trkpt>
      <trkpt lat="40.997565" lon="-3.298988">
        <ele>881.17</ele>
        <time>2022-04-17T10:24:54+00:00</time>
      </trkpt>
      <trkpt lat="40.997501" lon="-3.298903">
        <ele>881.65</ele>
        <time>2022-04-17T10:24:55+00:00</time>
      </trkpt>
      <trkpt lat="40.997394" lon="-3.298817">
        <ele>882.61</ele>
        <time>2022-04-17T10:24:56+00:00</time>
      </trkpt>
      <trkpt lat="40.997308" lon="-3.298752">
        <ele>883.09</ele>
        <time>2022-04-17T10:24:57+00:00</time>
      </trkpt>
      <trkpt lat="40.997265" lon="-3.298709">
        <ele>883.57</ele>
        <time>2022-04-17T10:24:58+00:00</time>
      </trkpt>
      <trkpt lat="40.997243" lon="-3.298602">
        <ele>884.05</ele>
        <time>2022-04-17T10:24:59+00:00</time>
      </trkpt>
      <trkpt lat="40.997265" lon="-3.298559">
        <ele>885.01</ele>
        <time>2022-04-17T10:25:00+00:00</time>
      </trkpt>
      <trkpt lat="40.997265" lon="-3.298495">
        <ele>885.01</ele>
        <time>2022-04-17T10:25:01+00:00</time>
      </trkpt>
      <trkpt lat="40.997308" lon="-3.298430">
        <ele>886.45</ele>
        <time>2022-04-17T10:25:02+00:00</time>
      </trkpt>
      <trkpt lat="40.997308" lon="-3.298388">
        <ele>887.42</ele>
        <time>2022-04-17T10:25:03+00:00</time>
      </trkpt>
      <trkpt lat="40.997265" lon="-3.298280">
        <ele>888.38</ele>
        <time>2022-04-17T10:25:04+00:00</time>
      </trkpt>
      <trkpt lat="40.997222" lon="-3.298194">
        <ele>889.34</ele>
        <time>2022-04-17T10:25:05+00:00</time>
      </trkpt>
      <trkpt lat="40.997158" lon="-3.298066">
        <ele>890.78</ele>
        <time>2022-04-17T10:25:06+00:00</time>
      </trkpt>
      <trkpt lat="40.997072" lon="-3.297915">
        <ele>891.26</ele>
        <time>2022-04-17T10:25:07+00:00</time>
      </trkpt>
      <trkpt lat="40.997029" lon="-3.297765">
        <ele>892.22</ele>
        <time>2022-04-17T10:25:08+00:00</time>
      </trkpt>
      <trkpt lat="40.996986" lon="-3.297637">
        <ele>893.18</ele>
        <time>2022-04-17T10:25:09+00:00</time>
      </trkpt>
      <trkpt lat="40.996879" lon="-3.297465">
        <ele>895.11</ele>
        <time>2022-04-17T10:25:11+00:00</time>
      </trkpt>
      <trkpt lat="40.996836" lon="-3.297379">
        <ele>896.07</ele>
        <time>2022-04-17T10:25:12+00:00</time>
      </trkpt>
      <trkpt lat="40.996771" lon="-3.297315">
        <ele>896.55</ele>
        <time>2022-04-17T10:25:13+00:00</time>
      </trkpt>
      <trkpt lat="40.996686" lon="-3.297272">
        <ele>897.51</ele>
        <time>2022-04-17T10:25:14+00:00</time>
      </trkpt>
      <trkpt lat="40.996578" lon="-3.297250">
        <ele>897.51</ele>
        <time>2022-04-17T10:25:15+00:00</time>
      </trkpt>
      <trkpt lat="40.996471" lon="-3.297229">
        <ele>898.47</ele>
        <time>2022-04-17T10:25:16+00:00</time>
      </trkpt>
      <trkpt lat="40.996364" lon="-3.297207">
        <ele>898.95</ele>
        <time>2022-04-17T10:25:17+00:00</time>
      </trkpt>
      <trkpt lat="40.996256" lon="-3.297229">
        <ele>899.43</ele>
        <time>2022-04-17T10:25:18+00:00</time>
      </trkpt>
      <trkpt lat="40.996149" lon="-3.297315">
        <ele>899.43</ele>
        <time>2022-04-17T10:25:19+00:00</time>
      </trkpt>
      <trkpt lat="40.996085" lon="-3.297443">
        <ele>898.95</ele>
        <time>2022-04-17T10:25:20+00:00</time>
      </trkpt>
      <trkpt lat="40.996042" lon="-3.297594">
        <ele>898.47</ele>
        <time>2022-04-17T10:25:21+00:00</time>
      </trkpt>
      <trkpt lat="40.995977" lon="-3.297701">
        <ele>897.51</ele>
        <time>2022-04-17T10:25:22+00:00</time>
      </trkpt>
      <trkpt lat="40.995892" lon="-3.297765">
        <ele>896.55</ele>
        <time>2022-04-17T10:25:23+00:00</time>
      </trkpt>
      <trkpt lat="40.995763" lon="-3.297851">
        <ele>895.59</ele>
        <time>2022-04-17T10:25:24+00:00</time>
      </trkpt>
      <trkpt lat="40.995656" lon="-3.297958">
        <ele>895.11</ele>
        <time>2022-04-17T10:25:25+00:00</time>
      </trkpt>
      <trkpt lat="40.995527" lon="-3.298087">
        <ele>894.15</ele>
        <time>2022-04-17T10:25:26+00:00</time>
      </trkpt>
      <trkpt lat="40.995183" lon="-3.298452">
        <ele>892.70</ele>
        <time>2022-04-17T10:25:30+00:00</time>
      </trkpt>
      <trkpt lat="40.995141" lon="-3.298538">
        <ele>892.70</ele>
        <time>2022-04-17T10:25:31+00:00</time>
      </trkpt>
      <trkpt lat="40.995119" lon="-3.298624">
        <ele>892.22</ele>
        <time>2022-04-17T10:25:32+00:00</time>
      </trkpt>
      <trkpt lat="40.995076" lon="-3.298688">
        <ele>892.22</ele>
        <time>2022-04-17T10:25:33+00:00</time>
      </trkpt>
      <trkpt lat="40.995055" lon="-3.298752">
        <ele>892.22</ele>
        <time>2022-04-17T10:25:34+00:00</time>
      </trkpt>
      <trkpt lat="40.995033" lon="-3.298817">
        <ele>892.22</ele>
        <time>2022-04-17T10:25:35+00:00</time>
      </trkpt>
      <trkpt lat="40.994969" lon="-3.298881">
        <ele>892.22</ele>
        <time>2022-04-17T10:25:36+00:00</time>
      </trkpt>
      <trkpt lat="40.994883" lon="-3.298988">
        <ele>892.22</ele>
        <time>2022-04-17T10:25:37+00:00</time>
      </trkpt>
      <trkpt lat="40.994561" lon="-3.299310">
        <ele>892.22</ele>
        <time>2022-04-17T10:25:41+00:00</time>
      </trkpt>
      <trkpt lat="40.994540" lon="-3.299396">
        <ele>892.70</ele>
        <time>2022-04-17T10:25:42+00:00</time>
      </trkpt>
      <trkpt lat="40.994518" lon="-3.299482">
        <ele>892.70</ele>
        <time>2022-04-17T10:25:43+00:00</time>
      </trkpt>
      <trkpt lat="40.994497" lon="-3.299546">
        <ele>892.70</ele>
        <time>2022-04-17T10:25:44+00:00</time>
      </trkpt>
      <trkpt lat="40.994432" lon="-3.299611">
        <ele>892.70</ele>
        <time>2022-04-17T10:25:45+00:00</time>
      </trkpt>
      <trkpt lat="40.994368" lon="-3.299611">
        <ele>892.70</ele>
        <time>2022-04-17T10:25:46+00:00</time>
      </trkpt>
      <trkpt lat="40.994282" lon="-3.299632">
        <ele>892.70</ele>
        <time>2022-04-17T10:25:47+00:00</time>
      </trkpt>
      <trkpt lat="40.994196" lon="-3.299654">
        <ele>892.70</ele>
        <time>2022-04-17T10:25:48+00:00</time>
      </trkpt>
      <trkpt lat="40.994111" lon="-3.299718">
        <ele>893.18</ele>
        <time>2022-04-17T10:25:49+00:00</time>
      </trkpt>
      <trkpt lat="40.994046" lon="-3.299761">
        <ele>893.18</ele>
        <time>2022-04-17T10:25:50+00:00</time>
      </trkpt>
      <trkpt lat="40.993982" lon="-3.299761">
        <ele>893.18</ele>
        <time>2022-04-17T10:25:51+00:00</time>
      </trkpt>
      <trkpt lat="40.993917" lon="-3.299761">
        <ele>892.70</ele>
        <time>2022-04-17T10:25:52+00:00</time>
      </trkpt>
      <trkpt lat="40.993853" lon="-3.299761">
        <ele>893.18</ele>
        <time>2022-04-17T10:25:53+00:00</time>
      </trkpt>
      <trkpt lat="40.993767" lon="-3.299804">
        <ele>893.66</ele>
        <time>2022-04-17T10:25:54+00:00</time>
      </trkpt>
      <trkpt lat="40.993660" lon="-3.299847">
        <ele>893.66</ele>
        <time>2022-04-17T10:25:55+00:00</time>
      </trkpt>
      <trkpt lat="40.993574" lon="-3.299890">
        <ele>894.15</ele>
        <time>2022-04-17T10:25:56+00:00</time>
      </trkpt>
      <trkpt lat="40.993488" lon="-3.299911">
        <ele>894.63</ele>
        <time>2022-04-17T10:25:57+00:00</time>
      </trkpt>
      <trkpt lat="40.993402" lon="-3.299890">
        <ele>894.63</ele>
        <time>2022-04-17T10:25:58+00:00</time>
      </trkpt>
      <trkpt lat="40.993209" lon="-3.299847">
        <ele>894.63</ele>
        <time>2022-04-17T10:26:00+00:00</time>
      </trkpt>
      <trkpt lat="40.993102" lon="-3.299868">
        <ele>895.11</ele>
        <time>2022-04-17T10:26:01+00:00</time>
      </trkpt>
      <trkpt lat="40.992995" lon="-3.299890">
        <ele>895.11</ele>
        <time>2022-04-17T10:26:02+00:00</time>
      </trkpt>
      <trkpt lat="40.992887" lon="-3.299868">
        <ele>894.63</ele>
        <time>2022-04-17T10:26:03+00:00</time>
      </trkpt>
      <trkpt lat="40.992759" lon="-3.299825">
        <ele>894.63</ele>
        <time>2022-04-17T10:26:04+00:00</time>
      </trkpt>
      <trkpt lat="40.992179" lon="-3.299739">
        <ele>895.11</ele>
        <time>2022-04-17T10:26:09+00:00</time>
      </trkpt>
      <trkpt lat="40.992094" lon="-3.299782">
        <ele>895.11</ele>
        <time>2022-04-17T10:26:10+00:00</time>
      </trkpt>
      <trkpt lat="40.992051" lon="-3.299847">
        <ele>895.59</ele>
        <time>2022-04-17T10:26:11+00:00</time>
      </trkpt>
      <trkpt lat="40.992008" lon="-3.299933">
        <ele>896.07</ele>
        <time>2022-04-17T10:26:12+00:00</time>
      </trkpt>
      <trkpt lat="40.991965" lon="-3.300018">
        <ele>896.07</ele>
        <time>2022-04-17T10:26:13+00:00</time>
      </trkpt>
      <trkpt lat="40.991965" lon="-3.300126">
        <ele>896.07</ele>
        <time>2022-04-17T10:26:14+00:00</time>
      </trkpt>
      <trkpt lat="40.991986" lon="-3.300276">
        <ele>896.55</ele>
        <time>2022-04-17T10:26:15+00:00</time>
      </trkpt>
      <trkpt lat="40.991986" lon="-3.300469">
        <ele>896.55</ele>
        <time>2022-04-17T10:26:16+00:00</time>
      </trkpt>
      <trkpt lat="40.992008" lon="-3.300662">
        <ele>896.55</ele>
        <time>2022-04-17T10:26:17+00:00</time>
      </trkpt>
      <trkpt lat="40.991986" lon="-3.300855">
        <ele>896.55</ele>
        <time>2022-04-17T10:26:18+00:00</time>
      </trkpt>
      <trkpt lat="40.991965" lon="-3.301005">
        <ele>896.55</ele>
        <time>2022-04-17T10:26:19+00:00</time>
      </trkpt>
      <trkpt lat="40.991922" lon="-3.301349">
        <ele>896.07</ele>
        <time>2022-04-17T10:26:23+00:00</time>
      </trkpt>
      <trkpt lat="40.991900" lon="-3.301392">
        <ele>895.59</ele>
        <time>2022-04-17T10:26:24+00:00</time>
      </trkpt>
      <trkpt lat="40.991836" lon="-3.301413">
        <ele>895.59</ele>
        <time>2022-04-17T10:26:25+00:00</time>
      </trkpt>
      <trkpt lat="40.991793" lon="-3.301392">
        <ele>895.59</ele>
        <time>2022-04-17T10:26:26+00:00</time>
      </trkpt>
      <trkpt lat="40.991750" lon="-3.301306">
        <ele>895.59</ele>
        <time>2022-04-17T10:26:27+00:00</time>
      </trkpt>
      <trkpt lat="40.991707" lon="-3.301199">
        <ele>895.59</ele>
        <time>2022-04-17T10:26:28+00:00</time>
      </trkpt>
      <trkpt lat="40.991664" lon="-3.301091">
        <ele>895.59</ele>
        <time>2022-04-17T10:26:29+00:00</time>
      </trkpt>
      <trkpt lat="40.991536" lon="-3.300791">
        <ele>897.03</ele>
        <time>2022-04-17T10:26:32+00:00</time>
      </trkpt>
      <trkpt lat="40.991471" lon="-3.300726">
        <ele>897.99</ele>
        <time>2022-04-17T10:26:33+00:00</time>
      </trkpt>
      <trkpt lat="40.991407" lon="-3.300641">
        <ele>898.47</ele>
        <time>2022-04-17T10:26:34+00:00</time>
      </trkpt>
      <trkpt lat="40.991343" lon="-3.300576">
        <ele>898.95</ele>
        <time>2022-04-17T10:26:35+00:00</time>
      </trkpt>
      <trkpt lat="40.991300" lon="-3.300533">
        <ele>899.43</ele>
        <time>2022-04-17T10:26:36+00:00</time>
      </trkpt>
      <trkpt lat="40.991235" lon="-3.300448">
        <ele>899.43</ele>
        <time>2022-04-17T10:26:37+00:00</time>
      </trkpt>
      <trkpt lat="40.991214" lon="-3.300340">
        <ele>899.91</ele>
        <time>2022-04-17T10:26:38+00:00</time>
      </trkpt>
      <trkpt lat="40.991214" lon="-3.300233">
        <ele>900.39</ele>
        <time>2022-04-17T10:26:39+00:00</time>
      </trkpt>
      <trkpt lat="40.991192" lon="-3.300126">
        <ele>900.87</ele>
        <time>2022-04-17T10:26:40+00:00</time>
      </trkpt>
      <trkpt lat="40.991171" lon="-3.300040">
        <ele>901.35</ele>
        <time>2022-04-17T10:26:41+00:00</time>
      </trkpt>
      <trkpt lat="40.991107" lon="-3.299975">
        <ele>902.32</ele>
        <time>2022-04-17T10:26:42+00:00</time>
      </trkpt>
      <trkpt lat="40.991021" lon="-3.299911">
        <ele>902.80</ele>
        <time>2022-04-17T10:26:43+00:00</time>
      </trkpt>
      <trkpt lat="40.990913" lon="-3.299911">
        <ele>903.28</ele>
        <time>2022-04-17T10:26:44+00:00</time>
      </trkpt>
      <trkpt lat="40.990785" lon="-3.299890">
        <ele>903.76</ele>
        <time>2022-04-17T10:26:45+00:00</time>
      </trkpt>
      <trkpt lat="40.990656" lon="-3.299868">
        <ele>904.72</ele>
        <time>2022-04-17T10:26:46+00:00</time>
      </trkpt>
      <trkpt lat="40.990355" lon="-3.299847">
        <ele>906.64</ele>
        <time>2022-04-17T10:26:49+00:00</time>
      </trkpt>
      <trkpt lat="40.990270" lon="-3.299868">
        <ele>907.60</ele>
        <time>2022-04-17T10:26:50+00:00</time>
      </trkpt>
      <trkpt lat="40.990227" lon="-3.299933">
        <ele>908.08</ele>
        <time>2022-04-17T10:26:51+00:00</time>
      </trkpt>
      <trkpt lat="40.990205" lon="-3.300040">
        <ele>908.56</ele>
        <time>2022-04-17T10:26:52+00:00</time>
      </trkpt>
      <trkpt lat="40.990184" lon="-3.300169">
        <ele>908.56</ele>
        <time>2022-04-17T10:26:53+00:00</time>
      </trkpt>
      <trkpt lat="40.990162" lon="-3.300297">
        <ele>908.08</ele>
        <time>2022-04-17T10:26:54+00:00</time>
      </trkpt>
      <trkpt lat="40.990119" lon="-3.300469">
        <ele>908.08</ele>
        <time>2022-04-17T10:26:55+00:00</time>
      </trkpt>
      <trkpt lat="40.990055" lon="-3.300576">
        <ele>907.60</ele>
        <time>2022-04-17T10:26:56+00:00</time>
      </trkpt>
      <trkpt lat="40.989969" lon="-3.300705">
        <ele>907.12</ele>
        <time>2022-04-17T10:26:57+00:00</time>
      </trkpt>
      <trkpt lat="40.989905" lon="-3.300834">
        <ele>906.64</ele>
        <time>2022-04-17T10:26:58+00:00</time>
      </trkpt>
      <trkpt lat="40.989733" lon="-3.301113">
        <ele>905.20</ele>
        <time>2022-04-17T10:27:01+00:00</time>
      </trkpt>
      <trkpt lat="40.989712" lon="-3.301199">
        <ele>904.72</ele>
        <time>2022-04-17T10:27:02+00:00</time>
      </trkpt>
      <trkpt lat="40.989733" lon="-3.301284">
        <ele>903.76</ele>
        <time>2022-04-17T10:27:03+00:00</time>
      </trkpt>
      <trkpt lat="40.989712" lon="-3.301542">
        <ele>902.32</ele>
        <time>2022-04-17T10:27:05+00:00</time>
      </trkpt>
      <trkpt lat="40.989690" lon="-3.301671">
        <ele>901.35</ele>
        <time>2022-04-17T10:27:06+00:00</time>
      </trkpt>
      <trkpt lat="40.989647" lon="-3.301992">
        <ele>897.99</ele>
        <time>2022-04-17T10:27:09+00:00</time>
      </trkpt>
      <trkpt lat="40.989626" lon="-3.302057">
        <ele>897.03</ele>
        <time>2022-04-17T10:27:10+00:00</time>
      </trkpt>
      <trkpt lat="40.989583" lon="-3.302100">
        <ele>896.07</ele>
        <time>2022-04-17T10:27:11+00:00</time>
      </trkpt>
      <trkpt lat="40.989519" lon="-3.302121">
        <ele>895.11</ele>
        <time>2022-04-17T10:27:12+00:00</time>
      </trkpt>
      <trkpt lat="40.989454" lon="-3.302143">
        <ele>894.15</ele>
        <time>2022-04-17T10:27:13+00:00</time>
      </trkpt>
      <trkpt lat="40.989390" lon="-3.302100">
        <ele>893.66</ele>
        <time>2022-04-17T10:27:14+00:00</time>
      </trkpt>
      <trkpt lat="40.989326" lon="-3.302035">
        <ele>892.70</ele>
        <time>2022-04-17T10:27:15+00:00</time>
      </trkpt>
      <trkpt lat="40.989304" lon="-3.301950">
        <ele>892.22</ele>
        <time>2022-04-17T10:27:16+00:00</time>
      </trkpt>
      <trkpt lat="40.989283" lon="-3.301821">
        <ele>892.22</ele>
        <time>2022-04-17T10:27:17+00:00</time>
      </trkpt>
      <trkpt lat="40.989261" lon="-3.301692">
        <ele>892.22</ele>
        <time>2022-04-17T10:27:18+00:00</time>
      </trkpt>
      <trkpt lat="40.989197" lon="-3.301563">
        <ele>893.18</ele>
        <time>2022-04-17T10:27:19+00:00</time>
      </trkpt>
      <trkpt lat="40.989154" lon="-3.301435">
        <ele>893.66</ele>
        <time>2022-04-17T10:27:20+00:00</time>
      </trkpt>
      <trkpt lat="40.989089" lon="-3.301306">
        <ele>894.63</ele>
        <time>2022-04-17T10:27:21+00:00</time>
      </trkpt>
      <trkpt lat="40.989047" lon="-3.301199">
        <ele>895.11</ele>
        <time>2022-04-17T10:27:22+00:00</time>
      </trkpt>
      <trkpt lat="40.989025" lon="-3.301070">
        <ele>896.55</ele>
        <time>2022-04-17T10:27:23+00:00</time>
      </trkpt>
      <trkpt lat="40.989047" lon="-3.300920">
        <ele>897.03</ele>
        <time>2022-04-17T10:27:24+00:00</time>
      </trkpt>
      <trkpt lat="40.989047" lon="-3.300748">
        <ele>897.99</ele>
        <time>2022-04-17T10:27:25+00:00</time>
      </trkpt>
      <trkpt lat="40.989068" lon="-3.300619">
        <ele>899.43</ele>
        <time>2022-04-17T10:27:26+00:00</time>
      </trkpt>
      <trkpt lat="40.989068" lon="-3.300490">
        <ele>900.87</ele>
        <time>2022-04-17T10:27:27+00:00</time>
      </trkpt>
      <trkpt lat="40.989047" lon="-3.300383">
        <ele>902.32</ele>
        <time>2022-04-17T10:27:28+00:00</time>
      </trkpt>
      <trkpt lat="40.989025" lon="-3.300254">
        <ele>903.28</ele>
        <time>2022-04-17T10:27:29+00:00</time>
      </trkpt>
      <trkpt lat="40.988982" lon="-3.300126">
        <ele>904.72</ele>
        <time>2022-04-17T10:27:30+00:00</time>
      </trkpt>
      <trkpt lat="40.988918" lon="-3.300018">
        <ele>906.16</ele>
        <time>2022-04-17T10:27:31+00:00</time>
      </trkpt>
      <trkpt lat="40.988875" lon="-3.299911">
        <ele>907.60</ele>
        <time>2022-04-17T10:27:32+00:00</time>
      </trkpt>
      <trkpt lat="40.988832" lon="-3.299825">
        <ele>908.56</ele>
        <time>2022-04-17T10:27:33+00:00</time>
      </trkpt>
      <trkpt lat="40.988746" lon="-3.299782">
        <ele>910.01</ele>
        <time>2022-04-17T10:27:34+00:00</time>
      </trkpt>
      <trkpt lat="40.988660" lon="-3.299739">
        <ele>911.45</ele>
        <time>2022-04-17T10:27:35+00:00</time>
      </trkpt>
      <trkpt lat="40.988532" lon="-3.299739">
        <ele>912.89</ele>
        <time>2022-04-17T10:27:36+00:00</time>
      </trkpt>
      <trkpt lat="40.988403" lon="-3.299761">
        <ele>914.33</ele>
        <time>2022-04-17T10:27:37+00:00</time>
      </trkpt>
      <trkpt lat="40.987974" lon="-3.299825">
        <ele>918.18</ele>
        <time>2022-04-17T10:27:40+00:00</time>
      </trkpt>
      <trkpt lat="40.987866" lon="-3.299890">
        <ele>919.62</ele>
        <time>2022-04-17T10:27:41+00:00</time>
      </trkpt>
      <trkpt lat="40.987781" lon="-3.299933">
        <ele>920.58</ele>
        <time>2022-04-17T10:27:42+00:00</time>
      </trkpt>
      <trkpt lat="40.987716" lon="-3.299975">
        <ele>921.54</ele>
        <time>2022-04-17T10:27:43+00:00</time>
      </trkpt>
      <trkpt lat="40.987652" lon="-3.299975">
        <ele>922.02</ele>
        <time>2022-04-17T10:27:44+00:00</time>
      </trkpt>
      <trkpt lat="40.987587" lon="-3.299911">
        <ele>922.02</ele>
        <time>2022-04-17T10:27:45+00:00</time>
      </trkpt>
      <trkpt lat="40.987502" lon="-3.299847">
        <ele>922.50</ele>
        <time>2022-04-17T10:27:46+00:00</time>
      </trkpt>
      <trkpt lat="40.987416" lon="-3.299761">
        <ele>922.50</ele>
        <time>2022-04-17T10:27:47+00:00</time>
      </trkpt>
      <trkpt lat="40.987330" lon="-3.299675">
        <ele>922.98</ele>
        <time>2022-04-17T10:27:48+00:00</time>
      </trkpt>
      <trkpt lat="40.987180" lon="-3.299611">
        <ele>922.98</ele>
        <time>2022-04-17T10:27:49+00:00</time>
      </trkpt>
      <trkpt lat="40.987051" lon="-3.299568">
        <ele>923.47</ele>
        <time>2022-04-17T10:27:50+00:00</time>
      </trkpt>
      <trkpt lat="40.986944" lon="-3.299589">
        <ele>923.95</ele>
        <time>2022-04-17T10:27:51+00:00</time>
      </trkpt>
      <trkpt lat="40.986815" lon="-3.299611">
        <ele>924.43</ele>
        <time>2022-04-17T10:27:52+00:00</time>
      </trkpt>
      <trkpt lat="40.986686" lon="-3.299632">
        <ele>924.91</ele>
        <time>2022-04-17T10:27:53+00:00</time>
      </trkpt>
      <trkpt lat="40.986557" lon="-3.299675">
        <ele>925.87</ele>
        <time>2022-04-17T10:27:54+00:00</time>
      </trkpt>
      <trkpt lat="40.986450" lon="-3.299739">
        <ele>926.35</ele>
        <time>2022-04-17T10:27:55+00:00</time>
      </trkpt>
      <trkpt lat="40.986364" lon="-3.299804">
        <ele>927.31</ele>
        <time>2022-04-17T10:27:56+00:00</time>
      </trkpt>
      <trkpt lat="40.986279" lon="-3.299890">
        <ele>928.75</ele>
        <time>2022-04-17T10:27:57+00:00</time>
      </trkpt>
      <trkpt lat="40.986236" lon="-3.299975">
        <ele>929.71</ele>
        <time>2022-04-17T10:27:58+00:00</time>
      </trkpt>
      <trkpt lat="40.986171" lon="-3.300126">
        <ele>930.68</ele>
        <time>2022-04-17T10:27:59+00:00</time>
      </trkpt>
      <trkpt lat="40.986107" lon="-3.300276">
        <ele>931.64</ele>
        <time>2022-04-17T10:28:00+00:00</time>
      </trkpt>
      <trkpt lat="40.985549" lon="-3.301735">
        <ele>939.81</ele>
        <time>2022-04-17T10:28:08+00:00</time>
      </trkpt>
      <trkpt lat="40.985506" lon="-3.301864">
        <ele>940.77</ele>
        <time>2022-04-17T10:28:09+00:00</time>
      </trkpt>
      <trkpt lat="40.985420" lon="-3.301950">
        <ele>941.73</ele>
        <time>2022-04-17T10:28:10+00:00</time>
      </trkpt>
      <trkpt lat="40.985334" lon="-3.302035">
        <ele>942.69</ele>
        <time>2022-04-17T10:28:11+00:00</time>
      </trkpt>
      <trkpt lat="40.985227" lon="-3.302100">
        <ele>943.65</ele>
        <time>2022-04-17T10:28:12+00:00</time>
      </trkpt>
      <trkpt lat="40.985120" lon="-3.302164">
        <ele>944.61</ele>
        <time>2022-04-17T10:28:13+00:00</time>
      </trkpt>
      <trkpt lat="40.984991" lon="-3.302207">
        <ele>946.06</ele>
        <time>2022-04-17T10:28:14+00:00</time>
      </trkpt>
      <trkpt lat="40.984905" lon="-3.302293">
        <ele>947.02</ele>
        <time>2022-04-17T10:28:15+00:00</time>
      </trkpt>
      <trkpt lat="40.984841" lon="-3.302400">
        <ele>947.98</ele>
        <time>2022-04-17T10:28:16+00:00</time>
      </trkpt>
      <trkpt lat="40.984776" lon="-3.302507">
        <ele>949.42</ele>
        <time>2022-04-17T10:28:17+00:00</time>
      </trkpt>
      <trkpt lat="40.984734" lon="-3.302658">
        <ele>950.38</ele>
        <time>2022-04-17T10:28:18+00:00</time>
      </trkpt>
      <trkpt lat="40.984712" lon="-3.302829">
        <ele>951.34</ele>
        <time>2022-04-17T10:28:19+00:00</time>
      </trkpt>
      <trkpt lat="40.984691" lon="-3.303022">
        <ele>951.82</ele>
        <time>2022-04-17T10:28:20+00:00</time>
      </trkpt>
      <trkpt lat="40.984583" lon="-3.303452">
        <ele>952.79</ele>
        <time>2022-04-17T10:28:23+00:00</time>
      </trkpt>
      <trkpt lat="40.984540" lon="-3.303516">
        <ele>953.27</ele>
        <time>2022-04-17T10:28:24+00:00</time>
      </trkpt>
      <trkpt lat="40.984540" lon="-3.303537">
        <ele>953.75</ele>
        <time>2022-04-17T10:28:25+00:00</time>
      </trkpt>
      <trkpt lat="40.984476" lon="-3.303537">
        <ele>954.23</ele>
        <time>2022-04-17T10:28:26+00:00</time>
      </trkpt>
      <trkpt lat="40.984433" lon="-3.303537">
        <ele>954.71</ele>
        <time>2022-04-17T10:28:27+00:00</time>
      </trkpt>
      <trkpt lat="40.984412" lon="-3.303516">
        <ele>955.67</ele>
        <time>2022-04-17T10:28:28+00:00</time>
      </trkpt>
      <trkpt lat="40.984326" lon="-3.303452">
        <ele>956.15</ele>
        <time>2022-04-17T10:28:29+00:00</time>
      </trkpt>
      <trkpt lat="40.984197" lon="-3.303344">
        <ele>956.63</ele>
        <time>2022-04-17T10:28:30+00:00</time>
      </trkpt>
      <trkpt lat="40.984047" lon="-3.303280">
        <ele>957.59</ele>
        <time>2022-04-17T10:28:31+00:00</time>
      </trkpt>
      <trkpt lat="40.983897" lon="-3.303258">
        <ele>959.03</ele>
        <time>2022-04-17T10:28:32+00:00</time>
      </trkpt>
      <trkpt lat="40.983747" lon="-3.303237">
        <ele>960.48</ele>
        <time>2022-04-17T10:28:33+00:00</time>
      </trkpt>
      <trkpt lat="40.983618" lon="-3.303237">
        <ele>961.44</ele>
        <time>2022-04-17T10:28:34+00:00</time>
      </trkpt>
      <trkpt lat="40.983489" lon="-3.303216">
        <ele>962.88</ele>
        <time>2022-04-17T10:28:35+00:00</time>
      </trkpt>
      <trkpt lat="40.983360" lon="-3.303258">
        <ele>963.36</ele>
        <time>2022-04-17T10:28:36+00:00</time>
      </trkpt>
      <trkpt lat="40.983296" lon="-3.303301">
        <ele>964.32</ele>
        <time>2022-04-17T10:28:37+00:00</time>
      </trkpt>
      <trkpt lat="40.983189" lon="-3.303366">
        <ele>964.32</ele>
        <time>2022-04-17T10:28:38+00:00</time>
      </trkpt>
      <trkpt lat="40.983103" lon="-3.303473">
        <ele>964.80</ele>
        <time>2022-04-17T10:28:39+00:00</time>
      </trkpt>
      <trkpt lat="40.983038" lon="-3.303580">
        <ele>964.32</ele>
        <time>2022-04-17T10:28:40+00:00</time>
      </trkpt>
      <trkpt lat="40.982974" lon="-3.303688">
        <ele>963.84</ele>
        <time>2022-04-17T10:28:41+00:00</time>
      </trkpt>
      <trkpt lat="40.982888" lon="-3.303688">
        <ele>962.88</ele>
        <time>2022-04-17T10:28:42+00:00</time>
      </trkpt>
      <trkpt lat="40.982759" lon="-3.303709">
        <ele>962.40</ele>
        <time>2022-04-17T10:28:43+00:00</time>
      </trkpt>
      <trkpt lat="40.982631" lon="-3.303709">
        <ele>961.44</ele>
        <time>2022-04-17T10:28:44+00:00</time>
      </trkpt>
      <trkpt lat="40.982094" lon="-3.303773">
        <ele>957.59</ele>
        <time>2022-04-17T10:28:48+00:00</time>
      </trkpt>
      <trkpt lat="40.981966" lon="-3.303816">
        <ele>957.11</ele>
        <time>2022-04-17T10:28:49+00:00</time>
      </trkpt>
      <trkpt lat="40.981858" lon="-3.303902">
        <ele>956.15</ele>
        <time>2022-04-17T10:28:50+00:00</time>
      </trkpt>
      <trkpt lat="40.981730" lon="-3.304009">
        <ele>954.71</ele>
        <time>2022-04-17T10:28:51+00:00</time>
      </trkpt>
      <trkpt lat="40.981622" lon="-3.304117">
        <ele>953.75</ele>
        <time>2022-04-17T10:28:52+00:00</time>
      </trkpt>
      <trkpt lat="40.981536" lon="-3.304246">
        <ele>952.30</ele>
        <time>2022-04-17T10:28:53+00:00</time>
      </trkpt>
      <trkpt lat="40.981472" lon="-3.304374">
        <ele>950.86</ele>
        <time>2022-04-17T10:28:54+00:00</time>
      </trkpt>
      <trkpt lat="40.981408" lon="-3.304503">
        <ele>949.90</ele>
        <time>2022-04-17T10:28:55+00:00</time>
      </trkpt>
      <trkpt lat="40.981322" lon="-3.304589">
        <ele>948.46</ele>
        <time>2022-04-17T10:28:56+00:00</time>
      </trkpt>
      <trkpt lat="40.981215" lon="-3.304653">
        <ele>947.02</ele>
        <time>2022-04-17T10:28:57+00:00</time>
      </trkpt>
      <trkpt lat="40.981107" lon="-3.304696">
        <ele>946.06</ele>
        <time>2022-04-17T10:28:58+00:00</time>
      </trkpt>
      <trkpt lat="40.980957" lon="-3.304696">
        <ele>944.61</ele>
        <time>2022-04-17T10:28:59+00:00</time>
      </trkpt>
      <trkpt lat="40.980828" lon="-3.304696">
        <ele>943.65</ele>
        <time>2022-04-17T10:29:00+00:00</time>
      </trkpt>
      <trkpt lat="40.980571" lon="-3.304696">
        <ele>941.25</ele>
        <time>2022-04-17T10:29:02+00:00</time>
      </trkpt>
      <trkpt lat="40.980442" lon="-3.304696">
        <ele>940.29</ele>
        <time>2022-04-17T10:29:03+00:00</time>
      </trkpt>
      <trkpt lat="40.980313" lon="-3.304739">
        <ele>939.81</ele>
        <time>2022-04-17T10:29:04+00:00</time>
      </trkpt>
      <trkpt lat="40.980206" lon="-3.304803">
        <ele>938.85</ele>
        <time>2022-04-17T10:29:05+00:00</time>
      </trkpt>
      <trkpt lat="40.980120" lon="-3.304889">
        <ele>937.88</ele>
        <time>2022-04-17T10:29:06+00:00</time>
      </trkpt>
      <trkpt lat="40.980013" lon="-3.304975">
        <ele>937.40</ele>
        <time>2022-04-17T10:29:07+00:00</time>
      </trkpt>
      <trkpt lat="40.979949" lon="-3.305039">
        <ele>936.44</ele>
        <time>2022-04-17T10:29:08+00:00</time>
      </trkpt>
      <trkpt lat="40.979884" lon="-3.305082">
        <ele>935.96</ele>
        <time>2022-04-17T10:29:09+00:00</time>
      </trkpt>
      <trkpt lat="40.979841" lon="-3.305125">
        <ele>935.00</ele>
        <time>2022-04-17T10:29:10+00:00</time>
      </trkpt>
      <trkpt lat="40.979755" lon="-3.305125">
        <ele>934.04</ele>
        <time>2022-04-17T10:29:11+00:00</time>
      </trkpt>
      <trkpt lat="40.979648" lon="-3.305082">
        <ele>933.56</ele>
        <time>2022-04-17T10:29:12+00:00</time>
      </trkpt>
      <trkpt lat="40.979562" lon="-3.304975">
        <ele>932.60</ele>
        <time>2022-04-17T10:29:13+00:00</time>
      </trkpt>
      <trkpt lat="40.979476" lon="-3.304846">
        <ele>931.64</ele>
        <time>2022-04-17T10:29:14+00:00</time>
      </trkpt>
      <trkpt lat="40.979369" lon="-3.304718">
        <ele>930.68</ele>
        <time>2022-04-17T10:29:15+00:00</time>
      </trkpt>
      <trkpt lat="40.978575" lon="-3.303752">
        <ele>923.95</ele>
        <time>2022-04-17T10:29:21+00:00</time>
      </trkpt>
      <trkpt lat="40.978017" lon="-3.303130">
        <ele>917.22</ele>
        <time>2022-04-17T10:29:26+00:00</time>
      </trkpt>
      <trkpt lat="40.977202" lon="-3.302357">
        <ele>907.60</ele>
        <time>2022-04-17T10:29:33+00:00</time>
      </trkpt>
      <trkpt lat="40.977138" lon="-3.302293">
        <ele>906.16</ele>
        <time>2022-04-17T10:29:34+00:00</time>
      </trkpt>
      <trkpt lat="40.977073" lon="-3.302250">
        <ele>904.72</ele>
        <time>2022-04-17T10:29:35+00:00</time>
      </trkpt>
      <trkpt lat="40.976987" lon="-3.302228">
        <ele>903.28</ele>
        <time>2022-04-17T10:29:36+00:00</time>
      </trkpt>
      <trkpt lat="40.976902" lon="-3.302250">
        <ele>902.32</ele>
        <time>2022-04-17T10:29:37+00:00</time>
      </trkpt>
      <trkpt lat="40.976794" lon="-3.302314">
        <ele>901.35</ele>
        <time>2022-04-17T10:29:38+00:00</time>
      </trkpt>
      <trkpt lat="40.976665" lon="-3.302400">
        <ele>900.39</ele>
        <time>2022-04-17T10:29:39+00:00</time>
      </trkpt>
      <trkpt lat="40.976558" lon="-3.302486">
        <ele>899.43</ele>
        <time>2022-04-17T10:29:40+00:00</time>
      </trkpt>
      <trkpt lat="40.976451" lon="-3.302550">
        <ele>898.47</ele>
        <time>2022-04-17T10:29:41+00:00</time>
      </trkpt>
      <trkpt lat="40.976387" lon="-3.302615">
        <ele>897.99</ele>
        <time>2022-04-17T10:29:42+00:00</time>
      </trkpt>
      <trkpt lat="40.976365" lon="-3.302743">
        <ele>897.03</ele>
        <time>2022-04-17T10:29:43+00:00</time>
      </trkpt>
      <trkpt lat="40.976344" lon="-3.302872">
        <ele>896.55</ele>
        <time>2022-04-17T10:29:44+00:00</time>
      </trkpt>
      <trkpt lat="40.976322" lon="-3.303022">
        <ele>896.07</ele>
        <time>2022-04-17T10:29:45+00:00</time>
      </trkpt>
      <trkpt lat="40.976301" lon="-3.303130">
        <ele>895.59</ele>
        <time>2022-04-17T10:29:46+00:00</time>
      </trkpt>
      <trkpt lat="40.976279" lon="-3.303216">
        <ele>895.59</ele>
        <time>2022-04-17T10:29:47+00:00</time>
      </trkpt>
      <trkpt lat="40.976215" lon="-3.303258">
        <ele>895.11</ele>
        <time>2022-04-17T10:29:48+00:00</time>
      </trkpt>
      <trkpt lat="40.976151" lon="-3.303280">
        <ele>895.11</ele>
        <time>2022-04-17T10:29:49+00:00</time>
      </trkpt>
      <trkpt lat="40.976086" lon="-3.303258">
        <ele>894.63</ele>
        <time>2022-04-17T10:29:50+00:00</time>
      </trkpt>
      <trkpt lat="40.976000" lon="-3.303194">
        <ele>894.63</ele>
        <time>2022-04-17T10:29:51+00:00</time>
      </trkpt>
      <trkpt lat="40.975936" lon="-3.303087">
        <ele>894.63</ele>
        <time>2022-04-17T10:29:52+00:00</time>
      </trkpt>
      <trkpt lat="40.975850" lon="-3.302980">
        <ele>895.11</ele>
        <time>2022-04-17T10:29:53+00:00</time>
      </trkpt>
      <trkpt lat="40.975764" lon="-3.302915">
        <ele>895.11</ele>
        <time>2022-04-17T10:29:54+00:00</time>
      </trkpt>
      <trkpt lat="40.975657" lon="-3.302894">
        <ele>895.59</ele>
        <time>2022-04-17T10:29:55+00:00</time>
      </trkpt>
      <trkpt lat="40.975528" lon="-3.302894">
        <ele>896.07</ele>
        <time>2022-04-17T10:29:56+00:00</time>
      </trkpt>
      <trkpt lat="40.975399" lon="-3.302937">
        <ele>896.55</ele>
        <time>2022-04-17T10:29:57+00:00</time>
      </trkpt>
      <trkpt lat="40.975142" lon="-3.303065">
        <ele>897.99</ele>
        <time>2022-04-17T10:29:59+00:00</time>
      </trkpt>
      <trkpt lat="40.975035" lon="-3.303173">
        <ele>898.95</ele>
        <time>2022-04-17T10:30:00+00:00</time>
      </trkpt>
      <trkpt lat="40.974906" lon="-3.303301">
        <ele>899.43</ele>
        <time>2022-04-17T10:30:01+00:00</time>
      </trkpt>
      <trkpt lat="40.974434" lon="-3.303967">
        <ele>901.35</ele>
        <time>2022-04-17T10:30:06+00:00</time>
      </trkpt>
      <trkpt lat="40.974412" lon="-3.304117">
        <ele>901.35</ele>
        <time>2022-04-17T10:30:07+00:00</time>
      </trkpt>
      <trkpt lat="40.974391" lon="-3.304267">
        <ele>901.35</ele>
        <time>2022-04-17T10:30:08+00:00</time>
      </trkpt>
      <trkpt lat="40.974434" lon="-3.304396">
        <ele>901.84</ele>
        <time>2022-04-17T10:30:09+00:00</time>
      </trkpt>
      <trkpt lat="40.974455" lon="-3.304524">
        <ele>901.84</ele>
        <time>2022-04-17T10:30:10+00:00</time>
      </trkpt>
      <trkpt lat="40.974498" lon="-3.304632">
        <ele>902.32</ele>
        <time>2022-04-17T10:30:11+00:00</time>
      </trkpt>
      <trkpt lat="40.974520" lon="-3.304739">
        <ele>902.32</ele>
        <time>2022-04-17T10:30:12+00:00</time>
      </trkpt>
      <trkpt lat="40.974498" lon="-3.304782">
        <ele>902.80</ele>
        <time>2022-04-17T10:30:13+00:00</time>
      </trkpt>
      <trkpt lat="40.974434" lon="-3.304846">
        <ele>902.80</ele>
        <time>2022-04-17T10:30:14+00:00</time>
      </trkpt>
      <trkpt lat="40.974370" lon="-3.304954">
        <ele>903.28</ele>
        <time>2022-04-17T10:30:15+00:00</time>
      </trkpt>
      <trkpt lat="40.974262" lon="-3.305061">
        <ele>903.28</ele>
        <time>2022-04-17T10:30:16+00:00</time>
      </trkpt>
      <trkpt lat="40.974155" lon="-3.305190">
        <ele>903.28</ele>
        <time>2022-04-17T10:30:17+00:00</time>
      </trkpt>
      <trkpt lat="40.974069" lon="-3.305297">
        <ele>903.28</ele>
        <time>2022-04-17T10:30:18+00:00</time>
      </trkpt>
      <trkpt lat="40.974005" lon="-3.305404">
        <ele>903.28</ele>
        <time>2022-04-17T10:30:19+00:00</time>
      </trkpt>
      <trkpt lat="40.974005" lon="-3.305512">
        <ele>903.28</ele>
        <time>2022-04-17T10:30:20+00:00</time>
      </trkpt>
      <trkpt lat="40.974005" lon="-3.305640">
        <ele>903.28</ele>
        <time>2022-04-17T10:30:21+00:00</time>
      </trkpt>
      <trkpt lat="40.974048" lon="-3.305769">
        <ele>902.80</ele>
        <time>2022-04-17T10:30:22+00:00</time>
      </trkpt>
      <trkpt lat="40.974091" lon="-3.305919">
        <ele>902.80</ele>
        <time>2022-04-17T10:30:23+00:00</time>
      </trkpt>
      <trkpt lat="40.974133" lon="-3.306048">
        <ele>902.80</ele>
        <time>2022-04-17T10:30:24+00:00</time>
      </trkpt>
      <trkpt lat="40.974133" lon="-3.306177">
        <ele>902.80</ele>
        <time>2022-04-17T10:30:25+00:00</time>
      </trkpt>
      <trkpt lat="40.974112" lon="-3.306284">
        <ele>902.32</ele>
        <time>2022-04-17T10:30:26+00:00</time>
      </trkpt>
      <trkpt lat="40.974069" lon="-3.306413">
        <ele>902.32</ele>
        <time>2022-04-17T10:30:27+00:00</time>
      </trkpt>
      <trkpt lat="40.974005" lon="-3.306541">
        <ele>902.32</ele>
        <time>2022-04-17T10:30:28+00:00</time>
      </trkpt>
      <trkpt lat="40.973919" lon="-3.306670">
        <ele>902.32</ele>
        <time>2022-04-17T10:30:29+00:00</time>
      </trkpt>
      <trkpt lat="40.973855" lon="-3.306756">
        <ele>902.32</ele>
        <time>2022-04-17T10:30:30+00:00</time>
      </trkpt>
      <trkpt lat="40.973855" lon="-3.306885">
        <ele>901.84</ele>
        <time>2022-04-17T10:30:31+00:00</time>
      </trkpt>
      <trkpt lat="40.973876" lon="-3.307014">
        <ele>901.35</ele>
        <time>2022-04-17T10:30:32+00:00</time>
      </trkpt>
      <trkpt lat="40.973897" lon="-3.307121">
        <ele>900.87</ele>
        <time>2022-04-17T10:30:33+00:00</time>
      </trkpt>
      <trkpt lat="40.973962" lon="-3.307207">
        <ele>900.39</ele>
        <time>2022-04-17T10:30:34+00:00</time>
      </trkpt>
      <trkpt lat="40.974069" lon="-3.307271">
        <ele>899.91</ele>
        <time>2022-04-17T10:30:35+00:00</time>
      </trkpt>
      <trkpt lat="40.974155" lon="-3.307335">
        <ele>899.91</ele>
        <time>2022-04-17T10:30:36+00:00</time>
      </trkpt>
      <trkpt lat="40.974219" lon="-3.307443">
        <ele>899.91</ele>
        <time>2022-04-17T10:30:37+00:00</time>
      </trkpt>
      <trkpt lat="40.974241" lon="-3.307571">
        <ele>899.43</ele>
        <time>2022-04-17T10:30:38+00:00</time>
      </trkpt>
      <trkpt lat="40.974284" lon="-3.307679">
        <ele>898.95</ele>
        <time>2022-04-17T10:30:39+00:00</time>
      </trkpt>
      <trkpt lat="40.974262" lon="-3.307829">
        <ele>898.47</ele>
        <time>2022-04-17T10:30:40+00:00</time>
      </trkpt>
      <trkpt lat="40.974219" lon="-3.308022">
        <ele>897.99</ele>
        <time>2022-04-17T10:30:41+00:00</time>
      </trkpt>
      <trkpt lat="40.974198" lon="-3.308237">
        <ele>897.03</ele>
        <time>2022-04-17T10:30:42+00:00</time>
      </trkpt>
      <trkpt lat="40.974048" lon="-3.309073">
        <ele>890.78</ele>
        <time>2022-04-17T10:30:47+00:00</time>
      </trkpt>
      <trkpt lat="40.974005" lon="-3.309138">
        <ele>889.82</ele>
        <time>2022-04-17T10:30:48+00:00</time>
      </trkpt>
      <trkpt lat="40.973962" lon="-3.309181">
        <ele>888.86</ele>
        <time>2022-04-17T10:30:49+00:00</time>
      </trkpt>
      <trkpt lat="40.973919" lon="-3.309202">
        <ele>887.90</ele>
        <time>2022-04-17T10:30:50+00:00</time>
      </trkpt>
      <trkpt lat="40.973833" lon="-3.309181">
        <ele>886.45</ele>
        <time>2022-04-17T10:30:51+00:00</time>
      </trkpt>
      <trkpt lat="40.973747" lon="-3.309159">
        <ele>885.49</ele>
        <time>2022-04-17T10:30:52+00:00</time>
      </trkpt>
      <trkpt lat="40.973661" lon="-3.309095">
        <ele>884.53</ele>
        <time>2022-04-17T10:30:53+00:00</time>
      </trkpt>
      <trkpt lat="40.973576" lon="-3.308966">
        <ele>884.05</ele>
        <time>2022-04-17T10:30:54+00:00</time>
      </trkpt>
      <trkpt lat="40.973533" lon="-3.308816">
        <ele>883.57</ele>
        <time>2022-04-17T10:30:55+00:00</time>
      </trkpt>
      <trkpt lat="40.973490" lon="-3.308666">
        <ele>883.57</ele>
        <time>2022-04-17T10:30:56+00:00</time>
      </trkpt>
      <trkpt lat="40.973404" lon="-3.308430">
        <ele>884.53</ele>
        <time>2022-04-17T10:30:58+00:00</time>
      </trkpt>
      <trkpt lat="40.973340" lon="-3.308365">
        <ele>885.49</ele>
        <time>2022-04-17T10:30:59+00:00</time>
      </trkpt>
      <trkpt lat="40.973168" lon="-3.308172">
        <ele>886.45</ele>
        <time>2022-04-17T10:31:01+00:00</time>
      </trkpt>
      <trkpt lat="40.973104" lon="-3.308044">
        <ele>886.45</ele>
        <time>2022-04-17T10:31:02+00:00</time>
      </trkpt>
      <trkpt lat="40.973061" lon="-3.307958">
        <ele>886.94</ele>
        <time>2022-04-17T10:31:03+00:00</time>
      </trkpt>
      <trkpt lat="40.972975" lon="-3.307915">
        <ele>887.42</ele>
        <time>2022-04-17T10:31:04+00:00</time>
      </trkpt>
      <trkpt lat="40.972910" lon="-3.307893">
        <ele>887.90</ele>
        <time>2022-04-17T10:31:05+00:00</time>
      </trkpt>
      <trkpt lat="40.972825" lon="-3.307915">
        <ele>888.38</ele>
        <time>2022-04-17T10:31:06+00:00</time>
      </trkpt>
      <trkpt lat="40.972717" lon="-3.307958">
        <ele>888.86</ele>
        <time>2022-04-17T10:31:07+00:00</time>
      </trkpt>
      <trkpt lat="40.972631" lon="-3.308001">
        <ele>888.86</ele>
        <time>2022-04-17T10:31:08+00:00</time>
      </trkpt>
      <trkpt lat="40.972524" lon="-3.307979">
        <ele>888.86</ele>
        <time>2022-04-17T10:31:09+00:00</time>
      </trkpt>
      <trkpt lat="40.972460" lon="-3.307936">
        <ele>888.86</ele>
        <time>2022-04-17T10:31:10+00:00</time>
      </trkpt>
      <trkpt lat="40.972395" lon="-3.307829">
        <ele>888.86</ele>
        <time>2022-04-17T10:31:11+00:00</time>
      </trkpt>
      <trkpt lat="40.972331" lon="-3.307700">
        <ele>888.38</ele>
        <time>2022-04-17T10:31:12+00:00</time>
      </trkpt>
      <trkpt lat="40.972267" lon="-3.307550">
        <ele>888.38</ele>
        <time>2022-04-17T10:31:13+00:00</time>
      </trkpt>
      <trkpt lat="40.972159" lon="-3.307271">
        <ele>888.38</ele>
        <time>2022-04-17T10:31:15+00:00</time>
      </trkpt>
      <trkpt lat="40.972095" lon="-3.307185">
        <ele>888.86</ele>
        <time>2022-04-17T10:31:16+00:00</time>
      </trkpt>
      <trkpt lat="40.972009" lon="-3.307142">
        <ele>888.86</ele>
        <time>2022-04-17T10:31:17+00:00</time>
      </trkpt>
      <trkpt lat="40.971902" lon="-3.307078">
        <ele>889.34</ele>
        <time>2022-04-17T10:31:18+00:00</time>
      </trkpt>
      <trkpt lat="40.971795" lon="-3.307035">
        <ele>889.34</ele>
        <time>2022-04-17T10:31:19+00:00</time>
      </trkpt>
      <trkpt lat="40.971687" lon="-3.306992">
        <ele>889.34</ele>
        <time>2022-04-17T10:31:20+00:00</time>
      </trkpt>
      <trkpt lat="40.971580" lon="-3.306928">
        <ele>889.34</ele>
        <time>2022-04-17T10:31:21+00:00</time>
      </trkpt>
      <trkpt lat="40.971537" lon="-3.306799">
        <ele>888.86</ele>
        <time>2022-04-17T10:31:22+00:00</time>
      </trkpt>
      <trkpt lat="40.971430" lon="-3.306541">
        <ele>888.86</ele>
        <time>2022-04-17T10:31:24+00:00</time>
      </trkpt>
      <trkpt lat="40.971344" lon="-3.306477">
        <ele>888.86</ele>
        <time>2022-04-17T10:31:25+00:00</time>
      </trkpt>
      <trkpt lat="40.971258" lon="-3.306434">
        <ele>889.34</ele>
        <time>2022-04-17T10:31:26+00:00</time>
      </trkpt>
      <trkpt lat="40.971151" lon="-3.306434">
        <ele>889.82</ele>
        <time>2022-04-17T10:31:27+00:00</time>
      </trkpt>
      <trkpt lat="40.971044" lon="-3.306499">
        <ele>889.82</ele>
        <time>2022-04-17T10:31:28+00:00</time>
      </trkpt>
      <trkpt lat="40.970936" lon="-3.306584">
        <ele>890.30</ele>
        <time>2022-04-17T10:31:29+00:00</time>
      </trkpt>
      <trkpt lat="40.970850" lon="-3.306713">
        <ele>890.30</ele>
        <time>2022-04-17T10:31:30+00:00</time>
      </trkpt>
      <trkpt lat="40.970743" lon="-3.306863">
        <ele>890.30</ele>
        <time>2022-04-17T10:31:31+00:00</time>
      </trkpt>
      <trkpt lat="40.970078" lon="-3.307850">
        <ele>891.74</ele>
        <time>2022-04-17T10:31:38+00:00</time>
      </trkpt>
      <trkpt lat="40.970035" lon="-3.308001">
        <ele>892.22</ele>
        <time>2022-04-17T10:31:39+00:00</time>
      </trkpt>
      <trkpt lat="40.969971" lon="-3.308280">
        <ele>892.70</ele>
        <time>2022-04-17T10:31:41+00:00</time>
      </trkpt>
      <trkpt lat="40.969885" lon="-3.308344">
        <ele>892.70</ele>
        <time>2022-04-17T10:31:42+00:00</time>
      </trkpt>
      <trkpt lat="40.969799" lon="-3.308430">
        <ele>893.18</ele>
        <time>2022-04-17T10:31:43+00:00</time>
      </trkpt>
      <trkpt lat="40.969692" lon="-3.308494">
        <ele>893.66</ele>
        <time>2022-04-17T10:31:44+00:00</time>
      </trkpt>
      <trkpt lat="40.969584" lon="-3.308580">
        <ele>894.15</ele>
        <time>2022-04-17T10:31:45+00:00</time>
      </trkpt>
      <trkpt lat="40.969520" lon="-3.308644">
        <ele>894.15</ele>
        <time>2022-04-17T10:31:46+00:00</time>
      </trkpt>
      <trkpt lat="40.969477" lon="-3.308752">
        <ele>894.15</ele>
        <time>2022-04-17T10:31:47+00:00</time>
      </trkpt>
      <trkpt lat="40.969477" lon="-3.308880">
        <ele>894.63</ele>
        <time>2022-04-17T10:31:48+00:00</time>
      </trkpt>
      <trkpt lat="40.969456" lon="-3.309009">
        <ele>894.63</ele>
        <time>2022-04-17T10:31:49+00:00</time>
      </trkpt>
      <trkpt lat="40.969413" lon="-3.309095">
        <ele>894.63</ele>
        <time>2022-04-17T10:31:50+00:00</time>
      </trkpt>
      <trkpt lat="40.969370" lon="-3.309159">
        <ele>894.63</ele>
        <time>2022-04-17T10:31:51+00:00</time>
      </trkpt>
      <trkpt lat="40.969327" lon="-3.309202">
        <ele>894.63</ele>
        <time>2022-04-17T10:31:52+00:00</time>
      </trkpt>
      <trkpt lat="40.969284" lon="-3.309181">
        <ele>894.63</ele>
        <time>2022-04-17T10:31:53+00:00</time>
      </trkpt>
      <trkpt lat="40.969198" lon="-3.309138">
        <ele>894.15</ele>
        <time>2022-04-17T10:31:54+00:00</time>
      </trkpt>
      <trkpt lat="40.969112" lon="-3.309052">
        <ele>894.15</ele>
        <time>2022-04-17T10:31:55+00:00</time>
      </trkpt>
      <trkpt lat="40.969027" lon="-3.308945">
        <ele>894.15</ele>
        <time>2022-04-17T10:31:56+00:00</time>
      </trkpt>
      <trkpt lat="40.968726" lon="-3.308601">
        <ele>895.11</ele>
        <time>2022-04-17T10:31:59+00:00</time>
      </trkpt>
      <trkpt lat="40.968619" lon="-3.308537">
        <ele>895.59</ele>
        <time>2022-04-17T10:32:00+00:00</time>
      </trkpt>
      <trkpt lat="40.968512" lon="-3.308494">
        <ele>895.59</ele>
        <time>2022-04-17T10:32:01+00:00</time>
      </trkpt>
      <trkpt lat="40.968361" lon="-3.308494">
        <ele>896.07</ele>
        <time>2022-04-17T10:32:02+00:00</time>
      </trkpt>
      <trkpt lat="40.968211" lon="-3.308473">
        <ele>896.55</ele>
        <time>2022-04-17T10:32:03+00:00</time>
      </trkpt>
      <trkpt lat="40.967010" lon="-3.308387">
        <ele>902.80</ele>
        <time>2022-04-17T10:32:11+00:00</time>
      </trkpt>
      <trkpt lat="40.965744" lon="-3.308730">
        <ele>907.12</ele>
        <time>2022-04-17T10:32:20+00:00</time>
      </trkpt>
      <trkpt lat="40.965293" lon="-3.308837">
        <ele>911.45</ele>
        <time>2022-04-17T10:32:24+00:00</time>
      </trkpt>
      <trkpt lat="40.965207" lon="-3.308816">
        <ele>911.93</ele>
        <time>2022-04-17T10:32:25+00:00</time>
      </trkpt>
      <trkpt lat="40.965121" lon="-3.308773">
        <ele>912.89</ele>
        <time>2022-04-17T10:32:26+00:00</time>
      </trkpt>
      <trkpt lat="40.965057" lon="-3.308730">
        <ele>913.37</ele>
        <time>2022-04-17T10:32:27+00:00</time>
      </trkpt>
      <trkpt lat="40.965035" lon="-3.308666">
        <ele>913.85</ele>
        <time>2022-04-17T10:32:28+00:00</time>
      </trkpt>
      <trkpt lat="40.964993" lon="-3.308580">
        <ele>914.33</ele>
        <time>2022-04-17T10:32:29+00:00</time>
      </trkpt>
      <trkpt lat="40.965014" lon="-3.308494">
        <ele>915.29</ele>
        <time>2022-04-17T10:32:30+00:00</time>
      </trkpt>
      <trkpt lat="40.965057" lon="-3.308387">
        <ele>916.26</ele>
        <time>2022-04-17T10:32:31+00:00</time>
      </trkpt>
      <trkpt lat="40.965121" lon="-3.308258">
        <ele>916.74</ele>
        <time>2022-04-17T10:32:32+00:00</time>
      </trkpt>
      <trkpt lat="40.965207" lon="-3.308151">
        <ele>917.70</ele>
        <time>2022-04-17T10:32:33+00:00</time>
      </trkpt>
      <trkpt lat="40.965271" lon="-3.308022">
        <ele>918.66</ele>
        <time>2022-04-17T10:32:34+00:00</time>
      </trkpt>
      <trkpt lat="40.965379" lon="-3.307829">
        <ele>920.10</ele>
        <time>2022-04-17T10:32:36+00:00</time>
      </trkpt>
      <trkpt lat="40.965400" lon="-3.307743">
        <ele>921.06</ele>
        <time>2022-04-17T10:32:37+00:00</time>
      </trkpt>
      <trkpt lat="40.965379" lon="-3.307636">
        <ele>921.54</ele>
        <time>2022-04-17T10:32:38+00:00</time>
      </trkpt>
      <trkpt lat="40.965357" lon="-3.307550">
        <ele>922.02</ele>
        <time>2022-04-17T10:32:39+00:00</time>
      </trkpt>
      <trkpt lat="40.965293" lon="-3.307507">
        <ele>922.98</ele>
        <time>2022-04-17T10:32:40+00:00</time>
      </trkpt>
      <trkpt lat="40.965229" lon="-3.307464">
        <ele>923.95</ele>
        <time>2022-04-17T10:32:41+00:00</time>
      </trkpt>
      <trkpt lat="40.965143" lon="-3.307464">
        <ele>924.91</ele>
        <time>2022-04-17T10:32:42+00:00</time>
      </trkpt>
      <trkpt lat="40.965078" lon="-3.307550">
        <ele>925.87</ele>
        <time>2022-04-17T10:32:43+00:00</time>
      </trkpt>
      <trkpt lat="40.965014" lon="-3.307636">
        <ele>926.83</ele>
        <time>2022-04-17T10:32:44+00:00</time>
      </trkpt>
      <trkpt lat="40.964928" lon="-3.307743">
        <ele>927.79</ele>
        <time>2022-04-17T10:32:45+00:00</time>
      </trkpt>
      <trkpt lat="40.964864" lon="-3.307893">
        <ele>928.75</ele>
        <time>2022-04-17T10:32:46+00:00</time>
      </trkpt>
      <trkpt lat="40.964799" lon="-3.308044">
        <ele>929.71</ele>
        <time>2022-04-17T10:32:47+00:00</time>
      </trkpt>
      <trkpt lat="40.964220" lon="-3.309245">
        <ele>935.48</ele>
        <time>2022-04-17T10:32:57+00:00</time>
      </trkpt>
      <trkpt lat="40.964091" lon="-3.309546">
        <ele>936.44</ele>
        <time>2022-04-17T10:33:00+00:00</time>
      </trkpt>
      <trkpt lat="40.964048" lon="-3.309674">
        <ele>936.44</ele>
        <time>2022-04-17T10:33:01+00:00</time>
      </trkpt>
      <trkpt lat="40.964070" lon="-3.309803">
        <ele>936.44</ele>
        <time>2022-04-17T10:33:02+00:00</time>
      </trkpt>
      <trkpt lat="40.964091" lon="-3.309932">
        <ele>936.44</ele>
        <time>2022-04-17T10:33:03+00:00</time>
      </trkpt>
      <trkpt lat="40.964134" lon="-3.310061">
        <ele>936.44</ele>
        <time>2022-04-17T10:33:04+00:00</time>
      </trkpt>
      <trkpt lat="40.964156" lon="-3.310211">
        <ele>936.44</ele>
        <time>2022-04-17T10:33:05+00:00</time>
      </trkpt>
      <trkpt lat="40.964199" lon="-3.310339">
        <ele>935.96</ele>
        <time>2022-04-17T10:33:06+00:00</time>
      </trkpt>
      <trkpt lat="40.964220" lon="-3.310447">
        <ele>935.48</ele>
        <time>2022-04-17T10:33:07+00:00</time>
      </trkpt>
      <trkpt lat="40.964220" lon="-3.310554">
        <ele>935.00</ele>
        <time>2022-04-17T10:33:08+00:00</time>
      </trkpt>
      <trkpt lat="40.964177" lon="-3.310640">
        <ele>934.52</ele>
        <time>2022-04-17T10:33:09+00:00</time>
      </trkpt>
      <trkpt lat="40.964134" lon="-3.310726">
        <ele>934.04</ele>
        <time>2022-04-17T10:33:10+00:00</time>
      </trkpt>
      <trkpt lat="40.964048" lon="-3.310747">
        <ele>933.56</ele>
        <time>2022-04-17T10:33:11+00:00</time>
      </trkpt>
      <trkpt lat="40.963941" lon="-3.310726">
        <ele>932.60</ele>
        <time>2022-04-17T10:33:12+00:00</time>
      </trkpt>
      <trkpt lat="40.963812" lon="-3.310683">
        <ele>931.64</ele>
        <time>2022-04-17T10:33:13+00:00</time>
      </trkpt>
      <trkpt lat="40.963684" lon="-3.310576">
        <ele>930.68</ele>
        <time>2022-04-17T10:33:14+00:00</time>
      </trkpt>
      <trkpt lat="40.963533" lon="-3.310468">
        <ele>929.71</ele>
        <time>2022-04-17T10:33:15+00:00</time>
      </trkpt>
      <trkpt lat="40.962525" lon="-3.309696">
        <ele>920.10</ele>
        <time>2022-04-17T10:33:22+00:00</time>
      </trkpt>
      <trkpt lat="40.962439" lon="-3.309631">
        <ele>918.66</ele>
        <time>2022-04-17T10:33:23+00:00</time>
      </trkpt>
      <trkpt lat="40.962353" lon="-3.309610">
        <ele>917.22</ele>
        <time>2022-04-17T10:33:24+00:00</time>
      </trkpt>
      <trkpt lat="40.962310" lon="-3.309653">
        <ele>916.74</ele>
        <time>2022-04-17T10:33:25+00:00</time>
      </trkpt>
      <trkpt lat="40.962267" lon="-3.309696">
        <ele>915.77</ele>
        <time>2022-04-17T10:33:26+00:00</time>
      </trkpt>
      <trkpt lat="40.962246" lon="-3.309782">
        <ele>914.81</ele>
        <time>2022-04-17T10:33:27+00:00</time>
      </trkpt>
      <trkpt lat="40.962246" lon="-3.309889">
        <ele>913.37</ele>
        <time>2022-04-17T10:33:28+00:00</time>
      </trkpt>
      <trkpt lat="40.962310" lon="-3.309975">
        <ele>912.41</ele>
        <time>2022-04-17T10:33:29+00:00</time>
      </trkpt>
      <trkpt lat="40.962396" lon="-3.310061">
        <ele>911.45</ele>
        <time>2022-04-17T10:33:30+00:00</time>
      </trkpt>
      <trkpt lat="40.962482" lon="-3.310125">
        <ele>910.97</ele>
        <time>2022-04-17T10:33:31+00:00</time>
      </trkpt>
      <trkpt lat="40.962611" lon="-3.310297">
        <ele>909.05</ele>
        <time>2022-04-17T10:33:33+00:00</time>
      </trkpt>
      <trkpt lat="40.962632" lon="-3.310361">
        <ele>908.08</ele>
        <time>2022-04-17T10:33:34+00:00</time>
      </trkpt>
      <trkpt lat="40.962611" lon="-3.310447">
        <ele>907.12</ele>
        <time>2022-04-17T10:33:35+00:00</time>
      </trkpt>
      <trkpt lat="40.962589" lon="-3.310511">
        <ele>906.64</ele>
        <time>2022-04-17T10:33:36+00:00</time>
      </trkpt>
      <trkpt lat="40.962525" lon="-3.310576">
        <ele>905.68</ele>
        <time>2022-04-17T10:33:37+00:00</time>
      </trkpt>
      <trkpt lat="40.962418" lon="-3.310576">
        <ele>904.72</ele>
        <time>2022-04-17T10:33:38+00:00</time>
      </trkpt>
      <trkpt lat="40.962289" lon="-3.310576">
        <ele>903.76</ele>
        <time>2022-04-17T10:33:39+00:00</time>
      </trkpt>
      <trkpt lat="40.962139" lon="-3.310554">
        <ele>902.80</ele>
        <time>2022-04-17T10:33:40+00:00</time>
      </trkpt>
      <trkpt lat="40.961860" lon="-3.310511">
        <ele>900.87</ele>
        <time>2022-04-17T10:33:42+00:00</time>
      </trkpt>
      <trkpt lat="40.961688" lon="-3.310554">
        <ele>900.39</ele>
        <time>2022-04-17T10:33:43+00:00</time>
      </trkpt>
      <trkpt lat="40.960250" lon="-3.310897">
        <ele>891.26</ele>
        <time>2022-04-17T10:33:51+00:00</time>
      </trkpt>
      <trkpt lat="40.959864" lon="-3.310940">
        <ele>888.38</ele>
        <time>2022-04-17T10:33:54+00:00</time>
      </trkpt>
      <trkpt lat="40.959735" lon="-3.310919">
        <ele>887.90</ele>
        <time>2022-04-17T10:33:55+00:00</time>
      </trkpt>
      <trkpt lat="40.959585" lon="-3.310876">
        <ele>887.90</ele>
        <time>2022-04-17T10:33:56+00:00</time>
      </trkpt>
      <trkpt lat="40.958319" lon="-3.310211">
        <ele>887.90</ele>
        <time>2022-04-17T10:34:04+00:00</time>
      </trkpt>
      <trkpt lat="40.958062" lon="-3.310125">
        <ele>889.34</ele>
        <time>2022-04-17T10:34:06+00:00</time>
      </trkpt>
      <trkpt lat="40.957911" lon="-3.310103">
        <ele>889.82</ele>
        <time>2022-04-17T10:34:07+00:00</time>
      </trkpt>
      <trkpt lat="40.957783" lon="-3.310103">
        <ele>890.78</ele>
        <time>2022-04-17T10:34:08+00:00</time>
      </trkpt>
      <trkpt lat="40.957675" lon="-3.310146">
        <ele>891.26</ele>
        <time>2022-04-17T10:34:09+00:00</time>
      </trkpt>
      <trkpt lat="40.957547" lon="-3.310232">
        <ele>891.74</ele>
        <time>2022-04-17T10:34:10+00:00</time>
      </trkpt>
      <trkpt lat="40.957418" lon="-3.310339">
        <ele>892.22</ele>
        <time>2022-04-17T10:34:11+00:00</time>
      </trkpt>
      <trkpt lat="40.956710" lon="-3.311133">
        <ele>894.15</ele>
        <time>2022-04-17T10:34:17+00:00</time>
      </trkpt>
      <trkpt lat="40.956624" lon="-3.311262">
        <ele>894.15</ele>
        <time>2022-04-17T10:34:18+00:00</time>
      </trkpt>
      <trkpt lat="40.956603" lon="-3.311434">
        <ele>894.15</ele>
        <time>2022-04-17T10:34:19+00:00</time>
      </trkpt>
      <trkpt lat="40.956603" lon="-3.311605">
        <ele>894.15</ele>
        <time>2022-04-17T10:34:20+00:00</time>
      </trkpt>
      <trkpt lat="40.956581" lon="-3.311777">
        <ele>894.15</ele>
        <time>2022-04-17T10:34:21+00:00</time>
      </trkpt>
      <trkpt lat="40.956538" lon="-3.311970">
        <ele>894.15</ele>
        <time>2022-04-17T10:34:22+00:00</time>
      </trkpt>
      <trkpt lat="40.956474" lon="-3.312120">
        <ele>894.63</ele>
        <time>2022-04-17T10:34:23+00:00</time>
      </trkpt>
      <trkpt lat="40.956367" lon="-3.312271">
        <ele>894.63</ele>
        <time>2022-04-17T10:34:24+00:00</time>
      </trkpt>
      <trkpt lat="40.956259" lon="-3.312464">
        <ele>895.11</ele>
        <time>2022-04-17T10:34:25+00:00</time>
      </trkpt>
      <trkpt lat="40.955658" lon="-3.313601">
        <ele>892.70</ele>
        <time>2022-04-17T10:34:32+00:00</time>
      </trkpt>
      <trkpt lat="40.955616" lon="-3.313708">
        <ele>892.22</ele>
        <time>2022-04-17T10:34:33+00:00</time>
      </trkpt>
      <trkpt lat="40.955551" lon="-3.313773">
        <ele>891.74</ele>
        <time>2022-04-17T10:34:34+00:00</time>
      </trkpt>
      <trkpt lat="40.955465" lon="-3.313794">
        <ele>891.74</ele>
        <time>2022-04-17T10:34:35+00:00</time>
      </trkpt>
      <trkpt lat="40.955401" lon="-3.313773">
        <ele>891.26</ele>
        <time>2022-04-17T10:34:36+00:00</time>
      </trkpt>
      <trkpt lat="40.955337" lon="-3.313708">
        <ele>891.26</ele>
        <time>2022-04-17T10:34:37+00:00</time>
      </trkpt>
      <trkpt lat="40.955251" lon="-3.313601">
        <ele>890.78</ele>
        <time>2022-04-17T10:34:38+00:00</time>
      </trkpt>
      <trkpt lat="40.955186" lon="-3.313451">
        <ele>890.78</ele>
        <time>2022-04-17T10:34:39+00:00</time>
      </trkpt>
      <trkpt lat="40.955101" lon="-3.313322">
        <ele>890.78</ele>
        <time>2022-04-17T10:34:40+00:00</time>
      </trkpt>
      <trkpt lat="40.955015" lon="-3.313236">
        <ele>890.30</ele>
        <time>2022-04-17T10:34:41+00:00</time>
      </trkpt>
      <trkpt lat="40.954929" lon="-3.313172">
        <ele>890.30</ele>
        <time>2022-04-17T10:34:42+00:00</time>
      </trkpt>
      <trkpt lat="40.954822" lon="-3.313172">
        <ele>890.30</ele>
        <time>2022-04-17T10:34:43+00:00</time>
      </trkpt>
      <trkpt lat="40.954671" lon="-3.313193">
        <ele>890.30</ele>
        <time>2022-04-17T10:34:44+00:00</time>
      </trkpt>
      <trkpt lat="40.954521" lon="-3.313215">
        <ele>890.30</ele>
        <time>2022-04-17T10:34:45+00:00</time>
      </trkpt>
      <trkpt lat="40.954350" lon="-3.313172">
        <ele>890.30</ele>
        <time>2022-04-17T10:34:46+00:00</time>
      </trkpt>
      <trkpt lat="40.954178" lon="-3.313108">
        <ele>890.30</ele>
        <time>2022-04-17T10:34:47+00:00</time>
      </trkpt>
      <trkpt lat="40.954049" lon="-3.313043">
        <ele>890.30</ele>
        <time>2022-04-17T10:34:48+00:00</time>
      </trkpt>
      <trkpt lat="40.953899" lon="-3.312914">
        <ele>890.30</ele>
        <time>2022-04-17T10:34:49+00:00</time>
      </trkpt>
      <trkpt lat="40.953770" lon="-3.312807">
        <ele>890.30</ele>
        <time>2022-04-17T10:34:50+00:00</time>
      </trkpt>
      <trkpt lat="40.953534" lon="-3.312593">
        <ele>890.30</ele>
        <time>2022-04-17T10:34:52+00:00</time>
      </trkpt>
      <trkpt lat="40.953427" lon="-3.312507">
        <ele>890.78</ele>
        <time>2022-04-17T10:34:53+00:00</time>
      </trkpt>
      <trkpt lat="40.953320" lon="-3.312442">
        <ele>891.26</ele>
        <time>2022-04-17T10:34:54+00:00</time>
      </trkpt>
      <trkpt lat="40.953212" lon="-3.312442">
        <ele>891.26</ele>
        <time>2022-04-17T10:34:55+00:00</time>
      </trkpt>
      <trkpt lat="40.953126" lon="-3.312485">
        <ele>891.74</ele>
        <time>2022-04-17T10:34:56+00:00</time>
      </trkpt>
      <trkpt lat="40.953019" lon="-3.312528">
        <ele>891.74</ele>
        <time>2022-04-17T10:34:57+00:00</time>
      </trkpt>
      <trkpt lat="40.952933" lon="-3.312593">
        <ele>891.74</ele>
        <time>2022-04-17T10:34:58+00:00</time>
      </trkpt>
      <trkpt lat="40.952847" lon="-3.312657">
        <ele>891.74</ele>
        <time>2022-04-17T10:34:59+00:00</time>
      </trkpt>
      <trkpt lat="40.952762" lon="-3.312635">
        <ele>891.74</ele>
        <time>2022-04-17T10:35:00+00:00</time>
      </trkpt>
      <trkpt lat="40.952676" lon="-3.312571">
        <ele>891.74</ele>
        <time>2022-04-17T10:35:01+00:00</time>
      </trkpt>
      <trkpt lat="40.952547" lon="-3.312485">
        <ele>892.22</ele>
        <time>2022-04-17T10:35:02+00:00</time>
      </trkpt>
      <trkpt lat="40.952440" lon="-3.312399">
        <ele>892.70</ele>
        <time>2022-04-17T10:35:03+00:00</time>
      </trkpt>
      <trkpt lat="40.952332" lon="-3.312292">
        <ele>893.18</ele>
        <time>2022-04-17T10:35:04+00:00</time>
      </trkpt>
      <trkpt lat="40.952225" lon="-3.312249">
        <ele>894.15</ele>
        <time>2022-04-17T10:35:05+00:00</time>
      </trkpt>
      <trkpt lat="40.952118" lon="-3.312206">
        <ele>894.63</ele>
        <time>2022-04-17T10:35:06+00:00</time>
      </trkpt>
      <trkpt lat="40.951989" lon="-3.312185">
        <ele>895.11</ele>
        <time>2022-04-17T10:35:07+00:00</time>
      </trkpt>
      <trkpt lat="40.951839" lon="-3.312228">
        <ele>896.07</ele>
        <time>2022-04-17T10:35:08+00:00</time>
      </trkpt>
      <trkpt lat="40.951710" lon="-3.312271">
        <ele>896.55</ele>
        <time>2022-04-17T10:35:09+00:00</time>
      </trkpt>
      <trkpt lat="40.951581" lon="-3.312292">
        <ele>897.51</ele>
        <time>2022-04-17T10:35:10+00:00</time>
      </trkpt>
      <trkpt lat="40.951496" lon="-3.312357">
        <ele>897.99</ele>
        <time>2022-04-17T10:35:11+00:00</time>
      </trkpt>
      <trkpt lat="40.951410" lon="-3.312442">
        <ele>898.47</ele>
        <time>2022-04-17T10:35:12+00:00</time>
      </trkpt>
      <trkpt lat="40.951367" lon="-3.312571">
        <ele>898.95</ele>
        <time>2022-04-17T10:35:13+00:00</time>
      </trkpt>
      <trkpt lat="40.951303" lon="-3.312743">
        <ele>899.43</ele>
        <time>2022-04-17T10:35:14+00:00</time>
      </trkpt>
      <trkpt lat="40.951238" lon="-3.312914">
        <ele>899.43</ele>
        <time>2022-04-17T10:35:15+00:00</time>
      </trkpt>
      <trkpt lat="40.951195" lon="-3.313086">
        <ele>899.91</ele>
        <time>2022-04-17T10:35:16+00:00</time>
      </trkpt>
      <trkpt lat="40.951174" lon="-3.313279">
        <ele>899.91</ele>
        <time>2022-04-17T10:35:17+00:00</time>
      </trkpt>
      <trkpt lat="40.951195" lon="-3.313494">
        <ele>899.91</ele>
        <time>2022-04-17T10:35:18+00:00</time>
      </trkpt>
      <trkpt lat="40.951195" lon="-3.313730">
        <ele>899.91</ele>
        <time>2022-04-17T10:35:19+00:00</time>
      </trkpt>
      <trkpt lat="40.951303" lon="-3.314524">
        <ele>897.51</ele>
        <time>2022-04-17T10:35:23+00:00</time>
      </trkpt>
      <trkpt lat="40.951345" lon="-3.314674">
        <ele>896.55</ele>
        <time>2022-04-17T10:35:24+00:00</time>
      </trkpt>
      <trkpt lat="40.951388" lon="-3.314824">
        <ele>895.59</ele>
        <time>2022-04-17T10:35:25+00:00</time>
      </trkpt>
      <trkpt lat="40.951431" lon="-3.315060">
        <ele>893.18</ele>
        <time>2022-04-17T10:35:27+00:00</time>
      </trkpt>
      <trkpt lat="40.951410" lon="-3.315146">
        <ele>891.74</ele>
        <time>2022-04-17T10:35:28+00:00</time>
      </trkpt>
      <trkpt lat="40.951367" lon="-3.315253">
        <ele>890.78</ele>
        <time>2022-04-17T10:35:29+00:00</time>
      </trkpt>
      <trkpt lat="40.951281" lon="-3.315382">
        <ele>889.82</ele>
        <time>2022-04-17T10:35:30+00:00</time>
      </trkpt>
      <trkpt lat="40.951217" lon="-3.315511">
        <ele>888.86</ele>
        <time>2022-04-17T10:35:31+00:00</time>
      </trkpt>
      <trkpt lat="40.951131" lon="-3.315597">
        <ele>887.90</ele>
        <time>2022-04-17T10:35:32+00:00</time>
      </trkpt>
      <trkpt lat="40.951045" lon="-3.315640">
        <ele>886.45</ele>
        <time>2022-04-17T10:35:33+00:00</time>
      </trkpt>
      <trkpt lat="40.950959" lon="-3.315661">
        <ele>885.49</ele>
        <time>2022-04-17T10:35:34+00:00</time>
      </trkpt>
      <trkpt lat="40.950852" lon="-3.315704">
        <ele>884.53</ele>
        <time>2022-04-17T10:35:35+00:00</time>
      </trkpt>
      <trkpt lat="40.950101" lon="-3.315940">
        <ele>875.88</ele>
        <time>2022-04-17T10:35:43+00:00</time>
      </trkpt>
      <trkpt lat="40.950037" lon="-3.315961">
        <ele>875.40</ele>
        <time>2022-04-17T10:35:44+00:00</time>
      </trkpt>
      <trkpt lat="40.949972" lon="-3.315918">
        <ele>874.44</ele>
        <time>2022-04-17T10:35:45+00:00</time>
      </trkpt>
      <trkpt lat="40.949951" lon="-3.315854">
        <ele>873.96</ele>
        <time>2022-04-17T10:35:46+00:00</time>
      </trkpt>
      <trkpt lat="40.949929" lon="-3.315747">
        <ele>873.00</ele>
        <time>2022-04-17T10:35:47+00:00</time>
      </trkpt>
      <trkpt lat="40.949908" lon="-3.315640">
        <ele>872.03</ele>
        <time>2022-04-17T10:35:48+00:00</time>
      </trkpt>
      <trkpt lat="40.949908" lon="-3.315575">
        <ele>871.07</ele>
        <time>2022-04-17T10:35:49+00:00</time>
      </trkpt>
      <trkpt lat="40.949951" lon="-3.315511">
        <ele>870.59</ele>
        <time>2022-04-17T10:35:50+00:00</time>
      </trkpt>
      <trkpt lat="40.950015" lon="-3.315468">
        <ele>869.63</ele>
        <time>2022-04-17T10:35:51+00:00</time>
      </trkpt>
      <trkpt lat="40.950079" lon="-3.315404">
        <ele>869.15</ele>
        <time>2022-04-17T10:35:52+00:00</time>
      </trkpt>
      <trkpt lat="40.950165" lon="-3.315361">
        <ele>868.19</ele>
        <time>2022-04-17T10:35:53+00:00</time>
      </trkpt>
      <trkpt lat="40.950444" lon="-3.315167">
        <ele>865.31</ele>
        <time>2022-04-17T10:35:57+00:00</time>
      </trkpt>
      <trkpt lat="40.950466" lon="-3.315125">
        <ele>864.34</ele>
        <time>2022-04-17T10:35:58+00:00</time>
      </trkpt>
      <trkpt lat="40.950444" lon="-3.315039">
        <ele>863.86</ele>
        <time>2022-04-17T10:35:59+00:00</time>
      </trkpt>
      <trkpt lat="40.950423" lon="-3.314974">
        <ele>862.90</ele>
        <time>2022-04-17T10:36:00+00:00</time>
      </trkpt>
      <trkpt lat="40.950380" lon="-3.314931">
        <ele>862.42</ele>
        <time>2022-04-17T10:36:01+00:00</time>
      </trkpt>
      <trkpt lat="40.950273" lon="-3.314931">
        <ele>861.46</ele>
        <time>2022-04-17T10:36:02+00:00</time>
      </trkpt>
      <trkpt lat="40.950144" lon="-3.314910">
        <ele>860.50</ele>
        <time>2022-04-17T10:36:03+00:00</time>
      </trkpt>
      <trkpt lat="40.950015" lon="-3.314910">
        <ele>859.54</ele>
        <time>2022-04-17T10:36:04+00:00</time>
      </trkpt>
      <trkpt lat="40.949779" lon="-3.314910">
        <ele>857.62</ele>
        <time>2022-04-17T10:36:06+00:00</time>
      </trkpt>
      <trkpt lat="40.949650" lon="-3.314931">
        <ele>856.65</ele>
        <time>2022-04-17T10:36:07+00:00</time>
      </trkpt>
      <trkpt lat="40.948856" lon="-3.315318">
        <ele>848.48</ele>
        <time>2022-04-17T10:36:14+00:00</time>
      </trkpt>
      <trkpt lat="40.948771" lon="-3.315404">
        <ele>847.04</ele>
        <time>2022-04-17T10:36:15+00:00</time>
      </trkpt>
      <trkpt lat="40.948685" lon="-3.315511">
        <ele>846.08</ele>
        <time>2022-04-17T10:36:16+00:00</time>
      </trkpt>
      <trkpt lat="40.948599" lon="-3.315640">
        <ele>844.64</ele>
        <time>2022-04-17T10:36:17+00:00</time>
      </trkpt>
      <trkpt lat="40.948534" lon="-3.315747">
        <ele>843.68</ele>
        <time>2022-04-17T10:36:18+00:00</time>
      </trkpt>
      <trkpt lat="40.948341" lon="-3.316069">
        <ele>840.79</ele>
        <time>2022-04-17T10:36:21+00:00</time>
      </trkpt>
      <trkpt lat="40.948320" lon="-3.316219">
        <ele>839.83</ele>
        <time>2022-04-17T10:36:22+00:00</time>
      </trkpt>
      <trkpt lat="40.948320" lon="-3.316391">
        <ele>838.87</ele>
        <time>2022-04-17T10:36:23+00:00</time>
      </trkpt>
      <trkpt lat="40.948298" lon="-3.316562">
        <ele>837.91</ele>
        <time>2022-04-17T10:36:24+00:00</time>
      </trkpt>
      <trkpt lat="40.948298" lon="-3.316712">
        <ele>836.47</ele>
        <time>2022-04-17T10:36:25+00:00</time>
      </trkpt>
      <trkpt lat="40.948320" lon="-3.317077">
        <ele>834.06</ele>
        <time>2022-04-17T10:36:28+00:00</time>
      </trkpt>
      <trkpt lat="40.948341" lon="-3.317163">
        <ele>833.10</ele>
        <time>2022-04-17T10:36:29+00:00</time>
      </trkpt>
      <trkpt lat="40.948406" lon="-3.317227">
        <ele>832.14</ele>
        <time>2022-04-17T10:36:30+00:00</time>
      </trkpt>
      <trkpt lat="40.948470" lon="-3.317249">
        <ele>831.66</ele>
        <time>2022-04-17T10:36:31+00:00</time>
      </trkpt>
      <trkpt lat="40.948577" lon="-3.317249">
        <ele>830.22</ele>
        <time>2022-04-17T10:36:32+00:00</time>
      </trkpt>
      <trkpt lat="40.948706" lon="-3.317227">
        <ele>829.26</ele>
        <time>2022-04-17T10:36:33+00:00</time>
      </trkpt>
      <trkpt lat="40.948835" lon="-3.317206">
        <ele>828.30</ele>
        <time>2022-04-17T10:36:34+00:00</time>
      </trkpt>
      <trkpt lat="40.949414" lon="-3.317163">
        <ele>821.57</ele>
        <time>2022-04-17T10:36:41+00:00</time>
      </trkpt>
      <trkpt lat="40.949457" lon="-3.317184">
        <ele>820.60</ele>
        <time>2022-04-17T10:36:42+00:00</time>
      </trkpt>
      <trkpt lat="40.950015" lon="-3.317463">
        <ele>810.03</ele>
        <time>2022-04-17T10:36:52+00:00</time>
      </trkpt>
      <trkpt lat="40.950165" lon="-3.317592">
        <ele>800.90</ele>
        <time>2022-04-17T10:37:02+00:00</time>
      </trkpt>
      <trkpt lat="40.950165" lon="-3.317592">
        <ele>800.42</ele>
        <time>2022-04-17T10:37:34+00:00</time>
      </trkpt>
      <trkpt lat="40.950573" lon="-3.318000">
        <ele>785.04</ele>
        <time>2022-04-17T10:41:12+00:00</time>
      </trkpt>
      <trkpt lat="40.950723" lon="-3.318129">
        <ele>788.40</ele>
        <time>2022-04-17T10:41:15+00:00</time>
      </trkpt>
      <trkpt lat="40.950702" lon="-3.318300">
        <ele>788.40</ele>
        <time>2022-04-17T10:41:16+00:00</time>
      </trkpt>
      <trkpt lat="40.950637" lon="-3.318429">
        <ele>791.77</ele>
        <time>2022-04-17T10:41:17+00:00</time>
      </trkpt>
      <trkpt lat="40.950552" lon="-3.318515">
        <ele>794.65</ele>
        <time>2022-04-17T10:41:18+00:00</time>
      </trkpt>
      <trkpt lat="40.950165" lon="-3.318880">
        <ele>808.59</ele>
        <time>2022-04-17T10:41:23+00:00</time>
      </trkpt>
      <trkpt lat="40.950079" lon="-3.318923">
        <ele>810.03</ele>
        <time>2022-04-17T10:41:24+00:00</time>
      </trkpt>
      <trkpt lat="40.949994" lon="-3.318944">
        <ele>810.99</ele>
        <time>2022-04-17T10:41:25+00:00</time>
      </trkpt>
      <trkpt lat="40.949500" lon="-3.319116">
        <ele>813.88</ele>
        <time>2022-04-17T10:41:30+00:00</time>
      </trkpt>
      <trkpt lat="40.949371" lon="-3.319116">
        <ele>814.36</ele>
        <time>2022-04-17T10:41:31+00:00</time>
      </trkpt>
      <trkpt lat="40.948427" lon="-3.319116">
        <ele>821.09</ele>
        <time>2022-04-17T10:41:38+00:00</time>
      </trkpt>
      <trkpt lat="40.948298" lon="-3.319137">
        <ele>822.05</ele>
        <time>2022-04-17T10:41:39+00:00</time>
      </trkpt>
      <trkpt lat="40.948020" lon="-3.319266">
        <ele>824.93</ele>
        <time>2022-04-17T10:41:42+00:00</time>
      </trkpt>
      <trkpt lat="40.947977" lon="-3.319287">
        <ele>825.41</ele>
        <time>2022-04-17T10:41:43+00:00</time>
      </trkpt>
      <trkpt lat="40.947934" lon="-3.319330">
        <ele>826.37</ele>
        <time>2022-04-17T10:41:44+00:00</time>
      </trkpt>
      <trkpt lat="40.947912" lon="-3.319395">
        <ele>826.85</ele>
        <time>2022-04-17T10:41:45+00:00</time>
      </trkpt>
      <trkpt lat="40.947977" lon="-3.319438">
        <ele>827.33</ele>
        <time>2022-04-17T10:41:46+00:00</time>
      </trkpt>
      <trkpt lat="40.948041" lon="-3.319480">
        <ele>828.30</ele>
        <time>2022-04-17T10:41:47+00:00</time>
      </trkpt>
      <trkpt lat="40.948127" lon="-3.319459">
        <ele>828.78</ele>
        <time>2022-04-17T10:41:48+00:00</time>
      </trkpt>
      <trkpt lat="40.948234" lon="-3.319438">
        <ele>828.78</ele>
        <time>2022-04-17T10:41:49+00:00</time>
      </trkpt>
      <trkpt lat="40.948363" lon="-3.319438">
        <ele>829.26</ele>
        <time>2022-04-17T10:41:50+00:00</time>
      </trkpt>
      <trkpt lat="40.948470" lon="-3.319416">
        <ele>828.78</ele>
        <time>2022-04-17T10:41:51+00:00</time>
      </trkpt>
      <trkpt lat="40.948813" lon="-3.319523">
        <ele>828.30</ele>
        <time>2022-04-17T10:41:54+00:00</time>
      </trkpt>
      <trkpt lat="40.948921" lon="-3.319566">
        <ele>827.81</ele>
        <time>2022-04-17T10:41:55+00:00</time>
      </trkpt>
      <trkpt lat="40.949328" lon="-3.319652">
        <ele>828.30</ele>
        <time>2022-04-17T10:41:59+00:00</time>
      </trkpt>
      <trkpt lat="40.949393" lon="-3.319652">
        <ele>828.78</ele>
        <time>2022-04-17T10:42:00+00:00</time>
      </trkpt>
      <trkpt lat="40.949479" lon="-3.319695">
        <ele>829.74</ele>
        <time>2022-04-17T10:42:02+00:00</time>
      </trkpt>
      <trkpt lat="40.949522" lon="-3.319716">
        <ele>830.22</ele>
        <time>2022-04-17T10:42:03+00:00</time>
      </trkpt>
      <trkpt lat="40.949564" lon="-3.319759">
        <ele>831.18</ele>
        <time>2022-04-17T10:42:04+00:00</time>
      </trkpt>
      <trkpt lat="40.949586" lon="-3.319802">
        <ele>831.66</ele>
        <time>2022-04-17T10:42:05+00:00</time>
      </trkpt>
      <trkpt lat="40.949607" lon="-3.319867">
        <ele>832.62</ele>
        <time>2022-04-17T10:42:06+00:00</time>
      </trkpt>
      <trkpt lat="40.949629" lon="-3.319953">
        <ele>833.58</ele>
        <time>2022-04-17T10:42:07+00:00</time>
      </trkpt>
      <trkpt lat="40.949672" lon="-3.320038">
        <ele>835.02</ele>
        <time>2022-04-17T10:42:08+00:00</time>
      </trkpt>
      <trkpt lat="40.949693" lon="-3.320146">
        <ele>836.95</ele>
        <time>2022-04-17T10:42:09+00:00</time>
      </trkpt>
      <trkpt lat="40.949886" lon="-3.321047">
        <ele>847.04</ele>
        <time>2022-04-17T10:42:15+00:00</time>
      </trkpt>
      <trkpt lat="40.949865" lon="-3.321261">
        <ele>848.96</ele>
        <time>2022-04-17T10:42:16+00:00</time>
      </trkpt>
      <trkpt lat="40.949865" lon="-3.321476">
        <ele>850.89</ele>
        <time>2022-04-17T10:42:17+00:00</time>
      </trkpt>
      <trkpt lat="40.949843" lon="-3.321691">
        <ele>852.81</ele>
        <time>2022-04-17T10:42:18+00:00</time>
      </trkpt>
      <trkpt lat="40.949843" lon="-3.321884">
        <ele>854.25</ele>
        <time>2022-04-17T10:42:19+00:00</time>
      </trkpt>
      <trkpt lat="40.949822" lon="-3.322055">
        <ele>856.17</ele>
        <time>2022-04-17T10:42:20+00:00</time>
      </trkpt>
      <trkpt lat="40.949865" lon="-3.322206">
        <ele>858.10</ele>
        <time>2022-04-17T10:42:21+00:00</time>
      </trkpt>
      <trkpt lat="40.949886" lon="-3.322334">
        <ele>859.54</ele>
        <time>2022-04-17T10:42:22+00:00</time>
      </trkpt>
      <trkpt lat="40.949908" lon="-3.322463">
        <ele>861.46</ele>
        <time>2022-04-17T10:42:23+00:00</time>
      </trkpt>
      <trkpt lat="40.949951" lon="-3.322570">
        <ele>862.42</ele>
        <time>2022-04-17T10:42:24+00:00</time>
      </trkpt>
      <trkpt lat="40.949929" lon="-3.322721">
        <ele>863.86</ele>
        <time>2022-04-17T10:42:25+00:00</time>
      </trkpt>
      <trkpt lat="40.949908" lon="-3.322828">
        <ele>865.31</ele>
        <time>2022-04-17T10:42:26+00:00</time>
      </trkpt>
      <trkpt lat="40.949843" lon="-3.322914">
        <ele>866.27</ele>
        <time>2022-04-17T10:42:27+00:00</time>
      </trkpt>
      <trkpt lat="40.949800" lon="-3.323021">
        <ele>867.71</ele>
        <time>2022-04-17T10:42:28+00:00</time>
      </trkpt>
      <trkpt lat="40.949736" lon="-3.323085">
        <ele>868.67</ele>
        <time>2022-04-17T10:42:29+00:00</time>
      </trkpt>
      <trkpt lat="40.949672" lon="-3.323128">
        <ele>870.11</ele>
        <time>2022-04-17T10:42:30+00:00</time>
      </trkpt>
      <trkpt lat="40.949607" lon="-3.323150">
        <ele>871.07</ele>
        <time>2022-04-17T10:42:31+00:00</time>
      </trkpt>
      <trkpt lat="40.949564" lon="-3.323171">
        <ele>872.03</ele>
        <time>2022-04-17T10:42:32+00:00</time>
      </trkpt>
      <trkpt lat="40.949500" lon="-3.323107">
        <ele>873.00</ele>
        <time>2022-04-17T10:42:33+00:00</time>
      </trkpt>
      <trkpt lat="40.949436" lon="-3.323042">
        <ele>873.48</ele>
        <time>2022-04-17T10:42:34+00:00</time>
      </trkpt>
      <trkpt lat="40.949414" lon="-3.322935">
        <ele>874.44</ele>
        <time>2022-04-17T10:42:35+00:00</time>
      </trkpt>
      <trkpt lat="40.949371" lon="-3.322785">
        <ele>875.88</ele>
        <time>2022-04-17T10:42:36+00:00</time>
      </trkpt>
      <trkpt lat="40.949350" lon="-3.322592">
        <ele>876.84</ele>
        <time>2022-04-17T10:42:37+00:00</time>
      </trkpt>
      <trkpt lat="40.949071" lon="-3.321369">
        <ele>887.90</ele>
        <time>2022-04-17T10:42:44+00:00</time>
      </trkpt>
      <trkpt lat="40.949028" lon="-3.321261">
        <ele>889.34</ele>
        <time>2022-04-17T10:42:45+00:00</time>
      </trkpt>
      <trkpt lat="40.948985" lon="-3.321176">
        <ele>890.30</ele>
        <time>2022-04-17T10:42:46+00:00</time>
      </trkpt>
      <trkpt lat="40.948921" lon="-3.321133">
        <ele>891.26</ele>
        <time>2022-04-17T10:42:47+00:00</time>
      </trkpt>
      <trkpt lat="40.948856" lon="-3.321090">
        <ele>892.70</ele>
        <time>2022-04-17T10:42:48+00:00</time>
      </trkpt>
      <trkpt lat="40.948771" lon="-3.321068">
        <ele>893.18</ele>
        <time>2022-04-17T10:42:49+00:00</time>
      </trkpt>
      <trkpt lat="40.948663" lon="-3.321047">
        <ele>894.15</ele>
        <time>2022-04-17T10:42:50+00:00</time>
      </trkpt>
      <trkpt lat="40.948534" lon="-3.321025">
        <ele>895.59</ele>
        <time>2022-04-17T10:42:51+00:00</time>
      </trkpt>
      <trkpt lat="40.947268" lon="-3.320725">
        <ele>906.16</ele>
        <time>2022-04-17T10:43:00+00:00</time>
      </trkpt>
      <trkpt lat="40.946818" lon="-3.320532">
        <ele>910.01</ele>
        <time>2022-04-17T10:43:05+00:00</time>
      </trkpt>
      <trkpt lat="40.946732" lon="-3.320532">
        <ele>910.49</ele>
        <time>2022-04-17T10:43:06+00:00</time>
      </trkpt>
      <trkpt lat="40.946646" lon="-3.320553">
        <ele>910.97</ele>
        <time>2022-04-17T10:43:07+00:00</time>
      </trkpt>
      <trkpt lat="40.946539" lon="-3.320618">
        <ele>910.97</ele>
        <time>2022-04-17T10:43:08+00:00</time>
      </trkpt>
      <trkpt lat="40.946410" lon="-3.320682">
        <ele>910.97</ele>
        <time>2022-04-17T10:43:09+00:00</time>
      </trkpt>
      <trkpt lat="40.945573" lon="-3.321068">
        <ele>910.01</ele>
        <time>2022-04-17T10:43:15+00:00</time>
      </trkpt>
      <trkpt lat="40.944973" lon="-3.321497">
        <ele>907.12</ele>
        <time>2022-04-17T10:43:21+00:00</time>
      </trkpt>
      <trkpt lat="40.944887" lon="-3.321497">
        <ele>906.64</ele>
        <time>2022-04-17T10:43:22+00:00</time>
      </trkpt>
      <trkpt lat="40.944779" lon="-3.321519">
        <ele>906.16</ele>
        <time>2022-04-17T10:43:23+00:00</time>
      </trkpt>
      <trkpt lat="40.944586" lon="-3.321562">
        <ele>904.24</ele>
        <time>2022-04-17T10:43:25+00:00</time>
      </trkpt>
      <trkpt lat="40.944522" lon="-3.321583">
        <ele>903.28</ele>
        <time>2022-04-17T10:43:26+00:00</time>
      </trkpt>
      <trkpt lat="40.944436" lon="-3.321626">
        <ele>902.80</ele>
        <time>2022-04-17T10:43:27+00:00</time>
      </trkpt>
      <trkpt lat="40.944372" lon="-3.321712">
        <ele>901.84</ele>
        <time>2022-04-17T10:43:28+00:00</time>
      </trkpt>
      <trkpt lat="40.944307" lon="-3.321798">
        <ele>900.87</ele>
        <time>2022-04-17T10:43:29+00:00</time>
      </trkpt>
      <trkpt lat="40.944221" lon="-3.321905">
        <ele>900.39</ele>
        <time>2022-04-17T10:43:30+00:00</time>
      </trkpt>
      <trkpt lat="40.944179" lon="-3.322012">
        <ele>899.43</ele>
        <time>2022-04-17T10:43:31+00:00</time>
      </trkpt>
      <trkpt lat="40.944157" lon="-3.322098">
        <ele>898.95</ele>
        <time>2022-04-17T10:43:32+00:00</time>
      </trkpt>
      <trkpt lat="40.944136" lon="-3.322206">
        <ele>898.47</ele>
        <time>2022-04-17T10:43:33+00:00</time>
      </trkpt>
      <trkpt lat="40.944157" lon="-3.322334">
        <ele>897.51</ele>
        <time>2022-04-17T10:43:34+00:00</time>
      </trkpt>
      <trkpt lat="40.944179" lon="-3.322463">
        <ele>897.03</ele>
        <time>2022-04-17T10:43:35+00:00</time>
      </trkpt>
      <trkpt lat="40.944200" lon="-3.322613">
        <ele>896.55</ele>
        <time>2022-04-17T10:43:36+00:00</time>
      </trkpt>
      <trkpt lat="40.944243" lon="-3.322871">
        <ele>895.59</ele>
        <time>2022-04-17T10:43:38+00:00</time>
      </trkpt>
      <trkpt lat="40.944221" lon="-3.322957">
        <ele>895.59</ele>
        <time>2022-04-17T10:43:39+00:00</time>
      </trkpt>
      <trkpt lat="40.944157" lon="-3.323042">
        <ele>895.11</ele>
        <time>2022-04-17T10:43:40+00:00</time>
      </trkpt>
      <trkpt lat="40.944071" lon="-3.323150">
        <ele>895.11</ele>
        <time>2022-04-17T10:43:41+00:00</time>
      </trkpt>
      <trkpt lat="40.943985" lon="-3.323257">
        <ele>895.11</ele>
        <time>2022-04-17T10:43:42+00:00</time>
      </trkpt>
      <trkpt lat="40.943320" lon="-3.323793">
        <ele>895.59</ele>
        <time>2022-04-17T10:43:47+00:00</time>
      </trkpt>
      <trkpt lat="40.943192" lon="-3.323858">
        <ele>895.59</ele>
        <time>2022-04-17T10:43:48+00:00</time>
      </trkpt>
      <trkpt lat="40.942719" lon="-3.324094">
        <ele>896.07</ele>
        <time>2022-04-17T10:43:52+00:00</time>
      </trkpt>
      <trkpt lat="40.942591" lon="-3.324180">
        <ele>896.07</ele>
        <time>2022-04-17T10:43:53+00:00</time>
      </trkpt>
      <trkpt lat="40.941968" lon="-3.324759">
        <ele>897.03</ele>
        <time>2022-04-17T10:43:59+00:00</time>
      </trkpt>
      <trkpt lat="40.941926" lon="-3.324845">
        <ele>897.03</ele>
        <time>2022-04-17T10:44:00+00:00</time>
      </trkpt>
      <trkpt lat="40.941904" lon="-3.324974">
        <ele>897.03</ele>
        <time>2022-04-17T10:44:01+00:00</time>
      </trkpt>
      <trkpt lat="40.941904" lon="-3.325081">
        <ele>897.03</ele>
        <time>2022-04-17T10:44:02+00:00</time>
      </trkpt>
      <trkpt lat="40.941883" lon="-3.325188">
        <ele>896.55</ele>
        <time>2022-04-17T10:44:03+00:00</time>
      </trkpt>
      <trkpt lat="40.941947" lon="-3.325295">
        <ele>896.55</ele>
        <time>2022-04-17T10:44:04+00:00</time>
      </trkpt>
      <trkpt lat="40.942011" lon="-3.325424">
        <ele>896.07</ele>
        <time>2022-04-17T10:44:05+00:00</time>
      </trkpt>
      <trkpt lat="40.942097" lon="-3.325574">
        <ele>895.59</ele>
        <time>2022-04-17T10:44:06+00:00</time>
      </trkpt>
      <trkpt lat="40.942848" lon="-3.326626">
        <ele>895.11</ele>
        <time>2022-04-17T10:44:13+00:00</time>
      </trkpt>
      <trkpt lat="40.942977" lon="-3.326840">
        <ele>894.63</ele>
        <time>2022-04-17T10:44:15+00:00</time>
      </trkpt>
      <trkpt lat="40.943020" lon="-3.326948">
        <ele>894.63</ele>
        <time>2022-04-17T10:44:16+00:00</time>
      </trkpt>
      <trkpt lat="40.943041" lon="-3.327055">
        <ele>894.63</ele>
        <time>2022-04-17T10:44:17+00:00</time>
      </trkpt>
      <trkpt lat="40.943041" lon="-3.327184">
        <ele>894.63</ele>
        <time>2022-04-17T10:44:18+00:00</time>
      </trkpt>
      <trkpt lat="40.943020" lon="-3.327291">
        <ele>895.11</ele>
        <time>2022-04-17T10:44:19+00:00</time>
      </trkpt>
      <trkpt lat="40.942977" lon="-3.327398">
        <ele>895.11</ele>
        <time>2022-04-17T10:44:20+00:00</time>
      </trkpt>
      <trkpt lat="40.942913" lon="-3.327484">
        <ele>895.11</ele>
        <time>2022-04-17T10:44:21+00:00</time>
      </trkpt>
      <trkpt lat="40.942848" lon="-3.327527">
        <ele>894.63</ele>
        <time>2022-04-17T10:44:22+00:00</time>
      </trkpt>
      <trkpt lat="40.942762" lon="-3.327527">
        <ele>894.63</ele>
        <time>2022-04-17T10:44:23+00:00</time>
      </trkpt>
      <trkpt lat="40.942677" lon="-3.327549">
        <ele>894.63</ele>
        <time>2022-04-17T10:44:24+00:00</time>
      </trkpt>
      <trkpt lat="40.942569" lon="-3.327506">
        <ele>894.63</ele>
        <time>2022-04-17T10:44:25+00:00</time>
      </trkpt>
      <trkpt lat="40.942462" lon="-3.327463">
        <ele>894.15</ele>
        <time>2022-04-17T10:44:26+00:00</time>
      </trkpt>
      <trkpt lat="40.942355" lon="-3.327398">
        <ele>894.15</ele>
        <time>2022-04-17T10:44:27+00:00</time>
      </trkpt>
      <trkpt lat="40.941239" lon="-3.326755">
        <ele>894.63</ele>
        <time>2022-04-17T10:44:36+00:00</time>
      </trkpt>
      <trkpt lat="40.940981" lon="-3.326626">
        <ele>895.11</ele>
        <time>2022-04-17T10:44:39+00:00</time>
      </trkpt>
      <trkpt lat="40.940917" lon="-3.326647">
        <ele>895.11</ele>
        <time>2022-04-17T10:44:40+00:00</time>
      </trkpt>
      <trkpt lat="40.940831" lon="-3.326647">
        <ele>895.11</ele>
        <time>2022-04-17T10:44:41+00:00</time>
      </trkpt>
      <trkpt lat="40.940767" lon="-3.326712">
        <ele>895.11</ele>
        <time>2022-04-17T10:44:42+00:00</time>
      </trkpt>
      <trkpt lat="40.940681" lon="-3.326798">
        <ele>895.11</ele>
        <time>2022-04-17T10:44:43+00:00</time>
      </trkpt>
      <trkpt lat="40.940595" lon="-3.326905">
        <ele>895.11</ele>
        <time>2022-04-17T10:44:44+00:00</time>
      </trkpt>
      <trkpt lat="40.940187" lon="-3.327506">
        <ele>894.15</ele>
        <time>2022-04-17T10:44:49+00:00</time>
      </trkpt>
      <trkpt lat="40.940145" lon="-3.327613">
        <ele>894.15</ele>
        <time>2022-04-17T10:44:50+00:00</time>
      </trkpt>
      <trkpt lat="40.940102" lon="-3.327742">
        <ele>894.15</ele>
        <time>2022-04-17T10:44:51+00:00</time>
      </trkpt>
      <trkpt lat="40.940102" lon="-3.327870">
        <ele>894.15</ele>
        <time>2022-04-17T10:44:52+00:00</time>
      </trkpt>
      <trkpt lat="40.940123" lon="-3.328042">
        <ele>894.15</ele>
        <time>2022-04-17T10:44:53+00:00</time>
      </trkpt>
      <trkpt lat="40.940145" lon="-3.328214">
        <ele>893.66</ele>
        <time>2022-04-17T10:44:54+00:00</time>
      </trkpt>
      <trkpt lat="40.940359" lon="-3.329265">
        <ele>893.18</ele>
        <time>2022-04-17T10:45:00+00:00</time>
      </trkpt>
      <trkpt lat="40.940423" lon="-3.329372">
        <ele>893.18</ele>
        <time>2022-04-17T10:45:01+00:00</time>
      </trkpt>
      <trkpt lat="40.940488" lon="-3.329480">
        <ele>893.66</ele>
        <time>2022-04-17T10:45:02+00:00</time>
      </trkpt>
      <trkpt lat="40.940595" lon="-3.329673">
        <ele>893.18</ele>
        <time>2022-04-17T10:45:04+00:00</time>
      </trkpt>
      <trkpt lat="40.940617" lon="-3.329759">
        <ele>893.18</ele>
        <time>2022-04-17T10:45:05+00:00</time>
      </trkpt>
      <trkpt lat="40.940617" lon="-3.329823">
        <ele>893.18</ele>
        <time>2022-04-17T10:45:06+00:00</time>
      </trkpt>
      <trkpt lat="40.940595" lon="-3.329887">
        <ele>893.18</ele>
        <time>2022-04-17T10:45:07+00:00</time>
      </trkpt>
      <trkpt lat="40.940552" lon="-3.329952">
        <ele>893.18</ele>
        <time>2022-04-17T10:45:08+00:00</time>
      </trkpt>
      <trkpt lat="40.940509" lon="-3.329973">
        <ele>893.18</ele>
        <time>2022-04-17T10:45:09+00:00</time>
      </trkpt>
      <trkpt lat="40.940402" lon="-3.329995">
        <ele>893.18</ele>
        <time>2022-04-17T10:45:10+00:00</time>
      </trkpt>
      <trkpt lat="40.940316" lon="-3.330016">
        <ele>893.18</ele>
        <time>2022-04-17T10:45:11+00:00</time>
      </trkpt>
      <trkpt lat="40.940209" lon="-3.330059">
        <ele>893.66</ele>
        <time>2022-04-17T10:45:12+00:00</time>
      </trkpt>
      <trkpt lat="40.940145" lon="-3.330145">
        <ele>894.15</ele>
        <time>2022-04-17T10:45:13+00:00</time>
      </trkpt>
      <trkpt lat="40.940080" lon="-3.330274">
        <ele>894.63</ele>
        <time>2022-04-17T10:45:14+00:00</time>
      </trkpt>
      <trkpt lat="40.940016" lon="-3.330424">
        <ele>895.59</ele>
        <time>2022-04-17T10:45:15+00:00</time>
      </trkpt>
      <trkpt lat="40.939973" lon="-3.330574">
        <ele>896.07</ele>
        <time>2022-04-17T10:45:16+00:00</time>
      </trkpt>
      <trkpt lat="40.939801" lon="-3.330896">
        <ele>897.51</ele>
        <time>2022-04-17T10:45:19+00:00</time>
      </trkpt>
      <trkpt lat="40.939758" lon="-3.330960">
        <ele>897.51</ele>
        <time>2022-04-17T10:45:20+00:00</time>
      </trkpt>
      <trkpt lat="40.939715" lon="-3.330982">
        <ele>897.99</ele>
        <time>2022-04-17T10:45:21+00:00</time>
      </trkpt>
      <trkpt lat="40.939651" lon="-3.330960">
        <ele>897.99</ele>
        <time>2022-04-17T10:45:22+00:00</time>
      </trkpt>
      <trkpt lat="40.939565" lon="-3.330939">
        <ele>897.99</ele>
        <time>2022-04-17T10:45:23+00:00</time>
      </trkpt>
      <trkpt lat="40.939501" lon="-3.330853">
        <ele>898.47</ele>
        <time>2022-04-17T10:45:24+00:00</time>
      </trkpt>
      <trkpt lat="40.939436" lon="-3.330767">
        <ele>898.47</ele>
        <time>2022-04-17T10:45:25+00:00</time>
      </trkpt>
      <trkpt lat="40.939351" lon="-3.330638">
        <ele>898.47</ele>
        <time>2022-04-17T10:45:26+00:00</time>
      </trkpt>
      <trkpt lat="40.939265" lon="-3.330531">
        <ele>898.95</ele>
        <time>2022-04-17T10:45:27+00:00</time>
      </trkpt>
      <trkpt lat="40.939136" lon="-3.330338">
        <ele>898.95</ele>
        <time>2022-04-17T10:45:29+00:00</time>
      </trkpt>
      <trkpt lat="40.939072" lon="-3.330317">
        <ele>898.95</ele>
        <time>2022-04-17T10:45:30+00:00</time>
      </trkpt>
      <trkpt lat="40.938986" lon="-3.330338">
        <ele>898.95</ele>
        <time>2022-04-17T10:45:31+00:00</time>
      </trkpt>
      <trkpt lat="40.938964" lon="-3.330402">
        <ele>899.43</ele>
        <time>2022-04-17T10:45:32+00:00</time>
      </trkpt>
      <trkpt lat="40.938921" lon="-3.330510">
        <ele>899.43</ele>
        <time>2022-04-17T10:45:33+00:00</time>
      </trkpt>
      <trkpt lat="40.938879" lon="-3.330638">
        <ele>899.43</ele>
        <time>2022-04-17T10:45:34+00:00</time>
      </trkpt>
      <trkpt lat="40.938836" lon="-3.330724">
        <ele>898.95</ele>
        <time>2022-04-17T10:45:35+00:00</time>
      </trkpt>
      <trkpt lat="40.938771" lon="-3.330789">
        <ele>898.95</ele>
        <time>2022-04-17T10:45:36+00:00</time>
      </trkpt>
      <trkpt lat="40.938728" lon="-3.330832">
        <ele>898.47</ele>
        <time>2022-04-17T10:45:37+00:00</time>
      </trkpt>
      <trkpt lat="40.938664" lon="-3.330789">
        <ele>898.47</ele>
        <time>2022-04-17T10:45:38+00:00</time>
      </trkpt>
      <trkpt lat="40.938600" lon="-3.330767">
        <ele>897.99</ele>
        <time>2022-04-17T10:45:39+00:00</time>
      </trkpt>
      <trkpt lat="40.938514" lon="-3.330703">
        <ele>897.99</ele>
        <time>2022-04-17T10:45:40+00:00</time>
      </trkpt>
      <trkpt lat="40.938406" lon="-3.330660">
        <ele>898.47</ele>
        <time>2022-04-17T10:45:41+00:00</time>
      </trkpt>
      <trkpt lat="40.938299" lon="-3.330596">
        <ele>898.47</ele>
        <time>2022-04-17T10:45:42+00:00</time>
      </trkpt>
      <trkpt lat="40.938192" lon="-3.330553">
        <ele>898.47</ele>
        <time>2022-04-17T10:45:43+00:00</time>
      </trkpt>
      <trkpt lat="40.938085" lon="-3.330553">
        <ele>898.95</ele>
        <time>2022-04-17T10:45:44+00:00</time>
      </trkpt>
      <trkpt lat="40.937977" lon="-3.330574">
        <ele>899.43</ele>
        <time>2022-04-17T10:45:45+00:00</time>
      </trkpt>
      <trkpt lat="40.937891" lon="-3.330617">
        <ele>899.91</ele>
        <time>2022-04-17T10:45:46+00:00</time>
      </trkpt>
      <trkpt lat="40.937806" lon="-3.330638">
        <ele>900.39</ele>
        <time>2022-04-17T10:45:47+00:00</time>
      </trkpt>
      <trkpt lat="40.937720" lon="-3.330660">
        <ele>900.39</ele>
        <time>2022-04-17T10:45:48+00:00</time>
      </trkpt>
      <trkpt lat="40.937655" lon="-3.330596">
        <ele>900.87</ele>
        <time>2022-04-17T10:45:49+00:00</time>
      </trkpt>
      <trkpt lat="40.937613" lon="-3.330510">
        <ele>901.35</ele>
        <time>2022-04-17T10:45:50+00:00</time>
      </trkpt>
      <trkpt lat="40.937548" lon="-3.330424">
        <ele>901.84</ele>
        <time>2022-04-17T10:45:51+00:00</time>
      </trkpt>
      <trkpt lat="40.937462" lon="-3.330295">
        <ele>901.84</ele>
        <time>2022-04-17T10:45:52+00:00</time>
      </trkpt>
      <trkpt lat="40.937398" lon="-3.330209">
        <ele>902.32</ele>
        <time>2022-04-17T10:45:53+00:00</time>
      </trkpt>
      <trkpt lat="40.937355" lon="-3.330123">
        <ele>902.80</ele>
        <time>2022-04-17T10:45:54+00:00</time>
      </trkpt>
      <trkpt lat="40.937291" lon="-3.330102">
        <ele>902.80</ele>
        <time>2022-04-17T10:45:55+00:00</time>
      </trkpt>
      <trkpt lat="40.937226" lon="-3.330145">
        <ele>903.28</ele>
        <time>2022-04-17T10:45:56+00:00</time>
      </trkpt>
      <trkpt lat="40.937162" lon="-3.330209">
        <ele>903.28</ele>
        <time>2022-04-17T10:45:57+00:00</time>
      </trkpt>
      <trkpt lat="40.937140" lon="-3.330317">
        <ele>903.28</ele>
        <time>2022-04-17T10:45:58+00:00</time>
      </trkpt>
      <trkpt lat="40.937076" lon="-3.330488">
        <ele>903.28</ele>
        <time>2022-04-17T10:45:59+00:00</time>
      </trkpt>
      <trkpt lat="40.937033" lon="-3.330660">
        <ele>902.80</ele>
        <time>2022-04-17T10:46:00+00:00</time>
      </trkpt>
      <trkpt lat="40.936883" lon="-3.331046">
        <ele>901.84</ele>
        <time>2022-04-17T10:46:03+00:00</time>
      </trkpt>
      <trkpt lat="40.936797" lon="-3.331111">
        <ele>901.35</ele>
        <time>2022-04-17T10:46:04+00:00</time>
      </trkpt>
      <trkpt lat="40.936711" lon="-3.331175">
        <ele>900.87</ele>
        <time>2022-04-17T10:46:05+00:00</time>
      </trkpt>
      <trkpt lat="40.936647" lon="-3.331261">
        <ele>900.39</ele>
        <time>2022-04-17T10:46:06+00:00</time>
      </trkpt>
      <trkpt lat="40.936561" lon="-3.331325">
        <ele>899.91</ele>
        <time>2022-04-17T10:46:07+00:00</time>
      </trkpt>
      <trkpt lat="40.936518" lon="-3.331411">
        <ele>899.43</ele>
        <time>2022-04-17T10:46:08+00:00</time>
      </trkpt>
      <trkpt lat="40.936475" lon="-3.331497">
        <ele>898.95</ele>
        <time>2022-04-17T10:46:09+00:00</time>
      </trkpt>
      <trkpt lat="40.936454" lon="-3.331626">
        <ele>897.99</ele>
        <time>2022-04-17T10:46:10+00:00</time>
      </trkpt>
      <trkpt lat="40.936497" lon="-3.331776">
        <ele>897.03</ele>
        <time>2022-04-17T10:46:11+00:00</time>
      </trkpt>
      <trkpt lat="40.936518" lon="-3.331969">
        <ele>896.55</ele>
        <time>2022-04-17T10:46:12+00:00</time>
      </trkpt>
      <trkpt lat="40.936819" lon="-3.333557">
        <ele>895.11</ele>
        <time>2022-04-17T10:46:20+00:00</time>
      </trkpt>
      <trkpt lat="40.936969" lon="-3.334115">
        <ele>896.07</ele>
        <time>2022-04-17T10:46:24+00:00</time>
      </trkpt>
      <trkpt lat="40.936947" lon="-3.334222">
        <ele>896.07</ele>
        <time>2022-04-17T10:46:25+00:00</time>
      </trkpt>
      <trkpt lat="40.936926" lon="-3.334329">
        <ele>896.07</ele>
        <time>2022-04-17T10:46:26+00:00</time>
      </trkpt>
      <trkpt lat="40.936862" lon="-3.334458">
        <ele>896.07</ele>
        <time>2022-04-17T10:46:27+00:00</time>
      </trkpt>
      <trkpt lat="40.936776" lon="-3.334565">
        <ele>896.07</ele>
        <time>2022-04-17T10:46:28+00:00</time>
      </trkpt>
      <trkpt lat="40.936711" lon="-3.334694">
        <ele>896.07</ele>
        <time>2022-04-17T10:46:29+00:00</time>
      </trkpt>
      <trkpt lat="40.936518" lon="-3.335016">
        <ele>895.11</ele>
        <time>2022-04-17T10:46:32+00:00</time>
      </trkpt>
      <trkpt lat="40.936497" lon="-3.335102">
        <ele>894.63</ele>
        <time>2022-04-17T10:46:33+00:00</time>
      </trkpt>
      <trkpt lat="40.936497" lon="-3.335187">
        <ele>894.63</ele>
        <time>2022-04-17T10:46:34+00:00</time>
      </trkpt>
      <trkpt lat="40.936540" lon="-3.335252">
        <ele>894.15</ele>
        <time>2022-04-17T10:46:35+00:00</time>
      </trkpt>
      <trkpt lat="40.936583" lon="-3.335381">
        <ele>893.66</ele>
        <time>2022-04-17T10:46:36+00:00</time>
      </trkpt>
      <trkpt lat="40.936647" lon="-3.335509">
        <ele>893.66</ele>
        <time>2022-04-17T10:46:37+00:00</time>
      </trkpt>
      <trkpt lat="40.937055" lon="-3.336411">
        <ele>894.15</ele>
        <time>2022-04-17T10:46:44+00:00</time>
      </trkpt>
      <trkpt lat="40.937076" lon="-3.336475">
        <ele>894.63</ele>
        <time>2022-04-17T10:46:45+00:00</time>
      </trkpt>
      <trkpt lat="40.937076" lon="-3.336539">
        <ele>895.11</ele>
        <time>2022-04-17T10:46:46+00:00</time>
      </trkpt>
      <trkpt lat="40.937033" lon="-3.336604">
        <ele>895.59</ele>
        <time>2022-04-17T10:46:47+00:00</time>
      </trkpt>
      <trkpt lat="40.936990" lon="-3.336668">
        <ele>895.59</ele>
        <time>2022-04-17T10:46:48+00:00</time>
      </trkpt>
      <trkpt lat="40.936926" lon="-3.336711">
        <ele>896.07</ele>
        <time>2022-04-17T10:46:49+00:00</time>
      </trkpt>
      <trkpt lat="40.936561" lon="-3.337076">
        <ele>899.43</ele>
        <time>2022-04-17T10:46:54+00:00</time>
      </trkpt>
      <trkpt lat="40.936475" lon="-3.337097">
        <ele>900.39</ele>
        <time>2022-04-17T10:46:55+00:00</time>
      </trkpt>
      <trkpt lat="40.936411" lon="-3.337119">
        <ele>900.87</ele>
        <time>2022-04-17T10:46:56+00:00</time>
      </trkpt>
      <trkpt lat="40.936325" lon="-3.337140">
        <ele>901.35</ele>
        <time>2022-04-17T10:46:57+00:00</time>
      </trkpt>
      <trkpt lat="40.936261" lon="-3.337162">
        <ele>902.32</ele>
        <time>2022-04-17T10:46:58+00:00</time>
      </trkpt>
      <trkpt lat="40.936196" lon="-3.337226">
        <ele>902.80</ele>
        <time>2022-04-17T10:46:59+00:00</time>
      </trkpt>
      <trkpt lat="40.936110" lon="-3.337312">
        <ele>903.76</ele>
        <time>2022-04-17T10:47:00+00:00</time>
      </trkpt>
      <trkpt lat="40.936068" lon="-3.337441">
        <ele>904.24</ele>
        <time>2022-04-17T10:47:01+00:00</time>
      </trkpt>
      <trkpt lat="40.936003" lon="-3.337569">
        <ele>904.72</ele>
        <time>2022-04-17T10:47:02+00:00</time>
      </trkpt>
      <trkpt lat="40.935596" lon="-3.338749">
        <ele>909.05</ele>
        <time>2022-04-17T10:47:10+00:00</time>
      </trkpt>
      <trkpt lat="40.935531" lon="-3.339028">
        <ele>910.01</ele>
        <time>2022-04-17T10:47:12+00:00</time>
      </trkpt>
      <trkpt lat="40.935531" lon="-3.339136">
        <ele>910.49</ele>
        <time>2022-04-17T10:47:13+00:00</time>
      </trkpt>
      <trkpt lat="40.935510" lon="-3.339243">
        <ele>910.97</ele>
        <time>2022-04-17T10:47:14+00:00</time>
      </trkpt>
      <trkpt lat="40.935510" lon="-3.339415">
        <ele>913.37</ele>
        <time>2022-04-17T10:47:20+00:00</time>
      </trkpt>
      <trkpt lat="40.935488" lon="-3.339458">
        <ele>913.85</ele>
        <time>2022-04-17T10:47:28+00:00</time>
      </trkpt>
      <trkpt lat="40.935445" lon="-3.339522">
        <ele>914.33</ele>
        <time>2022-04-17T10:47:29+00:00</time>
      </trkpt>
      <trkpt lat="40.935381" lon="-3.339565">
        <ele>914.81</ele>
        <time>2022-04-17T10:47:30+00:00</time>
      </trkpt>
      <trkpt lat="40.935295" lon="-3.339586">
        <ele>914.81</ele>
        <time>2022-04-17T10:47:31+00:00</time>
      </trkpt>
      <trkpt lat="40.935231" lon="-3.339586">
        <ele>915.29</ele>
        <time>2022-04-17T10:47:32+00:00</time>
      </trkpt>
      <trkpt lat="40.935166" lon="-3.339543">
        <ele>915.77</ele>
        <time>2022-04-17T10:47:33+00:00</time>
      </trkpt>
      <trkpt lat="40.935123" lon="-3.339436">
        <ele>916.26</ele>
        <time>2022-04-17T10:47:34+00:00</time>
      </trkpt>
      <trkpt lat="40.935123" lon="-3.339307">
        <ele>917.22</ele>
        <time>2022-04-17T10:47:35+00:00</time>
      </trkpt>
      <trkpt lat="40.935102" lon="-3.339179">
        <ele>918.18</ele>
        <time>2022-04-17T10:47:36+00:00</time>
      </trkpt>
      <trkpt lat="40.934995" lon="-3.338835">
        <ele>921.54</ele>
        <time>2022-04-17T10:47:40+00:00</time>
      </trkpt>
      <trkpt lat="40.934973" lon="-3.338771">
        <ele>922.50</ele>
        <time>2022-04-17T10:47:41+00:00</time>
      </trkpt>
      <trkpt lat="40.934930" lon="-3.338707">
        <ele>923.47</ele>
        <time>2022-04-17T10:47:42+00:00</time>
      </trkpt>
      <trkpt lat="40.934909" lon="-3.338642">
        <ele>924.43</ele>
        <time>2022-04-17T10:47:43+00:00</time>
      </trkpt>
      <trkpt lat="40.934866" lon="-3.338599">
        <ele>925.39</ele>
        <time>2022-04-17T10:47:44+00:00</time>
      </trkpt>
      <trkpt lat="40.934823" lon="-3.338599">
        <ele>926.35</ele>
        <time>2022-04-17T10:47:45+00:00</time>
      </trkpt>
      <trkpt lat="40.934780" lon="-3.338578">
        <ele>927.31</ele>
        <time>2022-04-17T10:47:46+00:00</time>
      </trkpt>
      <trkpt lat="40.934737" lon="-3.338556">
        <ele>928.27</ele>
        <time>2022-04-17T10:47:47+00:00</time>
      </trkpt>
      <trkpt lat="40.934673" lon="-3.338535">
        <ele>928.75</ele>
        <time>2022-04-17T10:47:48+00:00</time>
      </trkpt>
      <trkpt lat="40.934566" lon="-3.338470">
        <ele>930.68</ele>
        <time>2022-04-17T10:47:50+00:00</time>
      </trkpt>
      <trkpt lat="40.934501" lon="-3.338449">
        <ele>931.16</ele>
        <time>2022-04-17T10:47:51+00:00</time>
      </trkpt>
      <trkpt lat="40.934458" lon="-3.338406">
        <ele>931.64</ele>
        <time>2022-04-17T10:47:52+00:00</time>
      </trkpt>
      <trkpt lat="40.934394" lon="-3.338363">
        <ele>932.60</ele>
        <time>2022-04-17T10:47:53+00:00</time>
      </trkpt>
      <trkpt lat="40.934351" lon="-3.338320">
        <ele>933.08</ele>
        <time>2022-04-17T10:47:54+00:00</time>
      </trkpt>
      <trkpt lat="40.933986" lon="-3.338063">
        <ele>937.40</ele>
        <time>2022-04-17T10:47:59+00:00</time>
      </trkpt>
      <trkpt lat="40.933900" lon="-3.338041">
        <ele>938.37</ele>
        <time>2022-04-17T10:48:00+00:00</time>
      </trkpt>
      <trkpt lat="40.933750" lon="-3.337977">
        <ele>940.29</ele>
        <time>2022-04-17T10:48:02+00:00</time>
      </trkpt>
      <trkpt lat="40.933686" lon="-3.337934">
        <ele>940.77</ele>
        <time>2022-04-17T10:48:03+00:00</time>
      </trkpt>
      <trkpt lat="40.933621" lon="-3.337870">
        <ele>941.73</ele>
        <time>2022-04-17T10:48:04+00:00</time>
      </trkpt>
      <trkpt lat="40.933557" lon="-3.337784">
        <ele>942.69</ele>
        <time>2022-04-17T10:48:05+00:00</time>
      </trkpt>
      <trkpt lat="40.933493" lon="-3.337719">
        <ele>943.65</ele>
        <time>2022-04-17T10:48:06+00:00</time>
      </trkpt>
      <trkpt lat="40.933428" lon="-3.337655">
        <ele>944.61</ele>
        <time>2022-04-17T10:48:07+00:00</time>
      </trkpt>
      <trkpt lat="40.933342" lon="-3.337591">
        <ele>945.58</ele>
        <time>2022-04-17T10:48:08+00:00</time>
      </trkpt>
      <trkpt lat="40.933278" lon="-3.337505">
        <ele>946.54</ele>
        <time>2022-04-17T10:48:09+00:00</time>
      </trkpt>
      <trkpt lat="40.933149" lon="-3.337376">
        <ele>948.46</ele>
        <time>2022-04-17T10:48:11+00:00</time>
      </trkpt>
      <trkpt lat="40.933106" lon="-3.337290">
        <ele>948.94</ele>
        <time>2022-04-17T10:48:12+00:00</time>
      </trkpt>
      <trkpt lat="40.933064" lon="-3.337226">
        <ele>949.90</ele>
        <time>2022-04-17T10:48:13+00:00</time>
      </trkpt>
      <trkpt lat="40.933021" lon="-3.337119">
        <ele>950.38</ele>
        <time>2022-04-17T10:48:14+00:00</time>
      </trkpt>
      <trkpt lat="40.933021" lon="-3.336990">
        <ele>950.38</ele>
        <time>2022-04-17T10:48:15+00:00</time>
      </trkpt>
      <trkpt lat="40.933021" lon="-3.336861">
        <ele>949.90</ele>
        <time>2022-04-17T10:48:16+00:00</time>
      </trkpt>
      <trkpt lat="40.932999" lon="-3.336732">
        <ele>949.90</ele>
        <time>2022-04-17T10:48:17+00:00</time>
      </trkpt>
      <trkpt lat="40.932999" lon="-3.336496">
        <ele>948.46</ele>
        <time>2022-04-17T10:48:19+00:00</time>
      </trkpt>
      <trkpt lat="40.932956" lon="-3.336411">
        <ele>947.50</ele>
        <time>2022-04-17T10:48:20+00:00</time>
      </trkpt>
      <trkpt lat="40.932892" lon="-3.336346">
        <ele>946.06</ele>
        <time>2022-04-17T10:48:21+00:00</time>
      </trkpt>
      <trkpt lat="40.932849" lon="-3.336325">
        <ele>944.61</ele>
        <time>2022-04-17T10:48:22+00:00</time>
      </trkpt>
      <trkpt lat="40.932763" lon="-3.336325">
        <ele>943.17</ele>
        <time>2022-04-17T10:48:23+00:00</time>
      </trkpt>
      <trkpt lat="40.932656" lon="-3.336325">
        <ele>941.73</ele>
        <time>2022-04-17T10:48:24+00:00</time>
      </trkpt>
      <trkpt lat="40.932549" lon="-3.336346">
        <ele>940.29</ele>
        <time>2022-04-17T10:48:25+00:00</time>
      </trkpt>
      <trkpt lat="40.932441" lon="-3.336346">
        <ele>939.33</ele>
        <time>2022-04-17T10:48:26+00:00</time>
      </trkpt>
      <trkpt lat="40.932312" lon="-3.336325">
        <ele>937.88</ele>
        <time>2022-04-17T10:48:27+00:00</time>
      </trkpt>
      <trkpt lat="40.932205" lon="-3.336282">
        <ele>936.44</ele>
        <time>2022-04-17T10:48:28+00:00</time>
      </trkpt>
      <trkpt lat="40.931798" lon="-3.336196">
        <ele>929.71</ele>
        <time>2022-04-17T10:48:32+00:00</time>
      </trkpt>
      <trkpt lat="40.931712" lon="-3.336217">
        <ele>928.27</ele>
        <time>2022-04-17T10:48:33+00:00</time>
      </trkpt>
      <trkpt lat="40.931604" lon="-3.336260">
        <ele>927.31</ele>
        <time>2022-04-17T10:48:34+00:00</time>
      </trkpt>
      <trkpt lat="40.931540" lon="-3.336346">
        <ele>926.35</ele>
        <time>2022-04-17T10:48:35+00:00</time>
      </trkpt>
      <trkpt lat="40.931454" lon="-3.336432">
        <ele>925.39</ele>
        <time>2022-04-17T10:48:36+00:00</time>
      </trkpt>
      <trkpt lat="40.931368" lon="-3.336518">
        <ele>923.95</ele>
        <time>2022-04-17T10:48:37+00:00</time>
      </trkpt>
      <trkpt lat="40.930360" lon="-3.337677">
        <ele>908.08</ele>
        <time>2022-04-17T10:48:48+00:00</time>
      </trkpt>
      <trkpt lat="40.929931" lon="-3.338106">
        <ele>900.87</ele>
        <time>2022-04-17T10:48:53+00:00</time>
      </trkpt>
      <trkpt lat="40.929866" lon="-3.338234">
        <ele>899.43</ele>
        <time>2022-04-17T10:48:54+00:00</time>
      </trkpt>
      <trkpt lat="40.929115" lon="-3.339458">
        <ele>886.94</ele>
        <time>2022-04-17T10:49:03+00:00</time>
      </trkpt>
      <trkpt lat="40.928300" lon="-3.340745">
        <ele>879.73</ele>
        <time>2022-04-17T10:49:11+00:00</time>
      </trkpt>
      <trkpt lat="40.927442" lon="-3.342075">
        <ele>869.15</ele>
        <time>2022-04-17T10:49:20+00:00</time>
      </trkpt>
      <trkpt lat="40.926669" lon="-3.343191">
        <ele>859.06</ele>
        <time>2022-04-17T10:49:28+00:00</time>
      </trkpt>
      <trkpt lat="40.925661" lon="-3.344243">
        <ele>845.60</ele>
        <time>2022-04-17T10:49:37+00:00</time>
      </trkpt>
      <trkpt lat="40.924588" lon="-3.344886">
        <ele>833.58</ele>
        <time>2022-04-17T10:49:45+00:00</time>
      </trkpt>
      <trkpt lat="40.924051" lon="-3.345122">
        <ele>826.85</ele>
        <time>2022-04-17T10:49:50+00:00</time>
      </trkpt>
      <trkpt lat="40.923965" lon="-3.345187">
        <ele>825.41</ele>
        <time>2022-04-17T10:49:51+00:00</time>
      </trkpt>
      <trkpt lat="40.923687" lon="-3.345380">
        <ele>821.09</ele>
        <time>2022-04-17T10:49:54+00:00</time>
      </trkpt>
      <trkpt lat="40.923601" lon="-3.345401">
        <ele>820.12</ele>
        <time>2022-04-17T10:49:55+00:00</time>
      </trkpt>
      <trkpt lat="40.923493" lon="-3.345380">
        <ele>818.68</ele>
        <time>2022-04-17T10:49:56+00:00</time>
      </trkpt>
      <trkpt lat="40.923365" lon="-3.345337">
        <ele>817.24</ele>
        <time>2022-04-17T10:49:57+00:00</time>
      </trkpt>
      <trkpt lat="40.923214" lon="-3.345315">
        <ele>815.80</ele>
        <time>2022-04-17T10:49:58+00:00</time>
      </trkpt>
      <trkpt lat="40.922528" lon="-3.345208">
        <ele>809.07</ele>
        <time>2022-04-17T10:50:03+00:00</time>
      </trkpt>
      <trkpt lat="40.922399" lon="-3.345208">
        <ele>807.63</ele>
        <time>2022-04-17T10:50:04+00:00</time>
      </trkpt>
      <trkpt lat="40.922270" lon="-3.345273">
        <ele>806.19</ele>
        <time>2022-04-17T10:50:05+00:00</time>
      </trkpt>
      <trkpt lat="40.922142" lon="-3.345337">
        <ele>805.22</ele>
        <time>2022-04-17T10:50:06+00:00</time>
      </trkpt>
      <trkpt lat="40.921991" lon="-3.345401">
        <ele>803.78</ele>
        <time>2022-04-17T10:50:07+00:00</time>
      </trkpt>
      <trkpt lat="40.921112" lon="-3.345873">
        <ele>793.21</ele>
        <time>2022-04-17T10:50:15+00:00</time>
      </trkpt>
      <trkpt lat="40.921069" lon="-3.345938">
        <ele>792.25</ele>
        <time>2022-04-17T10:50:16+00:00</time>
      </trkpt>
      <trkpt lat="40.921047" lon="-3.346024">
        <ele>791.28</ele>
        <time>2022-04-17T10:50:17+00:00</time>
      </trkpt>
      <trkpt lat="40.921047" lon="-3.346109">
        <ele>790.80</ele>
        <time>2022-04-17T10:50:18+00:00</time>
      </trkpt>
      <trkpt lat="40.921026" lon="-3.346217">
        <ele>790.32</ele>
        <time>2022-04-17T10:50:19+00:00</time>
      </trkpt>
      <trkpt lat="40.921026" lon="-3.346281">
        <ele>789.84</ele>
        <time>2022-04-17T10:50:20+00:00</time>
      </trkpt>
      <trkpt lat="40.920983" lon="-3.346367">
        <ele>789.84</ele>
        <time>2022-04-17T10:50:21+00:00</time>
      </trkpt>
      <trkpt lat="40.920961" lon="-3.346410">
        <ele>789.36</ele>
        <time>2022-04-17T10:50:22+00:00</time>
      </trkpt>
      <trkpt lat="40.920918" lon="-3.346410">
        <ele>789.36</ele>
        <time>2022-04-17T10:50:23+00:00</time>
      </trkpt>
      <trkpt lat="40.920833" lon="-3.346431">
        <ele>788.88</ele>
        <time>2022-04-17T10:50:24+00:00</time>
      </trkpt>
      <trkpt lat="40.920725" lon="-3.346453">
        <ele>788.88</ele>
        <time>2022-04-17T10:50:25+00:00</time>
      </trkpt>
      <trkpt lat="40.919974" lon="-3.346624">
        <ele>789.36</ele>
        <time>2022-04-17T10:50:31+00:00</time>
      </trkpt>
      <trkpt lat="40.919867" lon="-3.346667">
        <ele>789.36</ele>
        <time>2022-04-17T10:50:32+00:00</time>
      </trkpt>
      <trkpt lat="40.919738" lon="-3.346753">
        <ele>789.36</ele>
        <time>2022-04-17T10:50:33+00:00</time>
      </trkpt>
      <trkpt lat="40.919652" lon="-3.346903">
        <ele>789.84</ele>
        <time>2022-04-17T10:50:34+00:00</time>
      </trkpt>
      <trkpt lat="40.919567" lon="-3.347032">
        <ele>790.32</ele>
        <time>2022-04-17T10:50:35+00:00</time>
      </trkpt>
      <trkpt lat="40.919481" lon="-3.347182">
        <ele>790.32</ele>
        <time>2022-04-17T10:50:36+00:00</time>
      </trkpt>
      <trkpt lat="40.918901" lon="-3.348148">
        <ele>792.73</ele>
        <time>2022-04-17T10:50:44+00:00</time>
      </trkpt>
      <trkpt lat="40.918859" lon="-3.348277">
        <ele>793.21</ele>
        <time>2022-04-17T10:50:45+00:00</time>
      </trkpt>
      <trkpt lat="40.918558" lon="-3.348942">
        <ele>797.53</ele>
        <time>2022-04-17T10:50:50+00:00</time>
      </trkpt>
      <trkpt lat="40.918193" lon="-3.349500">
        <ele>802.82</ele>
        <time>2022-04-17T10:50:55+00:00</time>
      </trkpt>
      <trkpt lat="40.918108" lon="-3.349564">
        <ele>803.78</ele>
        <time>2022-04-17T10:50:56+00:00</time>
      </trkpt>
      <trkpt lat="40.918022" lon="-3.349628">
        <ele>804.74</ele>
        <time>2022-04-17T10:50:57+00:00</time>
      </trkpt>
      <trkpt lat="40.917936" lon="-3.349671">
        <ele>805.70</ele>
        <time>2022-04-17T10:50:58+00:00</time>
      </trkpt>
      <trkpt lat="40.917850" lon="-3.349714">
        <ele>807.15</ele>
        <time>2022-04-17T10:50:59+00:00</time>
      </trkpt>
      <trkpt lat="40.917571" lon="-3.349865">
        <ele>811.47</ele>
        <time>2022-04-17T10:51:03+00:00</time>
      </trkpt>
      <trkpt lat="40.917485" lon="-3.349950">
        <ele>812.43</ele>
        <time>2022-04-17T10:51:04+00:00</time>
      </trkpt>
      <trkpt lat="40.917464" lon="-3.350058">
        <ele>813.40</ele>
        <time>2022-04-17T10:51:05+00:00</time>
      </trkpt>
      <trkpt lat="40.917442" lon="-3.350208">
        <ele>813.88</ele>
        <time>2022-04-17T10:51:06+00:00</time>
      </trkpt>
      <trkpt lat="40.917399" lon="-3.350809">
        <ele>815.80</ele>
        <time>2022-04-17T10:51:10+00:00</time>
      </trkpt>
      <trkpt lat="40.917356" lon="-3.351774">
        <ele>822.05</ele>
        <time>2022-04-17T10:51:18+00:00</time>
      </trkpt>
      <trkpt lat="40.917356" lon="-3.351882">
        <ele>823.01</ele>
        <time>2022-04-17T10:51:19+00:00</time>
      </trkpt>
      <trkpt lat="40.917335" lon="-3.351946">
        <ele>823.49</ele>
        <time>2022-04-17T10:51:20+00:00</time>
      </trkpt>
      <trkpt lat="40.917271" lon="-3.352010">
        <ele>824.45</ele>
        <time>2022-04-17T10:51:21+00:00</time>
      </trkpt>
      <trkpt lat="40.917206" lon="-3.352075">
        <ele>825.41</ele>
        <time>2022-04-17T10:51:22+00:00</time>
      </trkpt>
      <trkpt lat="40.917142" lon="-3.352075">
        <ele>825.89</ele>
        <time>2022-04-17T10:51:23+00:00</time>
      </trkpt>
      <trkpt lat="40.917056" lon="-3.352053">
        <ele>826.85</ele>
        <time>2022-04-17T10:51:24+00:00</time>
      </trkpt>
      <trkpt lat="40.916970" lon="-3.352053">
        <ele>827.33</ele>
        <time>2022-04-17T10:51:25+00:00</time>
      </trkpt>
      <trkpt lat="40.916863" lon="-3.352032">
        <ele>828.30</ele>
        <time>2022-04-17T10:51:27+00:00</time>
      </trkpt>
      <trkpt lat="40.916820" lon="-3.352053">
        <ele>828.78</ele>
        <time>2022-04-17T10:51:28+00:00</time>
      </trkpt>
      <trkpt lat="40.916799" lon="-3.352075">
        <ele>829.74</ele>
        <time>2022-04-17T10:51:29+00:00</time>
      </trkpt>
      <trkpt lat="40.916756" lon="-3.352096">
        <ele>830.22</ele>
        <time>2022-04-17T10:51:30+00:00</time>
      </trkpt>
      <trkpt lat="40.916756" lon="-3.352118">
        <ele>830.70</ele>
        <time>2022-04-17T10:51:31+00:00</time>
      </trkpt>
      <trkpt lat="40.916756" lon="-3.352118">
        <ele>831.18</ele>
        <time>2022-04-17T10:51:44+00:00</time>
      </trkpt>
      <trkpt lat="40.916756" lon="-3.352118">
        <ele>832.14</ele>
        <time>2022-04-17T10:52:34+00:00</time>
      </trkpt>
      <trkpt lat="40.916584" lon="-3.352311">
        <ele>832.14</ele>
        <time>2022-04-17T10:52:48+00:00</time>
      </trkpt>
      <trkpt lat="40.916477" lon="-3.352461">
        <ele>832.14</ele>
        <time>2022-04-17T10:52:49+00:00</time>
      </trkpt>
      <trkpt lat="40.916369" lon="-3.352633">
        <ele>831.18</ele>
        <time>2022-04-17T10:52:50+00:00</time>
      </trkpt>
      <trkpt lat="40.916305" lon="-3.352847">
        <ele>830.22</ele>
        <time>2022-04-17T10:52:51+00:00</time>
      </trkpt>
      <trkpt lat="40.916241" lon="-3.353040">
        <ele>829.74</ele>
        <time>2022-04-17T10:52:52+00:00</time>
      </trkpt>
      <trkpt lat="40.916198" lon="-3.353190">
        <ele>828.78</ele>
        <time>2022-04-17T10:52:53+00:00</time>
      </trkpt>
      <trkpt lat="40.916090" lon="-3.353319">
        <ele>827.81</ele>
        <time>2022-04-17T10:52:54+00:00</time>
      </trkpt>
      <trkpt lat="40.915940" lon="-3.353384">
        <ele>826.37</ele>
        <time>2022-04-17T10:52:55+00:00</time>
      </trkpt>
      <trkpt lat="40.915769" lon="-3.353426">
        <ele>824.93</ele>
        <time>2022-04-17T10:52:56+00:00</time>
      </trkpt>
      <trkpt lat="40.915576" lon="-3.353469">
        <ele>823.49</ele>
        <time>2022-04-17T10:52:57+00:00</time>
      </trkpt>
      <trkpt lat="40.913837" lon="-3.353834">
        <ele>809.07</ele>
        <time>2022-04-17T10:53:06+00:00</time>
      </trkpt>
      <trkpt lat="40.913580" lon="-3.353770">
        <ele>807.63</ele>
        <time>2022-04-17T10:53:07+00:00</time>
      </trkpt>
      <trkpt lat="40.913344" lon="-3.353705">
        <ele>805.70</ele>
        <time>2022-04-17T10:53:08+00:00</time>
      </trkpt>
      <trkpt lat="40.912400" lon="-3.353341">
        <ele>798.49</ele>
        <time>2022-04-17T10:53:12+00:00</time>
      </trkpt>
      <trkpt lat="40.912164" lon="-3.353148">
        <ele>796.57</ele>
        <time>2022-04-17T10:53:13+00:00</time>
      </trkpt>
      <trkpt lat="40.911177" lon="-3.352332">
        <ele>789.36</ele>
        <time>2022-04-17T10:53:18+00:00</time>
      </trkpt>
      <trkpt lat="40.910061" lon="-3.351517">
        <ele>783.11</ele>
        <time>2022-04-17T10:53:24+00:00</time>
      </trkpt>
      <trkpt lat="40.909718" lon="-3.351345">
        <ele>781.19</ele>
        <time>2022-04-17T10:53:26+00:00</time>
      </trkpt>
      <trkpt lat="40.909524" lon="-3.351324">
        <ele>780.23</ele>
        <time>2022-04-17T10:53:27+00:00</time>
      </trkpt>
      <trkpt lat="40.909310" lon="-3.351324">
        <ele>779.27</ele>
        <time>2022-04-17T10:53:28+00:00</time>
      </trkpt>
      <trkpt lat="40.909074" lon="-3.351367">
        <ele>778.31</ele>
        <time>2022-04-17T10:53:29+00:00</time>
      </trkpt>
      <trkpt lat="40.908838" lon="-3.351409">
        <ele>777.83</ele>
        <time>2022-04-17T10:53:30+00:00</time>
      </trkpt>
      <trkpt lat="40.907293" lon="-3.351753">
        <ele>775.42</ele>
        <time>2022-04-17T10:53:36+00:00</time>
      </trkpt>
      <trkpt lat="40.905812" lon="-3.352268">
        <ele>773.50</ele>
        <time>2022-04-17T10:53:42+00:00</time>
      </trkpt>
      <trkpt lat="40.904203" lon="-3.352547">
        <ele>770.14</ele>
        <time>2022-04-17T10:53:48+00:00</time>
      </trkpt>
      <trkpt lat="40.903066" lon="-3.352783">
        <ele>766.29</ele>
        <time>2022-04-17T10:53:53+00:00</time>
      </trkpt>
      <trkpt lat="40.902851" lon="-3.352890">
        <ele>765.81</ele>
        <time>2022-04-17T10:53:54+00:00</time>
      </trkpt>
      <trkpt lat="40.902637" lon="-3.353062">
        <ele>764.85</ele>
        <time>2022-04-17T10:53:55+00:00</time>
      </trkpt>
      <trkpt lat="40.900898" lon="-3.354285">
        <ele>758.12</ele>
        <time>2022-04-17T10:54:02+00:00</time>
      </trkpt>
      <trkpt lat="40.899418" lon="-3.355315">
        <ele>757.64</ele>
        <time>2022-04-17T10:54:09+00:00</time>
      </trkpt>
      <trkpt lat="40.899032" lon="-3.355529">
        <ele>758.60</ele>
        <time>2022-04-17T10:54:11+00:00</time>
      </trkpt>
      <trkpt lat="40.898817" lon="-3.355594">
        <ele>759.08</ele>
        <time>2022-04-17T10:54:12+00:00</time>
      </trkpt>
      <trkpt lat="40.897015" lon="-3.356109">
        <ele>761.00</ele>
        <time>2022-04-17T10:54:20+00:00</time>
      </trkpt>
      <trkpt lat="40.896693" lon="-3.356259">
        <ele>761.48</ele>
        <time>2022-04-17T10:54:22+00:00</time>
      </trkpt>
      <trkpt lat="40.896543" lon="-3.356366">
        <ele>761.48</ele>
        <time>2022-04-17T10:54:23+00:00</time>
      </trkpt>
      <trkpt lat="40.896371" lon="-3.356516">
        <ele>761.00</ele>
        <time>2022-04-17T10:54:24+00:00</time>
      </trkpt>
      <trkpt lat="40.895277" lon="-3.357675">
        <ele>760.04</ele>
        <time>2022-04-17T10:54:30+00:00</time>
      </trkpt>
      <trkpt lat="40.893925" lon="-3.359542">
        <ele>758.12</ele>
        <time>2022-04-17T10:54:37+00:00</time>
      </trkpt>
      <trkpt lat="40.891865" lon="-3.362503">
        <ele>756.20</ele>
        <time>2022-04-17T10:54:49+00:00</time>
      </trkpt>
      <trkpt lat="40.890427" lon="-3.364670">
        <ele>755.24</ele>
        <time>2022-04-17T10:54:59+00:00</time>
      </trkpt>
      <trkpt lat="40.889977" lon="-3.365314">
        <ele>753.79</ele>
        <time>2022-04-17T10:55:03+00:00</time>
      </trkpt>
      <trkpt lat="40.889826" lon="-3.365421">
        <ele>753.79</ele>
        <time>2022-04-17T10:55:04+00:00</time>
      </trkpt>
      <trkpt lat="40.889333" lon="-3.365808">
        <ele>752.35</ele>
        <time>2022-04-17T10:55:09+00:00</time>
      </trkpt>
      <trkpt lat="40.888560" lon="-3.366280">
        <ele>753.79</ele>
        <time>2022-04-17T10:55:16+00:00</time>
      </trkpt>
      <trkpt lat="40.888389" lon="-3.366430">
        <ele>753.79</ele>
        <time>2022-04-17T10:55:17+00:00</time>
      </trkpt>
      <trkpt lat="40.888217" lon="-3.366580">
        <ele>753.79</ele>
        <time>2022-04-17T10:55:18+00:00</time>
      </trkpt>
      <trkpt lat="40.887208" lon="-3.367589">
        <ele>754.27</ele>
        <time>2022-04-17T10:55:24+00:00</time>
      </trkpt>
      <trkpt lat="40.887101" lon="-3.367674">
        <ele>754.27</ele>
        <time>2022-04-17T10:55:25+00:00</time>
      </trkpt>
      <trkpt lat="40.886972" lon="-3.367717">
        <ele>754.27</ele>
        <time>2022-04-17T10:55:26+00:00</time>
      </trkpt>
      <trkpt lat="40.886844" lon="-3.367674">
        <ele>753.79</ele>
        <time>2022-04-17T10:55:27+00:00</time>
      </trkpt>
      <trkpt lat="40.886693" lon="-3.367610">
        <ele>753.31</ele>
        <time>2022-04-17T10:55:28+00:00</time>
      </trkpt>
      <trkpt lat="40.886522" lon="-3.367524">
        <ele>752.83</ele>
        <time>2022-04-17T10:55:29+00:00</time>
      </trkpt>
      <trkpt lat="40.885921" lon="-3.367159">
        <ele>751.39</ele>
        <time>2022-04-17T10:55:34+00:00</time>
      </trkpt>
      <trkpt lat="40.885878" lon="-3.367116">
        <ele>751.39</ele>
        <time>2022-04-17T10:55:35+00:00</time>
      </trkpt>
      <trkpt lat="40.885835" lon="-3.367095">
        <ele>750.91</ele>
        <time>2022-04-17T10:55:36+00:00</time>
      </trkpt>
      <trkpt lat="40.885771" lon="-3.367181">
        <ele>750.91</ele>
        <time>2022-04-17T10:55:37+00:00</time>
      </trkpt>
      <trkpt lat="40.885706" lon="-3.367267">
        <ele>750.43</ele>
        <time>2022-04-17T10:55:38+00:00</time>
      </trkpt>
      <trkpt lat="40.885621" lon="-3.367374">
        <ele>750.43</ele>
        <time>2022-04-17T10:55:39+00:00</time>
      </trkpt>
      <trkpt lat="40.885535" lon="-3.367503">
        <ele>750.43</ele>
        <time>2022-04-17T10:55:40+00:00</time>
      </trkpt>
      <trkpt lat="40.884891" lon="-3.368490">
        <ele>750.91</ele>
        <time>2022-04-17T10:55:45+00:00</time>
      </trkpt>
      <trkpt lat="40.883754" lon="-3.370163">
        <ele>749.95</ele>
        <time>2022-04-17T10:55:51+00:00</time>
      </trkpt>
      <trkpt lat="40.882552" lon="-3.371902">
        <ele>748.99</ele>
        <time>2022-04-17T10:55:58+00:00</time>
      </trkpt>
      <trkpt lat="40.882209" lon="-3.372481">
        <ele>748.51</ele>
        <time>2022-04-17T10:56:01+00:00</time>
      </trkpt>
      <trkpt lat="40.882123" lon="-3.372717">
        <ele>748.51</ele>
        <time>2022-04-17T10:56:02+00:00</time>
      </trkpt>
      <trkpt lat="40.882080" lon="-3.372996">
        <ele>748.51</ele>
        <time>2022-04-17T10:56:03+00:00</time>
      </trkpt>
      <trkpt lat="40.881758" lon="-3.374734">
        <ele>749.95</ele>
        <time>2022-04-17T10:56:09+00:00</time>
      </trkpt>
      <trkpt lat="40.881694" lon="-3.374927">
        <ele>749.95</ele>
        <time>2022-04-17T10:56:10+00:00</time>
      </trkpt>
      <trkpt lat="40.881608" lon="-3.375099">
        <ele>750.43</ele>
        <time>2022-04-17T10:56:11+00:00</time>
      </trkpt>
      <trkpt lat="40.881479" lon="-3.375249">
        <ele>750.43</ele>
        <time>2022-04-17T10:56:12+00:00</time>
      </trkpt>
      <trkpt lat="40.881007" lon="-3.375785">
        <ele>751.39</ele>
        <time>2022-04-17T10:56:16+00:00</time>
      </trkpt>
      <trkpt lat="40.880878" lon="-3.375871">
        <ele>751.39</ele>
        <time>2022-04-17T10:56:17+00:00</time>
      </trkpt>
      <trkpt lat="40.880707" lon="-3.375914">
        <ele>751.87</ele>
        <time>2022-04-17T10:56:18+00:00</time>
      </trkpt>
      <trkpt lat="40.879698" lon="-3.376129">
        <ele>751.87</ele>
        <time>2022-04-17T10:56:23+00:00</time>
      </trkpt>
      <trkpt lat="40.879548" lon="-3.376236">
        <ele>751.87</ele>
        <time>2022-04-17T10:56:24+00:00</time>
      </trkpt>
      <trkpt lat="40.879376" lon="-3.376365">
        <ele>751.87</ele>
        <time>2022-04-17T10:56:25+00:00</time>
      </trkpt>
      <trkpt lat="40.879205" lon="-3.376536">
        <ele>751.39</ele>
        <time>2022-04-17T10:56:26+00:00</time>
      </trkpt>
      <trkpt lat="40.879076" lon="-3.376751">
        <ele>750.91</ele>
        <time>2022-04-17T10:56:27+00:00</time>
      </trkpt>
      <trkpt lat="40.878947" lon="-3.377008">
        <ele>750.91</ele>
        <time>2022-04-17T10:56:28+00:00</time>
      </trkpt>
      <trkpt lat="40.878819" lon="-3.377266">
        <ele>750.91</ele>
        <time>2022-04-17T10:56:29+00:00</time>
      </trkpt>
      <trkpt lat="40.878089" lon="-3.378918">
        <ele>750.91</ele>
        <time>2022-04-17T10:56:35+00:00</time>
      </trkpt>
      <trkpt lat="40.877960" lon="-3.379090">
        <ele>750.91</ele>
        <time>2022-04-17T10:56:36+00:00</time>
      </trkpt>
      <trkpt lat="40.877853" lon="-3.379262">
        <ele>750.91</ele>
        <time>2022-04-17T10:56:37+00:00</time>
      </trkpt>
      <trkpt lat="40.877660" lon="-3.379390">
        <ele>750.91</ele>
        <time>2022-04-17T10:56:38+00:00</time>
      </trkpt>
      <trkpt lat="40.876523" lon="-3.380141">
        <ele>752.35</ele>
        <time>2022-04-17T10:56:44+00:00</time>
      </trkpt>
      <trkpt lat="40.876372" lon="-3.380334">
        <ele>752.83</ele>
        <time>2022-04-17T10:56:45+00:00</time>
      </trkpt>
      <trkpt lat="40.876222" lon="-3.380549">
        <ele>752.83</ele>
        <time>2022-04-17T10:56:46+00:00</time>
      </trkpt>
      <trkpt lat="40.875214" lon="-3.382201">
        <ele>753.79</ele>
        <time>2022-04-17T10:56:53+00:00</time>
      </trkpt>
      <trkpt lat="40.874119" lon="-3.384390">
        <ele>752.83</ele>
        <time>2022-04-17T10:57:00+00:00</time>
      </trkpt>
      <trkpt lat="40.873132" lon="-3.386428">
        <ele>750.91</ele>
        <time>2022-04-17T10:57:07+00:00</time>
      </trkpt>
      <trkpt lat="40.872810" lon="-3.387158">
        <ele>751.39</ele>
        <time>2022-04-17T10:57:10+00:00</time>
      </trkpt>
      <trkpt lat="40.872767" lon="-3.387437">
        <ele>751.39</ele>
        <time>2022-04-17T10:57:11+00:00</time>
      </trkpt>
      <trkpt lat="40.872596" lon="-3.388488">
        <ele>751.87</ele>
        <time>2022-04-17T10:57:15+00:00</time>
      </trkpt>
      <trkpt lat="40.872510" lon="-3.388660">
        <ele>751.87</ele>
        <time>2022-04-17T10:57:16+00:00</time>
      </trkpt>
      <trkpt lat="40.872381" lon="-3.388853">
        <ele>751.87</ele>
        <time>2022-04-17T10:57:17+00:00</time>
      </trkpt>
      <trkpt lat="40.872231" lon="-3.389046">
        <ele>751.87</ele>
        <time>2022-04-17T10:57:18+00:00</time>
      </trkpt>
      <trkpt lat="40.872081" lon="-3.389218">
        <ele>751.87</ele>
        <time>2022-04-17T10:57:19+00:00</time>
      </trkpt>
      <trkpt lat="40.871780" lon="-3.389604">
        <ele>751.87</ele>
        <time>2022-04-17T10:57:21+00:00</time>
      </trkpt>
      <trkpt lat="40.871673" lon="-3.389840">
        <ele>751.87</ele>
        <time>2022-04-17T10:57:22+00:00</time>
      </trkpt>
      <trkpt lat="40.871587" lon="-3.390119">
        <ele>751.87</ele>
        <time>2022-04-17T10:57:23+00:00</time>
      </trkpt>
      <trkpt lat="40.870901" lon="-3.392179">
        <ele>751.87</ele>
        <time>2022-04-17T10:57:29+00:00</time>
      </trkpt>
      <trkpt lat="40.870300" lon="-3.394024">
        <ele>754.75</ele>
        <time>2022-04-17T10:57:35+00:00</time>
      </trkpt>
      <trkpt lat="40.870257" lon="-3.394303">
        <ele>755.72</ele>
        <time>2022-04-17T10:57:36+00:00</time>
      </trkpt>
      <trkpt lat="40.870214" lon="-3.394604">
        <ele>756.20</ele>
        <time>2022-04-17T10:57:37+00:00</time>
      </trkpt>
      <trkpt lat="40.869999" lon="-3.397071">
        <ele>761.97</ele>
        <time>2022-04-17T10:57:44+00:00</time>
      </trkpt>
      <trkpt lat="40.869763" lon="-3.399389">
        <ele>768.21</ele>
        <time>2022-04-17T10:57:51+00:00</time>
      </trkpt>
      <trkpt lat="40.869313" lon="-3.401148">
        <ele>768.21</ele>
        <time>2022-04-17T10:57:57+00:00</time>
      </trkpt>
      <trkpt lat="40.868218" lon="-3.403981">
        <ele>766.29</ele>
        <time>2022-04-17T10:58:05+00:00</time>
      </trkpt>
      <trkpt lat="40.867467" lon="-3.405912">
        <ele>769.17</ele>
        <time>2022-04-17T10:58:11+00:00</time>
      </trkpt>
      <trkpt lat="40.866631" lon="-3.407822">
        <ele>768.69</ele>
        <time>2022-04-17T10:58:18+00:00</time>
      </trkpt>
      <trkpt lat="40.865772" lon="-3.409667">
        <ele>761.48</ele>
        <time>2022-04-17T10:58:25+00:00</time>
      </trkpt>
      <trkpt lat="40.865729" lon="-3.409946">
        <ele>760.52</ele>
        <time>2022-04-17T10:58:26+00:00</time>
      </trkpt>
      <trkpt lat="40.865429" lon="-3.412049">
        <ele>753.31</ele>
        <time>2022-04-17T10:58:32+00:00</time>
      </trkpt>
      <trkpt lat="40.864957" lon="-3.415375">
        <ele>742.26</ele>
        <time>2022-04-17T10:58:41+00:00</time>
      </trkpt>
      <trkpt lat="40.864807" lon="-3.417242">
        <ele>740.34</ele>
        <time>2022-04-17T10:58:47+00:00</time>
      </trkpt>
      <trkpt lat="40.864914" lon="-3.420203">
        <ele>733.61</ele>
        <time>2022-04-17T10:58:55+00:00</time>
      </trkpt>
      <trkpt lat="40.864914" lon="-3.423228">
        <ele>727.84</ele>
        <time>2022-04-17T10:59:04+00:00</time>
      </trkpt>
      <trkpt lat="40.864592" lon="-3.425052">
        <ele>725.44</ele>
        <time>2022-04-17T10:59:10+00:00</time>
      </trkpt>
      <trkpt lat="40.864506" lon="-3.426490">
        <ele>723.03</ele>
        <time>2022-04-17T10:59:15+00:00</time>
      </trkpt>
      <trkpt lat="40.864442" lon="-3.426726">
        <ele>722.55</ele>
        <time>2022-04-17T10:59:16+00:00</time>
      </trkpt>
      <trkpt lat="40.864335" lon="-3.426983">
        <ele>722.07</ele>
        <time>2022-04-17T10:59:17+00:00</time>
      </trkpt>
      <trkpt lat="40.864227" lon="-3.427262">
        <ele>721.59</ele>
        <time>2022-04-17T10:59:18+00:00</time>
      </trkpt>
      <trkpt lat="40.864099" lon="-3.427520">
        <ele>721.59</ele>
        <time>2022-04-17T10:59:19+00:00</time>
      </trkpt>
      <trkpt lat="40.863841" lon="-3.428185">
        <ele>720.63</ele>
        <time>2022-04-17T10:59:22+00:00</time>
      </trkpt>
      <trkpt lat="40.863798" lon="-3.428400">
        <ele>720.63</ele>
        <time>2022-04-17T10:59:23+00:00</time>
      </trkpt>
      <trkpt lat="40.863820" lon="-3.428657">
        <ele>720.15</ele>
        <time>2022-04-17T10:59:24+00:00</time>
      </trkpt>
      <trkpt lat="40.863927" lon="-3.430932">
        <ele>717.74</ele>
        <time>2022-04-17T10:59:31+00:00</time>
      </trkpt>
      <trkpt lat="40.864056" lon="-3.433421">
        <ele>714.38</ele>
        <time>2022-04-17T10:59:38+00:00</time>
      </trkpt>
      <trkpt lat="40.864356" lon="-3.435180">
        <ele>713.42</ele>
        <time>2022-04-17T10:59:44+00:00</time>
      </trkpt>
      <trkpt lat="40.864463" lon="-3.435459">
        <ele>713.42</ele>
        <time>2022-04-17T10:59:45+00:00</time>
      </trkpt>
      <trkpt lat="40.865536" lon="-3.437498">
        <ele>716.30</ele>
        <time>2022-04-17T10:59:52+00:00</time>
      </trkpt>
      <trkpt lat="40.867017" lon="-3.439901">
        <ele>718.71</ele>
        <time>2022-04-17T11:00:01+00:00</time>
      </trkpt>
      <trkpt lat="40.868176" lon="-3.441360">
        <ele>716.30</ele>
        <time>2022-04-17T11:00:08+00:00</time>
      </trkpt>
      <trkpt lat="40.869935" lon="-3.442862">
        <ele>711.50</ele>
        <time>2022-04-17T11:00:16+00:00</time>
      </trkpt>
      <trkpt lat="40.873240" lon="-3.445694">
        <ele>705.73</ele>
        <time>2022-04-17T11:00:32+00:00</time>
      </trkpt>
      <trkpt lat="40.875171" lon="-3.447325">
        <ele>702.36</ele>
        <time>2022-04-17T11:00:43+00:00</time>
      </trkpt>
      <trkpt lat="40.876265" lon="-3.448226">
        <ele>699.48</ele>
        <time>2022-04-17T11:00:51+00:00</time>
      </trkpt>
      <trkpt lat="40.876759" lon="-3.448613">
        <ele>698.04</ele>
        <time>2022-04-17T11:00:58+00:00</time>
      </trkpt>
      <trkpt lat="40.876780" lon="-3.448656">
        <ele>698.04</ele>
        <time>2022-04-17T11:01:06+00:00</time>
      </trkpt>
      <trkpt lat="40.876801" lon="-3.448677">
        <ele>698.04</ele>
        <time>2022-04-17T11:01:07+00:00</time>
      </trkpt>
      <trkpt lat="40.876823" lon="-3.448763">
        <ele>698.04</ele>
        <time>2022-04-17T11:01:08+00:00</time>
      </trkpt>
      <trkpt lat="40.876780" lon="-3.448849">
        <ele>698.04</ele>
        <time>2022-04-17T11:01:09+00:00</time>
      </trkpt>
      <trkpt lat="40.876329" lon="-3.449771">
        <ele>696.60</ele>
        <time>2022-04-17T11:01:15+00:00</time>
      </trkpt>
      <trkpt lat="40.875493" lon="-3.451402">
        <ele>695.63</ele>
        <time>2022-04-17T11:01:22+00:00</time>
      </trkpt>
      <trkpt lat="40.874527" lon="-3.453419">
        <ele>695.15</ele>
        <time>2022-04-17T11:01:29+00:00</time>
      </trkpt>
      <trkpt lat="40.873175" lon="-3.456810">
        <ele>696.60</ele>
        <time>2022-04-17T11:01:40+00:00</time>
      </trkpt>
      <trkpt lat="40.872231" lon="-3.458762">
        <ele>698.04</ele>
        <time>2022-04-17T11:01:47+00:00</time>
      </trkpt>
      <trkpt lat="40.870901" lon="-3.461316">
        <ele>697.08</ele>
        <time>2022-04-17T11:01:56+00:00</time>
      </trkpt>
      <trkpt lat="40.869570" lon="-3.464084">
        <ele>695.63</ele>
        <time>2022-04-17T11:02:05+00:00</time>
      </trkpt>
      <trkpt lat="40.867939" lon="-3.467367">
        <ele>693.71</ele>
        <time>2022-04-17T11:02:16+00:00</time>
      </trkpt>
      <trkpt lat="40.866266" lon="-3.470435">
        <ele>694.19</ele>
        <time>2022-04-17T11:02:27+00:00</time>
      </trkpt>
      <trkpt lat="40.865086" lon="-3.472495">
        <ele>696.60</ele>
        <time>2022-04-17T11:02:36+00:00</time>
      </trkpt>
      <trkpt lat="40.864957" lon="-3.472667">
        <ele>696.60</ele>
        <time>2022-04-17T11:02:37+00:00</time>
      </trkpt>
      <trkpt lat="40.864807" lon="-3.472796">
        <ele>697.08</ele>
        <time>2022-04-17T11:02:38+00:00</time>
      </trkpt>
      <trkpt lat="40.864635" lon="-3.472946">
        <ele>697.08</ele>
        <time>2022-04-17T11:02:39+00:00</time>
      </trkpt>
      <trkpt lat="40.864463" lon="-3.473074">
        <ele>697.56</ele>
        <time>2022-04-17T11:02:40+00:00</time>
      </trkpt>
      <trkpt lat="40.864270" lon="-3.473225">
        <ele>697.56</ele>
        <time>2022-04-17T11:02:41+00:00</time>
      </trkpt>
      <trkpt lat="40.864077" lon="-3.473418">
        <ele>698.04</ele>
        <time>2022-04-17T11:02:42+00:00</time>
      </trkpt>
      <trkpt lat="40.863905" lon="-3.473632">
        <ele>698.04</ele>
        <time>2022-04-17T11:02:43+00:00</time>
      </trkpt>
      <trkpt lat="40.862532" lon="-3.475349">
        <ele>697.56</ele>
        <time>2022-04-17T11:02:50+00:00</time>
      </trkpt>
      <trkpt lat="40.861438" lon="-3.476722">
        <ele>698.52</ele>
        <time>2022-04-17T11:02:56+00:00</time>
      </trkpt>
      <trkpt lat="40.860043" lon="-3.478482">
        <ele>698.52</ele>
        <time>2022-04-17T11:03:06+00:00</time>
      </trkpt>
      <trkpt lat="40.859142" lon="-3.479619">
        <ele>699.96</ele>
        <time>2022-04-17T11:03:14+00:00</time>
      </trkpt>
      <trkpt lat="40.857811" lon="-3.481293">
        <ele>703.81</ele>
        <time>2022-04-17T11:03:26+00:00</time>
      </trkpt>
      <trkpt lat="40.856889" lon="-3.482473">
        <ele>706.21</ele>
        <time>2022-04-17T11:03:36+00:00</time>
      </trkpt>
      <trkpt lat="40.855880" lon="-3.483739">
        <ele>707.17</ele>
        <time>2022-04-17T11:03:48+00:00</time>
      </trkpt>
      <trkpt lat="40.854958" lon="-3.484898">
        <ele>707.17</ele>
        <time>2022-04-17T11:04:00+00:00</time>
      </trkpt>
      <trkpt lat="40.853842" lon="-3.486314">
        <ele>704.29</ele>
        <time>2022-04-17T11:04:12+00:00</time>
      </trkpt>
      <trkpt lat="40.853198" lon="-3.487108">
        <ele>702.84</ele>
        <time>2022-04-17T11:04:20+00:00</time>
      </trkpt>
      <trkpt lat="40.852554" lon="-3.487945">
        <ele>699.96</ele>
        <time>2022-04-17T11:04:27+00:00</time>
      </trkpt>
      <trkpt lat="40.851653" lon="-3.489103">
        <ele>696.60</ele>
        <time>2022-04-17T11:04:35+00:00</time>
      </trkpt>
      <trkpt lat="40.850666" lon="-3.490348">
        <ele>694.67</ele>
        <time>2022-04-17T11:04:40+00:00</time>
      </trkpt>
      <trkpt lat="40.848949" lon="-3.492515">
        <ele>696.60</ele>
        <time>2022-04-17T11:04:47+00:00</time>
      </trkpt>
      <trkpt lat="40.847426" lon="-3.494446">
        <ele>702.84</ele>
        <time>2022-04-17T11:04:54+00:00</time>
      </trkpt>
      <trkpt lat="40.846010" lon="-3.496249">
        <ele>708.61</ele>
        <time>2022-04-17T11:05:00+00:00</time>
      </trkpt>
      <trkpt lat="40.844594" lon="-3.498158">
        <ele>714.38</ele>
        <time>2022-04-17T11:05:07+00:00</time>
      </trkpt>
      <trkpt lat="40.844422" lon="-3.498502">
        <ele>714.86</ele>
        <time>2022-04-17T11:05:08+00:00</time>
      </trkpt>
      <trkpt lat="40.843328" lon="-3.501163">
        <ele>719.19</ele>
        <time>2022-04-17T11:05:16+00:00</time>
      </trkpt>
      <trkpt lat="40.842448" lon="-3.503287">
        <ele>723.51</ele>
        <time>2022-04-17T11:05:24+00:00</time>
      </trkpt>
      <trkpt lat="40.841182" lon="-3.505969">
        <ele>723.51</ele>
        <time>2022-04-17T11:05:33+00:00</time>
      </trkpt>
      <trkpt lat="40.840323" lon="-3.508050">
        <ele>725.92</ele>
        <time>2022-04-17T11:05:39+00:00</time>
      </trkpt>
      <trkpt lat="40.839744" lon="-3.509574">
        <ele>729.28</ele>
        <time>2022-04-17T11:05:45+00:00</time>
      </trkpt>
      <trkpt lat="40.839079" lon="-3.511334">
        <ele>733.13</ele>
        <time>2022-04-17T11:05:54+00:00</time>
      </trkpt>
      <trkpt lat="40.838221" lon="-3.513050">
        <ele>736.49</ele>
        <time>2022-04-17T11:06:03+00:00</time>
      </trkpt>
      <trkpt lat="40.837384" lon="-3.515174">
        <ele>740.82</ele>
        <time>2022-04-17T11:06:13+00:00</time>
      </trkpt>
      <trkpt lat="40.836440" lon="-3.517213">
        <ele>743.22</ele>
        <time>2022-04-17T11:06:22+00:00</time>
      </trkpt>
      <trkpt lat="40.834980" lon="-3.519723">
        <ele>742.26</ele>
        <time>2022-04-17T11:06:34+00:00</time>
      </trkpt>
      <trkpt lat="40.833629" lon="-3.521054">
        <ele>740.34</ele>
        <time>2022-04-17T11:06:43+00:00</time>
      </trkpt>
      <trkpt lat="40.832663" lon="-3.521998">
        <ele>739.85</ele>
        <time>2022-04-17T11:06:49+00:00</time>
      </trkpt>
      <trkpt lat="40.832513" lon="-3.522213">
        <ele>739.85</ele>
        <time>2022-04-17T11:06:50+00:00</time>
      </trkpt>
      <trkpt lat="40.831547" lon="-3.523779">
        <ele>737.93</ele>
        <time>2022-04-17T11:06:57+00:00</time>
      </trkpt>
      <trkpt lat="40.830281" lon="-3.525860">
        <ele>734.57</ele>
        <time>2022-04-17T11:07:04+00:00</time>
      </trkpt>
      <trkpt lat="40.829080" lon="-3.528028">
        <ele>734.57</ele>
        <time>2022-04-17T11:07:12+00:00</time>
      </trkpt>
      <trkpt lat="40.828221" lon="-3.529980">
        <ele>733.13</ele>
        <time>2022-04-17T11:07:21+00:00</time>
      </trkpt>
      <trkpt lat="40.827685" lon="-3.531289">
        <ele>733.13</ele>
        <time>2022-04-17T11:07:29+00:00</time>
      </trkpt>
      <trkpt lat="40.827663" lon="-3.531461">
        <ele>733.13</ele>
        <time>2022-04-17T11:07:30+00:00</time>
      </trkpt>
      <trkpt lat="40.827642" lon="-3.531654">
        <ele>733.13</ele>
        <time>2022-04-17T11:07:31+00:00</time>
      </trkpt>
      <trkpt lat="40.827513" lon="-3.533371">
        <ele>726.88</ele>
        <time>2022-04-17T11:07:41+00:00</time>
      </trkpt>
      <trkpt lat="40.827384" lon="-3.534486">
        <ele>720.63</ele>
        <time>2022-04-17T11:07:50+00:00</time>
      </trkpt>
      <trkpt lat="40.827406" lon="-3.534830">
        <ele>717.74</ele>
        <time>2022-04-17T11:07:54+00:00</time>
      </trkpt>
      <trkpt lat="40.827427" lon="-3.534915">
        <ele>717.26</ele>
        <time>2022-04-17T11:07:55+00:00</time>
      </trkpt>
      <trkpt lat="40.827449" lon="-3.535001">
        <ele>716.78</ele>
        <time>2022-04-17T11:07:56+00:00</time>
      </trkpt>
      <trkpt lat="40.827449" lon="-3.535066">
        <ele>716.30</ele>
        <time>2022-04-17T11:07:57+00:00</time>
      </trkpt>
      <trkpt lat="40.827449" lon="-3.535152">
        <ele>716.30</ele>
        <time>2022-04-17T11:07:58+00:00</time>
      </trkpt>
      <trkpt lat="40.827427" lon="-3.535237">
        <ele>715.82</ele>
        <time>2022-04-17T11:07:59+00:00</time>
      </trkpt>
      <trkpt lat="40.827427" lon="-3.535302">
        <ele>715.34</ele>
        <time>2022-04-17T11:08:00+00:00</time>
      </trkpt>
      <trkpt lat="40.827384" lon="-3.535388">
        <ele>715.34</ele>
        <time>2022-04-17T11:08:01+00:00</time>
      </trkpt>
      <trkpt lat="40.827342" lon="-3.535473">
        <ele>715.34</ele>
        <time>2022-04-17T11:08:02+00:00</time>
      </trkpt>
      <trkpt lat="40.826891" lon="-3.536396">
        <ele>718.71</ele>
        <time>2022-04-17T11:08:14+00:00</time>
      </trkpt>
      <trkpt lat="40.826719" lon="-3.536782">
        <ele>721.11</ele>
        <time>2022-04-17T11:08:20+00:00</time>
      </trkpt>
      <trkpt lat="40.826526" lon="-3.537533">
        <ele>725.92</ele>
        <time>2022-04-17T11:08:31+00:00</time>
      </trkpt>
      <trkpt lat="40.826526" lon="-3.538220">
        <ele>729.28</ele>
        <time>2022-04-17T11:08:43+00:00</time>
      </trkpt>
      <trkpt lat="40.826526" lon="-3.538263">
        <ele>729.76</ele>
        <time>2022-04-17T11:08:45+00:00</time>
      </trkpt>
      <trkpt lat="40.826483" lon="-3.538306">
        <ele>730.72</ele>
        <time>2022-04-17T11:08:50+00:00</time>
      </trkpt>
      <trkpt lat="40.826462" lon="-3.538327">
        <ele>731.20</ele>
        <time>2022-04-17T11:08:51+00:00</time>
      </trkpt>
      <trkpt lat="40.826397" lon="-3.538349">
        <ele>731.20</ele>
        <time>2022-04-17T11:08:52+00:00</time>
      </trkpt>
      <trkpt lat="40.825882" lon="-3.538606">
        <ele>732.65</ele>
        <time>2022-04-17T11:09:01+00:00</time>
      </trkpt>
      <trkpt lat="40.825840" lon="-3.538713">
        <ele>732.65</ele>
        <time>2022-04-17T11:09:02+00:00</time>
      </trkpt>
      <trkpt lat="40.825818" lon="-3.538799">
        <ele>732.65</ele>
        <time>2022-04-17T11:09:03+00:00</time>
      </trkpt>
      <trkpt lat="40.825582" lon="-3.539786">
        <ele>735.53</ele>
        <time>2022-04-17T11:09:13+00:00</time>
      </trkpt>
      <trkpt lat="40.825303" lon="-3.541052">
        <ele>736.97</ele>
        <time>2022-04-17T11:09:24+00:00</time>
      </trkpt>
      <trkpt lat="40.824960" lon="-3.542147">
        <ele>735.05</ele>
        <time>2022-04-17T11:09:33+00:00</time>
      </trkpt>
      <trkpt lat="40.824359" lon="-3.543971">
        <ele>729.76</ele>
        <time>2022-04-17T11:09:45+00:00</time>
      </trkpt>
      <trkpt lat="40.823780" lon="-3.545044">
        <ele>729.76</ele>
        <time>2022-04-17T11:09:53+00:00</time>
      </trkpt>
      <trkpt lat="40.823243" lon="-3.545558">
        <ele>731.20</ele>
        <time>2022-04-17T11:09:59+00:00</time>
      </trkpt>
      <trkpt lat="40.823136" lon="-3.545623">
        <ele>731.68</ele>
        <time>2022-04-17T11:10:00+00:00</time>
      </trkpt>
      <trkpt lat="40.822943" lon="-3.546116">
        <ele>731.20</ele>
        <time>2022-04-17T11:10:03+00:00</time>
      </trkpt>
      <trkpt lat="40.822921" lon="-3.546288">
        <ele>730.72</ele>
        <time>2022-04-17T11:10:04+00:00</time>
      </trkpt>
      <trkpt lat="40.822578" lon="-3.548026">
        <ele>725.92</ele>
        <time>2022-04-17T11:10:12+00:00</time>
      </trkpt>
      <trkpt lat="40.822106" lon="-3.550386">
        <ele>723.03</ele>
        <time>2022-04-17T11:10:20+00:00</time>
      </trkpt>
      <trkpt lat="40.821698" lon="-3.553391">
        <ele>720.63</ele>
        <time>2022-04-17T11:10:29+00:00</time>
      </trkpt>
      <trkpt lat="40.821290" lon="-3.556438">
        <ele>717.74</ele>
        <time>2022-04-17T11:10:39+00:00</time>
      </trkpt>
      <trkpt lat="40.820904" lon="-3.559549">
        <ele>714.86</ele>
        <time>2022-04-17T11:10:50+00:00</time>
      </trkpt>
      <trkpt lat="40.820797" lon="-3.560772">
        <ele>714.86</ele>
        <time>2022-04-17T11:10:55+00:00</time>
      </trkpt>
      <trkpt lat="40.820733" lon="-3.561029">
        <ele>714.86</ele>
        <time>2022-04-17T11:10:56+00:00</time>
      </trkpt>
      <trkpt lat="40.820647" lon="-3.561266">
        <ele>714.86</ele>
        <time>2022-04-17T11:10:57+00:00</time>
      </trkpt>
      <trkpt lat="40.820518" lon="-3.561459">
        <ele>714.86</ele>
        <time>2022-04-17T11:10:58+00:00</time>
      </trkpt>
      <trkpt lat="40.820389" lon="-3.561673">
        <ele>714.86</ele>
        <time>2022-04-17T11:10:59+00:00</time>
      </trkpt>
      <trkpt lat="40.820218" lon="-3.561823">
        <ele>715.34</ele>
        <time>2022-04-17T11:11:00+00:00</time>
      </trkpt>
      <trkpt lat="40.820067" lon="-3.561974">
        <ele>715.34</ele>
        <time>2022-04-17T11:11:01+00:00</time>
      </trkpt>
      <trkpt lat="40.819917" lon="-3.562102">
        <ele>715.34</ele>
        <time>2022-04-17T11:11:02+00:00</time>
      </trkpt>
      <trkpt lat="40.819746" lon="-3.562253">
        <ele>715.34</ele>
        <time>2022-04-17T11:11:03+00:00</time>
      </trkpt>
      <trkpt lat="40.819402" lon="-3.562553">
        <ele>715.34</ele>
        <time>2022-04-17T11:11:05+00:00</time>
      </trkpt>
      <trkpt lat="40.819209" lon="-3.562703">
        <ele>715.34</ele>
        <time>2022-04-17T11:11:06+00:00</time>
      </trkpt>
      <trkpt lat="40.819059" lon="-3.562939">
        <ele>714.86</ele>
        <time>2022-04-17T11:11:07+00:00</time>
      </trkpt>
      <trkpt lat="40.818930" lon="-3.563175">
        <ele>714.86</ele>
        <time>2022-04-17T11:11:08+00:00</time>
      </trkpt>
      <trkpt lat="40.818823" lon="-3.563476">
        <ele>715.34</ele>
        <time>2022-04-17T11:11:09+00:00</time>
      </trkpt>
      <trkpt lat="40.818716" lon="-3.563733">
        <ele>715.34</ele>
        <time>2022-04-17T11:11:10+00:00</time>
      </trkpt>
      <trkpt lat="40.818651" lon="-3.564034">
        <ele>716.30</ele>
        <time>2022-04-17T11:11:11+00:00</time>
      </trkpt>
      <trkpt lat="40.818608" lon="-3.564613">
        <ele>717.26</ele>
        <time>2022-04-17T11:11:13+00:00</time>
      </trkpt>
      <trkpt lat="40.818608" lon="-3.564913">
        <ele>717.74</ele>
        <time>2022-04-17T11:11:14+00:00</time>
      </trkpt>
      <trkpt lat="40.818630" lon="-3.567102">
        <ele>720.63</ele>
        <time>2022-04-17T11:11:22+00:00</time>
      </trkpt>
      <trkpt lat="40.818608" lon="-3.567359">
        <ele>721.11</ele>
        <time>2022-04-17T11:11:23+00:00</time>
      </trkpt>
      <trkpt lat="40.818544" lon="-3.567638">
        <ele>721.11</ele>
        <time>2022-04-17T11:11:24+00:00</time>
      </trkpt>
      <trkpt lat="40.818480" lon="-3.567939">
        <ele>721.11</ele>
        <time>2022-04-17T11:11:25+00:00</time>
      </trkpt>
      <trkpt lat="40.818372" lon="-3.568196">
        <ele>721.59</ele>
        <time>2022-04-17T11:11:26+00:00</time>
      </trkpt>
      <trkpt lat="40.818286" lon="-3.568497">
        <ele>721.59</ele>
        <time>2022-04-17T11:11:27+00:00</time>
      </trkpt>
      <trkpt lat="40.818136" lon="-3.568776">
        <ele>722.07</ele>
        <time>2022-04-17T11:11:28+00:00</time>
      </trkpt>
      <trkpt lat="40.817771" lon="-3.569655">
        <ele>724.95</ele>
        <time>2022-04-17T11:11:31+00:00</time>
      </trkpt>
      <trkpt lat="40.817686" lon="-3.569956">
        <ele>725.92</ele>
        <time>2022-04-17T11:11:32+00:00</time>
      </trkpt>
      <trkpt lat="40.817621" lon="-3.570278">
        <ele>727.84</ele>
        <time>2022-04-17T11:11:33+00:00</time>
      </trkpt>
      <trkpt lat="40.817578" lon="-3.570643">
        <ele>729.28</ele>
        <time>2022-04-17T11:11:34+00:00</time>
      </trkpt>
      <trkpt lat="40.817535" lon="-3.571007">
        <ele>730.72</ele>
        <time>2022-04-17T11:11:35+00:00</time>
      </trkpt>
      <trkpt lat="40.817321" lon="-3.573883">
        <ele>739.85</ele>
        <time>2022-04-17T11:11:42+00:00</time>
      </trkpt>
      <trkpt lat="40.817128" lon="-3.575900">
        <ele>750.43</ele>
        <time>2022-04-17T11:11:48+00:00</time>
      </trkpt>
      <trkpt lat="40.816699" lon="-3.578260">
        <ele>763.89</ele>
        <time>2022-04-17T11:11:56+00:00</time>
      </trkpt>
      <trkpt lat="40.815948" lon="-3.580191">
        <ele>773.50</ele>
        <time>2022-04-17T11:12:02+00:00</time>
      </trkpt>
      <trkpt lat="40.814789" lon="-3.582981">
        <ele>787.92</ele>
        <time>2022-04-17T11:12:09+00:00</time>
      </trkpt>
      <trkpt lat="40.813480" lon="-3.586156">
        <ele>805.70</ele>
        <time>2022-04-17T11:12:17+00:00</time>
      </trkpt>
      <trkpt lat="40.812793" lon="-3.588195">
        <ele>809.55</ele>
        <time>2022-04-17T11:12:23+00:00</time>
      </trkpt>
      <trkpt lat="40.812729" lon="-3.589976">
        <ele>805.70</ele>
        <time>2022-04-17T11:12:28+00:00</time>
      </trkpt>
      <trkpt lat="40.812879" lon="-3.591564">
        <ele>798.98</ele>
        <time>2022-04-17T11:12:33+00:00</time>
      </trkpt>
      <trkpt lat="40.812836" lon="-3.591864">
        <ele>797.05</ele>
        <time>2022-04-17T11:12:34+00:00</time>
      </trkpt>
      <trkpt lat="40.812793" lon="-3.592143">
        <ele>795.13</ele>
        <time>2022-04-17T11:12:35+00:00</time>
      </trkpt>
      <trkpt lat="40.812707" lon="-3.592422">
        <ele>793.21</ele>
        <time>2022-04-17T11:12:36+00:00</time>
      </trkpt>
      <trkpt lat="40.812600" lon="-3.592680">
        <ele>791.28</ele>
        <time>2022-04-17T11:12:37+00:00</time>
      </trkpt>
      <trkpt lat="40.812471" lon="-3.592937">
        <ele>789.36</ele>
        <time>2022-04-17T11:12:38+00:00</time>
      </trkpt>
      <trkpt lat="40.812321" lon="-3.593173">
        <ele>787.44</ele>
        <time>2022-04-17T11:12:39+00:00</time>
      </trkpt>
      <trkpt lat="40.812171" lon="-3.593388">
        <ele>785.52</ele>
        <time>2022-04-17T11:12:40+00:00</time>
      </trkpt>
      <trkpt lat="40.810798" lon="-3.595319">
        <ele>773.50</ele>
        <time>2022-04-17T11:12:48+00:00</time>
      </trkpt>
      <trkpt lat="40.808824" lon="-3.598065">
        <ele>771.10</ele>
        <time>2022-04-17T11:12:59+00:00</time>
      </trkpt>
      <trkpt lat="40.807128" lon="-3.600104">
        <ele>770.62</ele>
        <time>2022-04-17T11:13:07+00:00</time>
      </trkpt>
      <trkpt lat="40.806571" lon="-3.600791">
        <ele>772.06</ele>
        <time>2022-04-17T11:13:10+00:00</time>
      </trkpt>
      <trkpt lat="40.806399" lon="-3.601069">
        <ele>772.54</ele>
        <time>2022-04-17T11:13:11+00:00</time>
      </trkpt>
      <trkpt lat="40.806270" lon="-3.601391">
        <ele>773.02</ele>
        <time>2022-04-17T11:13:12+00:00</time>
      </trkpt>
      <trkpt lat="40.806141" lon="-3.601713">
        <ele>773.50</ele>
        <time>2022-04-17T11:13:13+00:00</time>
      </trkpt>
      <trkpt lat="40.806034" lon="-3.602078">
        <ele>773.98</ele>
        <time>2022-04-17T11:13:14+00:00</time>
      </trkpt>
      <trkpt lat="40.805927" lon="-3.602443">
        <ele>773.98</ele>
        <time>2022-04-17T11:13:15+00:00</time>
      </trkpt>
      <trkpt lat="40.804918" lon="-3.604910">
        <ele>776.38</ele>
        <time>2022-04-17T11:13:22+00:00</time>
      </trkpt>
      <trkpt lat="40.803524" lon="-3.607314">
        <ele>782.63</ele>
        <time>2022-04-17T11:13:30+00:00</time>
      </trkpt>
      <trkpt lat="40.801700" lon="-3.609717">
        <ele>790.32</ele>
        <time>2022-04-17T11:13:39+00:00</time>
      </trkpt>
      <trkpt lat="40.800455" lon="-3.612056">
        <ele>794.17</ele>
        <time>2022-04-17T11:13:46+00:00</time>
      </trkpt>
      <trkpt lat="40.799253" lon="-3.614008">
        <ele>799.94</ele>
        <time>2022-04-17T11:13:53+00:00</time>
      </trkpt>
      <trkpt lat="40.798073" lon="-3.615446">
        <ele>807.15</ele>
        <time>2022-04-17T11:14:00+00:00</time>
      </trkpt>
      <trkpt lat="40.797859" lon="-3.615596">
        <ele>808.11</ele>
        <time>2022-04-17T11:14:01+00:00</time>
      </trkpt>
      <trkpt lat="40.797623" lon="-3.615704">
        <ele>809.07</ele>
        <time>2022-04-17T11:14:02+00:00</time>
      </trkpt>
      <trkpt lat="40.797408" lon="-3.615789">
        <ele>810.51</ele>
        <time>2022-04-17T11:14:03+00:00</time>
      </trkpt>
      <trkpt lat="40.797172" lon="-3.615832">
        <ele>811.47</ele>
        <time>2022-04-17T11:14:04+00:00</time>
      </trkpt>
      <trkpt lat="40.796936" lon="-3.615875">
        <ele>812.43</ele>
        <time>2022-04-17T11:14:05+00:00</time>
      </trkpt>
      <trkpt lat="40.795391" lon="-3.616154">
        <ele>822.53</ele>
        <time>2022-04-17T11:14:13+00:00</time>
      </trkpt>
      <trkpt lat="40.793889" lon="-3.616476">
        <ele>833.58</ele>
        <time>2022-04-17T11:14:21+00:00</time>
      </trkpt>
      <trkpt lat="40.793739" lon="-3.616562">
        <ele>835.02</ele>
        <time>2022-04-17T11:14:22+00:00</time>
      </trkpt>
      <trkpt lat="40.793589" lon="-3.616648">
        <ele>836.47</ele>
        <time>2022-04-17T11:14:23+00:00</time>
      </trkpt>
      <trkpt lat="40.793288" lon="-3.616884">
        <ele>840.31</ele>
        <time>2022-04-17T11:14:26+00:00</time>
      </trkpt>
      <trkpt lat="40.793224" lon="-3.616948">
        <ele>840.79</ele>
        <time>2022-04-17T11:14:27+00:00</time>
      </trkpt>
      <trkpt lat="40.793159" lon="-3.617055">
        <ele>841.75</ele>
        <time>2022-04-17T11:14:28+00:00</time>
      </trkpt>
      <trkpt lat="40.793159" lon="-3.617141">
        <ele>842.23</ele>
        <time>2022-04-17T11:14:29+00:00</time>
      </trkpt>
      <trkpt lat="40.793181" lon="-3.617206">
        <ele>842.23</ele>
        <time>2022-04-17T11:14:30+00:00</time>
      </trkpt>
      <trkpt lat="40.793138" lon="-3.617313">
        <ele>842.72</ele>
        <time>2022-04-17T11:14:31+00:00</time>
      </trkpt>
      <trkpt lat="40.793095" lon="-3.617356">
        <ele>842.72</ele>
        <time>2022-04-17T11:14:32+00:00</time>
      </trkpt>
      <trkpt lat="40.793031" lon="-3.617356">
        <ele>843.20</ele>
        <time>2022-04-17T11:14:33+00:00</time>
      </trkpt>
      <trkpt lat="40.792966" lon="-3.617356">
        <ele>843.20</ele>
        <time>2022-04-17T11:14:34+00:00</time>
      </trkpt>
      <trkpt lat="40.792838" lon="-3.617420">
        <ele>843.68</ele>
        <time>2022-04-17T11:14:35+00:00</time>
      </trkpt>
      <trkpt lat="40.792795" lon="-3.617506">
        <ele>843.68</ele>
        <time>2022-04-17T11:14:36+00:00</time>
      </trkpt>
      <trkpt lat="40.792709" lon="-3.617613">
        <ele>843.68</ele>
        <time>2022-04-17T11:14:37+00:00</time>
      </trkpt>
      <trkpt lat="40.791893" lon="-3.618879">
        <ele>843.68</ele>
        <time>2022-04-17T11:14:47+00:00</time>
      </trkpt>
      <trkpt lat="40.791786" lon="-3.619030">
        <ele>844.16</ele>
        <time>2022-04-17T11:14:49+00:00</time>
      </trkpt>
      <trkpt lat="40.791765" lon="-3.619051">
        <ele>844.16</ele>
        <time>2022-04-17T11:14:50+00:00</time>
      </trkpt>
      <trkpt lat="40.791743" lon="-3.619094">
        <ele>844.16</ele>
        <time>2022-04-17T11:14:51+00:00</time>
      </trkpt>
      <trkpt lat="40.791743" lon="-3.619115">
        <ele>844.16</ele>
        <time>2022-04-17T11:14:52+00:00</time>
      </trkpt>
      <trkpt lat="40.791743" lon="-3.619223">
        <ele>844.16</ele>
        <time>2022-04-17T11:14:53+00:00</time>
      </trkpt>
      <trkpt lat="40.791765" lon="-3.619287">
        <ele>844.16</ele>
        <time>2022-04-17T11:14:54+00:00</time>
      </trkpt>
      <trkpt lat="40.791743" lon="-3.619373">
        <ele>844.64</ele>
        <time>2022-04-17T11:14:55+00:00</time>
      </trkpt>
      <trkpt lat="40.791700" lon="-3.619459">
        <ele>844.64</ele>
        <time>2022-04-17T11:14:56+00:00</time>
      </trkpt>
      <trkpt lat="40.791657" lon="-3.619523">
        <ele>844.64</ele>
        <time>2022-04-17T11:14:57+00:00</time>
      </trkpt>
      <trkpt lat="40.791486" lon="-3.619480">
        <ele>844.64</ele>
        <time>2022-04-17T11:14:58+00:00</time>
      </trkpt>
      <trkpt lat="40.791400" lon="-3.619587">
        <ele>844.16</ele>
        <time>2022-04-17T11:14:59+00:00</time>
      </trkpt>
      <trkpt lat="40.791314" lon="-3.619738">
        <ele>844.16</ele>
        <time>2022-04-17T11:15:00+00:00</time>
      </trkpt>
      <trkpt lat="40.791228" lon="-3.619888">
        <ele>844.16</ele>
        <time>2022-04-17T11:15:01+00:00</time>
      </trkpt>
      <trkpt lat="40.790456" lon="-3.621025">
        <ele>843.68</ele>
        <time>2022-04-17T11:15:07+00:00</time>
      </trkpt>
      <trkpt lat="40.788825" lon="-3.623471">
        <ele>844.16</ele>
        <time>2022-04-17T11:15:17+00:00</time>
      </trkpt>
      <trkpt lat="40.787774" lon="-3.625059">
        <ele>840.79</ele>
        <time>2022-04-17T11:15:22+00:00</time>
      </trkpt>
      <trkpt lat="40.785563" lon="-3.628407">
        <ele>829.26</ele>
        <time>2022-04-17T11:15:31+00:00</time>
      </trkpt>
      <trkpt lat="40.783890" lon="-3.630874">
        <ele>826.37</ele>
        <time>2022-04-17T11:15:38+00:00</time>
      </trkpt>
      <trkpt lat="40.783203" lon="-3.632097">
        <ele>826.85</ele>
        <time>2022-04-17T11:15:42+00:00</time>
      </trkpt>
      <trkpt lat="40.783096" lon="-3.632419">
        <ele>826.85</ele>
        <time>2022-04-17T11:15:43+00:00</time>
      </trkpt>
      <trkpt lat="40.783010" lon="-3.632762">
        <ele>826.85</ele>
        <time>2022-04-17T11:15:44+00:00</time>
      </trkpt>
      <trkpt lat="40.782967" lon="-3.633149">
        <ele>826.85</ele>
        <time>2022-04-17T11:15:45+00:00</time>
      </trkpt>
      <trkpt lat="40.782946" lon="-3.633535">
        <ele>826.85</ele>
        <time>2022-04-17T11:15:46+00:00</time>
      </trkpt>
      <trkpt lat="40.782903" lon="-3.633964">
        <ele>826.85</ele>
        <time>2022-04-17T11:15:47+00:00</time>
      </trkpt>
      <trkpt lat="40.782667" lon="-3.637419">
        <ele>827.33</ele>
        <time>2022-04-17T11:15:55+00:00</time>
      </trkpt>
      <trkpt lat="40.782388" lon="-3.638599">
        <ele>827.81</ele>
        <time>2022-04-17T11:15:58+00:00</time>
      </trkpt>
      <trkpt lat="40.782238" lon="-3.638964">
        <ele>827.81</ele>
        <time>2022-04-17T11:15:59+00:00</time>
      </trkpt>
      <trkpt lat="40.782066" lon="-3.639329">
        <ele>828.30</ele>
        <time>2022-04-17T11:16:00+00:00</time>
      </trkpt>
      <trkpt lat="40.780843" lon="-3.641775">
        <ele>831.66</ele>
        <time>2022-04-17T11:16:07+00:00</time>
      </trkpt>
      <trkpt lat="40.780757" lon="-3.642097">
        <ele>832.14</ele>
        <time>2022-04-17T11:16:08+00:00</time>
      </trkpt>
      <trkpt lat="40.780671" lon="-3.642418">
        <ele>832.62</ele>
        <time>2022-04-17T11:16:09+00:00</time>
      </trkpt>
      <trkpt lat="40.780585" lon="-3.642762">
        <ele>833.58</ele>
        <time>2022-04-17T11:16:10+00:00</time>
      </trkpt>
      <trkpt lat="40.780542" lon="-3.643127">
        <ele>834.06</ele>
        <time>2022-04-17T11:16:11+00:00</time>
      </trkpt>
      <trkpt lat="40.780521" lon="-3.643513">
        <ele>835.02</ele>
        <time>2022-04-17T11:16:12+00:00</time>
      </trkpt>
      <trkpt lat="40.780564" lon="-3.643899">
        <ele>835.51</ele>
        <time>2022-04-17T11:16:13+00:00</time>
      </trkpt>
      <trkpt lat="40.780585" lon="-3.644285">
        <ele>836.47</ele>
        <time>2022-04-17T11:16:14+00:00</time>
      </trkpt>
      <trkpt lat="40.780735" lon="-3.647418">
        <ele>838.87</ele>
        <time>2022-04-17T11:16:22+00:00</time>
      </trkpt>
      <trkpt lat="40.780607" lon="-3.650723">
        <ele>836.95</ele>
        <time>2022-04-17T11:16:29+00:00</time>
      </trkpt>
      <trkpt lat="40.780843" lon="-3.654478">
        <ele>834.54</ele>
        <time>2022-04-17T11:16:37+00:00</time>
      </trkpt>
      <trkpt lat="40.781208" lon="-3.656774">
        <ele>835.51</ele>
        <time>2022-04-17T11:16:43+00:00</time>
      </trkpt>
      <trkpt lat="40.781358" lon="-3.657117">
        <ele>835.99</ele>
        <time>2022-04-17T11:16:44+00:00</time>
      </trkpt>
      <trkpt lat="40.781508" lon="-3.657460">
        <ele>836.47</ele>
        <time>2022-04-17T11:16:45+00:00</time>
      </trkpt>
      <trkpt lat="40.781680" lon="-3.657782">
        <ele>836.47</ele>
        <time>2022-04-17T11:16:46+00:00</time>
      </trkpt>
      <trkpt lat="40.781873" lon="-3.658104">
        <ele>836.95</ele>
        <time>2022-04-17T11:16:47+00:00</time>
      </trkpt>
      <trkpt lat="40.782624" lon="-3.659627">
        <ele>838.39</ele>
        <time>2022-04-17T11:16:52+00:00</time>
      </trkpt>
      <trkpt lat="40.782731" lon="-3.659949">
        <ele>838.39</ele>
        <time>2022-04-17T11:16:53+00:00</time>
      </trkpt>
      <trkpt lat="40.782795" lon="-3.660293">
        <ele>838.39</ele>
        <time>2022-04-17T11:16:54+00:00</time>
      </trkpt>
      <trkpt lat="40.782817" lon="-3.660657">
        <ele>837.91</ele>
        <time>2022-04-17T11:16:55+00:00</time>
      </trkpt>
      <trkpt lat="40.782838" lon="-3.661044">
        <ele>837.91</ele>
        <time>2022-04-17T11:16:56+00:00</time>
      </trkpt>
      <trkpt lat="40.782860" lon="-3.661451">
        <ele>837.91</ele>
        <time>2022-04-17T11:16:57+00:00</time>
      </trkpt>
      <trkpt lat="40.782967" lon="-3.663383">
        <ele>837.91</ele>
        <time>2022-04-17T11:17:02+00:00</time>
      </trkpt>
      <trkpt lat="40.783053" lon="-3.663704">
        <ele>837.91</ele>
        <time>2022-04-17T11:17:03+00:00</time>
      </trkpt>
      <trkpt lat="40.783160" lon="-3.664026">
        <ele>837.91</ele>
        <time>2022-04-17T11:17:04+00:00</time>
      </trkpt>
      <trkpt lat="40.783289" lon="-3.664327">
        <ele>837.91</ele>
        <time>2022-04-17T11:17:05+00:00</time>
      </trkpt>
      <trkpt lat="40.783461" lon="-3.664627">
        <ele>837.91</ele>
        <time>2022-04-17T11:17:06+00:00</time>
      </trkpt>
      <trkpt lat="40.783611" lon="-3.664928">
        <ele>837.91</ele>
        <time>2022-04-17T11:17:07+00:00</time>
      </trkpt>
      <trkpt lat="40.783825" lon="-3.665185">
        <ele>837.91</ele>
        <time>2022-04-17T11:17:08+00:00</time>
      </trkpt>
      <trkpt lat="40.785478" lon="-3.667331">
        <ele>836.47</ele>
        <time>2022-04-17T11:17:16+00:00</time>
      </trkpt>
      <trkpt lat="40.785778" lon="-3.667867">
        <ele>835.99</ele>
        <time>2022-04-17T11:17:18+00:00</time>
      </trkpt>
      <trkpt lat="40.785885" lon="-3.668168">
        <ele>835.51</ele>
        <time>2022-04-17T11:17:19+00:00</time>
      </trkpt>
      <trkpt lat="40.785971" lon="-3.668489">
        <ele>835.51</ele>
        <time>2022-04-17T11:17:20+00:00</time>
      </trkpt>
      <trkpt lat="40.786014" lon="-3.668811">
        <ele>835.02</ele>
        <time>2022-04-17T11:17:21+00:00</time>
      </trkpt>
      <trkpt lat="40.786057" lon="-3.669133">
        <ele>835.02</ele>
        <time>2022-04-17T11:17:22+00:00</time>
      </trkpt>
      <trkpt lat="40.786036" lon="-3.669455">
        <ele>835.02</ele>
        <time>2022-04-17T11:17:23+00:00</time>
      </trkpt>
      <trkpt lat="40.786014" lon="-3.669756">
        <ele>834.54</ele>
        <time>2022-04-17T11:17:24+00:00</time>
      </trkpt>
      <trkpt lat="40.785971" lon="-3.670034">
        <ele>834.54</ele>
        <time>2022-04-17T11:17:25+00:00</time>
      </trkpt>
      <trkpt lat="40.785907" lon="-3.670313">
        <ele>835.02</ele>
        <time>2022-04-17T11:17:26+00:00</time>
      </trkpt>
      <trkpt lat="40.785842" lon="-3.670571">
        <ele>834.54</ele>
        <time>2022-04-17T11:17:27+00:00</time>
      </trkpt>
      <trkpt lat="40.785456" lon="-3.672094">
        <ele>834.54</ele>
        <time>2022-04-17T11:17:33+00:00</time>
      </trkpt>
      <trkpt lat="40.785413" lon="-3.672352">
        <ele>834.54</ele>
        <time>2022-04-17T11:17:34+00:00</time>
      </trkpt>
      <trkpt lat="40.785413" lon="-3.672631">
        <ele>835.02</ele>
        <time>2022-04-17T11:17:35+00:00</time>
      </trkpt>
      <trkpt lat="40.785413" lon="-3.672910">
        <ele>835.51</ele>
        <time>2022-04-17T11:17:36+00:00</time>
      </trkpt>
      <trkpt lat="40.785435" lon="-3.673189">
        <ele>835.51</ele>
        <time>2022-04-17T11:17:37+00:00</time>
      </trkpt>
      <trkpt lat="40.785499" lon="-3.673468">
        <ele>835.51</ele>
        <time>2022-04-17T11:17:38+00:00</time>
      </trkpt>
      <trkpt lat="40.785563" lon="-3.673725">
        <ele>835.51</ele>
        <time>2022-04-17T11:17:39+00:00</time>
      </trkpt>
      <trkpt lat="40.785649" lon="-3.674004">
        <ele>835.99</ele>
        <time>2022-04-17T11:17:40+00:00</time>
      </trkpt>
      <trkpt lat="40.785735" lon="-3.674262">
        <ele>835.99</ele>
        <time>2022-04-17T11:17:41+00:00</time>
      </trkpt>
      <trkpt lat="40.786443" lon="-3.676279">
        <ele>838.39</ele>
        <time>2022-04-17T11:17:50+00:00</time>
      </trkpt>
      <trkpt lat="40.787130" lon="-3.678832">
        <ele>839.83</ele>
        <time>2022-04-17T11:18:00+00:00</time>
      </trkpt>
      <trkpt lat="40.787666" lon="-3.681643">
        <ele>838.87</ele>
        <time>2022-04-17T11:18:10+00:00</time>
      </trkpt>
      <trkpt lat="40.788439" lon="-3.682973">
        <ele>836.47</ele>
        <time>2022-04-17T11:18:16+00:00</time>
      </trkpt>
      <trkpt lat="40.789662" lon="-3.684089">
        <ele>834.54</ele>
        <time>2022-04-17T11:18:23+00:00</time>
      </trkpt>
      <trkpt lat="40.791550" lon="-3.685656">
        <ele>833.58</ele>
        <time>2022-04-17T11:18:33+00:00</time>
      </trkpt>
      <trkpt lat="40.792559" lon="-3.687286">
        <ele>834.06</ele>
        <time>2022-04-17T11:18:40+00:00</time>
      </trkpt>
      <trkpt lat="40.793159" lon="-3.689110">
        <ele>835.51</ele>
        <time>2022-04-17T11:18:47+00:00</time>
      </trkpt>
      <trkpt lat="40.793331" lon="-3.690612">
        <ele>837.43</ele>
        <time>2022-04-17T11:18:54+00:00</time>
      </trkpt>
      <trkpt lat="40.793331" lon="-3.691728">
        <ele>838.87</ele>
        <time>2022-04-17T11:19:01+00:00</time>
      </trkpt>
      <trkpt lat="40.793331" lon="-3.691835">
        <ele>838.87</ele>
        <time>2022-04-17T11:19:02+00:00</time>
      </trkpt>
      <trkpt lat="40.793417" lon="-3.692050">
        <ele>838.39</ele>
        <time>2022-04-17T11:19:04+00:00</time>
      </trkpt>
      <trkpt lat="40.793417" lon="-3.692200">
        <ele>838.39</ele>
        <time>2022-04-17T11:19:05+00:00</time>
      </trkpt>
      <trkpt lat="40.793396" lon="-3.692243">
        <ele>838.39</ele>
        <time>2022-04-17T11:19:06+00:00</time>
      </trkpt>
      <trkpt lat="40.793267" lon="-3.692372">
        <ele>837.91</ele>
        <time>2022-04-17T11:19:07+00:00</time>
      </trkpt>
      <trkpt lat="40.793245" lon="-3.692522">
        <ele>837.91</ele>
        <time>2022-04-17T11:19:08+00:00</time>
      </trkpt>
      <trkpt lat="40.793202" lon="-3.692672">
        <ele>837.91</ele>
        <time>2022-04-17T11:19:09+00:00</time>
      </trkpt>
      <trkpt lat="40.793181" lon="-3.692844">
        <ele>837.91</ele>
        <time>2022-04-17T11:19:10+00:00</time>
      </trkpt>
      <trkpt lat="40.793138" lon="-3.693037">
        <ele>837.91</ele>
        <time>2022-04-17T11:19:11+00:00</time>
      </trkpt>
      <trkpt lat="40.792709" lon="-3.694539">
        <ele>836.47</ele>
        <time>2022-04-17T11:19:18+00:00</time>
      </trkpt>
      <trkpt lat="40.791979" lon="-3.696213">
        <ele>836.95</ele>
        <time>2022-04-17T11:19:23+00:00</time>
      </trkpt>
      <trkpt lat="40.790713" lon="-3.698337">
        <ele>838.87</ele>
        <time>2022-04-17T11:19:29+00:00</time>
      </trkpt>
      <trkpt lat="40.789662" lon="-3.700483">
        <ele>846.08</ele>
        <time>2022-04-17T11:19:35+00:00</time>
      </trkpt>
      <trkpt lat="40.788804" lon="-3.703229">
        <ele>848.00</ele>
        <time>2022-04-17T11:19:42+00:00</time>
      </trkpt>
      <trkpt lat="40.788289" lon="-3.705139">
        <ele>848.00</ele>
        <time>2022-04-17T11:19:48+00:00</time>
      </trkpt>
      <trkpt lat="40.787795" lon="-3.705998">
        <ele>848.48</ele>
        <time>2022-04-17T11:19:53+00:00</time>
      </trkpt>
      <trkpt lat="40.787538" lon="-3.706276">
        <ele>849.92</ele>
        <time>2022-04-17T11:19:58+00:00</time>
      </trkpt>
      <trkpt lat="40.787452" lon="-3.706405">
        <ele>850.41</ele>
        <time>2022-04-17T11:20:00+00:00</time>
      </trkpt>
      <trkpt lat="40.787473" lon="-3.706470">
        <ele>850.41</ele>
        <time>2022-04-17T11:20:01+00:00</time>
      </trkpt>
      <trkpt lat="40.787452" lon="-3.706555">
        <ele>850.89</ele>
        <time>2022-04-17T11:20:02+00:00</time>
      </trkpt>
      <trkpt lat="40.787409" lon="-3.706620">
        <ele>850.89</ele>
        <time>2022-04-17T11:20:03+00:00</time>
      </trkpt>
      <trkpt lat="40.787323" lon="-3.706663">
        <ele>850.89</ele>
        <time>2022-04-17T11:20:04+00:00</time>
      </trkpt>
      <trkpt lat="40.787194" lon="-3.706641">
        <ele>851.37</ele>
        <time>2022-04-17T11:20:05+00:00</time>
      </trkpt>
      <trkpt lat="40.787108" lon="-3.706727">
        <ele>851.37</ele>
        <time>2022-04-17T11:20:06+00:00</time>
      </trkpt>
      <trkpt lat="40.787001" lon="-3.706813">
        <ele>851.85</ele>
        <time>2022-04-17T11:20:07+00:00</time>
      </trkpt>
      <trkpt lat="40.786851" lon="-3.706899">
        <ele>851.85</ele>
        <time>2022-04-17T11:20:08+00:00</time>
      </trkpt>
      <trkpt lat="40.786722" lon="-3.706985">
        <ele>852.33</ele>
        <time>2022-04-17T11:20:09+00:00</time>
      </trkpt>
      <trkpt lat="40.785885" lon="-3.707414">
        <ele>856.17</ele>
        <time>2022-04-17T11:20:16+00:00</time>
      </trkpt>
      <trkpt lat="40.784255" lon="-3.708379">
        <ele>862.90</ele>
        <time>2022-04-17T11:20:27+00:00</time>
      </trkpt>
      <trkpt lat="40.783697" lon="-3.709173">
        <ele>866.27</ele>
        <time>2022-04-17T11:20:32+00:00</time>
      </trkpt>
      <trkpt lat="40.783611" lon="-3.709388">
        <ele>866.27</ele>
        <time>2022-04-17T11:20:33+00:00</time>
      </trkpt>
      <trkpt lat="40.783525" lon="-3.709602">
        <ele>866.75</ele>
        <time>2022-04-17T11:20:34+00:00</time>
      </trkpt>
      <trkpt lat="40.783461" lon="-3.709860">
        <ele>866.75</ele>
        <time>2022-04-17T11:20:35+00:00</time>
      </trkpt>
      <trkpt lat="40.783418" lon="-3.710160">
        <ele>866.75</ele>
        <time>2022-04-17T11:20:36+00:00</time>
      </trkpt>
      <trkpt lat="40.783375" lon="-3.710461">
        <ele>867.23</ele>
        <time>2022-04-17T11:20:37+00:00</time>
      </trkpt>
      <trkpt lat="40.783353" lon="-3.710761">
        <ele>867.71</ele>
        <time>2022-04-17T11:20:38+00:00</time>
      </trkpt>
      <trkpt lat="40.783353" lon="-3.711062">
        <ele>868.19</ele>
        <time>2022-04-17T11:20:39+00:00</time>
      </trkpt>
      <trkpt lat="40.783160" lon="-3.712928">
        <ele>873.48</ele>
        <time>2022-04-17T11:20:46+00:00</time>
      </trkpt>
      <trkpt lat="40.783053" lon="-3.713143">
        <ele>873.96</ele>
        <time>2022-04-17T11:20:47+00:00</time>
      </trkpt>
      <trkpt lat="40.782967" lon="-3.713379">
        <ele>874.44</ele>
        <time>2022-04-17T11:20:48+00:00</time>
      </trkpt>
      <trkpt lat="40.782881" lon="-3.713615">
        <ele>875.40</ele>
        <time>2022-04-17T11:20:49+00:00</time>
      </trkpt>
      <trkpt lat="40.782753" lon="-3.713830">
        <ele>875.88</ele>
        <time>2022-04-17T11:20:50+00:00</time>
      </trkpt>
      <trkpt lat="40.782602" lon="-3.714023">
        <ele>876.84</ele>
        <time>2022-04-17T11:20:51+00:00</time>
      </trkpt>
      <trkpt lat="40.782452" lon="-3.714216">
        <ele>877.80</ele>
        <time>2022-04-17T11:20:52+00:00</time>
      </trkpt>
      <trkpt lat="40.782280" lon="-3.714430">
        <ele>878.76</ele>
        <time>2022-04-17T11:20:53+00:00</time>
      </trkpt>
      <trkpt lat="40.781572" lon="-3.715482">
        <ele>883.09</ele>
        <time>2022-04-17T11:20:58+00:00</time>
      </trkpt>
      <trkpt lat="40.781487" lon="-3.715739">
        <ele>884.05</ele>
        <time>2022-04-17T11:20:59+00:00</time>
      </trkpt>
      <trkpt lat="40.781401" lon="-3.715997">
        <ele>885.49</ele>
        <time>2022-04-17T11:21:00+00:00</time>
      </trkpt>
      <trkpt lat="40.781315" lon="-3.716276">
        <ele>886.45</ele>
        <time>2022-04-17T11:21:01+00:00</time>
      </trkpt>
      <trkpt lat="40.781250" lon="-3.716598">
        <ele>887.90</ele>
        <time>2022-04-17T11:21:02+00:00</time>
      </trkpt>
      <trkpt lat="40.781208" lon="-3.716898">
        <ele>889.34</ele>
        <time>2022-04-17T11:21:03+00:00</time>
      </trkpt>
      <trkpt lat="40.781186" lon="-3.717198">
        <ele>890.78</ele>
        <time>2022-04-17T11:21:04+00:00</time>
      </trkpt>
      <trkpt lat="40.781057" lon="-3.719516">
        <ele>903.28</ele>
        <time>2022-04-17T11:21:11+00:00</time>
      </trkpt>
      <trkpt lat="40.780972" lon="-3.720975">
        <ele>913.37</ele>
        <time>2022-04-17T11:21:17+00:00</time>
      </trkpt>
      <trkpt lat="40.780821" lon="-3.721855">
        <ele>918.66</ele>
        <time>2022-04-17T11:21:21+00:00</time>
      </trkpt>
      <trkpt lat="40.780778" lon="-3.722069">
        <ele>920.10</ele>
        <time>2022-04-17T11:21:22+00:00</time>
      </trkpt>
      <trkpt lat="40.780693" lon="-3.722284">
        <ele>921.06</ele>
        <time>2022-04-17T11:21:23+00:00</time>
      </trkpt>
      <trkpt lat="40.780607" lon="-3.722477">
        <ele>922.50</ele>
        <time>2022-04-17T11:21:24+00:00</time>
      </trkpt>
      <trkpt lat="40.780478" lon="-3.722670">
        <ele>922.98</ele>
        <time>2022-04-17T11:21:25+00:00</time>
      </trkpt>
      <trkpt lat="40.780371" lon="-3.722863">
        <ele>923.95</ele>
        <time>2022-04-17T11:21:26+00:00</time>
      </trkpt>
      <trkpt lat="40.780221" lon="-3.723013">
        <ele>924.91</ele>
        <time>2022-04-17T11:21:27+00:00</time>
      </trkpt>
      <trkpt lat="40.780070" lon="-3.723185">
        <ele>925.87</ele>
        <time>2022-04-17T11:21:28+00:00</time>
      </trkpt>
      <trkpt lat="40.779899" lon="-3.723335">
        <ele>926.35</ele>
        <time>2022-04-17T11:21:29+00:00</time>
      </trkpt>
      <trkpt lat="40.779727" lon="-3.723486">
        <ele>927.31</ele>
        <time>2022-04-17T11:21:30+00:00</time>
      </trkpt>
      <trkpt lat="40.779491" lon="-3.723614">
        <ele>928.27</ele>
        <time>2022-04-17T11:21:31+00:00</time>
      </trkpt>
      <trkpt lat="40.779255" lon="-3.723722">
        <ele>928.75</ele>
        <time>2022-04-17T11:21:32+00:00</time>
      </trkpt>
      <trkpt lat="40.778997" lon="-3.723807">
        <ele>929.71</ele>
        <time>2022-04-17T11:21:33+00:00</time>
      </trkpt>
      <trkpt lat="40.777174" lon="-3.724365">
        <ele>935.00</ele>
        <time>2022-04-17T11:21:39+00:00</time>
      </trkpt>
      <trkpt lat="40.776058" lon="-3.724794">
        <ele>937.40</ele>
        <time>2022-04-17T11:21:43+00:00</time>
      </trkpt>
      <trkpt lat="40.775843" lon="-3.724945">
        <ele>937.40</ele>
        <time>2022-04-17T11:21:44+00:00</time>
      </trkpt>
      <trkpt lat="40.775629" lon="-3.725138">
        <ele>937.88</ele>
        <time>2022-04-17T11:21:45+00:00</time>
      </trkpt>
      <trkpt lat="40.774084" lon="-3.726554">
        <ele>940.77</ele>
        <time>2022-04-17T11:21:51+00:00</time>
      </trkpt>
      <trkpt lat="40.772088" lon="-3.728635">
        <ele>947.02</ele>
        <time>2022-04-17T11:21:58+00:00</time>
      </trkpt>
      <trkpt lat="40.770994" lon="-3.729966">
        <ele>951.34</ele>
        <time>2022-04-17T11:22:03+00:00</time>
      </trkpt>
      <trkpt lat="40.770844" lon="-3.730309">
        <ele>952.30</ele>
        <time>2022-04-17T11:22:04+00:00</time>
      </trkpt>
      <trkpt lat="40.769599" lon="-3.733399">
        <ele>957.59</ele>
        <time>2022-04-17T11:22:12+00:00</time>
      </trkpt>
      <trkpt lat="40.768719" lon="-3.736274">
        <ele>960.48</ele>
        <time>2022-04-17T11:22:19+00:00</time>
      </trkpt>
      <trkpt lat="40.767003" lon="-3.743162">
        <ele>961.44</ele>
        <time>2022-04-17T11:22:35+00:00</time>
      </trkpt>
      <trkpt lat="40.766337" lon="-3.745523">
        <ele>968.17</ele>
        <time>2022-04-17T11:22:42+00:00</time>
      </trkpt>
      <trkpt lat="40.765651" lon="-3.746896">
        <ele>974.41</ele>
        <time>2022-04-17T11:22:48+00:00</time>
      </trkpt>
      <trkpt lat="40.765265" lon="-3.747454">
        <ele>977.30</ele>
        <time>2022-04-17T11:22:52+00:00</time>
      </trkpt>
      <trkpt lat="40.765222" lon="-3.747604">
        <ele>978.26</ele>
        <time>2022-04-17T11:22:53+00:00</time>
      </trkpt>
      <trkpt lat="40.765157" lon="-3.747776">
        <ele>978.74</ele>
        <time>2022-04-17T11:22:54+00:00</time>
      </trkpt>
      <trkpt lat="40.765028" lon="-3.748140">
        <ele>980.18</ele>
        <time>2022-04-17T11:22:56+00:00</time>
      </trkpt>
      <trkpt lat="40.764921" lon="-3.748291">
        <ele>980.66</ele>
        <time>2022-04-17T11:22:57+00:00</time>
      </trkpt>
      <trkpt lat="40.764685" lon="-3.748698">
        <ele>982.11</ele>
        <time>2022-04-17T11:22:59+00:00</time>
      </trkpt>
      <trkpt lat="40.764578" lon="-3.748934">
        <ele>983.07</ele>
        <time>2022-04-17T11:23:00+00:00</time>
      </trkpt>
      <trkpt lat="40.764492" lon="-3.749170">
        <ele>983.55</ele>
        <time>2022-04-17T11:23:01+00:00</time>
      </trkpt>
      <trkpt lat="40.763891" lon="-3.750501">
        <ele>988.35</ele>
        <time>2022-04-17T11:23:07+00:00</time>
      </trkpt>
      <trkpt lat="40.763054" lon="-3.752604">
        <ele>991.72</ele>
        <time>2022-04-17T11:23:15+00:00</time>
      </trkpt>
      <trkpt lat="40.762175" lon="-3.755865">
        <ele>982.59</ele>
        <time>2022-04-17T11:23:26+00:00</time>
      </trkpt>
      <trkpt lat="40.761338" lon="-3.758655">
        <ele>973.45</ele>
        <time>2022-04-17T11:23:36+00:00</time>
      </trkpt>
      <trkpt lat="40.760222" lon="-3.761165">
        <ele>971.05</ele>
        <time>2022-04-17T11:23:46+00:00</time>
      </trkpt>
      <trkpt lat="40.759643" lon="-3.763204">
        <ele>967.20</ele>
        <time>2022-04-17T11:23:54+00:00</time>
      </trkpt>
      <trkpt lat="40.759428" lon="-3.764019">
        <ele>965.28</ele>
        <time>2022-04-17T11:23:58+00:00</time>
      </trkpt>
      <trkpt lat="40.759385" lon="-3.764148">
        <ele>964.80</ele>
        <time>2022-04-17T11:23:59+00:00</time>
      </trkpt>
      <trkpt lat="40.759342" lon="-3.764255">
        <ele>964.80</ele>
        <time>2022-04-17T11:24:00+00:00</time>
      </trkpt>
      <trkpt lat="40.759492" lon="-3.764555">
        <ele>963.84</ele>
        <time>2022-04-17T11:24:02+00:00</time>
      </trkpt>
      <trkpt lat="40.759449" lon="-3.764706">
        <ele>963.36</ele>
        <time>2022-04-17T11:24:03+00:00</time>
      </trkpt>
      <trkpt lat="40.759428" lon="-3.764749">
        <ele>962.88</ele>
        <time>2022-04-17T11:24:04+00:00</time>
      </trkpt>
      <trkpt lat="40.759149" lon="-3.765113">
        <ele>960.96</ele>
        <time>2022-04-17T11:24:06+00:00</time>
      </trkpt>
      <trkpt lat="40.759106" lon="-3.765307">
        <ele>959.99</ele>
        <time>2022-04-17T11:24:07+00:00</time>
      </trkpt>
      <trkpt lat="40.759085" lon="-3.765521">
        <ele>959.03</ele>
        <time>2022-04-17T11:24:08+00:00</time>
      </trkpt>
      <trkpt lat="40.759042" lon="-3.767538">
        <ele>949.90</ele>
        <time>2022-04-17T11:24:16+00:00</time>
      </trkpt>
      <trkpt lat="40.758934" lon="-3.768053">
        <ele>947.50</ele>
        <time>2022-04-17T11:24:18+00:00</time>
      </trkpt>
      <trkpt lat="40.758849" lon="-3.768289">
        <ele>946.06</ele>
        <time>2022-04-17T11:24:19+00:00</time>
      </trkpt>
      <trkpt lat="40.758763" lon="-3.768568">
        <ele>945.09</ele>
        <time>2022-04-17T11:24:20+00:00</time>
      </trkpt>
      <trkpt lat="40.758205" lon="-3.770542">
        <ele>940.77</ele>
        <time>2022-04-17T11:24:28+00:00</time>
      </trkpt>
      <trkpt lat="40.757797" lon="-3.773096">
        <ele>935.00</ele>
        <time>2022-04-17T11:24:38+00:00</time>
      </trkpt>
      <trkpt lat="40.757497" lon="-3.774641">
        <ele>928.27</ele>
        <time>2022-04-17T11:24:46+00:00</time>
      </trkpt>
      <trkpt lat="40.757583" lon="-3.774812">
        <ele>928.27</ele>
        <time>2022-04-17T11:24:47+00:00</time>
      </trkpt>
      <trkpt lat="40.757561" lon="-3.774920">
        <ele>928.27</ele>
        <time>2022-04-17T11:24:48+00:00</time>
      </trkpt>
      <trkpt lat="40.757540" lon="-3.775027">
        <ele>928.27</ele>
        <time>2022-04-17T11:24:49+00:00</time>
      </trkpt>
      <trkpt lat="40.757497" lon="-3.775091">
        <ele>928.27</ele>
        <time>2022-04-17T11:24:50+00:00</time>
      </trkpt>
      <trkpt lat="40.757347" lon="-3.775263">
        <ele>928.27</ele>
        <time>2022-04-17T11:24:51+00:00</time>
      </trkpt>
      <trkpt lat="40.757304" lon="-3.775456">
        <ele>928.27</ele>
        <time>2022-04-17T11:24:52+00:00</time>
      </trkpt>
      <trkpt lat="40.757261" lon="-3.775628">
        <ele>928.75</ele>
        <time>2022-04-17T11:24:53+00:00</time>
      </trkpt>
      <trkpt lat="40.757218" lon="-3.775821">
        <ele>928.75</ele>
        <time>2022-04-17T11:24:54+00:00</time>
      </trkpt>
      <trkpt lat="40.757196" lon="-3.775992">
        <ele>928.75</ele>
        <time>2022-04-17T11:24:55+00:00</time>
      </trkpt>
      <trkpt lat="40.756724" lon="-3.778052">
        <ele>928.27</ele>
        <time>2022-04-17T11:25:07+00:00</time>
      </trkpt>
      <trkpt lat="40.756145" lon="-3.779597">
        <ele>924.43</ele>
        <time>2022-04-17T11:25:16+00:00</time>
      </trkpt>
      <trkpt lat="40.755609" lon="-3.780670">
        <ele>919.14</ele>
        <time>2022-04-17T11:25:25+00:00</time>
      </trkpt>
      <trkpt lat="40.755544" lon="-3.780777">
        <ele>918.66</ele>
        <time>2022-04-17T11:25:26+00:00</time>
      </trkpt>
      <trkpt lat="40.755544" lon="-3.780799">
        <ele>918.18</ele>
        <time>2022-04-17T11:25:27+00:00</time>
      </trkpt>
      <trkpt lat="40.755566" lon="-3.781056">
        <ele>917.70</ele>
        <time>2022-04-17T11:25:28+00:00</time>
      </trkpt>
      <trkpt lat="40.755501" lon="-3.781099">
        <ele>917.22</ele>
        <time>2022-04-17T11:25:29+00:00</time>
      </trkpt>
      <trkpt lat="40.755373" lon="-3.781142">
        <ele>916.74</ele>
        <time>2022-04-17T11:25:30+00:00</time>
      </trkpt>
      <trkpt lat="40.755330" lon="-3.781250">
        <ele>916.26</ele>
        <time>2022-04-17T11:25:31+00:00</time>
      </trkpt>
      <trkpt lat="40.755265" lon="-3.781357">
        <ele>915.77</ele>
        <time>2022-04-17T11:25:32+00:00</time>
      </trkpt>
      <trkpt lat="40.754643" lon="-3.782580">
        <ele>913.37</ele>
        <time>2022-04-17T11:25:44+00:00</time>
      </trkpt>
      <trkpt lat="40.754343" lon="-3.783159">
        <ele>911.93</ele>
        <time>2022-04-17T11:25:53+00:00</time>
      </trkpt>
      <trkpt lat="40.754343" lon="-3.783288">
        <ele>911.45</ele>
        <time>2022-04-17T11:25:54+00:00</time>
      </trkpt>
      <trkpt lat="40.754343" lon="-3.783310">
        <ele>911.45</ele>
        <time>2022-04-17T11:25:55+00:00</time>
      </trkpt>
      <trkpt lat="40.754321" lon="-3.783352">
        <ele>911.45</ele>
        <time>2022-04-17T11:25:56+00:00</time>
      </trkpt>
      <trkpt lat="40.753870" lon="-3.784018">
        <ele>910.49</ele>
        <time>2022-04-17T11:26:08+00:00</time>
      </trkpt>
      <trkpt lat="40.753377" lon="-3.784854">
        <ele>910.01</ele>
        <time>2022-04-17T11:26:20+00:00</time>
      </trkpt>
      <trkpt lat="40.753162" lon="-3.785219">
        <ele>909.05</ele>
        <time>2022-04-17T11:26:27+00:00</time>
      </trkpt>
      <trkpt lat="40.753119" lon="-3.785284">
        <ele>908.56</ele>
        <time>2022-04-17T11:26:38+00:00</time>
      </trkpt>
      <trkpt lat="40.752841" lon="-3.785777">
        <ele>908.56</ele>
        <time>2022-04-17T11:26:44+00:00</time>
      </trkpt>
      <trkpt lat="40.752347" lon="-3.786593">
        <ele>907.60</ele>
        <time>2022-04-17T11:26:53+00:00</time>
      </trkpt>
      <trkpt lat="40.751639" lon="-3.787773">
        <ele>907.12</ele>
        <time>2022-04-17T11:27:04+00:00</time>
      </trkpt>
      <trkpt lat="40.751102" lon="-3.788695">
        <ele>908.56</ele>
        <time>2022-04-17T11:27:11+00:00</time>
      </trkpt>
      <trkpt lat="40.751060" lon="-3.788846">
        <ele>909.05</ele>
        <time>2022-04-17T11:27:12+00:00</time>
      </trkpt>
      <trkpt lat="40.751038" lon="-3.788974">
        <ele>909.05</ele>
        <time>2022-04-17T11:27:13+00:00</time>
      </trkpt>
      <trkpt lat="40.750866" lon="-3.790562">
        <ele>911.93</ele>
        <time>2022-04-17T11:27:23+00:00</time>
      </trkpt>
      <trkpt lat="40.750523" lon="-3.792408">
        <ele>912.89</ele>
        <time>2022-04-17T11:27:33+00:00</time>
      </trkpt>
      <trkpt lat="40.749965" lon="-3.793824">
        <ele>913.85</ele>
        <time>2022-04-17T11:27:42+00:00</time>
      </trkpt>
      <trkpt lat="40.749257" lon="-3.795326">
        <ele>912.41</ele>
        <time>2022-04-17T11:27:52+00:00</time>
      </trkpt>
      <trkpt lat="40.748635" lon="-3.796527">
        <ele>911.45</ele>
        <time>2022-04-17T11:28:00+00:00</time>
      </trkpt>
      <trkpt lat="40.747862" lon="-3.798029">
        <ele>910.01</ele>
        <time>2022-04-17T11:28:09+00:00</time>
      </trkpt>
      <trkpt lat="40.746961" lon="-3.799725">
        <ele>908.56</ele>
        <time>2022-04-17T11:28:20+00:00</time>
      </trkpt>
      <trkpt lat="40.746296" lon="-3.801034">
        <ele>906.64</ele>
        <time>2022-04-17T11:28:28+00:00</time>
      </trkpt>
      <trkpt lat="40.745523" lon="-3.802536">
        <ele>905.68</ele>
        <time>2022-04-17T11:28:34+00:00</time>
      </trkpt>
      <trkpt lat="40.744386" lon="-3.804703">
        <ele>902.80</ele>
        <time>2022-04-17T11:28:40+00:00</time>
      </trkpt>
      <trkpt lat="40.742691" lon="-3.807943">
        <ele>900.87</ele>
        <time>2022-04-17T11:28:48+00:00</time>
      </trkpt>
      <trkpt lat="40.741446" lon="-3.810346">
        <ele>900.39</ele>
        <time>2022-04-17T11:28:55+00:00</time>
      </trkpt>
      <trkpt lat="40.740223" lon="-3.812771">
        <ele>897.51</ele>
        <time>2022-04-17T11:29:04+00:00</time>
      </trkpt>
      <trkpt lat="40.739751" lon="-3.814015">
        <ele>895.11</ele>
        <time>2022-04-17T11:29:10+00:00</time>
      </trkpt>
      <trkpt lat="40.739687" lon="-3.814187">
        <ele>895.11</ele>
        <time>2022-04-17T11:29:11+00:00</time>
      </trkpt>
      <trkpt lat="40.739623" lon="-3.814316">
        <ele>895.11</ele>
        <time>2022-04-17T11:29:12+00:00</time>
      </trkpt>
      <trkpt lat="40.739730" lon="-3.814552">
        <ele>894.63</ele>
        <time>2022-04-17T11:29:13+00:00</time>
      </trkpt>
      <trkpt lat="40.739687" lon="-3.814724">
        <ele>894.63</ele>
        <time>2022-04-17T11:29:14+00:00</time>
      </trkpt>
      <trkpt lat="40.739601" lon="-3.814831">
        <ele>894.63</ele>
        <time>2022-04-17T11:29:15+00:00</time>
      </trkpt>
      <trkpt lat="40.739494" lon="-3.814960">
        <ele>894.15</ele>
        <time>2022-04-17T11:29:16+00:00</time>
      </trkpt>
      <trkpt lat="40.739387" lon="-3.815088">
        <ele>893.66</ele>
        <time>2022-04-17T11:29:17+00:00</time>
      </trkpt>
      <trkpt lat="40.739279" lon="-3.815239">
        <ele>893.66</ele>
        <time>2022-04-17T11:29:18+00:00</time>
      </trkpt>
      <trkpt lat="40.739193" lon="-3.815432">
        <ele>893.18</ele>
        <time>2022-04-17T11:29:19+00:00</time>
      </trkpt>
      <trkpt lat="40.739129" lon="-3.815625">
        <ele>893.18</ele>
        <time>2022-04-17T11:29:20+00:00</time>
      </trkpt>
      <trkpt lat="40.738464" lon="-3.817427">
        <ele>892.22</ele>
        <time>2022-04-17T11:29:28+00:00</time>
      </trkpt>
      <trkpt lat="40.737927" lon="-3.819380">
        <ele>892.70</ele>
        <time>2022-04-17T11:29:35+00:00</time>
      </trkpt>
      <trkpt lat="40.737927" lon="-3.821096">
        <ele>893.18</ele>
        <time>2022-04-17T11:29:40+00:00</time>
      </trkpt>
      <trkpt lat="40.738163" lon="-3.822169">
        <ele>893.66</ele>
        <time>2022-04-17T11:29:43+00:00</time>
      </trkpt>
      <trkpt lat="40.738292" lon="-3.822513">
        <ele>894.15</ele>
        <time>2022-04-17T11:29:44+00:00</time>
      </trkpt>
      <trkpt lat="40.738442" lon="-3.822856">
        <ele>894.15</ele>
        <time>2022-04-17T11:29:45+00:00</time>
      </trkpt>
      <trkpt lat="40.738571" lon="-3.823178">
        <ele>894.63</ele>
        <time>2022-04-17T11:29:46+00:00</time>
      </trkpt>
      <trkpt lat="40.738764" lon="-3.823457">
        <ele>894.63</ele>
        <time>2022-04-17T11:29:47+00:00</time>
      </trkpt>
      <trkpt lat="40.739601" lon="-3.824530">
        <ele>896.07</ele>
        <time>2022-04-17T11:29:52+00:00</time>
      </trkpt>
      <trkpt lat="40.740223" lon="-3.825173">
        <ele>896.55</ele>
        <time>2022-04-17T11:29:57+00:00</time>
      </trkpt>
      <trkpt lat="40.741296" lon="-3.826611">
        <ele>896.55</ele>
        <time>2022-04-17T11:30:08+00:00</time>
      </trkpt>
      <trkpt lat="40.741854" lon="-3.828242">
        <ele>895.11</ele>
        <time>2022-04-17T11:30:16+00:00</time>
      </trkpt>
      <trkpt lat="40.741876" lon="-3.830001">
        <ele>895.11</ele>
        <time>2022-04-17T11:30:23+00:00</time>
      </trkpt>
      <trkpt lat="40.741554" lon="-3.831739">
        <ele>895.59</ele>
        <time>2022-04-17T11:30:31+00:00</time>
      </trkpt>
      <trkpt lat="40.741339" lon="-3.833070">
        <ele>896.07</ele>
        <time>2022-04-17T11:30:39+00:00</time>
      </trkpt>
      <trkpt lat="40.741446" lon="-3.834550">
        <ele>896.55</ele>
        <time>2022-04-17T11:30:45+00:00</time>
      </trkpt>
      <trkpt lat="40.741811" lon="-3.837040">
        <ele>897.03</ele>
        <time>2022-04-17T11:30:54+00:00</time>
      </trkpt>
      <trkpt lat="40.741790" lon="-3.837340">
        <ele>897.03</ele>
        <time>2022-04-17T11:30:55+00:00</time>
      </trkpt>
      <trkpt lat="40.741768" lon="-3.837662">
        <ele>897.03</ele>
        <time>2022-04-17T11:30:56+00:00</time>
      </trkpt>
      <trkpt lat="40.741704" lon="-3.837962">
        <ele>897.03</ele>
        <time>2022-04-17T11:30:57+00:00</time>
      </trkpt>
      <trkpt lat="40.741618" lon="-3.838263">
        <ele>897.03</ele>
        <time>2022-04-17T11:30:58+00:00</time>
      </trkpt>
      <trkpt lat="40.741511" lon="-3.838542">
        <ele>897.03</ele>
        <time>2022-04-17T11:30:59+00:00</time>
      </trkpt>
      <trkpt lat="40.741404" lon="-3.838821">
        <ele>897.03</ele>
        <time>2022-04-17T11:31:00+00:00</time>
      </trkpt>
      <trkpt lat="40.740138" lon="-3.841867">
        <ele>897.99</ele>
        <time>2022-04-17T11:31:12+00:00</time>
      </trkpt>
      <trkpt lat="40.739859" lon="-3.842404">
        <ele>897.99</ele>
        <time>2022-04-17T11:31:15+00:00</time>
      </trkpt>
      <trkpt lat="40.739773" lon="-3.842554">
        <ele>897.99</ele>
        <time>2022-04-17T11:31:16+00:00</time>
      </trkpt>
      <trkpt lat="40.739687" lon="-3.842683">
        <ele>897.99</ele>
        <time>2022-04-17T11:31:17+00:00</time>
      </trkpt>
      <trkpt lat="40.739601" lon="-3.842790">
        <ele>897.99</ele>
        <time>2022-04-17T11:31:18+00:00</time>
      </trkpt>
      <trkpt lat="40.739494" lon="-3.842897">
        <ele>897.99</ele>
        <time>2022-04-17T11:31:19+00:00</time>
      </trkpt>
      <trkpt lat="40.738421" lon="-3.843820">
        <ele>897.51</ele>
        <time>2022-04-17T11:31:27+00:00</time>
      </trkpt>
      <trkpt lat="40.737241" lon="-3.845022">
        <ele>897.03</ele>
        <time>2022-04-17T11:31:34+00:00</time>
      </trkpt>
      <trkpt lat="40.736404" lon="-3.846567">
        <ele>897.99</ele>
        <time>2022-04-17T11:31:40+00:00</time>
      </trkpt>
      <trkpt lat="40.735653" lon="-3.847897">
        <ele>898.47</ele>
        <time>2022-04-17T11:31:47+00:00</time>
      </trkpt>
      <trkpt lat="40.735438" lon="-3.848198">
        <ele>898.47</ele>
        <time>2022-04-17T11:31:49+00:00</time>
      </trkpt>
      <trkpt lat="40.735331" lon="-3.848326">
        <ele>898.47</ele>
        <time>2022-04-17T11:31:50+00:00</time>
      </trkpt>
      <trkpt lat="40.735224" lon="-3.848434">
        <ele>898.47</ele>
        <time>2022-04-17T11:31:51+00:00</time>
      </trkpt>
      <trkpt lat="40.734623" lon="-3.848820">
        <ele>898.47</ele>
        <time>2022-04-17T11:31:57+00:00</time>
      </trkpt>
      <trkpt lat="40.734537" lon="-3.848863">
        <ele>898.47</ele>
        <time>2022-04-17T11:31:59+00:00</time>
      </trkpt>
      <trkpt lat="40.734537" lon="-3.848991">
        <ele>898.95</ele>
        <time>2022-04-17T11:32:00+00:00</time>
      </trkpt>
      <trkpt lat="40.734494" lon="-3.849099">
        <ele>898.95</ele>
        <time>2022-04-17T11:32:01+00:00</time>
      </trkpt>
      <trkpt lat="40.734408" lon="-3.849142">
        <ele>898.95</ele>
        <time>2022-04-17T11:32:02+00:00</time>
      </trkpt>
      <trkpt lat="40.734344" lon="-3.849163">
        <ele>898.47</ele>
        <time>2022-04-17T11:32:03+00:00</time>
      </trkpt>
      <trkpt lat="40.734280" lon="-3.849206">
        <ele>898.47</ele>
        <time>2022-04-17T11:32:04+00:00</time>
      </trkpt>
      <trkpt lat="40.734215" lon="-3.849249">
        <ele>898.47</ele>
        <time>2022-04-17T11:32:05+00:00</time>
      </trkpt>
      <trkpt lat="40.734172" lon="-3.849292">
        <ele>897.99</ele>
        <time>2022-04-17T11:32:06+00:00</time>
      </trkpt>
      <trkpt lat="40.734108" lon="-3.849335">
        <ele>897.99</ele>
        <time>2022-04-17T11:32:07+00:00</time>
      </trkpt>
      <trkpt lat="40.734044" lon="-3.849378">
        <ele>897.99</ele>
        <time>2022-04-17T11:32:08+00:00</time>
      </trkpt>
      <trkpt lat="40.733464" lon="-3.849828">
        <ele>897.03</ele>
        <time>2022-04-17T11:32:14+00:00</time>
      </trkpt>
      <trkpt lat="40.732499" lon="-3.850708">
        <ele>896.55</ele>
        <time>2022-04-17T11:32:21+00:00</time>
      </trkpt>
      <trkpt lat="40.731576" lon="-3.851953">
        <ele>897.03</ele>
        <time>2022-04-17T11:32:27+00:00</time>
      </trkpt>
      <trkpt lat="40.730224" lon="-3.853819">
        <ele>897.51</ele>
        <time>2022-04-17T11:32:37+00:00</time>
      </trkpt>
      <trkpt lat="40.728958" lon="-3.855965">
        <ele>897.51</ele>
        <time>2022-04-17T11:32:49+00:00</time>
      </trkpt>
      <trkpt lat="40.728615" lon="-3.857467">
        <ele>897.51</ele>
        <time>2022-04-17T11:32:57+00:00</time>
      </trkpt>
      <trkpt lat="40.728229" lon="-3.858776">
        <ele>898.95</ele>
        <time>2022-04-17T11:33:07+00:00</time>
      </trkpt>
      <trkpt lat="40.728186" lon="-3.858862">
        <ele>898.95</ele>
        <time>2022-04-17T11:33:08+00:00</time>
      </trkpt>
      <trkpt lat="40.727928" lon="-3.859334">
        <ele>900.39</ele>
        <time>2022-04-17T11:33:14+00:00</time>
      </trkpt>
      <trkpt lat="40.727885" lon="-3.859377">
        <ele>900.39</ele>
        <time>2022-04-17T11:33:15+00:00</time>
      </trkpt>
      <trkpt lat="40.727799" lon="-3.859484">
        <ele>900.39</ele>
        <time>2022-04-17T11:33:16+00:00</time>
      </trkpt>
      <trkpt lat="40.727821" lon="-3.859313">
        <ele>900.39</ele>
        <time>2022-04-17T11:33:17+00:00</time>
      </trkpt>
      <trkpt lat="40.727821" lon="-3.859270">
        <ele>900.39</ele>
        <time>2022-04-17T11:33:18+00:00</time>
      </trkpt>
      <trkpt lat="40.727821" lon="-3.859205">
        <ele>900.39</ele>
        <time>2022-04-17T11:33:19+00:00</time>
      </trkpt>
      <trkpt lat="40.727821" lon="-3.859162">
        <ele>900.39</ele>
        <time>2022-04-17T11:33:20+00:00</time>
      </trkpt>
      <trkpt lat="40.727821" lon="-3.859141">
        <ele>900.39</ele>
        <time>2022-04-17T11:33:21+00:00</time>
      </trkpt>
      <trkpt lat="40.727821" lon="-3.859119">
        <ele>900.39</ele>
        <time>2022-04-17T11:33:22+00:00</time>
      </trkpt>
      <trkpt lat="40.727821" lon="-3.859119">
        <ele>900.39</ele>
        <time>2022-04-17T11:33:23+00:00</time>
      </trkpt>
      <trkpt lat="40.727671" lon="-3.859034">
        <ele>899.91</ele>
        <time>2022-04-17T11:33:26+00:00</time>
      </trkpt>
      <trkpt lat="40.727714" lon="-3.858969">
        <ele>899.43</ele>
        <time>2022-04-17T11:33:35+00:00</time>
      </trkpt>
      <trkpt lat="40.727714" lon="-3.858969">
        <ele>899.43</ele>
        <time>2022-04-17T11:34:05+00:00</time>
      </trkpt>
      <trkpt lat="40.727692" lon="-3.858969">
        <ele>898.95</ele>
        <time>2022-04-17T11:34:51+00:00</time>
      </trkpt>
      <trkpt lat="40.727692" lon="-3.858991">
        <ele>898.47</ele>
        <time>2022-04-17T11:35:44+00:00</time>
      </trkpt>
      <trkpt lat="40.727692" lon="-3.858991">
        <ele>898.95</ele>
        <time>2022-04-17T11:36:46+00:00</time>
      </trkpt>
      <trkpt lat="40.727692" lon="-3.858991">
        <ele>898.95</ele>
        <time>2022-04-17T11:37:56+00:00</time>
      </trkpt>
      <trkpt lat="40.727692" lon="-3.858991">
        <ele>898.95</ele>
        <time>2022-04-17T11:39:10+00:00</time>
      </trkpt>
      <trkpt lat="40.727692" lon="-3.858991">
        <ele>898.95</ele>
        <time>2022-04-17T11:40:23+00:00</time>
      </trkpt>
      <trkpt lat="40.727692" lon="-3.858991">
        <ele>899.43</ele>
        <time>2022-04-17T11:41:34+00:00</time>
      </trkpt>
      <trkpt lat="40.727692" lon="-3.858991">
        <ele>898.95</ele>
        <time>2022-04-17T11:42:47+00:00</time>
      </trkpt>
      <trkpt lat="40.727692" lon="-3.858991">
        <ele>899.43</ele>
        <time>2022-04-17T11:43:49+00:00</time>
      </trkpt>
      <trkpt lat="40.727692" lon="-3.858991">
        <ele>899.43</ele>
        <time>2022-04-17T11:44:51+00:00</time>
      </trkpt>
      <trkpt lat="40.727692" lon="-3.858991">
        <ele>899.91</ele>
        <time>2022-04-17T11:45:43+00:00</time>
      </trkpt>
      <trkpt lat="40.727692" lon="-3.858991">
        <ele>899.91</ele>
        <time>2022-04-17T11:46:37+00:00</time>
      </trkpt>
      <trkpt lat="40.727671" lon="-3.858991">
        <ele>899.91</ele>
        <time>2022-04-17T11:47:34+00:00</time>
      </trkpt>
      <trkpt lat="40.727671" lon="-3.859012">
        <ele>899.91</ele>
        <time>2022-04-17T11:48:27+00:00</time>
      </trkpt>
      <trkpt lat="40.727671" lon="-3.858991">
        <ele>898.95</ele>
        <time>2022-04-17T11:49:50+00:00</time>
      </trkpt>
      <trkpt lat="40.727671" lon="-3.858991">
        <ele>899.43</ele>
        <time>2022-04-17T11:50:52+00:00</time>
      </trkpt>
      <trkpt lat="40.727671" lon="-3.858991">
        <ele>899.43</ele>
        <time>2022-04-17T11:51:54+00:00</time>
      </trkpt>
      <trkpt lat="40.727671" lon="-3.858991">
        <ele>899.43</ele>
        <time>2022-04-17T11:52:58+00:00</time>
      </trkpt>
      <trkpt lat="40.727671" lon="-3.858991">
        <ele>899.43</ele>
        <time>2022-04-17T11:54:00+00:00</time>
      </trkpt>
      <trkpt lat="40.727671" lon="-3.858991">
        <ele>899.91</ele>
        <time>2022-04-17T11:54:56+00:00</time>
      </trkpt>
      <trkpt lat="40.727671" lon="-3.858991">
        <ele>899.91</ele>
        <time>2022-04-17T11:55:55+00:00</time>
      </trkpt>
      <trkpt lat="40.727671" lon="-3.858991">
        <ele>899.91</ele>
        <time>2022-04-17T11:56:52+00:00</time>
      </trkpt>
      <trkpt lat="40.727692" lon="-3.858991">
        <ele>900.39</ele>
        <time>2022-04-17T11:58:05+00:00</time>
      </trkpt>
      <trkpt lat="40.727692" lon="-3.858991">
        <ele>900.87</ele>
        <time>2022-04-17T11:59:09+00:00</time>
      </trkpt>
      <trkpt lat="40.727692" lon="-3.858991">
        <ele>900.87</ele>
        <time>2022-04-17T11:59:53+00:00</time>
      </trkpt>
      <trkpt lat="40.727692" lon="-3.858991">
        <ele>900.87</ele>
        <time>2022-04-17T12:00:38+00:00</time>
      </trkpt>
      <trkpt lat="40.727671" lon="-3.858991">
        <ele>901.35</ele>
        <time>2022-04-17T12:01:35+00:00</time>
      </trkpt>
      <trkpt lat="40.727692" lon="-3.859012">
        <ele>902.32</ele>
        <time>2022-04-17T12:02:26+00:00</time>
      </trkpt>
      <trkpt lat="40.727692" lon="-3.858991">
        <ele>903.28</ele>
        <time>2022-04-17T12:02:45+00:00</time>
      </trkpt>
      <trkpt lat="40.727692" lon="-3.859012">
        <ele>903.28</ele>
        <time>2022-04-17T12:03:00+00:00</time>
      </trkpt>
      <trkpt lat="40.727692" lon="-3.859012">
        <ele>903.76</ele>
        <time>2022-04-17T12:03:33+00:00</time>
      </trkpt>
      <trkpt lat="40.727692" lon="-3.859012">
        <ele>903.76</ele>
        <time>2022-04-17T12:04:17+00:00</time>
      </trkpt>
      <trkpt lat="40.727842" lon="-3.859055">
        <ele>903.76</ele>
        <time>2022-04-17T12:04:28+00:00</time>
      </trkpt>
      <trkpt lat="40.727821" lon="-3.859077">
        <ele>904.24</ele>
        <time>2022-04-17T12:04:29+00:00</time>
      </trkpt>
      <trkpt lat="40.727821" lon="-3.859098">
        <ele>904.24</ele>
        <time>2022-04-17T12:04:30+00:00</time>
      </trkpt>
      <trkpt lat="40.727821" lon="-3.859119">
        <ele>904.24</ele>
        <time>2022-04-17T12:04:31+00:00</time>
      </trkpt>
      <trkpt lat="40.727821" lon="-3.859119">
        <ele>904.24</ele>
        <time>2022-04-17T12:04:32+00:00</time>
      </trkpt>
      <trkpt lat="40.727821" lon="-3.859162">
        <ele>904.24</ele>
        <time>2022-04-17T12:04:33+00:00</time>
      </trkpt>
      <trkpt lat="40.727821" lon="-3.859205">
        <ele>904.24</ele>
        <time>2022-04-17T12:04:34+00:00</time>
      </trkpt>
      <trkpt lat="40.727821" lon="-3.859377">
        <ele>903.28</ele>
        <time>2022-04-17T12:04:44+00:00</time>
      </trkpt>
      <trkpt lat="40.727821" lon="-3.859441">
        <ele>903.28</ele>
        <time>2022-04-17T12:04:46+00:00</time>
      </trkpt>
      <trkpt lat="40.727821" lon="-3.859484">
        <ele>903.28</ele>
        <time>2022-04-17T12:04:47+00:00</time>
      </trkpt>
      <trkpt lat="40.727799" lon="-3.859527">
        <ele>903.28</ele>
        <time>2022-04-17T12:04:48+00:00</time>
      </trkpt>
      <trkpt lat="40.727756" lon="-3.859613">
        <ele>903.28</ele>
        <time>2022-04-17T12:04:49+00:00</time>
      </trkpt>
      <trkpt lat="40.727714" lon="-3.859677">
        <ele>903.28</ele>
        <time>2022-04-17T12:04:50+00:00</time>
      </trkpt>
      <trkpt lat="40.727091" lon="-3.860493">
        <ele>902.32</ele>
        <time>2022-04-17T12:05:03+00:00</time>
      </trkpt>
      <trkpt lat="40.727027" lon="-3.860557">
        <ele>902.32</ele>
        <time>2022-04-17T12:05:04+00:00</time>
      </trkpt>
      <trkpt lat="40.726941" lon="-3.860643">
        <ele>902.32</ele>
        <time>2022-04-17T12:05:05+00:00</time>
      </trkpt>
      <trkpt lat="40.726018" lon="-3.861501">
        <ele>901.84</ele>
        <time>2022-04-17T12:05:13+00:00</time>
      </trkpt>
      <trkpt lat="40.725375" lon="-3.862681">
        <ele>898.47</ele>
        <time>2022-04-17T12:05:19+00:00</time>
      </trkpt>
      <trkpt lat="40.725310" lon="-3.862917">
        <ele>897.99</ele>
        <time>2022-04-17T12:05:20+00:00</time>
      </trkpt>
      <trkpt lat="40.725246" lon="-3.863196">
        <ele>897.51</ele>
        <time>2022-04-17T12:05:21+00:00</time>
      </trkpt>
      <trkpt lat="40.725203" lon="-3.863454">
        <ele>897.51</ele>
        <time>2022-04-17T12:05:22+00:00</time>
      </trkpt>
      <trkpt lat="40.725160" lon="-3.863733">
        <ele>897.51</ele>
        <time>2022-04-17T12:05:23+00:00</time>
      </trkpt>
      <trkpt lat="40.725139" lon="-3.864012">
        <ele>897.51</ele>
        <time>2022-04-17T12:05:24+00:00</time>
      </trkpt>
      <trkpt lat="40.725139" lon="-3.864312">
        <ele>897.51</ele>
        <time>2022-04-17T12:05:25+00:00</time>
      </trkpt>
      <trkpt lat="40.725139" lon="-3.864591">
        <ele>897.51</ele>
        <time>2022-04-17T12:05:26+00:00</time>
      </trkpt>
      <trkpt lat="40.725117" lon="-3.867123">
        <ele>899.43</ele>
        <time>2022-04-17T12:05:36+00:00</time>
      </trkpt>
      <trkpt lat="40.725182" lon="-3.867767">
        <ele>902.32</ele>
        <time>2022-04-17T12:05:40+00:00</time>
      </trkpt>
      <trkpt lat="40.725182" lon="-3.867917">
        <ele>902.80</ele>
        <time>2022-04-17T12:05:41+00:00</time>
      </trkpt>
      <trkpt lat="40.725246" lon="-3.868024">
        <ele>903.28</ele>
        <time>2022-04-17T12:05:42+00:00</time>
      </trkpt>
      <trkpt lat="40.725310" lon="-3.868110">
        <ele>904.24</ele>
        <time>2022-04-17T12:05:43+00:00</time>
      </trkpt>
      <trkpt lat="40.725310" lon="-3.868218">
        <ele>904.72</ele>
        <time>2022-04-17T12:05:44+00:00</time>
      </trkpt>
      <trkpt lat="40.725289" lon="-3.868346">
        <ele>904.72</ele>
        <time>2022-04-17T12:05:45+00:00</time>
      </trkpt>
      <trkpt lat="40.725246" lon="-3.868454">
        <ele>905.20</ele>
        <time>2022-04-17T12:05:46+00:00</time>
      </trkpt>
      <trkpt lat="40.725160" lon="-3.868604">
        <ele>905.68</ele>
        <time>2022-04-17T12:05:47+00:00</time>
      </trkpt>
      <trkpt lat="40.725139" lon="-3.868754">
        <ele>905.68</ele>
        <time>2022-04-17T12:05:48+00:00</time>
      </trkpt>
      <trkpt lat="40.725117" lon="-3.868904">
        <ele>906.16</ele>
        <time>2022-04-17T12:05:49+00:00</time>
      </trkpt>
      <trkpt lat="40.724667" lon="-3.870449">
        <ele>910.01</ele>
        <time>2022-04-17T12:05:58+00:00</time>
      </trkpt>
      <trkpt lat="40.724023" lon="-3.872466">
        <ele>910.97</ele>
        <time>2022-04-17T12:06:08+00:00</time>
      </trkpt>
      <trkpt lat="40.724001" lon="-3.874397">
        <ele>909.53</ele>
        <time>2022-04-17T12:06:16+00:00</time>
      </trkpt>
      <trkpt lat="40.723851" lon="-3.876843">
        <ele>903.28</ele>
        <time>2022-04-17T12:06:25+00:00</time>
      </trkpt>
      <trkpt lat="40.723765" lon="-3.877101">
        <ele>902.80</ele>
        <time>2022-04-17T12:06:26+00:00</time>
      </trkpt>
      <trkpt lat="40.723658" lon="-3.877316">
        <ele>902.32</ele>
        <time>2022-04-17T12:06:27+00:00</time>
      </trkpt>
      <trkpt lat="40.723551" lon="-3.877552">
        <ele>901.35</ele>
        <time>2022-04-17T12:06:28+00:00</time>
      </trkpt>
      <trkpt lat="40.723422" lon="-3.877745">
        <ele>900.87</ele>
        <time>2022-04-17T12:06:29+00:00</time>
      </trkpt>
      <trkpt lat="40.723272" lon="-3.877916">
        <ele>900.87</ele>
        <time>2022-04-17T12:06:30+00:00</time>
      </trkpt>
      <trkpt lat="40.723122" lon="-3.878088">
        <ele>900.39</ele>
        <time>2022-04-17T12:06:31+00:00</time>
      </trkpt>
      <trkpt lat="40.722971" lon="-3.878260">
        <ele>900.39</ele>
        <time>2022-04-17T12:06:32+00:00</time>
      </trkpt>
      <trkpt lat="40.722800" lon="-3.878431">
        <ele>900.39</ele>
        <time>2022-04-17T12:06:33+00:00</time>
      </trkpt>
      <trkpt lat="40.721319" lon="-3.879740">
        <ele>900.87</ele>
        <time>2022-04-17T12:06:42+00:00</time>
      </trkpt>
      <trkpt lat="40.721169" lon="-3.879912">
        <ele>901.35</ele>
        <time>2022-04-17T12:06:43+00:00</time>
      </trkpt>
      <trkpt lat="40.721040" lon="-3.880084">
        <ele>901.84</ele>
        <time>2022-04-17T12:06:44+00:00</time>
      </trkpt>
      <trkpt lat="40.720912" lon="-3.880277">
        <ele>902.32</ele>
        <time>2022-04-17T12:06:45+00:00</time>
      </trkpt>
      <trkpt lat="40.720804" lon="-3.880491">
        <ele>903.28</ele>
        <time>2022-04-17T12:06:46+00:00</time>
      </trkpt>
      <trkpt lat="40.720675" lon="-3.880706">
        <ele>903.28</ele>
        <time>2022-04-17T12:06:47+00:00</time>
      </trkpt>
      <trkpt lat="40.719474" lon="-3.883109">
        <ele>903.76</ele>
        <time>2022-04-17T12:06:57+00:00</time>
      </trkpt>
      <trkpt lat="40.717800" lon="-3.886521">
        <ele>901.35</ele>
        <time>2022-04-17T12:07:09+00:00</time>
      </trkpt>
      <trkpt lat="40.716126" lon="-3.890405">
        <ele>900.39</ele>
        <time>2022-04-17T12:07:22+00:00</time>
      </trkpt>
      <trkpt lat="40.715440" lon="-3.892443">
        <ele>901.35</ele>
        <time>2022-04-17T12:07:29+00:00</time>
      </trkpt>
      <trkpt lat="40.715418" lon="-3.892744">
        <ele>901.84</ele>
        <time>2022-04-17T12:07:30+00:00</time>
      </trkpt>
      <trkpt lat="40.715225" lon="-3.895812">
        <ele>902.80</ele>
        <time>2022-04-17T12:07:40+00:00</time>
      </trkpt>
      <trkpt lat="40.715096" lon="-3.898044">
        <ele>903.28</ele>
        <time>2022-04-17T12:07:49+00:00</time>
      </trkpt>
      <trkpt lat="40.714882" lon="-3.899310">
        <ele>903.28</ele>
        <time>2022-04-17T12:07:57+00:00</time>
      </trkpt>
      <trkpt lat="40.714539" lon="-3.901284">
        <ele>903.76</ele>
        <time>2022-04-17T12:08:10+00:00</time>
      </trkpt>
      <trkpt lat="40.714195" lon="-3.903172">
        <ele>905.20</ele>
        <time>2022-04-17T12:08:21+00:00</time>
      </trkpt>
      <trkpt lat="40.713788" lon="-3.905211">
        <ele>906.16</ele>
        <time>2022-04-17T12:08:31+00:00</time>
      </trkpt>
      <trkpt lat="40.713273" lon="-3.906369">
        <ele>906.16</ele>
        <time>2022-04-17T12:08:37+00:00</time>
      </trkpt>
      <trkpt lat="40.712071" lon="-3.908343">
        <ele>908.08</ele>
        <time>2022-04-17T12:08:47+00:00</time>
      </trkpt>
      <trkpt lat="40.711020" lon="-3.909588">
        <ele>909.05</ele>
        <time>2022-04-17T12:08:54+00:00</time>
      </trkpt>
      <trkpt lat="40.709668" lon="-3.911305">
        <ele>910.01</ele>
        <time>2022-04-17T12:09:03+00:00</time>
      </trkpt>
      <trkpt lat="40.707393" lon="-3.914824">
        <ele>912.41</ele>
        <time>2022-04-17T12:09:19+00:00</time>
      </trkpt>
      <trkpt lat="40.705913" lon="-3.917978">
        <ele>913.85</ele>
        <time>2022-04-17T12:09:32+00:00</time>
      </trkpt>
      <trkpt lat="40.704647" lon="-3.920188">
        <ele>916.74</ele>
        <time>2022-04-17T12:09:43+00:00</time>
      </trkpt>
      <trkpt lat="40.703145" lon="-3.921797">
        <ele>921.06</ele>
        <time>2022-04-17T12:09:54+00:00</time>
      </trkpt>
      <trkpt lat="40.702672" lon="-3.922956">
        <ele>923.47</ele>
        <time>2022-04-17T12:10:01+00:00</time>
      </trkpt>
      <trkpt lat="40.701921" lon="-3.925209">
        <ele>927.79</ele>
        <time>2022-04-17T12:10:14+00:00</time>
      </trkpt>
      <trkpt lat="40.701492" lon="-3.927355">
        <ele>930.68</ele>
        <time>2022-04-17T12:10:25+00:00</time>
      </trkpt>
      <trkpt lat="40.701364" lon="-3.927913">
        <ele>931.64</ele>
        <time>2022-04-17T12:10:28+00:00</time>
      </trkpt>
      <trkpt lat="40.701299" lon="-3.928084">
        <ele>931.64</ele>
        <time>2022-04-17T12:10:29+00:00</time>
      </trkpt>
      <trkpt lat="40.701235" lon="-3.928256">
        <ele>931.64</ele>
        <time>2022-04-17T12:10:30+00:00</time>
      </trkpt>
      <trkpt lat="40.700312" lon="-3.929951">
        <ele>934.04</ele>
        <time>2022-04-17T12:10:42+00:00</time>
      </trkpt>
      <trkpt lat="40.699797" lon="-3.930981">
        <ele>938.37</ele>
        <time>2022-04-17T12:10:51+00:00</time>
      </trkpt>
      <trkpt lat="40.699776" lon="-3.931046">
        <ele>938.85</ele>
        <time>2022-04-17T12:10:52+00:00</time>
      </trkpt>
      <trkpt lat="40.699754" lon="-3.931088">
        <ele>939.33</ele>
        <time>2022-04-17T12:10:53+00:00</time>
      </trkpt>
      <trkpt lat="40.699733" lon="-3.931174">
        <ele>939.81</ele>
        <time>2022-04-17T12:10:54+00:00</time>
      </trkpt>
      <trkpt lat="40.699733" lon="-3.931367">
        <ele>940.77</ele>
        <time>2022-04-17T12:10:56+00:00</time>
      </trkpt>
      <trkpt lat="40.699690" lon="-3.931453">
        <ele>941.25</ele>
        <time>2022-04-17T12:10:57+00:00</time>
      </trkpt>
      <trkpt lat="40.699668" lon="-3.931561">
        <ele>941.25</ele>
        <time>2022-04-17T12:10:58+00:00</time>
      </trkpt>
      <trkpt lat="40.699625" lon="-3.931668">
        <ele>941.73</ele>
        <time>2022-04-17T12:10:59+00:00</time>
      </trkpt>
      <trkpt lat="40.699604" lon="-3.931775">
        <ele>942.21</ele>
        <time>2022-04-17T12:11:00+00:00</time>
      </trkpt>
      <trkpt lat="40.699561" lon="-3.931904">
        <ele>942.69</ele>
        <time>2022-04-17T12:11:01+00:00</time>
      </trkpt>
      <trkpt lat="40.699583" lon="-3.932011">
        <ele>943.17</ele>
        <time>2022-04-17T12:11:02+00:00</time>
      </trkpt>
      <trkpt lat="40.699583" lon="-3.932161">
        <ele>943.65</ele>
        <time>2022-04-17T12:11:03+00:00</time>
      </trkpt>
      <trkpt lat="40.699625" lon="-3.932290">
        <ele>943.65</ele>
        <time>2022-04-17T12:11:04+00:00</time>
      </trkpt>
      <trkpt lat="40.699840" lon="-3.933556">
        <ele>946.06</ele>
        <time>2022-04-17T12:11:12+00:00</time>
      </trkpt>
      <trkpt lat="40.699947" lon="-3.935015">
        <ele>949.42</ele>
        <time>2022-04-17T12:11:20+00:00</time>
      </trkpt>
      <trkpt lat="40.700012" lon="-3.936195">
        <ele>951.82</ele>
        <time>2022-04-17T12:11:27+00:00</time>
      </trkpt>
      <trkpt lat="40.700055" lon="-3.936324">
        <ele>951.82</ele>
        <time>2022-04-17T12:11:28+00:00</time>
      </trkpt>
      <trkpt lat="40.700098" lon="-3.936474">
        <ele>952.30</ele>
        <time>2022-04-17T12:11:29+00:00</time>
      </trkpt>
      <trkpt lat="40.700140" lon="-3.936582">
        <ele>952.30</ele>
        <time>2022-04-17T12:11:30+00:00</time>
      </trkpt>
      <trkpt lat="40.700205" lon="-3.936689">
        <ele>952.79</ele>
        <time>2022-04-17T12:11:31+00:00</time>
      </trkpt>
      <trkpt lat="40.700248" lon="-3.936775">
        <ele>952.79</ele>
        <time>2022-04-17T12:11:32+00:00</time>
      </trkpt>
      <trkpt lat="40.700312" lon="-3.936839">
        <ele>953.27</ele>
        <time>2022-04-17T12:11:33+00:00</time>
      </trkpt>
      <trkpt lat="40.700355" lon="-3.936882">
        <ele>953.27</ele>
        <time>2022-04-17T12:11:34+00:00</time>
      </trkpt>
      <trkpt lat="40.700419" lon="-3.936946">
        <ele>953.27</ele>
        <time>2022-04-17T12:11:35+00:00</time>
      </trkpt>
      <trkpt lat="40.700484" lon="-3.936989">
        <ele>953.27</ele>
        <time>2022-04-17T12:11:36+00:00</time>
      </trkpt>
      <trkpt lat="40.700548" lon="-3.937054">
        <ele>953.27</ele>
        <time>2022-04-17T12:11:37+00:00</time>
      </trkpt>
      <trkpt lat="40.700570" lon="-3.937140">
        <ele>953.27</ele>
        <time>2022-04-17T12:11:38+00:00</time>
      </trkpt>
      <trkpt lat="40.700591" lon="-3.937247">
        <ele>953.27</ele>
        <time>2022-04-17T12:11:39+00:00</time>
      </trkpt>
      <trkpt lat="40.700570" lon="-3.937376">
        <ele>953.27</ele>
        <time>2022-04-17T12:11:40+00:00</time>
      </trkpt>
      <trkpt lat="40.700527" lon="-3.937461">
        <ele>953.27</ele>
        <time>2022-04-17T12:11:41+00:00</time>
      </trkpt>
      <trkpt lat="40.700419" lon="-3.937569">
        <ele>953.27</ele>
        <time>2022-04-17T12:11:42+00:00</time>
      </trkpt>
      <trkpt lat="40.700377" lon="-3.937719">
        <ele>953.27</ele>
        <time>2022-04-17T12:11:43+00:00</time>
      </trkpt>
      <trkpt lat="40.700377" lon="-3.937869">
        <ele>953.27</ele>
        <time>2022-04-17T12:11:44+00:00</time>
      </trkpt>
      <trkpt lat="40.700355" lon="-3.938062">
        <ele>953.27</ele>
        <time>2022-04-17T12:11:45+00:00</time>
      </trkpt>
      <trkpt lat="40.700377" lon="-3.938255">
        <ele>953.75</ele>
        <time>2022-04-17T12:11:46+00:00</time>
      </trkpt>
      <trkpt lat="40.700419" lon="-3.938448">
        <ele>953.75</ele>
        <time>2022-04-17T12:11:47+00:00</time>
      </trkpt>
      <trkpt lat="40.700634" lon="-3.940530">
        <ele>959.51</ele>
        <time>2022-04-17T12:11:56+00:00</time>
      </trkpt>
      <trkpt lat="40.700741" lon="-3.941195">
        <ele>959.51</ele>
        <time>2022-04-17T12:11:59+00:00</time>
      </trkpt>
      <trkpt lat="40.700827" lon="-3.941388">
        <ele>959.51</ele>
        <time>2022-04-17T12:12:00+00:00</time>
      </trkpt>
      <trkpt lat="40.700913" lon="-3.941560">
        <ele>959.51</ele>
        <time>2022-04-17T12:12:01+00:00</time>
      </trkpt>
      <trkpt lat="40.701020" lon="-3.941731">
        <ele>959.51</ele>
        <time>2022-04-17T12:12:02+00:00</time>
      </trkpt>
      <trkpt lat="40.701128" lon="-3.941882">
        <ele>959.03</ele>
        <time>2022-04-17T12:12:03+00:00</time>
      </trkpt>
      <trkpt lat="40.701900" lon="-3.942912">
        <ele>959.51</ele>
        <time>2022-04-17T12:12:11+00:00</time>
      </trkpt>
      <trkpt lat="40.701986" lon="-3.942998">
        <ele>959.51</ele>
        <time>2022-04-17T12:12:12+00:00</time>
      </trkpt>
      <trkpt lat="40.702093" lon="-3.943040">
        <ele>959.51</ele>
        <time>2022-04-17T12:12:13+00:00</time>
      </trkpt>
      <trkpt lat="40.702179" lon="-3.943105">
        <ele>959.51</ele>
        <time>2022-04-17T12:12:14+00:00</time>
      </trkpt>
      <trkpt lat="40.702222" lon="-3.943234">
        <ele>959.51</ele>
        <time>2022-04-17T12:12:15+00:00</time>
      </trkpt>
      <trkpt lat="40.702243" lon="-3.943362">
        <ele>959.51</ele>
        <time>2022-04-17T12:12:16+00:00</time>
      </trkpt>
      <trkpt lat="40.702265" lon="-3.943534">
        <ele>959.51</ele>
        <time>2022-04-17T12:12:17+00:00</time>
      </trkpt>
      <trkpt lat="40.702329" lon="-3.943641">
        <ele>959.51</ele>
        <time>2022-04-17T12:12:18+00:00</time>
      </trkpt>
      <trkpt lat="40.702436" lon="-3.943749">
        <ele>959.51</ele>
        <time>2022-04-17T12:12:19+00:00</time>
      </trkpt>
      <trkpt lat="40.702522" lon="-3.943856">
        <ele>959.99</ele>
        <time>2022-04-17T12:12:20+00:00</time>
      </trkpt>
      <trkpt lat="40.702651" lon="-3.943985">
        <ele>959.99</ele>
        <time>2022-04-17T12:12:21+00:00</time>
      </trkpt>
      <trkpt lat="40.702758" lon="-3.944135">
        <ele>959.99</ele>
        <time>2022-04-17T12:12:22+00:00</time>
      </trkpt>
      <trkpt lat="40.703574" lon="-3.945229">
        <ele>961.44</ele>
        <time>2022-04-17T12:12:28+00:00</time>
      </trkpt>
      <trkpt lat="40.704432" lon="-3.946860">
        <ele>963.36</ele>
        <time>2022-04-17T12:12:35+00:00</time>
      </trkpt>
      <trkpt lat="40.704883" lon="-3.948104">
        <ele>966.24</ele>
        <time>2022-04-17T12:12:40+00:00</time>
      </trkpt>
      <trkpt lat="40.704947" lon="-3.948383">
        <ele>966.24</ele>
        <time>2022-04-17T12:12:41+00:00</time>
      </trkpt>
      <trkpt lat="40.705462" lon="-3.951430">
        <ele>969.13</ele>
        <time>2022-04-17T12:12:52+00:00</time>
      </trkpt>
      <trkpt lat="40.705891" lon="-3.953748">
        <ele>972.49</ele>
        <time>2022-04-17T12:13:02+00:00</time>
      </trkpt>
      <trkpt lat="40.705998" lon="-3.954048">
        <ele>972.97</ele>
        <time>2022-04-17T12:13:04+00:00</time>
      </trkpt>
      <trkpt lat="40.706063" lon="-3.954155">
        <ele>973.45</ele>
        <time>2022-04-17T12:13:05+00:00</time>
      </trkpt>
      <trkpt lat="40.706149" lon="-3.954220">
        <ele>973.45</ele>
        <time>2022-04-17T12:13:06+00:00</time>
      </trkpt>
      <trkpt lat="40.706234" lon="-3.954284">
        <ele>973.93</ele>
        <time>2022-04-17T12:13:07+00:00</time>
      </trkpt>
      <trkpt lat="40.706299" lon="-3.954349">
        <ele>973.93</ele>
        <time>2022-04-17T12:13:08+00:00</time>
      </trkpt>
      <trkpt lat="40.706406" lon="-3.954413">
        <ele>974.41</ele>
        <time>2022-04-17T12:13:09+00:00</time>
      </trkpt>
      <trkpt lat="40.706492" lon="-3.954477">
        <ele>974.41</ele>
        <time>2022-04-17T12:13:10+00:00</time>
      </trkpt>
      <trkpt lat="40.706535" lon="-3.954606">
        <ele>973.93</ele>
        <time>2022-04-17T12:13:11+00:00</time>
      </trkpt>
      <trkpt lat="40.706578" lon="-3.954735">
        <ele>973.93</ele>
        <time>2022-04-17T12:13:12+00:00</time>
      </trkpt>
      <trkpt lat="40.706578" lon="-3.954907">
        <ele>974.41</ele>
        <time>2022-04-17T12:13:13+00:00</time>
      </trkpt>
      <trkpt lat="40.706621" lon="-3.955035">
        <ele>974.41</ele>
        <time>2022-04-17T12:13:14+00:00</time>
      </trkpt>
      <trkpt lat="40.706707" lon="-3.955164">
        <ele>974.41</ele>
        <time>2022-04-17T12:13:15+00:00</time>
      </trkpt>
      <trkpt lat="40.706814" lon="-3.955271">
        <ele>974.41</ele>
        <time>2022-04-17T12:13:16+00:00</time>
      </trkpt>
      <trkpt lat="40.706921" lon="-3.955400">
        <ele>974.90</ele>
        <time>2022-04-17T12:13:17+00:00</time>
      </trkpt>
      <trkpt lat="40.707028" lon="-3.955529">
        <ele>974.90</ele>
        <time>2022-04-17T12:13:18+00:00</time>
      </trkpt>
      <trkpt lat="40.707951" lon="-3.956666">
        <ele>977.78</ele>
        <time>2022-04-17T12:13:25+00:00</time>
      </trkpt>
      <trkpt lat="40.709603" lon="-3.958855">
        <ele>981.62</ele>
        <time>2022-04-17T12:13:35+00:00</time>
      </trkpt>
      <trkpt lat="40.711470" lon="-3.961344">
        <ele>990.76</ele>
        <time>2022-04-17T12:13:46+00:00</time>
      </trkpt>
      <trkpt lat="40.713251" lon="-3.963726">
        <ele>1003.73</ele>
        <time>2022-04-17T12:13:54+00:00</time>
      </trkpt>
      <trkpt lat="40.715740" lon="-3.967030">
        <ele>1020.56</ele>
        <time>2022-04-17T12:14:05+00:00</time>
      </trkpt>
      <trkpt lat="40.717500" lon="-3.969348">
        <ele>1034.50</ele>
        <time>2022-04-17T12:14:14+00:00</time>
      </trkpt>
      <trkpt lat="40.719645" lon="-3.971880">
        <ele>1043.15</ele>
        <time>2022-04-17T12:14:24+00:00</time>
      </trkpt>
      <trkpt lat="40.721984" lon="-3.974626">
        <ele>1054.20</ele>
        <time>2022-04-17T12:14:33+00:00</time>
      </trkpt>
      <trkpt lat="40.723873" lon="-3.976815">
        <ele>1069.10</ele>
        <time>2022-04-17T12:14:41+00:00</time>
      </trkpt>
      <trkpt lat="40.725310" lon="-3.978210">
        <ele>1082.56</ele>
        <time>2022-04-17T12:14:48+00:00</time>
      </trkpt>
      <trkpt lat="40.725911" lon="-3.978725">
        <ele>1089.77</ele>
        <time>2022-04-17T12:14:52+00:00</time>
      </trkpt>
      <trkpt lat="40.726040" lon="-3.978810">
        <ele>1091.21</ele>
        <time>2022-04-17T12:14:53+00:00</time>
      </trkpt>
      <trkpt lat="40.726276" lon="-3.978875">
        <ele>1094.58</ele>
        <time>2022-04-17T12:14:55+00:00</time>
      </trkpt>
      <trkpt lat="40.726340" lon="-3.978939">
        <ele>1095.54</ele>
        <time>2022-04-17T12:14:56+00:00</time>
      </trkpt>
      <trkpt lat="40.726405" lon="-3.979197">
        <ele>1096.50</ele>
        <time>2022-04-17T12:14:57+00:00</time>
      </trkpt>
      <trkpt lat="40.726641" lon="-3.979518">
        <ele>1098.42</ele>
        <time>2022-04-17T12:14:59+00:00</time>
      </trkpt>
      <trkpt lat="40.726877" lon="-3.979905">
        <ele>1100.35</ele>
        <time>2022-04-17T12:15:01+00:00</time>
      </trkpt>
      <trkpt lat="40.726984" lon="-3.980141">
        <ele>1101.79</ele>
        <time>2022-04-17T12:15:02+00:00</time>
      </trkpt>
      <trkpt lat="40.727070" lon="-3.980377">
        <ele>1102.75</ele>
        <time>2022-04-17T12:15:03+00:00</time>
      </trkpt>
      <trkpt lat="40.727156" lon="-3.980656">
        <ele>1104.19</ele>
        <time>2022-04-17T12:15:04+00:00</time>
      </trkpt>
      <trkpt lat="40.727220" lon="-3.980956">
        <ele>1105.63</ele>
        <time>2022-04-17T12:15:05+00:00</time>
      </trkpt>
      <trkpt lat="40.727306" lon="-3.981257">
        <ele>1107.08</ele>
        <time>2022-04-17T12:15:06+00:00</time>
      </trkpt>
      <trkpt lat="40.727306" lon="-3.981578">
        <ele>1108.52</ele>
        <time>2022-04-17T12:15:07+00:00</time>
      </trkpt>
      <trkpt lat="40.727306" lon="-3.981900">
        <ele>1109.96</ele>
        <time>2022-04-17T12:15:08+00:00</time>
      </trkpt>
      <trkpt lat="40.727306" lon="-3.982222">
        <ele>1111.88</ele>
        <time>2022-04-17T12:15:09+00:00</time>
      </trkpt>
      <trkpt lat="40.727263" lon="-3.982544">
        <ele>1113.32</ele>
        <time>2022-04-17T12:15:10+00:00</time>
      </trkpt>
      <trkpt lat="40.727177" lon="-3.982887">
        <ele>1114.77</ele>
        <time>2022-04-17T12:15:11+00:00</time>
      </trkpt>
      <trkpt lat="40.727070" lon="-3.983209">
        <ele>1116.21</ele>
        <time>2022-04-17T12:15:12+00:00</time>
      </trkpt>
      <trkpt lat="40.726963" lon="-3.983574">
        <ele>1117.65</ele>
        <time>2022-04-17T12:15:13+00:00</time>
      </trkpt>
      <trkpt lat="40.726126" lon="-3.986213">
        <ele>1133.03</ele>
        <time>2022-04-17T12:15:21+00:00</time>
      </trkpt>
      <trkpt lat="40.725289" lon="-3.989475">
        <ele>1151.78</ele>
        <time>2022-04-17T12:15:32+00:00</time>
      </trkpt>
      <trkpt lat="40.725074" lon="-3.992500">
        <ele>1166.20</ele>
        <time>2022-04-17T12:15:42+00:00</time>
      </trkpt>
      <trkpt lat="40.725160" lon="-3.994625">
        <ele>1168.60</ele>
        <time>2022-04-17T12:15:49+00:00</time>
      </trkpt>
      <trkpt lat="40.725224" lon="-3.994904">
        <ele>1168.60</ele>
        <time>2022-04-17T12:15:50+00:00</time>
      </trkpt>
      <trkpt lat="40.725289" lon="-3.995161">
        <ele>1168.60</ele>
        <time>2022-04-17T12:15:51+00:00</time>
      </trkpt>
      <trkpt lat="40.725375" lon="-3.995440">
        <ele>1168.12</ele>
        <time>2022-04-17T12:15:52+00:00</time>
      </trkpt>
      <trkpt lat="40.725503" lon="-3.995698">
        <ele>1167.64</ele>
        <time>2022-04-17T12:15:53+00:00</time>
      </trkpt>
      <trkpt lat="40.725654" lon="-3.995934">
        <ele>1167.16</ele>
        <time>2022-04-17T12:15:54+00:00</time>
      </trkpt>
      <trkpt lat="40.725804" lon="-3.996191">
        <ele>1167.16</ele>
        <time>2022-04-17T12:15:55+00:00</time>
      </trkpt>
      <trkpt lat="40.725997" lon="-3.996427">
        <ele>1167.64</ele>
        <time>2022-04-17T12:15:56+00:00</time>
      </trkpt>
      <trkpt lat="40.726190" lon="-3.996663">
        <ele>1167.64</ele>
        <time>2022-04-17T12:15:57+00:00</time>
      </trkpt>
      <trkpt lat="40.727842" lon="-3.998702">
        <ele>1172.93</ele>
        <time>2022-04-17T12:16:05+00:00</time>
      </trkpt>
      <trkpt lat="40.729280" lon="-4.000568">
        <ele>1180.14</ele>
        <time>2022-04-17T12:16:14+00:00</time>
      </trkpt>
      <trkpt lat="40.730911" lon="-4.002886">
        <ele>1188.79</ele>
        <time>2022-04-17T12:16:26+00:00</time>
      </trkpt>
      <trkpt lat="40.731941" lon="-4.004302">
        <ele>1195.52</ele>
        <time>2022-04-17T12:16:35+00:00</time>
      </trkpt>
      <trkpt lat="40.733078" lon="-4.005911">
        <ele>1206.09</ele>
        <time>2022-04-17T12:16:45+00:00</time>
      </trkpt>
      <trkpt lat="40.733464" lon="-4.006298">
        <ele>1209.94</ele>
        <time>2022-04-17T12:16:49+00:00</time>
      </trkpt>
      <trkpt lat="40.733572" lon="-4.006362">
        <ele>1210.90</ele>
        <time>2022-04-17T12:16:50+00:00</time>
      </trkpt>
      <trkpt lat="40.733657" lon="-4.006405">
        <ele>1211.38</ele>
        <time>2022-04-17T12:16:51+00:00</time>
      </trkpt>
      <trkpt lat="40.733743" lon="-4.006469">
        <ele>1212.34</ele>
        <time>2022-04-17T12:16:52+00:00</time>
      </trkpt>
      <trkpt lat="40.733808" lon="-4.006577">
        <ele>1212.82</ele>
        <time>2022-04-17T12:16:53+00:00</time>
      </trkpt>
      <trkpt lat="40.733829" lon="-4.006705">
        <ele>1213.30</ele>
        <time>2022-04-17T12:16:54+00:00</time>
      </trkpt>
      <trkpt lat="40.733872" lon="-4.006856">
        <ele>1213.78</ele>
        <time>2022-04-17T12:16:55+00:00</time>
      </trkpt>
      <trkpt lat="40.733915" lon="-4.006984">
        <ele>1214.26</ele>
        <time>2022-04-17T12:16:56+00:00</time>
      </trkpt>
      <trkpt lat="40.733979" lon="-4.007134">
        <ele>1214.74</ele>
        <time>2022-04-17T12:16:57+00:00</time>
      </trkpt>
      <trkpt lat="40.734044" lon="-4.007263">
        <ele>1215.22</ele>
        <time>2022-04-17T12:16:58+00:00</time>
      </trkpt>
      <trkpt lat="40.734859" lon="-4.008400">
        <ele>1221.95</ele>
        <time>2022-04-17T12:17:07+00:00</time>
      </trkpt>
      <trkpt lat="40.735395" lon="-4.009259">
        <ele>1226.28</ele>
        <time>2022-04-17T12:17:12+00:00</time>
      </trkpt>
      <trkpt lat="40.735460" lon="-4.009473">
        <ele>1226.76</ele>
        <time>2022-04-17T12:17:13+00:00</time>
      </trkpt>
      <trkpt lat="40.735503" lon="-4.009688">
        <ele>1227.72</ele>
        <time>2022-04-17T12:17:14+00:00</time>
      </trkpt>
      <trkpt lat="40.735546" lon="-4.009924">
        <ele>1228.20</ele>
        <time>2022-04-17T12:17:15+00:00</time>
      </trkpt>
      <trkpt lat="40.735567" lon="-4.010181">
        <ele>1228.68</ele>
        <time>2022-04-17T12:17:16+00:00</time>
      </trkpt>
      <trkpt lat="40.735546" lon="-4.010439">
        <ele>1229.16</ele>
        <time>2022-04-17T12:17:17+00:00</time>
      </trkpt>
      <trkpt lat="40.735481" lon="-4.010718">
        <ele>1229.64</ele>
        <time>2022-04-17T12:17:18+00:00</time>
      </trkpt>
      <trkpt lat="40.735438" lon="-4.010997">
        <ele>1229.64</ele>
        <time>2022-04-17T12:17:19+00:00</time>
      </trkpt>
      <trkpt lat="40.735331" lon="-4.011276">
        <ele>1229.64</ele>
        <time>2022-04-17T12:17:20+00:00</time>
      </trkpt>
      <trkpt lat="40.735181" lon="-4.011512">
        <ele>1230.12</ele>
        <time>2022-04-17T12:17:21+00:00</time>
      </trkpt>
      <trkpt lat="40.735009" lon="-4.011726">
        <ele>1230.60</ele>
        <time>2022-04-17T12:17:22+00:00</time>
      </trkpt>
      <trkpt lat="40.734816" lon="-4.011920">
        <ele>1231.08</ele>
        <time>2022-04-17T12:17:23+00:00</time>
      </trkpt>
      <trkpt lat="40.734601" lon="-4.012113">
        <ele>1232.05</ele>
        <time>2022-04-17T12:17:24+00:00</time>
      </trkpt>
      <trkpt lat="40.734387" lon="-4.012327">
        <ele>1233.01</ele>
        <time>2022-04-17T12:17:25+00:00</time>
      </trkpt>
      <trkpt lat="40.734194" lon="-4.012563">
        <ele>1234.45</ele>
        <time>2022-04-17T12:17:26+00:00</time>
      </trkpt>
      <trkpt lat="40.734044" lon="-4.012821">
        <ele>1235.89</ele>
        <time>2022-04-17T12:17:27+00:00</time>
      </trkpt>
      <trkpt lat="40.733936" lon="-4.013121">
        <ele>1237.33</ele>
        <time>2022-04-17T12:17:28+00:00</time>
      </trkpt>
      <trkpt lat="40.733850" lon="-4.013443">
        <ele>1238.29</ele>
        <time>2022-04-17T12:17:29+00:00</time>
      </trkpt>
      <trkpt lat="40.733829" lon="-4.013786">
        <ele>1239.74</ele>
        <time>2022-04-17T12:17:30+00:00</time>
      </trkpt>
      <trkpt lat="40.733808" lon="-4.014130">
        <ele>1241.18</ele>
        <time>2022-04-17T12:17:31+00:00</time>
      </trkpt>
      <trkpt lat="40.733872" lon="-4.014473">
        <ele>1242.62</ele>
        <time>2022-04-17T12:17:32+00:00</time>
      </trkpt>
      <trkpt lat="40.733936" lon="-4.014816">
        <ele>1244.06</ele>
        <time>2022-04-17T12:17:33+00:00</time>
      </trkpt>
      <trkpt lat="40.734001" lon="-4.015160">
        <ele>1245.99</ele>
        <time>2022-04-17T12:17:34+00:00</time>
      </trkpt>
      <trkpt lat="40.734537" lon="-4.016833">
        <ele>1256.08</ele>
        <time>2022-04-17T12:17:39+00:00</time>
      </trkpt>
      <trkpt lat="40.734580" lon="-4.017177">
        <ele>1258.96</ele>
        <time>2022-04-17T12:17:40+00:00</time>
      </trkpt>
      <trkpt lat="40.734580" lon="-4.017541">
        <ele>1261.37</ele>
        <time>2022-04-17T12:17:41+00:00</time>
      </trkpt>
      <trkpt lat="40.734580" lon="-4.017928">
        <ele>1263.77</ele>
        <time>2022-04-17T12:17:42+00:00</time>
      </trkpt>
      <trkpt lat="40.734580" lon="-4.018292">
        <ele>1266.65</ele>
        <time>2022-04-17T12:17:43+00:00</time>
      </trkpt>
      <trkpt lat="40.734365" lon="-4.020588">
        <ele>1282.03</ele>
        <time>2022-04-17T12:17:49+00:00</time>
      </trkpt>
      <trkpt lat="40.734129" lon="-4.021747">
        <ele>1289.72</ele>
        <time>2022-04-17T12:17:53+00:00</time>
      </trkpt>
      <trkpt lat="40.734044" lon="-4.021940">
        <ele>1290.21</ele>
        <time>2022-04-17T12:17:54+00:00</time>
      </trkpt>
      <trkpt lat="40.733893" lon="-4.022133">
        <ele>1290.69</ele>
        <time>2022-04-17T12:17:55+00:00</time>
      </trkpt>
      <trkpt lat="40.733636" lon="-4.022477">
        <ele>1290.21</ele>
        <time>2022-04-17T12:17:57+00:00</time>
      </trkpt>
      <trkpt lat="40.733529" lon="-4.022713">
        <ele>1289.24</ele>
        <time>2022-04-17T12:17:58+00:00</time>
      </trkpt>
      <trkpt lat="40.733486" lon="-4.022970">
        <ele>1287.80</ele>
        <time>2022-04-17T12:17:59+00:00</time>
      </trkpt>
      <trkpt lat="40.733464" lon="-4.023249">
        <ele>1286.36</ele>
        <time>2022-04-17T12:18:00+00:00</time>
      </trkpt>
      <trkpt lat="40.733421" lon="-4.023550">
        <ele>1284.44</ele>
        <time>2022-04-17T12:18:01+00:00</time>
      </trkpt>
      <trkpt lat="40.733357" lon="-4.023893">
        <ele>1283.00</ele>
        <time>2022-04-17T12:18:02+00:00</time>
      </trkpt>
      <trkpt lat="40.733250" lon="-4.024193">
        <ele>1281.07</ele>
        <time>2022-04-17T12:18:03+00:00</time>
      </trkpt>
      <trkpt lat="40.733142" lon="-4.024515">
        <ele>1279.15</ele>
        <time>2022-04-17T12:18:04+00:00</time>
      </trkpt>
      <trkpt lat="40.733057" lon="-4.024816">
        <ele>1277.23</ele>
        <time>2022-04-17T12:18:05+00:00</time>
      </trkpt>
      <trkpt lat="40.732885" lon="-4.025374">
        <ele>1273.86</ele>
        <time>2022-04-17T12:18:07+00:00</time>
      </trkpt>
      <trkpt lat="40.732863" lon="-4.025674">
        <ele>1271.94</ele>
        <time>2022-04-17T12:18:08+00:00</time>
      </trkpt>
      <trkpt lat="40.732778" lon="-4.026253">
        <ele>1268.58</ele>
        <time>2022-04-17T12:18:10+00:00</time>
      </trkpt>
      <trkpt lat="40.732692" lon="-4.026554">
        <ele>1266.65</ele>
        <time>2022-04-17T12:18:11+00:00</time>
      </trkpt>
      <trkpt lat="40.732456" lon="-4.027412">
        <ele>1261.37</ele>
        <time>2022-04-17T12:18:14+00:00</time>
      </trkpt>
      <trkpt lat="40.732391" lon="-4.027712">
        <ele>1259.92</ele>
        <time>2022-04-17T12:18:15+00:00</time>
      </trkpt>
      <trkpt lat="40.732005" lon="-4.029708">
        <ele>1249.35</ele>
        <time>2022-04-17T12:18:21+00:00</time>
      </trkpt>
      <trkpt lat="40.731576" lon="-4.031854">
        <ele>1236.37</ele>
        <time>2022-04-17T12:18:28+00:00</time>
      </trkpt>
      <trkpt lat="40.731512" lon="-4.032133">
        <ele>1234.93</ele>
        <time>2022-04-17T12:18:29+00:00</time>
      </trkpt>
      <trkpt lat="40.731490" lon="-4.032412">
        <ele>1233.49</ele>
        <time>2022-04-17T12:18:30+00:00</time>
      </trkpt>
      <trkpt lat="40.731490" lon="-4.032691">
        <ele>1232.05</ele>
        <time>2022-04-17T12:18:31+00:00</time>
      </trkpt>
      <trkpt lat="40.731490" lon="-4.032970">
        <ele>1230.12</ele>
        <time>2022-04-17T12:18:32+00:00</time>
      </trkpt>
      <trkpt lat="40.731490" lon="-4.033248">
        <ele>1229.16</ele>
        <time>2022-04-17T12:18:33+00:00</time>
      </trkpt>
      <trkpt lat="40.731447" lon="-4.033935">
        <ele>1224.84</ele>
        <time>2022-04-17T12:18:36+00:00</time>
      </trkpt>
      <trkpt lat="40.731404" lon="-4.034128">
        <ele>1223.39</ele>
        <time>2022-04-17T12:18:37+00:00</time>
      </trkpt>
      <trkpt lat="40.731297" lon="-4.034321">
        <ele>1221.95</ele>
        <time>2022-04-17T12:18:38+00:00</time>
      </trkpt>
      <trkpt lat="40.731190" lon="-4.034514">
        <ele>1220.99</ele>
        <time>2022-04-17T12:18:39+00:00</time>
      </trkpt>
      <trkpt lat="40.731018" lon="-4.034708">
        <ele>1219.55</ele>
        <time>2022-04-17T12:18:40+00:00</time>
      </trkpt>
      <trkpt lat="40.730846" lon="-4.034858">
        <ele>1218.11</ele>
        <time>2022-04-17T12:18:41+00:00</time>
      </trkpt>
      <trkpt lat="40.730675" lon="-4.035008">
        <ele>1216.67</ele>
        <time>2022-04-17T12:18:42+00:00</time>
      </trkpt>
      <trkpt lat="40.730482" lon="-4.035094">
        <ele>1215.22</ele>
        <time>2022-04-17T12:18:43+00:00</time>
      </trkpt>
      <trkpt lat="40.730310" lon="-4.035201">
        <ele>1213.30</ele>
        <time>2022-04-17T12:18:44+00:00</time>
      </trkpt>
      <trkpt lat="40.729945" lon="-4.035373">
        <ele>1210.42</ele>
        <time>2022-04-17T12:18:46+00:00</time>
      </trkpt>
      <trkpt lat="40.729816" lon="-4.035502">
        <ele>1209.46</ele>
        <time>2022-04-17T12:18:47+00:00</time>
      </trkpt>
      <trkpt lat="40.729688" lon="-4.035673">
        <ele>1208.01</ele>
        <time>2022-04-17T12:18:48+00:00</time>
      </trkpt>
      <trkpt lat="40.729559" lon="-4.035823">
        <ele>1207.05</ele>
        <time>2022-04-17T12:18:49+00:00</time>
      </trkpt>
      <trkpt lat="40.729473" lon="-4.035995">
        <ele>1206.09</ele>
        <time>2022-04-17T12:18:50+00:00</time>
      </trkpt>
      <trkpt lat="40.729430" lon="-4.036210">
        <ele>1205.13</ele>
        <time>2022-04-17T12:18:51+00:00</time>
      </trkpt>
      <trkpt lat="40.729387" lon="-4.036424">
        <ele>1204.17</ele>
        <time>2022-04-17T12:18:52+00:00</time>
      </trkpt>
      <trkpt lat="40.729430" lon="-4.036703">
        <ele>1202.73</ele>
        <time>2022-04-17T12:18:53+00:00</time>
      </trkpt>
      <trkpt lat="40.729452" lon="-4.036982">
        <ele>1201.28</ele>
        <time>2022-04-17T12:18:54+00:00</time>
      </trkpt>
      <trkpt lat="40.729495" lon="-4.037519">
        <ele>1197.92</ele>
        <time>2022-04-17T12:18:56+00:00</time>
      </trkpt>
      <trkpt lat="40.729473" lon="-4.037776">
        <ele>1196.48</ele>
        <time>2022-04-17T12:18:57+00:00</time>
      </trkpt>
      <trkpt lat="40.729409" lon="-4.038012">
        <ele>1194.55</ele>
        <time>2022-04-17T12:18:58+00:00</time>
      </trkpt>
      <trkpt lat="40.729344" lon="-4.038227">
        <ele>1193.11</ele>
        <time>2022-04-17T12:18:59+00:00</time>
      </trkpt>
      <trkpt lat="40.729280" lon="-4.038463">
        <ele>1191.67</ele>
        <time>2022-04-17T12:19:00+00:00</time>
      </trkpt>
      <trkpt lat="40.729216" lon="-4.038720">
        <ele>1190.23</ele>
        <time>2022-04-17T12:19:01+00:00</time>
      </trkpt>
      <trkpt lat="40.729194" lon="-4.038999">
        <ele>1188.79</ele>
        <time>2022-04-17T12:19:02+00:00</time>
      </trkpt>
      <trkpt lat="40.729237" lon="-4.039278">
        <ele>1187.34</ele>
        <time>2022-04-17T12:19:03+00:00</time>
      </trkpt>
      <trkpt lat="40.729280" lon="-4.039536">
        <ele>1185.42</ele>
        <time>2022-04-17T12:19:04+00:00</time>
      </trkpt>
      <trkpt lat="40.729323" lon="-4.039772">
        <ele>1183.98</ele>
        <time>2022-04-17T12:19:05+00:00</time>
      </trkpt>
      <trkpt lat="40.729344" lon="-4.039965">
        <ele>1182.54</ele>
        <time>2022-04-17T12:19:06+00:00</time>
      </trkpt>
      <trkpt lat="40.729323" lon="-4.040179">
        <ele>1181.10</ele>
        <time>2022-04-17T12:19:07+00:00</time>
      </trkpt>
      <trkpt lat="40.729280" lon="-4.040394">
        <ele>1179.65</ele>
        <time>2022-04-17T12:19:08+00:00</time>
      </trkpt>
      <trkpt lat="40.729194" lon="-4.040608">
        <ele>1178.21</ele>
        <time>2022-04-17T12:19:09+00:00</time>
      </trkpt>
      <trkpt lat="40.729087" lon="-4.040844">
        <ele>1177.25</ele>
        <time>2022-04-17T12:19:10+00:00</time>
      </trkpt>
      <trkpt lat="40.728980" lon="-4.041102">
        <ele>1176.29</ele>
        <time>2022-04-17T12:19:11+00:00</time>
      </trkpt>
      <trkpt lat="40.728894" lon="-4.041359">
        <ele>1174.85</ele>
        <time>2022-04-17T12:19:12+00:00</time>
      </trkpt>
      <trkpt lat="40.728701" lon="-4.041917">
        <ele>1171.96</ele>
        <time>2022-04-17T12:19:14+00:00</time>
      </trkpt>
      <trkpt lat="40.728593" lon="-4.042196">
        <ele>1170.52</ele>
        <time>2022-04-17T12:19:15+00:00</time>
      </trkpt>
      <trkpt lat="40.728443" lon="-4.042432">
        <ele>1169.08</ele>
        <time>2022-04-17T12:19:16+00:00</time>
      </trkpt>
      <trkpt lat="40.728293" lon="-4.042647">
        <ele>1167.16</ele>
        <time>2022-04-17T12:19:17+00:00</time>
      </trkpt>
      <trkpt lat="40.728121" lon="-4.042840">
        <ele>1165.72</ele>
        <time>2022-04-17T12:19:18+00:00</time>
      </trkpt>
      <trkpt lat="40.727971" lon="-4.043033">
        <ele>1164.27</ele>
        <time>2022-04-17T12:19:19+00:00</time>
      </trkpt>
      <trkpt lat="40.727821" lon="-4.043205">
        <ele>1162.35</ele>
        <time>2022-04-17T12:19:20+00:00</time>
      </trkpt>
      <trkpt lat="40.727671" lon="-4.043355">
        <ele>1160.91</ele>
        <time>2022-04-17T12:19:21+00:00</time>
      </trkpt>
      <trkpt lat="40.727435" lon="-4.043698">
        <ele>1158.03</ele>
        <time>2022-04-17T12:19:23+00:00</time>
      </trkpt>
      <trkpt lat="40.727349" lon="-4.043913">
        <ele>1156.10</ele>
        <time>2022-04-17T12:19:24+00:00</time>
      </trkpt>
      <trkpt lat="40.727284" lon="-4.044192">
        <ele>1154.66</ele>
        <time>2022-04-17T12:19:25+00:00</time>
      </trkpt>
      <trkpt lat="40.727199" lon="-4.044471">
        <ele>1153.22</ele>
        <time>2022-04-17T12:19:26+00:00</time>
      </trkpt>
      <trkpt lat="40.727113" lon="-4.044750">
        <ele>1151.78</ele>
        <time>2022-04-17T12:19:27+00:00</time>
      </trkpt>
      <trkpt lat="40.727005" lon="-4.045029">
        <ele>1150.33</ele>
        <time>2022-04-17T12:19:28+00:00</time>
      </trkpt>
      <trkpt lat="40.726233" lon="-4.047046">
        <ele>1144.57</ele>
        <time>2022-04-17T12:19:35+00:00</time>
      </trkpt>
      <trkpt lat="40.725503" lon="-4.048612">
        <ele>1142.64</ele>
        <time>2022-04-17T12:19:41+00:00</time>
      </trkpt>
      <trkpt lat="40.725353" lon="-4.048805">
        <ele>1142.64</ele>
        <time>2022-04-17T12:19:42+00:00</time>
      </trkpt>
      <trkpt lat="40.725182" lon="-4.048998">
        <ele>1142.64</ele>
        <time>2022-04-17T12:19:43+00:00</time>
      </trkpt>
      <trkpt lat="40.724130" lon="-4.049857">
        <ele>1141.20</ele>
        <time>2022-04-17T12:19:49+00:00</time>
      </trkpt>
      <trkpt lat="40.723937" lon="-4.049900">
        <ele>1140.24</ele>
        <time>2022-04-17T12:19:50+00:00</time>
      </trkpt>
      <trkpt lat="40.723744" lon="-4.049943">
        <ele>1139.28</ele>
        <time>2022-04-17T12:19:51+00:00</time>
      </trkpt>
      <trkpt lat="40.723529" lon="-4.049964">
        <ele>1138.32</ele>
        <time>2022-04-17T12:19:52+00:00</time>
      </trkpt>
      <trkpt lat="40.723293" lon="-4.049943">
        <ele>1137.36</ele>
        <time>2022-04-17T12:19:53+00:00</time>
      </trkpt>
      <trkpt lat="40.722306" lon="-4.049900">
        <ele>1133.03</ele>
        <time>2022-04-17T12:19:58+00:00</time>
      </trkpt>
      <trkpt lat="40.722178" lon="-4.049964">
        <ele>1132.55</ele>
        <time>2022-04-17T12:19:59+00:00</time>
      </trkpt>
      <trkpt lat="40.722027" lon="-4.050071">
        <ele>1131.59</ele>
        <time>2022-04-17T12:20:00+00:00</time>
      </trkpt>
      <trkpt lat="40.721941" lon="-4.050200">
        <ele>1131.11</ele>
        <time>2022-04-17T12:20:01+00:00</time>
      </trkpt>
      <trkpt lat="40.721813" lon="-4.050415">
        <ele>1129.67</ele>
        <time>2022-04-17T12:20:02+00:00</time>
      </trkpt>
      <trkpt lat="40.721705" lon="-4.050651">
        <ele>1128.71</ele>
        <time>2022-04-17T12:20:03+00:00</time>
      </trkpt>
      <trkpt lat="40.721405" lon="-4.051080">
        <ele>1126.78</ele>
        <time>2022-04-17T12:20:05+00:00</time>
      </trkpt>
      <trkpt lat="40.721233" lon="-4.051294">
        <ele>1125.82</ele>
        <time>2022-04-17T12:20:06+00:00</time>
      </trkpt>
      <trkpt lat="40.721062" lon="-4.051509">
        <ele>1124.38</ele>
        <time>2022-04-17T12:20:07+00:00</time>
      </trkpt>
      <trkpt lat="40.720740" lon="-4.051895">
        <ele>1122.46</ele>
        <time>2022-04-17T12:20:09+00:00</time>
      </trkpt>
      <trkpt lat="40.720611" lon="-4.052110">
        <ele>1121.50</ele>
        <time>2022-04-17T12:20:10+00:00</time>
      </trkpt>
      <trkpt lat="40.720504" lon="-4.052324">
        <ele>1121.01</ele>
        <time>2022-04-17T12:20:11+00:00</time>
      </trkpt>
      <trkpt lat="40.720139" lon="-4.053204">
        <ele>1117.65</ele>
        <time>2022-04-17T12:20:15+00:00</time>
      </trkpt>
      <trkpt lat="40.720010" lon="-4.053376">
        <ele>1116.69</ele>
        <time>2022-04-17T12:20:16+00:00</time>
      </trkpt>
      <trkpt lat="40.719860" lon="-4.053526">
        <ele>1115.25</ele>
        <time>2022-04-17T12:20:17+00:00</time>
      </trkpt>
      <trkpt lat="40.719216" lon="-4.054084">
        <ele>1110.44</ele>
        <time>2022-04-17T12:20:21+00:00</time>
      </trkpt>
      <trkpt lat="40.719109" lon="-4.054256">
        <ele>1109.48</ele>
        <time>2022-04-17T12:20:22+00:00</time>
      </trkpt>
      <trkpt lat="40.719002" lon="-4.054470">
        <ele>1108.04</ele>
        <time>2022-04-17T12:20:23+00:00</time>
      </trkpt>
      <trkpt lat="40.718959" lon="-4.054728">
        <ele>1107.56</ele>
        <time>2022-04-17T12:20:24+00:00</time>
      </trkpt>
      <trkpt lat="40.718916" lon="-4.055007">
        <ele>1106.59</ele>
        <time>2022-04-17T12:20:25+00:00</time>
      </trkpt>
      <trkpt lat="40.718894" lon="-4.055286">
        <ele>1106.59</ele>
        <time>2022-04-17T12:20:26+00:00</time>
      </trkpt>
      <trkpt lat="40.718594" lon="-4.057109">
        <ele>1102.75</ele>
        <time>2022-04-17T12:20:32+00:00</time>
      </trkpt>
      <trkpt lat="40.718444" lon="-4.058847">
        <ele>1098.90</ele>
        <time>2022-04-17T12:20:38+00:00</time>
      </trkpt>
      <trkpt lat="40.718465" lon="-4.060199">
        <ele>1095.06</ele>
        <time>2022-04-17T12:20:43+00:00</time>
      </trkpt>
      <trkpt lat="40.718422" lon="-4.060478">
        <ele>1093.62</ele>
        <time>2022-04-17T12:20:44+00:00</time>
      </trkpt>
      <trkpt lat="40.718358" lon="-4.060757">
        <ele>1092.18</ele>
        <time>2022-04-17T12:20:45+00:00</time>
      </trkpt>
      <trkpt lat="40.718272" lon="-4.061015">
        <ele>1091.21</ele>
        <time>2022-04-17T12:20:46+00:00</time>
      </trkpt>
      <trkpt lat="40.718122" lon="-4.061251">
        <ele>1089.29</ele>
        <time>2022-04-17T12:20:47+00:00</time>
      </trkpt>
      <trkpt lat="40.717993" lon="-4.061508">
        <ele>1088.33</ele>
        <time>2022-04-17T12:20:48+00:00</time>
      </trkpt>
      <trkpt lat="40.717800" lon="-4.061723">
        <ele>1086.41</ele>
        <time>2022-04-17T12:20:49+00:00</time>
      </trkpt>
      <trkpt lat="40.717607" lon="-4.061959">
        <ele>1084.97</ele>
        <time>2022-04-17T12:20:50+00:00</time>
      </trkpt>
      <trkpt lat="40.715976" lon="-4.063633">
        <ele>1071.51</ele>
        <time>2022-04-17T12:20:58+00:00</time>
      </trkpt>
      <trkpt lat="40.714539" lon="-4.064233">
        <ele>1064.78</ele>
        <time>2022-04-17T12:21:04+00:00</time>
      </trkpt>
      <trkpt lat="40.713616" lon="-4.064384">
        <ele>1061.89</ele>
        <time>2022-04-17T12:21:09+00:00</time>
      </trkpt>
      <trkpt lat="40.712457" lon="-4.064534">
        <ele>1059.97</ele>
        <time>2022-04-17T12:21:18+00:00</time>
      </trkpt>
      <trkpt lat="40.712350" lon="-4.064555">
        <ele>1060.45</ele>
        <time>2022-04-17T12:21:19+00:00</time>
      </trkpt>
      <trkpt lat="40.712243" lon="-4.064705">
        <ele>1060.45</ele>
        <time>2022-04-17T12:21:20+00:00</time>
      </trkpt>
      <trkpt lat="40.712178" lon="-4.064727">
        <ele>1060.45</ele>
        <time>2022-04-17T12:21:21+00:00</time>
      </trkpt>
      <trkpt lat="40.712135" lon="-4.064727">
        <ele>1060.45</ele>
        <time>2022-04-17T12:21:22+00:00</time>
      </trkpt>
      <trkpt lat="40.711985" lon="-4.064641">
        <ele>1060.45</ele>
        <time>2022-04-17T12:21:23+00:00</time>
      </trkpt>
      <trkpt lat="40.711921" lon="-4.064663">
        <ele>1059.97</ele>
        <time>2022-04-17T12:21:24+00:00</time>
      </trkpt>
      <trkpt lat="40.711835" lon="-4.064705">
        <ele>1059.97</ele>
        <time>2022-04-17T12:21:25+00:00</time>
      </trkpt>
      <trkpt lat="40.711771" lon="-4.064748">
        <ele>1059.97</ele>
        <time>2022-04-17T12:21:26+00:00</time>
      </trkpt>
      <trkpt lat="40.711685" lon="-4.064813">
        <ele>1059.97</ele>
        <time>2022-04-17T12:21:27+00:00</time>
      </trkpt>
      <trkpt lat="40.711599" lon="-4.064899">
        <ele>1059.97</ele>
        <time>2022-04-17T12:21:28+00:00</time>
      </trkpt>
      <trkpt lat="40.710633" lon="-4.065714">
        <ele>1058.05</ele>
        <time>2022-04-17T12:21:38+00:00</time>
      </trkpt>
      <trkpt lat="40.709196" lon="-4.066980">
        <ele>1057.57</ele>
        <time>2022-04-17T12:21:51+00:00</time>
      </trkpt>
      <trkpt lat="40.707973" lon="-4.067838">
        <ele>1059.49</ele>
        <time>2022-04-17T12:22:03+00:00</time>
      </trkpt>
      <trkpt lat="40.706878" lon="-4.068289">
        <ele>1057.57</ele>
        <time>2022-04-17T12:22:15+00:00</time>
      </trkpt>
      <trkpt lat="40.705634" lon="-4.068804">
        <ele>1057.57</ele>
        <time>2022-04-17T12:22:28+00:00</time>
      </trkpt>
      <trkpt lat="40.705226" lon="-4.068954">
        <ele>1057.57</ele>
        <time>2022-04-17T12:22:35+00:00</time>
      </trkpt>
      <trkpt lat="40.705162" lon="-4.068997">
        <ele>1057.09</ele>
        <time>2022-04-17T12:22:42+00:00</time>
      </trkpt>
      <trkpt lat="40.705097" lon="-4.069126">
        <ele>1056.61</ele>
        <time>2022-04-17T12:22:43+00:00</time>
      </trkpt>
      <trkpt lat="40.705033" lon="-4.069126">
        <ele>1057.09</ele>
        <time>2022-04-17T12:22:44+00:00</time>
      </trkpt>
      <trkpt lat="40.704840" lon="-4.069169">
        <ele>1057.09</ele>
        <time>2022-04-17T12:22:46+00:00</time>
      </trkpt>
      <trkpt lat="40.704732" lon="-4.069212">
        <ele>1056.61</ele>
        <time>2022-04-17T12:22:47+00:00</time>
      </trkpt>
      <trkpt lat="40.703660" lon="-4.069834">
        <ele>1049.88</ele>
        <time>2022-04-17T12:22:55+00:00</time>
      </trkpt>
      <trkpt lat="40.701707" lon="-4.070971">
        <ele>1037.38</ele>
        <time>2022-04-17T12:23:07+00:00</time>
      </trkpt>
      <trkpt lat="40.700291" lon="-4.071744">
        <ele>1031.13</ele>
        <time>2022-04-17T12:23:16+00:00</time>
      </trkpt>
      <trkpt lat="40.698703" lon="-4.072495">
        <ele>1024.40</ele>
        <time>2022-04-17T12:23:24+00:00</time>
      </trkpt>
      <trkpt lat="40.697158" lon="-4.073160">
        <ele>1019.12</ele>
        <time>2022-04-17T12:23:29+00:00</time>
      </trkpt>
      <trkpt lat="40.695420" lon="-4.073932">
        <ele>1012.39</ele>
        <time>2022-04-17T12:23:35+00:00</time>
      </trkpt>
      <trkpt lat="40.692974" lon="-4.074919">
        <ele>1002.29</ele>
        <time>2022-04-17T12:23:44+00:00</time>
      </trkpt>
      <trkpt lat="40.690957" lon="-4.075863">
        <ele>993.16</ele>
        <time>2022-04-17T12:23:53+00:00</time>
      </trkpt>
      <trkpt lat="40.689219" lon="-4.076743">
        <ele>988.83</ele>
        <time>2022-04-17T12:24:03+00:00</time>
      </trkpt>
      <trkpt lat="40.687201" lon="-4.077666">
        <ele>981.62</ele>
        <time>2022-04-17T12:24:14+00:00</time>
      </trkpt>
      <trkpt lat="40.685742" lon="-4.078310">
        <ele>974.41</ele>
        <time>2022-04-17T12:24:23+00:00</time>
      </trkpt>
      <trkpt lat="40.684433" lon="-4.078910">
        <ele>970.09</ele>
        <time>2022-04-17T12:24:34+00:00</time>
      </trkpt>
      <trkpt lat="40.683704" lon="-4.079254">
        <ele>968.17</ele>
        <time>2022-04-17T12:24:42+00:00</time>
      </trkpt>
      <trkpt lat="40.683682" lon="-4.079275">
        <ele>967.20</ele>
        <time>2022-04-17T12:24:46+00:00</time>
      </trkpt>
      <trkpt lat="40.683189" lon="-4.079490">
        <ele>966.72</ele>
        <time>2022-04-17T12:24:52+00:00</time>
      </trkpt>
      <trkpt lat="40.682266" lon="-4.079919">
        <ele>966.72</ele>
        <time>2022-04-17T12:25:00+00:00</time>
      </trkpt>
      <trkpt lat="40.680936" lon="-4.080520">
        <ele>967.20</ele>
        <time>2022-04-17T12:25:10+00:00</time>
      </trkpt>
      <trkpt lat="40.679305" lon="-4.081292">
        <ele>962.40</ele>
        <time>2022-04-17T12:25:22+00:00</time>
      </trkpt>
      <trkpt lat="40.678189" lon="-4.081807">
        <ele>956.15</ele>
        <time>2022-04-17T12:25:33+00:00</time>
      </trkpt>
      <trkpt lat="40.677975" lon="-4.081914">
        <ele>954.71</ele>
        <time>2022-04-17T12:25:38+00:00</time>
      </trkpt>
    </trkseg>
  </trk>
</gpx>
